<?xml version="1.0" encoding="UTF-8"?>
<gpx xmlns="http://www.topografix.com/GPX/1/1"
     creator="GpsDumpMac 0.29"
     version="1.1"
     xmlns:xsi="http://www.w3.org/2001/XMLSchema-instance"
     xsi:schemaLocation="http://www.topografix.com/GPX/1/1 http://www.topografix.com/GPX/1/1/gpx.xsd">
  <metadata>
    <link href="http://www.gethome.no/stein.sorensen/">
      <text>GPS dump for www.flightlog.org</text>
    </link>
    <time>2018-09-04T07:41:49Z</time>
    <bounds minlat="40.421433" minlon="-5.303283" maxlat="40.649817" maxlon="-4.708133"/>
  </metadata>
  <trk>
    <name>Track 001</name>
    <trkseg>
      <trkpt lat="40.421517" lon="-5.302150">
        <ele>1928.0</ele>
        <time>2018-08-13T11:39:29Z</time>
      </trkpt>
      <trkpt lat="40.421500" lon="-5.302233">
        <ele>1929.0</ele>
        <time>2018-08-13T11:39:30Z</time>
      </trkpt>
      <trkpt lat="40.421500" lon="-5.302317">
        <ele>1930.0</ele>
        <time>2018-08-13T11:39:31Z</time>
      </trkpt>
      <trkpt lat="40.421483" lon="-5.302383">
        <ele>1930.0</ele>
        <time>2018-08-13T11:39:32Z</time>
      </trkpt>
      <trkpt lat="40.421467" lon="-5.302467">
        <ele>1930.0</ele>
        <time>2018-08-13T11:39:33Z</time>
      </trkpt>
      <trkpt lat="40.421467" lon="-5.302550">
        <ele>1930.0</ele>
        <time>2018-08-13T11:39:34Z</time>
      </trkpt>
      <trkpt lat="40.421467" lon="-5.302633">
        <ele>1930.0</ele>
        <time>2018-08-13T11:39:35Z</time>
      </trkpt>
      <trkpt lat="40.421450" lon="-5.302700">
        <ele>1932.0</ele>
        <time>2018-08-13T11:39:36Z</time>
      </trkpt>
      <trkpt lat="40.421450" lon="-5.302750">
        <ele>1933.0</ele>
        <time>2018-08-13T11:39:37Z</time>
      </trkpt>
      <trkpt lat="40.421433" lon="-5.302800">
        <ele>1934.0</ele>
        <time>2018-08-13T11:39:38Z</time>
      </trkpt>
      <trkpt lat="40.421433" lon="-5.302833">
        <ele>1934.0</ele>
        <time>2018-08-13T11:39:39Z</time>
      </trkpt>
      <trkpt lat="40.421450" lon="-5.302883">
        <ele>1934.0</ele>
        <time>2018-08-13T11:39:40Z</time>
      </trkpt>
      <trkpt lat="40.421467" lon="-5.302917">
        <ele>1933.0</ele>
        <time>2018-08-13T11:39:41Z</time>
      </trkpt>
      <trkpt lat="40.421483" lon="-5.302983">
        <ele>1933.0</ele>
        <time>2018-08-13T11:39:42Z</time>
      </trkpt>
      <trkpt lat="40.421467" lon="-5.303033">
        <ele>1933.0</ele>
        <time>2018-08-13T11:39:43Z</time>
      </trkpt>
      <trkpt lat="40.421467" lon="-5.303083">
        <ele>1932.0</ele>
        <time>2018-08-13T11:39:44Z</time>
      </trkpt>
      <trkpt lat="40.421500" lon="-5.303133">
        <ele>1931.0</ele>
        <time>2018-08-13T11:39:45Z</time>
      </trkpt>
      <trkpt lat="40.421533" lon="-5.303183">
        <ele>1930.0</ele>
        <time>2018-08-13T11:39:46Z</time>
      </trkpt>
      <trkpt lat="40.421583" lon="-5.303217">
        <ele>1930.0</ele>
        <time>2018-08-13T11:39:47Z</time>
      </trkpt>
      <trkpt lat="40.421633" lon="-5.303250">
        <ele>1930.0</ele>
        <time>2018-08-13T11:39:48Z</time>
      </trkpt>
      <trkpt lat="40.421667" lon="-5.303267">
        <ele>1933.0</ele>
        <time>2018-08-13T11:39:49Z</time>
      </trkpt>
      <trkpt lat="40.421683" lon="-5.303283">
        <ele>1935.0</ele>
        <time>2018-08-13T11:39:50Z</time>
      </trkpt>
      <trkpt lat="40.421700" lon="-5.303267">
        <ele>1936.0</ele>
        <time>2018-08-13T11:39:51Z</time>
      </trkpt>
      <trkpt lat="40.421717" lon="-5.303233">
        <ele>1935.0</ele>
        <time>2018-08-13T11:39:52Z</time>
      </trkpt>
      <trkpt lat="40.421750" lon="-5.303217">
        <ele>1935.0</ele>
        <time>2018-08-13T11:39:53Z</time>
      </trkpt>
      <trkpt lat="40.421800" lon="-5.303167">
        <ele>1934.0</ele>
        <time>2018-08-13T11:39:54Z</time>
      </trkpt>
      <trkpt lat="40.421850" lon="-5.303083">
        <ele>1933.0</ele>
        <time>2018-08-13T11:39:55Z</time>
      </trkpt>
      <trkpt lat="40.421900" lon="-5.302967">
        <ele>1935.0</ele>
        <time>2018-08-13T11:39:56Z</time>
      </trkpt>
      <trkpt lat="40.421933" lon="-5.302850">
        <ele>1937.0</ele>
        <time>2018-08-13T11:39:57Z</time>
      </trkpt>
      <trkpt lat="40.421967" lon="-5.302783">
        <ele>1939.0</ele>
        <time>2018-08-13T11:39:58Z</time>
      </trkpt>
      <trkpt lat="40.422000" lon="-5.302733">
        <ele>1941.0</ele>
        <time>2018-08-13T11:39:59Z</time>
      </trkpt>
      <trkpt lat="40.422033" lon="-5.302700">
        <ele>1941.0</ele>
        <time>2018-08-13T11:40:00Z</time>
      </trkpt>
      <trkpt lat="40.422067" lon="-5.302633">
        <ele>1940.0</ele>
        <time>2018-08-13T11:40:01Z</time>
      </trkpt>
      <trkpt lat="40.422117" lon="-5.302550">
        <ele>1940.0</ele>
        <time>2018-08-13T11:40:02Z</time>
      </trkpt>
      <trkpt lat="40.422150" lon="-5.302467">
        <ele>1943.0</ele>
        <time>2018-08-13T11:40:03Z</time>
      </trkpt>
      <trkpt lat="40.422183" lon="-5.302400">
        <ele>1945.0</ele>
        <time>2018-08-13T11:40:04Z</time>
      </trkpt>
      <trkpt lat="40.422233" lon="-5.302383">
        <ele>1945.0</ele>
        <time>2018-08-13T11:40:05Z</time>
      </trkpt>
      <trkpt lat="40.422267" lon="-5.302383">
        <ele>1945.0</ele>
        <time>2018-08-13T11:40:06Z</time>
      </trkpt>
      <trkpt lat="40.422317" lon="-5.302383">
        <ele>1945.0</ele>
        <time>2018-08-13T11:40:07Z</time>
      </trkpt>
      <trkpt lat="40.422367" lon="-5.302350">
        <ele>1944.0</ele>
        <time>2018-08-13T11:40:08Z</time>
      </trkpt>
      <trkpt lat="40.422417" lon="-5.302317">
        <ele>1944.0</ele>
        <time>2018-08-13T11:40:09Z</time>
      </trkpt>
      <trkpt lat="40.422467" lon="-5.302283">
        <ele>1944.0</ele>
        <time>2018-08-13T11:40:10Z</time>
      </trkpt>
      <trkpt lat="40.422517" lon="-5.302267">
        <ele>1944.0</ele>
        <time>2018-08-13T11:40:11Z</time>
      </trkpt>
      <trkpt lat="40.422567" lon="-5.302267">
        <ele>1945.0</ele>
        <time>2018-08-13T11:40:12Z</time>
      </trkpt>
      <trkpt lat="40.422600" lon="-5.302300">
        <ele>1946.0</ele>
        <time>2018-08-13T11:40:13Z</time>
      </trkpt>
      <trkpt lat="40.422633" lon="-5.302333">
        <ele>1946.0</ele>
        <time>2018-08-13T11:40:14Z</time>
      </trkpt>
      <trkpt lat="40.422683" lon="-5.302383">
        <ele>1945.0</ele>
        <time>2018-08-13T11:40:15Z</time>
      </trkpt>
      <trkpt lat="40.422733" lon="-5.302433">
        <ele>1945.0</ele>
        <time>2018-08-13T11:40:16Z</time>
      </trkpt>
      <trkpt lat="40.422800" lon="-5.302467">
        <ele>1947.0</ele>
        <time>2018-08-13T11:40:17Z</time>
      </trkpt>
      <trkpt lat="40.422850" lon="-5.302500">
        <ele>1950.0</ele>
        <time>2018-08-13T11:40:18Z</time>
      </trkpt>
      <trkpt lat="40.422883" lon="-5.302517">
        <ele>1953.0</ele>
        <time>2018-08-13T11:40:19Z</time>
      </trkpt>
      <trkpt lat="40.422900" lon="-5.302550">
        <ele>1956.0</ele>
        <time>2018-08-13T11:40:20Z</time>
      </trkpt>
      <trkpt lat="40.422917" lon="-5.302600">
        <ele>1957.0</ele>
        <time>2018-08-13T11:40:21Z</time>
      </trkpt>
      <trkpt lat="40.422933" lon="-5.302650">
        <ele>1957.0</ele>
        <time>2018-08-13T11:40:22Z</time>
      </trkpt>
      <trkpt lat="40.422967" lon="-5.302717">
        <ele>1956.0</ele>
        <time>2018-08-13T11:40:23Z</time>
      </trkpt>
      <trkpt lat="40.423017" lon="-5.302783">
        <ele>1956.0</ele>
        <time>2018-08-13T11:40:24Z</time>
      </trkpt>
      <trkpt lat="40.423050" lon="-5.302867">
        <ele>1959.0</ele>
        <time>2018-08-13T11:40:25Z</time>
      </trkpt>
      <trkpt lat="40.423067" lon="-5.302933">
        <ele>1962.0</ele>
        <time>2018-08-13T11:40:26Z</time>
      </trkpt>
      <trkpt lat="40.423083" lon="-5.302983">
        <ele>1966.0</ele>
        <time>2018-08-13T11:40:27Z</time>
      </trkpt>
      <trkpt lat="40.423100" lon="-5.303000">
        <ele>1968.0</ele>
        <time>2018-08-13T11:40:28Z</time>
      </trkpt>
      <trkpt lat="40.423133" lon="-5.303000">
        <ele>1969.0</ele>
        <time>2018-08-13T11:40:29Z</time>
      </trkpt>
      <trkpt lat="40.423183" lon="-5.302983">
        <ele>1968.0</ele>
        <time>2018-08-13T11:40:30Z</time>
      </trkpt>
      <trkpt lat="40.423250" lon="-5.302917">
        <ele>1968.0</ele>
        <time>2018-08-13T11:40:31Z</time>
      </trkpt>
      <trkpt lat="40.423317" lon="-5.302817">
        <ele>1970.0</ele>
        <time>2018-08-13T11:40:32Z</time>
      </trkpt>
      <trkpt lat="40.423350" lon="-5.302700">
        <ele>1974.0</ele>
        <time>2018-08-13T11:40:33Z</time>
      </trkpt>
      <trkpt lat="40.423367" lon="-5.302583">
        <ele>1979.0</ele>
        <time>2018-08-13T11:40:34Z</time>
      </trkpt>
      <trkpt lat="40.423350" lon="-5.302450">
        <ele>1983.0</ele>
        <time>2018-08-13T11:40:35Z</time>
      </trkpt>
      <trkpt lat="40.423317" lon="-5.302317">
        <ele>1985.0</ele>
        <time>2018-08-13T11:40:36Z</time>
      </trkpt>
      <trkpt lat="40.423267" lon="-5.302150">
        <ele>1985.0</ele>
        <time>2018-08-13T11:40:37Z</time>
      </trkpt>
      <trkpt lat="40.423183" lon="-5.301983">
        <ele>1986.0</ele>
        <time>2018-08-13T11:40:38Z</time>
      </trkpt>
      <trkpt lat="40.423050" lon="-5.301833">
        <ele>1987.0</ele>
        <time>2018-08-13T11:40:39Z</time>
      </trkpt>
      <trkpt lat="40.422900" lon="-5.301717">
        <ele>1987.0</ele>
        <time>2018-08-13T11:40:40Z</time>
      </trkpt>
      <trkpt lat="40.422733" lon="-5.301650">
        <ele>1989.0</ele>
        <time>2018-08-13T11:40:41Z</time>
      </trkpt>
      <trkpt lat="40.422583" lon="-5.301667">
        <ele>1990.0</ele>
        <time>2018-08-13T11:40:42Z</time>
      </trkpt>
      <trkpt lat="40.422467" lon="-5.301717">
        <ele>1991.0</ele>
        <time>2018-08-13T11:40:43Z</time>
      </trkpt>
      <trkpt lat="40.422367" lon="-5.301783">
        <ele>1992.0</ele>
        <time>2018-08-13T11:40:44Z</time>
      </trkpt>
      <trkpt lat="40.422300" lon="-5.301867">
        <ele>1993.0</ele>
        <time>2018-08-13T11:40:45Z</time>
      </trkpt>
      <trkpt lat="40.422233" lon="-5.301950">
        <ele>1995.0</ele>
        <time>2018-08-13T11:40:46Z</time>
      </trkpt>
      <trkpt lat="40.422200" lon="-5.302033">
        <ele>1996.0</ele>
        <time>2018-08-13T11:40:47Z</time>
      </trkpt>
      <trkpt lat="40.422167" lon="-5.302117">
        <ele>1997.0</ele>
        <time>2018-08-13T11:40:48Z</time>
      </trkpt>
      <trkpt lat="40.422150" lon="-5.302183">
        <ele>1998.0</ele>
        <time>2018-08-13T11:40:49Z</time>
      </trkpt>
      <trkpt lat="40.422150" lon="-5.302250">
        <ele>2000.0</ele>
        <time>2018-08-13T11:40:50Z</time>
      </trkpt>
      <trkpt lat="40.422167" lon="-5.302300">
        <ele>2001.0</ele>
        <time>2018-08-13T11:40:51Z</time>
      </trkpt>
      <trkpt lat="40.422200" lon="-5.302333">
        <ele>2003.0</ele>
        <time>2018-08-13T11:40:52Z</time>
      </trkpt>
      <trkpt lat="40.422217" lon="-5.302383">
        <ele>2005.0</ele>
        <time>2018-08-13T11:40:53Z</time>
      </trkpt>
      <trkpt lat="40.422250" lon="-5.302400">
        <ele>2006.0</ele>
        <time>2018-08-13T11:40:54Z</time>
      </trkpt>
      <trkpt lat="40.422283" lon="-5.302383">
        <ele>2007.0</ele>
        <time>2018-08-13T11:40:55Z</time>
      </trkpt>
      <trkpt lat="40.422333" lon="-5.302350">
        <ele>2006.0</ele>
        <time>2018-08-13T11:40:56Z</time>
      </trkpt>
      <trkpt lat="40.422400" lon="-5.302267">
        <ele>2006.0</ele>
        <time>2018-08-13T11:40:57Z</time>
      </trkpt>
      <trkpt lat="40.422467" lon="-5.302167">
        <ele>2007.0</ele>
        <time>2018-08-13T11:40:58Z</time>
      </trkpt>
      <trkpt lat="40.422500" lon="-5.302083">
        <ele>2010.0</ele>
        <time>2018-08-13T11:40:59Z</time>
      </trkpt>
      <trkpt lat="40.422533" lon="-5.302050">
        <ele>2013.0</ele>
        <time>2018-08-13T11:41:00Z</time>
      </trkpt>
      <trkpt lat="40.422567" lon="-5.302033">
        <ele>2014.0</ele>
        <time>2018-08-13T11:41:01Z</time>
      </trkpt>
      <trkpt lat="40.422583" lon="-5.302067">
        <ele>2016.0</ele>
        <time>2018-08-13T11:41:02Z</time>
      </trkpt>
      <trkpt lat="40.422600" lon="-5.302117">
        <ele>2019.0</ele>
        <time>2018-08-13T11:41:03Z</time>
      </trkpt>
      <trkpt lat="40.422617" lon="-5.302133">
        <ele>2023.0</ele>
        <time>2018-08-13T11:41:04Z</time>
      </trkpt>
      <trkpt lat="40.422633" lon="-5.302150">
        <ele>2025.0</ele>
        <time>2018-08-13T11:41:05Z</time>
      </trkpt>
      <trkpt lat="40.422667" lon="-5.302133">
        <ele>2028.0</ele>
        <time>2018-08-13T11:41:06Z</time>
      </trkpt>
      <trkpt lat="40.422700" lon="-5.302117">
        <ele>2030.0</ele>
        <time>2018-08-13T11:41:07Z</time>
      </trkpt>
      <trkpt lat="40.422717" lon="-5.302117">
        <ele>2032.0</ele>
        <time>2018-08-13T11:41:08Z</time>
      </trkpt>
      <trkpt lat="40.422733" lon="-5.302133">
        <ele>2033.0</ele>
        <time>2018-08-13T11:41:09Z</time>
      </trkpt>
      <trkpt lat="40.422733" lon="-5.302183">
        <ele>2036.0</ele>
        <time>2018-08-13T11:41:10Z</time>
      </trkpt>
      <trkpt lat="40.422700" lon="-5.302233">
        <ele>2038.0</ele>
        <time>2018-08-13T11:41:11Z</time>
      </trkpt>
      <trkpt lat="40.422650" lon="-5.302267">
        <ele>2042.0</ele>
        <time>2018-08-13T11:41:12Z</time>
      </trkpt>
      <trkpt lat="40.422583" lon="-5.302283">
        <ele>2045.0</ele>
        <time>2018-08-13T11:41:13Z</time>
      </trkpt>
      <trkpt lat="40.422500" lon="-5.302300">
        <ele>2048.0</ele>
        <time>2018-08-13T11:41:14Z</time>
      </trkpt>
      <trkpt lat="40.422417" lon="-5.302317">
        <ele>2050.0</ele>
        <time>2018-08-13T11:41:15Z</time>
      </trkpt>
      <trkpt lat="40.422300" lon="-5.302300">
        <ele>2051.0</ele>
        <time>2018-08-13T11:41:16Z</time>
      </trkpt>
      <trkpt lat="40.422167" lon="-5.302250">
        <ele>2052.0</ele>
        <time>2018-08-13T11:41:17Z</time>
      </trkpt>
      <trkpt lat="40.422033" lon="-5.302200">
        <ele>2054.0</ele>
        <time>2018-08-13T11:41:18Z</time>
      </trkpt>
      <trkpt lat="40.421917" lon="-5.302133">
        <ele>2056.0</ele>
        <time>2018-08-13T11:41:19Z</time>
      </trkpt>
      <trkpt lat="40.421800" lon="-5.302050">
        <ele>2057.0</ele>
        <time>2018-08-13T11:41:20Z</time>
      </trkpt>
      <trkpt lat="40.421683" lon="-5.301917">
        <ele>2057.0</ele>
        <time>2018-08-13T11:41:21Z</time>
      </trkpt>
      <trkpt lat="40.421600" lon="-5.301750">
        <ele>2057.0</ele>
        <time>2018-08-13T11:41:22Z</time>
      </trkpt>
      <trkpt lat="40.421533" lon="-5.301567">
        <ele>2056.0</ele>
        <time>2018-08-13T11:41:23Z</time>
      </trkpt>
      <trkpt lat="40.421500" lon="-5.301367">
        <ele>2057.0</ele>
        <time>2018-08-13T11:41:24Z</time>
      </trkpt>
      <trkpt lat="40.421500" lon="-5.301167">
        <ele>2058.0</ele>
        <time>2018-08-13T11:41:25Z</time>
      </trkpt>
      <trkpt lat="40.421533" lon="-5.301000">
        <ele>2061.0</ele>
        <time>2018-08-13T11:41:26Z</time>
      </trkpt>
      <trkpt lat="40.421567" lon="-5.300900">
        <ele>2064.0</ele>
        <time>2018-08-13T11:41:27Z</time>
      </trkpt>
      <trkpt lat="40.421617" lon="-5.300850">
        <ele>2066.0</ele>
        <time>2018-08-13T11:41:28Z</time>
      </trkpt>
      <trkpt lat="40.421683" lon="-5.300817">
        <ele>2068.0</ele>
        <time>2018-08-13T11:41:29Z</time>
      </trkpt>
      <trkpt lat="40.421733" lon="-5.300783">
        <ele>2070.0</ele>
        <time>2018-08-13T11:41:30Z</time>
      </trkpt>
      <trkpt lat="40.421783" lon="-5.300783">
        <ele>2073.0</ele>
        <time>2018-08-13T11:41:31Z</time>
      </trkpt>
      <trkpt lat="40.421817" lon="-5.300817">
        <ele>2075.0</ele>
        <time>2018-08-13T11:41:32Z</time>
      </trkpt>
      <trkpt lat="40.421850" lon="-5.300850">
        <ele>2078.0</ele>
        <time>2018-08-13T11:41:33Z</time>
      </trkpt>
      <trkpt lat="40.421883" lon="-5.300867">
        <ele>2082.0</ele>
        <time>2018-08-13T11:41:34Z</time>
      </trkpt>
      <trkpt lat="40.421917" lon="-5.300867">
        <ele>2085.0</ele>
        <time>2018-08-13T11:41:35Z</time>
      </trkpt>
      <trkpt lat="40.421950" lon="-5.300850">
        <ele>2088.0</ele>
        <time>2018-08-13T11:41:36Z</time>
      </trkpt>
      <trkpt lat="40.421967" lon="-5.300833">
        <ele>2090.0</ele>
        <time>2018-08-13T11:41:37Z</time>
      </trkpt>
      <trkpt lat="40.421983" lon="-5.300833">
        <ele>2090.0</ele>
        <time>2018-08-13T11:41:38Z</time>
      </trkpt>
      <trkpt lat="40.422000" lon="-5.300833">
        <ele>2089.0</ele>
        <time>2018-08-13T11:41:39Z</time>
      </trkpt>
      <trkpt lat="40.422000" lon="-5.300867">
        <ele>2087.0</ele>
        <time>2018-08-13T11:41:40Z</time>
      </trkpt>
      <trkpt lat="40.422017" lon="-5.300917">
        <ele>2087.0</ele>
        <time>2018-08-13T11:41:41Z</time>
      </trkpt>
      <trkpt lat="40.422050" lon="-5.300933">
        <ele>2086.0</ele>
        <time>2018-08-13T11:41:42Z</time>
      </trkpt>
      <trkpt lat="40.422100" lon="-5.300933">
        <ele>2088.0</ele>
        <time>2018-08-13T11:41:43Z</time>
      </trkpt>
      <trkpt lat="40.422150" lon="-5.300883">
        <ele>2088.0</ele>
        <time>2018-08-13T11:41:44Z</time>
      </trkpt>
      <trkpt lat="40.422217" lon="-5.300817">
        <ele>2087.0</ele>
        <time>2018-08-13T11:41:45Z</time>
      </trkpt>
      <trkpt lat="40.422283" lon="-5.300733">
        <ele>2088.0</ele>
        <time>2018-08-13T11:41:46Z</time>
      </trkpt>
      <trkpt lat="40.422367" lon="-5.300683">
        <ele>2090.0</ele>
        <time>2018-08-13T11:41:47Z</time>
      </trkpt>
      <trkpt lat="40.422433" lon="-5.300633">
        <ele>2092.0</ele>
        <time>2018-08-13T11:41:48Z</time>
      </trkpt>
      <trkpt lat="40.422483" lon="-5.300583">
        <ele>2094.0</ele>
        <time>2018-08-13T11:41:49Z</time>
      </trkpt>
      <trkpt lat="40.422517" lon="-5.300550">
        <ele>2096.0</ele>
        <time>2018-08-13T11:41:50Z</time>
      </trkpt>
      <trkpt lat="40.422533" lon="-5.300500">
        <ele>2096.0</ele>
        <time>2018-08-13T11:41:51Z</time>
      </trkpt>
      <trkpt lat="40.422567" lon="-5.300450">
        <ele>2095.0</ele>
        <time>2018-08-13T11:41:52Z</time>
      </trkpt>
      <trkpt lat="40.422600" lon="-5.300400">
        <ele>2094.0</ele>
        <time>2018-08-13T11:41:53Z</time>
      </trkpt>
      <trkpt lat="40.422650" lon="-5.300367">
        <ele>2092.0</ele>
        <time>2018-08-13T11:41:54Z</time>
      </trkpt>
      <trkpt lat="40.422717" lon="-5.300350">
        <ele>2091.0</ele>
        <time>2018-08-13T11:41:55Z</time>
      </trkpt>
      <trkpt lat="40.422767" lon="-5.300333">
        <ele>2091.0</ele>
        <time>2018-08-13T11:41:56Z</time>
      </trkpt>
      <trkpt lat="40.422800" lon="-5.300300">
        <ele>2092.0</ele>
        <time>2018-08-13T11:41:57Z</time>
      </trkpt>
      <trkpt lat="40.422833" lon="-5.300267">
        <ele>2092.0</ele>
        <time>2018-08-13T11:41:58Z</time>
      </trkpt>
      <trkpt lat="40.422883" lon="-5.300233">
        <ele>2092.0</ele>
        <time>2018-08-13T11:41:59Z</time>
      </trkpt>
      <trkpt lat="40.422933" lon="-5.300183">
        <ele>2091.0</ele>
        <time>2018-08-13T11:42:00Z</time>
      </trkpt>
      <trkpt lat="40.423000" lon="-5.300150">
        <ele>2090.0</ele>
        <time>2018-08-13T11:42:01Z</time>
      </trkpt>
      <trkpt lat="40.423067" lon="-5.300117">
        <ele>2090.0</ele>
        <time>2018-08-13T11:42:02Z</time>
      </trkpt>
      <trkpt lat="40.423117" lon="-5.300083">
        <ele>2092.0</ele>
        <time>2018-08-13T11:42:03Z</time>
      </trkpt>
      <trkpt lat="40.423150" lon="-5.300067">
        <ele>2092.0</ele>
        <time>2018-08-13T11:42:04Z</time>
      </trkpt>
      <trkpt lat="40.423200" lon="-5.300033">
        <ele>2093.0</ele>
        <time>2018-08-13T11:42:05Z</time>
      </trkpt>
      <trkpt lat="40.423233" lon="-5.300000">
        <ele>2093.0</ele>
        <time>2018-08-13T11:42:06Z</time>
      </trkpt>
      <trkpt lat="40.423267" lon="-5.299983">
        <ele>2091.0</ele>
        <time>2018-08-13T11:42:07Z</time>
      </trkpt>
      <trkpt lat="40.423317" lon="-5.299950">
        <ele>2090.0</ele>
        <time>2018-08-13T11:42:08Z</time>
      </trkpt>
      <trkpt lat="40.423350" lon="-5.299933">
        <ele>2090.0</ele>
        <time>2018-08-13T11:42:09Z</time>
      </trkpt>
      <trkpt lat="40.423400" lon="-5.299900">
        <ele>2089.0</ele>
        <time>2018-08-13T11:42:10Z</time>
      </trkpt>
      <trkpt lat="40.423450" lon="-5.299867">
        <ele>2088.0</ele>
        <time>2018-08-13T11:42:11Z</time>
      </trkpt>
      <trkpt lat="40.423500" lon="-5.299817">
        <ele>2087.0</ele>
        <time>2018-08-13T11:42:12Z</time>
      </trkpt>
      <trkpt lat="40.423550" lon="-5.299750">
        <ele>2085.0</ele>
        <time>2018-08-13T11:42:13Z</time>
      </trkpt>
      <trkpt lat="40.423600" lon="-5.299683">
        <ele>2084.0</ele>
        <time>2018-08-13T11:42:14Z</time>
      </trkpt>
      <trkpt lat="40.423667" lon="-5.299633">
        <ele>2083.0</ele>
        <time>2018-08-13T11:42:15Z</time>
      </trkpt>
      <trkpt lat="40.423717" lon="-5.299600">
        <ele>2081.0</ele>
        <time>2018-08-13T11:42:16Z</time>
      </trkpt>
      <trkpt lat="40.423783" lon="-5.299550">
        <ele>2080.0</ele>
        <time>2018-08-13T11:42:17Z</time>
      </trkpt>
      <trkpt lat="40.423850" lon="-5.299483">
        <ele>2080.0</ele>
        <time>2018-08-13T11:42:18Z</time>
      </trkpt>
      <trkpt lat="40.423917" lon="-5.299400">
        <ele>2079.0</ele>
        <time>2018-08-13T11:42:19Z</time>
      </trkpt>
      <trkpt lat="40.423967" lon="-5.299300">
        <ele>2079.0</ele>
        <time>2018-08-13T11:42:20Z</time>
      </trkpt>
      <trkpt lat="40.424017" lon="-5.299217">
        <ele>2079.0</ele>
        <time>2018-08-13T11:42:21Z</time>
      </trkpt>
      <trkpt lat="40.424067" lon="-5.299150">
        <ele>2079.0</ele>
        <time>2018-08-13T11:42:22Z</time>
      </trkpt>
      <trkpt lat="40.424117" lon="-5.299117">
        <ele>2078.0</ele>
        <time>2018-08-13T11:42:23Z</time>
      </trkpt>
      <trkpt lat="40.424167" lon="-5.299067">
        <ele>2078.0</ele>
        <time>2018-08-13T11:42:24Z</time>
      </trkpt>
      <trkpt lat="40.424233" lon="-5.299000">
        <ele>2078.0</ele>
        <time>2018-08-13T11:42:25Z</time>
      </trkpt>
      <trkpt lat="40.424300" lon="-5.298900">
        <ele>2079.0</ele>
        <time>2018-08-13T11:42:26Z</time>
      </trkpt>
      <trkpt lat="40.424350" lon="-5.298817">
        <ele>2080.0</ele>
        <time>2018-08-13T11:42:27Z</time>
      </trkpt>
      <trkpt lat="40.424400" lon="-5.298733">
        <ele>2081.0</ele>
        <time>2018-08-13T11:42:28Z</time>
      </trkpt>
      <trkpt lat="40.424433" lon="-5.298667">
        <ele>2080.0</ele>
        <time>2018-08-13T11:42:29Z</time>
      </trkpt>
      <trkpt lat="40.424483" lon="-5.298617">
        <ele>2079.0</ele>
        <time>2018-08-13T11:42:30Z</time>
      </trkpt>
      <trkpt lat="40.424533" lon="-5.298567">
        <ele>2076.0</ele>
        <time>2018-08-13T11:42:31Z</time>
      </trkpt>
      <trkpt lat="40.424600" lon="-5.298533">
        <ele>2074.0</ele>
        <time>2018-08-13T11:42:32Z</time>
      </trkpt>
      <trkpt lat="40.424650" lon="-5.298500">
        <ele>2073.0</ele>
        <time>2018-08-13T11:42:33Z</time>
      </trkpt>
      <trkpt lat="40.424700" lon="-5.298483">
        <ele>2073.0</ele>
        <time>2018-08-13T11:42:34Z</time>
      </trkpt>
      <trkpt lat="40.424750" lon="-5.298483">
        <ele>2074.0</ele>
        <time>2018-08-13T11:42:35Z</time>
      </trkpt>
      <trkpt lat="40.424783" lon="-5.298483">
        <ele>2074.0</ele>
        <time>2018-08-13T11:42:36Z</time>
      </trkpt>
      <trkpt lat="40.424817" lon="-5.298483">
        <ele>2074.0</ele>
        <time>2018-08-13T11:42:37Z</time>
      </trkpt>
      <trkpt lat="40.424850" lon="-5.298483">
        <ele>2073.0</ele>
        <time>2018-08-13T11:42:38Z</time>
      </trkpt>
      <trkpt lat="40.424883" lon="-5.298500">
        <ele>2071.0</ele>
        <time>2018-08-13T11:42:39Z</time>
      </trkpt>
      <trkpt lat="40.424933" lon="-5.298533">
        <ele>2069.0</ele>
        <time>2018-08-13T11:42:40Z</time>
      </trkpt>
      <trkpt lat="40.424983" lon="-5.298533">
        <ele>2068.0</ele>
        <time>2018-08-13T11:42:41Z</time>
      </trkpt>
      <trkpt lat="40.425033" lon="-5.298550">
        <ele>2068.0</ele>
        <time>2018-08-13T11:42:42Z</time>
      </trkpt>
      <trkpt lat="40.425083" lon="-5.298550">
        <ele>2068.0</ele>
        <time>2018-08-13T11:42:43Z</time>
      </trkpt>
      <trkpt lat="40.425117" lon="-5.298550">
        <ele>2069.0</ele>
        <time>2018-08-13T11:42:44Z</time>
      </trkpt>
      <trkpt lat="40.425150" lon="-5.298567">
        <ele>2068.0</ele>
        <time>2018-08-13T11:42:45Z</time>
      </trkpt>
      <trkpt lat="40.425183" lon="-5.298600">
        <ele>2066.0</ele>
        <time>2018-08-13T11:42:46Z</time>
      </trkpt>
      <trkpt lat="40.425233" lon="-5.298650">
        <ele>2064.0</ele>
        <time>2018-08-13T11:42:47Z</time>
      </trkpt>
      <trkpt lat="40.425283" lon="-5.298683">
        <ele>2063.0</ele>
        <time>2018-08-13T11:42:48Z</time>
      </trkpt>
      <trkpt lat="40.425333" lon="-5.298733">
        <ele>2063.0</ele>
        <time>2018-08-13T11:42:49Z</time>
      </trkpt>
      <trkpt lat="40.425367" lon="-5.298750">
        <ele>2064.0</ele>
        <time>2018-08-13T11:42:50Z</time>
      </trkpt>
      <trkpt lat="40.425417" lon="-5.298767">
        <ele>2064.0</ele>
        <time>2018-08-13T11:42:51Z</time>
      </trkpt>
      <trkpt lat="40.425467" lon="-5.298750">
        <ele>2064.0</ele>
        <time>2018-08-13T11:42:52Z</time>
      </trkpt>
      <trkpt lat="40.425517" lon="-5.298717">
        <ele>2064.0</ele>
        <time>2018-08-13T11:42:53Z</time>
      </trkpt>
      <trkpt lat="40.425567" lon="-5.298717">
        <ele>2066.0</ele>
        <time>2018-08-13T11:42:54Z</time>
      </trkpt>
      <trkpt lat="40.425600" lon="-5.298717">
        <ele>2069.0</ele>
        <time>2018-08-13T11:42:55Z</time>
      </trkpt>
      <trkpt lat="40.425650" lon="-5.298717">
        <ele>2071.0</ele>
        <time>2018-08-13T11:42:56Z</time>
      </trkpt>
      <trkpt lat="40.425667" lon="-5.298717">
        <ele>2072.0</ele>
        <time>2018-08-13T11:42:57Z</time>
      </trkpt>
      <trkpt lat="40.425700" lon="-5.298683">
        <ele>2073.0</ele>
        <time>2018-08-13T11:42:58Z</time>
      </trkpt>
      <trkpt lat="40.425733" lon="-5.298650">
        <ele>2073.0</ele>
        <time>2018-08-13T11:42:59Z</time>
      </trkpt>
      <trkpt lat="40.425783" lon="-5.298633">
        <ele>2073.0</ele>
        <time>2018-08-13T11:43:00Z</time>
      </trkpt>
      <trkpt lat="40.425833" lon="-5.298633">
        <ele>2075.0</ele>
        <time>2018-08-13T11:43:01Z</time>
      </trkpt>
      <trkpt lat="40.425883" lon="-5.298633">
        <ele>2077.0</ele>
        <time>2018-08-13T11:43:02Z</time>
      </trkpt>
      <trkpt lat="40.425933" lon="-5.298600">
        <ele>2081.0</ele>
        <time>2018-08-13T11:43:03Z</time>
      </trkpt>
      <trkpt lat="40.425967" lon="-5.298567">
        <ele>2083.0</ele>
        <time>2018-08-13T11:43:04Z</time>
      </trkpt>
      <trkpt lat="40.426000" lon="-5.298533">
        <ele>2085.0</ele>
        <time>2018-08-13T11:43:05Z</time>
      </trkpt>
      <trkpt lat="40.426050" lon="-5.298533">
        <ele>2088.0</ele>
        <time>2018-08-13T11:43:06Z</time>
      </trkpt>
      <trkpt lat="40.426100" lon="-5.298550">
        <ele>2091.0</ele>
        <time>2018-08-13T11:43:07Z</time>
      </trkpt>
      <trkpt lat="40.426133" lon="-5.298617">
        <ele>2095.0</ele>
        <time>2018-08-13T11:43:08Z</time>
      </trkpt>
      <trkpt lat="40.426150" lon="-5.298700">
        <ele>2098.0</ele>
        <time>2018-08-13T11:43:09Z</time>
      </trkpt>
      <trkpt lat="40.426117" lon="-5.298783">
        <ele>2101.0</ele>
        <time>2018-08-13T11:43:10Z</time>
      </trkpt>
      <trkpt lat="40.426050" lon="-5.298883">
        <ele>2101.0</ele>
        <time>2018-08-13T11:43:11Z</time>
      </trkpt>
      <trkpt lat="40.425950" lon="-5.298950">
        <ele>2102.0</ele>
        <time>2018-08-13T11:43:12Z</time>
      </trkpt>
      <trkpt lat="40.425833" lon="-5.298983">
        <ele>2102.0</ele>
        <time>2018-08-13T11:43:13Z</time>
      </trkpt>
      <trkpt lat="40.425700" lon="-5.298950">
        <ele>2101.0</ele>
        <time>2018-08-13T11:43:14Z</time>
      </trkpt>
      <trkpt lat="40.425583" lon="-5.298900">
        <ele>2100.0</ele>
        <time>2018-08-13T11:43:15Z</time>
      </trkpt>
      <trkpt lat="40.425450" lon="-5.298817">
        <ele>2097.0</ele>
        <time>2018-08-13T11:43:16Z</time>
      </trkpt>
      <trkpt lat="40.425333" lon="-5.298700">
        <ele>2094.0</ele>
        <time>2018-08-13T11:43:17Z</time>
      </trkpt>
      <trkpt lat="40.425233" lon="-5.298550">
        <ele>2092.0</ele>
        <time>2018-08-13T11:43:18Z</time>
      </trkpt>
      <trkpt lat="40.425150" lon="-5.298383">
        <ele>2089.0</ele>
        <time>2018-08-13T11:43:19Z</time>
      </trkpt>
      <trkpt lat="40.425100" lon="-5.298200">
        <ele>2087.0</ele>
        <time>2018-08-13T11:43:20Z</time>
      </trkpt>
      <trkpt lat="40.425083" lon="-5.298017">
        <ele>2086.0</ele>
        <time>2018-08-13T11:43:21Z</time>
      </trkpt>
      <trkpt lat="40.425067" lon="-5.297867">
        <ele>2089.0</ele>
        <time>2018-08-13T11:43:22Z</time>
      </trkpt>
      <trkpt lat="40.425050" lon="-5.297717">
        <ele>2092.0</ele>
        <time>2018-08-13T11:43:23Z</time>
      </trkpt>
      <trkpt lat="40.425033" lon="-5.297583">
        <ele>2095.0</ele>
        <time>2018-08-13T11:43:24Z</time>
      </trkpt>
      <trkpt lat="40.425033" lon="-5.297467">
        <ele>2097.0</ele>
        <time>2018-08-13T11:43:25Z</time>
      </trkpt>
      <trkpt lat="40.425050" lon="-5.297367">
        <ele>2098.0</ele>
        <time>2018-08-13T11:43:26Z</time>
      </trkpt>
      <trkpt lat="40.425100" lon="-5.297267">
        <ele>2099.0</ele>
        <time>2018-08-13T11:43:27Z</time>
      </trkpt>
      <trkpt lat="40.425167" lon="-5.297183">
        <ele>2102.0</ele>
        <time>2018-08-13T11:43:28Z</time>
      </trkpt>
      <trkpt lat="40.425217" lon="-5.297100">
        <ele>2106.0</ele>
        <time>2018-08-13T11:43:29Z</time>
      </trkpt>
      <trkpt lat="40.425283" lon="-5.297017">
        <ele>2111.0</ele>
        <time>2018-08-13T11:43:30Z</time>
      </trkpt>
      <trkpt lat="40.425333" lon="-5.296950">
        <ele>2116.0</ele>
        <time>2018-08-13T11:43:31Z</time>
      </trkpt>
      <trkpt lat="40.425367" lon="-5.296867">
        <ele>2120.0</ele>
        <time>2018-08-13T11:43:32Z</time>
      </trkpt>
      <trkpt lat="40.425400" lon="-5.296800">
        <ele>2124.0</ele>
        <time>2018-08-13T11:43:33Z</time>
      </trkpt>
      <trkpt lat="40.425433" lon="-5.296750">
        <ele>2126.0</ele>
        <time>2018-08-13T11:43:34Z</time>
      </trkpt>
      <trkpt lat="40.425467" lon="-5.296700">
        <ele>2129.0</ele>
        <time>2018-08-13T11:43:35Z</time>
      </trkpt>
      <trkpt lat="40.425483" lon="-5.296633">
        <ele>2131.0</ele>
        <time>2018-08-13T11:43:36Z</time>
      </trkpt>
      <trkpt lat="40.425483" lon="-5.296583">
        <ele>2132.0</ele>
        <time>2018-08-13T11:43:37Z</time>
      </trkpt>
      <trkpt lat="40.425500" lon="-5.296533">
        <ele>2132.0</ele>
        <time>2018-08-13T11:43:38Z</time>
      </trkpt>
      <trkpt lat="40.425533" lon="-5.296500">
        <ele>2131.0</ele>
        <time>2018-08-13T11:43:39Z</time>
      </trkpt>
      <trkpt lat="40.425567" lon="-5.296467">
        <ele>2129.0</ele>
        <time>2018-08-13T11:43:40Z</time>
      </trkpt>
      <trkpt lat="40.425600" lon="-5.296450">
        <ele>2128.0</ele>
        <time>2018-08-13T11:43:41Z</time>
      </trkpt>
      <trkpt lat="40.425633" lon="-5.296433">
        <ele>2127.0</ele>
        <time>2018-08-13T11:43:42Z</time>
      </trkpt>
      <trkpt lat="40.425683" lon="-5.296433">
        <ele>2126.0</ele>
        <time>2018-08-13T11:43:43Z</time>
      </trkpt>
      <trkpt lat="40.425717" lon="-5.296417">
        <ele>2126.0</ele>
        <time>2018-08-13T11:43:44Z</time>
      </trkpt>
      <trkpt lat="40.425767" lon="-5.296417">
        <ele>2126.0</ele>
        <time>2018-08-13T11:43:45Z</time>
      </trkpt>
      <trkpt lat="40.425817" lon="-5.296400">
        <ele>2128.0</ele>
        <time>2018-08-13T11:43:46Z</time>
      </trkpt>
      <trkpt lat="40.425850" lon="-5.296400">
        <ele>2129.0</ele>
        <time>2018-08-13T11:43:47Z</time>
      </trkpt>
      <trkpt lat="40.425883" lon="-5.296383">
        <ele>2130.0</ele>
        <time>2018-08-13T11:43:48Z</time>
      </trkpt>
      <trkpt lat="40.425917" lon="-5.296383">
        <ele>2130.0</ele>
        <time>2018-08-13T11:43:49Z</time>
      </trkpt>
      <trkpt lat="40.425950" lon="-5.296400">
        <ele>2130.0</ele>
        <time>2018-08-13T11:43:50Z</time>
      </trkpt>
      <trkpt lat="40.426000" lon="-5.296417">
        <ele>2128.0</ele>
        <time>2018-08-13T11:43:51Z</time>
      </trkpt>
      <trkpt lat="40.426033" lon="-5.296417">
        <ele>2128.0</ele>
        <time>2018-08-13T11:43:52Z</time>
      </trkpt>
      <trkpt lat="40.426083" lon="-5.296400">
        <ele>2127.0</ele>
        <time>2018-08-13T11:43:53Z</time>
      </trkpt>
      <trkpt lat="40.426133" lon="-5.296367">
        <ele>2125.0</ele>
        <time>2018-08-13T11:43:54Z</time>
      </trkpt>
      <trkpt lat="40.426200" lon="-5.296333">
        <ele>2124.0</ele>
        <time>2018-08-13T11:43:55Z</time>
      </trkpt>
      <trkpt lat="40.426267" lon="-5.296317">
        <ele>2122.0</ele>
        <time>2018-08-13T11:43:56Z</time>
      </trkpt>
      <trkpt lat="40.426317" lon="-5.296317">
        <ele>2122.0</ele>
        <time>2018-08-13T11:43:57Z</time>
      </trkpt>
      <trkpt lat="40.426383" lon="-5.296300">
        <ele>2124.0</ele>
        <time>2018-08-13T11:43:58Z</time>
      </trkpt>
      <trkpt lat="40.426450" lon="-5.296250">
        <ele>2125.0</ele>
        <time>2018-08-13T11:43:59Z</time>
      </trkpt>
      <trkpt lat="40.426483" lon="-5.296200">
        <ele>2126.0</ele>
        <time>2018-08-13T11:44:00Z</time>
      </trkpt>
      <trkpt lat="40.426533" lon="-5.296167">
        <ele>2126.0</ele>
        <time>2018-08-13T11:44:01Z</time>
      </trkpt>
      <trkpt lat="40.426567" lon="-5.296133">
        <ele>2124.0</ele>
        <time>2018-08-13T11:44:02Z</time>
      </trkpt>
      <trkpt lat="40.426633" lon="-5.296133">
        <ele>2123.0</ele>
        <time>2018-08-13T11:44:03Z</time>
      </trkpt>
      <trkpt lat="40.426700" lon="-5.296117">
        <ele>2123.0</ele>
        <time>2018-08-13T11:44:04Z</time>
      </trkpt>
      <trkpt lat="40.426783" lon="-5.296100">
        <ele>2125.0</ele>
        <time>2018-08-13T11:44:05Z</time>
      </trkpt>
      <trkpt lat="40.426833" lon="-5.296083">
        <ele>2127.0</ele>
        <time>2018-08-13T11:44:06Z</time>
      </trkpt>
      <trkpt lat="40.426883" lon="-5.296050">
        <ele>2128.0</ele>
        <time>2018-08-13T11:44:07Z</time>
      </trkpt>
      <trkpt lat="40.426950" lon="-5.296017">
        <ele>2129.0</ele>
        <time>2018-08-13T11:44:08Z</time>
      </trkpt>
      <trkpt lat="40.427000" lon="-5.295983">
        <ele>2129.0</ele>
        <time>2018-08-13T11:44:09Z</time>
      </trkpt>
      <trkpt lat="40.427067" lon="-5.295967">
        <ele>2130.0</ele>
        <time>2018-08-13T11:44:10Z</time>
      </trkpt>
      <trkpt lat="40.427133" lon="-5.295950">
        <ele>2131.0</ele>
        <time>2018-08-13T11:44:11Z</time>
      </trkpt>
      <trkpt lat="40.427200" lon="-5.295933">
        <ele>2132.0</ele>
        <time>2018-08-13T11:44:12Z</time>
      </trkpt>
      <trkpt lat="40.427267" lon="-5.295900">
        <ele>2133.0</ele>
        <time>2018-08-13T11:44:13Z</time>
      </trkpt>
      <trkpt lat="40.427333" lon="-5.295867">
        <ele>2134.0</ele>
        <time>2018-08-13T11:44:14Z</time>
      </trkpt>
      <trkpt lat="40.427400" lon="-5.295817">
        <ele>2133.0</ele>
        <time>2018-08-13T11:44:15Z</time>
      </trkpt>
      <trkpt lat="40.427467" lon="-5.295783">
        <ele>2131.0</ele>
        <time>2018-08-13T11:44:16Z</time>
      </trkpt>
      <trkpt lat="40.427533" lon="-5.295767">
        <ele>2129.0</ele>
        <time>2018-08-13T11:44:17Z</time>
      </trkpt>
      <trkpt lat="40.427600" lon="-5.295733">
        <ele>2127.0</ele>
        <time>2018-08-13T11:44:18Z</time>
      </trkpt>
      <trkpt lat="40.427667" lon="-5.295717">
        <ele>2125.0</ele>
        <time>2018-08-13T11:44:19Z</time>
      </trkpt>
      <trkpt lat="40.427733" lon="-5.295717">
        <ele>2123.0</ele>
        <time>2018-08-13T11:44:20Z</time>
      </trkpt>
      <trkpt lat="40.427800" lon="-5.295700">
        <ele>2121.0</ele>
        <time>2018-08-13T11:44:21Z</time>
      </trkpt>
      <trkpt lat="40.427867" lon="-5.295700">
        <ele>2119.0</ele>
        <time>2018-08-13T11:44:22Z</time>
      </trkpt>
      <trkpt lat="40.427950" lon="-5.295683">
        <ele>2117.0</ele>
        <time>2018-08-13T11:44:23Z</time>
      </trkpt>
      <trkpt lat="40.428017" lon="-5.295650">
        <ele>2115.0</ele>
        <time>2018-08-13T11:44:24Z</time>
      </trkpt>
      <trkpt lat="40.428083" lon="-5.295600">
        <ele>2113.0</ele>
        <time>2018-08-13T11:44:25Z</time>
      </trkpt>
      <trkpt lat="40.428133" lon="-5.295550">
        <ele>2112.0</ele>
        <time>2018-08-13T11:44:26Z</time>
      </trkpt>
      <trkpt lat="40.428200" lon="-5.295483">
        <ele>2110.0</ele>
        <time>2018-08-13T11:44:27Z</time>
      </trkpt>
      <trkpt lat="40.428267" lon="-5.295433">
        <ele>2107.0</ele>
        <time>2018-08-13T11:44:28Z</time>
      </trkpt>
      <trkpt lat="40.428333" lon="-5.295367">
        <ele>2105.0</ele>
        <time>2018-08-13T11:44:29Z</time>
      </trkpt>
      <trkpt lat="40.428400" lon="-5.295300">
        <ele>2102.0</ele>
        <time>2018-08-13T11:44:30Z</time>
      </trkpt>
      <trkpt lat="40.428483" lon="-5.295250">
        <ele>2100.0</ele>
        <time>2018-08-13T11:44:31Z</time>
      </trkpt>
      <trkpt lat="40.428567" lon="-5.295217">
        <ele>2098.0</ele>
        <time>2018-08-13T11:44:32Z</time>
      </trkpt>
      <trkpt lat="40.428650" lon="-5.295183">
        <ele>2097.0</ele>
        <time>2018-08-13T11:44:33Z</time>
      </trkpt>
      <trkpt lat="40.428733" lon="-5.295150">
        <ele>2097.0</ele>
        <time>2018-08-13T11:44:34Z</time>
      </trkpt>
      <trkpt lat="40.428800" lon="-5.295117">
        <ele>2096.0</ele>
        <time>2018-08-13T11:44:35Z</time>
      </trkpt>
      <trkpt lat="40.428867" lon="-5.295083">
        <ele>2096.0</ele>
        <time>2018-08-13T11:44:36Z</time>
      </trkpt>
      <trkpt lat="40.428950" lon="-5.295050">
        <ele>2095.0</ele>
        <time>2018-08-13T11:44:37Z</time>
      </trkpt>
      <trkpt lat="40.429017" lon="-5.295017">
        <ele>2093.0</ele>
        <time>2018-08-13T11:44:38Z</time>
      </trkpt>
      <trkpt lat="40.429083" lon="-5.295000">
        <ele>2091.0</ele>
        <time>2018-08-13T11:44:39Z</time>
      </trkpt>
      <trkpt lat="40.429167" lon="-5.294967">
        <ele>2089.0</ele>
        <time>2018-08-13T11:44:40Z</time>
      </trkpt>
      <trkpt lat="40.429250" lon="-5.294933">
        <ele>2088.0</ele>
        <time>2018-08-13T11:44:41Z</time>
      </trkpt>
      <trkpt lat="40.429333" lon="-5.294917">
        <ele>2087.0</ele>
        <time>2018-08-13T11:44:42Z</time>
      </trkpt>
      <trkpt lat="40.429400" lon="-5.294883">
        <ele>2086.0</ele>
        <time>2018-08-13T11:44:43Z</time>
      </trkpt>
      <trkpt lat="40.429467" lon="-5.294850">
        <ele>2085.0</ele>
        <time>2018-08-13T11:44:44Z</time>
      </trkpt>
      <trkpt lat="40.429550" lon="-5.294817">
        <ele>2083.0</ele>
        <time>2018-08-13T11:44:45Z</time>
      </trkpt>
      <trkpt lat="40.429633" lon="-5.294800">
        <ele>2082.0</ele>
        <time>2018-08-13T11:44:46Z</time>
      </trkpt>
      <trkpt lat="40.429700" lon="-5.294783">
        <ele>2082.0</ele>
        <time>2018-08-13T11:44:47Z</time>
      </trkpt>
      <trkpt lat="40.429783" lon="-5.294767">
        <ele>2081.0</ele>
        <time>2018-08-13T11:44:48Z</time>
      </trkpt>
      <trkpt lat="40.429867" lon="-5.294733">
        <ele>2081.0</ele>
        <time>2018-08-13T11:44:49Z</time>
      </trkpt>
      <trkpt lat="40.429933" lon="-5.294717">
        <ele>2081.0</ele>
        <time>2018-08-13T11:44:50Z</time>
      </trkpt>
      <trkpt lat="40.430017" lon="-5.294700">
        <ele>2081.0</ele>
        <time>2018-08-13T11:44:51Z</time>
      </trkpt>
      <trkpt lat="40.430083" lon="-5.294667">
        <ele>2081.0</ele>
        <time>2018-08-13T11:44:52Z</time>
      </trkpt>
      <trkpt lat="40.430167" lon="-5.294650">
        <ele>2080.0</ele>
        <time>2018-08-13T11:44:53Z</time>
      </trkpt>
      <trkpt lat="40.430250" lon="-5.294617">
        <ele>2079.0</ele>
        <time>2018-08-13T11:44:54Z</time>
      </trkpt>
      <trkpt lat="40.430317" lon="-5.294583">
        <ele>2079.0</ele>
        <time>2018-08-13T11:44:55Z</time>
      </trkpt>
      <trkpt lat="40.430400" lon="-5.294550">
        <ele>2078.0</ele>
        <time>2018-08-13T11:44:56Z</time>
      </trkpt>
      <trkpt lat="40.430467" lon="-5.294500">
        <ele>2077.0</ele>
        <time>2018-08-13T11:44:57Z</time>
      </trkpt>
      <trkpt lat="40.430550" lon="-5.294467">
        <ele>2076.0</ele>
        <time>2018-08-13T11:44:58Z</time>
      </trkpt>
      <trkpt lat="40.430633" lon="-5.294417">
        <ele>2074.0</ele>
        <time>2018-08-13T11:44:59Z</time>
      </trkpt>
      <trkpt lat="40.430717" lon="-5.294367">
        <ele>2073.0</ele>
        <time>2018-08-13T11:45:00Z</time>
      </trkpt>
      <trkpt lat="40.430800" lon="-5.294333">
        <ele>2071.0</ele>
        <time>2018-08-13T11:45:01Z</time>
      </trkpt>
      <trkpt lat="40.430883" lon="-5.294300">
        <ele>2070.0</ele>
        <time>2018-08-13T11:45:02Z</time>
      </trkpt>
      <trkpt lat="40.430967" lon="-5.294267">
        <ele>2069.0</ele>
        <time>2018-08-13T11:45:03Z</time>
      </trkpt>
      <trkpt lat="40.431050" lon="-5.294200">
        <ele>2067.0</ele>
        <time>2018-08-13T11:45:04Z</time>
      </trkpt>
      <trkpt lat="40.431117" lon="-5.294150">
        <ele>2066.0</ele>
        <time>2018-08-13T11:45:05Z</time>
      </trkpt>
      <trkpt lat="40.431217" lon="-5.294100">
        <ele>2064.0</ele>
        <time>2018-08-13T11:45:06Z</time>
      </trkpt>
      <trkpt lat="40.431300" lon="-5.294050">
        <ele>2062.0</ele>
        <time>2018-08-13T11:45:07Z</time>
      </trkpt>
      <trkpt lat="40.431400" lon="-5.294000">
        <ele>2061.0</ele>
        <time>2018-08-13T11:45:08Z</time>
      </trkpt>
      <trkpt lat="40.431483" lon="-5.293950">
        <ele>2060.0</ele>
        <time>2018-08-13T11:45:09Z</time>
      </trkpt>
      <trkpt lat="40.431567" lon="-5.293900">
        <ele>2060.0</ele>
        <time>2018-08-13T11:45:10Z</time>
      </trkpt>
      <trkpt lat="40.431633" lon="-5.293850">
        <ele>2060.0</ele>
        <time>2018-08-13T11:45:11Z</time>
      </trkpt>
      <trkpt lat="40.431717" lon="-5.293783">
        <ele>2059.0</ele>
        <time>2018-08-13T11:45:12Z</time>
      </trkpt>
      <trkpt lat="40.431800" lon="-5.293733">
        <ele>2058.0</ele>
        <time>2018-08-13T11:45:13Z</time>
      </trkpt>
      <trkpt lat="40.431867" lon="-5.293683">
        <ele>2057.0</ele>
        <time>2018-08-13T11:45:14Z</time>
      </trkpt>
      <trkpt lat="40.431933" lon="-5.293633">
        <ele>2056.0</ele>
        <time>2018-08-13T11:45:15Z</time>
      </trkpt>
      <trkpt lat="40.432000" lon="-5.293583">
        <ele>2056.0</ele>
        <time>2018-08-13T11:45:16Z</time>
      </trkpt>
      <trkpt lat="40.432067" lon="-5.293533">
        <ele>2055.0</ele>
        <time>2018-08-13T11:45:17Z</time>
      </trkpt>
      <trkpt lat="40.432133" lon="-5.293500">
        <ele>2054.0</ele>
        <time>2018-08-13T11:45:18Z</time>
      </trkpt>
      <trkpt lat="40.432217" lon="-5.293483">
        <ele>2052.0</ele>
        <time>2018-08-13T11:45:19Z</time>
      </trkpt>
      <trkpt lat="40.432283" lon="-5.293450">
        <ele>2051.0</ele>
        <time>2018-08-13T11:45:20Z</time>
      </trkpt>
      <trkpt lat="40.432367" lon="-5.293433">
        <ele>2050.0</ele>
        <time>2018-08-13T11:45:21Z</time>
      </trkpt>
      <trkpt lat="40.432450" lon="-5.293417">
        <ele>2050.0</ele>
        <time>2018-08-13T11:45:22Z</time>
      </trkpt>
      <trkpt lat="40.432517" lon="-5.293383">
        <ele>2049.0</ele>
        <time>2018-08-13T11:45:23Z</time>
      </trkpt>
      <trkpt lat="40.432583" lon="-5.293350">
        <ele>2049.0</ele>
        <time>2018-08-13T11:45:24Z</time>
      </trkpt>
      <trkpt lat="40.432650" lon="-5.293317">
        <ele>2048.0</ele>
        <time>2018-08-13T11:45:25Z</time>
      </trkpt>
      <trkpt lat="40.432733" lon="-5.293267">
        <ele>2047.0</ele>
        <time>2018-08-13T11:45:26Z</time>
      </trkpt>
      <trkpt lat="40.432817" lon="-5.293217">
        <ele>2045.0</ele>
        <time>2018-08-13T11:45:27Z</time>
      </trkpt>
      <trkpt lat="40.432900" lon="-5.293133">
        <ele>2044.0</ele>
        <time>2018-08-13T11:45:28Z</time>
      </trkpt>
      <trkpt lat="40.432967" lon="-5.293033">
        <ele>2043.0</ele>
        <time>2018-08-13T11:45:29Z</time>
      </trkpt>
      <trkpt lat="40.433033" lon="-5.292900">
        <ele>2042.0</ele>
        <time>2018-08-13T11:45:30Z</time>
      </trkpt>
      <trkpt lat="40.433083" lon="-5.292783">
        <ele>2042.0</ele>
        <time>2018-08-13T11:45:31Z</time>
      </trkpt>
      <trkpt lat="40.433150" lon="-5.292650">
        <ele>2041.0</ele>
        <time>2018-08-13T11:45:32Z</time>
      </trkpt>
      <trkpt lat="40.433200" lon="-5.292533">
        <ele>2040.0</ele>
        <time>2018-08-13T11:45:33Z</time>
      </trkpt>
      <trkpt lat="40.433250" lon="-5.292433">
        <ele>2039.0</ele>
        <time>2018-08-13T11:45:34Z</time>
      </trkpt>
      <trkpt lat="40.433317" lon="-5.292333">
        <ele>2037.0</ele>
        <time>2018-08-13T11:45:35Z</time>
      </trkpt>
      <trkpt lat="40.433383" lon="-5.292250">
        <ele>2035.0</ele>
        <time>2018-08-13T11:45:36Z</time>
      </trkpt>
      <trkpt lat="40.433467" lon="-5.292150">
        <ele>2034.0</ele>
        <time>2018-08-13T11:45:37Z</time>
      </trkpt>
      <trkpt lat="40.433533" lon="-5.292083">
        <ele>2032.0</ele>
        <time>2018-08-13T11:45:38Z</time>
      </trkpt>
      <trkpt lat="40.433617" lon="-5.292017">
        <ele>2032.0</ele>
        <time>2018-08-13T11:45:39Z</time>
      </trkpt>
      <trkpt lat="40.433683" lon="-5.291967">
        <ele>2031.0</ele>
        <time>2018-08-13T11:45:40Z</time>
      </trkpt>
      <trkpt lat="40.433767" lon="-5.291917">
        <ele>2030.0</ele>
        <time>2018-08-13T11:45:41Z</time>
      </trkpt>
      <trkpt lat="40.433833" lon="-5.291850">
        <ele>2029.0</ele>
        <time>2018-08-13T11:45:42Z</time>
      </trkpt>
      <trkpt lat="40.433917" lon="-5.291800">
        <ele>2028.0</ele>
        <time>2018-08-13T11:45:43Z</time>
      </trkpt>
      <trkpt lat="40.434000" lon="-5.291750">
        <ele>2027.0</ele>
        <time>2018-08-13T11:45:44Z</time>
      </trkpt>
      <trkpt lat="40.434067" lon="-5.291700">
        <ele>2027.0</ele>
        <time>2018-08-13T11:45:45Z</time>
      </trkpt>
      <trkpt lat="40.434150" lon="-5.291650">
        <ele>2026.0</ele>
        <time>2018-08-13T11:45:46Z</time>
      </trkpt>
      <trkpt lat="40.434233" lon="-5.291583">
        <ele>2027.0</ele>
        <time>2018-08-13T11:45:47Z</time>
      </trkpt>
      <trkpt lat="40.434300" lon="-5.291517">
        <ele>2027.0</ele>
        <time>2018-08-13T11:45:48Z</time>
      </trkpt>
      <trkpt lat="40.434367" lon="-5.291450">
        <ele>2027.0</ele>
        <time>2018-08-13T11:45:49Z</time>
      </trkpt>
      <trkpt lat="40.434450" lon="-5.291383">
        <ele>2026.0</ele>
        <time>2018-08-13T11:45:50Z</time>
      </trkpt>
      <trkpt lat="40.434533" lon="-5.291317">
        <ele>2024.0</ele>
        <time>2018-08-13T11:45:51Z</time>
      </trkpt>
      <trkpt lat="40.434600" lon="-5.291250">
        <ele>2022.0</ele>
        <time>2018-08-13T11:45:52Z</time>
      </trkpt>
      <trkpt lat="40.434683" lon="-5.291183">
        <ele>2021.0</ele>
        <time>2018-08-13T11:45:53Z</time>
      </trkpt>
      <trkpt lat="40.434767" lon="-5.291117">
        <ele>2021.0</ele>
        <time>2018-08-13T11:45:54Z</time>
      </trkpt>
      <trkpt lat="40.434850" lon="-5.291050">
        <ele>2021.0</ele>
        <time>2018-08-13T11:45:55Z</time>
      </trkpt>
      <trkpt lat="40.434917" lon="-5.290983">
        <ele>2020.0</ele>
        <time>2018-08-13T11:45:56Z</time>
      </trkpt>
      <trkpt lat="40.434983" lon="-5.290900">
        <ele>2019.0</ele>
        <time>2018-08-13T11:45:57Z</time>
      </trkpt>
      <trkpt lat="40.435067" lon="-5.290833">
        <ele>2018.0</ele>
        <time>2018-08-13T11:45:58Z</time>
      </trkpt>
      <trkpt lat="40.435133" lon="-5.290733">
        <ele>2017.0</ele>
        <time>2018-08-13T11:45:59Z</time>
      </trkpt>
      <trkpt lat="40.435217" lon="-5.290650">
        <ele>2016.0</ele>
        <time>2018-08-13T11:46:00Z</time>
      </trkpt>
      <trkpt lat="40.435283" lon="-5.290550">
        <ele>2016.0</ele>
        <time>2018-08-13T11:46:01Z</time>
      </trkpt>
      <trkpt lat="40.435367" lon="-5.290450">
        <ele>2015.0</ele>
        <time>2018-08-13T11:46:02Z</time>
      </trkpt>
      <trkpt lat="40.435433" lon="-5.290350">
        <ele>2014.0</ele>
        <time>2018-08-13T11:46:03Z</time>
      </trkpt>
      <trkpt lat="40.435500" lon="-5.290250">
        <ele>2014.0</ele>
        <time>2018-08-13T11:46:04Z</time>
      </trkpt>
      <trkpt lat="40.435567" lon="-5.290150">
        <ele>2014.0</ele>
        <time>2018-08-13T11:46:05Z</time>
      </trkpt>
      <trkpt lat="40.435633" lon="-5.290033">
        <ele>2013.0</ele>
        <time>2018-08-13T11:46:06Z</time>
      </trkpt>
      <trkpt lat="40.435700" lon="-5.289917">
        <ele>2013.0</ele>
        <time>2018-08-13T11:46:07Z</time>
      </trkpt>
      <trkpt lat="40.435767" lon="-5.289800">
        <ele>2012.0</ele>
        <time>2018-08-13T11:46:08Z</time>
      </trkpt>
      <trkpt lat="40.435833" lon="-5.289683">
        <ele>2011.0</ele>
        <time>2018-08-13T11:46:09Z</time>
      </trkpt>
      <trkpt lat="40.435900" lon="-5.289567">
        <ele>2011.0</ele>
        <time>2018-08-13T11:46:10Z</time>
      </trkpt>
      <trkpt lat="40.435967" lon="-5.289450">
        <ele>2011.0</ele>
        <time>2018-08-13T11:46:11Z</time>
      </trkpt>
      <trkpt lat="40.436033" lon="-5.289333">
        <ele>2010.0</ele>
        <time>2018-08-13T11:46:12Z</time>
      </trkpt>
      <trkpt lat="40.436100" lon="-5.289217">
        <ele>2008.0</ele>
        <time>2018-08-13T11:46:13Z</time>
      </trkpt>
      <trkpt lat="40.436167" lon="-5.289117">
        <ele>2007.0</ele>
        <time>2018-08-13T11:46:14Z</time>
      </trkpt>
      <trkpt lat="40.436250" lon="-5.289000">
        <ele>2005.0</ele>
        <time>2018-08-13T11:46:15Z</time>
      </trkpt>
      <trkpt lat="40.436333" lon="-5.288900">
        <ele>2005.0</ele>
        <time>2018-08-13T11:46:16Z</time>
      </trkpt>
      <trkpt lat="40.436417" lon="-5.288800">
        <ele>2005.0</ele>
        <time>2018-08-13T11:46:17Z</time>
      </trkpt>
      <trkpt lat="40.436483" lon="-5.288717">
        <ele>2006.0</ele>
        <time>2018-08-13T11:46:18Z</time>
      </trkpt>
      <trkpt lat="40.436567" lon="-5.288650">
        <ele>2006.0</ele>
        <time>2018-08-13T11:46:19Z</time>
      </trkpt>
      <trkpt lat="40.436633" lon="-5.288567">
        <ele>2007.0</ele>
        <time>2018-08-13T11:46:20Z</time>
      </trkpt>
      <trkpt lat="40.436717" lon="-5.288500">
        <ele>2006.0</ele>
        <time>2018-08-13T11:46:21Z</time>
      </trkpt>
      <trkpt lat="40.436783" lon="-5.288433">
        <ele>2005.0</ele>
        <time>2018-08-13T11:46:22Z</time>
      </trkpt>
      <trkpt lat="40.436867" lon="-5.288367">
        <ele>2004.0</ele>
        <time>2018-08-13T11:46:23Z</time>
      </trkpt>
      <trkpt lat="40.436950" lon="-5.288300">
        <ele>2002.0</ele>
        <time>2018-08-13T11:46:24Z</time>
      </trkpt>
      <trkpt lat="40.437033" lon="-5.288233">
        <ele>2001.0</ele>
        <time>2018-08-13T11:46:25Z</time>
      </trkpt>
      <trkpt lat="40.437100" lon="-5.288150">
        <ele>2000.0</ele>
        <time>2018-08-13T11:46:26Z</time>
      </trkpt>
      <trkpt lat="40.437167" lon="-5.288083">
        <ele>2000.0</ele>
        <time>2018-08-13T11:46:27Z</time>
      </trkpt>
      <trkpt lat="40.437233" lon="-5.288000">
        <ele>1999.0</ele>
        <time>2018-08-13T11:46:28Z</time>
      </trkpt>
      <trkpt lat="40.437317" lon="-5.287917">
        <ele>1998.0</ele>
        <time>2018-08-13T11:46:29Z</time>
      </trkpt>
      <trkpt lat="40.437400" lon="-5.287850">
        <ele>1997.0</ele>
        <time>2018-08-13T11:46:30Z</time>
      </trkpt>
      <trkpt lat="40.437483" lon="-5.287783">
        <ele>1995.0</ele>
        <time>2018-08-13T11:46:31Z</time>
      </trkpt>
      <trkpt lat="40.437567" lon="-5.287733">
        <ele>1994.0</ele>
        <time>2018-08-13T11:46:32Z</time>
      </trkpt>
      <trkpt lat="40.437667" lon="-5.287683">
        <ele>1994.0</ele>
        <time>2018-08-13T11:46:33Z</time>
      </trkpt>
      <trkpt lat="40.437750" lon="-5.287633">
        <ele>1995.0</ele>
        <time>2018-08-13T11:46:34Z</time>
      </trkpt>
      <trkpt lat="40.437833" lon="-5.287583">
        <ele>1997.0</ele>
        <time>2018-08-13T11:46:35Z</time>
      </trkpt>
      <trkpt lat="40.437917" lon="-5.287517">
        <ele>1997.0</ele>
        <time>2018-08-13T11:46:36Z</time>
      </trkpt>
      <trkpt lat="40.437983" lon="-5.287450">
        <ele>1997.0</ele>
        <time>2018-08-13T11:46:37Z</time>
      </trkpt>
      <trkpt lat="40.438050" lon="-5.287400">
        <ele>1996.0</ele>
        <time>2018-08-13T11:46:38Z</time>
      </trkpt>
      <trkpt lat="40.438133" lon="-5.287367">
        <ele>1995.0</ele>
        <time>2018-08-13T11:46:39Z</time>
      </trkpt>
      <trkpt lat="40.438217" lon="-5.287333">
        <ele>1993.0</ele>
        <time>2018-08-13T11:46:40Z</time>
      </trkpt>
      <trkpt lat="40.438317" lon="-5.287300">
        <ele>1992.0</ele>
        <time>2018-08-13T11:46:41Z</time>
      </trkpt>
      <trkpt lat="40.438383" lon="-5.287267">
        <ele>1991.0</ele>
        <time>2018-08-13T11:46:42Z</time>
      </trkpt>
      <trkpt lat="40.438467" lon="-5.287217">
        <ele>1990.0</ele>
        <time>2018-08-13T11:46:43Z</time>
      </trkpt>
      <trkpt lat="40.438533" lon="-5.287167">
        <ele>1989.0</ele>
        <time>2018-08-13T11:46:44Z</time>
      </trkpt>
      <trkpt lat="40.438617" lon="-5.287133">
        <ele>1988.0</ele>
        <time>2018-08-13T11:46:45Z</time>
      </trkpt>
      <trkpt lat="40.438700" lon="-5.287083">
        <ele>1986.0</ele>
        <time>2018-08-13T11:46:46Z</time>
      </trkpt>
      <trkpt lat="40.438767" lon="-5.287017">
        <ele>1985.0</ele>
        <time>2018-08-13T11:46:47Z</time>
      </trkpt>
      <trkpt lat="40.438850" lon="-5.286950">
        <ele>1984.0</ele>
        <time>2018-08-13T11:46:48Z</time>
      </trkpt>
      <trkpt lat="40.438933" lon="-5.286883">
        <ele>1984.0</ele>
        <time>2018-08-13T11:46:49Z</time>
      </trkpt>
      <trkpt lat="40.439000" lon="-5.286800">
        <ele>1984.0</ele>
        <time>2018-08-13T11:46:50Z</time>
      </trkpt>
      <trkpt lat="40.439083" lon="-5.286717">
        <ele>1986.0</ele>
        <time>2018-08-13T11:46:51Z</time>
      </trkpt>
      <trkpt lat="40.439150" lon="-5.286633">
        <ele>1988.0</ele>
        <time>2018-08-13T11:46:52Z</time>
      </trkpt>
      <trkpt lat="40.439217" lon="-5.286583">
        <ele>1990.0</ele>
        <time>2018-08-13T11:46:53Z</time>
      </trkpt>
      <trkpt lat="40.439283" lon="-5.286517">
        <ele>1992.0</ele>
        <time>2018-08-13T11:46:54Z</time>
      </trkpt>
      <trkpt lat="40.439333" lon="-5.286483">
        <ele>1993.0</ele>
        <time>2018-08-13T11:46:55Z</time>
      </trkpt>
      <trkpt lat="40.439383" lon="-5.286450">
        <ele>1994.0</ele>
        <time>2018-08-13T11:46:56Z</time>
      </trkpt>
      <trkpt lat="40.439450" lon="-5.286433">
        <ele>1994.0</ele>
        <time>2018-08-13T11:46:57Z</time>
      </trkpt>
      <trkpt lat="40.439500" lon="-5.286417">
        <ele>1994.0</ele>
        <time>2018-08-13T11:46:58Z</time>
      </trkpt>
      <trkpt lat="40.439550" lon="-5.286417">
        <ele>1994.0</ele>
        <time>2018-08-13T11:46:59Z</time>
      </trkpt>
      <trkpt lat="40.439617" lon="-5.286400">
        <ele>1993.0</ele>
        <time>2018-08-13T11:47:00Z</time>
      </trkpt>
      <trkpt lat="40.439683" lon="-5.286367">
        <ele>1993.0</ele>
        <time>2018-08-13T11:47:01Z</time>
      </trkpt>
      <trkpt lat="40.439750" lon="-5.286350">
        <ele>1993.0</ele>
        <time>2018-08-13T11:47:02Z</time>
      </trkpt>
      <trkpt lat="40.439817" lon="-5.286317">
        <ele>1992.0</ele>
        <time>2018-08-13T11:47:03Z</time>
      </trkpt>
      <trkpt lat="40.439883" lon="-5.286300">
        <ele>1991.0</ele>
        <time>2018-08-13T11:47:04Z</time>
      </trkpt>
      <trkpt lat="40.439950" lon="-5.286283">
        <ele>1991.0</ele>
        <time>2018-08-13T11:47:05Z</time>
      </trkpt>
      <trkpt lat="40.440017" lon="-5.286267">
        <ele>1990.0</ele>
        <time>2018-08-13T11:47:06Z</time>
      </trkpt>
      <trkpt lat="40.440100" lon="-5.286250">
        <ele>1989.0</ele>
        <time>2018-08-13T11:47:07Z</time>
      </trkpt>
      <trkpt lat="40.440167" lon="-5.286267">
        <ele>1989.0</ele>
        <time>2018-08-13T11:47:08Z</time>
      </trkpt>
      <trkpt lat="40.440233" lon="-5.286283">
        <ele>1989.0</ele>
        <time>2018-08-13T11:47:09Z</time>
      </trkpt>
      <trkpt lat="40.440300" lon="-5.286283">
        <ele>1989.0</ele>
        <time>2018-08-13T11:47:10Z</time>
      </trkpt>
      <trkpt lat="40.440367" lon="-5.286283">
        <ele>1989.0</ele>
        <time>2018-08-13T11:47:11Z</time>
      </trkpt>
      <trkpt lat="40.440433" lon="-5.286283">
        <ele>1989.0</ele>
        <time>2018-08-13T11:47:12Z</time>
      </trkpt>
      <trkpt lat="40.440500" lon="-5.286267">
        <ele>1987.0</ele>
        <time>2018-08-13T11:47:13Z</time>
      </trkpt>
      <trkpt lat="40.440567" lon="-5.286250">
        <ele>1986.0</ele>
        <time>2018-08-13T11:47:14Z</time>
      </trkpt>
      <trkpt lat="40.440633" lon="-5.286200">
        <ele>1984.0</ele>
        <time>2018-08-13T11:47:15Z</time>
      </trkpt>
      <trkpt lat="40.440717" lon="-5.286150">
        <ele>1981.0</ele>
        <time>2018-08-13T11:47:16Z</time>
      </trkpt>
      <trkpt lat="40.440800" lon="-5.286083">
        <ele>1979.0</ele>
        <time>2018-08-13T11:47:17Z</time>
      </trkpt>
      <trkpt lat="40.440883" lon="-5.286000">
        <ele>1976.0</ele>
        <time>2018-08-13T11:47:18Z</time>
      </trkpt>
      <trkpt lat="40.440967" lon="-5.285917">
        <ele>1974.0</ele>
        <time>2018-08-13T11:47:19Z</time>
      </trkpt>
      <trkpt lat="40.441050" lon="-5.285817">
        <ele>1972.0</ele>
        <time>2018-08-13T11:47:20Z</time>
      </trkpt>
      <trkpt lat="40.441150" lon="-5.285700">
        <ele>1970.0</ele>
        <time>2018-08-13T11:47:21Z</time>
      </trkpt>
      <trkpt lat="40.441233" lon="-5.285600">
        <ele>1968.0</ele>
        <time>2018-08-13T11:47:22Z</time>
      </trkpt>
      <trkpt lat="40.441333" lon="-5.285500">
        <ele>1967.0</ele>
        <time>2018-08-13T11:47:23Z</time>
      </trkpt>
      <trkpt lat="40.441417" lon="-5.285417">
        <ele>1965.0</ele>
        <time>2018-08-13T11:47:24Z</time>
      </trkpt>
      <trkpt lat="40.441500" lon="-5.285350">
        <ele>1963.0</ele>
        <time>2018-08-13T11:47:25Z</time>
      </trkpt>
      <trkpt lat="40.441583" lon="-5.285267">
        <ele>1960.0</ele>
        <time>2018-08-13T11:47:26Z</time>
      </trkpt>
      <trkpt lat="40.441667" lon="-5.285183">
        <ele>1957.0</ele>
        <time>2018-08-13T11:47:27Z</time>
      </trkpt>
      <trkpt lat="40.441783" lon="-5.285100">
        <ele>1955.0</ele>
        <time>2018-08-13T11:47:28Z</time>
      </trkpt>
      <trkpt lat="40.441883" lon="-5.285033">
        <ele>1953.0</ele>
        <time>2018-08-13T11:47:29Z</time>
      </trkpt>
      <trkpt lat="40.441983" lon="-5.284967">
        <ele>1952.0</ele>
        <time>2018-08-13T11:47:30Z</time>
      </trkpt>
      <trkpt lat="40.442083" lon="-5.284917">
        <ele>1952.0</ele>
        <time>2018-08-13T11:47:31Z</time>
      </trkpt>
      <trkpt lat="40.442167" lon="-5.284867">
        <ele>1951.0</ele>
        <time>2018-08-13T11:47:32Z</time>
      </trkpt>
      <trkpt lat="40.442267" lon="-5.284817">
        <ele>1950.0</ele>
        <time>2018-08-13T11:47:33Z</time>
      </trkpt>
      <trkpt lat="40.442367" lon="-5.284767">
        <ele>1949.0</ele>
        <time>2018-08-13T11:47:34Z</time>
      </trkpt>
      <trkpt lat="40.442467" lon="-5.284733">
        <ele>1948.0</ele>
        <time>2018-08-13T11:47:35Z</time>
      </trkpt>
      <trkpt lat="40.442567" lon="-5.284667">
        <ele>1948.0</ele>
        <time>2018-08-13T11:47:36Z</time>
      </trkpt>
      <trkpt lat="40.442650" lon="-5.284600">
        <ele>1949.0</ele>
        <time>2018-08-13T11:47:37Z</time>
      </trkpt>
      <trkpt lat="40.442750" lon="-5.284517">
        <ele>1949.0</ele>
        <time>2018-08-13T11:47:38Z</time>
      </trkpt>
      <trkpt lat="40.442833" lon="-5.284433">
        <ele>1949.0</ele>
        <time>2018-08-13T11:47:39Z</time>
      </trkpt>
      <trkpt lat="40.442933" lon="-5.284350">
        <ele>1948.0</ele>
        <time>2018-08-13T11:47:40Z</time>
      </trkpt>
      <trkpt lat="40.443033" lon="-5.284283">
        <ele>1948.0</ele>
        <time>2018-08-13T11:47:41Z</time>
      </trkpt>
      <trkpt lat="40.443150" lon="-5.284217">
        <ele>1948.0</ele>
        <time>2018-08-13T11:47:42Z</time>
      </trkpt>
      <trkpt lat="40.443250" lon="-5.284167">
        <ele>1949.0</ele>
        <time>2018-08-13T11:47:43Z</time>
      </trkpt>
      <trkpt lat="40.443350" lon="-5.284100">
        <ele>1949.0</ele>
        <time>2018-08-13T11:47:44Z</time>
      </trkpt>
      <trkpt lat="40.443433" lon="-5.284050">
        <ele>1950.0</ele>
        <time>2018-08-13T11:47:45Z</time>
      </trkpt>
      <trkpt lat="40.443533" lon="-5.284017">
        <ele>1950.0</ele>
        <time>2018-08-13T11:47:46Z</time>
      </trkpt>
      <trkpt lat="40.443633" lon="-5.283967">
        <ele>1950.0</ele>
        <time>2018-08-13T11:47:47Z</time>
      </trkpt>
      <trkpt lat="40.443733" lon="-5.283917">
        <ele>1950.0</ele>
        <time>2018-08-13T11:47:48Z</time>
      </trkpt>
      <trkpt lat="40.443833" lon="-5.283883">
        <ele>1950.0</ele>
        <time>2018-08-13T11:47:49Z</time>
      </trkpt>
      <trkpt lat="40.443933" lon="-5.283833">
        <ele>1951.0</ele>
        <time>2018-08-13T11:47:50Z</time>
      </trkpt>
      <trkpt lat="40.444017" lon="-5.283783">
        <ele>1951.0</ele>
        <time>2018-08-13T11:47:51Z</time>
      </trkpt>
      <trkpt lat="40.444117" lon="-5.283733">
        <ele>1951.0</ele>
        <time>2018-08-13T11:47:52Z</time>
      </trkpt>
      <trkpt lat="40.444217" lon="-5.283700">
        <ele>1952.0</ele>
        <time>2018-08-13T11:47:53Z</time>
      </trkpt>
      <trkpt lat="40.444300" lon="-5.283650">
        <ele>1952.0</ele>
        <time>2018-08-13T11:47:54Z</time>
      </trkpt>
      <trkpt lat="40.444400" lon="-5.283617">
        <ele>1953.0</ele>
        <time>2018-08-13T11:47:55Z</time>
      </trkpt>
      <trkpt lat="40.444483" lon="-5.283567">
        <ele>1954.0</ele>
        <time>2018-08-13T11:47:56Z</time>
      </trkpt>
      <trkpt lat="40.444567" lon="-5.283517">
        <ele>1955.0</ele>
        <time>2018-08-13T11:47:57Z</time>
      </trkpt>
      <trkpt lat="40.444650" lon="-5.283467">
        <ele>1955.0</ele>
        <time>2018-08-13T11:47:58Z</time>
      </trkpt>
      <trkpt lat="40.444733" lon="-5.283417">
        <ele>1956.0</ele>
        <time>2018-08-13T11:47:59Z</time>
      </trkpt>
      <trkpt lat="40.444817" lon="-5.283350">
        <ele>1956.0</ele>
        <time>2018-08-13T11:48:00Z</time>
      </trkpt>
      <trkpt lat="40.444900" lon="-5.283300">
        <ele>1957.0</ele>
        <time>2018-08-13T11:48:01Z</time>
      </trkpt>
      <trkpt lat="40.445000" lon="-5.283250">
        <ele>1958.0</ele>
        <time>2018-08-13T11:48:02Z</time>
      </trkpt>
      <trkpt lat="40.445083" lon="-5.283217">
        <ele>1959.0</ele>
        <time>2018-08-13T11:48:03Z</time>
      </trkpt>
      <trkpt lat="40.445167" lon="-5.283167">
        <ele>1961.0</ele>
        <time>2018-08-13T11:48:04Z</time>
      </trkpt>
      <trkpt lat="40.445267" lon="-5.283117">
        <ele>1963.0</ele>
        <time>2018-08-13T11:48:05Z</time>
      </trkpt>
      <trkpt lat="40.445333" lon="-5.283033">
        <ele>1965.0</ele>
        <time>2018-08-13T11:48:06Z</time>
      </trkpt>
      <trkpt lat="40.445417" lon="-5.282917">
        <ele>1966.0</ele>
        <time>2018-08-13T11:48:07Z</time>
      </trkpt>
      <trkpt lat="40.445450" lon="-5.282783">
        <ele>1967.0</ele>
        <time>2018-08-13T11:48:08Z</time>
      </trkpt>
      <trkpt lat="40.445483" lon="-5.282633">
        <ele>1968.0</ele>
        <time>2018-08-13T11:48:09Z</time>
      </trkpt>
      <trkpt lat="40.445500" lon="-5.282467">
        <ele>1969.0</ele>
        <time>2018-08-13T11:48:10Z</time>
      </trkpt>
      <trkpt lat="40.445483" lon="-5.282300">
        <ele>1970.0</ele>
        <time>2018-08-13T11:48:11Z</time>
      </trkpt>
      <trkpt lat="40.445450" lon="-5.282117">
        <ele>1971.0</ele>
        <time>2018-08-13T11:48:12Z</time>
      </trkpt>
      <trkpt lat="40.445417" lon="-5.281950">
        <ele>1972.0</ele>
        <time>2018-08-13T11:48:13Z</time>
      </trkpt>
      <trkpt lat="40.445350" lon="-5.281783">
        <ele>1974.0</ele>
        <time>2018-08-13T11:48:14Z</time>
      </trkpt>
      <trkpt lat="40.445267" lon="-5.281650">
        <ele>1977.0</ele>
        <time>2018-08-13T11:48:15Z</time>
      </trkpt>
      <trkpt lat="40.445183" lon="-5.281517">
        <ele>1979.0</ele>
        <time>2018-08-13T11:48:16Z</time>
      </trkpt>
      <trkpt lat="40.445100" lon="-5.281400">
        <ele>1983.0</ele>
        <time>2018-08-13T11:48:17Z</time>
      </trkpt>
      <trkpt lat="40.445000" lon="-5.281283">
        <ele>1986.0</ele>
        <time>2018-08-13T11:48:18Z</time>
      </trkpt>
      <trkpt lat="40.444900" lon="-5.281183">
        <ele>1988.0</ele>
        <time>2018-08-13T11:48:19Z</time>
      </trkpt>
      <trkpt lat="40.444817" lon="-5.281083">
        <ele>1990.0</ele>
        <time>2018-08-13T11:48:20Z</time>
      </trkpt>
      <trkpt lat="40.444700" lon="-5.281000">
        <ele>1991.0</ele>
        <time>2018-08-13T11:48:21Z</time>
      </trkpt>
      <trkpt lat="40.444600" lon="-5.280950">
        <ele>1992.0</ele>
        <time>2018-08-13T11:48:22Z</time>
      </trkpt>
      <trkpt lat="40.444500" lon="-5.280950">
        <ele>1993.0</ele>
        <time>2018-08-13T11:48:23Z</time>
      </trkpt>
      <trkpt lat="40.444417" lon="-5.280967">
        <ele>1993.0</ele>
        <time>2018-08-13T11:48:24Z</time>
      </trkpt>
      <trkpt lat="40.444367" lon="-5.281000">
        <ele>1993.0</ele>
        <time>2018-08-13T11:48:25Z</time>
      </trkpt>
      <trkpt lat="40.444350" lon="-5.281050">
        <ele>1993.0</ele>
        <time>2018-08-13T11:48:26Z</time>
      </trkpt>
      <trkpt lat="40.444367" lon="-5.281100">
        <ele>1992.0</ele>
        <time>2018-08-13T11:48:27Z</time>
      </trkpt>
      <trkpt lat="40.444433" lon="-5.281133">
        <ele>1991.0</ele>
        <time>2018-08-13T11:48:28Z</time>
      </trkpt>
      <trkpt lat="40.444517" lon="-5.281117">
        <ele>1991.0</ele>
        <time>2018-08-13T11:48:29Z</time>
      </trkpt>
      <trkpt lat="40.444600" lon="-5.281083">
        <ele>1992.0</ele>
        <time>2018-08-13T11:48:30Z</time>
      </trkpt>
      <trkpt lat="40.444700" lon="-5.281033">
        <ele>1994.0</ele>
        <time>2018-08-13T11:48:31Z</time>
      </trkpt>
      <trkpt lat="40.444783" lon="-5.280983">
        <ele>1997.0</ele>
        <time>2018-08-13T11:48:32Z</time>
      </trkpt>
      <trkpt lat="40.444867" lon="-5.280917">
        <ele>2000.0</ele>
        <time>2018-08-13T11:48:33Z</time>
      </trkpt>
      <trkpt lat="40.444933" lon="-5.280833">
        <ele>2002.0</ele>
        <time>2018-08-13T11:48:34Z</time>
      </trkpt>
      <trkpt lat="40.445000" lon="-5.280733">
        <ele>2004.0</ele>
        <time>2018-08-13T11:48:35Z</time>
      </trkpt>
      <trkpt lat="40.445083" lon="-5.280633">
        <ele>2005.0</ele>
        <time>2018-08-13T11:48:36Z</time>
      </trkpt>
      <trkpt lat="40.445150" lon="-5.280517">
        <ele>2007.0</ele>
        <time>2018-08-13T11:48:37Z</time>
      </trkpt>
      <trkpt lat="40.445233" lon="-5.280400">
        <ele>2010.0</ele>
        <time>2018-08-13T11:48:38Z</time>
      </trkpt>
      <trkpt lat="40.445283" lon="-5.280250">
        <ele>2012.0</ele>
        <time>2018-08-13T11:48:39Z</time>
      </trkpt>
      <trkpt lat="40.445317" lon="-5.280083">
        <ele>2015.0</ele>
        <time>2018-08-13T11:48:40Z</time>
      </trkpt>
      <trkpt lat="40.445317" lon="-5.279883">
        <ele>2015.0</ele>
        <time>2018-08-13T11:48:41Z</time>
      </trkpt>
      <trkpt lat="40.445300" lon="-5.279700">
        <ele>2014.0</ele>
        <time>2018-08-13T11:48:42Z</time>
      </trkpt>
      <trkpt lat="40.445233" lon="-5.279517">
        <ele>2014.0</ele>
        <time>2018-08-13T11:48:43Z</time>
      </trkpt>
      <trkpt lat="40.445150" lon="-5.279350">
        <ele>2012.0</ele>
        <time>2018-08-13T11:48:44Z</time>
      </trkpt>
      <trkpt lat="40.445033" lon="-5.279233">
        <ele>2012.0</ele>
        <time>2018-08-13T11:48:45Z</time>
      </trkpt>
      <trkpt lat="40.444917" lon="-5.279133">
        <ele>2013.0</ele>
        <time>2018-08-13T11:48:46Z</time>
      </trkpt>
      <trkpt lat="40.444817" lon="-5.279083">
        <ele>2014.0</ele>
        <time>2018-08-13T11:48:47Z</time>
      </trkpt>
      <trkpt lat="40.444717" lon="-5.279050">
        <ele>2016.0</ele>
        <time>2018-08-13T11:48:48Z</time>
      </trkpt>
      <trkpt lat="40.444633" lon="-5.279033">
        <ele>2017.0</ele>
        <time>2018-08-13T11:48:49Z</time>
      </trkpt>
      <trkpt lat="40.444533" lon="-5.279033">
        <ele>2018.0</ele>
        <time>2018-08-13T11:48:50Z</time>
      </trkpt>
      <trkpt lat="40.444433" lon="-5.279033">
        <ele>2019.0</ele>
        <time>2018-08-13T11:48:51Z</time>
      </trkpt>
      <trkpt lat="40.444350" lon="-5.279067">
        <ele>2021.0</ele>
        <time>2018-08-13T11:48:52Z</time>
      </trkpt>
      <trkpt lat="40.444300" lon="-5.279100">
        <ele>2023.0</ele>
        <time>2018-08-13T11:48:53Z</time>
      </trkpt>
      <trkpt lat="40.444267" lon="-5.279150">
        <ele>2024.0</ele>
        <time>2018-08-13T11:48:54Z</time>
      </trkpt>
      <trkpt lat="40.444250" lon="-5.279200">
        <ele>2025.0</ele>
        <time>2018-08-13T11:48:55Z</time>
      </trkpt>
      <trkpt lat="40.444250" lon="-5.279267">
        <ele>2027.0</ele>
        <time>2018-08-13T11:48:56Z</time>
      </trkpt>
      <trkpt lat="40.444250" lon="-5.279317">
        <ele>2029.0</ele>
        <time>2018-08-13T11:48:57Z</time>
      </trkpt>
      <trkpt lat="40.444267" lon="-5.279350">
        <ele>2031.0</ele>
        <time>2018-08-13T11:48:58Z</time>
      </trkpt>
      <trkpt lat="40.444300" lon="-5.279400">
        <ele>2032.0</ele>
        <time>2018-08-13T11:48:59Z</time>
      </trkpt>
      <trkpt lat="40.444333" lon="-5.279433">
        <ele>2033.0</ele>
        <time>2018-08-13T11:49:00Z</time>
      </trkpt>
      <trkpt lat="40.444383" lon="-5.279467">
        <ele>2034.0</ele>
        <time>2018-08-13T11:49:01Z</time>
      </trkpt>
      <trkpt lat="40.444417" lon="-5.279483">
        <ele>2035.0</ele>
        <time>2018-08-13T11:49:02Z</time>
      </trkpt>
      <trkpt lat="40.444483" lon="-5.279517">
        <ele>2035.0</ele>
        <time>2018-08-13T11:49:03Z</time>
      </trkpt>
      <trkpt lat="40.444567" lon="-5.279517">
        <ele>2035.0</ele>
        <time>2018-08-13T11:49:04Z</time>
      </trkpt>
      <trkpt lat="40.444650" lon="-5.279483">
        <ele>2035.0</ele>
        <time>2018-08-13T11:49:05Z</time>
      </trkpt>
      <trkpt lat="40.444750" lon="-5.279433">
        <ele>2036.0</ele>
        <time>2018-08-13T11:49:06Z</time>
      </trkpt>
      <trkpt lat="40.444850" lon="-5.279367">
        <ele>2038.0</ele>
        <time>2018-08-13T11:49:07Z</time>
      </trkpt>
      <trkpt lat="40.444933" lon="-5.279267">
        <ele>2040.0</ele>
        <time>2018-08-13T11:49:08Z</time>
      </trkpt>
      <trkpt lat="40.445000" lon="-5.279150">
        <ele>2042.0</ele>
        <time>2018-08-13T11:49:09Z</time>
      </trkpt>
      <trkpt lat="40.445050" lon="-5.279000">
        <ele>2043.0</ele>
        <time>2018-08-13T11:49:10Z</time>
      </trkpt>
      <trkpt lat="40.445067" lon="-5.278817">
        <ele>2044.0</ele>
        <time>2018-08-13T11:49:11Z</time>
      </trkpt>
      <trkpt lat="40.445083" lon="-5.278633">
        <ele>2045.0</ele>
        <time>2018-08-13T11:49:12Z</time>
      </trkpt>
      <trkpt lat="40.445050" lon="-5.278433">
        <ele>2048.0</ele>
        <time>2018-08-13T11:49:13Z</time>
      </trkpt>
      <trkpt lat="40.445000" lon="-5.278267">
        <ele>2051.0</ele>
        <time>2018-08-13T11:49:14Z</time>
      </trkpt>
      <trkpt lat="40.444917" lon="-5.278117">
        <ele>2052.0</ele>
        <time>2018-08-13T11:49:15Z</time>
      </trkpt>
      <trkpt lat="40.444817" lon="-5.278017">
        <ele>2053.0</ele>
        <time>2018-08-13T11:49:16Z</time>
      </trkpt>
      <trkpt lat="40.444717" lon="-5.277933">
        <ele>2053.0</ele>
        <time>2018-08-13T11:49:17Z</time>
      </trkpt>
      <trkpt lat="40.444600" lon="-5.277867">
        <ele>2054.0</ele>
        <time>2018-08-13T11:49:18Z</time>
      </trkpt>
      <trkpt lat="40.444483" lon="-5.277817">
        <ele>2055.0</ele>
        <time>2018-08-13T11:49:19Z</time>
      </trkpt>
      <trkpt lat="40.444383" lon="-5.277800">
        <ele>2057.0</ele>
        <time>2018-08-13T11:49:20Z</time>
      </trkpt>
      <trkpt lat="40.444283" lon="-5.277817">
        <ele>2060.0</ele>
        <time>2018-08-13T11:49:21Z</time>
      </trkpt>
      <trkpt lat="40.444217" lon="-5.277867">
        <ele>2062.0</ele>
        <time>2018-08-13T11:49:22Z</time>
      </trkpt>
      <trkpt lat="40.444167" lon="-5.277917">
        <ele>2064.0</ele>
        <time>2018-08-13T11:49:23Z</time>
      </trkpt>
      <trkpt lat="40.444150" lon="-5.277967">
        <ele>2066.0</ele>
        <time>2018-08-13T11:49:24Z</time>
      </trkpt>
      <trkpt lat="40.444150" lon="-5.278017">
        <ele>2068.0</ele>
        <time>2018-08-13T11:49:25Z</time>
      </trkpt>
      <trkpt lat="40.444167" lon="-5.278050">
        <ele>2069.0</ele>
        <time>2018-08-13T11:49:26Z</time>
      </trkpt>
      <trkpt lat="40.444200" lon="-5.278083">
        <ele>2070.0</ele>
        <time>2018-08-13T11:49:27Z</time>
      </trkpt>
      <trkpt lat="40.444250" lon="-5.278100">
        <ele>2071.0</ele>
        <time>2018-08-13T11:49:28Z</time>
      </trkpt>
      <trkpt lat="40.444317" lon="-5.278100">
        <ele>2071.0</ele>
        <time>2018-08-13T11:49:29Z</time>
      </trkpt>
      <trkpt lat="40.444383" lon="-5.278100">
        <ele>2072.0</ele>
        <time>2018-08-13T11:49:30Z</time>
      </trkpt>
      <trkpt lat="40.444450" lon="-5.278083">
        <ele>2073.0</ele>
        <time>2018-08-13T11:49:31Z</time>
      </trkpt>
      <trkpt lat="40.444533" lon="-5.278067">
        <ele>2075.0</ele>
        <time>2018-08-13T11:49:32Z</time>
      </trkpt>
      <trkpt lat="40.444617" lon="-5.278033">
        <ele>2076.0</ele>
        <time>2018-08-13T11:49:33Z</time>
      </trkpt>
      <trkpt lat="40.444700" lon="-5.277983">
        <ele>2078.0</ele>
        <time>2018-08-13T11:49:34Z</time>
      </trkpt>
      <trkpt lat="40.444767" lon="-5.277900">
        <ele>2080.0</ele>
        <time>2018-08-13T11:49:35Z</time>
      </trkpt>
      <trkpt lat="40.444833" lon="-5.277767">
        <ele>2081.0</ele>
        <time>2018-08-13T11:49:36Z</time>
      </trkpt>
      <trkpt lat="40.444900" lon="-5.277617">
        <ele>2083.0</ele>
        <time>2018-08-13T11:49:37Z</time>
      </trkpt>
      <trkpt lat="40.444933" lon="-5.277433">
        <ele>2084.0</ele>
        <time>2018-08-13T11:49:38Z</time>
      </trkpt>
      <trkpt lat="40.444950" lon="-5.277233">
        <ele>2085.0</ele>
        <time>2018-08-13T11:49:39Z</time>
      </trkpt>
      <trkpt lat="40.444917" lon="-5.277050">
        <ele>2085.0</ele>
        <time>2018-08-13T11:49:40Z</time>
      </trkpt>
      <trkpt lat="40.444867" lon="-5.276867">
        <ele>2085.0</ele>
        <time>2018-08-13T11:49:41Z</time>
      </trkpt>
      <trkpt lat="40.444767" lon="-5.276733">
        <ele>2085.0</ele>
        <time>2018-08-13T11:49:42Z</time>
      </trkpt>
      <trkpt lat="40.444633" lon="-5.276650">
        <ele>2085.0</ele>
        <time>2018-08-13T11:49:43Z</time>
      </trkpt>
      <trkpt lat="40.444483" lon="-5.276600">
        <ele>2087.0</ele>
        <time>2018-08-13T11:49:44Z</time>
      </trkpt>
      <trkpt lat="40.444367" lon="-5.276583">
        <ele>2089.0</ele>
        <time>2018-08-13T11:49:45Z</time>
      </trkpt>
      <trkpt lat="40.444267" lon="-5.276600">
        <ele>2092.0</ele>
        <time>2018-08-13T11:49:46Z</time>
      </trkpt>
      <trkpt lat="40.444200" lon="-5.276633">
        <ele>2095.0</ele>
        <time>2018-08-13T11:49:47Z</time>
      </trkpt>
      <trkpt lat="40.444167" lon="-5.276683">
        <ele>2097.0</ele>
        <time>2018-08-13T11:49:48Z</time>
      </trkpt>
      <trkpt lat="40.444133" lon="-5.276733">
        <ele>2099.0</ele>
        <time>2018-08-13T11:49:49Z</time>
      </trkpt>
      <trkpt lat="40.444100" lon="-5.276800">
        <ele>2100.0</ele>
        <time>2018-08-13T11:49:50Z</time>
      </trkpt>
      <trkpt lat="40.444083" lon="-5.276883">
        <ele>2102.0</ele>
        <time>2018-08-13T11:49:51Z</time>
      </trkpt>
      <trkpt lat="40.444067" lon="-5.276950">
        <ele>2103.0</ele>
        <time>2018-08-13T11:49:52Z</time>
      </trkpt>
      <trkpt lat="40.444050" lon="-5.277017">
        <ele>2105.0</ele>
        <time>2018-08-13T11:49:53Z</time>
      </trkpt>
      <trkpt lat="40.444033" lon="-5.277083">
        <ele>2107.0</ele>
        <time>2018-08-13T11:49:54Z</time>
      </trkpt>
      <trkpt lat="40.444000" lon="-5.277133">
        <ele>2109.0</ele>
        <time>2018-08-13T11:49:55Z</time>
      </trkpt>
      <trkpt lat="40.443967" lon="-5.277167">
        <ele>2110.0</ele>
        <time>2018-08-13T11:49:56Z</time>
      </trkpt>
      <trkpt lat="40.443933" lon="-5.277200">
        <ele>2111.0</ele>
        <time>2018-08-13T11:49:57Z</time>
      </trkpt>
      <trkpt lat="40.443900" lon="-5.277250">
        <ele>2110.0</ele>
        <time>2018-08-13T11:49:58Z</time>
      </trkpt>
      <trkpt lat="40.443900" lon="-5.277300">
        <ele>2108.0</ele>
        <time>2018-08-13T11:49:59Z</time>
      </trkpt>
      <trkpt lat="40.443933" lon="-5.277333">
        <ele>2108.0</ele>
        <time>2018-08-13T11:50:00Z</time>
      </trkpt>
      <trkpt lat="40.443950" lon="-5.277367">
        <ele>2107.0</ele>
        <time>2018-08-13T11:50:01Z</time>
      </trkpt>
      <trkpt lat="40.443983" lon="-5.277383">
        <ele>2106.0</ele>
        <time>2018-08-13T11:50:02Z</time>
      </trkpt>
      <trkpt lat="40.444017" lon="-5.277400">
        <ele>2105.0</ele>
        <time>2018-08-13T11:50:03Z</time>
      </trkpt>
      <trkpt lat="40.444067" lon="-5.277400">
        <ele>2103.0</ele>
        <time>2018-08-13T11:50:04Z</time>
      </trkpt>
      <trkpt lat="40.444100" lon="-5.277417">
        <ele>2102.0</ele>
        <time>2018-08-13T11:50:05Z</time>
      </trkpt>
      <trkpt lat="40.444150" lon="-5.277433">
        <ele>2100.0</ele>
        <time>2018-08-13T11:50:06Z</time>
      </trkpt>
      <trkpt lat="40.444200" lon="-5.277433">
        <ele>2100.0</ele>
        <time>2018-08-13T11:50:07Z</time>
      </trkpt>
      <trkpt lat="40.444250" lon="-5.277433">
        <ele>2100.0</ele>
        <time>2018-08-13T11:50:08Z</time>
      </trkpt>
      <trkpt lat="40.444300" lon="-5.277433">
        <ele>2099.0</ele>
        <time>2018-08-13T11:50:09Z</time>
      </trkpt>
      <trkpt lat="40.444350" lon="-5.277450">
        <ele>2098.0</ele>
        <time>2018-08-13T11:50:10Z</time>
      </trkpt>
      <trkpt lat="40.444383" lon="-5.277467">
        <ele>2098.0</ele>
        <time>2018-08-13T11:50:11Z</time>
      </trkpt>
      <trkpt lat="40.444417" lon="-5.277500">
        <ele>2099.0</ele>
        <time>2018-08-13T11:50:12Z</time>
      </trkpt>
      <trkpt lat="40.444433" lon="-5.277533">
        <ele>2101.0</ele>
        <time>2018-08-13T11:50:13Z</time>
      </trkpt>
      <trkpt lat="40.444417" lon="-5.277567">
        <ele>2103.0</ele>
        <time>2018-08-13T11:50:14Z</time>
      </trkpt>
      <trkpt lat="40.444400" lon="-5.277600">
        <ele>2104.0</ele>
        <time>2018-08-13T11:50:15Z</time>
      </trkpt>
      <trkpt lat="40.444383" lon="-5.277633">
        <ele>2104.0</ele>
        <time>2018-08-13T11:50:16Z</time>
      </trkpt>
      <trkpt lat="40.444350" lon="-5.277683">
        <ele>2105.0</ele>
        <time>2018-08-13T11:50:17Z</time>
      </trkpt>
      <trkpt lat="40.444333" lon="-5.277750">
        <ele>2105.0</ele>
        <time>2018-08-13T11:50:18Z</time>
      </trkpt>
      <trkpt lat="40.444300" lon="-5.277817">
        <ele>2107.0</ele>
        <time>2018-08-13T11:50:19Z</time>
      </trkpt>
      <trkpt lat="40.444267" lon="-5.277867">
        <ele>2109.0</ele>
        <time>2018-08-13T11:50:20Z</time>
      </trkpt>
      <trkpt lat="40.444233" lon="-5.277917">
        <ele>2111.0</ele>
        <time>2018-08-13T11:50:21Z</time>
      </trkpt>
      <trkpt lat="40.444183" lon="-5.277950">
        <ele>2112.0</ele>
        <time>2018-08-13T11:50:22Z</time>
      </trkpt>
      <trkpt lat="40.444150" lon="-5.277983">
        <ele>2113.0</ele>
        <time>2018-08-13T11:50:23Z</time>
      </trkpt>
      <trkpt lat="40.444100" lon="-5.278017">
        <ele>2113.0</ele>
        <time>2018-08-13T11:50:24Z</time>
      </trkpt>
      <trkpt lat="40.444033" lon="-5.278050">
        <ele>2113.0</ele>
        <time>2018-08-13T11:50:25Z</time>
      </trkpt>
      <trkpt lat="40.443967" lon="-5.278100">
        <ele>2113.0</ele>
        <time>2018-08-13T11:50:26Z</time>
      </trkpt>
      <trkpt lat="40.443917" lon="-5.278150">
        <ele>2114.0</ele>
        <time>2018-08-13T11:50:27Z</time>
      </trkpt>
      <trkpt lat="40.443867" lon="-5.278217">
        <ele>2116.0</ele>
        <time>2018-08-13T11:50:28Z</time>
      </trkpt>
      <trkpt lat="40.443833" lon="-5.278267">
        <ele>2118.0</ele>
        <time>2018-08-13T11:50:29Z</time>
      </trkpt>
      <trkpt lat="40.443800" lon="-5.278300">
        <ele>2120.0</ele>
        <time>2018-08-13T11:50:30Z</time>
      </trkpt>
      <trkpt lat="40.443783" lon="-5.278333">
        <ele>2122.0</ele>
        <time>2018-08-13T11:50:31Z</time>
      </trkpt>
      <trkpt lat="40.443750" lon="-5.278367">
        <ele>2122.0</ele>
        <time>2018-08-13T11:50:32Z</time>
      </trkpt>
      <trkpt lat="40.443750" lon="-5.278417">
        <ele>2122.0</ele>
        <time>2018-08-13T11:50:33Z</time>
      </trkpt>
      <trkpt lat="40.443767" lon="-5.278467">
        <ele>2123.0</ele>
        <time>2018-08-13T11:50:34Z</time>
      </trkpt>
      <trkpt lat="40.443783" lon="-5.278533">
        <ele>2125.0</ele>
        <time>2018-08-13T11:50:35Z</time>
      </trkpt>
      <trkpt lat="40.443817" lon="-5.278583">
        <ele>2128.0</ele>
        <time>2018-08-13T11:50:36Z</time>
      </trkpt>
      <trkpt lat="40.443850" lon="-5.278600">
        <ele>2131.0</ele>
        <time>2018-08-13T11:50:37Z</time>
      </trkpt>
      <trkpt lat="40.443883" lon="-5.278600">
        <ele>2134.0</ele>
        <time>2018-08-13T11:50:38Z</time>
      </trkpt>
      <trkpt lat="40.443950" lon="-5.278550">
        <ele>2135.0</ele>
        <time>2018-08-13T11:50:39Z</time>
      </trkpt>
      <trkpt lat="40.444017" lon="-5.278483">
        <ele>2136.0</ele>
        <time>2018-08-13T11:50:40Z</time>
      </trkpt>
      <trkpt lat="40.444050" lon="-5.278383">
        <ele>2137.0</ele>
        <time>2018-08-13T11:50:41Z</time>
      </trkpt>
      <trkpt lat="40.444083" lon="-5.278250">
        <ele>2137.0</ele>
        <time>2018-08-13T11:50:42Z</time>
      </trkpt>
      <trkpt lat="40.444133" lon="-5.278117">
        <ele>2137.0</ele>
        <time>2018-08-13T11:50:43Z</time>
      </trkpt>
      <trkpt lat="40.444167" lon="-5.277983">
        <ele>2136.0</ele>
        <time>2018-08-13T11:50:44Z</time>
      </trkpt>
      <trkpt lat="40.444233" lon="-5.277850">
        <ele>2136.0</ele>
        <time>2018-08-13T11:50:45Z</time>
      </trkpt>
      <trkpt lat="40.444283" lon="-5.277717">
        <ele>2137.0</ele>
        <time>2018-08-13T11:50:46Z</time>
      </trkpt>
      <trkpt lat="40.444333" lon="-5.277583">
        <ele>2138.0</ele>
        <time>2018-08-13T11:50:47Z</time>
      </trkpt>
      <trkpt lat="40.444400" lon="-5.277450">
        <ele>2139.0</ele>
        <time>2018-08-13T11:50:48Z</time>
      </trkpt>
      <trkpt lat="40.444450" lon="-5.277333">
        <ele>2139.0</ele>
        <time>2018-08-13T11:50:49Z</time>
      </trkpt>
      <trkpt lat="40.444517" lon="-5.277217">
        <ele>2140.0</ele>
        <time>2018-08-13T11:50:50Z</time>
      </trkpt>
      <trkpt lat="40.444600" lon="-5.277117">
        <ele>2140.0</ele>
        <time>2018-08-13T11:50:51Z</time>
      </trkpt>
      <trkpt lat="40.444667" lon="-5.277017">
        <ele>2142.0</ele>
        <time>2018-08-13T11:50:52Z</time>
      </trkpt>
      <trkpt lat="40.444750" lon="-5.276933">
        <ele>2144.0</ele>
        <time>2018-08-13T11:50:53Z</time>
      </trkpt>
      <trkpt lat="40.444817" lon="-5.276867">
        <ele>2146.0</ele>
        <time>2018-08-13T11:50:54Z</time>
      </trkpt>
      <trkpt lat="40.444900" lon="-5.276800">
        <ele>2149.0</ele>
        <time>2018-08-13T11:50:55Z</time>
      </trkpt>
      <trkpt lat="40.444967" lon="-5.276750">
        <ele>2151.0</ele>
        <time>2018-08-13T11:50:56Z</time>
      </trkpt>
      <trkpt lat="40.445033" lon="-5.276750">
        <ele>2152.0</ele>
        <time>2018-08-13T11:50:57Z</time>
      </trkpt>
      <trkpt lat="40.445083" lon="-5.276767">
        <ele>2152.0</ele>
        <time>2018-08-13T11:50:58Z</time>
      </trkpt>
      <trkpt lat="40.445083" lon="-5.276817">
        <ele>2152.0</ele>
        <time>2018-08-13T11:50:59Z</time>
      </trkpt>
      <trkpt lat="40.445067" lon="-5.276850">
        <ele>2151.0</ele>
        <time>2018-08-13T11:51:00Z</time>
      </trkpt>
      <trkpt lat="40.445017" lon="-5.276900">
        <ele>2149.0</ele>
        <time>2018-08-13T11:51:01Z</time>
      </trkpt>
      <trkpt lat="40.444967" lon="-5.276950">
        <ele>2148.0</ele>
        <time>2018-08-13T11:51:02Z</time>
      </trkpt>
      <trkpt lat="40.444917" lon="-5.277000">
        <ele>2146.0</ele>
        <time>2018-08-13T11:51:03Z</time>
      </trkpt>
      <trkpt lat="40.444883" lon="-5.277067">
        <ele>2146.0</ele>
        <time>2018-08-13T11:51:04Z</time>
      </trkpt>
      <trkpt lat="40.444900" lon="-5.277117">
        <ele>2146.0</ele>
        <time>2018-08-13T11:51:05Z</time>
      </trkpt>
      <trkpt lat="40.444933" lon="-5.277150">
        <ele>2147.0</ele>
        <time>2018-08-13T11:51:06Z</time>
      </trkpt>
      <trkpt lat="40.444983" lon="-5.277167">
        <ele>2147.0</ele>
        <time>2018-08-13T11:51:07Z</time>
      </trkpt>
      <trkpt lat="40.445067" lon="-5.277167">
        <ele>2147.0</ele>
        <time>2018-08-13T11:51:08Z</time>
      </trkpt>
      <trkpt lat="40.445133" lon="-5.277183">
        <ele>2147.0</ele>
        <time>2018-08-13T11:51:09Z</time>
      </trkpt>
      <trkpt lat="40.445217" lon="-5.277183">
        <ele>2146.0</ele>
        <time>2018-08-13T11:51:10Z</time>
      </trkpt>
      <trkpt lat="40.445300" lon="-5.277200">
        <ele>2145.0</ele>
        <time>2018-08-13T11:51:11Z</time>
      </trkpt>
      <trkpt lat="40.445367" lon="-5.277183">
        <ele>2144.0</ele>
        <time>2018-08-13T11:51:12Z</time>
      </trkpt>
      <trkpt lat="40.445450" lon="-5.277183">
        <ele>2143.0</ele>
        <time>2018-08-13T11:51:13Z</time>
      </trkpt>
      <trkpt lat="40.445533" lon="-5.277167">
        <ele>2141.0</ele>
        <time>2018-08-13T11:51:14Z</time>
      </trkpt>
      <trkpt lat="40.445617" lon="-5.277167">
        <ele>2140.0</ele>
        <time>2018-08-13T11:51:15Z</time>
      </trkpt>
      <trkpt lat="40.445700" lon="-5.277183">
        <ele>2138.0</ele>
        <time>2018-08-13T11:51:16Z</time>
      </trkpt>
      <trkpt lat="40.445783" lon="-5.277217">
        <ele>2138.0</ele>
        <time>2018-08-13T11:51:17Z</time>
      </trkpt>
      <trkpt lat="40.445850" lon="-5.277250">
        <ele>2137.0</ele>
        <time>2018-08-13T11:51:18Z</time>
      </trkpt>
      <trkpt lat="40.445933" lon="-5.277267">
        <ele>2137.0</ele>
        <time>2018-08-13T11:51:19Z</time>
      </trkpt>
      <trkpt lat="40.446000" lon="-5.277283">
        <ele>2137.0</ele>
        <time>2018-08-13T11:51:20Z</time>
      </trkpt>
      <trkpt lat="40.446067" lon="-5.277283">
        <ele>2138.0</ele>
        <time>2018-08-13T11:51:21Z</time>
      </trkpt>
      <trkpt lat="40.446133" lon="-5.277267">
        <ele>2138.0</ele>
        <time>2018-08-13T11:51:22Z</time>
      </trkpt>
      <trkpt lat="40.446217" lon="-5.277267">
        <ele>2137.0</ele>
        <time>2018-08-13T11:51:23Z</time>
      </trkpt>
      <trkpt lat="40.446283" lon="-5.277250">
        <ele>2137.0</ele>
        <time>2018-08-13T11:51:24Z</time>
      </trkpt>
      <trkpt lat="40.446367" lon="-5.277250">
        <ele>2137.0</ele>
        <time>2018-08-13T11:51:25Z</time>
      </trkpt>
      <trkpt lat="40.446450" lon="-5.277217">
        <ele>2137.0</ele>
        <time>2018-08-13T11:51:26Z</time>
      </trkpt>
      <trkpt lat="40.446533" lon="-5.277200">
        <ele>2137.0</ele>
        <time>2018-08-13T11:51:27Z</time>
      </trkpt>
      <trkpt lat="40.446617" lon="-5.277183">
        <ele>2139.0</ele>
        <time>2018-08-13T11:51:28Z</time>
      </trkpt>
      <trkpt lat="40.446700" lon="-5.277167">
        <ele>2140.0</ele>
        <time>2018-08-13T11:51:29Z</time>
      </trkpt>
      <trkpt lat="40.446783" lon="-5.277150">
        <ele>2141.0</ele>
        <time>2018-08-13T11:51:30Z</time>
      </trkpt>
      <trkpt lat="40.446867" lon="-5.277117">
        <ele>2142.0</ele>
        <time>2018-08-13T11:51:31Z</time>
      </trkpt>
      <trkpt lat="40.446967" lon="-5.277083">
        <ele>2143.0</ele>
        <time>2018-08-13T11:51:32Z</time>
      </trkpt>
      <trkpt lat="40.447050" lon="-5.277067">
        <ele>2145.0</ele>
        <time>2018-08-13T11:51:33Z</time>
      </trkpt>
      <trkpt lat="40.447150" lon="-5.277050">
        <ele>2145.0</ele>
        <time>2018-08-13T11:51:34Z</time>
      </trkpt>
      <trkpt lat="40.447250" lon="-5.277033">
        <ele>2146.0</ele>
        <time>2018-08-13T11:51:35Z</time>
      </trkpt>
      <trkpt lat="40.447350" lon="-5.277017">
        <ele>2148.0</ele>
        <time>2018-08-13T11:51:36Z</time>
      </trkpt>
      <trkpt lat="40.447450" lon="-5.276983">
        <ele>2151.0</ele>
        <time>2018-08-13T11:51:37Z</time>
      </trkpt>
      <trkpt lat="40.447550" lon="-5.276917">
        <ele>2153.0</ele>
        <time>2018-08-13T11:51:38Z</time>
      </trkpt>
      <trkpt lat="40.447633" lon="-5.276867">
        <ele>2156.0</ele>
        <time>2018-08-13T11:51:39Z</time>
      </trkpt>
      <trkpt lat="40.447700" lon="-5.276783">
        <ele>2158.0</ele>
        <time>2018-08-13T11:51:40Z</time>
      </trkpt>
      <trkpt lat="40.447767" lon="-5.276700">
        <ele>2160.0</ele>
        <time>2018-08-13T11:51:41Z</time>
      </trkpt>
      <trkpt lat="40.447833" lon="-5.276583">
        <ele>2160.0</ele>
        <time>2018-08-13T11:51:42Z</time>
      </trkpt>
      <trkpt lat="40.447883" lon="-5.276450">
        <ele>2161.0</ele>
        <time>2018-08-13T11:51:43Z</time>
      </trkpt>
      <trkpt lat="40.447933" lon="-5.276300">
        <ele>2161.0</ele>
        <time>2018-08-13T11:51:44Z</time>
      </trkpt>
      <trkpt lat="40.447967" lon="-5.276133">
        <ele>2161.0</ele>
        <time>2018-08-13T11:51:45Z</time>
      </trkpt>
      <trkpt lat="40.447950" lon="-5.275950">
        <ele>2160.0</ele>
        <time>2018-08-13T11:51:46Z</time>
      </trkpt>
      <trkpt lat="40.447933" lon="-5.275783">
        <ele>2159.0</ele>
        <time>2018-08-13T11:51:47Z</time>
      </trkpt>
      <trkpt lat="40.447867" lon="-5.275600">
        <ele>2158.0</ele>
        <time>2018-08-13T11:51:48Z</time>
      </trkpt>
      <trkpt lat="40.447783" lon="-5.275450">
        <ele>2157.0</ele>
        <time>2018-08-13T11:51:49Z</time>
      </trkpt>
      <trkpt lat="40.447667" lon="-5.275317">
        <ele>2156.0</ele>
        <time>2018-08-13T11:51:50Z</time>
      </trkpt>
      <trkpt lat="40.447567" lon="-5.275200">
        <ele>2155.0</ele>
        <time>2018-08-13T11:51:51Z</time>
      </trkpt>
      <trkpt lat="40.447450" lon="-5.275133">
        <ele>2155.0</ele>
        <time>2018-08-13T11:51:52Z</time>
      </trkpt>
      <trkpt lat="40.447333" lon="-5.275100">
        <ele>2154.0</ele>
        <time>2018-08-13T11:51:53Z</time>
      </trkpt>
      <trkpt lat="40.447217" lon="-5.275100">
        <ele>2154.0</ele>
        <time>2018-08-13T11:51:54Z</time>
      </trkpt>
      <trkpt lat="40.447133" lon="-5.275117">
        <ele>2156.0</ele>
        <time>2018-08-13T11:51:55Z</time>
      </trkpt>
      <trkpt lat="40.447050" lon="-5.275150">
        <ele>2157.0</ele>
        <time>2018-08-13T11:51:56Z</time>
      </trkpt>
      <trkpt lat="40.446983" lon="-5.275200">
        <ele>2160.0</ele>
        <time>2018-08-13T11:51:57Z</time>
      </trkpt>
      <trkpt lat="40.446933" lon="-5.275250">
        <ele>2161.0</ele>
        <time>2018-08-13T11:51:58Z</time>
      </trkpt>
      <trkpt lat="40.446883" lon="-5.275300">
        <ele>2163.0</ele>
        <time>2018-08-13T11:51:59Z</time>
      </trkpt>
      <trkpt lat="40.446833" lon="-5.275367">
        <ele>2164.0</ele>
        <time>2018-08-13T11:52:00Z</time>
      </trkpt>
      <trkpt lat="40.446800" lon="-5.275433">
        <ele>2165.0</ele>
        <time>2018-08-13T11:52:01Z</time>
      </trkpt>
      <trkpt lat="40.446767" lon="-5.275517">
        <ele>2167.0</ele>
        <time>2018-08-13T11:52:02Z</time>
      </trkpt>
      <trkpt lat="40.446750" lon="-5.275600">
        <ele>2170.0</ele>
        <time>2018-08-13T11:52:03Z</time>
      </trkpt>
      <trkpt lat="40.446733" lon="-5.275683">
        <ele>2173.0</ele>
        <time>2018-08-13T11:52:04Z</time>
      </trkpt>
      <trkpt lat="40.446717" lon="-5.275750">
        <ele>2177.0</ele>
        <time>2018-08-13T11:52:05Z</time>
      </trkpt>
      <trkpt lat="40.446733" lon="-5.275833">
        <ele>2181.0</ele>
        <time>2018-08-13T11:52:06Z</time>
      </trkpt>
      <trkpt lat="40.446750" lon="-5.275883">
        <ele>2183.0</ele>
        <time>2018-08-13T11:52:07Z</time>
      </trkpt>
      <trkpt lat="40.446800" lon="-5.275933">
        <ele>2184.0</ele>
        <time>2018-08-13T11:52:08Z</time>
      </trkpt>
      <trkpt lat="40.446850" lon="-5.275967">
        <ele>2185.0</ele>
        <time>2018-08-13T11:52:09Z</time>
      </trkpt>
      <trkpt lat="40.446917" lon="-5.276000">
        <ele>2187.0</ele>
        <time>2018-08-13T11:52:10Z</time>
      </trkpt>
      <trkpt lat="40.446983" lon="-5.276017">
        <ele>2189.0</ele>
        <time>2018-08-13T11:52:11Z</time>
      </trkpt>
      <trkpt lat="40.447050" lon="-5.276000">
        <ele>2191.0</ele>
        <time>2018-08-13T11:52:12Z</time>
      </trkpt>
      <trkpt lat="40.447133" lon="-5.275950">
        <ele>2192.0</ele>
        <time>2018-08-13T11:52:13Z</time>
      </trkpt>
      <trkpt lat="40.447200" lon="-5.275867">
        <ele>2192.0</ele>
        <time>2018-08-13T11:52:14Z</time>
      </trkpt>
      <trkpt lat="40.447267" lon="-5.275783">
        <ele>2192.0</ele>
        <time>2018-08-13T11:52:15Z</time>
      </trkpt>
      <trkpt lat="40.447317" lon="-5.275683">
        <ele>2191.0</ele>
        <time>2018-08-13T11:52:16Z</time>
      </trkpt>
      <trkpt lat="40.447383" lon="-5.275567">
        <ele>2189.0</ele>
        <time>2018-08-13T11:52:17Z</time>
      </trkpt>
      <trkpt lat="40.447417" lon="-5.275417">
        <ele>2188.0</ele>
        <time>2018-08-13T11:52:18Z</time>
      </trkpt>
      <trkpt lat="40.447450" lon="-5.275267">
        <ele>2186.0</ele>
        <time>2018-08-13T11:52:19Z</time>
      </trkpt>
      <trkpt lat="40.447433" lon="-5.275083">
        <ele>2184.0</ele>
        <time>2018-08-13T11:52:20Z</time>
      </trkpt>
      <trkpt lat="40.447400" lon="-5.274900">
        <ele>2182.0</ele>
        <time>2018-08-13T11:52:21Z</time>
      </trkpt>
      <trkpt lat="40.447350" lon="-5.274733">
        <ele>2181.0</ele>
        <time>2018-08-13T11:52:22Z</time>
      </trkpt>
      <trkpt lat="40.447283" lon="-5.274567">
        <ele>2181.0</ele>
        <time>2018-08-13T11:52:23Z</time>
      </trkpt>
      <trkpt lat="40.447183" lon="-5.274433">
        <ele>2180.0</ele>
        <time>2018-08-13T11:52:24Z</time>
      </trkpt>
      <trkpt lat="40.447067" lon="-5.274333">
        <ele>2180.0</ele>
        <time>2018-08-13T11:52:25Z</time>
      </trkpt>
      <trkpt lat="40.446950" lon="-5.274250">
        <ele>2180.0</ele>
        <time>2018-08-13T11:52:26Z</time>
      </trkpt>
      <trkpt lat="40.446817" lon="-5.274183">
        <ele>2182.0</ele>
        <time>2018-08-13T11:52:27Z</time>
      </trkpt>
      <trkpt lat="40.446700" lon="-5.274150">
        <ele>2184.0</ele>
        <time>2018-08-13T11:52:28Z</time>
      </trkpt>
      <trkpt lat="40.446600" lon="-5.274133">
        <ele>2187.0</ele>
        <time>2018-08-13T11:52:29Z</time>
      </trkpt>
      <trkpt lat="40.446500" lon="-5.274117">
        <ele>2189.0</ele>
        <time>2018-08-13T11:52:30Z</time>
      </trkpt>
      <trkpt lat="40.446417" lon="-5.274117">
        <ele>2191.0</ele>
        <time>2018-08-13T11:52:31Z</time>
      </trkpt>
      <trkpt lat="40.446333" lon="-5.274117">
        <ele>2194.0</ele>
        <time>2018-08-13T11:52:32Z</time>
      </trkpt>
      <trkpt lat="40.446250" lon="-5.274133">
        <ele>2196.0</ele>
        <time>2018-08-13T11:52:33Z</time>
      </trkpt>
      <trkpt lat="40.446167" lon="-5.274133">
        <ele>2198.0</ele>
        <time>2018-08-13T11:52:34Z</time>
      </trkpt>
      <trkpt lat="40.446083" lon="-5.274133">
        <ele>2201.0</ele>
        <time>2018-08-13T11:52:35Z</time>
      </trkpt>
      <trkpt lat="40.446000" lon="-5.274150">
        <ele>2203.0</ele>
        <time>2018-08-13T11:52:36Z</time>
      </trkpt>
      <trkpt lat="40.445933" lon="-5.274167">
        <ele>2204.0</ele>
        <time>2018-08-13T11:52:37Z</time>
      </trkpt>
      <trkpt lat="40.445900" lon="-5.274200">
        <ele>2204.0</ele>
        <time>2018-08-13T11:52:38Z</time>
      </trkpt>
      <trkpt lat="40.445883" lon="-5.274250">
        <ele>2203.0</ele>
        <time>2018-08-13T11:52:39Z</time>
      </trkpt>
      <trkpt lat="40.445883" lon="-5.274300">
        <ele>2203.0</ele>
        <time>2018-08-13T11:52:40Z</time>
      </trkpt>
      <trkpt lat="40.445900" lon="-5.274350">
        <ele>2204.0</ele>
        <time>2018-08-13T11:52:41Z</time>
      </trkpt>
      <trkpt lat="40.445933" lon="-5.274383">
        <ele>2204.0</ele>
        <time>2018-08-13T11:52:42Z</time>
      </trkpt>
      <trkpt lat="40.445967" lon="-5.274383">
        <ele>2205.0</ele>
        <time>2018-08-13T11:52:43Z</time>
      </trkpt>
      <trkpt lat="40.446033" lon="-5.274367">
        <ele>2206.0</ele>
        <time>2018-08-13T11:52:44Z</time>
      </trkpt>
      <trkpt lat="40.446083" lon="-5.274350">
        <ele>2206.0</ele>
        <time>2018-08-13T11:52:45Z</time>
      </trkpt>
      <trkpt lat="40.446133" lon="-5.274333">
        <ele>2206.0</ele>
        <time>2018-08-13T11:52:46Z</time>
      </trkpt>
      <trkpt lat="40.446200" lon="-5.274283">
        <ele>2206.0</ele>
        <time>2018-08-13T11:52:47Z</time>
      </trkpt>
      <trkpt lat="40.446283" lon="-5.274217">
        <ele>2206.0</ele>
        <time>2018-08-13T11:52:48Z</time>
      </trkpt>
      <trkpt lat="40.446350" lon="-5.274133">
        <ele>2207.0</ele>
        <time>2018-08-13T11:52:49Z</time>
      </trkpt>
      <trkpt lat="40.446400" lon="-5.274033">
        <ele>2208.0</ele>
        <time>2018-08-13T11:52:50Z</time>
      </trkpt>
      <trkpt lat="40.446450" lon="-5.273900">
        <ele>2209.0</ele>
        <time>2018-08-13T11:52:51Z</time>
      </trkpt>
      <trkpt lat="40.446483" lon="-5.273767">
        <ele>2208.0</ele>
        <time>2018-08-13T11:52:52Z</time>
      </trkpt>
      <trkpt lat="40.446500" lon="-5.273617">
        <ele>2208.0</ele>
        <time>2018-08-13T11:52:53Z</time>
      </trkpt>
      <trkpt lat="40.446517" lon="-5.273450">
        <ele>2208.0</ele>
        <time>2018-08-13T11:52:54Z</time>
      </trkpt>
      <trkpt lat="40.446517" lon="-5.273300">
        <ele>2209.0</ele>
        <time>2018-08-13T11:52:55Z</time>
      </trkpt>
      <trkpt lat="40.446500" lon="-5.273133">
        <ele>2208.0</ele>
        <time>2018-08-13T11:52:56Z</time>
      </trkpt>
      <trkpt lat="40.446467" lon="-5.272950">
        <ele>2207.0</ele>
        <time>2018-08-13T11:52:57Z</time>
      </trkpt>
      <trkpt lat="40.446417" lon="-5.272783">
        <ele>2206.0</ele>
        <time>2018-08-13T11:52:58Z</time>
      </trkpt>
      <trkpt lat="40.446333" lon="-5.272600">
        <ele>2206.0</ele>
        <time>2018-08-13T11:52:59Z</time>
      </trkpt>
      <trkpt lat="40.446250" lon="-5.272450">
        <ele>2207.0</ele>
        <time>2018-08-13T11:53:00Z</time>
      </trkpt>
      <trkpt lat="40.446150" lon="-5.272317">
        <ele>2209.0</ele>
        <time>2018-08-13T11:53:01Z</time>
      </trkpt>
      <trkpt lat="40.446033" lon="-5.272183">
        <ele>2212.0</ele>
        <time>2018-08-13T11:53:02Z</time>
      </trkpt>
      <trkpt lat="40.445933" lon="-5.272067">
        <ele>2215.0</ele>
        <time>2018-08-13T11:53:03Z</time>
      </trkpt>
      <trkpt lat="40.445850" lon="-5.271983">
        <ele>2218.0</ele>
        <time>2018-08-13T11:53:04Z</time>
      </trkpt>
      <trkpt lat="40.445750" lon="-5.271917">
        <ele>2220.0</ele>
        <time>2018-08-13T11:53:05Z</time>
      </trkpt>
      <trkpt lat="40.445667" lon="-5.271883">
        <ele>2221.0</ele>
        <time>2018-08-13T11:53:06Z</time>
      </trkpt>
      <trkpt lat="40.445583" lon="-5.271883">
        <ele>2221.0</ele>
        <time>2018-08-13T11:53:07Z</time>
      </trkpt>
      <trkpt lat="40.445517" lon="-5.271917">
        <ele>2222.0</ele>
        <time>2018-08-13T11:53:08Z</time>
      </trkpt>
      <trkpt lat="40.445467" lon="-5.271967">
        <ele>2223.0</ele>
        <time>2018-08-13T11:53:09Z</time>
      </trkpt>
      <trkpt lat="40.445433" lon="-5.272017">
        <ele>2226.0</ele>
        <time>2018-08-13T11:53:10Z</time>
      </trkpt>
      <trkpt lat="40.445400" lon="-5.272050">
        <ele>2228.0</ele>
        <time>2018-08-13T11:53:11Z</time>
      </trkpt>
      <trkpt lat="40.445367" lon="-5.272067">
        <ele>2229.0</ele>
        <time>2018-08-13T11:53:12Z</time>
      </trkpt>
      <trkpt lat="40.445350" lon="-5.272100">
        <ele>2230.0</ele>
        <time>2018-08-13T11:53:13Z</time>
      </trkpt>
      <trkpt lat="40.445350" lon="-5.272133">
        <ele>2229.0</ele>
        <time>2018-08-13T11:53:14Z</time>
      </trkpt>
      <trkpt lat="40.445350" lon="-5.272167">
        <ele>2229.0</ele>
        <time>2018-08-13T11:53:15Z</time>
      </trkpt>
      <trkpt lat="40.445383" lon="-5.272200">
        <ele>2228.0</ele>
        <time>2018-08-13T11:53:16Z</time>
      </trkpt>
      <trkpt lat="40.445417" lon="-5.272233">
        <ele>2229.0</ele>
        <time>2018-08-13T11:53:17Z</time>
      </trkpt>
      <trkpt lat="40.445450" lon="-5.272250">
        <ele>2229.0</ele>
        <time>2018-08-13T11:53:18Z</time>
      </trkpt>
      <trkpt lat="40.445483" lon="-5.272250">
        <ele>2229.0</ele>
        <time>2018-08-13T11:53:19Z</time>
      </trkpt>
      <trkpt lat="40.445517" lon="-5.272267">
        <ele>2229.0</ele>
        <time>2018-08-13T11:53:20Z</time>
      </trkpt>
      <trkpt lat="40.445550" lon="-5.272267">
        <ele>2227.0</ele>
        <time>2018-08-13T11:53:21Z</time>
      </trkpt>
      <trkpt lat="40.445600" lon="-5.272250">
        <ele>2226.0</ele>
        <time>2018-08-13T11:53:22Z</time>
      </trkpt>
      <trkpt lat="40.445667" lon="-5.272217">
        <ele>2225.0</ele>
        <time>2018-08-13T11:53:23Z</time>
      </trkpt>
      <trkpt lat="40.445733" lon="-5.272167">
        <ele>2224.0</ele>
        <time>2018-08-13T11:53:24Z</time>
      </trkpt>
      <trkpt lat="40.445817" lon="-5.272100">
        <ele>2224.0</ele>
        <time>2018-08-13T11:53:25Z</time>
      </trkpt>
      <trkpt lat="40.445883" lon="-5.272017">
        <ele>2224.0</ele>
        <time>2018-08-13T11:53:26Z</time>
      </trkpt>
      <trkpt lat="40.445933" lon="-5.271917">
        <ele>2224.0</ele>
        <time>2018-08-13T11:53:27Z</time>
      </trkpt>
      <trkpt lat="40.445983" lon="-5.271800">
        <ele>2223.0</ele>
        <time>2018-08-13T11:53:28Z</time>
      </trkpt>
      <trkpt lat="40.446033" lon="-5.271683">
        <ele>2222.0</ele>
        <time>2018-08-13T11:53:29Z</time>
      </trkpt>
      <trkpt lat="40.446100" lon="-5.271583">
        <ele>2222.0</ele>
        <time>2018-08-13T11:53:30Z</time>
      </trkpt>
      <trkpt lat="40.446167" lon="-5.271500">
        <ele>2221.0</ele>
        <time>2018-08-13T11:53:31Z</time>
      </trkpt>
      <trkpt lat="40.446233" lon="-5.271417">
        <ele>2220.0</ele>
        <time>2018-08-13T11:53:32Z</time>
      </trkpt>
      <trkpt lat="40.446300" lon="-5.271350">
        <ele>2220.0</ele>
        <time>2018-08-13T11:53:33Z</time>
      </trkpt>
      <trkpt lat="40.446350" lon="-5.271267">
        <ele>2218.0</ele>
        <time>2018-08-13T11:53:34Z</time>
      </trkpt>
      <trkpt lat="40.446400" lon="-5.271183">
        <ele>2216.0</ele>
        <time>2018-08-13T11:53:35Z</time>
      </trkpt>
      <trkpt lat="40.446467" lon="-5.271100">
        <ele>2214.0</ele>
        <time>2018-08-13T11:53:36Z</time>
      </trkpt>
      <trkpt lat="40.446550" lon="-5.271050">
        <ele>2211.0</ele>
        <time>2018-08-13T11:53:37Z</time>
      </trkpt>
      <trkpt lat="40.446617" lon="-5.271000">
        <ele>2208.0</ele>
        <time>2018-08-13T11:53:38Z</time>
      </trkpt>
      <trkpt lat="40.446683" lon="-5.270967">
        <ele>2206.0</ele>
        <time>2018-08-13T11:53:39Z</time>
      </trkpt>
      <trkpt lat="40.446750" lon="-5.270933">
        <ele>2204.0</ele>
        <time>2018-08-13T11:53:40Z</time>
      </trkpt>
      <trkpt lat="40.446817" lon="-5.270883">
        <ele>2202.0</ele>
        <time>2018-08-13T11:53:41Z</time>
      </trkpt>
      <trkpt lat="40.446883" lon="-5.270850">
        <ele>2199.0</ele>
        <time>2018-08-13T11:53:42Z</time>
      </trkpt>
      <trkpt lat="40.446967" lon="-5.270833">
        <ele>2196.0</ele>
        <time>2018-08-13T11:53:43Z</time>
      </trkpt>
      <trkpt lat="40.447033" lon="-5.270800">
        <ele>2194.0</ele>
        <time>2018-08-13T11:53:44Z</time>
      </trkpt>
      <trkpt lat="40.447133" lon="-5.270783">
        <ele>2192.0</ele>
        <time>2018-08-13T11:53:45Z</time>
      </trkpt>
      <trkpt lat="40.447217" lon="-5.270750">
        <ele>2191.0</ele>
        <time>2018-08-13T11:53:46Z</time>
      </trkpt>
      <trkpt lat="40.447300" lon="-5.270717">
        <ele>2191.0</ele>
        <time>2018-08-13T11:53:47Z</time>
      </trkpt>
      <trkpt lat="40.447367" lon="-5.270683">
        <ele>2191.0</ele>
        <time>2018-08-13T11:53:48Z</time>
      </trkpt>
      <trkpt lat="40.447450" lon="-5.270667">
        <ele>2190.0</ele>
        <time>2018-08-13T11:53:49Z</time>
      </trkpt>
      <trkpt lat="40.447517" lon="-5.270650">
        <ele>2189.0</ele>
        <time>2018-08-13T11:53:50Z</time>
      </trkpt>
      <trkpt lat="40.447600" lon="-5.270633">
        <ele>2187.0</ele>
        <time>2018-08-13T11:53:51Z</time>
      </trkpt>
      <trkpt lat="40.447683" lon="-5.270617">
        <ele>2185.0</ele>
        <time>2018-08-13T11:53:52Z</time>
      </trkpt>
      <trkpt lat="40.447750" lon="-5.270600">
        <ele>2184.0</ele>
        <time>2018-08-13T11:53:53Z</time>
      </trkpt>
      <trkpt lat="40.447833" lon="-5.270583">
        <ele>2182.0</ele>
        <time>2018-08-13T11:53:54Z</time>
      </trkpt>
      <trkpt lat="40.447917" lon="-5.270567">
        <ele>2181.0</ele>
        <time>2018-08-13T11:53:55Z</time>
      </trkpt>
      <trkpt lat="40.448000" lon="-5.270550">
        <ele>2180.0</ele>
        <time>2018-08-13T11:53:56Z</time>
      </trkpt>
      <trkpt lat="40.448067" lon="-5.270550">
        <ele>2180.0</ele>
        <time>2018-08-13T11:53:57Z</time>
      </trkpt>
      <trkpt lat="40.448133" lon="-5.270567">
        <ele>2179.0</ele>
        <time>2018-08-13T11:53:58Z</time>
      </trkpt>
      <trkpt lat="40.448183" lon="-5.270583">
        <ele>2179.0</ele>
        <time>2018-08-13T11:53:59Z</time>
      </trkpt>
      <trkpt lat="40.448250" lon="-5.270583">
        <ele>2179.0</ele>
        <time>2018-08-13T11:54:00Z</time>
      </trkpt>
      <trkpt lat="40.448317" lon="-5.270583">
        <ele>2178.0</ele>
        <time>2018-08-13T11:54:01Z</time>
      </trkpt>
      <trkpt lat="40.448400" lon="-5.270583">
        <ele>2178.0</ele>
        <time>2018-08-13T11:54:02Z</time>
      </trkpt>
      <trkpt lat="40.448483" lon="-5.270583">
        <ele>2178.0</ele>
        <time>2018-08-13T11:54:03Z</time>
      </trkpt>
      <trkpt lat="40.448567" lon="-5.270617">
        <ele>2180.0</ele>
        <time>2018-08-13T11:54:04Z</time>
      </trkpt>
      <trkpt lat="40.448650" lon="-5.270633">
        <ele>2181.0</ele>
        <time>2018-08-13T11:54:05Z</time>
      </trkpt>
      <trkpt lat="40.448717" lon="-5.270633">
        <ele>2182.0</ele>
        <time>2018-08-13T11:54:06Z</time>
      </trkpt>
      <trkpt lat="40.448783" lon="-5.270633">
        <ele>2183.0</ele>
        <time>2018-08-13T11:54:07Z</time>
      </trkpt>
      <trkpt lat="40.448850" lon="-5.270633">
        <ele>2183.0</ele>
        <time>2018-08-13T11:54:08Z</time>
      </trkpt>
      <trkpt lat="40.448917" lon="-5.270633">
        <ele>2182.0</ele>
        <time>2018-08-13T11:54:09Z</time>
      </trkpt>
      <trkpt lat="40.448983" lon="-5.270633">
        <ele>2181.0</ele>
        <time>2018-08-13T11:54:10Z</time>
      </trkpt>
      <trkpt lat="40.449050" lon="-5.270650">
        <ele>2180.0</ele>
        <time>2018-08-13T11:54:11Z</time>
      </trkpt>
      <trkpt lat="40.449133" lon="-5.270650">
        <ele>2179.0</ele>
        <time>2018-08-13T11:54:12Z</time>
      </trkpt>
      <trkpt lat="40.449200" lon="-5.270667">
        <ele>2179.0</ele>
        <time>2018-08-13T11:54:13Z</time>
      </trkpt>
      <trkpt lat="40.449283" lon="-5.270683">
        <ele>2179.0</ele>
        <time>2018-08-13T11:54:14Z</time>
      </trkpt>
      <trkpt lat="40.449350" lon="-5.270667">
        <ele>2179.0</ele>
        <time>2018-08-13T11:54:15Z</time>
      </trkpt>
      <trkpt lat="40.449417" lon="-5.270667">
        <ele>2179.0</ele>
        <time>2018-08-13T11:54:16Z</time>
      </trkpt>
      <trkpt lat="40.449483" lon="-5.270667">
        <ele>2177.0</ele>
        <time>2018-08-13T11:54:17Z</time>
      </trkpt>
      <trkpt lat="40.449550" lon="-5.270667">
        <ele>2176.0</ele>
        <time>2018-08-13T11:54:18Z</time>
      </trkpt>
      <trkpt lat="40.449617" lon="-5.270683">
        <ele>2175.0</ele>
        <time>2018-08-13T11:54:19Z</time>
      </trkpt>
      <trkpt lat="40.449683" lon="-5.270700">
        <ele>2174.0</ele>
        <time>2018-08-13T11:54:20Z</time>
      </trkpt>
      <trkpt lat="40.449750" lon="-5.270700">
        <ele>2174.0</ele>
        <time>2018-08-13T11:54:21Z</time>
      </trkpt>
      <trkpt lat="40.449817" lon="-5.270683">
        <ele>2175.0</ele>
        <time>2018-08-13T11:54:22Z</time>
      </trkpt>
      <trkpt lat="40.449883" lon="-5.270667">
        <ele>2174.0</ele>
        <time>2018-08-13T11:54:23Z</time>
      </trkpt>
      <trkpt lat="40.449950" lon="-5.270633">
        <ele>2173.0</ele>
        <time>2018-08-13T11:54:24Z</time>
      </trkpt>
      <trkpt lat="40.450017" lon="-5.270617">
        <ele>2171.0</ele>
        <time>2018-08-13T11:54:25Z</time>
      </trkpt>
      <trkpt lat="40.450100" lon="-5.270583">
        <ele>2170.0</ele>
        <time>2018-08-13T11:54:26Z</time>
      </trkpt>
      <trkpt lat="40.450200" lon="-5.270567">
        <ele>2170.0</ele>
        <time>2018-08-13T11:54:27Z</time>
      </trkpt>
      <trkpt lat="40.450283" lon="-5.270567">
        <ele>2173.0</ele>
        <time>2018-08-13T11:54:28Z</time>
      </trkpt>
      <trkpt lat="40.450350" lon="-5.270567">
        <ele>2176.0</ele>
        <time>2018-08-13T11:54:29Z</time>
      </trkpt>
      <trkpt lat="40.450400" lon="-5.270583">
        <ele>2179.0</ele>
        <time>2018-08-13T11:54:30Z</time>
      </trkpt>
      <trkpt lat="40.450450" lon="-5.270583">
        <ele>2181.0</ele>
        <time>2018-08-13T11:54:31Z</time>
      </trkpt>
      <trkpt lat="40.450517" lon="-5.270600">
        <ele>2182.0</ele>
        <time>2018-08-13T11:54:32Z</time>
      </trkpt>
      <trkpt lat="40.450583" lon="-5.270617">
        <ele>2183.0</ele>
        <time>2018-08-13T11:54:33Z</time>
      </trkpt>
      <trkpt lat="40.450650" lon="-5.270617">
        <ele>2183.0</ele>
        <time>2018-08-13T11:54:34Z</time>
      </trkpt>
      <trkpt lat="40.450717" lon="-5.270617">
        <ele>2185.0</ele>
        <time>2018-08-13T11:54:35Z</time>
      </trkpt>
      <trkpt lat="40.450783" lon="-5.270617">
        <ele>2186.0</ele>
        <time>2018-08-13T11:54:36Z</time>
      </trkpt>
      <trkpt lat="40.450850" lon="-5.270600">
        <ele>2188.0</ele>
        <time>2018-08-13T11:54:37Z</time>
      </trkpt>
      <trkpt lat="40.450917" lon="-5.270583">
        <ele>2188.0</ele>
        <time>2018-08-13T11:54:38Z</time>
      </trkpt>
      <trkpt lat="40.450983" lon="-5.270600">
        <ele>2188.0</ele>
        <time>2018-08-13T11:54:39Z</time>
      </trkpt>
      <trkpt lat="40.451067" lon="-5.270633">
        <ele>2189.0</ele>
        <time>2018-08-13T11:54:40Z</time>
      </trkpt>
      <trkpt lat="40.451150" lon="-5.270667">
        <ele>2191.0</ele>
        <time>2018-08-13T11:54:41Z</time>
      </trkpt>
      <trkpt lat="40.451200" lon="-5.270700">
        <ele>2195.0</ele>
        <time>2018-08-13T11:54:42Z</time>
      </trkpt>
      <trkpt lat="40.451267" lon="-5.270700">
        <ele>2197.0</ele>
        <time>2018-08-13T11:54:43Z</time>
      </trkpt>
      <trkpt lat="40.451317" lon="-5.270717">
        <ele>2199.0</ele>
        <time>2018-08-13T11:54:44Z</time>
      </trkpt>
      <trkpt lat="40.451367" lon="-5.270733">
        <ele>2199.0</ele>
        <time>2018-08-13T11:54:45Z</time>
      </trkpt>
      <trkpt lat="40.451417" lon="-5.270750">
        <ele>2198.0</ele>
        <time>2018-08-13T11:54:46Z</time>
      </trkpt>
      <trkpt lat="40.451500" lon="-5.270767">
        <ele>2196.0</ele>
        <time>2018-08-13T11:54:47Z</time>
      </trkpt>
      <trkpt lat="40.451583" lon="-5.270750">
        <ele>2195.0</ele>
        <time>2018-08-13T11:54:48Z</time>
      </trkpt>
      <trkpt lat="40.451683" lon="-5.270717">
        <ele>2195.0</ele>
        <time>2018-08-13T11:54:49Z</time>
      </trkpt>
      <trkpt lat="40.451767" lon="-5.270650">
        <ele>2196.0</ele>
        <time>2018-08-13T11:54:50Z</time>
      </trkpt>
      <trkpt lat="40.451833" lon="-5.270533">
        <ele>2199.0</ele>
        <time>2018-08-13T11:54:51Z</time>
      </trkpt>
      <trkpt lat="40.451867" lon="-5.270400">
        <ele>2200.0</ele>
        <time>2018-08-13T11:54:52Z</time>
      </trkpt>
      <trkpt lat="40.451883" lon="-5.270250">
        <ele>2200.0</ele>
        <time>2018-08-13T11:54:53Z</time>
      </trkpt>
      <trkpt lat="40.451883" lon="-5.270100">
        <ele>2201.0</ele>
        <time>2018-08-13T11:54:54Z</time>
      </trkpt>
      <trkpt lat="40.451850" lon="-5.269933">
        <ele>2201.0</ele>
        <time>2018-08-13T11:54:55Z</time>
      </trkpt>
      <trkpt lat="40.451800" lon="-5.269767">
        <ele>2201.0</ele>
        <time>2018-08-13T11:54:56Z</time>
      </trkpt>
      <trkpt lat="40.451733" lon="-5.269600">
        <ele>2201.0</ele>
        <time>2018-08-13T11:54:57Z</time>
      </trkpt>
      <trkpt lat="40.451633" lon="-5.269450">
        <ele>2201.0</ele>
        <time>2018-08-13T11:54:58Z</time>
      </trkpt>
      <trkpt lat="40.451517" lon="-5.269333">
        <ele>2202.0</ele>
        <time>2018-08-13T11:54:59Z</time>
      </trkpt>
      <trkpt lat="40.451400" lon="-5.269250">
        <ele>2203.0</ele>
        <time>2018-08-13T11:55:00Z</time>
      </trkpt>
      <trkpt lat="40.451300" lon="-5.269200">
        <ele>2204.0</ele>
        <time>2018-08-13T11:55:01Z</time>
      </trkpt>
      <trkpt lat="40.451183" lon="-5.269200">
        <ele>2204.0</ele>
        <time>2018-08-13T11:55:02Z</time>
      </trkpt>
      <trkpt lat="40.451067" lon="-5.269200">
        <ele>2203.0</ele>
        <time>2018-08-13T11:55:03Z</time>
      </trkpt>
      <trkpt lat="40.450967" lon="-5.269250">
        <ele>2203.0</ele>
        <time>2018-08-13T11:55:04Z</time>
      </trkpt>
      <trkpt lat="40.450900" lon="-5.269300">
        <ele>2203.0</ele>
        <time>2018-08-13T11:55:05Z</time>
      </trkpt>
      <trkpt lat="40.450850" lon="-5.269383">
        <ele>2204.0</ele>
        <time>2018-08-13T11:55:06Z</time>
      </trkpt>
      <trkpt lat="40.450833" lon="-5.269467">
        <ele>2204.0</ele>
        <time>2018-08-13T11:55:07Z</time>
      </trkpt>
      <trkpt lat="40.450850" lon="-5.269550">
        <ele>2204.0</ele>
        <time>2018-08-13T11:55:08Z</time>
      </trkpt>
      <trkpt lat="40.450883" lon="-5.269617">
        <ele>2205.0</ele>
        <time>2018-08-13T11:55:09Z</time>
      </trkpt>
      <trkpt lat="40.450933" lon="-5.269650">
        <ele>2206.0</ele>
        <time>2018-08-13T11:55:10Z</time>
      </trkpt>
      <trkpt lat="40.450983" lon="-5.269683">
        <ele>2206.0</ele>
        <time>2018-08-13T11:55:11Z</time>
      </trkpt>
      <trkpt lat="40.451050" lon="-5.269700">
        <ele>2206.0</ele>
        <time>2018-08-13T11:55:12Z</time>
      </trkpt>
      <trkpt lat="40.451133" lon="-5.269700">
        <ele>2205.0</ele>
        <time>2018-08-13T11:55:13Z</time>
      </trkpt>
      <trkpt lat="40.451217" lon="-5.269700">
        <ele>2205.0</ele>
        <time>2018-08-13T11:55:14Z</time>
      </trkpt>
      <trkpt lat="40.451317" lon="-5.269683">
        <ele>2204.0</ele>
        <time>2018-08-13T11:55:15Z</time>
      </trkpt>
      <trkpt lat="40.451400" lon="-5.269650">
        <ele>2204.0</ele>
        <time>2018-08-13T11:55:16Z</time>
      </trkpt>
      <trkpt lat="40.451483" lon="-5.269617">
        <ele>2204.0</ele>
        <time>2018-08-13T11:55:17Z</time>
      </trkpt>
      <trkpt lat="40.451583" lon="-5.269583">
        <ele>2204.0</ele>
        <time>2018-08-13T11:55:18Z</time>
      </trkpt>
      <trkpt lat="40.451667" lon="-5.269550">
        <ele>2204.0</ele>
        <time>2018-08-13T11:55:19Z</time>
      </trkpt>
      <trkpt lat="40.451750" lon="-5.269517">
        <ele>2205.0</ele>
        <time>2018-08-13T11:55:20Z</time>
      </trkpt>
      <trkpt lat="40.451817" lon="-5.269500">
        <ele>2205.0</ele>
        <time>2018-08-13T11:55:21Z</time>
      </trkpt>
      <trkpt lat="40.451900" lon="-5.269467">
        <ele>2206.0</ele>
        <time>2018-08-13T11:55:22Z</time>
      </trkpt>
      <trkpt lat="40.451967" lon="-5.269417">
        <ele>2206.0</ele>
        <time>2018-08-13T11:55:23Z</time>
      </trkpt>
      <trkpt lat="40.452050" lon="-5.269367">
        <ele>2206.0</ele>
        <time>2018-08-13T11:55:24Z</time>
      </trkpt>
      <trkpt lat="40.452133" lon="-5.269350">
        <ele>2206.0</ele>
        <time>2018-08-13T11:55:25Z</time>
      </trkpt>
      <trkpt lat="40.452200" lon="-5.269333">
        <ele>2206.0</ele>
        <time>2018-08-13T11:55:26Z</time>
      </trkpt>
      <trkpt lat="40.452283" lon="-5.269350">
        <ele>2206.0</ele>
        <time>2018-08-13T11:55:27Z</time>
      </trkpt>
      <trkpt lat="40.452350" lon="-5.269350">
        <ele>2206.0</ele>
        <time>2018-08-13T11:55:28Z</time>
      </trkpt>
      <trkpt lat="40.452417" lon="-5.269317">
        <ele>2206.0</ele>
        <time>2018-08-13T11:55:29Z</time>
      </trkpt>
      <trkpt lat="40.452483" lon="-5.269283">
        <ele>2207.0</ele>
        <time>2018-08-13T11:55:30Z</time>
      </trkpt>
      <trkpt lat="40.452550" lon="-5.269233">
        <ele>2207.0</ele>
        <time>2018-08-13T11:55:31Z</time>
      </trkpt>
      <trkpt lat="40.452633" lon="-5.269183">
        <ele>2206.0</ele>
        <time>2018-08-13T11:55:32Z</time>
      </trkpt>
      <trkpt lat="40.452700" lon="-5.269133">
        <ele>2206.0</ele>
        <time>2018-08-13T11:55:33Z</time>
      </trkpt>
      <trkpt lat="40.452800" lon="-5.269083">
        <ele>2206.0</ele>
        <time>2018-08-13T11:55:34Z</time>
      </trkpt>
      <trkpt lat="40.452867" lon="-5.269050">
        <ele>2207.0</ele>
        <time>2018-08-13T11:55:35Z</time>
      </trkpt>
      <trkpt lat="40.452950" lon="-5.269033">
        <ele>2209.0</ele>
        <time>2018-08-13T11:55:36Z</time>
      </trkpt>
      <trkpt lat="40.453017" lon="-5.269000">
        <ele>2210.0</ele>
        <time>2018-08-13T11:55:37Z</time>
      </trkpt>
      <trkpt lat="40.453067" lon="-5.268950">
        <ele>2210.0</ele>
        <time>2018-08-13T11:55:38Z</time>
      </trkpt>
      <trkpt lat="40.453133" lon="-5.268900">
        <ele>2210.0</ele>
        <time>2018-08-13T11:55:39Z</time>
      </trkpt>
      <trkpt lat="40.453217" lon="-5.268867">
        <ele>2209.0</ele>
        <time>2018-08-13T11:55:40Z</time>
      </trkpt>
      <trkpt lat="40.453283" lon="-5.268867">
        <ele>2209.0</ele>
        <time>2018-08-13T11:55:41Z</time>
      </trkpt>
      <trkpt lat="40.453350" lon="-5.268850">
        <ele>2208.0</ele>
        <time>2018-08-13T11:55:42Z</time>
      </trkpt>
      <trkpt lat="40.453433" lon="-5.268850">
        <ele>2208.0</ele>
        <time>2018-08-13T11:55:43Z</time>
      </trkpt>
      <trkpt lat="40.453500" lon="-5.268833">
        <ele>2208.0</ele>
        <time>2018-08-13T11:55:44Z</time>
      </trkpt>
      <trkpt lat="40.453583" lon="-5.268800">
        <ele>2208.0</ele>
        <time>2018-08-13T11:55:45Z</time>
      </trkpt>
      <trkpt lat="40.453650" lon="-5.268767">
        <ele>2209.0</ele>
        <time>2018-08-13T11:55:46Z</time>
      </trkpt>
      <trkpt lat="40.453717" lon="-5.268717">
        <ele>2209.0</ele>
        <time>2018-08-13T11:55:47Z</time>
      </trkpt>
      <trkpt lat="40.453783" lon="-5.268667">
        <ele>2208.0</ele>
        <time>2018-08-13T11:55:48Z</time>
      </trkpt>
      <trkpt lat="40.453867" lon="-5.268600">
        <ele>2207.0</ele>
        <time>2018-08-13T11:55:49Z</time>
      </trkpt>
      <trkpt lat="40.453933" lon="-5.268533">
        <ele>2207.0</ele>
        <time>2018-08-13T11:55:50Z</time>
      </trkpt>
      <trkpt lat="40.454000" lon="-5.268467">
        <ele>2206.0</ele>
        <time>2018-08-13T11:55:51Z</time>
      </trkpt>
      <trkpt lat="40.454067" lon="-5.268417">
        <ele>2206.0</ele>
        <time>2018-08-13T11:55:52Z</time>
      </trkpt>
      <trkpt lat="40.454133" lon="-5.268367">
        <ele>2205.0</ele>
        <time>2018-08-13T11:55:53Z</time>
      </trkpt>
      <trkpt lat="40.454200" lon="-5.268300">
        <ele>2204.0</ele>
        <time>2018-08-13T11:55:54Z</time>
      </trkpt>
      <trkpt lat="40.454267" lon="-5.268233">
        <ele>2204.0</ele>
        <time>2018-08-13T11:55:55Z</time>
      </trkpt>
      <trkpt lat="40.454333" lon="-5.268167">
        <ele>2203.0</ele>
        <time>2018-08-13T11:55:56Z</time>
      </trkpt>
      <trkpt lat="40.454383" lon="-5.268083">
        <ele>2203.0</ele>
        <time>2018-08-13T11:55:57Z</time>
      </trkpt>
      <trkpt lat="40.454450" lon="-5.268017">
        <ele>2203.0</ele>
        <time>2018-08-13T11:55:58Z</time>
      </trkpt>
      <trkpt lat="40.454533" lon="-5.267933">
        <ele>2202.0</ele>
        <time>2018-08-13T11:55:59Z</time>
      </trkpt>
      <trkpt lat="40.454617" lon="-5.267850">
        <ele>2202.0</ele>
        <time>2018-08-13T11:56:00Z</time>
      </trkpt>
      <trkpt lat="40.454700" lon="-5.267750">
        <ele>2203.0</ele>
        <time>2018-08-13T11:56:01Z</time>
      </trkpt>
      <trkpt lat="40.454767" lon="-5.267650">
        <ele>2206.0</ele>
        <time>2018-08-13T11:56:02Z</time>
      </trkpt>
      <trkpt lat="40.454850" lon="-5.267533">
        <ele>2209.0</ele>
        <time>2018-08-13T11:56:03Z</time>
      </trkpt>
      <trkpt lat="40.454900" lon="-5.267417">
        <ele>2211.0</ele>
        <time>2018-08-13T11:56:04Z</time>
      </trkpt>
      <trkpt lat="40.454967" lon="-5.267317">
        <ele>2214.0</ele>
        <time>2018-08-13T11:56:05Z</time>
      </trkpt>
      <trkpt lat="40.455017" lon="-5.267200">
        <ele>2215.0</ele>
        <time>2018-08-13T11:56:06Z</time>
      </trkpt>
      <trkpt lat="40.455083" lon="-5.267100">
        <ele>2218.0</ele>
        <time>2018-08-13T11:56:07Z</time>
      </trkpt>
      <trkpt lat="40.455133" lon="-5.266983">
        <ele>2219.0</ele>
        <time>2018-08-13T11:56:08Z</time>
      </trkpt>
      <trkpt lat="40.455200" lon="-5.266883">
        <ele>2221.0</ele>
        <time>2018-08-13T11:56:09Z</time>
      </trkpt>
      <trkpt lat="40.455267" lon="-5.266800">
        <ele>2221.0</ele>
        <time>2018-08-13T11:56:10Z</time>
      </trkpt>
      <trkpt lat="40.455350" lon="-5.266733">
        <ele>2222.0</ele>
        <time>2018-08-13T11:56:11Z</time>
      </trkpt>
      <trkpt lat="40.455417" lon="-5.266700">
        <ele>2224.0</ele>
        <time>2018-08-13T11:56:12Z</time>
      </trkpt>
      <trkpt lat="40.455500" lon="-5.266700">
        <ele>2225.0</ele>
        <time>2018-08-13T11:56:13Z</time>
      </trkpt>
      <trkpt lat="40.455567" lon="-5.266717">
        <ele>2226.0</ele>
        <time>2018-08-13T11:56:14Z</time>
      </trkpt>
      <trkpt lat="40.455617" lon="-5.266767">
        <ele>2227.0</ele>
        <time>2018-08-13T11:56:15Z</time>
      </trkpt>
      <trkpt lat="40.455650" lon="-5.266833">
        <ele>2228.0</ele>
        <time>2018-08-13T11:56:16Z</time>
      </trkpt>
      <trkpt lat="40.455650" lon="-5.266900">
        <ele>2230.0</ele>
        <time>2018-08-13T11:56:17Z</time>
      </trkpt>
      <trkpt lat="40.455650" lon="-5.266983">
        <ele>2231.0</ele>
        <time>2018-08-13T11:56:18Z</time>
      </trkpt>
      <trkpt lat="40.455633" lon="-5.267067">
        <ele>2233.0</ele>
        <time>2018-08-13T11:56:19Z</time>
      </trkpt>
      <trkpt lat="40.455583" lon="-5.267150">
        <ele>2234.0</ele>
        <time>2018-08-13T11:56:20Z</time>
      </trkpt>
      <trkpt lat="40.455533" lon="-5.267200">
        <ele>2235.0</ele>
        <time>2018-08-13T11:56:21Z</time>
      </trkpt>
      <trkpt lat="40.455467" lon="-5.267250">
        <ele>2236.0</ele>
        <time>2018-08-13T11:56:22Z</time>
      </trkpt>
      <trkpt lat="40.455400" lon="-5.267267">
        <ele>2237.0</ele>
        <time>2018-08-13T11:56:23Z</time>
      </trkpt>
      <trkpt lat="40.455333" lon="-5.267283">
        <ele>2237.0</ele>
        <time>2018-08-13T11:56:24Z</time>
      </trkpt>
      <trkpt lat="40.455233" lon="-5.267283">
        <ele>2236.0</ele>
        <time>2018-08-13T11:56:25Z</time>
      </trkpt>
      <trkpt lat="40.455133" lon="-5.267267">
        <ele>2235.0</ele>
        <time>2018-08-13T11:56:26Z</time>
      </trkpt>
      <trkpt lat="40.455017" lon="-5.267217">
        <ele>2236.0</ele>
        <time>2018-08-13T11:56:27Z</time>
      </trkpt>
      <trkpt lat="40.454900" lon="-5.267167">
        <ele>2237.0</ele>
        <time>2018-08-13T11:56:28Z</time>
      </trkpt>
      <trkpt lat="40.454800" lon="-5.267100">
        <ele>2239.0</ele>
        <time>2018-08-13T11:56:29Z</time>
      </trkpt>
      <trkpt lat="40.454700" lon="-5.267033">
        <ele>2240.0</ele>
        <time>2018-08-13T11:56:30Z</time>
      </trkpt>
      <trkpt lat="40.454600" lon="-5.266967">
        <ele>2241.0</ele>
        <time>2018-08-13T11:56:31Z</time>
      </trkpt>
      <trkpt lat="40.454517" lon="-5.266867">
        <ele>2242.0</ele>
        <time>2018-08-13T11:56:32Z</time>
      </trkpt>
      <trkpt lat="40.454433" lon="-5.266750">
        <ele>2242.0</ele>
        <time>2018-08-13T11:56:33Z</time>
      </trkpt>
      <trkpt lat="40.454367" lon="-5.266617">
        <ele>2243.0</ele>
        <time>2018-08-13T11:56:34Z</time>
      </trkpt>
      <trkpt lat="40.454317" lon="-5.266467">
        <ele>2243.0</ele>
        <time>2018-08-13T11:56:35Z</time>
      </trkpt>
      <trkpt lat="40.454267" lon="-5.266317">
        <ele>2244.0</ele>
        <time>2018-08-13T11:56:36Z</time>
      </trkpt>
      <trkpt lat="40.454250" lon="-5.266150">
        <ele>2244.0</ele>
        <time>2018-08-13T11:56:37Z</time>
      </trkpt>
      <trkpt lat="40.454233" lon="-5.265967">
        <ele>2246.0</ele>
        <time>2018-08-13T11:56:38Z</time>
      </trkpt>
      <trkpt lat="40.454217" lon="-5.265783">
        <ele>2248.0</ele>
        <time>2018-08-13T11:56:39Z</time>
      </trkpt>
      <trkpt lat="40.454233" lon="-5.265600">
        <ele>2252.0</ele>
        <time>2018-08-13T11:56:40Z</time>
      </trkpt>
      <trkpt lat="40.454233" lon="-5.265433">
        <ele>2257.0</ele>
        <time>2018-08-13T11:56:41Z</time>
      </trkpt>
      <trkpt lat="40.454267" lon="-5.265283">
        <ele>2260.0</ele>
        <time>2018-08-13T11:56:42Z</time>
      </trkpt>
      <trkpt lat="40.454300" lon="-5.265150">
        <ele>2263.0</ele>
        <time>2018-08-13T11:56:43Z</time>
      </trkpt>
      <trkpt lat="40.454350" lon="-5.265017">
        <ele>2264.0</ele>
        <time>2018-08-13T11:56:44Z</time>
      </trkpt>
      <trkpt lat="40.454417" lon="-5.264917">
        <ele>2264.0</ele>
        <time>2018-08-13T11:56:45Z</time>
      </trkpt>
      <trkpt lat="40.454500" lon="-5.264833">
        <ele>2265.0</ele>
        <time>2018-08-13T11:56:46Z</time>
      </trkpt>
      <trkpt lat="40.454583" lon="-5.264783">
        <ele>2267.0</ele>
        <time>2018-08-13T11:56:47Z</time>
      </trkpt>
      <trkpt lat="40.454650" lon="-5.264783">
        <ele>2269.0</ele>
        <time>2018-08-13T11:56:48Z</time>
      </trkpt>
      <trkpt lat="40.454717" lon="-5.264800">
        <ele>2271.0</ele>
        <time>2018-08-13T11:56:49Z</time>
      </trkpt>
      <trkpt lat="40.454767" lon="-5.264833">
        <ele>2271.0</ele>
        <time>2018-08-13T11:56:50Z</time>
      </trkpt>
      <trkpt lat="40.454800" lon="-5.264867">
        <ele>2272.0</ele>
        <time>2018-08-13T11:56:51Z</time>
      </trkpt>
      <trkpt lat="40.454850" lon="-5.264917">
        <ele>2272.0</ele>
        <time>2018-08-13T11:56:52Z</time>
      </trkpt>
      <trkpt lat="40.454867" lon="-5.265000">
        <ele>2272.0</ele>
        <time>2018-08-13T11:56:53Z</time>
      </trkpt>
      <trkpt lat="40.454883" lon="-5.265083">
        <ele>2273.0</ele>
        <time>2018-08-13T11:56:54Z</time>
      </trkpt>
      <trkpt lat="40.454883" lon="-5.265167">
        <ele>2275.0</ele>
        <time>2018-08-13T11:56:55Z</time>
      </trkpt>
      <trkpt lat="40.454850" lon="-5.265233">
        <ele>2277.0</ele>
        <time>2018-08-13T11:56:56Z</time>
      </trkpt>
      <trkpt lat="40.454817" lon="-5.265317">
        <ele>2278.0</ele>
        <time>2018-08-13T11:56:57Z</time>
      </trkpt>
      <trkpt lat="40.454767" lon="-5.265367">
        <ele>2278.0</ele>
        <time>2018-08-13T11:56:58Z</time>
      </trkpt>
      <trkpt lat="40.454683" lon="-5.265433">
        <ele>2277.0</ele>
        <time>2018-08-13T11:56:59Z</time>
      </trkpt>
      <trkpt lat="40.454600" lon="-5.265483">
        <ele>2277.0</ele>
        <time>2018-08-13T11:57:00Z</time>
      </trkpt>
      <trkpt lat="40.454500" lon="-5.265517">
        <ele>2277.0</ele>
        <time>2018-08-13T11:57:01Z</time>
      </trkpt>
      <trkpt lat="40.454383" lon="-5.265533">
        <ele>2278.0</ele>
        <time>2018-08-13T11:57:02Z</time>
      </trkpt>
      <trkpt lat="40.454267" lon="-5.265500">
        <ele>2279.0</ele>
        <time>2018-08-13T11:57:03Z</time>
      </trkpt>
      <trkpt lat="40.454150" lon="-5.265433">
        <ele>2279.0</ele>
        <time>2018-08-13T11:57:04Z</time>
      </trkpt>
      <trkpt lat="40.454050" lon="-5.265350">
        <ele>2280.0</ele>
        <time>2018-08-13T11:57:05Z</time>
      </trkpt>
      <trkpt lat="40.453950" lon="-5.265233">
        <ele>2281.0</ele>
        <time>2018-08-13T11:57:06Z</time>
      </trkpt>
      <trkpt lat="40.453850" lon="-5.265100">
        <ele>2283.0</ele>
        <time>2018-08-13T11:57:07Z</time>
      </trkpt>
      <trkpt lat="40.453783" lon="-5.264967">
        <ele>2285.0</ele>
        <time>2018-08-13T11:57:08Z</time>
      </trkpt>
      <trkpt lat="40.453717" lon="-5.264800">
        <ele>2287.0</ele>
        <time>2018-08-13T11:57:09Z</time>
      </trkpt>
      <trkpt lat="40.453683" lon="-5.264650">
        <ele>2288.0</ele>
        <time>2018-08-13T11:57:10Z</time>
      </trkpt>
      <trkpt lat="40.453650" lon="-5.264483">
        <ele>2291.0</ele>
        <time>2018-08-13T11:57:11Z</time>
      </trkpt>
      <trkpt lat="40.453617" lon="-5.264317">
        <ele>2292.0</ele>
        <time>2018-08-13T11:57:12Z</time>
      </trkpt>
      <trkpt lat="40.453633" lon="-5.264167">
        <ele>2293.0</ele>
        <time>2018-08-13T11:57:13Z</time>
      </trkpt>
      <trkpt lat="40.453650" lon="-5.264033">
        <ele>2293.0</ele>
        <time>2018-08-13T11:57:14Z</time>
      </trkpt>
      <trkpt lat="40.453717" lon="-5.263900">
        <ele>2293.0</ele>
        <time>2018-08-13T11:57:15Z</time>
      </trkpt>
      <trkpt lat="40.453783" lon="-5.263800">
        <ele>2294.0</ele>
        <time>2018-08-13T11:57:16Z</time>
      </trkpt>
      <trkpt lat="40.453850" lon="-5.263700">
        <ele>2296.0</ele>
        <time>2018-08-13T11:57:17Z</time>
      </trkpt>
      <trkpt lat="40.453933" lon="-5.263633">
        <ele>2298.0</ele>
        <time>2018-08-13T11:57:18Z</time>
      </trkpt>
      <trkpt lat="40.454000" lon="-5.263583">
        <ele>2300.0</ele>
        <time>2018-08-13T11:57:19Z</time>
      </trkpt>
      <trkpt lat="40.454067" lon="-5.263550">
        <ele>2302.0</ele>
        <time>2018-08-13T11:57:20Z</time>
      </trkpt>
      <trkpt lat="40.454133" lon="-5.263517">
        <ele>2303.0</ele>
        <time>2018-08-13T11:57:21Z</time>
      </trkpt>
      <trkpt lat="40.454183" lon="-5.263517">
        <ele>2303.0</ele>
        <time>2018-08-13T11:57:22Z</time>
      </trkpt>
      <trkpt lat="40.454250" lon="-5.263517">
        <ele>2302.0</ele>
        <time>2018-08-13T11:57:23Z</time>
      </trkpt>
      <trkpt lat="40.454317" lon="-5.263533">
        <ele>2303.0</ele>
        <time>2018-08-13T11:57:24Z</time>
      </trkpt>
      <trkpt lat="40.454383" lon="-5.263583">
        <ele>2304.0</ele>
        <time>2018-08-13T11:57:25Z</time>
      </trkpt>
      <trkpt lat="40.454433" lon="-5.263617">
        <ele>2306.0</ele>
        <time>2018-08-13T11:57:26Z</time>
      </trkpt>
      <trkpt lat="40.454483" lon="-5.263617">
        <ele>2308.0</ele>
        <time>2018-08-13T11:57:27Z</time>
      </trkpt>
      <trkpt lat="40.454550" lon="-5.263600">
        <ele>2309.0</ele>
        <time>2018-08-13T11:57:28Z</time>
      </trkpt>
      <trkpt lat="40.454600" lon="-5.263583">
        <ele>2309.0</ele>
        <time>2018-08-13T11:57:29Z</time>
      </trkpt>
      <trkpt lat="40.454667" lon="-5.263583">
        <ele>2308.0</ele>
        <time>2018-08-13T11:57:30Z</time>
      </trkpt>
      <trkpt lat="40.454717" lon="-5.263650">
        <ele>2307.0</ele>
        <time>2018-08-13T11:57:31Z</time>
      </trkpt>
      <trkpt lat="40.454733" lon="-5.263733">
        <ele>2305.0</ele>
        <time>2018-08-13T11:57:32Z</time>
      </trkpt>
      <trkpt lat="40.454700" lon="-5.263850">
        <ele>2305.0</ele>
        <time>2018-08-13T11:57:33Z</time>
      </trkpt>
      <trkpt lat="40.454633" lon="-5.263917">
        <ele>2307.0</ele>
        <time>2018-08-13T11:57:34Z</time>
      </trkpt>
      <trkpt lat="40.454533" lon="-5.263950">
        <ele>2308.0</ele>
        <time>2018-08-13T11:57:35Z</time>
      </trkpt>
      <trkpt lat="40.454417" lon="-5.263933">
        <ele>2309.0</ele>
        <time>2018-08-13T11:57:36Z</time>
      </trkpt>
      <trkpt lat="40.454317" lon="-5.263883">
        <ele>2309.0</ele>
        <time>2018-08-13T11:57:37Z</time>
      </trkpt>
      <trkpt lat="40.454217" lon="-5.263817">
        <ele>2308.0</ele>
        <time>2018-08-13T11:57:38Z</time>
      </trkpt>
      <trkpt lat="40.454117" lon="-5.263717">
        <ele>2307.0</ele>
        <time>2018-08-13T11:57:39Z</time>
      </trkpt>
      <trkpt lat="40.454000" lon="-5.263617">
        <ele>2306.0</ele>
        <time>2018-08-13T11:57:40Z</time>
      </trkpt>
      <trkpt lat="40.453900" lon="-5.263483">
        <ele>2306.0</ele>
        <time>2018-08-13T11:57:41Z</time>
      </trkpt>
      <trkpt lat="40.453817" lon="-5.263350">
        <ele>2307.0</ele>
        <time>2018-08-13T11:57:42Z</time>
      </trkpt>
      <trkpt lat="40.453767" lon="-5.263183">
        <ele>2308.0</ele>
        <time>2018-08-13T11:57:43Z</time>
      </trkpt>
      <trkpt lat="40.453733" lon="-5.263017">
        <ele>2308.0</ele>
        <time>2018-08-13T11:57:44Z</time>
      </trkpt>
      <trkpt lat="40.453717" lon="-5.262833">
        <ele>2309.0</ele>
        <time>2018-08-13T11:57:45Z</time>
      </trkpt>
      <trkpt lat="40.453717" lon="-5.262650">
        <ele>2310.0</ele>
        <time>2018-08-13T11:57:46Z</time>
      </trkpt>
      <trkpt lat="40.453733" lon="-5.262467">
        <ele>2312.0</ele>
        <time>2018-08-13T11:57:47Z</time>
      </trkpt>
      <trkpt lat="40.453783" lon="-5.262317">
        <ele>2314.0</ele>
        <time>2018-08-13T11:57:48Z</time>
      </trkpt>
      <trkpt lat="40.453833" lon="-5.262183">
        <ele>2316.0</ele>
        <time>2018-08-13T11:57:49Z</time>
      </trkpt>
      <trkpt lat="40.453883" lon="-5.262050">
        <ele>2318.0</ele>
        <time>2018-08-13T11:57:50Z</time>
      </trkpt>
      <trkpt lat="40.453917" lon="-5.261933">
        <ele>2319.0</ele>
        <time>2018-08-13T11:57:51Z</time>
      </trkpt>
      <trkpt lat="40.453967" lon="-5.261833">
        <ele>2318.0</ele>
        <time>2018-08-13T11:57:52Z</time>
      </trkpt>
      <trkpt lat="40.454033" lon="-5.261733">
        <ele>2317.0</ele>
        <time>2018-08-13T11:57:53Z</time>
      </trkpt>
      <trkpt lat="40.454117" lon="-5.261650">
        <ele>2316.0</ele>
        <time>2018-08-13T11:57:54Z</time>
      </trkpt>
      <trkpt lat="40.454183" lon="-5.261583">
        <ele>2316.0</ele>
        <time>2018-08-13T11:57:55Z</time>
      </trkpt>
      <trkpt lat="40.454250" lon="-5.261550">
        <ele>2317.0</ele>
        <time>2018-08-13T11:57:56Z</time>
      </trkpt>
      <trkpt lat="40.454317" lon="-5.261517">
        <ele>2317.0</ele>
        <time>2018-08-13T11:57:57Z</time>
      </trkpt>
      <trkpt lat="40.454383" lon="-5.261483">
        <ele>2318.0</ele>
        <time>2018-08-13T11:57:58Z</time>
      </trkpt>
      <trkpt lat="40.454450" lon="-5.261467">
        <ele>2318.0</ele>
        <time>2018-08-13T11:57:59Z</time>
      </trkpt>
      <trkpt lat="40.454517" lon="-5.261450">
        <ele>2317.0</ele>
        <time>2018-08-13T11:58:00Z</time>
      </trkpt>
      <trkpt lat="40.454567" lon="-5.261467">
        <ele>2316.0</ele>
        <time>2018-08-13T11:58:01Z</time>
      </trkpt>
      <trkpt lat="40.454600" lon="-5.261500">
        <ele>2315.0</ele>
        <time>2018-08-13T11:58:02Z</time>
      </trkpt>
      <trkpt lat="40.454633" lon="-5.261567">
        <ele>2314.0</ele>
        <time>2018-08-13T11:58:03Z</time>
      </trkpt>
      <trkpt lat="40.454650" lon="-5.261633">
        <ele>2315.0</ele>
        <time>2018-08-13T11:58:04Z</time>
      </trkpt>
      <trkpt lat="40.454650" lon="-5.261700">
        <ele>2316.0</ele>
        <time>2018-08-13T11:58:05Z</time>
      </trkpt>
      <trkpt lat="40.454633" lon="-5.261750">
        <ele>2316.0</ele>
        <time>2018-08-13T11:58:06Z</time>
      </trkpt>
      <trkpt lat="40.454600" lon="-5.261833">
        <ele>2316.0</ele>
        <time>2018-08-13T11:58:07Z</time>
      </trkpt>
      <trkpt lat="40.454567" lon="-5.261900">
        <ele>2316.0</ele>
        <time>2018-08-13T11:58:08Z</time>
      </trkpt>
      <trkpt lat="40.454500" lon="-5.261967">
        <ele>2316.0</ele>
        <time>2018-08-13T11:58:09Z</time>
      </trkpt>
      <trkpt lat="40.454417" lon="-5.262000">
        <ele>2316.0</ele>
        <time>2018-08-13T11:58:10Z</time>
      </trkpt>
      <trkpt lat="40.454317" lon="-5.262017">
        <ele>2316.0</ele>
        <time>2018-08-13T11:58:11Z</time>
      </trkpt>
      <trkpt lat="40.454217" lon="-5.262000">
        <ele>2315.0</ele>
        <time>2018-08-13T11:58:12Z</time>
      </trkpt>
      <trkpt lat="40.454117" lon="-5.261950">
        <ele>2314.0</ele>
        <time>2018-08-13T11:58:13Z</time>
      </trkpt>
      <trkpt lat="40.454017" lon="-5.261883">
        <ele>2313.0</ele>
        <time>2018-08-13T11:58:14Z</time>
      </trkpt>
      <trkpt lat="40.453917" lon="-5.261800">
        <ele>2312.0</ele>
        <time>2018-08-13T11:58:15Z</time>
      </trkpt>
      <trkpt lat="40.453817" lon="-5.261700">
        <ele>2311.0</ele>
        <time>2018-08-13T11:58:16Z</time>
      </trkpt>
      <trkpt lat="40.453717" lon="-5.261567">
        <ele>2310.0</ele>
        <time>2018-08-13T11:58:17Z</time>
      </trkpt>
      <trkpt lat="40.453650" lon="-5.261417">
        <ele>2309.0</ele>
        <time>2018-08-13T11:58:18Z</time>
      </trkpt>
      <trkpt lat="40.453600" lon="-5.261267">
        <ele>2309.0</ele>
        <time>2018-08-13T11:58:19Z</time>
      </trkpt>
      <trkpt lat="40.453567" lon="-5.261100">
        <ele>2310.0</ele>
        <time>2018-08-13T11:58:20Z</time>
      </trkpt>
      <trkpt lat="40.453567" lon="-5.260933">
        <ele>2311.0</ele>
        <time>2018-08-13T11:58:21Z</time>
      </trkpt>
      <trkpt lat="40.453583" lon="-5.260750">
        <ele>2313.0</ele>
        <time>2018-08-13T11:58:22Z</time>
      </trkpt>
      <trkpt lat="40.453600" lon="-5.260600">
        <ele>2315.0</ele>
        <time>2018-08-13T11:58:23Z</time>
      </trkpt>
      <trkpt lat="40.453633" lon="-5.260450">
        <ele>2317.0</ele>
        <time>2018-08-13T11:58:24Z</time>
      </trkpt>
      <trkpt lat="40.453683" lon="-5.260333">
        <ele>2319.0</ele>
        <time>2018-08-13T11:58:25Z</time>
      </trkpt>
      <trkpt lat="40.453733" lon="-5.260217">
        <ele>2319.0</ele>
        <time>2018-08-13T11:58:26Z</time>
      </trkpt>
      <trkpt lat="40.453783" lon="-5.260100">
        <ele>2318.0</ele>
        <time>2018-08-13T11:58:27Z</time>
      </trkpt>
      <trkpt lat="40.453833" lon="-5.259983">
        <ele>2317.0</ele>
        <time>2018-08-13T11:58:28Z</time>
      </trkpt>
      <trkpt lat="40.453883" lon="-5.259883">
        <ele>2317.0</ele>
        <time>2018-08-13T11:58:29Z</time>
      </trkpt>
      <trkpt lat="40.453933" lon="-5.259783">
        <ele>2316.0</ele>
        <time>2018-08-13T11:58:30Z</time>
      </trkpt>
      <trkpt lat="40.454000" lon="-5.259717">
        <ele>2313.0</ele>
        <time>2018-08-13T11:58:31Z</time>
      </trkpt>
      <trkpt lat="40.454067" lon="-5.259650">
        <ele>2311.0</ele>
        <time>2018-08-13T11:58:32Z</time>
      </trkpt>
      <trkpt lat="40.454133" lon="-5.259583">
        <ele>2308.0</ele>
        <time>2018-08-13T11:58:33Z</time>
      </trkpt>
      <trkpt lat="40.454200" lon="-5.259517">
        <ele>2307.0</ele>
        <time>2018-08-13T11:58:34Z</time>
      </trkpt>
      <trkpt lat="40.454283" lon="-5.259467">
        <ele>2306.0</ele>
        <time>2018-08-13T11:58:35Z</time>
      </trkpt>
      <trkpt lat="40.454350" lon="-5.259417">
        <ele>2306.0</ele>
        <time>2018-08-13T11:58:36Z</time>
      </trkpt>
      <trkpt lat="40.454400" lon="-5.259367">
        <ele>2305.0</ele>
        <time>2018-08-13T11:58:37Z</time>
      </trkpt>
      <trkpt lat="40.454467" lon="-5.259300">
        <ele>2304.0</ele>
        <time>2018-08-13T11:58:38Z</time>
      </trkpt>
      <trkpt lat="40.454517" lon="-5.259250">
        <ele>2302.0</ele>
        <time>2018-08-13T11:58:39Z</time>
      </trkpt>
      <trkpt lat="40.454583" lon="-5.259200">
        <ele>2300.0</ele>
        <time>2018-08-13T11:58:40Z</time>
      </trkpt>
      <trkpt lat="40.454650" lon="-5.259150">
        <ele>2298.0</ele>
        <time>2018-08-13T11:58:41Z</time>
      </trkpt>
      <trkpt lat="40.454717" lon="-5.259083">
        <ele>2297.0</ele>
        <time>2018-08-13T11:58:42Z</time>
      </trkpt>
      <trkpt lat="40.454783" lon="-5.259033">
        <ele>2296.0</ele>
        <time>2018-08-13T11:58:43Z</time>
      </trkpt>
      <trkpt lat="40.454850" lon="-5.258967">
        <ele>2295.0</ele>
        <time>2018-08-13T11:58:44Z</time>
      </trkpt>
      <trkpt lat="40.454917" lon="-5.258883">
        <ele>2294.0</ele>
        <time>2018-08-13T11:58:45Z</time>
      </trkpt>
      <trkpt lat="40.454983" lon="-5.258800">
        <ele>2292.0</ele>
        <time>2018-08-13T11:58:46Z</time>
      </trkpt>
      <trkpt lat="40.455050" lon="-5.258717">
        <ele>2292.0</ele>
        <time>2018-08-13T11:58:47Z</time>
      </trkpt>
      <trkpt lat="40.455117" lon="-5.258633">
        <ele>2291.0</ele>
        <time>2018-08-13T11:58:48Z</time>
      </trkpt>
      <trkpt lat="40.455200" lon="-5.258567">
        <ele>2290.0</ele>
        <time>2018-08-13T11:58:49Z</time>
      </trkpt>
      <trkpt lat="40.455283" lon="-5.258517">
        <ele>2290.0</ele>
        <time>2018-08-13T11:58:50Z</time>
      </trkpt>
      <trkpt lat="40.455350" lon="-5.258450">
        <ele>2289.0</ele>
        <time>2018-08-13T11:58:51Z</time>
      </trkpt>
      <trkpt lat="40.455433" lon="-5.258383">
        <ele>2289.0</ele>
        <time>2018-08-13T11:58:52Z</time>
      </trkpt>
      <trkpt lat="40.455500" lon="-5.258317">
        <ele>2288.0</ele>
        <time>2018-08-13T11:58:53Z</time>
      </trkpt>
      <trkpt lat="40.455567" lon="-5.258233">
        <ele>2287.0</ele>
        <time>2018-08-13T11:58:54Z</time>
      </trkpt>
      <trkpt lat="40.455650" lon="-5.258150">
        <ele>2286.0</ele>
        <time>2018-08-13T11:58:55Z</time>
      </trkpt>
      <trkpt lat="40.455717" lon="-5.258067">
        <ele>2285.0</ele>
        <time>2018-08-13T11:58:56Z</time>
      </trkpt>
      <trkpt lat="40.455783" lon="-5.257983">
        <ele>2284.0</ele>
        <time>2018-08-13T11:58:57Z</time>
      </trkpt>
      <trkpt lat="40.455850" lon="-5.257917">
        <ele>2283.0</ele>
        <time>2018-08-13T11:58:58Z</time>
      </trkpt>
      <trkpt lat="40.455917" lon="-5.257850">
        <ele>2281.0</ele>
        <time>2018-08-13T11:58:59Z</time>
      </trkpt>
      <trkpt lat="40.456000" lon="-5.257783">
        <ele>2280.0</ele>
        <time>2018-08-13T11:59:00Z</time>
      </trkpt>
      <trkpt lat="40.456067" lon="-5.257733">
        <ele>2279.0</ele>
        <time>2018-08-13T11:59:01Z</time>
      </trkpt>
      <trkpt lat="40.456150" lon="-5.257667">
        <ele>2278.0</ele>
        <time>2018-08-13T11:59:02Z</time>
      </trkpt>
      <trkpt lat="40.456233" lon="-5.257617">
        <ele>2278.0</ele>
        <time>2018-08-13T11:59:03Z</time>
      </trkpt>
      <trkpt lat="40.456300" lon="-5.257567">
        <ele>2277.0</ele>
        <time>2018-08-13T11:59:04Z</time>
      </trkpt>
      <trkpt lat="40.456383" lon="-5.257500">
        <ele>2276.0</ele>
        <time>2018-08-13T11:59:05Z</time>
      </trkpt>
      <trkpt lat="40.456467" lon="-5.257450">
        <ele>2274.0</ele>
        <time>2018-08-13T11:59:06Z</time>
      </trkpt>
      <trkpt lat="40.456533" lon="-5.257383">
        <ele>2273.0</ele>
        <time>2018-08-13T11:59:07Z</time>
      </trkpt>
      <trkpt lat="40.456617" lon="-5.257317">
        <ele>2273.0</ele>
        <time>2018-08-13T11:59:08Z</time>
      </trkpt>
      <trkpt lat="40.456683" lon="-5.257267">
        <ele>2273.0</ele>
        <time>2018-08-13T11:59:09Z</time>
      </trkpt>
      <trkpt lat="40.456750" lon="-5.257217">
        <ele>2272.0</ele>
        <time>2018-08-13T11:59:10Z</time>
      </trkpt>
      <trkpt lat="40.456817" lon="-5.257167">
        <ele>2271.0</ele>
        <time>2018-08-13T11:59:11Z</time>
      </trkpt>
      <trkpt lat="40.456900" lon="-5.257117">
        <ele>2270.0</ele>
        <time>2018-08-13T11:59:12Z</time>
      </trkpt>
      <trkpt lat="40.456967" lon="-5.257050">
        <ele>2268.0</ele>
        <time>2018-08-13T11:59:13Z</time>
      </trkpt>
      <trkpt lat="40.457050" lon="-5.256983">
        <ele>2267.0</ele>
        <time>2018-08-13T11:59:14Z</time>
      </trkpt>
      <trkpt lat="40.457133" lon="-5.256917">
        <ele>2266.0</ele>
        <time>2018-08-13T11:59:15Z</time>
      </trkpt>
      <trkpt lat="40.457217" lon="-5.256867">
        <ele>2266.0</ele>
        <time>2018-08-13T11:59:16Z</time>
      </trkpt>
      <trkpt lat="40.457300" lon="-5.256833">
        <ele>2266.0</ele>
        <time>2018-08-13T11:59:17Z</time>
      </trkpt>
      <trkpt lat="40.457367" lon="-5.256783">
        <ele>2265.0</ele>
        <time>2018-08-13T11:59:18Z</time>
      </trkpt>
      <trkpt lat="40.457450" lon="-5.256750">
        <ele>2264.0</ele>
        <time>2018-08-13T11:59:19Z</time>
      </trkpt>
      <trkpt lat="40.457533" lon="-5.256717">
        <ele>2263.0</ele>
        <time>2018-08-13T11:59:20Z</time>
      </trkpt>
      <trkpt lat="40.457617" lon="-5.256667">
        <ele>2263.0</ele>
        <time>2018-08-13T11:59:21Z</time>
      </trkpt>
      <trkpt lat="40.457700" lon="-5.256633">
        <ele>2262.0</ele>
        <time>2018-08-13T11:59:22Z</time>
      </trkpt>
      <trkpt lat="40.457783" lon="-5.256583">
        <ele>2262.0</ele>
        <time>2018-08-13T11:59:23Z</time>
      </trkpt>
      <trkpt lat="40.457867" lon="-5.256550">
        <ele>2262.0</ele>
        <time>2018-08-13T11:59:24Z</time>
      </trkpt>
      <trkpt lat="40.457933" lon="-5.256483">
        <ele>2262.0</ele>
        <time>2018-08-13T11:59:25Z</time>
      </trkpt>
      <trkpt lat="40.458017" lon="-5.256433">
        <ele>2262.0</ele>
        <time>2018-08-13T11:59:26Z</time>
      </trkpt>
      <trkpt lat="40.458100" lon="-5.256383">
        <ele>2262.0</ele>
        <time>2018-08-13T11:59:27Z</time>
      </trkpt>
      <trkpt lat="40.458167" lon="-5.256350">
        <ele>2262.0</ele>
        <time>2018-08-13T11:59:28Z</time>
      </trkpt>
      <trkpt lat="40.458250" lon="-5.256317">
        <ele>2261.0</ele>
        <time>2018-08-13T11:59:29Z</time>
      </trkpt>
      <trkpt lat="40.458333" lon="-5.256283">
        <ele>2261.0</ele>
        <time>2018-08-13T11:59:30Z</time>
      </trkpt>
      <trkpt lat="40.458417" lon="-5.256250">
        <ele>2261.0</ele>
        <time>2018-08-13T11:59:31Z</time>
      </trkpt>
      <trkpt lat="40.458500" lon="-5.256217">
        <ele>2261.0</ele>
        <time>2018-08-13T11:59:32Z</time>
      </trkpt>
      <trkpt lat="40.458583" lon="-5.256200">
        <ele>2261.0</ele>
        <time>2018-08-13T11:59:33Z</time>
      </trkpt>
      <trkpt lat="40.458667" lon="-5.256167">
        <ele>2262.0</ele>
        <time>2018-08-13T11:59:34Z</time>
      </trkpt>
      <trkpt lat="40.458750" lon="-5.256133">
        <ele>2262.0</ele>
        <time>2018-08-13T11:59:35Z</time>
      </trkpt>
      <trkpt lat="40.458833" lon="-5.256100">
        <ele>2262.0</ele>
        <time>2018-08-13T11:59:36Z</time>
      </trkpt>
      <trkpt lat="40.458917" lon="-5.256067">
        <ele>2262.0</ele>
        <time>2018-08-13T11:59:37Z</time>
      </trkpt>
      <trkpt lat="40.459017" lon="-5.256017">
        <ele>2262.0</ele>
        <time>2018-08-13T11:59:38Z</time>
      </trkpt>
      <trkpt lat="40.459100" lon="-5.255967">
        <ele>2263.0</ele>
        <time>2018-08-13T11:59:39Z</time>
      </trkpt>
      <trkpt lat="40.459183" lon="-5.255917">
        <ele>2264.0</ele>
        <time>2018-08-13T11:59:40Z</time>
      </trkpt>
      <trkpt lat="40.459267" lon="-5.255867">
        <ele>2265.0</ele>
        <time>2018-08-13T11:59:41Z</time>
      </trkpt>
      <trkpt lat="40.459333" lon="-5.255800">
        <ele>2266.0</ele>
        <time>2018-08-13T11:59:42Z</time>
      </trkpt>
      <trkpt lat="40.459417" lon="-5.255750">
        <ele>2266.0</ele>
        <time>2018-08-13T11:59:43Z</time>
      </trkpt>
      <trkpt lat="40.459483" lon="-5.255683">
        <ele>2267.0</ele>
        <time>2018-08-13T11:59:44Z</time>
      </trkpt>
      <trkpt lat="40.459567" lon="-5.255600">
        <ele>2267.0</ele>
        <time>2018-08-13T11:59:45Z</time>
      </trkpt>
      <trkpt lat="40.459633" lon="-5.255517">
        <ele>2267.0</ele>
        <time>2018-08-13T11:59:46Z</time>
      </trkpt>
      <trkpt lat="40.459717" lon="-5.255417">
        <ele>2267.0</ele>
        <time>2018-08-13T11:59:47Z</time>
      </trkpt>
      <trkpt lat="40.459800" lon="-5.255333">
        <ele>2267.0</ele>
        <time>2018-08-13T11:59:48Z</time>
      </trkpt>
      <trkpt lat="40.459883" lon="-5.255250">
        <ele>2267.0</ele>
        <time>2018-08-13T11:59:49Z</time>
      </trkpt>
      <trkpt lat="40.459967" lon="-5.255150">
        <ele>2267.0</ele>
        <time>2018-08-13T11:59:50Z</time>
      </trkpt>
      <trkpt lat="40.460033" lon="-5.255083">
        <ele>2266.0</ele>
        <time>2018-08-13T11:59:51Z</time>
      </trkpt>
      <trkpt lat="40.460100" lon="-5.255000">
        <ele>2265.0</ele>
        <time>2018-08-13T11:59:52Z</time>
      </trkpt>
      <trkpt lat="40.460183" lon="-5.254917">
        <ele>2263.0</ele>
        <time>2018-08-13T11:59:53Z</time>
      </trkpt>
      <trkpt lat="40.460267" lon="-5.254833">
        <ele>2261.0</ele>
        <time>2018-08-13T11:59:54Z</time>
      </trkpt>
      <trkpt lat="40.460350" lon="-5.254750">
        <ele>2259.0</ele>
        <time>2018-08-13T11:59:55Z</time>
      </trkpt>
      <trkpt lat="40.460433" lon="-5.254683">
        <ele>2257.0</ele>
        <time>2018-08-13T11:59:56Z</time>
      </trkpt>
      <trkpt lat="40.460517" lon="-5.254600">
        <ele>2256.0</ele>
        <time>2018-08-13T11:59:57Z</time>
      </trkpt>
      <trkpt lat="40.460600" lon="-5.254533">
        <ele>2256.0</ele>
        <time>2018-08-13T11:59:58Z</time>
      </trkpt>
      <trkpt lat="40.460683" lon="-5.254467">
        <ele>2255.0</ele>
        <time>2018-08-13T11:59:59Z</time>
      </trkpt>
      <trkpt lat="40.460767" lon="-5.254383">
        <ele>2255.0</ele>
        <time>2018-08-13T12:00:00Z</time>
      </trkpt>
      <trkpt lat="40.460850" lon="-5.254300">
        <ele>2253.0</ele>
        <time>2018-08-13T12:00:01Z</time>
      </trkpt>
      <trkpt lat="40.460933" lon="-5.254217">
        <ele>2252.0</ele>
        <time>2018-08-13T12:00:02Z</time>
      </trkpt>
      <trkpt lat="40.461000" lon="-5.254133">
        <ele>2251.0</ele>
        <time>2018-08-13T12:00:03Z</time>
      </trkpt>
      <trkpt lat="40.461083" lon="-5.254067">
        <ele>2250.0</ele>
        <time>2018-08-13T12:00:04Z</time>
      </trkpt>
      <trkpt lat="40.461167" lon="-5.253983">
        <ele>2249.0</ele>
        <time>2018-08-13T12:00:05Z</time>
      </trkpt>
      <trkpt lat="40.461250" lon="-5.253900">
        <ele>2249.0</ele>
        <time>2018-08-13T12:00:06Z</time>
      </trkpt>
      <trkpt lat="40.461317" lon="-5.253833">
        <ele>2249.0</ele>
        <time>2018-08-13T12:00:07Z</time>
      </trkpt>
      <trkpt lat="40.461400" lon="-5.253750">
        <ele>2248.0</ele>
        <time>2018-08-13T12:00:08Z</time>
      </trkpt>
      <trkpt lat="40.461467" lon="-5.253683">
        <ele>2247.0</ele>
        <time>2018-08-13T12:00:09Z</time>
      </trkpt>
      <trkpt lat="40.461550" lon="-5.253633">
        <ele>2245.0</ele>
        <time>2018-08-13T12:00:10Z</time>
      </trkpt>
      <trkpt lat="40.461633" lon="-5.253583">
        <ele>2244.0</ele>
        <time>2018-08-13T12:00:11Z</time>
      </trkpt>
      <trkpt lat="40.461733" lon="-5.253533">
        <ele>2243.0</ele>
        <time>2018-08-13T12:00:12Z</time>
      </trkpt>
      <trkpt lat="40.461817" lon="-5.253517">
        <ele>2243.0</ele>
        <time>2018-08-13T12:00:13Z</time>
      </trkpt>
      <trkpt lat="40.461883" lon="-5.253500">
        <ele>2243.0</ele>
        <time>2018-08-13T12:00:14Z</time>
      </trkpt>
      <trkpt lat="40.461967" lon="-5.253483">
        <ele>2243.0</ele>
        <time>2018-08-13T12:00:15Z</time>
      </trkpt>
      <trkpt lat="40.462050" lon="-5.253433">
        <ele>2242.0</ele>
        <time>2018-08-13T12:00:16Z</time>
      </trkpt>
      <trkpt lat="40.462133" lon="-5.253400">
        <ele>2241.0</ele>
        <time>2018-08-13T12:00:17Z</time>
      </trkpt>
      <trkpt lat="40.462217" lon="-5.253333">
        <ele>2240.0</ele>
        <time>2018-08-13T12:00:18Z</time>
      </trkpt>
      <trkpt lat="40.462300" lon="-5.253283">
        <ele>2239.0</ele>
        <time>2018-08-13T12:00:19Z</time>
      </trkpt>
      <trkpt lat="40.462383" lon="-5.253233">
        <ele>2238.0</ele>
        <time>2018-08-13T12:00:20Z</time>
      </trkpt>
      <trkpt lat="40.462467" lon="-5.253200">
        <ele>2238.0</ele>
        <time>2018-08-13T12:00:21Z</time>
      </trkpt>
      <trkpt lat="40.462533" lon="-5.253167">
        <ele>2237.0</ele>
        <time>2018-08-13T12:00:22Z</time>
      </trkpt>
      <trkpt lat="40.462600" lon="-5.253133">
        <ele>2236.0</ele>
        <time>2018-08-13T12:00:23Z</time>
      </trkpt>
      <trkpt lat="40.462683" lon="-5.253100">
        <ele>2234.0</ele>
        <time>2018-08-13T12:00:24Z</time>
      </trkpt>
      <trkpt lat="40.462750" lon="-5.253100">
        <ele>2232.0</ele>
        <time>2018-08-13T12:00:25Z</time>
      </trkpt>
      <trkpt lat="40.462833" lon="-5.253083">
        <ele>2230.0</ele>
        <time>2018-08-13T12:00:26Z</time>
      </trkpt>
      <trkpt lat="40.462933" lon="-5.253067">
        <ele>2229.0</ele>
        <time>2018-08-13T12:00:27Z</time>
      </trkpt>
      <trkpt lat="40.463033" lon="-5.253067">
        <ele>2228.0</ele>
        <time>2018-08-13T12:00:28Z</time>
      </trkpt>
      <trkpt lat="40.463117" lon="-5.253050">
        <ele>2228.0</ele>
        <time>2018-08-13T12:00:29Z</time>
      </trkpt>
      <trkpt lat="40.463217" lon="-5.253033">
        <ele>2230.0</ele>
        <time>2018-08-13T12:00:30Z</time>
      </trkpt>
      <trkpt lat="40.463300" lon="-5.253000">
        <ele>2231.0</ele>
        <time>2018-08-13T12:00:31Z</time>
      </trkpt>
      <trkpt lat="40.463367" lon="-5.252983">
        <ele>2233.0</ele>
        <time>2018-08-13T12:00:32Z</time>
      </trkpt>
      <trkpt lat="40.463450" lon="-5.252967">
        <ele>2234.0</ele>
        <time>2018-08-13T12:00:33Z</time>
      </trkpt>
      <trkpt lat="40.463517" lon="-5.252933">
        <ele>2235.0</ele>
        <time>2018-08-13T12:00:34Z</time>
      </trkpt>
      <trkpt lat="40.463600" lon="-5.252933">
        <ele>2236.0</ele>
        <time>2018-08-13T12:00:35Z</time>
      </trkpt>
      <trkpt lat="40.463683" lon="-5.252917">
        <ele>2237.0</ele>
        <time>2018-08-13T12:00:36Z</time>
      </trkpt>
      <trkpt lat="40.463767" lon="-5.252883">
        <ele>2239.0</ele>
        <time>2018-08-13T12:00:37Z</time>
      </trkpt>
      <trkpt lat="40.463850" lon="-5.252833">
        <ele>2240.0</ele>
        <time>2018-08-13T12:00:38Z</time>
      </trkpt>
      <trkpt lat="40.463933" lon="-5.252750">
        <ele>2241.0</ele>
        <time>2018-08-13T12:00:39Z</time>
      </trkpt>
      <trkpt lat="40.464000" lon="-5.252650">
        <ele>2241.0</ele>
        <time>2018-08-13T12:00:40Z</time>
      </trkpt>
      <trkpt lat="40.464067" lon="-5.252533">
        <ele>2242.0</ele>
        <time>2018-08-13T12:00:41Z</time>
      </trkpt>
      <trkpt lat="40.464133" lon="-5.252417">
        <ele>2242.0</ele>
        <time>2018-08-13T12:00:42Z</time>
      </trkpt>
      <trkpt lat="40.464183" lon="-5.252317">
        <ele>2242.0</ele>
        <time>2018-08-13T12:00:43Z</time>
      </trkpt>
      <trkpt lat="40.464267" lon="-5.252233">
        <ele>2241.0</ele>
        <time>2018-08-13T12:00:44Z</time>
      </trkpt>
      <trkpt lat="40.464367" lon="-5.252150">
        <ele>2239.0</ele>
        <time>2018-08-13T12:00:45Z</time>
      </trkpt>
      <trkpt lat="40.464467" lon="-5.252100">
        <ele>2238.0</ele>
        <time>2018-08-13T12:00:46Z</time>
      </trkpt>
      <trkpt lat="40.464567" lon="-5.252067">
        <ele>2239.0</ele>
        <time>2018-08-13T12:00:47Z</time>
      </trkpt>
      <trkpt lat="40.464650" lon="-5.252033">
        <ele>2239.0</ele>
        <time>2018-08-13T12:00:48Z</time>
      </trkpt>
      <trkpt lat="40.464733" lon="-5.252017">
        <ele>2238.0</ele>
        <time>2018-08-13T12:00:49Z</time>
      </trkpt>
      <trkpt lat="40.464817" lon="-5.252000">
        <ele>2238.0</ele>
        <time>2018-08-13T12:00:50Z</time>
      </trkpt>
      <trkpt lat="40.464900" lon="-5.252017">
        <ele>2237.0</ele>
        <time>2018-08-13T12:00:51Z</time>
      </trkpt>
      <trkpt lat="40.464983" lon="-5.252050">
        <ele>2235.0</ele>
        <time>2018-08-13T12:00:52Z</time>
      </trkpt>
      <trkpt lat="40.465050" lon="-5.252100">
        <ele>2235.0</ele>
        <time>2018-08-13T12:00:53Z</time>
      </trkpt>
      <trkpt lat="40.465133" lon="-5.252133">
        <ele>2235.0</ele>
        <time>2018-08-13T12:00:54Z</time>
      </trkpt>
      <trkpt lat="40.465200" lon="-5.252150">
        <ele>2235.0</ele>
        <time>2018-08-13T12:00:55Z</time>
      </trkpt>
      <trkpt lat="40.465267" lon="-5.252150">
        <ele>2235.0</ele>
        <time>2018-08-13T12:00:56Z</time>
      </trkpt>
      <trkpt lat="40.465350" lon="-5.252150">
        <ele>2234.0</ele>
        <time>2018-08-13T12:00:57Z</time>
      </trkpt>
      <trkpt lat="40.465417" lon="-5.252117">
        <ele>2234.0</ele>
        <time>2018-08-13T12:00:58Z</time>
      </trkpt>
      <trkpt lat="40.465500" lon="-5.252100">
        <ele>2233.0</ele>
        <time>2018-08-13T12:00:59Z</time>
      </trkpt>
      <trkpt lat="40.465583" lon="-5.252050">
        <ele>2232.0</ele>
        <time>2018-08-13T12:01:00Z</time>
      </trkpt>
      <trkpt lat="40.465683" lon="-5.252000">
        <ele>2231.0</ele>
        <time>2018-08-13T12:01:01Z</time>
      </trkpt>
      <trkpt lat="40.465767" lon="-5.251950">
        <ele>2231.0</ele>
        <time>2018-08-13T12:01:02Z</time>
      </trkpt>
      <trkpt lat="40.465850" lon="-5.251900">
        <ele>2230.0</ele>
        <time>2018-08-13T12:01:03Z</time>
      </trkpt>
      <trkpt lat="40.465933" lon="-5.251833">
        <ele>2230.0</ele>
        <time>2018-08-13T12:01:04Z</time>
      </trkpt>
      <trkpt lat="40.466017" lon="-5.251783">
        <ele>2228.0</ele>
        <time>2018-08-13T12:01:05Z</time>
      </trkpt>
      <trkpt lat="40.466100" lon="-5.251733">
        <ele>2227.0</ele>
        <time>2018-08-13T12:01:06Z</time>
      </trkpt>
      <trkpt lat="40.466183" lon="-5.251667">
        <ele>2226.0</ele>
        <time>2018-08-13T12:01:07Z</time>
      </trkpt>
      <trkpt lat="40.466283" lon="-5.251633">
        <ele>2224.0</ele>
        <time>2018-08-13T12:01:08Z</time>
      </trkpt>
      <trkpt lat="40.466367" lon="-5.251583">
        <ele>2223.0</ele>
        <time>2018-08-13T12:01:09Z</time>
      </trkpt>
      <trkpt lat="40.466450" lon="-5.251517">
        <ele>2222.0</ele>
        <time>2018-08-13T12:01:10Z</time>
      </trkpt>
      <trkpt lat="40.466533" lon="-5.251450">
        <ele>2221.0</ele>
        <time>2018-08-13T12:01:11Z</time>
      </trkpt>
      <trkpt lat="40.466617" lon="-5.251383">
        <ele>2219.0</ele>
        <time>2018-08-13T12:01:12Z</time>
      </trkpt>
      <trkpt lat="40.466683" lon="-5.251317">
        <ele>2218.0</ele>
        <time>2018-08-13T12:01:13Z</time>
      </trkpt>
      <trkpt lat="40.466767" lon="-5.251250">
        <ele>2216.0</ele>
        <time>2018-08-13T12:01:14Z</time>
      </trkpt>
      <trkpt lat="40.466833" lon="-5.251200">
        <ele>2215.0</ele>
        <time>2018-08-13T12:01:15Z</time>
      </trkpt>
      <trkpt lat="40.466917" lon="-5.251150">
        <ele>2214.0</ele>
        <time>2018-08-13T12:01:16Z</time>
      </trkpt>
      <trkpt lat="40.467000" lon="-5.251117">
        <ele>2213.0</ele>
        <time>2018-08-13T12:01:17Z</time>
      </trkpt>
      <trkpt lat="40.467083" lon="-5.251083">
        <ele>2211.0</ele>
        <time>2018-08-13T12:01:18Z</time>
      </trkpt>
      <trkpt lat="40.467167" lon="-5.251050">
        <ele>2210.0</ele>
        <time>2018-08-13T12:01:19Z</time>
      </trkpt>
      <trkpt lat="40.467233" lon="-5.251017">
        <ele>2209.0</ele>
        <time>2018-08-13T12:01:20Z</time>
      </trkpt>
      <trkpt lat="40.467317" lon="-5.250983">
        <ele>2209.0</ele>
        <time>2018-08-13T12:01:21Z</time>
      </trkpt>
      <trkpt lat="40.467400" lon="-5.250950">
        <ele>2208.0</ele>
        <time>2018-08-13T12:01:22Z</time>
      </trkpt>
      <trkpt lat="40.467467" lon="-5.250900">
        <ele>2207.0</ele>
        <time>2018-08-13T12:01:23Z</time>
      </trkpt>
      <trkpt lat="40.467550" lon="-5.250850">
        <ele>2205.0</ele>
        <time>2018-08-13T12:01:24Z</time>
      </trkpt>
      <trkpt lat="40.467633" lon="-5.250817">
        <ele>2204.0</ele>
        <time>2018-08-13T12:01:25Z</time>
      </trkpt>
      <trkpt lat="40.467700" lon="-5.250800">
        <ele>2203.0</ele>
        <time>2018-08-13T12:01:26Z</time>
      </trkpt>
      <trkpt lat="40.467783" lon="-5.250767">
        <ele>2203.0</ele>
        <time>2018-08-13T12:01:27Z</time>
      </trkpt>
      <trkpt lat="40.467867" lon="-5.250750">
        <ele>2201.0</ele>
        <time>2018-08-13T12:01:28Z</time>
      </trkpt>
      <trkpt lat="40.467950" lon="-5.250717">
        <ele>2200.0</ele>
        <time>2018-08-13T12:01:29Z</time>
      </trkpt>
      <trkpt lat="40.468033" lon="-5.250700">
        <ele>2198.0</ele>
        <time>2018-08-13T12:01:30Z</time>
      </trkpt>
      <trkpt lat="40.468117" lon="-5.250667">
        <ele>2197.0</ele>
        <time>2018-08-13T12:01:31Z</time>
      </trkpt>
      <trkpt lat="40.468217" lon="-5.250633">
        <ele>2196.0</ele>
        <time>2018-08-13T12:01:32Z</time>
      </trkpt>
      <trkpt lat="40.468317" lon="-5.250583">
        <ele>2196.0</ele>
        <time>2018-08-13T12:01:33Z</time>
      </trkpt>
      <trkpt lat="40.468400" lon="-5.250533">
        <ele>2197.0</ele>
        <time>2018-08-13T12:01:34Z</time>
      </trkpt>
      <trkpt lat="40.468483" lon="-5.250467">
        <ele>2197.0</ele>
        <time>2018-08-13T12:01:35Z</time>
      </trkpt>
      <trkpt lat="40.468583" lon="-5.250400">
        <ele>2198.0</ele>
        <time>2018-08-13T12:01:36Z</time>
      </trkpt>
      <trkpt lat="40.468667" lon="-5.250333">
        <ele>2198.0</ele>
        <time>2018-08-13T12:01:37Z</time>
      </trkpt>
      <trkpt lat="40.468767" lon="-5.250267">
        <ele>2199.0</ele>
        <time>2018-08-13T12:01:38Z</time>
      </trkpt>
      <trkpt lat="40.468867" lon="-5.250183">
        <ele>2199.0</ele>
        <time>2018-08-13T12:01:39Z</time>
      </trkpt>
      <trkpt lat="40.468950" lon="-5.250100">
        <ele>2200.0</ele>
        <time>2018-08-13T12:01:40Z</time>
      </trkpt>
      <trkpt lat="40.469033" lon="-5.250000">
        <ele>2202.0</ele>
        <time>2018-08-13T12:01:41Z</time>
      </trkpt>
      <trkpt lat="40.469117" lon="-5.249900">
        <ele>2205.0</ele>
        <time>2018-08-13T12:01:42Z</time>
      </trkpt>
      <trkpt lat="40.469183" lon="-5.249800">
        <ele>2208.0</ele>
        <time>2018-08-13T12:01:43Z</time>
      </trkpt>
      <trkpt lat="40.469250" lon="-5.249700">
        <ele>2210.0</ele>
        <time>2018-08-13T12:01:44Z</time>
      </trkpt>
      <trkpt lat="40.469300" lon="-5.249617">
        <ele>2211.0</ele>
        <time>2018-08-13T12:01:45Z</time>
      </trkpt>
      <trkpt lat="40.469350" lon="-5.249500">
        <ele>2210.0</ele>
        <time>2018-08-13T12:01:46Z</time>
      </trkpt>
      <trkpt lat="40.469367" lon="-5.249367">
        <ele>2209.0</ele>
        <time>2018-08-13T12:01:47Z</time>
      </trkpt>
      <trkpt lat="40.469400" lon="-5.249200">
        <ele>2207.0</ele>
        <time>2018-08-13T12:01:48Z</time>
      </trkpt>
      <trkpt lat="40.469400" lon="-5.249033">
        <ele>2207.0</ele>
        <time>2018-08-13T12:01:49Z</time>
      </trkpt>
      <trkpt lat="40.469350" lon="-5.248883">
        <ele>2207.0</ele>
        <time>2018-08-13T12:01:50Z</time>
      </trkpt>
      <trkpt lat="40.469283" lon="-5.248733">
        <ele>2207.0</ele>
        <time>2018-08-13T12:01:51Z</time>
      </trkpt>
      <trkpt lat="40.469183" lon="-5.248617">
        <ele>2207.0</ele>
        <time>2018-08-13T12:01:52Z</time>
      </trkpt>
      <trkpt lat="40.469083" lon="-5.248533">
        <ele>2208.0</ele>
        <time>2018-08-13T12:01:53Z</time>
      </trkpt>
      <trkpt lat="40.468983" lon="-5.248467">
        <ele>2210.0</ele>
        <time>2018-08-13T12:01:54Z</time>
      </trkpt>
      <trkpt lat="40.468900" lon="-5.248417">
        <ele>2212.0</ele>
        <time>2018-08-13T12:01:55Z</time>
      </trkpt>
      <trkpt lat="40.468800" lon="-5.248417">
        <ele>2212.0</ele>
        <time>2018-08-13T12:01:56Z</time>
      </trkpt>
      <trkpt lat="40.468717" lon="-5.248433">
        <ele>2213.0</ele>
        <time>2018-08-13T12:01:57Z</time>
      </trkpt>
      <trkpt lat="40.468633" lon="-5.248483">
        <ele>2215.0</ele>
        <time>2018-08-13T12:01:58Z</time>
      </trkpt>
      <trkpt lat="40.468567" lon="-5.248533">
        <ele>2216.0</ele>
        <time>2018-08-13T12:01:59Z</time>
      </trkpt>
      <trkpt lat="40.468517" lon="-5.248600">
        <ele>2218.0</ele>
        <time>2018-08-13T12:02:00Z</time>
      </trkpt>
      <trkpt lat="40.468467" lon="-5.248667">
        <ele>2219.0</ele>
        <time>2018-08-13T12:02:01Z</time>
      </trkpt>
      <trkpt lat="40.468450" lon="-5.248717">
        <ele>2220.0</ele>
        <time>2018-08-13T12:02:02Z</time>
      </trkpt>
      <trkpt lat="40.468450" lon="-5.248783">
        <ele>2221.0</ele>
        <time>2018-08-13T12:02:03Z</time>
      </trkpt>
      <trkpt lat="40.468467" lon="-5.248867">
        <ele>2221.0</ele>
        <time>2018-08-13T12:02:04Z</time>
      </trkpt>
      <trkpt lat="40.468483" lon="-5.248933">
        <ele>2221.0</ele>
        <time>2018-08-13T12:02:05Z</time>
      </trkpt>
      <trkpt lat="40.468517" lon="-5.249000">
        <ele>2222.0</ele>
        <time>2018-08-13T12:02:06Z</time>
      </trkpt>
      <trkpt lat="40.468583" lon="-5.249033">
        <ele>2223.0</ele>
        <time>2018-08-13T12:02:07Z</time>
      </trkpt>
      <trkpt lat="40.468650" lon="-5.249050">
        <ele>2223.0</ele>
        <time>2018-08-13T12:02:08Z</time>
      </trkpt>
      <trkpt lat="40.468750" lon="-5.249033">
        <ele>2223.0</ele>
        <time>2018-08-13T12:02:09Z</time>
      </trkpt>
      <trkpt lat="40.468833" lon="-5.249017">
        <ele>2224.0</ele>
        <time>2018-08-13T12:02:10Z</time>
      </trkpt>
      <trkpt lat="40.468917" lon="-5.249000">
        <ele>2226.0</ele>
        <time>2018-08-13T12:02:11Z</time>
      </trkpt>
      <trkpt lat="40.469000" lon="-5.248950">
        <ele>2228.0</ele>
        <time>2018-08-13T12:02:12Z</time>
      </trkpt>
      <trkpt lat="40.469083" lon="-5.248883">
        <ele>2229.0</ele>
        <time>2018-08-13T12:02:13Z</time>
      </trkpt>
      <trkpt lat="40.469167" lon="-5.248817">
        <ele>2229.0</ele>
        <time>2018-08-13T12:02:14Z</time>
      </trkpt>
      <trkpt lat="40.469233" lon="-5.248733">
        <ele>2228.0</ele>
        <time>2018-08-13T12:02:15Z</time>
      </trkpt>
      <trkpt lat="40.469317" lon="-5.248683">
        <ele>2227.0</ele>
        <time>2018-08-13T12:02:16Z</time>
      </trkpt>
      <trkpt lat="40.469400" lon="-5.248633">
        <ele>2226.0</ele>
        <time>2018-08-13T12:02:17Z</time>
      </trkpt>
      <trkpt lat="40.469483" lon="-5.248567">
        <ele>2225.0</ele>
        <time>2018-08-13T12:02:18Z</time>
      </trkpt>
      <trkpt lat="40.469567" lon="-5.248500">
        <ele>2223.0</ele>
        <time>2018-08-13T12:02:19Z</time>
      </trkpt>
      <trkpt lat="40.469667" lon="-5.248433">
        <ele>2221.0</ele>
        <time>2018-08-13T12:02:20Z</time>
      </trkpt>
      <trkpt lat="40.469750" lon="-5.248350">
        <ele>2219.0</ele>
        <time>2018-08-13T12:02:21Z</time>
      </trkpt>
      <trkpt lat="40.469833" lon="-5.248267">
        <ele>2217.0</ele>
        <time>2018-08-13T12:02:22Z</time>
      </trkpt>
      <trkpt lat="40.469917" lon="-5.248183">
        <ele>2215.0</ele>
        <time>2018-08-13T12:02:23Z</time>
      </trkpt>
      <trkpt lat="40.470000" lon="-5.248117">
        <ele>2213.0</ele>
        <time>2018-08-13T12:02:24Z</time>
      </trkpt>
      <trkpt lat="40.470100" lon="-5.248033">
        <ele>2211.0</ele>
        <time>2018-08-13T12:02:25Z</time>
      </trkpt>
      <trkpt lat="40.470183" lon="-5.247950">
        <ele>2209.0</ele>
        <time>2018-08-13T12:02:26Z</time>
      </trkpt>
      <trkpt lat="40.470283" lon="-5.247867">
        <ele>2208.0</ele>
        <time>2018-08-13T12:02:27Z</time>
      </trkpt>
      <trkpt lat="40.470367" lon="-5.247783">
        <ele>2207.0</ele>
        <time>2018-08-13T12:02:28Z</time>
      </trkpt>
      <trkpt lat="40.470450" lon="-5.247717">
        <ele>2207.0</ele>
        <time>2018-08-13T12:02:29Z</time>
      </trkpt>
      <trkpt lat="40.470517" lon="-5.247650">
        <ele>2206.0</ele>
        <time>2018-08-13T12:02:30Z</time>
      </trkpt>
      <trkpt lat="40.470600" lon="-5.247567">
        <ele>2205.0</ele>
        <time>2018-08-13T12:02:31Z</time>
      </trkpt>
      <trkpt lat="40.470683" lon="-5.247500">
        <ele>2204.0</ele>
        <time>2018-08-13T12:02:32Z</time>
      </trkpt>
      <trkpt lat="40.470767" lon="-5.247400">
        <ele>2203.0</ele>
        <time>2018-08-13T12:02:33Z</time>
      </trkpt>
      <trkpt lat="40.470833" lon="-5.247317">
        <ele>2202.0</ele>
        <time>2018-08-13T12:02:34Z</time>
      </trkpt>
      <trkpt lat="40.470917" lon="-5.247233">
        <ele>2201.0</ele>
        <time>2018-08-13T12:02:35Z</time>
      </trkpt>
      <trkpt lat="40.471000" lon="-5.247167">
        <ele>2199.0</ele>
        <time>2018-08-13T12:02:36Z</time>
      </trkpt>
      <trkpt lat="40.471083" lon="-5.247083">
        <ele>2198.0</ele>
        <time>2018-08-13T12:02:37Z</time>
      </trkpt>
      <trkpt lat="40.471167" lon="-5.247000">
        <ele>2197.0</ele>
        <time>2018-08-13T12:02:38Z</time>
      </trkpt>
      <trkpt lat="40.471250" lon="-5.246900">
        <ele>2195.0</ele>
        <time>2018-08-13T12:02:39Z</time>
      </trkpt>
      <trkpt lat="40.471333" lon="-5.246817">
        <ele>2194.0</ele>
        <time>2018-08-13T12:02:40Z</time>
      </trkpt>
      <trkpt lat="40.471433" lon="-5.246717">
        <ele>2193.0</ele>
        <time>2018-08-13T12:02:41Z</time>
      </trkpt>
      <trkpt lat="40.471517" lon="-5.246617">
        <ele>2192.0</ele>
        <time>2018-08-13T12:02:42Z</time>
      </trkpt>
      <trkpt lat="40.471600" lon="-5.246533">
        <ele>2191.0</ele>
        <time>2018-08-13T12:02:43Z</time>
      </trkpt>
      <trkpt lat="40.471683" lon="-5.246450">
        <ele>2191.0</ele>
        <time>2018-08-13T12:02:44Z</time>
      </trkpt>
      <trkpt lat="40.471783" lon="-5.246383">
        <ele>2190.0</ele>
        <time>2018-08-13T12:02:45Z</time>
      </trkpt>
      <trkpt lat="40.471867" lon="-5.246300">
        <ele>2190.0</ele>
        <time>2018-08-13T12:02:46Z</time>
      </trkpt>
      <trkpt lat="40.471950" lon="-5.246200">
        <ele>2189.0</ele>
        <time>2018-08-13T12:02:47Z</time>
      </trkpt>
      <trkpt lat="40.472033" lon="-5.246117">
        <ele>2188.0</ele>
        <time>2018-08-13T12:02:48Z</time>
      </trkpt>
      <trkpt lat="40.472117" lon="-5.246017">
        <ele>2187.0</ele>
        <time>2018-08-13T12:02:49Z</time>
      </trkpt>
      <trkpt lat="40.472200" lon="-5.245933">
        <ele>2185.0</ele>
        <time>2018-08-13T12:02:50Z</time>
      </trkpt>
      <trkpt lat="40.472267" lon="-5.245850">
        <ele>2183.0</ele>
        <time>2018-08-13T12:02:51Z</time>
      </trkpt>
      <trkpt lat="40.472350" lon="-5.245783">
        <ele>2180.0</ele>
        <time>2018-08-13T12:02:52Z</time>
      </trkpt>
      <trkpt lat="40.472450" lon="-5.245700">
        <ele>2177.0</ele>
        <time>2018-08-13T12:02:53Z</time>
      </trkpt>
      <trkpt lat="40.472550" lon="-5.245633">
        <ele>2174.0</ele>
        <time>2018-08-13T12:02:54Z</time>
      </trkpt>
      <trkpt lat="40.472650" lon="-5.245583">
        <ele>2170.0</ele>
        <time>2018-08-13T12:02:55Z</time>
      </trkpt>
      <trkpt lat="40.472750" lon="-5.245500">
        <ele>2167.0</ele>
        <time>2018-08-13T12:02:56Z</time>
      </trkpt>
      <trkpt lat="40.472833" lon="-5.245433">
        <ele>2164.0</ele>
        <time>2018-08-13T12:02:57Z</time>
      </trkpt>
      <trkpt lat="40.472917" lon="-5.245367">
        <ele>2162.0</ele>
        <time>2018-08-13T12:02:58Z</time>
      </trkpt>
      <trkpt lat="40.473000" lon="-5.245300">
        <ele>2159.0</ele>
        <time>2018-08-13T12:02:59Z</time>
      </trkpt>
      <trkpt lat="40.473083" lon="-5.245233">
        <ele>2156.0</ele>
        <time>2018-08-13T12:03:00Z</time>
      </trkpt>
      <trkpt lat="40.473167" lon="-5.245200">
        <ele>2153.0</ele>
        <time>2018-08-13T12:03:01Z</time>
      </trkpt>
      <trkpt lat="40.473250" lon="-5.245150">
        <ele>2149.0</ele>
        <time>2018-08-13T12:03:02Z</time>
      </trkpt>
      <trkpt lat="40.473333" lon="-5.245100">
        <ele>2145.0</ele>
        <time>2018-08-13T12:03:03Z</time>
      </trkpt>
      <trkpt lat="40.473417" lon="-5.245050">
        <ele>2141.0</ele>
        <time>2018-08-13T12:03:04Z</time>
      </trkpt>
      <trkpt lat="40.473517" lon="-5.245000">
        <ele>2137.0</ele>
        <time>2018-08-13T12:03:05Z</time>
      </trkpt>
      <trkpt lat="40.473617" lon="-5.244950">
        <ele>2135.0</ele>
        <time>2018-08-13T12:03:06Z</time>
      </trkpt>
      <trkpt lat="40.473700" lon="-5.244933">
        <ele>2133.0</ele>
        <time>2018-08-13T12:03:07Z</time>
      </trkpt>
      <trkpt lat="40.473750" lon="-5.244900">
        <ele>2132.0</ele>
        <time>2018-08-13T12:03:08Z</time>
      </trkpt>
      <trkpt lat="40.473817" lon="-5.244883">
        <ele>2130.0</ele>
        <time>2018-08-13T12:03:09Z</time>
      </trkpt>
      <trkpt lat="40.473867" lon="-5.244833">
        <ele>2128.0</ele>
        <time>2018-08-13T12:03:10Z</time>
      </trkpt>
      <trkpt lat="40.473917" lon="-5.244800">
        <ele>2125.0</ele>
        <time>2018-08-13T12:03:11Z</time>
      </trkpt>
      <trkpt lat="40.473983" lon="-5.244783">
        <ele>2121.0</ele>
        <time>2018-08-13T12:03:12Z</time>
      </trkpt>
      <trkpt lat="40.474050" lon="-5.244750">
        <ele>2117.0</ele>
        <time>2018-08-13T12:03:13Z</time>
      </trkpt>
      <trkpt lat="40.474117" lon="-5.244733">
        <ele>2114.0</ele>
        <time>2018-08-13T12:03:14Z</time>
      </trkpt>
      <trkpt lat="40.474200" lon="-5.244700">
        <ele>2111.0</ele>
        <time>2018-08-13T12:03:15Z</time>
      </trkpt>
      <trkpt lat="40.474267" lon="-5.244683">
        <ele>2109.0</ele>
        <time>2018-08-13T12:03:16Z</time>
      </trkpt>
      <trkpt lat="40.474333" lon="-5.244650">
        <ele>2106.0</ele>
        <time>2018-08-13T12:03:17Z</time>
      </trkpt>
      <trkpt lat="40.474417" lon="-5.244617">
        <ele>2103.0</ele>
        <time>2018-08-13T12:03:18Z</time>
      </trkpt>
      <trkpt lat="40.474483" lon="-5.244583">
        <ele>2100.0</ele>
        <time>2018-08-13T12:03:19Z</time>
      </trkpt>
      <trkpt lat="40.474550" lon="-5.244567">
        <ele>2096.0</ele>
        <time>2018-08-13T12:03:20Z</time>
      </trkpt>
      <trkpt lat="40.474633" lon="-5.244567">
        <ele>2093.0</ele>
        <time>2018-08-13T12:03:21Z</time>
      </trkpt>
      <trkpt lat="40.474717" lon="-5.244567">
        <ele>2089.0</ele>
        <time>2018-08-13T12:03:22Z</time>
      </trkpt>
      <trkpt lat="40.474817" lon="-5.244583">
        <ele>2087.0</ele>
        <time>2018-08-13T12:03:23Z</time>
      </trkpt>
      <trkpt lat="40.474900" lon="-5.244600">
        <ele>2085.0</ele>
        <time>2018-08-13T12:03:24Z</time>
      </trkpt>
      <trkpt lat="40.474983" lon="-5.244600">
        <ele>2084.0</ele>
        <time>2018-08-13T12:03:25Z</time>
      </trkpt>
      <trkpt lat="40.475050" lon="-5.244600">
        <ele>2084.0</ele>
        <time>2018-08-13T12:03:26Z</time>
      </trkpt>
      <trkpt lat="40.475117" lon="-5.244600">
        <ele>2083.0</ele>
        <time>2018-08-13T12:03:27Z</time>
      </trkpt>
      <trkpt lat="40.475183" lon="-5.244600">
        <ele>2081.0</ele>
        <time>2018-08-13T12:03:28Z</time>
      </trkpt>
      <trkpt lat="40.475267" lon="-5.244600">
        <ele>2079.0</ele>
        <time>2018-08-13T12:03:29Z</time>
      </trkpt>
      <trkpt lat="40.475350" lon="-5.244600">
        <ele>2078.0</ele>
        <time>2018-08-13T12:03:30Z</time>
      </trkpt>
      <trkpt lat="40.475417" lon="-5.244567">
        <ele>2077.0</ele>
        <time>2018-08-13T12:03:31Z</time>
      </trkpt>
      <trkpt lat="40.475467" lon="-5.244533">
        <ele>2074.0</ele>
        <time>2018-08-13T12:03:32Z</time>
      </trkpt>
      <trkpt lat="40.475517" lon="-5.244533">
        <ele>2071.0</ele>
        <time>2018-08-13T12:03:33Z</time>
      </trkpt>
      <trkpt lat="40.475583" lon="-5.244517">
        <ele>2068.0</ele>
        <time>2018-08-13T12:03:34Z</time>
      </trkpt>
      <trkpt lat="40.475650" lon="-5.244533">
        <ele>2065.0</ele>
        <time>2018-08-13T12:03:35Z</time>
      </trkpt>
      <trkpt lat="40.475733" lon="-5.244533">
        <ele>2063.0</ele>
        <time>2018-08-13T12:03:36Z</time>
      </trkpt>
      <trkpt lat="40.475800" lon="-5.244550">
        <ele>2062.0</ele>
        <time>2018-08-13T12:03:37Z</time>
      </trkpt>
      <trkpt lat="40.475867" lon="-5.244533">
        <ele>2060.0</ele>
        <time>2018-08-13T12:03:38Z</time>
      </trkpt>
      <trkpt lat="40.475933" lon="-5.244517">
        <ele>2059.0</ele>
        <time>2018-08-13T12:03:39Z</time>
      </trkpt>
      <trkpt lat="40.476017" lon="-5.244500">
        <ele>2057.0</ele>
        <time>2018-08-13T12:03:40Z</time>
      </trkpt>
      <trkpt lat="40.476083" lon="-5.244467">
        <ele>2055.0</ele>
        <time>2018-08-13T12:03:41Z</time>
      </trkpt>
      <trkpt lat="40.476150" lon="-5.244450">
        <ele>2053.0</ele>
        <time>2018-08-13T12:03:42Z</time>
      </trkpt>
      <trkpt lat="40.476217" lon="-5.244433">
        <ele>2050.0</ele>
        <time>2018-08-13T12:03:43Z</time>
      </trkpt>
      <trkpt lat="40.476300" lon="-5.244433">
        <ele>2049.0</ele>
        <time>2018-08-13T12:03:44Z</time>
      </trkpt>
      <trkpt lat="40.476367" lon="-5.244450">
        <ele>2047.0</ele>
        <time>2018-08-13T12:03:45Z</time>
      </trkpt>
      <trkpt lat="40.476417" lon="-5.244467">
        <ele>2046.0</ele>
        <time>2018-08-13T12:03:46Z</time>
      </trkpt>
      <trkpt lat="40.476483" lon="-5.244483">
        <ele>2045.0</ele>
        <time>2018-08-13T12:03:47Z</time>
      </trkpt>
      <trkpt lat="40.476550" lon="-5.244500">
        <ele>2043.0</ele>
        <time>2018-08-13T12:03:48Z</time>
      </trkpt>
      <trkpt lat="40.476617" lon="-5.244533">
        <ele>2041.0</ele>
        <time>2018-08-13T12:03:49Z</time>
      </trkpt>
      <trkpt lat="40.476683" lon="-5.244550">
        <ele>2039.0</ele>
        <time>2018-08-13T12:03:50Z</time>
      </trkpt>
      <trkpt lat="40.476750" lon="-5.244583">
        <ele>2037.0</ele>
        <time>2018-08-13T12:03:51Z</time>
      </trkpt>
      <trkpt lat="40.476850" lon="-5.244617">
        <ele>2035.0</ele>
        <time>2018-08-13T12:03:52Z</time>
      </trkpt>
      <trkpt lat="40.476933" lon="-5.244650">
        <ele>2035.0</ele>
        <time>2018-08-13T12:03:53Z</time>
      </trkpt>
      <trkpt lat="40.477033" lon="-5.244683">
        <ele>2035.0</ele>
        <time>2018-08-13T12:03:54Z</time>
      </trkpt>
      <trkpt lat="40.477117" lon="-5.244717">
        <ele>2036.0</ele>
        <time>2018-08-13T12:03:55Z</time>
      </trkpt>
      <trkpt lat="40.477183" lon="-5.244767">
        <ele>2037.0</ele>
        <time>2018-08-13T12:03:56Z</time>
      </trkpt>
      <trkpt lat="40.477233" lon="-5.244800">
        <ele>2038.0</ele>
        <time>2018-08-13T12:03:57Z</time>
      </trkpt>
      <trkpt lat="40.477283" lon="-5.244850">
        <ele>2039.0</ele>
        <time>2018-08-13T12:03:58Z</time>
      </trkpt>
      <trkpt lat="40.477350" lon="-5.244900">
        <ele>2038.0</ele>
        <time>2018-08-13T12:03:59Z</time>
      </trkpt>
      <trkpt lat="40.477433" lon="-5.244933">
        <ele>2037.0</ele>
        <time>2018-08-13T12:04:00Z</time>
      </trkpt>
      <trkpt lat="40.477517" lon="-5.244933">
        <ele>2035.0</ele>
        <time>2018-08-13T12:04:01Z</time>
      </trkpt>
      <trkpt lat="40.477600" lon="-5.244950">
        <ele>2034.0</ele>
        <time>2018-08-13T12:04:02Z</time>
      </trkpt>
      <trkpt lat="40.477683" lon="-5.244950">
        <ele>2035.0</ele>
        <time>2018-08-13T12:04:03Z</time>
      </trkpt>
      <trkpt lat="40.477750" lon="-5.244950">
        <ele>2036.0</ele>
        <time>2018-08-13T12:04:04Z</time>
      </trkpt>
      <trkpt lat="40.477800" lon="-5.244933">
        <ele>2037.0</ele>
        <time>2018-08-13T12:04:05Z</time>
      </trkpt>
      <trkpt lat="40.477867" lon="-5.244917">
        <ele>2037.0</ele>
        <time>2018-08-13T12:04:06Z</time>
      </trkpt>
      <trkpt lat="40.477933" lon="-5.244883">
        <ele>2036.0</ele>
        <time>2018-08-13T12:04:07Z</time>
      </trkpt>
      <trkpt lat="40.478000" lon="-5.244817">
        <ele>2034.0</ele>
        <time>2018-08-13T12:04:08Z</time>
      </trkpt>
      <trkpt lat="40.478083" lon="-5.244767">
        <ele>2034.0</ele>
        <time>2018-08-13T12:04:09Z</time>
      </trkpt>
      <trkpt lat="40.478183" lon="-5.244750">
        <ele>2034.0</ele>
        <time>2018-08-13T12:04:10Z</time>
      </trkpt>
      <trkpt lat="40.478267" lon="-5.244717">
        <ele>2034.0</ele>
        <time>2018-08-13T12:04:11Z</time>
      </trkpt>
      <trkpt lat="40.478333" lon="-5.244683">
        <ele>2034.0</ele>
        <time>2018-08-13T12:04:12Z</time>
      </trkpt>
      <trkpt lat="40.478417" lon="-5.244633">
        <ele>2034.0</ele>
        <time>2018-08-13T12:04:13Z</time>
      </trkpt>
      <trkpt lat="40.478500" lon="-5.244567">
        <ele>2032.0</ele>
        <time>2018-08-13T12:04:14Z</time>
      </trkpt>
      <trkpt lat="40.478600" lon="-5.244483">
        <ele>2030.0</ele>
        <time>2018-08-13T12:04:15Z</time>
      </trkpt>
      <trkpt lat="40.478700" lon="-5.244383">
        <ele>2029.0</ele>
        <time>2018-08-13T12:04:16Z</time>
      </trkpt>
      <trkpt lat="40.478800" lon="-5.244283">
        <ele>2028.0</ele>
        <time>2018-08-13T12:04:17Z</time>
      </trkpt>
      <trkpt lat="40.478900" lon="-5.244200">
        <ele>2028.0</ele>
        <time>2018-08-13T12:04:18Z</time>
      </trkpt>
      <trkpt lat="40.479000" lon="-5.244117">
        <ele>2028.0</ele>
        <time>2018-08-13T12:04:19Z</time>
      </trkpt>
      <trkpt lat="40.479117" lon="-5.244050">
        <ele>2028.0</ele>
        <time>2018-08-13T12:04:20Z</time>
      </trkpt>
      <trkpt lat="40.479233" lon="-5.244000">
        <ele>2029.0</ele>
        <time>2018-08-13T12:04:21Z</time>
      </trkpt>
      <trkpt lat="40.479350" lon="-5.243950">
        <ele>2031.0</ele>
        <time>2018-08-13T12:04:22Z</time>
      </trkpt>
      <trkpt lat="40.479450" lon="-5.243900">
        <ele>2033.0</ele>
        <time>2018-08-13T12:04:23Z</time>
      </trkpt>
      <trkpt lat="40.479550" lon="-5.243850">
        <ele>2035.0</ele>
        <time>2018-08-13T12:04:24Z</time>
      </trkpt>
      <trkpt lat="40.479667" lon="-5.243800">
        <ele>2036.0</ele>
        <time>2018-08-13T12:04:25Z</time>
      </trkpt>
      <trkpt lat="40.479767" lon="-5.243750">
        <ele>2037.0</ele>
        <time>2018-08-13T12:04:26Z</time>
      </trkpt>
      <trkpt lat="40.479883" lon="-5.243700">
        <ele>2038.0</ele>
        <time>2018-08-13T12:04:27Z</time>
      </trkpt>
      <trkpt lat="40.480000" lon="-5.243650">
        <ele>2039.0</ele>
        <time>2018-08-13T12:04:28Z</time>
      </trkpt>
      <trkpt lat="40.480133" lon="-5.243600">
        <ele>2041.0</ele>
        <time>2018-08-13T12:04:29Z</time>
      </trkpt>
      <trkpt lat="40.480233" lon="-5.243550">
        <ele>2044.0</ele>
        <time>2018-08-13T12:04:30Z</time>
      </trkpt>
      <trkpt lat="40.480350" lon="-5.243500">
        <ele>2046.0</ele>
        <time>2018-08-13T12:04:31Z</time>
      </trkpt>
      <trkpt lat="40.480450" lon="-5.243450">
        <ele>2048.0</ele>
        <time>2018-08-13T12:04:32Z</time>
      </trkpt>
      <trkpt lat="40.480550" lon="-5.243383">
        <ele>2050.0</ele>
        <time>2018-08-13T12:04:33Z</time>
      </trkpt>
      <trkpt lat="40.480633" lon="-5.243283">
        <ele>2051.0</ele>
        <time>2018-08-13T12:04:34Z</time>
      </trkpt>
      <trkpt lat="40.480700" lon="-5.243167">
        <ele>2051.0</ele>
        <time>2018-08-13T12:04:35Z</time>
      </trkpt>
      <trkpt lat="40.480750" lon="-5.243000">
        <ele>2050.0</ele>
        <time>2018-08-13T12:04:36Z</time>
      </trkpt>
      <trkpt lat="40.480767" lon="-5.242833">
        <ele>2049.0</ele>
        <time>2018-08-13T12:04:37Z</time>
      </trkpt>
      <trkpt lat="40.480733" lon="-5.242667">
        <ele>2049.0</ele>
        <time>2018-08-13T12:04:38Z</time>
      </trkpt>
      <trkpt lat="40.480683" lon="-5.242517">
        <ele>2049.0</ele>
        <time>2018-08-13T12:04:39Z</time>
      </trkpt>
      <trkpt lat="40.480600" lon="-5.242417">
        <ele>2050.0</ele>
        <time>2018-08-13T12:04:40Z</time>
      </trkpt>
      <trkpt lat="40.480517" lon="-5.242350">
        <ele>2050.0</ele>
        <time>2018-08-13T12:04:41Z</time>
      </trkpt>
      <trkpt lat="40.480433" lon="-5.242317">
        <ele>2051.0</ele>
        <time>2018-08-13T12:04:42Z</time>
      </trkpt>
      <trkpt lat="40.480350" lon="-5.242317">
        <ele>2051.0</ele>
        <time>2018-08-13T12:04:43Z</time>
      </trkpt>
      <trkpt lat="40.480267" lon="-5.242350">
        <ele>2052.0</ele>
        <time>2018-08-13T12:04:44Z</time>
      </trkpt>
      <trkpt lat="40.480200" lon="-5.242400">
        <ele>2053.0</ele>
        <time>2018-08-13T12:04:45Z</time>
      </trkpt>
      <trkpt lat="40.480150" lon="-5.242450">
        <ele>2055.0</ele>
        <time>2018-08-13T12:04:46Z</time>
      </trkpt>
      <trkpt lat="40.480100" lon="-5.242500">
        <ele>2057.0</ele>
        <time>2018-08-13T12:04:47Z</time>
      </trkpt>
      <trkpt lat="40.480067" lon="-5.242567">
        <ele>2059.0</ele>
        <time>2018-08-13T12:04:48Z</time>
      </trkpt>
      <trkpt lat="40.480033" lon="-5.242633">
        <ele>2060.0</ele>
        <time>2018-08-13T12:04:49Z</time>
      </trkpt>
      <trkpt lat="40.480000" lon="-5.242700">
        <ele>2061.0</ele>
        <time>2018-08-13T12:04:50Z</time>
      </trkpt>
      <trkpt lat="40.479983" lon="-5.242783">
        <ele>2063.0</ele>
        <time>2018-08-13T12:04:51Z</time>
      </trkpt>
      <trkpt lat="40.479983" lon="-5.242867">
        <ele>2065.0</ele>
        <time>2018-08-13T12:04:52Z</time>
      </trkpt>
      <trkpt lat="40.480017" lon="-5.242933">
        <ele>2066.0</ele>
        <time>2018-08-13T12:04:53Z</time>
      </trkpt>
      <trkpt lat="40.480067" lon="-5.243017">
        <ele>2068.0</ele>
        <time>2018-08-13T12:04:54Z</time>
      </trkpt>
      <trkpt lat="40.480133" lon="-5.243067">
        <ele>2069.0</ele>
        <time>2018-08-13T12:04:55Z</time>
      </trkpt>
      <trkpt lat="40.480233" lon="-5.243083">
        <ele>2070.0</ele>
        <time>2018-08-13T12:04:56Z</time>
      </trkpt>
      <trkpt lat="40.480317" lon="-5.243067">
        <ele>2071.0</ele>
        <time>2018-08-13T12:04:57Z</time>
      </trkpt>
      <trkpt lat="40.480417" lon="-5.243000">
        <ele>2071.0</ele>
        <time>2018-08-13T12:04:58Z</time>
      </trkpt>
      <trkpt lat="40.480500" lon="-5.242933">
        <ele>2072.0</ele>
        <time>2018-08-13T12:04:59Z</time>
      </trkpt>
      <trkpt lat="40.480583" lon="-5.242817">
        <ele>2073.0</ele>
        <time>2018-08-13T12:05:00Z</time>
      </trkpt>
      <trkpt lat="40.480650" lon="-5.242700">
        <ele>2073.0</ele>
        <time>2018-08-13T12:05:01Z</time>
      </trkpt>
      <trkpt lat="40.480683" lon="-5.242533">
        <ele>2073.0</ele>
        <time>2018-08-13T12:05:02Z</time>
      </trkpt>
      <trkpt lat="40.480667" lon="-5.242367">
        <ele>2074.0</ele>
        <time>2018-08-13T12:05:03Z</time>
      </trkpt>
      <trkpt lat="40.480633" lon="-5.242200">
        <ele>2075.0</ele>
        <time>2018-08-13T12:05:04Z</time>
      </trkpt>
      <trkpt lat="40.480567" lon="-5.242067">
        <ele>2077.0</ele>
        <time>2018-08-13T12:05:05Z</time>
      </trkpt>
      <trkpt lat="40.480500" lon="-5.241950">
        <ele>2078.0</ele>
        <time>2018-08-13T12:05:06Z</time>
      </trkpt>
      <trkpt lat="40.480433" lon="-5.241867">
        <ele>2079.0</ele>
        <time>2018-08-13T12:05:07Z</time>
      </trkpt>
      <trkpt lat="40.480350" lon="-5.241817">
        <ele>2080.0</ele>
        <time>2018-08-13T12:05:08Z</time>
      </trkpt>
      <trkpt lat="40.480267" lon="-5.241783">
        <ele>2080.0</ele>
        <time>2018-08-13T12:05:09Z</time>
      </trkpt>
      <trkpt lat="40.480183" lon="-5.241767">
        <ele>2080.0</ele>
        <time>2018-08-13T12:05:10Z</time>
      </trkpt>
      <trkpt lat="40.480100" lon="-5.241767">
        <ele>2081.0</ele>
        <time>2018-08-13T12:05:11Z</time>
      </trkpt>
      <trkpt lat="40.480017" lon="-5.241783">
        <ele>2083.0</ele>
        <time>2018-08-13T12:05:12Z</time>
      </trkpt>
      <trkpt lat="40.479950" lon="-5.241817">
        <ele>2085.0</ele>
        <time>2018-08-13T12:05:13Z</time>
      </trkpt>
      <trkpt lat="40.479883" lon="-5.241867">
        <ele>2087.0</ele>
        <time>2018-08-13T12:05:14Z</time>
      </trkpt>
      <trkpt lat="40.479850" lon="-5.241900">
        <ele>2088.0</ele>
        <time>2018-08-13T12:05:15Z</time>
      </trkpt>
      <trkpt lat="40.479800" lon="-5.241950">
        <ele>2090.0</ele>
        <time>2018-08-13T12:05:16Z</time>
      </trkpt>
      <trkpt lat="40.479767" lon="-5.242017">
        <ele>2091.0</ele>
        <time>2018-08-13T12:05:17Z</time>
      </trkpt>
      <trkpt lat="40.479733" lon="-5.242067">
        <ele>2091.0</ele>
        <time>2018-08-13T12:05:18Z</time>
      </trkpt>
      <trkpt lat="40.479717" lon="-5.242150">
        <ele>2092.0</ele>
        <time>2018-08-13T12:05:19Z</time>
      </trkpt>
      <trkpt lat="40.479733" lon="-5.242250">
        <ele>2092.0</ele>
        <time>2018-08-13T12:05:20Z</time>
      </trkpt>
      <trkpt lat="40.479750" lon="-5.242333">
        <ele>2093.0</ele>
        <time>2018-08-13T12:05:21Z</time>
      </trkpt>
      <trkpt lat="40.479800" lon="-5.242400">
        <ele>2094.0</ele>
        <time>2018-08-13T12:05:22Z</time>
      </trkpt>
      <trkpt lat="40.479883" lon="-5.242450">
        <ele>2096.0</ele>
        <time>2018-08-13T12:05:23Z</time>
      </trkpt>
      <trkpt lat="40.479967" lon="-5.242467">
        <ele>2096.0</ele>
        <time>2018-08-13T12:05:24Z</time>
      </trkpt>
      <trkpt lat="40.480050" lon="-5.242450">
        <ele>2098.0</ele>
        <time>2018-08-13T12:05:25Z</time>
      </trkpt>
      <trkpt lat="40.480133" lon="-5.242417">
        <ele>2100.0</ele>
        <time>2018-08-13T12:05:26Z</time>
      </trkpt>
      <trkpt lat="40.480217" lon="-5.242367">
        <ele>2101.0</ele>
        <time>2018-08-13T12:05:27Z</time>
      </trkpt>
      <trkpt lat="40.480300" lon="-5.242300">
        <ele>2102.0</ele>
        <time>2018-08-13T12:05:28Z</time>
      </trkpt>
      <trkpt lat="40.480367" lon="-5.242200">
        <ele>2102.0</ele>
        <time>2018-08-13T12:05:29Z</time>
      </trkpt>
      <trkpt lat="40.480433" lon="-5.242083">
        <ele>2102.0</ele>
        <time>2018-08-13T12:05:30Z</time>
      </trkpt>
      <trkpt lat="40.480483" lon="-5.241950">
        <ele>2103.0</ele>
        <time>2018-08-13T12:05:31Z</time>
      </trkpt>
      <trkpt lat="40.480517" lon="-5.241800">
        <ele>2103.0</ele>
        <time>2018-08-13T12:05:32Z</time>
      </trkpt>
      <trkpt lat="40.480517" lon="-5.241650">
        <ele>2104.0</ele>
        <time>2018-08-13T12:05:33Z</time>
      </trkpt>
      <trkpt lat="40.480517" lon="-5.241500">
        <ele>2105.0</ele>
        <time>2018-08-13T12:05:34Z</time>
      </trkpt>
      <trkpt lat="40.480500" lon="-5.241350">
        <ele>2106.0</ele>
        <time>2018-08-13T12:05:35Z</time>
      </trkpt>
      <trkpt lat="40.480483" lon="-5.241217">
        <ele>2107.0</ele>
        <time>2018-08-13T12:05:36Z</time>
      </trkpt>
      <trkpt lat="40.480467" lon="-5.241083">
        <ele>2106.0</ele>
        <time>2018-08-13T12:05:37Z</time>
      </trkpt>
      <trkpt lat="40.480417" lon="-5.240950">
        <ele>2105.0</ele>
        <time>2018-08-13T12:05:38Z</time>
      </trkpt>
      <trkpt lat="40.480350" lon="-5.240817">
        <ele>2104.0</ele>
        <time>2018-08-13T12:05:39Z</time>
      </trkpt>
      <trkpt lat="40.480267" lon="-5.240700">
        <ele>2103.0</ele>
        <time>2018-08-13T12:05:40Z</time>
      </trkpt>
      <trkpt lat="40.480167" lon="-5.240600">
        <ele>2104.0</ele>
        <time>2018-08-13T12:05:41Z</time>
      </trkpt>
      <trkpt lat="40.480083" lon="-5.240500">
        <ele>2105.0</ele>
        <time>2018-08-13T12:05:42Z</time>
      </trkpt>
      <trkpt lat="40.479983" lon="-5.240417">
        <ele>2107.0</ele>
        <time>2018-08-13T12:05:43Z</time>
      </trkpt>
      <trkpt lat="40.479883" lon="-5.240367">
        <ele>2108.0</ele>
        <time>2018-08-13T12:05:44Z</time>
      </trkpt>
      <trkpt lat="40.479783" lon="-5.240317">
        <ele>2110.0</ele>
        <time>2018-08-13T12:05:45Z</time>
      </trkpt>
      <trkpt lat="40.479683" lon="-5.240267">
        <ele>2112.0</ele>
        <time>2018-08-13T12:05:46Z</time>
      </trkpt>
      <trkpt lat="40.479617" lon="-5.240250">
        <ele>2113.0</ele>
        <time>2018-08-13T12:05:47Z</time>
      </trkpt>
      <trkpt lat="40.479533" lon="-5.240250">
        <ele>2113.0</ele>
        <time>2018-08-13T12:05:48Z</time>
      </trkpt>
      <trkpt lat="40.479467" lon="-5.240283">
        <ele>2112.0</ele>
        <time>2018-08-13T12:05:49Z</time>
      </trkpt>
      <trkpt lat="40.479400" lon="-5.240333">
        <ele>2113.0</ele>
        <time>2018-08-13T12:05:50Z</time>
      </trkpt>
      <trkpt lat="40.479333" lon="-5.240383">
        <ele>2114.0</ele>
        <time>2018-08-13T12:05:51Z</time>
      </trkpt>
      <trkpt lat="40.479300" lon="-5.240467">
        <ele>2115.0</ele>
        <time>2018-08-13T12:05:52Z</time>
      </trkpt>
      <trkpt lat="40.479283" lon="-5.240550">
        <ele>2115.0</ele>
        <time>2018-08-13T12:05:53Z</time>
      </trkpt>
      <trkpt lat="40.479300" lon="-5.240617">
        <ele>2116.0</ele>
        <time>2018-08-13T12:05:54Z</time>
      </trkpt>
      <trkpt lat="40.479317" lon="-5.240700">
        <ele>2116.0</ele>
        <time>2018-08-13T12:05:55Z</time>
      </trkpt>
      <trkpt lat="40.479350" lon="-5.240783">
        <ele>2116.0</ele>
        <time>2018-08-13T12:05:56Z</time>
      </trkpt>
      <trkpt lat="40.479417" lon="-5.240850">
        <ele>2115.0</ele>
        <time>2018-08-13T12:05:57Z</time>
      </trkpt>
      <trkpt lat="40.479500" lon="-5.240900">
        <ele>2115.0</ele>
        <time>2018-08-13T12:05:58Z</time>
      </trkpt>
      <trkpt lat="40.479600" lon="-5.240917">
        <ele>2114.0</ele>
        <time>2018-08-13T12:05:59Z</time>
      </trkpt>
      <trkpt lat="40.479700" lon="-5.240900">
        <ele>2114.0</ele>
        <time>2018-08-13T12:06:00Z</time>
      </trkpt>
      <trkpt lat="40.479800" lon="-5.240867">
        <ele>2114.0</ele>
        <time>2018-08-13T12:06:01Z</time>
      </trkpt>
      <trkpt lat="40.479900" lon="-5.240817">
        <ele>2115.0</ele>
        <time>2018-08-13T12:06:02Z</time>
      </trkpt>
      <trkpt lat="40.479983" lon="-5.240733">
        <ele>2115.0</ele>
        <time>2018-08-13T12:06:03Z</time>
      </trkpt>
      <trkpt lat="40.480067" lon="-5.240650">
        <ele>2115.0</ele>
        <time>2018-08-13T12:06:04Z</time>
      </trkpt>
      <trkpt lat="40.480133" lon="-5.240550">
        <ele>2114.0</ele>
        <time>2018-08-13T12:06:05Z</time>
      </trkpt>
      <trkpt lat="40.480217" lon="-5.240433">
        <ele>2113.0</ele>
        <time>2018-08-13T12:06:06Z</time>
      </trkpt>
      <trkpt lat="40.480283" lon="-5.240300">
        <ele>2112.0</ele>
        <time>2018-08-13T12:06:07Z</time>
      </trkpt>
      <trkpt lat="40.480350" lon="-5.240150">
        <ele>2111.0</ele>
        <time>2018-08-13T12:06:08Z</time>
      </trkpt>
      <trkpt lat="40.480383" lon="-5.239983">
        <ele>2111.0</ele>
        <time>2018-08-13T12:06:09Z</time>
      </trkpt>
      <trkpt lat="40.480400" lon="-5.239817">
        <ele>2111.0</ele>
        <time>2018-08-13T12:06:10Z</time>
      </trkpt>
      <trkpt lat="40.480417" lon="-5.239650">
        <ele>2112.0</ele>
        <time>2018-08-13T12:06:11Z</time>
      </trkpt>
      <trkpt lat="40.480433" lon="-5.239483">
        <ele>2112.0</ele>
        <time>2018-08-13T12:06:12Z</time>
      </trkpt>
      <trkpt lat="40.480433" lon="-5.239317">
        <ele>2113.0</ele>
        <time>2018-08-13T12:06:13Z</time>
      </trkpt>
      <trkpt lat="40.480433" lon="-5.239150">
        <ele>2114.0</ele>
        <time>2018-08-13T12:06:14Z</time>
      </trkpt>
      <trkpt lat="40.480433" lon="-5.239000">
        <ele>2115.0</ele>
        <time>2018-08-13T12:06:15Z</time>
      </trkpt>
      <trkpt lat="40.480433" lon="-5.238833">
        <ele>2116.0</ele>
        <time>2018-08-13T12:06:16Z</time>
      </trkpt>
      <trkpt lat="40.480417" lon="-5.238683">
        <ele>2117.0</ele>
        <time>2018-08-13T12:06:17Z</time>
      </trkpt>
      <trkpt lat="40.480433" lon="-5.238517">
        <ele>2117.0</ele>
        <time>2018-08-13T12:06:18Z</time>
      </trkpt>
      <trkpt lat="40.480433" lon="-5.238367">
        <ele>2117.0</ele>
        <time>2018-08-13T12:06:19Z</time>
      </trkpt>
      <trkpt lat="40.480450" lon="-5.238200">
        <ele>2118.0</ele>
        <time>2018-08-13T12:06:20Z</time>
      </trkpt>
      <trkpt lat="40.480450" lon="-5.238033">
        <ele>2118.0</ele>
        <time>2018-08-13T12:06:21Z</time>
      </trkpt>
      <trkpt lat="40.480433" lon="-5.237867">
        <ele>2119.0</ele>
        <time>2018-08-13T12:06:22Z</time>
      </trkpt>
      <trkpt lat="40.480383" lon="-5.237717">
        <ele>2118.0</ele>
        <time>2018-08-13T12:06:23Z</time>
      </trkpt>
      <trkpt lat="40.480333" lon="-5.237567">
        <ele>2117.0</ele>
        <time>2018-08-13T12:06:24Z</time>
      </trkpt>
      <trkpt lat="40.480267" lon="-5.237433">
        <ele>2116.0</ele>
        <time>2018-08-13T12:06:25Z</time>
      </trkpt>
      <trkpt lat="40.480183" lon="-5.237300">
        <ele>2116.0</ele>
        <time>2018-08-13T12:06:26Z</time>
      </trkpt>
      <trkpt lat="40.480083" lon="-5.237183">
        <ele>2116.0</ele>
        <time>2018-08-13T12:06:27Z</time>
      </trkpt>
      <trkpt lat="40.479983" lon="-5.237083">
        <ele>2116.0</ele>
        <time>2018-08-13T12:06:28Z</time>
      </trkpt>
      <trkpt lat="40.479883" lon="-5.237000">
        <ele>2117.0</ele>
        <time>2018-08-13T12:06:29Z</time>
      </trkpt>
      <trkpt lat="40.479783" lon="-5.236917">
        <ele>2117.0</ele>
        <time>2018-08-13T12:06:30Z</time>
      </trkpt>
      <trkpt lat="40.479683" lon="-5.236850">
        <ele>2118.0</ele>
        <time>2018-08-13T12:06:31Z</time>
      </trkpt>
      <trkpt lat="40.479600" lon="-5.236800">
        <ele>2120.0</ele>
        <time>2018-08-13T12:06:32Z</time>
      </trkpt>
      <trkpt lat="40.479517" lon="-5.236783">
        <ele>2122.0</ele>
        <time>2018-08-13T12:06:33Z</time>
      </trkpt>
      <trkpt lat="40.479433" lon="-5.236767">
        <ele>2123.0</ele>
        <time>2018-08-13T12:06:34Z</time>
      </trkpt>
      <trkpt lat="40.479367" lon="-5.236750">
        <ele>2124.0</ele>
        <time>2018-08-13T12:06:35Z</time>
      </trkpt>
      <trkpt lat="40.479300" lon="-5.236767">
        <ele>2124.0</ele>
        <time>2018-08-13T12:06:36Z</time>
      </trkpt>
      <trkpt lat="40.479217" lon="-5.236783">
        <ele>2124.0</ele>
        <time>2018-08-13T12:06:37Z</time>
      </trkpt>
      <trkpt lat="40.479150" lon="-5.236817">
        <ele>2124.0</ele>
        <time>2018-08-13T12:06:38Z</time>
      </trkpt>
      <trkpt lat="40.479100" lon="-5.236883">
        <ele>2124.0</ele>
        <time>2018-08-13T12:06:39Z</time>
      </trkpt>
      <trkpt lat="40.479067" lon="-5.236967">
        <ele>2123.0</ele>
        <time>2018-08-13T12:06:40Z</time>
      </trkpt>
      <trkpt lat="40.479067" lon="-5.237050">
        <ele>2123.0</ele>
        <time>2018-08-13T12:06:41Z</time>
      </trkpt>
      <trkpt lat="40.479067" lon="-5.237133">
        <ele>2123.0</ele>
        <time>2018-08-13T12:06:42Z</time>
      </trkpt>
      <trkpt lat="40.479083" lon="-5.237217">
        <ele>2123.0</ele>
        <time>2018-08-13T12:06:43Z</time>
      </trkpt>
      <trkpt lat="40.479133" lon="-5.237283">
        <ele>2122.0</ele>
        <time>2018-08-13T12:06:44Z</time>
      </trkpt>
      <trkpt lat="40.479200" lon="-5.237333">
        <ele>2122.0</ele>
        <time>2018-08-13T12:06:45Z</time>
      </trkpt>
      <trkpt lat="40.479267" lon="-5.237367">
        <ele>2121.0</ele>
        <time>2018-08-13T12:06:46Z</time>
      </trkpt>
      <trkpt lat="40.479367" lon="-5.237383">
        <ele>2120.0</ele>
        <time>2018-08-13T12:06:47Z</time>
      </trkpt>
      <trkpt lat="40.479450" lon="-5.237400">
        <ele>2120.0</ele>
        <time>2018-08-13T12:06:48Z</time>
      </trkpt>
      <trkpt lat="40.479550" lon="-5.237400">
        <ele>2120.0</ele>
        <time>2018-08-13T12:06:49Z</time>
      </trkpt>
      <trkpt lat="40.479650" lon="-5.237400">
        <ele>2120.0</ele>
        <time>2018-08-13T12:06:50Z</time>
      </trkpt>
      <trkpt lat="40.479750" lon="-5.237367">
        <ele>2119.0</ele>
        <time>2018-08-13T12:06:51Z</time>
      </trkpt>
      <trkpt lat="40.479850" lon="-5.237333">
        <ele>2119.0</ele>
        <time>2018-08-13T12:06:52Z</time>
      </trkpt>
      <trkpt lat="40.479950" lon="-5.237300">
        <ele>2118.0</ele>
        <time>2018-08-13T12:06:53Z</time>
      </trkpt>
      <trkpt lat="40.480067" lon="-5.237250">
        <ele>2118.0</ele>
        <time>2018-08-13T12:06:54Z</time>
      </trkpt>
      <trkpt lat="40.480167" lon="-5.237200">
        <ele>2118.0</ele>
        <time>2018-08-13T12:06:55Z</time>
      </trkpt>
      <trkpt lat="40.480267" lon="-5.237150">
        <ele>2119.0</ele>
        <time>2018-08-13T12:06:56Z</time>
      </trkpt>
      <trkpt lat="40.480367" lon="-5.237100">
        <ele>2119.0</ele>
        <time>2018-08-13T12:06:57Z</time>
      </trkpt>
      <trkpt lat="40.480450" lon="-5.237050">
        <ele>2119.0</ele>
        <time>2018-08-13T12:06:58Z</time>
      </trkpt>
      <trkpt lat="40.480533" lon="-5.237000">
        <ele>2118.0</ele>
        <time>2018-08-13T12:06:59Z</time>
      </trkpt>
      <trkpt lat="40.480633" lon="-5.236933">
        <ele>2116.0</ele>
        <time>2018-08-13T12:07:00Z</time>
      </trkpt>
      <trkpt lat="40.480717" lon="-5.236883">
        <ele>2114.0</ele>
        <time>2018-08-13T12:07:01Z</time>
      </trkpt>
      <trkpt lat="40.480817" lon="-5.236833">
        <ele>2112.0</ele>
        <time>2018-08-13T12:07:02Z</time>
      </trkpt>
      <trkpt lat="40.480900" lon="-5.236767">
        <ele>2110.0</ele>
        <time>2018-08-13T12:07:03Z</time>
      </trkpt>
      <trkpt lat="40.480983" lon="-5.236667">
        <ele>2107.0</ele>
        <time>2018-08-13T12:07:04Z</time>
      </trkpt>
      <trkpt lat="40.481083" lon="-5.236583">
        <ele>2104.0</ele>
        <time>2018-08-13T12:07:05Z</time>
      </trkpt>
      <trkpt lat="40.481183" lon="-5.236483">
        <ele>2102.0</ele>
        <time>2018-08-13T12:07:06Z</time>
      </trkpt>
      <trkpt lat="40.481283" lon="-5.236400">
        <ele>2101.0</ele>
        <time>2018-08-13T12:07:07Z</time>
      </trkpt>
      <trkpt lat="40.481383" lon="-5.236333">
        <ele>2101.0</ele>
        <time>2018-08-13T12:07:08Z</time>
      </trkpt>
      <trkpt lat="40.481467" lon="-5.236250">
        <ele>2100.0</ele>
        <time>2018-08-13T12:07:09Z</time>
      </trkpt>
      <trkpt lat="40.481567" lon="-5.236167">
        <ele>2099.0</ele>
        <time>2018-08-13T12:07:10Z</time>
      </trkpt>
      <trkpt lat="40.481667" lon="-5.236083">
        <ele>2098.0</ele>
        <time>2018-08-13T12:07:11Z</time>
      </trkpt>
      <trkpt lat="40.481767" lon="-5.236017">
        <ele>2097.0</ele>
        <time>2018-08-13T12:07:12Z</time>
      </trkpt>
      <trkpt lat="40.481867" lon="-5.235950">
        <ele>2097.0</ele>
        <time>2018-08-13T12:07:13Z</time>
      </trkpt>
      <trkpt lat="40.481967" lon="-5.235883">
        <ele>2098.0</ele>
        <time>2018-08-13T12:07:14Z</time>
      </trkpt>
      <trkpt lat="40.482050" lon="-5.235817">
        <ele>2099.0</ele>
        <time>2018-08-13T12:07:15Z</time>
      </trkpt>
      <trkpt lat="40.482133" lon="-5.235767">
        <ele>2100.0</ele>
        <time>2018-08-13T12:07:16Z</time>
      </trkpt>
      <trkpt lat="40.482217" lon="-5.235700">
        <ele>2099.0</ele>
        <time>2018-08-13T12:07:17Z</time>
      </trkpt>
      <trkpt lat="40.482317" lon="-5.235650">
        <ele>2099.0</ele>
        <time>2018-08-13T12:07:18Z</time>
      </trkpt>
      <trkpt lat="40.482400" lon="-5.235600">
        <ele>2098.0</ele>
        <time>2018-08-13T12:07:19Z</time>
      </trkpt>
      <trkpt lat="40.482483" lon="-5.235550">
        <ele>2098.0</ele>
        <time>2018-08-13T12:07:20Z</time>
      </trkpt>
      <trkpt lat="40.482567" lon="-5.235483">
        <ele>2097.0</ele>
        <time>2018-08-13T12:07:21Z</time>
      </trkpt>
      <trkpt lat="40.482650" lon="-5.235417">
        <ele>2095.0</ele>
        <time>2018-08-13T12:07:22Z</time>
      </trkpt>
      <trkpt lat="40.482733" lon="-5.235333">
        <ele>2094.0</ele>
        <time>2018-08-13T12:07:23Z</time>
      </trkpt>
      <trkpt lat="40.482817" lon="-5.235267">
        <ele>2092.0</ele>
        <time>2018-08-13T12:07:24Z</time>
      </trkpt>
      <trkpt lat="40.482917" lon="-5.235183">
        <ele>2090.0</ele>
        <time>2018-08-13T12:07:25Z</time>
      </trkpt>
      <trkpt lat="40.483017" lon="-5.235100">
        <ele>2089.0</ele>
        <time>2018-08-13T12:07:26Z</time>
      </trkpt>
      <trkpt lat="40.483117" lon="-5.235000">
        <ele>2088.0</ele>
        <time>2018-08-13T12:07:27Z</time>
      </trkpt>
      <trkpt lat="40.483217" lon="-5.234900">
        <ele>2087.0</ele>
        <time>2018-08-13T12:07:28Z</time>
      </trkpt>
      <trkpt lat="40.483300" lon="-5.234783">
        <ele>2084.0</ele>
        <time>2018-08-13T12:07:29Z</time>
      </trkpt>
      <trkpt lat="40.483383" lon="-5.234683">
        <ele>2082.0</ele>
        <time>2018-08-13T12:07:30Z</time>
      </trkpt>
      <trkpt lat="40.483450" lon="-5.234583">
        <ele>2079.0</ele>
        <time>2018-08-13T12:07:31Z</time>
      </trkpt>
      <trkpt lat="40.483517" lon="-5.234500">
        <ele>2077.0</ele>
        <time>2018-08-13T12:07:32Z</time>
      </trkpt>
      <trkpt lat="40.483583" lon="-5.234400">
        <ele>2074.0</ele>
        <time>2018-08-13T12:07:33Z</time>
      </trkpt>
      <trkpt lat="40.483650" lon="-5.234317">
        <ele>2071.0</ele>
        <time>2018-08-13T12:07:34Z</time>
      </trkpt>
      <trkpt lat="40.483717" lon="-5.234233">
        <ele>2068.0</ele>
        <time>2018-08-13T12:07:35Z</time>
      </trkpt>
      <trkpt lat="40.483783" lon="-5.234133">
        <ele>2067.0</ele>
        <time>2018-08-13T12:07:36Z</time>
      </trkpt>
      <trkpt lat="40.483850" lon="-5.234050">
        <ele>2066.0</ele>
        <time>2018-08-13T12:07:37Z</time>
      </trkpt>
      <trkpt lat="40.483900" lon="-5.233967">
        <ele>2066.0</ele>
        <time>2018-08-13T12:07:38Z</time>
      </trkpt>
      <trkpt lat="40.483967" lon="-5.233883">
        <ele>2065.0</ele>
        <time>2018-08-13T12:07:39Z</time>
      </trkpt>
      <trkpt lat="40.484033" lon="-5.233800">
        <ele>2063.0</ele>
        <time>2018-08-13T12:07:40Z</time>
      </trkpt>
      <trkpt lat="40.484083" lon="-5.233717">
        <ele>2062.0</ele>
        <time>2018-08-13T12:07:41Z</time>
      </trkpt>
      <trkpt lat="40.484150" lon="-5.233617">
        <ele>2060.0</ele>
        <time>2018-08-13T12:07:42Z</time>
      </trkpt>
      <trkpt lat="40.484217" lon="-5.233517">
        <ele>2060.0</ele>
        <time>2018-08-13T12:07:43Z</time>
      </trkpt>
      <trkpt lat="40.484283" lon="-5.233417">
        <ele>2059.0</ele>
        <time>2018-08-13T12:07:44Z</time>
      </trkpt>
      <trkpt lat="40.484350" lon="-5.233317">
        <ele>2059.0</ele>
        <time>2018-08-13T12:07:45Z</time>
      </trkpt>
      <trkpt lat="40.484417" lon="-5.233200">
        <ele>2058.0</ele>
        <time>2018-08-13T12:07:46Z</time>
      </trkpt>
      <trkpt lat="40.484483" lon="-5.233083">
        <ele>2057.0</ele>
        <time>2018-08-13T12:07:47Z</time>
      </trkpt>
      <trkpt lat="40.484567" lon="-5.232967">
        <ele>2057.0</ele>
        <time>2018-08-13T12:07:48Z</time>
      </trkpt>
      <trkpt lat="40.484633" lon="-5.232883">
        <ele>2058.0</ele>
        <time>2018-08-13T12:07:49Z</time>
      </trkpt>
      <trkpt lat="40.484700" lon="-5.232783">
        <ele>2059.0</ele>
        <time>2018-08-13T12:07:50Z</time>
      </trkpt>
      <trkpt lat="40.484750" lon="-5.232667">
        <ele>2059.0</ele>
        <time>2018-08-13T12:07:51Z</time>
      </trkpt>
      <trkpt lat="40.484817" lon="-5.232550">
        <ele>2059.0</ele>
        <time>2018-08-13T12:07:52Z</time>
      </trkpt>
      <trkpt lat="40.484883" lon="-5.232433">
        <ele>2058.0</ele>
        <time>2018-08-13T12:07:53Z</time>
      </trkpt>
      <trkpt lat="40.484950" lon="-5.232317">
        <ele>2059.0</ele>
        <time>2018-08-13T12:07:54Z</time>
      </trkpt>
      <trkpt lat="40.485033" lon="-5.232183">
        <ele>2059.0</ele>
        <time>2018-08-13T12:07:55Z</time>
      </trkpt>
      <trkpt lat="40.485100" lon="-5.232067">
        <ele>2060.0</ele>
        <time>2018-08-13T12:07:56Z</time>
      </trkpt>
      <trkpt lat="40.485167" lon="-5.231933">
        <ele>2061.0</ele>
        <time>2018-08-13T12:07:57Z</time>
      </trkpt>
      <trkpt lat="40.485233" lon="-5.231817">
        <ele>2061.0</ele>
        <time>2018-08-13T12:07:58Z</time>
      </trkpt>
      <trkpt lat="40.485283" lon="-5.231683">
        <ele>2061.0</ele>
        <time>2018-08-13T12:07:59Z</time>
      </trkpt>
      <trkpt lat="40.485350" lon="-5.231567">
        <ele>2061.0</ele>
        <time>2018-08-13T12:08:00Z</time>
      </trkpt>
      <trkpt lat="40.485417" lon="-5.231433">
        <ele>2061.0</ele>
        <time>2018-08-13T12:08:01Z</time>
      </trkpt>
      <trkpt lat="40.485500" lon="-5.231317">
        <ele>2062.0</ele>
        <time>2018-08-13T12:08:02Z</time>
      </trkpt>
      <trkpt lat="40.485567" lon="-5.231200">
        <ele>2063.0</ele>
        <time>2018-08-13T12:08:03Z</time>
      </trkpt>
      <trkpt lat="40.485633" lon="-5.231083">
        <ele>2064.0</ele>
        <time>2018-08-13T12:08:04Z</time>
      </trkpt>
      <trkpt lat="40.485700" lon="-5.230950">
        <ele>2065.0</ele>
        <time>2018-08-13T12:08:05Z</time>
      </trkpt>
      <trkpt lat="40.485767" lon="-5.230833">
        <ele>2066.0</ele>
        <time>2018-08-13T12:08:06Z</time>
      </trkpt>
      <trkpt lat="40.485850" lon="-5.230717">
        <ele>2068.0</ele>
        <time>2018-08-13T12:08:07Z</time>
      </trkpt>
      <trkpt lat="40.485933" lon="-5.230617">
        <ele>2070.0</ele>
        <time>2018-08-13T12:08:08Z</time>
      </trkpt>
      <trkpt lat="40.486000" lon="-5.230500">
        <ele>2072.0</ele>
        <time>2018-08-13T12:08:09Z</time>
      </trkpt>
      <trkpt lat="40.486067" lon="-5.230367">
        <ele>2074.0</ele>
        <time>2018-08-13T12:08:10Z</time>
      </trkpt>
      <trkpt lat="40.486133" lon="-5.230250">
        <ele>2076.0</ele>
        <time>2018-08-13T12:08:11Z</time>
      </trkpt>
      <trkpt lat="40.486183" lon="-5.230117">
        <ele>2078.0</ele>
        <time>2018-08-13T12:08:12Z</time>
      </trkpt>
      <trkpt lat="40.486233" lon="-5.229983">
        <ele>2080.0</ele>
        <time>2018-08-13T12:08:13Z</time>
      </trkpt>
      <trkpt lat="40.486250" lon="-5.229833">
        <ele>2080.0</ele>
        <time>2018-08-13T12:08:14Z</time>
      </trkpt>
      <trkpt lat="40.486250" lon="-5.229667">
        <ele>2081.0</ele>
        <time>2018-08-13T12:08:15Z</time>
      </trkpt>
      <trkpt lat="40.486217" lon="-5.229500">
        <ele>2081.0</ele>
        <time>2018-08-13T12:08:16Z</time>
      </trkpt>
      <trkpt lat="40.486167" lon="-5.229333">
        <ele>2081.0</ele>
        <time>2018-08-13T12:08:17Z</time>
      </trkpt>
      <trkpt lat="40.486100" lon="-5.229183">
        <ele>2082.0</ele>
        <time>2018-08-13T12:08:18Z</time>
      </trkpt>
      <trkpt lat="40.486017" lon="-5.229067">
        <ele>2083.0</ele>
        <time>2018-08-13T12:08:19Z</time>
      </trkpt>
      <trkpt lat="40.485917" lon="-5.228950">
        <ele>2084.0</ele>
        <time>2018-08-13T12:08:20Z</time>
      </trkpt>
      <trkpt lat="40.485800" lon="-5.228867">
        <ele>2086.0</ele>
        <time>2018-08-13T12:08:21Z</time>
      </trkpt>
      <trkpt lat="40.485700" lon="-5.228817">
        <ele>2089.0</ele>
        <time>2018-08-13T12:08:22Z</time>
      </trkpt>
      <trkpt lat="40.485600" lon="-5.228767">
        <ele>2093.0</ele>
        <time>2018-08-13T12:08:23Z</time>
      </trkpt>
      <trkpt lat="40.485517" lon="-5.228733">
        <ele>2095.0</ele>
        <time>2018-08-13T12:08:24Z</time>
      </trkpt>
      <trkpt lat="40.485433" lon="-5.228683">
        <ele>2097.0</ele>
        <time>2018-08-13T12:08:25Z</time>
      </trkpt>
      <trkpt lat="40.485350" lon="-5.228667">
        <ele>2098.0</ele>
        <time>2018-08-13T12:08:26Z</time>
      </trkpt>
      <trkpt lat="40.485250" lon="-5.228650">
        <ele>2099.0</ele>
        <time>2018-08-13T12:08:27Z</time>
      </trkpt>
      <trkpt lat="40.485167" lon="-5.228667">
        <ele>2099.0</ele>
        <time>2018-08-13T12:08:28Z</time>
      </trkpt>
      <trkpt lat="40.485083" lon="-5.228733">
        <ele>2098.0</ele>
        <time>2018-08-13T12:08:29Z</time>
      </trkpt>
      <trkpt lat="40.485033" lon="-5.228800">
        <ele>2097.0</ele>
        <time>2018-08-13T12:08:30Z</time>
      </trkpt>
      <trkpt lat="40.485000" lon="-5.228883">
        <ele>2097.0</ele>
        <time>2018-08-13T12:08:31Z</time>
      </trkpt>
      <trkpt lat="40.485000" lon="-5.228967">
        <ele>2098.0</ele>
        <time>2018-08-13T12:08:32Z</time>
      </trkpt>
      <trkpt lat="40.485017" lon="-5.229050">
        <ele>2098.0</ele>
        <time>2018-08-13T12:08:33Z</time>
      </trkpt>
      <trkpt lat="40.485067" lon="-5.229133">
        <ele>2099.0</ele>
        <time>2018-08-13T12:08:34Z</time>
      </trkpt>
      <trkpt lat="40.485133" lon="-5.229183">
        <ele>2100.0</ele>
        <time>2018-08-13T12:08:35Z</time>
      </trkpt>
      <trkpt lat="40.485233" lon="-5.229217">
        <ele>2102.0</ele>
        <time>2018-08-13T12:08:36Z</time>
      </trkpt>
      <trkpt lat="40.485317" lon="-5.229233">
        <ele>2103.0</ele>
        <time>2018-08-13T12:08:37Z</time>
      </trkpt>
      <trkpt lat="40.485400" lon="-5.229233">
        <ele>2105.0</ele>
        <time>2018-08-13T12:08:38Z</time>
      </trkpt>
      <trkpt lat="40.485467" lon="-5.229233">
        <ele>2108.0</ele>
        <time>2018-08-13T12:08:39Z</time>
      </trkpt>
      <trkpt lat="40.485550" lon="-5.229200">
        <ele>2109.0</ele>
        <time>2018-08-13T12:08:40Z</time>
      </trkpt>
      <trkpt lat="40.485633" lon="-5.229150">
        <ele>2110.0</ele>
        <time>2018-08-13T12:08:41Z</time>
      </trkpt>
      <trkpt lat="40.485717" lon="-5.229083">
        <ele>2112.0</ele>
        <time>2018-08-13T12:08:42Z</time>
      </trkpt>
      <trkpt lat="40.485800" lon="-5.228983">
        <ele>2114.0</ele>
        <time>2018-08-13T12:08:43Z</time>
      </trkpt>
      <trkpt lat="40.485883" lon="-5.228867">
        <ele>2116.0</ele>
        <time>2018-08-13T12:08:44Z</time>
      </trkpt>
      <trkpt lat="40.485950" lon="-5.228750">
        <ele>2119.0</ele>
        <time>2018-08-13T12:08:45Z</time>
      </trkpt>
      <trkpt lat="40.486033" lon="-5.228650">
        <ele>2122.0</ele>
        <time>2018-08-13T12:08:46Z</time>
      </trkpt>
      <trkpt lat="40.486100" lon="-5.228550">
        <ele>2125.0</ele>
        <time>2018-08-13T12:08:47Z</time>
      </trkpt>
      <trkpt lat="40.486183" lon="-5.228450">
        <ele>2127.0</ele>
        <time>2018-08-13T12:08:48Z</time>
      </trkpt>
      <trkpt lat="40.486267" lon="-5.228333">
        <ele>2129.0</ele>
        <time>2018-08-13T12:08:49Z</time>
      </trkpt>
      <trkpt lat="40.486350" lon="-5.228217">
        <ele>2131.0</ele>
        <time>2018-08-13T12:08:50Z</time>
      </trkpt>
      <trkpt lat="40.486433" lon="-5.228117">
        <ele>2133.0</ele>
        <time>2018-08-13T12:08:51Z</time>
      </trkpt>
      <trkpt lat="40.486483" lon="-5.227983">
        <ele>2135.0</ele>
        <time>2018-08-13T12:08:52Z</time>
      </trkpt>
      <trkpt lat="40.486533" lon="-5.227850">
        <ele>2136.0</ele>
        <time>2018-08-13T12:08:53Z</time>
      </trkpt>
      <trkpt lat="40.486550" lon="-5.227683">
        <ele>2136.0</ele>
        <time>2018-08-13T12:08:54Z</time>
      </trkpt>
      <trkpt lat="40.486550" lon="-5.227500">
        <ele>2135.0</ele>
        <time>2018-08-13T12:08:55Z</time>
      </trkpt>
      <trkpt lat="40.486517" lon="-5.227317">
        <ele>2136.0</ele>
        <time>2018-08-13T12:08:56Z</time>
      </trkpt>
      <trkpt lat="40.486483" lon="-5.227150">
        <ele>2136.0</ele>
        <time>2018-08-13T12:08:57Z</time>
      </trkpt>
      <trkpt lat="40.486417" lon="-5.226983">
        <ele>2137.0</ele>
        <time>2018-08-13T12:08:58Z</time>
      </trkpt>
      <trkpt lat="40.486350" lon="-5.226850">
        <ele>2136.0</ele>
        <time>2018-08-13T12:08:59Z</time>
      </trkpt>
      <trkpt lat="40.486250" lon="-5.226750">
        <ele>2136.0</ele>
        <time>2018-08-13T12:09:00Z</time>
      </trkpt>
      <trkpt lat="40.486150" lon="-5.226667">
        <ele>2135.0</ele>
        <time>2018-08-13T12:09:01Z</time>
      </trkpt>
      <trkpt lat="40.486050" lon="-5.226600">
        <ele>2135.0</ele>
        <time>2018-08-13T12:09:02Z</time>
      </trkpt>
      <trkpt lat="40.485933" lon="-5.226550">
        <ele>2135.0</ele>
        <time>2018-08-13T12:09:03Z</time>
      </trkpt>
      <trkpt lat="40.485833" lon="-5.226533">
        <ele>2134.0</ele>
        <time>2018-08-13T12:09:04Z</time>
      </trkpt>
      <trkpt lat="40.485733" lon="-5.226517">
        <ele>2134.0</ele>
        <time>2018-08-13T12:09:05Z</time>
      </trkpt>
      <trkpt lat="40.485617" lon="-5.226533">
        <ele>2135.0</ele>
        <time>2018-08-13T12:09:06Z</time>
      </trkpt>
      <trkpt lat="40.485533" lon="-5.226550">
        <ele>2137.0</ele>
        <time>2018-08-13T12:09:07Z</time>
      </trkpt>
      <trkpt lat="40.485433" lon="-5.226567">
        <ele>2139.0</ele>
        <time>2018-08-13T12:09:08Z</time>
      </trkpt>
      <trkpt lat="40.485350" lon="-5.226600">
        <ele>2141.0</ele>
        <time>2018-08-13T12:09:09Z</time>
      </trkpt>
      <trkpt lat="40.485267" lon="-5.226617">
        <ele>2144.0</ele>
        <time>2018-08-13T12:09:10Z</time>
      </trkpt>
      <trkpt lat="40.485183" lon="-5.226667">
        <ele>2147.0</ele>
        <time>2018-08-13T12:09:11Z</time>
      </trkpt>
      <trkpt lat="40.485117" lon="-5.226700">
        <ele>2149.0</ele>
        <time>2018-08-13T12:09:12Z</time>
      </trkpt>
      <trkpt lat="40.485067" lon="-5.226767">
        <ele>2150.0</ele>
        <time>2018-08-13T12:09:13Z</time>
      </trkpt>
      <trkpt lat="40.485033" lon="-5.226833">
        <ele>2150.0</ele>
        <time>2018-08-13T12:09:14Z</time>
      </trkpt>
      <trkpt lat="40.485017" lon="-5.226917">
        <ele>2150.0</ele>
        <time>2018-08-13T12:09:15Z</time>
      </trkpt>
      <trkpt lat="40.485017" lon="-5.227000">
        <ele>2150.0</ele>
        <time>2018-08-13T12:09:16Z</time>
      </trkpt>
      <trkpt lat="40.485033" lon="-5.227067">
        <ele>2151.0</ele>
        <time>2018-08-13T12:09:17Z</time>
      </trkpt>
      <trkpt lat="40.485067" lon="-5.227133">
        <ele>2151.0</ele>
        <time>2018-08-13T12:09:18Z</time>
      </trkpt>
      <trkpt lat="40.485133" lon="-5.227183">
        <ele>2151.0</ele>
        <time>2018-08-13T12:09:19Z</time>
      </trkpt>
      <trkpt lat="40.485200" lon="-5.227217">
        <ele>2151.0</ele>
        <time>2018-08-13T12:09:20Z</time>
      </trkpt>
      <trkpt lat="40.485283" lon="-5.227233">
        <ele>2152.0</ele>
        <time>2018-08-13T12:09:21Z</time>
      </trkpt>
      <trkpt lat="40.485383" lon="-5.227217">
        <ele>2153.0</ele>
        <time>2018-08-13T12:09:22Z</time>
      </trkpt>
      <trkpt lat="40.485483" lon="-5.227167">
        <ele>2154.0</ele>
        <time>2018-08-13T12:09:23Z</time>
      </trkpt>
      <trkpt lat="40.485567" lon="-5.227067">
        <ele>2155.0</ele>
        <time>2018-08-13T12:09:24Z</time>
      </trkpt>
      <trkpt lat="40.485667" lon="-5.226950">
        <ele>2158.0</ele>
        <time>2018-08-13T12:09:25Z</time>
      </trkpt>
      <trkpt lat="40.485733" lon="-5.226833">
        <ele>2161.0</ele>
        <time>2018-08-13T12:09:26Z</time>
      </trkpt>
      <trkpt lat="40.485800" lon="-5.226700">
        <ele>2165.0</ele>
        <time>2018-08-13T12:09:27Z</time>
      </trkpt>
      <trkpt lat="40.485850" lon="-5.226567">
        <ele>2169.0</ele>
        <time>2018-08-13T12:09:28Z</time>
      </trkpt>
      <trkpt lat="40.485900" lon="-5.226450">
        <ele>2172.0</ele>
        <time>2018-08-13T12:09:29Z</time>
      </trkpt>
      <trkpt lat="40.485950" lon="-5.226333">
        <ele>2173.0</ele>
        <time>2018-08-13T12:09:30Z</time>
      </trkpt>
      <trkpt lat="40.485983" lon="-5.226200">
        <ele>2174.0</ele>
        <time>2018-08-13T12:09:31Z</time>
      </trkpt>
      <trkpt lat="40.486017" lon="-5.226050">
        <ele>2174.0</ele>
        <time>2018-08-13T12:09:32Z</time>
      </trkpt>
      <trkpt lat="40.486033" lon="-5.225900">
        <ele>2175.0</ele>
        <time>2018-08-13T12:09:33Z</time>
      </trkpt>
      <trkpt lat="40.486000" lon="-5.225733">
        <ele>2174.0</ele>
        <time>2018-08-13T12:09:34Z</time>
      </trkpt>
      <trkpt lat="40.485950" lon="-5.225567">
        <ele>2175.0</ele>
        <time>2018-08-13T12:09:35Z</time>
      </trkpt>
      <trkpt lat="40.485883" lon="-5.225433">
        <ele>2176.0</ele>
        <time>2018-08-13T12:09:36Z</time>
      </trkpt>
      <trkpt lat="40.485817" lon="-5.225317">
        <ele>2177.0</ele>
        <time>2018-08-13T12:09:37Z</time>
      </trkpt>
      <trkpt lat="40.485717" lon="-5.225233">
        <ele>2178.0</ele>
        <time>2018-08-13T12:09:38Z</time>
      </trkpt>
      <trkpt lat="40.485633" lon="-5.225200">
        <ele>2179.0</ele>
        <time>2018-08-13T12:09:39Z</time>
      </trkpt>
      <trkpt lat="40.485533" lon="-5.225183">
        <ele>2179.0</ele>
        <time>2018-08-13T12:09:40Z</time>
      </trkpt>
      <trkpt lat="40.485433" lon="-5.225217">
        <ele>2180.0</ele>
        <time>2018-08-13T12:09:41Z</time>
      </trkpt>
      <trkpt lat="40.485350" lon="-5.225267">
        <ele>2181.0</ele>
        <time>2018-08-13T12:09:42Z</time>
      </trkpt>
      <trkpt lat="40.485300" lon="-5.225333">
        <ele>2184.0</ele>
        <time>2018-08-13T12:09:43Z</time>
      </trkpt>
      <trkpt lat="40.485250" lon="-5.225400">
        <ele>2187.0</ele>
        <time>2018-08-13T12:09:44Z</time>
      </trkpt>
      <trkpt lat="40.485233" lon="-5.225483">
        <ele>2189.0</ele>
        <time>2018-08-13T12:09:45Z</time>
      </trkpt>
      <trkpt lat="40.485233" lon="-5.225567">
        <ele>2190.0</ele>
        <time>2018-08-13T12:09:46Z</time>
      </trkpt>
      <trkpt lat="40.485233" lon="-5.225650">
        <ele>2190.0</ele>
        <time>2018-08-13T12:09:47Z</time>
      </trkpt>
      <trkpt lat="40.485250" lon="-5.225733">
        <ele>2191.0</ele>
        <time>2018-08-13T12:09:48Z</time>
      </trkpt>
      <trkpt lat="40.485283" lon="-5.225817">
        <ele>2191.0</ele>
        <time>2018-08-13T12:09:49Z</time>
      </trkpt>
      <trkpt lat="40.485333" lon="-5.225900">
        <ele>2190.0</ele>
        <time>2018-08-13T12:09:50Z</time>
      </trkpt>
      <trkpt lat="40.485400" lon="-5.225983">
        <ele>2190.0</ele>
        <time>2018-08-13T12:09:51Z</time>
      </trkpt>
      <trkpt lat="40.485483" lon="-5.226050">
        <ele>2191.0</ele>
        <time>2018-08-13T12:09:52Z</time>
      </trkpt>
      <trkpt lat="40.485567" lon="-5.226100">
        <ele>2192.0</ele>
        <time>2018-08-13T12:09:53Z</time>
      </trkpt>
      <trkpt lat="40.485667" lon="-5.226133">
        <ele>2195.0</ele>
        <time>2018-08-13T12:09:54Z</time>
      </trkpt>
      <trkpt lat="40.485750" lon="-5.226133">
        <ele>2198.0</ele>
        <time>2018-08-13T12:09:55Z</time>
      </trkpt>
      <trkpt lat="40.485850" lon="-5.226117">
        <ele>2200.0</ele>
        <time>2018-08-13T12:09:56Z</time>
      </trkpt>
      <trkpt lat="40.485933" lon="-5.226067">
        <ele>2201.0</ele>
        <time>2018-08-13T12:09:57Z</time>
      </trkpt>
      <trkpt lat="40.486017" lon="-5.226000">
        <ele>2203.0</ele>
        <time>2018-08-13T12:09:58Z</time>
      </trkpt>
      <trkpt lat="40.486100" lon="-5.225933">
        <ele>2205.0</ele>
        <time>2018-08-13T12:09:59Z</time>
      </trkpt>
      <trkpt lat="40.486167" lon="-5.225850">
        <ele>2206.0</ele>
        <time>2018-08-13T12:10:00Z</time>
      </trkpt>
      <trkpt lat="40.486233" lon="-5.225767">
        <ele>2207.0</ele>
        <time>2018-08-13T12:10:01Z</time>
      </trkpt>
      <trkpt lat="40.486283" lon="-5.225667">
        <ele>2207.0</ele>
        <time>2018-08-13T12:10:02Z</time>
      </trkpt>
      <trkpt lat="40.486333" lon="-5.225550">
        <ele>2207.0</ele>
        <time>2018-08-13T12:10:03Z</time>
      </trkpt>
      <trkpt lat="40.486367" lon="-5.225433">
        <ele>2205.0</ele>
        <time>2018-08-13T12:10:04Z</time>
      </trkpt>
      <trkpt lat="40.486400" lon="-5.225283">
        <ele>2204.0</ele>
        <time>2018-08-13T12:10:05Z</time>
      </trkpt>
      <trkpt lat="40.486450" lon="-5.225150">
        <ele>2203.0</ele>
        <time>2018-08-13T12:10:06Z</time>
      </trkpt>
      <trkpt lat="40.486500" lon="-5.225017">
        <ele>2202.0</ele>
        <time>2018-08-13T12:10:07Z</time>
      </trkpt>
      <trkpt lat="40.486567" lon="-5.224900">
        <ele>2200.0</ele>
        <time>2018-08-13T12:10:08Z</time>
      </trkpt>
      <trkpt lat="40.486633" lon="-5.224800">
        <ele>2199.0</ele>
        <time>2018-08-13T12:10:09Z</time>
      </trkpt>
      <trkpt lat="40.486700" lon="-5.224683">
        <ele>2198.0</ele>
        <time>2018-08-13T12:10:10Z</time>
      </trkpt>
      <trkpt lat="40.486783" lon="-5.224600">
        <ele>2198.0</ele>
        <time>2018-08-13T12:10:11Z</time>
      </trkpt>
      <trkpt lat="40.486883" lon="-5.224517">
        <ele>2198.0</ele>
        <time>2018-08-13T12:10:12Z</time>
      </trkpt>
      <trkpt lat="40.486967" lon="-5.224433">
        <ele>2199.0</ele>
        <time>2018-08-13T12:10:13Z</time>
      </trkpt>
      <trkpt lat="40.487067" lon="-5.224350">
        <ele>2201.0</ele>
        <time>2018-08-13T12:10:14Z</time>
      </trkpt>
      <trkpt lat="40.487150" lon="-5.224267">
        <ele>2203.0</ele>
        <time>2018-08-13T12:10:15Z</time>
      </trkpt>
      <trkpt lat="40.487233" lon="-5.224183">
        <ele>2206.0</ele>
        <time>2018-08-13T12:10:16Z</time>
      </trkpt>
      <trkpt lat="40.487300" lon="-5.224117">
        <ele>2208.0</ele>
        <time>2018-08-13T12:10:17Z</time>
      </trkpt>
      <trkpt lat="40.487367" lon="-5.224050">
        <ele>2209.0</ele>
        <time>2018-08-13T12:10:18Z</time>
      </trkpt>
      <trkpt lat="40.487450" lon="-5.223983">
        <ele>2209.0</ele>
        <time>2018-08-13T12:10:19Z</time>
      </trkpt>
      <trkpt lat="40.487533" lon="-5.223933">
        <ele>2209.0</ele>
        <time>2018-08-13T12:10:20Z</time>
      </trkpt>
      <trkpt lat="40.487633" lon="-5.223867">
        <ele>2209.0</ele>
        <time>2018-08-13T12:10:21Z</time>
      </trkpt>
      <trkpt lat="40.487750" lon="-5.223800">
        <ele>2210.0</ele>
        <time>2018-08-13T12:10:22Z</time>
      </trkpt>
      <trkpt lat="40.487850" lon="-5.223750">
        <ele>2211.0</ele>
        <time>2018-08-13T12:10:23Z</time>
      </trkpt>
      <trkpt lat="40.487950" lon="-5.223683">
        <ele>2213.0</ele>
        <time>2018-08-13T12:10:24Z</time>
      </trkpt>
      <trkpt lat="40.488050" lon="-5.223600">
        <ele>2213.0</ele>
        <time>2018-08-13T12:10:25Z</time>
      </trkpt>
      <trkpt lat="40.488133" lon="-5.223517">
        <ele>2213.0</ele>
        <time>2018-08-13T12:10:26Z</time>
      </trkpt>
      <trkpt lat="40.488233" lon="-5.223433">
        <ele>2212.0</ele>
        <time>2018-08-13T12:10:27Z</time>
      </trkpt>
      <trkpt lat="40.488317" lon="-5.223350">
        <ele>2211.0</ele>
        <time>2018-08-13T12:10:28Z</time>
      </trkpt>
      <trkpt lat="40.488417" lon="-5.223267">
        <ele>2210.0</ele>
        <time>2018-08-13T12:10:29Z</time>
      </trkpt>
      <trkpt lat="40.488517" lon="-5.223183">
        <ele>2209.0</ele>
        <time>2018-08-13T12:10:30Z</time>
      </trkpt>
      <trkpt lat="40.488617" lon="-5.223117">
        <ele>2208.0</ele>
        <time>2018-08-13T12:10:31Z</time>
      </trkpt>
      <trkpt lat="40.488700" lon="-5.223067">
        <ele>2208.0</ele>
        <time>2018-08-13T12:10:32Z</time>
      </trkpt>
      <trkpt lat="40.488800" lon="-5.222983">
        <ele>2208.0</ele>
        <time>2018-08-13T12:10:33Z</time>
      </trkpt>
      <trkpt lat="40.488900" lon="-5.222917">
        <ele>2208.0</ele>
        <time>2018-08-13T12:10:34Z</time>
      </trkpt>
      <trkpt lat="40.489000" lon="-5.222850">
        <ele>2208.0</ele>
        <time>2018-08-13T12:10:35Z</time>
      </trkpt>
      <trkpt lat="40.489083" lon="-5.222767">
        <ele>2209.0</ele>
        <time>2018-08-13T12:10:36Z</time>
      </trkpt>
      <trkpt lat="40.489183" lon="-5.222700">
        <ele>2210.0</ele>
        <time>2018-08-13T12:10:37Z</time>
      </trkpt>
      <trkpt lat="40.489283" lon="-5.222633">
        <ele>2211.0</ele>
        <time>2018-08-13T12:10:38Z</time>
      </trkpt>
      <trkpt lat="40.489367" lon="-5.222567">
        <ele>2212.0</ele>
        <time>2018-08-13T12:10:39Z</time>
      </trkpt>
      <trkpt lat="40.489467" lon="-5.222517">
        <ele>2212.0</ele>
        <time>2018-08-13T12:10:40Z</time>
      </trkpt>
      <trkpt lat="40.489567" lon="-5.222467">
        <ele>2213.0</ele>
        <time>2018-08-13T12:10:41Z</time>
      </trkpt>
      <trkpt lat="40.489650" lon="-5.222467">
        <ele>2213.0</ele>
        <time>2018-08-13T12:10:42Z</time>
      </trkpt>
      <trkpt lat="40.489733" lon="-5.222483">
        <ele>2213.0</ele>
        <time>2018-08-13T12:10:43Z</time>
      </trkpt>
      <trkpt lat="40.489800" lon="-5.222533">
        <ele>2213.0</ele>
        <time>2018-08-13T12:10:44Z</time>
      </trkpt>
      <trkpt lat="40.489850" lon="-5.222583">
        <ele>2214.0</ele>
        <time>2018-08-13T12:10:45Z</time>
      </trkpt>
      <trkpt lat="40.489867" lon="-5.222667">
        <ele>2214.0</ele>
        <time>2018-08-13T12:10:46Z</time>
      </trkpt>
      <trkpt lat="40.489833" lon="-5.222733">
        <ele>2214.0</ele>
        <time>2018-08-13T12:10:47Z</time>
      </trkpt>
      <trkpt lat="40.489800" lon="-5.222783">
        <ele>2214.0</ele>
        <time>2018-08-13T12:10:48Z</time>
      </trkpt>
      <trkpt lat="40.489717" lon="-5.222800">
        <ele>2213.0</ele>
        <time>2018-08-13T12:10:49Z</time>
      </trkpt>
      <trkpt lat="40.489633" lon="-5.222800">
        <ele>2212.0</ele>
        <time>2018-08-13T12:10:50Z</time>
      </trkpt>
      <trkpt lat="40.489533" lon="-5.222783">
        <ele>2211.0</ele>
        <time>2018-08-13T12:10:51Z</time>
      </trkpt>
      <trkpt lat="40.489433" lon="-5.222717">
        <ele>2211.0</ele>
        <time>2018-08-13T12:10:52Z</time>
      </trkpt>
      <trkpt lat="40.489333" lon="-5.222617">
        <ele>2212.0</ele>
        <time>2018-08-13T12:10:53Z</time>
      </trkpt>
      <trkpt lat="40.489250" lon="-5.222500">
        <ele>2212.0</ele>
        <time>2018-08-13T12:10:54Z</time>
      </trkpt>
      <trkpt lat="40.489183" lon="-5.222350">
        <ele>2212.0</ele>
        <time>2018-08-13T12:10:55Z</time>
      </trkpt>
      <trkpt lat="40.489133" lon="-5.222183">
        <ele>2212.0</ele>
        <time>2018-08-13T12:10:56Z</time>
      </trkpt>
      <trkpt lat="40.489100" lon="-5.222033">
        <ele>2212.0</ele>
        <time>2018-08-13T12:10:57Z</time>
      </trkpt>
      <trkpt lat="40.489033" lon="-5.221867">
        <ele>2212.0</ele>
        <time>2018-08-13T12:10:58Z</time>
      </trkpt>
      <trkpt lat="40.488967" lon="-5.221733">
        <ele>2212.0</ele>
        <time>2018-08-13T12:10:59Z</time>
      </trkpt>
      <trkpt lat="40.488883" lon="-5.221617">
        <ele>2212.0</ele>
        <time>2018-08-13T12:11:00Z</time>
      </trkpt>
      <trkpt lat="40.488800" lon="-5.221517">
        <ele>2213.0</ele>
        <time>2018-08-13T12:11:01Z</time>
      </trkpt>
      <trkpt lat="40.488717" lon="-5.221450">
        <ele>2214.0</ele>
        <time>2018-08-13T12:11:02Z</time>
      </trkpt>
      <trkpt lat="40.488633" lon="-5.221400">
        <ele>2214.0</ele>
        <time>2018-08-13T12:11:03Z</time>
      </trkpt>
      <trkpt lat="40.488550" lon="-5.221367">
        <ele>2214.0</ele>
        <time>2018-08-13T12:11:04Z</time>
      </trkpt>
      <trkpt lat="40.488467" lon="-5.221333">
        <ele>2215.0</ele>
        <time>2018-08-13T12:11:05Z</time>
      </trkpt>
      <trkpt lat="40.488367" lon="-5.221300">
        <ele>2216.0</ele>
        <time>2018-08-13T12:11:06Z</time>
      </trkpt>
      <trkpt lat="40.488283" lon="-5.221283">
        <ele>2216.0</ele>
        <time>2018-08-13T12:11:07Z</time>
      </trkpt>
      <trkpt lat="40.488200" lon="-5.221267">
        <ele>2218.0</ele>
        <time>2018-08-13T12:11:08Z</time>
      </trkpt>
      <trkpt lat="40.488133" lon="-5.221267">
        <ele>2220.0</ele>
        <time>2018-08-13T12:11:09Z</time>
      </trkpt>
      <trkpt lat="40.488050" lon="-5.221283">
        <ele>2221.0</ele>
        <time>2018-08-13T12:11:10Z</time>
      </trkpt>
      <trkpt lat="40.488000" lon="-5.221317">
        <ele>2223.0</ele>
        <time>2018-08-13T12:11:11Z</time>
      </trkpt>
      <trkpt lat="40.487950" lon="-5.221367">
        <ele>2224.0</ele>
        <time>2018-08-13T12:11:12Z</time>
      </trkpt>
      <trkpt lat="40.487917" lon="-5.221400">
        <ele>2226.0</ele>
        <time>2018-08-13T12:11:13Z</time>
      </trkpt>
      <trkpt lat="40.487933" lon="-5.221433">
        <ele>2226.0</ele>
        <time>2018-08-13T12:11:14Z</time>
      </trkpt>
      <trkpt lat="40.487950" lon="-5.221483">
        <ele>2225.0</ele>
        <time>2018-08-13T12:11:15Z</time>
      </trkpt>
      <trkpt lat="40.487983" lon="-5.221550">
        <ele>2223.0</ele>
        <time>2018-08-13T12:11:16Z</time>
      </trkpt>
      <trkpt lat="40.488033" lon="-5.221633">
        <ele>2224.0</ele>
        <time>2018-08-13T12:11:17Z</time>
      </trkpt>
      <trkpt lat="40.488100" lon="-5.221717">
        <ele>2227.0</ele>
        <time>2018-08-13T12:11:18Z</time>
      </trkpt>
      <trkpt lat="40.488167" lon="-5.221733">
        <ele>2229.0</ele>
        <time>2018-08-13T12:11:19Z</time>
      </trkpt>
      <trkpt lat="40.488250" lon="-5.221700">
        <ele>2231.0</ele>
        <time>2018-08-13T12:11:20Z</time>
      </trkpt>
      <trkpt lat="40.488333" lon="-5.221650">
        <ele>2232.0</ele>
        <time>2018-08-13T12:11:21Z</time>
      </trkpt>
      <trkpt lat="40.488433" lon="-5.221583">
        <ele>2232.0</ele>
        <time>2018-08-13T12:11:22Z</time>
      </trkpt>
      <trkpt lat="40.488517" lon="-5.221517">
        <ele>2232.0</ele>
        <time>2018-08-13T12:11:23Z</time>
      </trkpt>
      <trkpt lat="40.488617" lon="-5.221417">
        <ele>2232.0</ele>
        <time>2018-08-13T12:11:24Z</time>
      </trkpt>
      <trkpt lat="40.488717" lon="-5.221317">
        <ele>2231.0</ele>
        <time>2018-08-13T12:11:25Z</time>
      </trkpt>
      <trkpt lat="40.488800" lon="-5.221200">
        <ele>2231.0</ele>
        <time>2018-08-13T12:11:26Z</time>
      </trkpt>
      <trkpt lat="40.488883" lon="-5.221083">
        <ele>2231.0</ele>
        <time>2018-08-13T12:11:27Z</time>
      </trkpt>
      <trkpt lat="40.488983" lon="-5.220983">
        <ele>2231.0</ele>
        <time>2018-08-13T12:11:28Z</time>
      </trkpt>
      <trkpt lat="40.489067" lon="-5.220883">
        <ele>2231.0</ele>
        <time>2018-08-13T12:11:29Z</time>
      </trkpt>
      <trkpt lat="40.489167" lon="-5.220783">
        <ele>2230.0</ele>
        <time>2018-08-13T12:11:30Z</time>
      </trkpt>
      <trkpt lat="40.489250" lon="-5.220667">
        <ele>2229.0</ele>
        <time>2018-08-13T12:11:31Z</time>
      </trkpt>
      <trkpt lat="40.489350" lon="-5.220567">
        <ele>2229.0</ele>
        <time>2018-08-13T12:11:32Z</time>
      </trkpt>
      <trkpt lat="40.489450" lon="-5.220450">
        <ele>2228.0</ele>
        <time>2018-08-13T12:11:33Z</time>
      </trkpt>
      <trkpt lat="40.489550" lon="-5.220367">
        <ele>2227.0</ele>
        <time>2018-08-13T12:11:34Z</time>
      </trkpt>
      <trkpt lat="40.489667" lon="-5.220283">
        <ele>2225.0</ele>
        <time>2018-08-13T12:11:35Z</time>
      </trkpt>
      <trkpt lat="40.489783" lon="-5.220183">
        <ele>2224.0</ele>
        <time>2018-08-13T12:11:36Z</time>
      </trkpt>
      <trkpt lat="40.489883" lon="-5.220083">
        <ele>2223.0</ele>
        <time>2018-08-13T12:11:37Z</time>
      </trkpt>
      <trkpt lat="40.490000" lon="-5.219967">
        <ele>2223.0</ele>
        <time>2018-08-13T12:11:38Z</time>
      </trkpt>
      <trkpt lat="40.490100" lon="-5.219867">
        <ele>2223.0</ele>
        <time>2018-08-13T12:11:39Z</time>
      </trkpt>
      <trkpt lat="40.490200" lon="-5.219767">
        <ele>2223.0</ele>
        <time>2018-08-13T12:11:40Z</time>
      </trkpt>
      <trkpt lat="40.490300" lon="-5.219667">
        <ele>2223.0</ele>
        <time>2018-08-13T12:11:41Z</time>
      </trkpt>
      <trkpt lat="40.490400" lon="-5.219550">
        <ele>2222.0</ele>
        <time>2018-08-13T12:11:42Z</time>
      </trkpt>
      <trkpt lat="40.490500" lon="-5.219433">
        <ele>2222.0</ele>
        <time>2018-08-13T12:11:43Z</time>
      </trkpt>
      <trkpt lat="40.490600" lon="-5.219317">
        <ele>2222.0</ele>
        <time>2018-08-13T12:11:44Z</time>
      </trkpt>
      <trkpt lat="40.490683" lon="-5.219200">
        <ele>2222.0</ele>
        <time>2018-08-13T12:11:45Z</time>
      </trkpt>
      <trkpt lat="40.490783" lon="-5.219083">
        <ele>2222.0</ele>
        <time>2018-08-13T12:11:46Z</time>
      </trkpt>
      <trkpt lat="40.490867" lon="-5.218967">
        <ele>2222.0</ele>
        <time>2018-08-13T12:11:47Z</time>
      </trkpt>
      <trkpt lat="40.490983" lon="-5.218883">
        <ele>2222.0</ele>
        <time>2018-08-13T12:11:48Z</time>
      </trkpt>
      <trkpt lat="40.491083" lon="-5.218817">
        <ele>2222.0</ele>
        <time>2018-08-13T12:11:49Z</time>
      </trkpt>
      <trkpt lat="40.491183" lon="-5.218750">
        <ele>2224.0</ele>
        <time>2018-08-13T12:11:50Z</time>
      </trkpt>
      <trkpt lat="40.491283" lon="-5.218700">
        <ele>2226.0</ele>
        <time>2018-08-13T12:11:51Z</time>
      </trkpt>
      <trkpt lat="40.491367" lon="-5.218667">
        <ele>2227.0</ele>
        <time>2018-08-13T12:11:52Z</time>
      </trkpt>
      <trkpt lat="40.491450" lon="-5.218633">
        <ele>2227.0</ele>
        <time>2018-08-13T12:11:53Z</time>
      </trkpt>
      <trkpt lat="40.491533" lon="-5.218633">
        <ele>2227.0</ele>
        <time>2018-08-13T12:11:54Z</time>
      </trkpt>
      <trkpt lat="40.491617" lon="-5.218650">
        <ele>2227.0</ele>
        <time>2018-08-13T12:11:55Z</time>
      </trkpt>
      <trkpt lat="40.491700" lon="-5.218667">
        <ele>2228.0</ele>
        <time>2018-08-13T12:11:56Z</time>
      </trkpt>
      <trkpt lat="40.491767" lon="-5.218700">
        <ele>2228.0</ele>
        <time>2018-08-13T12:11:57Z</time>
      </trkpt>
      <trkpt lat="40.491833" lon="-5.218717">
        <ele>2228.0</ele>
        <time>2018-08-13T12:11:58Z</time>
      </trkpt>
      <trkpt lat="40.491917" lon="-5.218733">
        <ele>2229.0</ele>
        <time>2018-08-13T12:11:59Z</time>
      </trkpt>
      <trkpt lat="40.491983" lon="-5.218750">
        <ele>2229.0</ele>
        <time>2018-08-13T12:12:00Z</time>
      </trkpt>
      <trkpt lat="40.492050" lon="-5.218800">
        <ele>2230.0</ele>
        <time>2018-08-13T12:12:01Z</time>
      </trkpt>
      <trkpt lat="40.492083" lon="-5.218850">
        <ele>2229.0</ele>
        <time>2018-08-13T12:12:02Z</time>
      </trkpt>
      <trkpt lat="40.492117" lon="-5.218917">
        <ele>2228.0</ele>
        <time>2018-08-13T12:12:03Z</time>
      </trkpt>
      <trkpt lat="40.492133" lon="-5.219000">
        <ele>2227.0</ele>
        <time>2018-08-13T12:12:04Z</time>
      </trkpt>
      <trkpt lat="40.492167" lon="-5.219067">
        <ele>2226.0</ele>
        <time>2018-08-13T12:12:05Z</time>
      </trkpt>
      <trkpt lat="40.492217" lon="-5.219117">
        <ele>2226.0</ele>
        <time>2018-08-13T12:12:06Z</time>
      </trkpt>
      <trkpt lat="40.492283" lon="-5.219150">
        <ele>2225.0</ele>
        <time>2018-08-13T12:12:07Z</time>
      </trkpt>
      <trkpt lat="40.492350" lon="-5.219167">
        <ele>2223.0</ele>
        <time>2018-08-13T12:12:08Z</time>
      </trkpt>
      <trkpt lat="40.492433" lon="-5.219167">
        <ele>2221.0</ele>
        <time>2018-08-13T12:12:09Z</time>
      </trkpt>
      <trkpt lat="40.492517" lon="-5.219167">
        <ele>2219.0</ele>
        <time>2018-08-13T12:12:10Z</time>
      </trkpt>
      <trkpt lat="40.492617" lon="-5.219167">
        <ele>2217.0</ele>
        <time>2018-08-13T12:12:11Z</time>
      </trkpt>
      <trkpt lat="40.492717" lon="-5.219167">
        <ele>2215.0</ele>
        <time>2018-08-13T12:12:12Z</time>
      </trkpt>
      <trkpt lat="40.492817" lon="-5.219183">
        <ele>2213.0</ele>
        <time>2018-08-13T12:12:13Z</time>
      </trkpt>
      <trkpt lat="40.492917" lon="-5.219183">
        <ele>2213.0</ele>
        <time>2018-08-13T12:12:14Z</time>
      </trkpt>
      <trkpt lat="40.493017" lon="-5.219183">
        <ele>2214.0</ele>
        <time>2018-08-13T12:12:15Z</time>
      </trkpt>
      <trkpt lat="40.493100" lon="-5.219183">
        <ele>2213.0</ele>
        <time>2018-08-13T12:12:16Z</time>
      </trkpt>
      <trkpt lat="40.493200" lon="-5.219183">
        <ele>2213.0</ele>
        <time>2018-08-13T12:12:17Z</time>
      </trkpt>
      <trkpt lat="40.493267" lon="-5.219183">
        <ele>2212.0</ele>
        <time>2018-08-13T12:12:18Z</time>
      </trkpt>
      <trkpt lat="40.493350" lon="-5.219183">
        <ele>2212.0</ele>
        <time>2018-08-13T12:12:19Z</time>
      </trkpt>
      <trkpt lat="40.493417" lon="-5.219183">
        <ele>2210.0</ele>
        <time>2018-08-13T12:12:20Z</time>
      </trkpt>
      <trkpt lat="40.493500" lon="-5.219183">
        <ele>2208.0</ele>
        <time>2018-08-13T12:12:21Z</time>
      </trkpt>
      <trkpt lat="40.493583" lon="-5.219183">
        <ele>2206.0</ele>
        <time>2018-08-13T12:12:22Z</time>
      </trkpt>
      <trkpt lat="40.493667" lon="-5.219183">
        <ele>2205.0</ele>
        <time>2018-08-13T12:12:23Z</time>
      </trkpt>
      <trkpt lat="40.493767" lon="-5.219200">
        <ele>2204.0</ele>
        <time>2018-08-13T12:12:24Z</time>
      </trkpt>
      <trkpt lat="40.493850" lon="-5.219200">
        <ele>2203.0</ele>
        <time>2018-08-13T12:12:25Z</time>
      </trkpt>
      <trkpt lat="40.493933" lon="-5.219217">
        <ele>2203.0</ele>
        <time>2018-08-13T12:12:26Z</time>
      </trkpt>
      <trkpt lat="40.494017" lon="-5.219217">
        <ele>2203.0</ele>
        <time>2018-08-13T12:12:27Z</time>
      </trkpt>
      <trkpt lat="40.494100" lon="-5.219217">
        <ele>2201.0</ele>
        <time>2018-08-13T12:12:28Z</time>
      </trkpt>
      <trkpt lat="40.494167" lon="-5.219217">
        <ele>2199.0</ele>
        <time>2018-08-13T12:12:29Z</time>
      </trkpt>
      <trkpt lat="40.494250" lon="-5.219233">
        <ele>2197.0</ele>
        <time>2018-08-13T12:12:30Z</time>
      </trkpt>
      <trkpt lat="40.494333" lon="-5.219267">
        <ele>2194.0</ele>
        <time>2018-08-13T12:12:31Z</time>
      </trkpt>
      <trkpt lat="40.494417" lon="-5.219300">
        <ele>2192.0</ele>
        <time>2018-08-13T12:12:32Z</time>
      </trkpt>
      <trkpt lat="40.494517" lon="-5.219317">
        <ele>2190.0</ele>
        <time>2018-08-13T12:12:33Z</time>
      </trkpt>
      <trkpt lat="40.494600" lon="-5.219333">
        <ele>2189.0</ele>
        <time>2018-08-13T12:12:34Z</time>
      </trkpt>
      <trkpt lat="40.494683" lon="-5.219333">
        <ele>2188.0</ele>
        <time>2018-08-13T12:12:35Z</time>
      </trkpt>
      <trkpt lat="40.494783" lon="-5.219333">
        <ele>2186.0</ele>
        <time>2018-08-13T12:12:36Z</time>
      </trkpt>
      <trkpt lat="40.494867" lon="-5.219333">
        <ele>2184.0</ele>
        <time>2018-08-13T12:12:37Z</time>
      </trkpt>
      <trkpt lat="40.494967" lon="-5.219350">
        <ele>2185.0</ele>
        <time>2018-08-13T12:12:38Z</time>
      </trkpt>
      <trkpt lat="40.495033" lon="-5.219367">
        <ele>2185.0</ele>
        <time>2018-08-13T12:12:39Z</time>
      </trkpt>
      <trkpt lat="40.495117" lon="-5.219400">
        <ele>2186.0</ele>
        <time>2018-08-13T12:12:40Z</time>
      </trkpt>
      <trkpt lat="40.495200" lon="-5.219433">
        <ele>2187.0</ele>
        <time>2018-08-13T12:12:41Z</time>
      </trkpt>
      <trkpt lat="40.495267" lon="-5.219483">
        <ele>2188.0</ele>
        <time>2018-08-13T12:12:42Z</time>
      </trkpt>
      <trkpt lat="40.495350" lon="-5.219517">
        <ele>2189.0</ele>
        <time>2018-08-13T12:12:43Z</time>
      </trkpt>
      <trkpt lat="40.495417" lon="-5.219533">
        <ele>2191.0</ele>
        <time>2018-08-13T12:12:44Z</time>
      </trkpt>
      <trkpt lat="40.495483" lon="-5.219550">
        <ele>2192.0</ele>
        <time>2018-08-13T12:12:45Z</time>
      </trkpt>
      <trkpt lat="40.495550" lon="-5.219550">
        <ele>2194.0</ele>
        <time>2018-08-13T12:12:46Z</time>
      </trkpt>
      <trkpt lat="40.495617" lon="-5.219567">
        <ele>2195.0</ele>
        <time>2018-08-13T12:12:47Z</time>
      </trkpt>
      <trkpt lat="40.495700" lon="-5.219583">
        <ele>2196.0</ele>
        <time>2018-08-13T12:12:48Z</time>
      </trkpt>
      <trkpt lat="40.495767" lon="-5.219617">
        <ele>2198.0</ele>
        <time>2018-08-13T12:12:49Z</time>
      </trkpt>
      <trkpt lat="40.495850" lon="-5.219667">
        <ele>2201.0</ele>
        <time>2018-08-13T12:12:50Z</time>
      </trkpt>
      <trkpt lat="40.495933" lon="-5.219683">
        <ele>2205.0</ele>
        <time>2018-08-13T12:12:51Z</time>
      </trkpt>
      <trkpt lat="40.496000" lon="-5.219717">
        <ele>2209.0</ele>
        <time>2018-08-13T12:12:52Z</time>
      </trkpt>
      <trkpt lat="40.496067" lon="-5.219717">
        <ele>2214.0</ele>
        <time>2018-08-13T12:12:53Z</time>
      </trkpt>
      <trkpt lat="40.496150" lon="-5.219683">
        <ele>2217.0</ele>
        <time>2018-08-13T12:12:54Z</time>
      </trkpt>
      <trkpt lat="40.496233" lon="-5.219617">
        <ele>2219.0</ele>
        <time>2018-08-13T12:12:55Z</time>
      </trkpt>
      <trkpt lat="40.496317" lon="-5.219500">
        <ele>2221.0</ele>
        <time>2018-08-13T12:12:56Z</time>
      </trkpt>
      <trkpt lat="40.496417" lon="-5.219367">
        <ele>2223.0</ele>
        <time>2018-08-13T12:12:57Z</time>
      </trkpt>
      <trkpt lat="40.496483" lon="-5.219200">
        <ele>2227.0</ele>
        <time>2018-08-13T12:12:58Z</time>
      </trkpt>
      <trkpt lat="40.496517" lon="-5.219017">
        <ele>2231.0</ele>
        <time>2018-08-13T12:12:59Z</time>
      </trkpt>
      <trkpt lat="40.496500" lon="-5.218833">
        <ele>2235.0</ele>
        <time>2018-08-13T12:13:00Z</time>
      </trkpt>
      <trkpt lat="40.496467" lon="-5.218650">
        <ele>2238.0</ele>
        <time>2018-08-13T12:13:01Z</time>
      </trkpt>
      <trkpt lat="40.496400" lon="-5.218500">
        <ele>2240.0</ele>
        <time>2018-08-13T12:13:02Z</time>
      </trkpt>
      <trkpt lat="40.496317" lon="-5.218383">
        <ele>2243.0</ele>
        <time>2018-08-13T12:13:03Z</time>
      </trkpt>
      <trkpt lat="40.496217" lon="-5.218300">
        <ele>2245.0</ele>
        <time>2018-08-13T12:13:04Z</time>
      </trkpt>
      <trkpt lat="40.496117" lon="-5.218283">
        <ele>2247.0</ele>
        <time>2018-08-13T12:13:05Z</time>
      </trkpt>
      <trkpt lat="40.496050" lon="-5.218317">
        <ele>2249.0</ele>
        <time>2018-08-13T12:13:06Z</time>
      </trkpt>
      <trkpt lat="40.496000" lon="-5.218383">
        <ele>2251.0</ele>
        <time>2018-08-13T12:13:07Z</time>
      </trkpt>
      <trkpt lat="40.496000" lon="-5.218450">
        <ele>2254.0</ele>
        <time>2018-08-13T12:13:08Z</time>
      </trkpt>
      <trkpt lat="40.496017" lon="-5.218533">
        <ele>2257.0</ele>
        <time>2018-08-13T12:13:09Z</time>
      </trkpt>
      <trkpt lat="40.496067" lon="-5.218600">
        <ele>2260.0</ele>
        <time>2018-08-13T12:13:10Z</time>
      </trkpt>
      <trkpt lat="40.496150" lon="-5.218633">
        <ele>2263.0</ele>
        <time>2018-08-13T12:13:11Z</time>
      </trkpt>
      <trkpt lat="40.496250" lon="-5.218633">
        <ele>2267.0</ele>
        <time>2018-08-13T12:13:12Z</time>
      </trkpt>
      <trkpt lat="40.496350" lon="-5.218600">
        <ele>2272.0</ele>
        <time>2018-08-13T12:13:13Z</time>
      </trkpt>
      <trkpt lat="40.496433" lon="-5.218567">
        <ele>2277.0</ele>
        <time>2018-08-13T12:13:14Z</time>
      </trkpt>
      <trkpt lat="40.496517" lon="-5.218500">
        <ele>2281.0</ele>
        <time>2018-08-13T12:13:15Z</time>
      </trkpt>
      <trkpt lat="40.496600" lon="-5.218417">
        <ele>2283.0</ele>
        <time>2018-08-13T12:13:16Z</time>
      </trkpt>
      <trkpt lat="40.496667" lon="-5.218317">
        <ele>2284.0</ele>
        <time>2018-08-13T12:13:17Z</time>
      </trkpt>
      <trkpt lat="40.496733" lon="-5.218167">
        <ele>2284.0</ele>
        <time>2018-08-13T12:13:18Z</time>
      </trkpt>
      <trkpt lat="40.496783" lon="-5.218000">
        <ele>2284.0</ele>
        <time>2018-08-13T12:13:19Z</time>
      </trkpt>
      <trkpt lat="40.496783" lon="-5.217817">
        <ele>2283.0</ele>
        <time>2018-08-13T12:13:20Z</time>
      </trkpt>
      <trkpt lat="40.496733" lon="-5.217633">
        <ele>2283.0</ele>
        <time>2018-08-13T12:13:21Z</time>
      </trkpt>
      <trkpt lat="40.496650" lon="-5.217483">
        <ele>2284.0</ele>
        <time>2018-08-13T12:13:22Z</time>
      </trkpt>
      <trkpt lat="40.496533" lon="-5.217367">
        <ele>2286.0</ele>
        <time>2018-08-13T12:13:23Z</time>
      </trkpt>
      <trkpt lat="40.496433" lon="-5.217300">
        <ele>2290.0</ele>
        <time>2018-08-13T12:13:24Z</time>
      </trkpt>
      <trkpt lat="40.496333" lon="-5.217283">
        <ele>2294.0</ele>
        <time>2018-08-13T12:13:25Z</time>
      </trkpt>
      <trkpt lat="40.496250" lon="-5.217283">
        <ele>2298.0</ele>
        <time>2018-08-13T12:13:26Z</time>
      </trkpt>
      <trkpt lat="40.496183" lon="-5.217300">
        <ele>2301.0</ele>
        <time>2018-08-13T12:13:27Z</time>
      </trkpt>
      <trkpt lat="40.496117" lon="-5.217333">
        <ele>2304.0</ele>
        <time>2018-08-13T12:13:28Z</time>
      </trkpt>
      <trkpt lat="40.496050" lon="-5.217367">
        <ele>2307.0</ele>
        <time>2018-08-13T12:13:29Z</time>
      </trkpt>
      <trkpt lat="40.496000" lon="-5.217417">
        <ele>2309.0</ele>
        <time>2018-08-13T12:13:30Z</time>
      </trkpt>
      <trkpt lat="40.495967" lon="-5.217483">
        <ele>2312.0</ele>
        <time>2018-08-13T12:13:31Z</time>
      </trkpt>
      <trkpt lat="40.495950" lon="-5.217567">
        <ele>2315.0</ele>
        <time>2018-08-13T12:13:32Z</time>
      </trkpt>
      <trkpt lat="40.495950" lon="-5.217650">
        <ele>2319.0</ele>
        <time>2018-08-13T12:13:33Z</time>
      </trkpt>
      <trkpt lat="40.495967" lon="-5.217717">
        <ele>2324.0</ele>
        <time>2018-08-13T12:13:34Z</time>
      </trkpt>
      <trkpt lat="40.495983" lon="-5.217783">
        <ele>2330.0</ele>
        <time>2018-08-13T12:13:35Z</time>
      </trkpt>
      <trkpt lat="40.496017" lon="-5.217833">
        <ele>2335.0</ele>
        <time>2018-08-13T12:13:36Z</time>
      </trkpt>
      <trkpt lat="40.496050" lon="-5.217867">
        <ele>2339.0</ele>
        <time>2018-08-13T12:13:37Z</time>
      </trkpt>
      <trkpt lat="40.496083" lon="-5.217900">
        <ele>2341.0</ele>
        <time>2018-08-13T12:13:38Z</time>
      </trkpt>
      <trkpt lat="40.496133" lon="-5.217917">
        <ele>2343.0</ele>
        <time>2018-08-13T12:13:39Z</time>
      </trkpt>
      <trkpt lat="40.496200" lon="-5.217917">
        <ele>2342.0</ele>
        <time>2018-08-13T12:13:40Z</time>
      </trkpt>
      <trkpt lat="40.496283" lon="-5.217883">
        <ele>2342.0</ele>
        <time>2018-08-13T12:13:41Z</time>
      </trkpt>
      <trkpt lat="40.496383" lon="-5.217817">
        <ele>2341.0</ele>
        <time>2018-08-13T12:13:42Z</time>
      </trkpt>
      <trkpt lat="40.496467" lon="-5.217717">
        <ele>2341.0</ele>
        <time>2018-08-13T12:13:43Z</time>
      </trkpt>
      <trkpt lat="40.496533" lon="-5.217567">
        <ele>2341.0</ele>
        <time>2018-08-13T12:13:44Z</time>
      </trkpt>
      <trkpt lat="40.496583" lon="-5.217417">
        <ele>2341.0</ele>
        <time>2018-08-13T12:13:45Z</time>
      </trkpt>
      <trkpt lat="40.496633" lon="-5.217233">
        <ele>2340.0</ele>
        <time>2018-08-13T12:13:46Z</time>
      </trkpt>
      <trkpt lat="40.496667" lon="-5.217050">
        <ele>2341.0</ele>
        <time>2018-08-13T12:13:47Z</time>
      </trkpt>
      <trkpt lat="40.496700" lon="-5.216867">
        <ele>2342.0</ele>
        <time>2018-08-13T12:13:48Z</time>
      </trkpt>
      <trkpt lat="40.496683" lon="-5.216667">
        <ele>2343.0</ele>
        <time>2018-08-13T12:13:49Z</time>
      </trkpt>
      <trkpt lat="40.496633" lon="-5.216500">
        <ele>2344.0</ele>
        <time>2018-08-13T12:13:50Z</time>
      </trkpt>
      <trkpt lat="40.496550" lon="-5.216333">
        <ele>2344.0</ele>
        <time>2018-08-13T12:13:51Z</time>
      </trkpt>
      <trkpt lat="40.496467" lon="-5.216200">
        <ele>2344.0</ele>
        <time>2018-08-13T12:13:52Z</time>
      </trkpt>
      <trkpt lat="40.496350" lon="-5.216067">
        <ele>2345.0</ele>
        <time>2018-08-13T12:13:53Z</time>
      </trkpt>
      <trkpt lat="40.496267" lon="-5.215950">
        <ele>2349.0</ele>
        <time>2018-08-13T12:13:54Z</time>
      </trkpt>
      <trkpt lat="40.496183" lon="-5.215850">
        <ele>2354.0</ele>
        <time>2018-08-13T12:13:55Z</time>
      </trkpt>
      <trkpt lat="40.496100" lon="-5.215767">
        <ele>2358.0</ele>
        <time>2018-08-13T12:13:56Z</time>
      </trkpt>
      <trkpt lat="40.496033" lon="-5.215683">
        <ele>2361.0</ele>
        <time>2018-08-13T12:13:57Z</time>
      </trkpt>
      <trkpt lat="40.495950" lon="-5.215583">
        <ele>2362.0</ele>
        <time>2018-08-13T12:13:58Z</time>
      </trkpt>
      <trkpt lat="40.495850" lon="-5.215483">
        <ele>2364.0</ele>
        <time>2018-08-13T12:13:59Z</time>
      </trkpt>
      <trkpt lat="40.495733" lon="-5.215400">
        <ele>2366.0</ele>
        <time>2018-08-13T12:14:00Z</time>
      </trkpt>
      <trkpt lat="40.495633" lon="-5.215333">
        <ele>2370.0</ele>
        <time>2018-08-13T12:14:01Z</time>
      </trkpt>
      <trkpt lat="40.495517" lon="-5.215283">
        <ele>2374.0</ele>
        <time>2018-08-13T12:14:02Z</time>
      </trkpt>
      <trkpt lat="40.495433" lon="-5.215233">
        <ele>2378.0</ele>
        <time>2018-08-13T12:14:03Z</time>
      </trkpt>
      <trkpt lat="40.495333" lon="-5.215183">
        <ele>2381.0</ele>
        <time>2018-08-13T12:14:04Z</time>
      </trkpt>
      <trkpt lat="40.495250" lon="-5.215117">
        <ele>2384.0</ele>
        <time>2018-08-13T12:14:05Z</time>
      </trkpt>
      <trkpt lat="40.495167" lon="-5.215083">
        <ele>2386.0</ele>
        <time>2018-08-13T12:14:06Z</time>
      </trkpt>
      <trkpt lat="40.495083" lon="-5.215083">
        <ele>2386.0</ele>
        <time>2018-08-13T12:14:07Z</time>
      </trkpt>
      <trkpt lat="40.495000" lon="-5.215117">
        <ele>2386.0</ele>
        <time>2018-08-13T12:14:08Z</time>
      </trkpt>
      <trkpt lat="40.494917" lon="-5.215183">
        <ele>2388.0</ele>
        <time>2018-08-13T12:14:09Z</time>
      </trkpt>
      <trkpt lat="40.494867" lon="-5.215267">
        <ele>2391.0</ele>
        <time>2018-08-13T12:14:10Z</time>
      </trkpt>
      <trkpt lat="40.494833" lon="-5.215350">
        <ele>2395.0</ele>
        <time>2018-08-13T12:14:11Z</time>
      </trkpt>
      <trkpt lat="40.494817" lon="-5.215433">
        <ele>2398.0</ele>
        <time>2018-08-13T12:14:12Z</time>
      </trkpt>
      <trkpt lat="40.494833" lon="-5.215500">
        <ele>2400.0</ele>
        <time>2018-08-13T12:14:13Z</time>
      </trkpt>
      <trkpt lat="40.494850" lon="-5.215583">
        <ele>2401.0</ele>
        <time>2018-08-13T12:14:14Z</time>
      </trkpt>
      <trkpt lat="40.494900" lon="-5.215667">
        <ele>2401.0</ele>
        <time>2018-08-13T12:14:15Z</time>
      </trkpt>
      <trkpt lat="40.494983" lon="-5.215717">
        <ele>2402.0</ele>
        <time>2018-08-13T12:14:16Z</time>
      </trkpt>
      <trkpt lat="40.495067" lon="-5.215733">
        <ele>2404.0</ele>
        <time>2018-08-13T12:14:17Z</time>
      </trkpt>
      <trkpt lat="40.495150" lon="-5.215700">
        <ele>2406.0</ele>
        <time>2018-08-13T12:14:18Z</time>
      </trkpt>
      <trkpt lat="40.495250" lon="-5.215650">
        <ele>2406.0</ele>
        <time>2018-08-13T12:14:19Z</time>
      </trkpt>
      <trkpt lat="40.495350" lon="-5.215567">
        <ele>2407.0</ele>
        <time>2018-08-13T12:14:20Z</time>
      </trkpt>
      <trkpt lat="40.495450" lon="-5.215467">
        <ele>2409.0</ele>
        <time>2018-08-13T12:14:21Z</time>
      </trkpt>
      <trkpt lat="40.495533" lon="-5.215333">
        <ele>2412.0</ele>
        <time>2018-08-13T12:14:22Z</time>
      </trkpt>
      <trkpt lat="40.495600" lon="-5.215167">
        <ele>2415.0</ele>
        <time>2018-08-13T12:14:23Z</time>
      </trkpt>
      <trkpt lat="40.495650" lon="-5.214967">
        <ele>2418.0</ele>
        <time>2018-08-13T12:14:24Z</time>
      </trkpt>
      <trkpt lat="40.495683" lon="-5.214783">
        <ele>2422.0</ele>
        <time>2018-08-13T12:14:25Z</time>
      </trkpt>
      <trkpt lat="40.495700" lon="-5.214600">
        <ele>2426.0</ele>
        <time>2018-08-13T12:14:26Z</time>
      </trkpt>
      <trkpt lat="40.495733" lon="-5.214433">
        <ele>2430.0</ele>
        <time>2018-08-13T12:14:27Z</time>
      </trkpt>
      <trkpt lat="40.495767" lon="-5.214250">
        <ele>2433.0</ele>
        <time>2018-08-13T12:14:28Z</time>
      </trkpt>
      <trkpt lat="40.495783" lon="-5.214067">
        <ele>2435.0</ele>
        <time>2018-08-13T12:14:29Z</time>
      </trkpt>
      <trkpt lat="40.495800" lon="-5.213867">
        <ele>2438.0</ele>
        <time>2018-08-13T12:14:30Z</time>
      </trkpt>
      <trkpt lat="40.495817" lon="-5.213667">
        <ele>2441.0</ele>
        <time>2018-08-13T12:14:31Z</time>
      </trkpt>
      <trkpt lat="40.495833" lon="-5.213483">
        <ele>2445.0</ele>
        <time>2018-08-13T12:14:32Z</time>
      </trkpt>
      <trkpt lat="40.495833" lon="-5.213300">
        <ele>2449.0</ele>
        <time>2018-08-13T12:14:33Z</time>
      </trkpt>
      <trkpt lat="40.495833" lon="-5.213133">
        <ele>2452.0</ele>
        <time>2018-08-13T12:14:34Z</time>
      </trkpt>
      <trkpt lat="40.495800" lon="-5.212967">
        <ele>2454.0</ele>
        <time>2018-08-13T12:14:35Z</time>
      </trkpt>
      <trkpt lat="40.495733" lon="-5.212800">
        <ele>2456.0</ele>
        <time>2018-08-13T12:14:36Z</time>
      </trkpt>
      <trkpt lat="40.495650" lon="-5.212683">
        <ele>2456.0</ele>
        <time>2018-08-13T12:14:37Z</time>
      </trkpt>
      <trkpt lat="40.495550" lon="-5.212583">
        <ele>2457.0</ele>
        <time>2018-08-13T12:14:38Z</time>
      </trkpt>
      <trkpt lat="40.495417" lon="-5.212517">
        <ele>2459.0</ele>
        <time>2018-08-13T12:14:39Z</time>
      </trkpt>
      <trkpt lat="40.495317" lon="-5.212500">
        <ele>2462.0</ele>
        <time>2018-08-13T12:14:40Z</time>
      </trkpt>
      <trkpt lat="40.495217" lon="-5.212533">
        <ele>2464.0</ele>
        <time>2018-08-13T12:14:41Z</time>
      </trkpt>
      <trkpt lat="40.495167" lon="-5.212600">
        <ele>2466.0</ele>
        <time>2018-08-13T12:14:42Z</time>
      </trkpt>
      <trkpt lat="40.495117" lon="-5.212667">
        <ele>2467.0</ele>
        <time>2018-08-13T12:14:43Z</time>
      </trkpt>
      <trkpt lat="40.495100" lon="-5.212733">
        <ele>2468.0</ele>
        <time>2018-08-13T12:14:44Z</time>
      </trkpt>
      <trkpt lat="40.495067" lon="-5.212817">
        <ele>2469.0</ele>
        <time>2018-08-13T12:14:45Z</time>
      </trkpt>
      <trkpt lat="40.495067" lon="-5.212883">
        <ele>2471.0</ele>
        <time>2018-08-13T12:14:46Z</time>
      </trkpt>
      <trkpt lat="40.495067" lon="-5.212967">
        <ele>2472.0</ele>
        <time>2018-08-13T12:14:47Z</time>
      </trkpt>
      <trkpt lat="40.495117" lon="-5.213033">
        <ele>2475.0</ele>
        <time>2018-08-13T12:14:48Z</time>
      </trkpt>
      <trkpt lat="40.495167" lon="-5.213100">
        <ele>2477.0</ele>
        <time>2018-08-13T12:14:49Z</time>
      </trkpt>
      <trkpt lat="40.495233" lon="-5.213133">
        <ele>2479.0</ele>
        <time>2018-08-13T12:14:50Z</time>
      </trkpt>
      <trkpt lat="40.495317" lon="-5.213133">
        <ele>2482.0</ele>
        <time>2018-08-13T12:14:51Z</time>
      </trkpt>
      <trkpt lat="40.495383" lon="-5.213133">
        <ele>2484.0</ele>
        <time>2018-08-13T12:14:52Z</time>
      </trkpt>
      <trkpt lat="40.495467" lon="-5.213100">
        <ele>2485.0</ele>
        <time>2018-08-13T12:14:53Z</time>
      </trkpt>
      <trkpt lat="40.495550" lon="-5.213067">
        <ele>2485.0</ele>
        <time>2018-08-13T12:14:54Z</time>
      </trkpt>
      <trkpt lat="40.495650" lon="-5.213017">
        <ele>2486.0</ele>
        <time>2018-08-13T12:14:55Z</time>
      </trkpt>
      <trkpt lat="40.495767" lon="-5.212950">
        <ele>2488.0</ele>
        <time>2018-08-13T12:14:56Z</time>
      </trkpt>
      <trkpt lat="40.495867" lon="-5.212867">
        <ele>2490.0</ele>
        <time>2018-08-13T12:14:57Z</time>
      </trkpt>
      <trkpt lat="40.495967" lon="-5.212733">
        <ele>2494.0</ele>
        <time>2018-08-13T12:14:58Z</time>
      </trkpt>
      <trkpt lat="40.496067" lon="-5.212600">
        <ele>2496.0</ele>
        <time>2018-08-13T12:14:59Z</time>
      </trkpt>
      <trkpt lat="40.496133" lon="-5.212433">
        <ele>2499.0</ele>
        <time>2018-08-13T12:15:00Z</time>
      </trkpt>
      <trkpt lat="40.496200" lon="-5.212283">
        <ele>2502.0</ele>
        <time>2018-08-13T12:15:01Z</time>
      </trkpt>
      <trkpt lat="40.496267" lon="-5.212117">
        <ele>2505.0</ele>
        <time>2018-08-13T12:15:02Z</time>
      </trkpt>
      <trkpt lat="40.496317" lon="-5.211967">
        <ele>2508.0</ele>
        <time>2018-08-13T12:15:03Z</time>
      </trkpt>
      <trkpt lat="40.496367" lon="-5.211800">
        <ele>2511.0</ele>
        <time>2018-08-13T12:15:04Z</time>
      </trkpt>
      <trkpt lat="40.496417" lon="-5.211633">
        <ele>2512.0</ele>
        <time>2018-08-13T12:15:05Z</time>
      </trkpt>
      <trkpt lat="40.496450" lon="-5.211450">
        <ele>2512.0</ele>
        <time>2018-08-13T12:15:06Z</time>
      </trkpt>
      <trkpt lat="40.496483" lon="-5.211267">
        <ele>2512.0</ele>
        <time>2018-08-13T12:15:07Z</time>
      </trkpt>
      <trkpt lat="40.496500" lon="-5.211067">
        <ele>2513.0</ele>
        <time>2018-08-13T12:15:08Z</time>
      </trkpt>
      <trkpt lat="40.496483" lon="-5.210883">
        <ele>2513.0</ele>
        <time>2018-08-13T12:15:09Z</time>
      </trkpt>
      <trkpt lat="40.496450" lon="-5.210700">
        <ele>2514.0</ele>
        <time>2018-08-13T12:15:10Z</time>
      </trkpt>
      <trkpt lat="40.496400" lon="-5.210533">
        <ele>2514.0</ele>
        <time>2018-08-13T12:15:11Z</time>
      </trkpt>
      <trkpt lat="40.496333" lon="-5.210383">
        <ele>2516.0</ele>
        <time>2018-08-13T12:15:12Z</time>
      </trkpt>
      <trkpt lat="40.496267" lon="-5.210267">
        <ele>2516.0</ele>
        <time>2018-08-13T12:15:13Z</time>
      </trkpt>
      <trkpt lat="40.496183" lon="-5.210150">
        <ele>2516.0</ele>
        <time>2018-08-13T12:15:14Z</time>
      </trkpt>
      <trkpt lat="40.496100" lon="-5.210067">
        <ele>2516.0</ele>
        <time>2018-08-13T12:15:15Z</time>
      </trkpt>
      <trkpt lat="40.496000" lon="-5.210000">
        <ele>2515.0</ele>
        <time>2018-08-13T12:15:16Z</time>
      </trkpt>
      <trkpt lat="40.495900" lon="-5.209933">
        <ele>2516.0</ele>
        <time>2018-08-13T12:15:17Z</time>
      </trkpt>
      <trkpt lat="40.495800" lon="-5.209867">
        <ele>2517.0</ele>
        <time>2018-08-13T12:15:18Z</time>
      </trkpt>
      <trkpt lat="40.495700" lon="-5.209783">
        <ele>2518.0</ele>
        <time>2018-08-13T12:15:19Z</time>
      </trkpt>
      <trkpt lat="40.495600" lon="-5.209733">
        <ele>2519.0</ele>
        <time>2018-08-13T12:15:20Z</time>
      </trkpt>
      <trkpt lat="40.495517" lon="-5.209700">
        <ele>2519.0</ele>
        <time>2018-08-13T12:15:21Z</time>
      </trkpt>
      <trkpt lat="40.495417" lon="-5.209667">
        <ele>2519.0</ele>
        <time>2018-08-13T12:15:22Z</time>
      </trkpt>
      <trkpt lat="40.495333" lon="-5.209667">
        <ele>2518.0</ele>
        <time>2018-08-13T12:15:23Z</time>
      </trkpt>
      <trkpt lat="40.495250" lon="-5.209700">
        <ele>2518.0</ele>
        <time>2018-08-13T12:15:24Z</time>
      </trkpt>
      <trkpt lat="40.495183" lon="-5.209750">
        <ele>2517.0</ele>
        <time>2018-08-13T12:15:25Z</time>
      </trkpt>
      <trkpt lat="40.495150" lon="-5.209833">
        <ele>2517.0</ele>
        <time>2018-08-13T12:15:26Z</time>
      </trkpt>
      <trkpt lat="40.495133" lon="-5.209917">
        <ele>2517.0</ele>
        <time>2018-08-13T12:15:27Z</time>
      </trkpt>
      <trkpt lat="40.495133" lon="-5.210000">
        <ele>2518.0</ele>
        <time>2018-08-13T12:15:28Z</time>
      </trkpt>
      <trkpt lat="40.495133" lon="-5.210083">
        <ele>2520.0</ele>
        <time>2018-08-13T12:15:29Z</time>
      </trkpt>
      <trkpt lat="40.495150" lon="-5.210150">
        <ele>2521.0</ele>
        <time>2018-08-13T12:15:30Z</time>
      </trkpt>
      <trkpt lat="40.495167" lon="-5.210217">
        <ele>2522.0</ele>
        <time>2018-08-13T12:15:31Z</time>
      </trkpt>
      <trkpt lat="40.495183" lon="-5.210283">
        <ele>2523.0</ele>
        <time>2018-08-13T12:15:32Z</time>
      </trkpt>
      <trkpt lat="40.495217" lon="-5.210350">
        <ele>2524.0</ele>
        <time>2018-08-13T12:15:33Z</time>
      </trkpt>
      <trkpt lat="40.495267" lon="-5.210400">
        <ele>2526.0</ele>
        <time>2018-08-13T12:15:34Z</time>
      </trkpt>
      <trkpt lat="40.495317" lon="-5.210450">
        <ele>2528.0</ele>
        <time>2018-08-13T12:15:35Z</time>
      </trkpt>
      <trkpt lat="40.495350" lon="-5.210500">
        <ele>2530.0</ele>
        <time>2018-08-13T12:15:36Z</time>
      </trkpt>
      <trkpt lat="40.495400" lon="-5.210533">
        <ele>2531.0</ele>
        <time>2018-08-13T12:15:37Z</time>
      </trkpt>
      <trkpt lat="40.495433" lon="-5.210583">
        <ele>2533.0</ele>
        <time>2018-08-13T12:15:38Z</time>
      </trkpt>
      <trkpt lat="40.495467" lon="-5.210650">
        <ele>2536.0</ele>
        <time>2018-08-13T12:15:39Z</time>
      </trkpt>
      <trkpt lat="40.495500" lon="-5.210700">
        <ele>2538.0</ele>
        <time>2018-08-13T12:15:40Z</time>
      </trkpt>
      <trkpt lat="40.495550" lon="-5.210750">
        <ele>2540.0</ele>
        <time>2018-08-13T12:15:41Z</time>
      </trkpt>
      <trkpt lat="40.495633" lon="-5.210783">
        <ele>2542.0</ele>
        <time>2018-08-13T12:15:42Z</time>
      </trkpt>
      <trkpt lat="40.495717" lon="-5.210783">
        <ele>2543.0</ele>
        <time>2018-08-13T12:15:43Z</time>
      </trkpt>
      <trkpt lat="40.495833" lon="-5.210767">
        <ele>2545.0</ele>
        <time>2018-08-13T12:15:44Z</time>
      </trkpt>
      <trkpt lat="40.495967" lon="-5.210700">
        <ele>2547.0</ele>
        <time>2018-08-13T12:15:45Z</time>
      </trkpt>
      <trkpt lat="40.496083" lon="-5.210600">
        <ele>2550.0</ele>
        <time>2018-08-13T12:15:46Z</time>
      </trkpt>
      <trkpt lat="40.496183" lon="-5.210467">
        <ele>2554.0</ele>
        <time>2018-08-13T12:15:47Z</time>
      </trkpt>
      <trkpt lat="40.496233" lon="-5.210317">
        <ele>2558.0</ele>
        <time>2018-08-13T12:15:48Z</time>
      </trkpt>
      <trkpt lat="40.496283" lon="-5.210183">
        <ele>2560.0</ele>
        <time>2018-08-13T12:15:49Z</time>
      </trkpt>
      <trkpt lat="40.496317" lon="-5.210033">
        <ele>2561.0</ele>
        <time>2018-08-13T12:15:50Z</time>
      </trkpt>
      <trkpt lat="40.496317" lon="-5.209883">
        <ele>2560.0</ele>
        <time>2018-08-13T12:15:51Z</time>
      </trkpt>
      <trkpt lat="40.496300" lon="-5.209717">
        <ele>2559.0</ele>
        <time>2018-08-13T12:15:52Z</time>
      </trkpt>
      <trkpt lat="40.496267" lon="-5.209533">
        <ele>2559.0</ele>
        <time>2018-08-13T12:15:53Z</time>
      </trkpt>
      <trkpt lat="40.496200" lon="-5.209400">
        <ele>2560.0</ele>
        <time>2018-08-13T12:15:54Z</time>
      </trkpt>
      <trkpt lat="40.496100" lon="-5.209283">
        <ele>2562.0</ele>
        <time>2018-08-13T12:15:55Z</time>
      </trkpt>
      <trkpt lat="40.496017" lon="-5.209217">
        <ele>2564.0</ele>
        <time>2018-08-13T12:15:56Z</time>
      </trkpt>
      <trkpt lat="40.495917" lon="-5.209183">
        <ele>2565.0</ele>
        <time>2018-08-13T12:15:57Z</time>
      </trkpt>
      <trkpt lat="40.495850" lon="-5.209183">
        <ele>2567.0</ele>
        <time>2018-08-13T12:15:58Z</time>
      </trkpt>
      <trkpt lat="40.495783" lon="-5.209200">
        <ele>2569.0</ele>
        <time>2018-08-13T12:15:59Z</time>
      </trkpt>
      <trkpt lat="40.495733" lon="-5.209217">
        <ele>2570.0</ele>
        <time>2018-08-13T12:16:00Z</time>
      </trkpt>
      <trkpt lat="40.495700" lon="-5.209283">
        <ele>2571.0</ele>
        <time>2018-08-13T12:16:01Z</time>
      </trkpt>
      <trkpt lat="40.495683" lon="-5.209367">
        <ele>2571.0</ele>
        <time>2018-08-13T12:16:02Z</time>
      </trkpt>
      <trkpt lat="40.495717" lon="-5.209433">
        <ele>2573.0</ele>
        <time>2018-08-13T12:16:03Z</time>
      </trkpt>
      <trkpt lat="40.495767" lon="-5.209500">
        <ele>2575.0</ele>
        <time>2018-08-13T12:16:04Z</time>
      </trkpt>
      <trkpt lat="40.495867" lon="-5.209533">
        <ele>2577.0</ele>
        <time>2018-08-13T12:16:05Z</time>
      </trkpt>
      <trkpt lat="40.495967" lon="-5.209533">
        <ele>2579.0</ele>
        <time>2018-08-13T12:16:06Z</time>
      </trkpt>
      <trkpt lat="40.496067" lon="-5.209483">
        <ele>2582.0</ele>
        <time>2018-08-13T12:16:07Z</time>
      </trkpt>
      <trkpt lat="40.496167" lon="-5.209433">
        <ele>2583.0</ele>
        <time>2018-08-13T12:16:08Z</time>
      </trkpt>
      <trkpt lat="40.496267" lon="-5.209367">
        <ele>2586.0</ele>
        <time>2018-08-13T12:16:09Z</time>
      </trkpt>
      <trkpt lat="40.496367" lon="-5.209317">
        <ele>2587.0</ele>
        <time>2018-08-13T12:16:10Z</time>
      </trkpt>
      <trkpt lat="40.496450" lon="-5.209283">
        <ele>2588.0</ele>
        <time>2018-08-13T12:16:11Z</time>
      </trkpt>
      <trkpt lat="40.496533" lon="-5.209217">
        <ele>2588.0</ele>
        <time>2018-08-13T12:16:12Z</time>
      </trkpt>
      <trkpt lat="40.496617" lon="-5.209117">
        <ele>2587.0</ele>
        <time>2018-08-13T12:16:13Z</time>
      </trkpt>
      <trkpt lat="40.496700" lon="-5.209000">
        <ele>2585.0</ele>
        <time>2018-08-13T12:16:14Z</time>
      </trkpt>
      <trkpt lat="40.496767" lon="-5.208850">
        <ele>2582.0</ele>
        <time>2018-08-13T12:16:15Z</time>
      </trkpt>
      <trkpt lat="40.496850" lon="-5.208717">
        <ele>2581.0</ele>
        <time>2018-08-13T12:16:16Z</time>
      </trkpt>
      <trkpt lat="40.496917" lon="-5.208583">
        <ele>2579.0</ele>
        <time>2018-08-13T12:16:17Z</time>
      </trkpt>
      <trkpt lat="40.496967" lon="-5.208450">
        <ele>2577.0</ele>
        <time>2018-08-13T12:16:18Z</time>
      </trkpt>
      <trkpt lat="40.497017" lon="-5.208317">
        <ele>2575.0</ele>
        <time>2018-08-13T12:16:19Z</time>
      </trkpt>
      <trkpt lat="40.497050" lon="-5.208150">
        <ele>2571.0</ele>
        <time>2018-08-13T12:16:20Z</time>
      </trkpt>
      <trkpt lat="40.497100" lon="-5.207983">
        <ele>2568.0</ele>
        <time>2018-08-13T12:16:21Z</time>
      </trkpt>
      <trkpt lat="40.497133" lon="-5.207817">
        <ele>2566.0</ele>
        <time>2018-08-13T12:16:22Z</time>
      </trkpt>
      <trkpt lat="40.497167" lon="-5.207650">
        <ele>2565.0</ele>
        <time>2018-08-13T12:16:23Z</time>
      </trkpt>
      <trkpt lat="40.497200" lon="-5.207483">
        <ele>2563.0</ele>
        <time>2018-08-13T12:16:24Z</time>
      </trkpt>
      <trkpt lat="40.497233" lon="-5.207333">
        <ele>2562.0</ele>
        <time>2018-08-13T12:16:25Z</time>
      </trkpt>
      <trkpt lat="40.497267" lon="-5.207167">
        <ele>2561.0</ele>
        <time>2018-08-13T12:16:26Z</time>
      </trkpt>
      <trkpt lat="40.497333" lon="-5.207017">
        <ele>2560.0</ele>
        <time>2018-08-13T12:16:27Z</time>
      </trkpt>
      <trkpt lat="40.497417" lon="-5.206883">
        <ele>2558.0</ele>
        <time>2018-08-13T12:16:28Z</time>
      </trkpt>
      <trkpt lat="40.497500" lon="-5.206767">
        <ele>2557.0</ele>
        <time>2018-08-13T12:16:29Z</time>
      </trkpt>
      <trkpt lat="40.497583" lon="-5.206667">
        <ele>2555.0</ele>
        <time>2018-08-13T12:16:30Z</time>
      </trkpt>
      <trkpt lat="40.497667" lon="-5.206550">
        <ele>2553.0</ele>
        <time>2018-08-13T12:16:31Z</time>
      </trkpt>
      <trkpt lat="40.497750" lon="-5.206417">
        <ele>2550.0</ele>
        <time>2018-08-13T12:16:32Z</time>
      </trkpt>
      <trkpt lat="40.497833" lon="-5.206300">
        <ele>2548.0</ele>
        <time>2018-08-13T12:16:33Z</time>
      </trkpt>
      <trkpt lat="40.497917" lon="-5.206167">
        <ele>2546.0</ele>
        <time>2018-08-13T12:16:34Z</time>
      </trkpt>
      <trkpt lat="40.498017" lon="-5.206050">
        <ele>2544.0</ele>
        <time>2018-08-13T12:16:35Z</time>
      </trkpt>
      <trkpt lat="40.498100" lon="-5.205950">
        <ele>2543.0</ele>
        <time>2018-08-13T12:16:36Z</time>
      </trkpt>
      <trkpt lat="40.498183" lon="-5.205833">
        <ele>2541.0</ele>
        <time>2018-08-13T12:16:37Z</time>
      </trkpt>
      <trkpt lat="40.498267" lon="-5.205717">
        <ele>2539.0</ele>
        <time>2018-08-13T12:16:38Z</time>
      </trkpt>
      <trkpt lat="40.498367" lon="-5.205600">
        <ele>2537.0</ele>
        <time>2018-08-13T12:16:39Z</time>
      </trkpt>
      <trkpt lat="40.498467" lon="-5.205483">
        <ele>2535.0</ele>
        <time>2018-08-13T12:16:40Z</time>
      </trkpt>
      <trkpt lat="40.498550" lon="-5.205383">
        <ele>2534.0</ele>
        <time>2018-08-13T12:16:41Z</time>
      </trkpt>
      <trkpt lat="40.498650" lon="-5.205267">
        <ele>2532.0</ele>
        <time>2018-08-13T12:16:42Z</time>
      </trkpt>
      <trkpt lat="40.498750" lon="-5.205150">
        <ele>2530.0</ele>
        <time>2018-08-13T12:16:43Z</time>
      </trkpt>
      <trkpt lat="40.498833" lon="-5.205033">
        <ele>2528.0</ele>
        <time>2018-08-13T12:16:44Z</time>
      </trkpt>
      <trkpt lat="40.498933" lon="-5.204933">
        <ele>2527.0</ele>
        <time>2018-08-13T12:16:45Z</time>
      </trkpt>
      <trkpt lat="40.499033" lon="-5.204850">
        <ele>2526.0</ele>
        <time>2018-08-13T12:16:46Z</time>
      </trkpt>
      <trkpt lat="40.499133" lon="-5.204767">
        <ele>2524.0</ele>
        <time>2018-08-13T12:16:47Z</time>
      </trkpt>
      <trkpt lat="40.499233" lon="-5.204700">
        <ele>2522.0</ele>
        <time>2018-08-13T12:16:48Z</time>
      </trkpt>
      <trkpt lat="40.499333" lon="-5.204633">
        <ele>2520.0</ele>
        <time>2018-08-13T12:16:49Z</time>
      </trkpt>
      <trkpt lat="40.499433" lon="-5.204583">
        <ele>2519.0</ele>
        <time>2018-08-13T12:16:50Z</time>
      </trkpt>
      <trkpt lat="40.499533" lon="-5.204567">
        <ele>2517.0</ele>
        <time>2018-08-13T12:16:51Z</time>
      </trkpt>
      <trkpt lat="40.499617" lon="-5.204550">
        <ele>2514.0</ele>
        <time>2018-08-13T12:16:52Z</time>
      </trkpt>
      <trkpt lat="40.499717" lon="-5.204533">
        <ele>2511.0</ele>
        <time>2018-08-13T12:16:53Z</time>
      </trkpt>
      <trkpt lat="40.499817" lon="-5.204483">
        <ele>2507.0</ele>
        <time>2018-08-13T12:16:54Z</time>
      </trkpt>
      <trkpt lat="40.499933" lon="-5.204400">
        <ele>2502.0</ele>
        <time>2018-08-13T12:16:55Z</time>
      </trkpt>
      <trkpt lat="40.500050" lon="-5.204300">
        <ele>2498.0</ele>
        <time>2018-08-13T12:16:56Z</time>
      </trkpt>
      <trkpt lat="40.500167" lon="-5.204183">
        <ele>2494.0</ele>
        <time>2018-08-13T12:16:57Z</time>
      </trkpt>
      <trkpt lat="40.500283" lon="-5.204050">
        <ele>2492.0</ele>
        <time>2018-08-13T12:16:58Z</time>
      </trkpt>
      <trkpt lat="40.500383" lon="-5.203900">
        <ele>2491.0</ele>
        <time>2018-08-13T12:16:59Z</time>
      </trkpt>
      <trkpt lat="40.500450" lon="-5.203733">
        <ele>2490.0</ele>
        <time>2018-08-13T12:17:00Z</time>
      </trkpt>
      <trkpt lat="40.500517" lon="-5.203583">
        <ele>2488.0</ele>
        <time>2018-08-13T12:17:01Z</time>
      </trkpt>
      <trkpt lat="40.500567" lon="-5.203433">
        <ele>2485.0</ele>
        <time>2018-08-13T12:17:02Z</time>
      </trkpt>
      <trkpt lat="40.500650" lon="-5.203283">
        <ele>2482.0</ele>
        <time>2018-08-13T12:17:03Z</time>
      </trkpt>
      <trkpt lat="40.500733" lon="-5.203133">
        <ele>2479.0</ele>
        <time>2018-08-13T12:17:04Z</time>
      </trkpt>
      <trkpt lat="40.500833" lon="-5.202983">
        <ele>2477.0</ele>
        <time>2018-08-13T12:17:05Z</time>
      </trkpt>
      <trkpt lat="40.500933" lon="-5.202850">
        <ele>2476.0</ele>
        <time>2018-08-13T12:17:06Z</time>
      </trkpt>
      <trkpt lat="40.501017" lon="-5.202700">
        <ele>2476.0</ele>
        <time>2018-08-13T12:17:07Z</time>
      </trkpt>
      <trkpt lat="40.501117" lon="-5.202567">
        <ele>2475.0</ele>
        <time>2018-08-13T12:17:08Z</time>
      </trkpt>
      <trkpt lat="40.501200" lon="-5.202433">
        <ele>2474.0</ele>
        <time>2018-08-13T12:17:09Z</time>
      </trkpt>
      <trkpt lat="40.501283" lon="-5.202317">
        <ele>2472.0</ele>
        <time>2018-08-13T12:17:10Z</time>
      </trkpt>
      <trkpt lat="40.501383" lon="-5.202200">
        <ele>2470.0</ele>
        <time>2018-08-13T12:17:11Z</time>
      </trkpt>
      <trkpt lat="40.501483" lon="-5.202083">
        <ele>2468.0</ele>
        <time>2018-08-13T12:17:12Z</time>
      </trkpt>
      <trkpt lat="40.501583" lon="-5.201967">
        <ele>2467.0</ele>
        <time>2018-08-13T12:17:13Z</time>
      </trkpt>
      <trkpt lat="40.501683" lon="-5.201850">
        <ele>2465.0</ele>
        <time>2018-08-13T12:17:14Z</time>
      </trkpt>
      <trkpt lat="40.501783" lon="-5.201717">
        <ele>2463.0</ele>
        <time>2018-08-13T12:17:15Z</time>
      </trkpt>
      <trkpt lat="40.501883" lon="-5.201600">
        <ele>2461.0</ele>
        <time>2018-08-13T12:17:16Z</time>
      </trkpt>
      <trkpt lat="40.502000" lon="-5.201467">
        <ele>2459.0</ele>
        <time>2018-08-13T12:17:17Z</time>
      </trkpt>
      <trkpt lat="40.502100" lon="-5.201333">
        <ele>2458.0</ele>
        <time>2018-08-13T12:17:18Z</time>
      </trkpt>
      <trkpt lat="40.502217" lon="-5.201217">
        <ele>2457.0</ele>
        <time>2018-08-13T12:17:19Z</time>
      </trkpt>
      <trkpt lat="40.502333" lon="-5.201117">
        <ele>2457.0</ele>
        <time>2018-08-13T12:17:20Z</time>
      </trkpt>
      <trkpt lat="40.502433" lon="-5.201017">
        <ele>2456.0</ele>
        <time>2018-08-13T12:17:21Z</time>
      </trkpt>
      <trkpt lat="40.502533" lon="-5.200900">
        <ele>2455.0</ele>
        <time>2018-08-13T12:17:22Z</time>
      </trkpt>
      <trkpt lat="40.502633" lon="-5.200800">
        <ele>2453.0</ele>
        <time>2018-08-13T12:17:23Z</time>
      </trkpt>
      <trkpt lat="40.502733" lon="-5.200683">
        <ele>2451.0</ele>
        <time>2018-08-13T12:17:24Z</time>
      </trkpt>
      <trkpt lat="40.502850" lon="-5.200567">
        <ele>2449.0</ele>
        <time>2018-08-13T12:17:25Z</time>
      </trkpt>
      <trkpt lat="40.502950" lon="-5.200450">
        <ele>2448.0</ele>
        <time>2018-08-13T12:17:26Z</time>
      </trkpt>
      <trkpt lat="40.503050" lon="-5.200333">
        <ele>2446.0</ele>
        <time>2018-08-13T12:17:27Z</time>
      </trkpt>
      <trkpt lat="40.503150" lon="-5.200217">
        <ele>2445.0</ele>
        <time>2018-08-13T12:17:28Z</time>
      </trkpt>
      <trkpt lat="40.503267" lon="-5.200100">
        <ele>2444.0</ele>
        <time>2018-08-13T12:17:29Z</time>
      </trkpt>
      <trkpt lat="40.503367" lon="-5.200000">
        <ele>2442.0</ele>
        <time>2018-08-13T12:17:30Z</time>
      </trkpt>
      <trkpt lat="40.503467" lon="-5.199883">
        <ele>2440.0</ele>
        <time>2018-08-13T12:17:31Z</time>
      </trkpt>
      <trkpt lat="40.503567" lon="-5.199767">
        <ele>2439.0</ele>
        <time>2018-08-13T12:17:32Z</time>
      </trkpt>
      <trkpt lat="40.503667" lon="-5.199650">
        <ele>2437.0</ele>
        <time>2018-08-13T12:17:33Z</time>
      </trkpt>
      <trkpt lat="40.503767" lon="-5.199533">
        <ele>2437.0</ele>
        <time>2018-08-13T12:17:34Z</time>
      </trkpt>
      <trkpt lat="40.503850" lon="-5.199383">
        <ele>2436.0</ele>
        <time>2018-08-13T12:17:35Z</time>
      </trkpt>
      <trkpt lat="40.503950" lon="-5.199250">
        <ele>2435.0</ele>
        <time>2018-08-13T12:17:36Z</time>
      </trkpt>
      <trkpt lat="40.504050" lon="-5.199133">
        <ele>2434.0</ele>
        <time>2018-08-13T12:17:37Z</time>
      </trkpt>
      <trkpt lat="40.504150" lon="-5.199017">
        <ele>2434.0</ele>
        <time>2018-08-13T12:17:38Z</time>
      </trkpt>
      <trkpt lat="40.504233" lon="-5.198917">
        <ele>2435.0</ele>
        <time>2018-08-13T12:17:39Z</time>
      </trkpt>
      <trkpt lat="40.504317" lon="-5.198800">
        <ele>2435.0</ele>
        <time>2018-08-13T12:17:40Z</time>
      </trkpt>
      <trkpt lat="40.504417" lon="-5.198700">
        <ele>2434.0</ele>
        <time>2018-08-13T12:17:41Z</time>
      </trkpt>
      <trkpt lat="40.504500" lon="-5.198583">
        <ele>2433.0</ele>
        <time>2018-08-13T12:17:42Z</time>
      </trkpt>
      <trkpt lat="40.504600" lon="-5.198483">
        <ele>2431.0</ele>
        <time>2018-08-13T12:17:43Z</time>
      </trkpt>
      <trkpt lat="40.504700" lon="-5.198383">
        <ele>2431.0</ele>
        <time>2018-08-13T12:17:44Z</time>
      </trkpt>
      <trkpt lat="40.504800" lon="-5.198300">
        <ele>2431.0</ele>
        <time>2018-08-13T12:17:45Z</time>
      </trkpt>
      <trkpt lat="40.504883" lon="-5.198217">
        <ele>2431.0</ele>
        <time>2018-08-13T12:17:46Z</time>
      </trkpt>
      <trkpt lat="40.504983" lon="-5.198133">
        <ele>2429.0</ele>
        <time>2018-08-13T12:17:47Z</time>
      </trkpt>
      <trkpt lat="40.505067" lon="-5.198050">
        <ele>2428.0</ele>
        <time>2018-08-13T12:17:48Z</time>
      </trkpt>
      <trkpt lat="40.505167" lon="-5.197983">
        <ele>2426.0</ele>
        <time>2018-08-13T12:17:49Z</time>
      </trkpt>
      <trkpt lat="40.505267" lon="-5.197883">
        <ele>2424.0</ele>
        <time>2018-08-13T12:17:50Z</time>
      </trkpt>
      <trkpt lat="40.505367" lon="-5.197800">
        <ele>2422.0</ele>
        <time>2018-08-13T12:17:51Z</time>
      </trkpt>
      <trkpt lat="40.505467" lon="-5.197717">
        <ele>2422.0</ele>
        <time>2018-08-13T12:17:52Z</time>
      </trkpt>
      <trkpt lat="40.505583" lon="-5.197650">
        <ele>2422.0</ele>
        <time>2018-08-13T12:17:53Z</time>
      </trkpt>
      <trkpt lat="40.505683" lon="-5.197567">
        <ele>2423.0</ele>
        <time>2018-08-13T12:17:54Z</time>
      </trkpt>
      <trkpt lat="40.505783" lon="-5.197483">
        <ele>2424.0</ele>
        <time>2018-08-13T12:17:55Z</time>
      </trkpt>
      <trkpt lat="40.505883" lon="-5.197383">
        <ele>2426.0</ele>
        <time>2018-08-13T12:17:56Z</time>
      </trkpt>
      <trkpt lat="40.505967" lon="-5.197283">
        <ele>2427.0</ele>
        <time>2018-08-13T12:17:57Z</time>
      </trkpt>
      <trkpt lat="40.506033" lon="-5.197183">
        <ele>2428.0</ele>
        <time>2018-08-13T12:17:58Z</time>
      </trkpt>
      <trkpt lat="40.506117" lon="-5.197100">
        <ele>2428.0</ele>
        <time>2018-08-13T12:17:59Z</time>
      </trkpt>
      <trkpt lat="40.506200" lon="-5.197017">
        <ele>2427.0</ele>
        <time>2018-08-13T12:18:00Z</time>
      </trkpt>
      <trkpt lat="40.506283" lon="-5.196950">
        <ele>2425.0</ele>
        <time>2018-08-13T12:18:01Z</time>
      </trkpt>
      <trkpt lat="40.506383" lon="-5.196867">
        <ele>2423.0</ele>
        <time>2018-08-13T12:18:02Z</time>
      </trkpt>
      <trkpt lat="40.506483" lon="-5.196767">
        <ele>2421.0</ele>
        <time>2018-08-13T12:18:03Z</time>
      </trkpt>
      <trkpt lat="40.506583" lon="-5.196667">
        <ele>2420.0</ele>
        <time>2018-08-13T12:18:04Z</time>
      </trkpt>
      <trkpt lat="40.506683" lon="-5.196583">
        <ele>2418.0</ele>
        <time>2018-08-13T12:18:05Z</time>
      </trkpt>
      <trkpt lat="40.506783" lon="-5.196500">
        <ele>2417.0</ele>
        <time>2018-08-13T12:18:06Z</time>
      </trkpt>
      <trkpt lat="40.506867" lon="-5.196417">
        <ele>2416.0</ele>
        <time>2018-08-13T12:18:07Z</time>
      </trkpt>
      <trkpt lat="40.506967" lon="-5.196317">
        <ele>2413.0</ele>
        <time>2018-08-13T12:18:08Z</time>
      </trkpt>
      <trkpt lat="40.507067" lon="-5.196200">
        <ele>2412.0</ele>
        <time>2018-08-13T12:18:09Z</time>
      </trkpt>
      <trkpt lat="40.507167" lon="-5.196100">
        <ele>2411.0</ele>
        <time>2018-08-13T12:18:10Z</time>
      </trkpt>
      <trkpt lat="40.507267" lon="-5.196000">
        <ele>2409.0</ele>
        <time>2018-08-13T12:18:11Z</time>
      </trkpt>
      <trkpt lat="40.507367" lon="-5.195933">
        <ele>2408.0</ele>
        <time>2018-08-13T12:18:12Z</time>
      </trkpt>
      <trkpt lat="40.507483" lon="-5.195850">
        <ele>2407.0</ele>
        <time>2018-08-13T12:18:13Z</time>
      </trkpt>
      <trkpt lat="40.507583" lon="-5.195767">
        <ele>2406.0</ele>
        <time>2018-08-13T12:18:14Z</time>
      </trkpt>
      <trkpt lat="40.507683" lon="-5.195683">
        <ele>2406.0</ele>
        <time>2018-08-13T12:18:15Z</time>
      </trkpt>
      <trkpt lat="40.507783" lon="-5.195600">
        <ele>2405.0</ele>
        <time>2018-08-13T12:18:16Z</time>
      </trkpt>
      <trkpt lat="40.507867" lon="-5.195500">
        <ele>2404.0</ele>
        <time>2018-08-13T12:18:17Z</time>
      </trkpt>
      <trkpt lat="40.507967" lon="-5.195400">
        <ele>2402.0</ele>
        <time>2018-08-13T12:18:18Z</time>
      </trkpt>
      <trkpt lat="40.508067" lon="-5.195317">
        <ele>2401.0</ele>
        <time>2018-08-13T12:18:19Z</time>
      </trkpt>
      <trkpt lat="40.508167" lon="-5.195233">
        <ele>2399.0</ele>
        <time>2018-08-13T12:18:20Z</time>
      </trkpt>
      <trkpt lat="40.508250" lon="-5.195133">
        <ele>2398.0</ele>
        <time>2018-08-13T12:18:21Z</time>
      </trkpt>
      <trkpt lat="40.508350" lon="-5.195050">
        <ele>2398.0</ele>
        <time>2018-08-13T12:18:22Z</time>
      </trkpt>
      <trkpt lat="40.508433" lon="-5.194950">
        <ele>2397.0</ele>
        <time>2018-08-13T12:18:23Z</time>
      </trkpt>
      <trkpt lat="40.508533" lon="-5.194867">
        <ele>2396.0</ele>
        <time>2018-08-13T12:18:24Z</time>
      </trkpt>
      <trkpt lat="40.508617" lon="-5.194783">
        <ele>2394.0</ele>
        <time>2018-08-13T12:18:25Z</time>
      </trkpt>
      <trkpt lat="40.508717" lon="-5.194683">
        <ele>2392.0</ele>
        <time>2018-08-13T12:18:26Z</time>
      </trkpt>
      <trkpt lat="40.508817" lon="-5.194583">
        <ele>2391.0</ele>
        <time>2018-08-13T12:18:27Z</time>
      </trkpt>
      <trkpt lat="40.508900" lon="-5.194500">
        <ele>2389.0</ele>
        <time>2018-08-13T12:18:28Z</time>
      </trkpt>
      <trkpt lat="40.509000" lon="-5.194417">
        <ele>2388.0</ele>
        <time>2018-08-13T12:18:29Z</time>
      </trkpt>
      <trkpt lat="40.509083" lon="-5.194300">
        <ele>2387.0</ele>
        <time>2018-08-13T12:18:30Z</time>
      </trkpt>
      <trkpt lat="40.509167" lon="-5.194183">
        <ele>2385.0</ele>
        <time>2018-08-13T12:18:31Z</time>
      </trkpt>
      <trkpt lat="40.509250" lon="-5.194050">
        <ele>2384.0</ele>
        <time>2018-08-13T12:18:32Z</time>
      </trkpt>
      <trkpt lat="40.509333" lon="-5.193933">
        <ele>2382.0</ele>
        <time>2018-08-13T12:18:33Z</time>
      </trkpt>
      <trkpt lat="40.509433" lon="-5.193800">
        <ele>2380.0</ele>
        <time>2018-08-13T12:18:34Z</time>
      </trkpt>
      <trkpt lat="40.509517" lon="-5.193667">
        <ele>2379.0</ele>
        <time>2018-08-13T12:18:35Z</time>
      </trkpt>
      <trkpt lat="40.509617" lon="-5.193550">
        <ele>2378.0</ele>
        <time>2018-08-13T12:18:36Z</time>
      </trkpt>
      <trkpt lat="40.509700" lon="-5.193433">
        <ele>2378.0</ele>
        <time>2018-08-13T12:18:37Z</time>
      </trkpt>
      <trkpt lat="40.509783" lon="-5.193317">
        <ele>2377.0</ele>
        <time>2018-08-13T12:18:38Z</time>
      </trkpt>
      <trkpt lat="40.509850" lon="-5.193233">
        <ele>2376.0</ele>
        <time>2018-08-13T12:18:39Z</time>
      </trkpt>
      <trkpt lat="40.509933" lon="-5.193133">
        <ele>2374.0</ele>
        <time>2018-08-13T12:18:40Z</time>
      </trkpt>
      <trkpt lat="40.510033" lon="-5.193050">
        <ele>2371.0</ele>
        <time>2018-08-13T12:18:41Z</time>
      </trkpt>
      <trkpt lat="40.510117" lon="-5.192950">
        <ele>2368.0</ele>
        <time>2018-08-13T12:18:42Z</time>
      </trkpt>
      <trkpt lat="40.510217" lon="-5.192850">
        <ele>2366.0</ele>
        <time>2018-08-13T12:18:43Z</time>
      </trkpt>
      <trkpt lat="40.510300" lon="-5.192750">
        <ele>2364.0</ele>
        <time>2018-08-13T12:18:44Z</time>
      </trkpt>
      <trkpt lat="40.510383" lon="-5.192633">
        <ele>2361.0</ele>
        <time>2018-08-13T12:18:45Z</time>
      </trkpt>
      <trkpt lat="40.510467" lon="-5.192517">
        <ele>2358.0</ele>
        <time>2018-08-13T12:18:46Z</time>
      </trkpt>
      <trkpt lat="40.510567" lon="-5.192400">
        <ele>2354.0</ele>
        <time>2018-08-13T12:18:47Z</time>
      </trkpt>
      <trkpt lat="40.510667" lon="-5.192267">
        <ele>2351.0</ele>
        <time>2018-08-13T12:18:48Z</time>
      </trkpt>
      <trkpt lat="40.510767" lon="-5.192133">
        <ele>2348.0</ele>
        <time>2018-08-13T12:18:49Z</time>
      </trkpt>
      <trkpt lat="40.510867" lon="-5.192017">
        <ele>2347.0</ele>
        <time>2018-08-13T12:18:50Z</time>
      </trkpt>
      <trkpt lat="40.510967" lon="-5.191917">
        <ele>2345.0</ele>
        <time>2018-08-13T12:18:51Z</time>
      </trkpt>
      <trkpt lat="40.511050" lon="-5.191833">
        <ele>2344.0</ele>
        <time>2018-08-13T12:18:52Z</time>
      </trkpt>
      <trkpt lat="40.511150" lon="-5.191733">
        <ele>2342.0</ele>
        <time>2018-08-13T12:18:53Z</time>
      </trkpt>
      <trkpt lat="40.511233" lon="-5.191650">
        <ele>2339.0</ele>
        <time>2018-08-13T12:18:54Z</time>
      </trkpt>
      <trkpt lat="40.511317" lon="-5.191550">
        <ele>2336.0</ele>
        <time>2018-08-13T12:18:55Z</time>
      </trkpt>
      <trkpt lat="40.511417" lon="-5.191450">
        <ele>2333.0</ele>
        <time>2018-08-13T12:18:56Z</time>
      </trkpt>
      <trkpt lat="40.511517" lon="-5.191367">
        <ele>2330.0</ele>
        <time>2018-08-13T12:18:57Z</time>
      </trkpt>
      <trkpt lat="40.511600" lon="-5.191267">
        <ele>2328.0</ele>
        <time>2018-08-13T12:18:58Z</time>
      </trkpt>
      <trkpt lat="40.511700" lon="-5.191183">
        <ele>2325.0</ele>
        <time>2018-08-13T12:18:59Z</time>
      </trkpt>
      <trkpt lat="40.511783" lon="-5.191100">
        <ele>2322.0</ele>
        <time>2018-08-13T12:19:00Z</time>
      </trkpt>
      <trkpt lat="40.511883" lon="-5.191033">
        <ele>2318.0</ele>
        <time>2018-08-13T12:19:01Z</time>
      </trkpt>
      <trkpt lat="40.511983" lon="-5.190967">
        <ele>2314.0</ele>
        <time>2018-08-13T12:19:02Z</time>
      </trkpt>
      <trkpt lat="40.512083" lon="-5.190900">
        <ele>2311.0</ele>
        <time>2018-08-13T12:19:03Z</time>
      </trkpt>
      <trkpt lat="40.512183" lon="-5.190833">
        <ele>2308.0</ele>
        <time>2018-08-13T12:19:04Z</time>
      </trkpt>
      <trkpt lat="40.512283" lon="-5.190750">
        <ele>2305.0</ele>
        <time>2018-08-13T12:19:05Z</time>
      </trkpt>
      <trkpt lat="40.512383" lon="-5.190650">
        <ele>2303.0</ele>
        <time>2018-08-13T12:19:06Z</time>
      </trkpt>
      <trkpt lat="40.512467" lon="-5.190533">
        <ele>2300.0</ele>
        <time>2018-08-13T12:19:07Z</time>
      </trkpt>
      <trkpt lat="40.512550" lon="-5.190433">
        <ele>2298.0</ele>
        <time>2018-08-13T12:19:08Z</time>
      </trkpt>
      <trkpt lat="40.512633" lon="-5.190317">
        <ele>2296.0</ele>
        <time>2018-08-13T12:19:09Z</time>
      </trkpt>
      <trkpt lat="40.512717" lon="-5.190200">
        <ele>2294.0</ele>
        <time>2018-08-13T12:19:10Z</time>
      </trkpt>
      <trkpt lat="40.512783" lon="-5.190067">
        <ele>2291.0</ele>
        <time>2018-08-13T12:19:11Z</time>
      </trkpt>
      <trkpt lat="40.512867" lon="-5.189933">
        <ele>2289.0</ele>
        <time>2018-08-13T12:19:12Z</time>
      </trkpt>
      <trkpt lat="40.512933" lon="-5.189800">
        <ele>2288.0</ele>
        <time>2018-08-13T12:19:13Z</time>
      </trkpt>
      <trkpt lat="40.513017" lon="-5.189700">
        <ele>2287.0</ele>
        <time>2018-08-13T12:19:14Z</time>
      </trkpt>
      <trkpt lat="40.513100" lon="-5.189583">
        <ele>2285.0</ele>
        <time>2018-08-13T12:19:15Z</time>
      </trkpt>
      <trkpt lat="40.513183" lon="-5.189483">
        <ele>2283.0</ele>
        <time>2018-08-13T12:19:16Z</time>
      </trkpt>
      <trkpt lat="40.513267" lon="-5.189367">
        <ele>2281.0</ele>
        <time>2018-08-13T12:19:17Z</time>
      </trkpt>
      <trkpt lat="40.513350" lon="-5.189250">
        <ele>2280.0</ele>
        <time>2018-08-13T12:19:18Z</time>
      </trkpt>
      <trkpt lat="40.513433" lon="-5.189117">
        <ele>2278.0</ele>
        <time>2018-08-13T12:19:19Z</time>
      </trkpt>
      <trkpt lat="40.513517" lon="-5.189000">
        <ele>2277.0</ele>
        <time>2018-08-13T12:19:20Z</time>
      </trkpt>
      <trkpt lat="40.513600" lon="-5.188900">
        <ele>2276.0</ele>
        <time>2018-08-13T12:19:21Z</time>
      </trkpt>
      <trkpt lat="40.513683" lon="-5.188800">
        <ele>2276.0</ele>
        <time>2018-08-13T12:19:22Z</time>
      </trkpt>
      <trkpt lat="40.513750" lon="-5.188683">
        <ele>2274.0</ele>
        <time>2018-08-13T12:19:23Z</time>
      </trkpt>
      <trkpt lat="40.513833" lon="-5.188583">
        <ele>2273.0</ele>
        <time>2018-08-13T12:19:24Z</time>
      </trkpt>
      <trkpt lat="40.513900" lon="-5.188467">
        <ele>2271.0</ele>
        <time>2018-08-13T12:19:25Z</time>
      </trkpt>
      <trkpt lat="40.513983" lon="-5.188350">
        <ele>2269.0</ele>
        <time>2018-08-13T12:19:26Z</time>
      </trkpt>
      <trkpt lat="40.514067" lon="-5.188233">
        <ele>2268.0</ele>
        <time>2018-08-13T12:19:27Z</time>
      </trkpt>
      <trkpt lat="40.514150" lon="-5.188133">
        <ele>2266.0</ele>
        <time>2018-08-13T12:19:28Z</time>
      </trkpt>
      <trkpt lat="40.514233" lon="-5.188017">
        <ele>2264.0</ele>
        <time>2018-08-13T12:19:29Z</time>
      </trkpt>
      <trkpt lat="40.514333" lon="-5.187917">
        <ele>2263.0</ele>
        <time>2018-08-13T12:19:30Z</time>
      </trkpt>
      <trkpt lat="40.514433" lon="-5.187833">
        <ele>2261.0</ele>
        <time>2018-08-13T12:19:31Z</time>
      </trkpt>
      <trkpt lat="40.514533" lon="-5.187750">
        <ele>2258.0</ele>
        <time>2018-08-13T12:19:32Z</time>
      </trkpt>
      <trkpt lat="40.514633" lon="-5.187667">
        <ele>2256.0</ele>
        <time>2018-08-13T12:19:33Z</time>
      </trkpt>
      <trkpt lat="40.514733" lon="-5.187567">
        <ele>2254.0</ele>
        <time>2018-08-13T12:19:34Z</time>
      </trkpt>
      <trkpt lat="40.514833" lon="-5.187483">
        <ele>2252.0</ele>
        <time>2018-08-13T12:19:35Z</time>
      </trkpt>
      <trkpt lat="40.514933" lon="-5.187383">
        <ele>2250.0</ele>
        <time>2018-08-13T12:19:36Z</time>
      </trkpt>
      <trkpt lat="40.515017" lon="-5.187267">
        <ele>2248.0</ele>
        <time>2018-08-13T12:19:37Z</time>
      </trkpt>
      <trkpt lat="40.515117" lon="-5.187133">
        <ele>2245.0</ele>
        <time>2018-08-13T12:19:38Z</time>
      </trkpt>
      <trkpt lat="40.515200" lon="-5.187000">
        <ele>2242.0</ele>
        <time>2018-08-13T12:19:39Z</time>
      </trkpt>
      <trkpt lat="40.515300" lon="-5.186867">
        <ele>2240.0</ele>
        <time>2018-08-13T12:19:40Z</time>
      </trkpt>
      <trkpt lat="40.515400" lon="-5.186733">
        <ele>2238.0</ele>
        <time>2018-08-13T12:19:41Z</time>
      </trkpt>
      <trkpt lat="40.515500" lon="-5.186617">
        <ele>2236.0</ele>
        <time>2018-08-13T12:19:42Z</time>
      </trkpt>
      <trkpt lat="40.515600" lon="-5.186500">
        <ele>2234.0</ele>
        <time>2018-08-13T12:19:43Z</time>
      </trkpt>
      <trkpt lat="40.515683" lon="-5.186383">
        <ele>2231.0</ele>
        <time>2018-08-13T12:19:44Z</time>
      </trkpt>
      <trkpt lat="40.515783" lon="-5.186267">
        <ele>2228.0</ele>
        <time>2018-08-13T12:19:45Z</time>
      </trkpt>
      <trkpt lat="40.515883" lon="-5.186133">
        <ele>2226.0</ele>
        <time>2018-08-13T12:19:46Z</time>
      </trkpt>
      <trkpt lat="40.515983" lon="-5.186000">
        <ele>2224.0</ele>
        <time>2018-08-13T12:19:47Z</time>
      </trkpt>
      <trkpt lat="40.516083" lon="-5.185883">
        <ele>2223.0</ele>
        <time>2018-08-13T12:19:48Z</time>
      </trkpt>
      <trkpt lat="40.516167" lon="-5.185767">
        <ele>2222.0</ele>
        <time>2018-08-13T12:19:49Z</time>
      </trkpt>
      <trkpt lat="40.516250" lon="-5.185650">
        <ele>2220.0</ele>
        <time>2018-08-13T12:19:50Z</time>
      </trkpt>
      <trkpt lat="40.516350" lon="-5.185533">
        <ele>2217.0</ele>
        <time>2018-08-13T12:19:51Z</time>
      </trkpt>
      <trkpt lat="40.516450" lon="-5.185417">
        <ele>2214.0</ele>
        <time>2018-08-13T12:19:52Z</time>
      </trkpt>
      <trkpt lat="40.516550" lon="-5.185300">
        <ele>2210.0</ele>
        <time>2018-08-13T12:19:53Z</time>
      </trkpt>
      <trkpt lat="40.516667" lon="-5.185167">
        <ele>2206.0</ele>
        <time>2018-08-13T12:19:54Z</time>
      </trkpt>
      <trkpt lat="40.516783" lon="-5.185050">
        <ele>2204.0</ele>
        <time>2018-08-13T12:19:55Z</time>
      </trkpt>
      <trkpt lat="40.516900" lon="-5.184917">
        <ele>2203.0</ele>
        <time>2018-08-13T12:19:56Z</time>
      </trkpt>
      <trkpt lat="40.517000" lon="-5.184783">
        <ele>2202.0</ele>
        <time>2018-08-13T12:19:57Z</time>
      </trkpt>
      <trkpt lat="40.517100" lon="-5.184667">
        <ele>2201.0</ele>
        <time>2018-08-13T12:19:58Z</time>
      </trkpt>
      <trkpt lat="40.517183" lon="-5.184533">
        <ele>2198.0</ele>
        <time>2018-08-13T12:19:59Z</time>
      </trkpt>
      <trkpt lat="40.517267" lon="-5.184417">
        <ele>2194.0</ele>
        <time>2018-08-13T12:20:00Z</time>
      </trkpt>
      <trkpt lat="40.517367" lon="-5.184283">
        <ele>2191.0</ele>
        <time>2018-08-13T12:20:01Z</time>
      </trkpt>
      <trkpt lat="40.517467" lon="-5.184150">
        <ele>2187.0</ele>
        <time>2018-08-13T12:20:02Z</time>
      </trkpt>
      <trkpt lat="40.517567" lon="-5.184017">
        <ele>2183.0</ele>
        <time>2018-08-13T12:20:03Z</time>
      </trkpt>
      <trkpt lat="40.517667" lon="-5.183867">
        <ele>2178.0</ele>
        <time>2018-08-13T12:20:04Z</time>
      </trkpt>
      <trkpt lat="40.517767" lon="-5.183717">
        <ele>2175.0</ele>
        <time>2018-08-13T12:20:05Z</time>
      </trkpt>
      <trkpt lat="40.517867" lon="-5.183567">
        <ele>2172.0</ele>
        <time>2018-08-13T12:20:06Z</time>
      </trkpt>
      <trkpt lat="40.517967" lon="-5.183433">
        <ele>2171.0</ele>
        <time>2018-08-13T12:20:07Z</time>
      </trkpt>
      <trkpt lat="40.518067" lon="-5.183317">
        <ele>2170.0</ele>
        <time>2018-08-13T12:20:08Z</time>
      </trkpt>
      <trkpt lat="40.518150" lon="-5.183183">
        <ele>2168.0</ele>
        <time>2018-08-13T12:20:09Z</time>
      </trkpt>
      <trkpt lat="40.518233" lon="-5.183067">
        <ele>2165.0</ele>
        <time>2018-08-13T12:20:10Z</time>
      </trkpt>
      <trkpt lat="40.518333" lon="-5.182933">
        <ele>2161.0</ele>
        <time>2018-08-13T12:20:11Z</time>
      </trkpt>
      <trkpt lat="40.518433" lon="-5.182783">
        <ele>2157.0</ele>
        <time>2018-08-13T12:20:12Z</time>
      </trkpt>
      <trkpt lat="40.518533" lon="-5.182650">
        <ele>2154.0</ele>
        <time>2018-08-13T12:20:13Z</time>
      </trkpt>
      <trkpt lat="40.518633" lon="-5.182517">
        <ele>2153.0</ele>
        <time>2018-08-13T12:20:14Z</time>
      </trkpt>
      <trkpt lat="40.518717" lon="-5.182383">
        <ele>2152.0</ele>
        <time>2018-08-13T12:20:15Z</time>
      </trkpt>
      <trkpt lat="40.518800" lon="-5.182250">
        <ele>2149.0</ele>
        <time>2018-08-13T12:20:16Z</time>
      </trkpt>
      <trkpt lat="40.518883" lon="-5.182100">
        <ele>2146.0</ele>
        <time>2018-08-13T12:20:17Z</time>
      </trkpt>
      <trkpt lat="40.518967" lon="-5.181950">
        <ele>2142.0</ele>
        <time>2018-08-13T12:20:18Z</time>
      </trkpt>
      <trkpt lat="40.519067" lon="-5.181783">
        <ele>2138.0</ele>
        <time>2018-08-13T12:20:19Z</time>
      </trkpt>
      <trkpt lat="40.519150" lon="-5.181633">
        <ele>2136.0</ele>
        <time>2018-08-13T12:20:20Z</time>
      </trkpt>
      <trkpt lat="40.519233" lon="-5.181483">
        <ele>2133.0</ele>
        <time>2018-08-13T12:20:21Z</time>
      </trkpt>
      <trkpt lat="40.519333" lon="-5.181333">
        <ele>2131.0</ele>
        <time>2018-08-13T12:20:22Z</time>
      </trkpt>
      <trkpt lat="40.519417" lon="-5.181217">
        <ele>2128.0</ele>
        <time>2018-08-13T12:20:23Z</time>
      </trkpt>
      <trkpt lat="40.519517" lon="-5.181100">
        <ele>2126.0</ele>
        <time>2018-08-13T12:20:24Z</time>
      </trkpt>
      <trkpt lat="40.519600" lon="-5.180983">
        <ele>2123.0</ele>
        <time>2018-08-13T12:20:25Z</time>
      </trkpt>
      <trkpt lat="40.519700" lon="-5.180850">
        <ele>2119.0</ele>
        <time>2018-08-13T12:20:26Z</time>
      </trkpt>
      <trkpt lat="40.519783" lon="-5.180717">
        <ele>2116.0</ele>
        <time>2018-08-13T12:20:27Z</time>
      </trkpt>
      <trkpt lat="40.519883" lon="-5.180600">
        <ele>2115.0</ele>
        <time>2018-08-13T12:20:28Z</time>
      </trkpt>
      <trkpt lat="40.519967" lon="-5.180483">
        <ele>2113.0</ele>
        <time>2018-08-13T12:20:29Z</time>
      </trkpt>
      <trkpt lat="40.520067" lon="-5.180400">
        <ele>2111.0</ele>
        <time>2018-08-13T12:20:30Z</time>
      </trkpt>
      <trkpt lat="40.520167" lon="-5.180317">
        <ele>2108.0</ele>
        <time>2018-08-13T12:20:31Z</time>
      </trkpt>
      <trkpt lat="40.520267" lon="-5.180217">
        <ele>2105.0</ele>
        <time>2018-08-13T12:20:32Z</time>
      </trkpt>
      <trkpt lat="40.520383" lon="-5.180117">
        <ele>2103.0</ele>
        <time>2018-08-13T12:20:33Z</time>
      </trkpt>
      <trkpt lat="40.520483" lon="-5.180017">
        <ele>2101.0</ele>
        <time>2018-08-13T12:20:34Z</time>
      </trkpt>
      <trkpt lat="40.520567" lon="-5.179900">
        <ele>2100.0</ele>
        <time>2018-08-13T12:20:35Z</time>
      </trkpt>
      <trkpt lat="40.520650" lon="-5.179800">
        <ele>2100.0</ele>
        <time>2018-08-13T12:20:36Z</time>
      </trkpt>
      <trkpt lat="40.520733" lon="-5.179700">
        <ele>2101.0</ele>
        <time>2018-08-13T12:20:37Z</time>
      </trkpt>
      <trkpt lat="40.520800" lon="-5.179600">
        <ele>2100.0</ele>
        <time>2018-08-13T12:20:38Z</time>
      </trkpt>
      <trkpt lat="40.520867" lon="-5.179500">
        <ele>2099.0</ele>
        <time>2018-08-13T12:20:39Z</time>
      </trkpt>
      <trkpt lat="40.520933" lon="-5.179367">
        <ele>2099.0</ele>
        <time>2018-08-13T12:20:40Z</time>
      </trkpt>
      <trkpt lat="40.521017" lon="-5.179217">
        <ele>2101.0</ele>
        <time>2018-08-13T12:20:41Z</time>
      </trkpt>
      <trkpt lat="40.521100" lon="-5.179083">
        <ele>2104.0</ele>
        <time>2018-08-13T12:20:42Z</time>
      </trkpt>
      <trkpt lat="40.521167" lon="-5.178967">
        <ele>2109.0</ele>
        <time>2018-08-13T12:20:43Z</time>
      </trkpt>
      <trkpt lat="40.521233" lon="-5.178850">
        <ele>2114.0</ele>
        <time>2018-08-13T12:20:44Z</time>
      </trkpt>
      <trkpt lat="40.521283" lon="-5.178750">
        <ele>2119.0</ele>
        <time>2018-08-13T12:20:45Z</time>
      </trkpt>
      <trkpt lat="40.521317" lon="-5.178650">
        <ele>2124.0</ele>
        <time>2018-08-13T12:20:46Z</time>
      </trkpt>
      <trkpt lat="40.521367" lon="-5.178550">
        <ele>2128.0</ele>
        <time>2018-08-13T12:20:47Z</time>
      </trkpt>
      <trkpt lat="40.521400" lon="-5.178450">
        <ele>2130.0</ele>
        <time>2018-08-13T12:20:48Z</time>
      </trkpt>
      <trkpt lat="40.521417" lon="-5.178317">
        <ele>2132.0</ele>
        <time>2018-08-13T12:20:49Z</time>
      </trkpt>
      <trkpt lat="40.521417" lon="-5.178200">
        <ele>2134.0</ele>
        <time>2018-08-13T12:20:50Z</time>
      </trkpt>
      <trkpt lat="40.521367" lon="-5.178067">
        <ele>2135.0</ele>
        <time>2018-08-13T12:20:51Z</time>
      </trkpt>
      <trkpt lat="40.521283" lon="-5.177967">
        <ele>2135.0</ele>
        <time>2018-08-13T12:20:52Z</time>
      </trkpt>
      <trkpt lat="40.521167" lon="-5.177917">
        <ele>2136.0</ele>
        <time>2018-08-13T12:20:53Z</time>
      </trkpt>
      <trkpt lat="40.521033" lon="-5.177900">
        <ele>2139.0</ele>
        <time>2018-08-13T12:20:54Z</time>
      </trkpt>
      <trkpt lat="40.520900" lon="-5.177900">
        <ele>2147.0</ele>
        <time>2018-08-13T12:20:55Z</time>
      </trkpt>
      <trkpt lat="40.520833" lon="-5.177933">
        <ele>2156.0</ele>
        <time>2018-08-13T12:20:56Z</time>
      </trkpt>
      <trkpt lat="40.520783" lon="-5.177950">
        <ele>2163.0</ele>
        <time>2018-08-13T12:20:57Z</time>
      </trkpt>
      <trkpt lat="40.520750" lon="-5.177967">
        <ele>2167.0</ele>
        <time>2018-08-13T12:20:58Z</time>
      </trkpt>
      <trkpt lat="40.520733" lon="-5.177983">
        <ele>2169.0</ele>
        <time>2018-08-13T12:20:59Z</time>
      </trkpt>
      <trkpt lat="40.520683" lon="-5.178017">
        <ele>2170.0</ele>
        <time>2018-08-13T12:21:00Z</time>
      </trkpt>
      <trkpt lat="40.520650" lon="-5.178067">
        <ele>2170.0</ele>
        <time>2018-08-13T12:21:01Z</time>
      </trkpt>
      <trkpt lat="40.520600" lon="-5.178150">
        <ele>2171.0</ele>
        <time>2018-08-13T12:21:02Z</time>
      </trkpt>
      <trkpt lat="40.520583" lon="-5.178217">
        <ele>2173.0</ele>
        <time>2018-08-13T12:21:03Z</time>
      </trkpt>
      <trkpt lat="40.520600" lon="-5.178300">
        <ele>2174.0</ele>
        <time>2018-08-13T12:21:04Z</time>
      </trkpt>
      <trkpt lat="40.520650" lon="-5.178367">
        <ele>2175.0</ele>
        <time>2018-08-13T12:21:05Z</time>
      </trkpt>
      <trkpt lat="40.520733" lon="-5.178433">
        <ele>2175.0</ele>
        <time>2018-08-13T12:21:06Z</time>
      </trkpt>
      <trkpt lat="40.520833" lon="-5.178467">
        <ele>2176.0</ele>
        <time>2018-08-13T12:21:07Z</time>
      </trkpt>
      <trkpt lat="40.520950" lon="-5.178467">
        <ele>2177.0</ele>
        <time>2018-08-13T12:21:08Z</time>
      </trkpt>
      <trkpt lat="40.521050" lon="-5.178417">
        <ele>2179.0</ele>
        <time>2018-08-13T12:21:09Z</time>
      </trkpt>
      <trkpt lat="40.521150" lon="-5.178317">
        <ele>2180.0</ele>
        <time>2018-08-13T12:21:10Z</time>
      </trkpt>
      <trkpt lat="40.521233" lon="-5.178183">
        <ele>2183.0</ele>
        <time>2018-08-13T12:21:11Z</time>
      </trkpt>
      <trkpt lat="40.521283" lon="-5.178067">
        <ele>2187.0</ele>
        <time>2018-08-13T12:21:12Z</time>
      </trkpt>
      <trkpt lat="40.521333" lon="-5.177950">
        <ele>2190.0</ele>
        <time>2018-08-13T12:21:13Z</time>
      </trkpt>
      <trkpt lat="40.521383" lon="-5.177850">
        <ele>2193.0</ele>
        <time>2018-08-13T12:21:14Z</time>
      </trkpt>
      <trkpt lat="40.521433" lon="-5.177733">
        <ele>2195.0</ele>
        <time>2018-08-13T12:21:15Z</time>
      </trkpt>
      <trkpt lat="40.521500" lon="-5.177600">
        <ele>2198.0</ele>
        <time>2018-08-13T12:21:16Z</time>
      </trkpt>
      <trkpt lat="40.521567" lon="-5.177467">
        <ele>2201.0</ele>
        <time>2018-08-13T12:21:17Z</time>
      </trkpt>
      <trkpt lat="40.521633" lon="-5.177333">
        <ele>2204.0</ele>
        <time>2018-08-13T12:21:18Z</time>
      </trkpt>
      <trkpt lat="40.521683" lon="-5.177217">
        <ele>2208.0</ele>
        <time>2018-08-13T12:21:19Z</time>
      </trkpt>
      <trkpt lat="40.521733" lon="-5.177083">
        <ele>2212.0</ele>
        <time>2018-08-13T12:21:20Z</time>
      </trkpt>
      <trkpt lat="40.521767" lon="-5.176950">
        <ele>2216.0</ele>
        <time>2018-08-13T12:21:21Z</time>
      </trkpt>
      <trkpt lat="40.521800" lon="-5.176800">
        <ele>2220.0</ele>
        <time>2018-08-13T12:21:22Z</time>
      </trkpt>
      <trkpt lat="40.521817" lon="-5.176667">
        <ele>2223.0</ele>
        <time>2018-08-13T12:21:23Z</time>
      </trkpt>
      <trkpt lat="40.521817" lon="-5.176550">
        <ele>2226.0</ele>
        <time>2018-08-13T12:21:24Z</time>
      </trkpt>
      <trkpt lat="40.521817" lon="-5.176433">
        <ele>2229.0</ele>
        <time>2018-08-13T12:21:25Z</time>
      </trkpt>
      <trkpt lat="40.521800" lon="-5.176317">
        <ele>2230.0</ele>
        <time>2018-08-13T12:21:26Z</time>
      </trkpt>
      <trkpt lat="40.521767" lon="-5.176183">
        <ele>2231.0</ele>
        <time>2018-08-13T12:21:27Z</time>
      </trkpt>
      <trkpt lat="40.521733" lon="-5.176033">
        <ele>2233.0</ele>
        <time>2018-08-13T12:21:28Z</time>
      </trkpt>
      <trkpt lat="40.521667" lon="-5.175883">
        <ele>2235.0</ele>
        <time>2018-08-13T12:21:29Z</time>
      </trkpt>
      <trkpt lat="40.521600" lon="-5.175750">
        <ele>2240.0</ele>
        <time>2018-08-13T12:21:30Z</time>
      </trkpt>
      <trkpt lat="40.521533" lon="-5.175633">
        <ele>2245.0</ele>
        <time>2018-08-13T12:21:31Z</time>
      </trkpt>
      <trkpt lat="40.521450" lon="-5.175550">
        <ele>2250.0</ele>
        <time>2018-08-13T12:21:32Z</time>
      </trkpt>
      <trkpt lat="40.521383" lon="-5.175467">
        <ele>2255.0</ele>
        <time>2018-08-13T12:21:33Z</time>
      </trkpt>
      <trkpt lat="40.521333" lon="-5.175367">
        <ele>2258.0</ele>
        <time>2018-08-13T12:21:34Z</time>
      </trkpt>
      <trkpt lat="40.521267" lon="-5.175267">
        <ele>2261.0</ele>
        <time>2018-08-13T12:21:35Z</time>
      </trkpt>
      <trkpt lat="40.521183" lon="-5.175167">
        <ele>2264.0</ele>
        <time>2018-08-13T12:21:36Z</time>
      </trkpt>
      <trkpt lat="40.521100" lon="-5.175117">
        <ele>2266.0</ele>
        <time>2018-08-13T12:21:37Z</time>
      </trkpt>
      <trkpt lat="40.521000" lon="-5.175117">
        <ele>2267.0</ele>
        <time>2018-08-13T12:21:38Z</time>
      </trkpt>
      <trkpt lat="40.520917" lon="-5.175150">
        <ele>2269.0</ele>
        <time>2018-08-13T12:21:39Z</time>
      </trkpt>
      <trkpt lat="40.520850" lon="-5.175233">
        <ele>2272.0</ele>
        <time>2018-08-13T12:21:40Z</time>
      </trkpt>
      <trkpt lat="40.520800" lon="-5.175317">
        <ele>2275.0</ele>
        <time>2018-08-13T12:21:41Z</time>
      </trkpt>
      <trkpt lat="40.520783" lon="-5.175417">
        <ele>2278.0</ele>
        <time>2018-08-13T12:21:42Z</time>
      </trkpt>
      <trkpt lat="40.520800" lon="-5.175517">
        <ele>2281.0</ele>
        <time>2018-08-13T12:21:43Z</time>
      </trkpt>
      <trkpt lat="40.520833" lon="-5.175600">
        <ele>2284.0</ele>
        <time>2018-08-13T12:21:44Z</time>
      </trkpt>
      <trkpt lat="40.520900" lon="-5.175683">
        <ele>2287.0</ele>
        <time>2018-08-13T12:21:45Z</time>
      </trkpt>
      <trkpt lat="40.520983" lon="-5.175733">
        <ele>2291.0</ele>
        <time>2018-08-13T12:21:46Z</time>
      </trkpt>
      <trkpt lat="40.521083" lon="-5.175733">
        <ele>2295.0</ele>
        <time>2018-08-13T12:21:47Z</time>
      </trkpt>
      <trkpt lat="40.521183" lon="-5.175717">
        <ele>2298.0</ele>
        <time>2018-08-13T12:21:48Z</time>
      </trkpt>
      <trkpt lat="40.521300" lon="-5.175650">
        <ele>2302.0</ele>
        <time>2018-08-13T12:21:49Z</time>
      </trkpt>
      <trkpt lat="40.521383" lon="-5.175550">
        <ele>2305.0</ele>
        <time>2018-08-13T12:21:50Z</time>
      </trkpt>
      <trkpt lat="40.521467" lon="-5.175400">
        <ele>2307.0</ele>
        <time>2018-08-13T12:21:51Z</time>
      </trkpt>
      <trkpt lat="40.521517" lon="-5.175233">
        <ele>2311.0</ele>
        <time>2018-08-13T12:21:52Z</time>
      </trkpt>
      <trkpt lat="40.521550" lon="-5.175067">
        <ele>2315.0</ele>
        <time>2018-08-13T12:21:53Z</time>
      </trkpt>
      <trkpt lat="40.521550" lon="-5.174883">
        <ele>2319.0</ele>
        <time>2018-08-13T12:21:54Z</time>
      </trkpt>
      <trkpt lat="40.521517" lon="-5.174733">
        <ele>2324.0</ele>
        <time>2018-08-13T12:21:55Z</time>
      </trkpt>
      <trkpt lat="40.521467" lon="-5.174583">
        <ele>2328.0</ele>
        <time>2018-08-13T12:21:56Z</time>
      </trkpt>
      <trkpt lat="40.521383" lon="-5.174450">
        <ele>2332.0</ele>
        <time>2018-08-13T12:21:57Z</time>
      </trkpt>
      <trkpt lat="40.521300" lon="-5.174367">
        <ele>2336.0</ele>
        <time>2018-08-13T12:21:58Z</time>
      </trkpt>
      <trkpt lat="40.521217" lon="-5.174283">
        <ele>2340.0</ele>
        <time>2018-08-13T12:21:59Z</time>
      </trkpt>
      <trkpt lat="40.521117" lon="-5.174250">
        <ele>2343.0</ele>
        <time>2018-08-13T12:22:00Z</time>
      </trkpt>
      <trkpt lat="40.521033" lon="-5.174250">
        <ele>2345.0</ele>
        <time>2018-08-13T12:22:01Z</time>
      </trkpt>
      <trkpt lat="40.520967" lon="-5.174317">
        <ele>2347.0</ele>
        <time>2018-08-13T12:22:02Z</time>
      </trkpt>
      <trkpt lat="40.520917" lon="-5.174400">
        <ele>2350.0</ele>
        <time>2018-08-13T12:22:03Z</time>
      </trkpt>
      <trkpt lat="40.520883" lon="-5.174500">
        <ele>2353.0</ele>
        <time>2018-08-13T12:22:04Z</time>
      </trkpt>
      <trkpt lat="40.520867" lon="-5.174600">
        <ele>2358.0</ele>
        <time>2018-08-13T12:22:05Z</time>
      </trkpt>
      <trkpt lat="40.520883" lon="-5.174700">
        <ele>2364.0</ele>
        <time>2018-08-13T12:22:06Z</time>
      </trkpt>
      <trkpt lat="40.520933" lon="-5.174783">
        <ele>2369.0</ele>
        <time>2018-08-13T12:22:07Z</time>
      </trkpt>
      <trkpt lat="40.521017" lon="-5.174833">
        <ele>2373.0</ele>
        <time>2018-08-13T12:22:08Z</time>
      </trkpt>
      <trkpt lat="40.521100" lon="-5.174883">
        <ele>2377.0</ele>
        <time>2018-08-13T12:22:09Z</time>
      </trkpt>
      <trkpt lat="40.521183" lon="-5.174900">
        <ele>2381.0</ele>
        <time>2018-08-13T12:22:10Z</time>
      </trkpt>
      <trkpt lat="40.521283" lon="-5.174883">
        <ele>2385.0</ele>
        <time>2018-08-13T12:22:11Z</time>
      </trkpt>
      <trkpt lat="40.521383" lon="-5.174833">
        <ele>2387.0</ele>
        <time>2018-08-13T12:22:12Z</time>
      </trkpt>
      <trkpt lat="40.521500" lon="-5.174767">
        <ele>2389.0</ele>
        <time>2018-08-13T12:22:13Z</time>
      </trkpt>
      <trkpt lat="40.521600" lon="-5.174650">
        <ele>2392.0</ele>
        <time>2018-08-13T12:22:14Z</time>
      </trkpt>
      <trkpt lat="40.521683" lon="-5.174500">
        <ele>2394.0</ele>
        <time>2018-08-13T12:22:15Z</time>
      </trkpt>
      <trkpt lat="40.521733" lon="-5.174333">
        <ele>2396.0</ele>
        <time>2018-08-13T12:22:16Z</time>
      </trkpt>
      <trkpt lat="40.521750" lon="-5.174133">
        <ele>2399.0</ele>
        <time>2018-08-13T12:22:17Z</time>
      </trkpt>
      <trkpt lat="40.521717" lon="-5.173967">
        <ele>2403.0</ele>
        <time>2018-08-13T12:22:18Z</time>
      </trkpt>
      <trkpt lat="40.521667" lon="-5.173800">
        <ele>2408.0</ele>
        <time>2018-08-13T12:22:19Z</time>
      </trkpt>
      <trkpt lat="40.521617" lon="-5.173667">
        <ele>2413.0</ele>
        <time>2018-08-13T12:22:20Z</time>
      </trkpt>
      <trkpt lat="40.521533" lon="-5.173567">
        <ele>2417.0</ele>
        <time>2018-08-13T12:22:21Z</time>
      </trkpt>
      <trkpt lat="40.521450" lon="-5.173483">
        <ele>2419.0</ele>
        <time>2018-08-13T12:22:22Z</time>
      </trkpt>
      <trkpt lat="40.521350" lon="-5.173450">
        <ele>2422.0</ele>
        <time>2018-08-13T12:22:23Z</time>
      </trkpt>
      <trkpt lat="40.521250" lon="-5.173433">
        <ele>2425.0</ele>
        <time>2018-08-13T12:22:24Z</time>
      </trkpt>
      <trkpt lat="40.521167" lon="-5.173467">
        <ele>2429.0</ele>
        <time>2018-08-13T12:22:25Z</time>
      </trkpt>
      <trkpt lat="40.521100" lon="-5.173517">
        <ele>2434.0</ele>
        <time>2018-08-13T12:22:26Z</time>
      </trkpt>
      <trkpt lat="40.521067" lon="-5.173583">
        <ele>2438.0</ele>
        <time>2018-08-13T12:22:27Z</time>
      </trkpt>
      <trkpt lat="40.521050" lon="-5.173667">
        <ele>2442.0</ele>
        <time>2018-08-13T12:22:28Z</time>
      </trkpt>
      <trkpt lat="40.521033" lon="-5.173767">
        <ele>2446.0</ele>
        <time>2018-08-13T12:22:29Z</time>
      </trkpt>
      <trkpt lat="40.521050" lon="-5.173850">
        <ele>2450.0</ele>
        <time>2018-08-13T12:22:30Z</time>
      </trkpt>
      <trkpt lat="40.521100" lon="-5.173933">
        <ele>2454.0</ele>
        <time>2018-08-13T12:22:31Z</time>
      </trkpt>
      <trkpt lat="40.521167" lon="-5.174017">
        <ele>2458.0</ele>
        <time>2018-08-13T12:22:32Z</time>
      </trkpt>
      <trkpt lat="40.521233" lon="-5.174067">
        <ele>2463.0</ele>
        <time>2018-08-13T12:22:33Z</time>
      </trkpt>
      <trkpt lat="40.521317" lon="-5.174100">
        <ele>2468.0</ele>
        <time>2018-08-13T12:22:34Z</time>
      </trkpt>
      <trkpt lat="40.521400" lon="-5.174100">
        <ele>2472.0</ele>
        <time>2018-08-13T12:22:35Z</time>
      </trkpt>
      <trkpt lat="40.521483" lon="-5.174083">
        <ele>2475.0</ele>
        <time>2018-08-13T12:22:36Z</time>
      </trkpt>
      <trkpt lat="40.521583" lon="-5.174050">
        <ele>2477.0</ele>
        <time>2018-08-13T12:22:37Z</time>
      </trkpt>
      <trkpt lat="40.521683" lon="-5.173967">
        <ele>2478.0</ele>
        <time>2018-08-13T12:22:38Z</time>
      </trkpt>
      <trkpt lat="40.521767" lon="-5.173867">
        <ele>2481.0</ele>
        <time>2018-08-13T12:22:39Z</time>
      </trkpt>
      <trkpt lat="40.521850" lon="-5.173733">
        <ele>2483.0</ele>
        <time>2018-08-13T12:22:40Z</time>
      </trkpt>
      <trkpt lat="40.521900" lon="-5.173583">
        <ele>2485.0</ele>
        <time>2018-08-13T12:22:41Z</time>
      </trkpt>
      <trkpt lat="40.521917" lon="-5.173433">
        <ele>2487.0</ele>
        <time>2018-08-13T12:22:42Z</time>
      </trkpt>
      <trkpt lat="40.521900" lon="-5.173283">
        <ele>2488.0</ele>
        <time>2018-08-13T12:22:43Z</time>
      </trkpt>
      <trkpt lat="40.521850" lon="-5.173133">
        <ele>2489.0</ele>
        <time>2018-08-13T12:22:44Z</time>
      </trkpt>
      <trkpt lat="40.521783" lon="-5.173000">
        <ele>2491.0</ele>
        <time>2018-08-13T12:22:45Z</time>
      </trkpt>
      <trkpt lat="40.521700" lon="-5.172900">
        <ele>2492.0</ele>
        <time>2018-08-13T12:22:46Z</time>
      </trkpt>
      <trkpt lat="40.521583" lon="-5.172850">
        <ele>2494.0</ele>
        <time>2018-08-13T12:22:47Z</time>
      </trkpt>
      <trkpt lat="40.521483" lon="-5.172833">
        <ele>2496.0</ele>
        <time>2018-08-13T12:22:48Z</time>
      </trkpt>
      <trkpt lat="40.521383" lon="-5.172833">
        <ele>2499.0</ele>
        <time>2018-08-13T12:22:49Z</time>
      </trkpt>
      <trkpt lat="40.521300" lon="-5.172867">
        <ele>2502.0</ele>
        <time>2018-08-13T12:22:50Z</time>
      </trkpt>
      <trkpt lat="40.521233" lon="-5.172900">
        <ele>2506.0</ele>
        <time>2018-08-13T12:22:51Z</time>
      </trkpt>
      <trkpt lat="40.521167" lon="-5.172950">
        <ele>2510.0</ele>
        <time>2018-08-13T12:22:52Z</time>
      </trkpt>
      <trkpt lat="40.521100" lon="-5.173000">
        <ele>2513.0</ele>
        <time>2018-08-13T12:22:53Z</time>
      </trkpt>
      <trkpt lat="40.521050" lon="-5.173050">
        <ele>2516.0</ele>
        <time>2018-08-13T12:22:54Z</time>
      </trkpt>
      <trkpt lat="40.521000" lon="-5.173100">
        <ele>2518.0</ele>
        <time>2018-08-13T12:22:55Z</time>
      </trkpt>
      <trkpt lat="40.520983" lon="-5.173183">
        <ele>2520.0</ele>
        <time>2018-08-13T12:22:56Z</time>
      </trkpt>
      <trkpt lat="40.520967" lon="-5.173283">
        <ele>2520.0</ele>
        <time>2018-08-13T12:22:57Z</time>
      </trkpt>
      <trkpt lat="40.520983" lon="-5.173383">
        <ele>2523.0</ele>
        <time>2018-08-13T12:22:58Z</time>
      </trkpt>
      <trkpt lat="40.521017" lon="-5.173467">
        <ele>2525.0</ele>
        <time>2018-08-13T12:22:59Z</time>
      </trkpt>
      <trkpt lat="40.521067" lon="-5.173517">
        <ele>2529.0</ele>
        <time>2018-08-13T12:23:00Z</time>
      </trkpt>
      <trkpt lat="40.521117" lon="-5.173567">
        <ele>2531.0</ele>
        <time>2018-08-13T12:23:01Z</time>
      </trkpt>
      <trkpt lat="40.521167" lon="-5.173600">
        <ele>2532.0</ele>
        <time>2018-08-13T12:23:02Z</time>
      </trkpt>
      <trkpt lat="40.521250" lon="-5.173633">
        <ele>2533.0</ele>
        <time>2018-08-13T12:23:03Z</time>
      </trkpt>
      <trkpt lat="40.521333" lon="-5.173617">
        <ele>2534.0</ele>
        <time>2018-08-13T12:23:04Z</time>
      </trkpt>
      <trkpt lat="40.521433" lon="-5.173600">
        <ele>2535.0</ele>
        <time>2018-08-13T12:23:05Z</time>
      </trkpt>
      <trkpt lat="40.521533" lon="-5.173533">
        <ele>2537.0</ele>
        <time>2018-08-13T12:23:06Z</time>
      </trkpt>
      <trkpt lat="40.521633" lon="-5.173450">
        <ele>2539.0</ele>
        <time>2018-08-13T12:23:07Z</time>
      </trkpt>
      <trkpt lat="40.521700" lon="-5.173333">
        <ele>2541.0</ele>
        <time>2018-08-13T12:23:08Z</time>
      </trkpt>
      <trkpt lat="40.521767" lon="-5.173200">
        <ele>2544.0</ele>
        <time>2018-08-13T12:23:09Z</time>
      </trkpt>
      <trkpt lat="40.521817" lon="-5.173050">
        <ele>2546.0</ele>
        <time>2018-08-13T12:23:10Z</time>
      </trkpt>
      <trkpt lat="40.521817" lon="-5.172883">
        <ele>2547.0</ele>
        <time>2018-08-13T12:23:11Z</time>
      </trkpt>
      <trkpt lat="40.521800" lon="-5.172717">
        <ele>2547.0</ele>
        <time>2018-08-13T12:23:12Z</time>
      </trkpt>
      <trkpt lat="40.521767" lon="-5.172550">
        <ele>2549.0</ele>
        <time>2018-08-13T12:23:13Z</time>
      </trkpt>
      <trkpt lat="40.521717" lon="-5.172400">
        <ele>2551.0</ele>
        <time>2018-08-13T12:23:14Z</time>
      </trkpt>
      <trkpt lat="40.521650" lon="-5.172283">
        <ele>2552.0</ele>
        <time>2018-08-13T12:23:15Z</time>
      </trkpt>
      <trkpt lat="40.521583" lon="-5.172167">
        <ele>2552.0</ele>
        <time>2018-08-13T12:23:16Z</time>
      </trkpt>
      <trkpt lat="40.521483" lon="-5.172100">
        <ele>2552.0</ele>
        <time>2018-08-13T12:23:17Z</time>
      </trkpt>
      <trkpt lat="40.521383" lon="-5.172050">
        <ele>2553.0</ele>
        <time>2018-08-13T12:23:18Z</time>
      </trkpt>
      <trkpt lat="40.521267" lon="-5.172033">
        <ele>2554.0</ele>
        <time>2018-08-13T12:23:19Z</time>
      </trkpt>
      <trkpt lat="40.521167" lon="-5.172033">
        <ele>2556.0</ele>
        <time>2018-08-13T12:23:20Z</time>
      </trkpt>
      <trkpt lat="40.521067" lon="-5.172050">
        <ele>2558.0</ele>
        <time>2018-08-13T12:23:21Z</time>
      </trkpt>
      <trkpt lat="40.520983" lon="-5.172100">
        <ele>2560.0</ele>
        <time>2018-08-13T12:23:22Z</time>
      </trkpt>
      <trkpt lat="40.520917" lon="-5.172150">
        <ele>2562.0</ele>
        <time>2018-08-13T12:23:23Z</time>
      </trkpt>
      <trkpt lat="40.520867" lon="-5.172250">
        <ele>2563.0</ele>
        <time>2018-08-13T12:23:24Z</time>
      </trkpt>
      <trkpt lat="40.520850" lon="-5.172350">
        <ele>2564.0</ele>
        <time>2018-08-13T12:23:25Z</time>
      </trkpt>
      <trkpt lat="40.520850" lon="-5.172450">
        <ele>2565.0</ele>
        <time>2018-08-13T12:23:26Z</time>
      </trkpt>
      <trkpt lat="40.520867" lon="-5.172550">
        <ele>2566.0</ele>
        <time>2018-08-13T12:23:27Z</time>
      </trkpt>
      <trkpt lat="40.520917" lon="-5.172617">
        <ele>2567.0</ele>
        <time>2018-08-13T12:23:28Z</time>
      </trkpt>
      <trkpt lat="40.520967" lon="-5.172683">
        <ele>2568.0</ele>
        <time>2018-08-13T12:23:29Z</time>
      </trkpt>
      <trkpt lat="40.521000" lon="-5.172733">
        <ele>2570.0</ele>
        <time>2018-08-13T12:23:30Z</time>
      </trkpt>
      <trkpt lat="40.521033" lon="-5.172817">
        <ele>2572.0</ele>
        <time>2018-08-13T12:23:31Z</time>
      </trkpt>
      <trkpt lat="40.521067" lon="-5.172883">
        <ele>2574.0</ele>
        <time>2018-08-13T12:23:32Z</time>
      </trkpt>
      <trkpt lat="40.521100" lon="-5.172933">
        <ele>2575.0</ele>
        <time>2018-08-13T12:23:33Z</time>
      </trkpt>
      <trkpt lat="40.521150" lon="-5.172967">
        <ele>2575.0</ele>
        <time>2018-08-13T12:23:34Z</time>
      </trkpt>
      <trkpt lat="40.521217" lon="-5.172967">
        <ele>2574.0</ele>
        <time>2018-08-13T12:23:35Z</time>
      </trkpt>
      <trkpt lat="40.521300" lon="-5.172967">
        <ele>2573.0</ele>
        <time>2018-08-13T12:23:36Z</time>
      </trkpt>
      <trkpt lat="40.521383" lon="-5.172967">
        <ele>2572.0</ele>
        <time>2018-08-13T12:23:37Z</time>
      </trkpt>
      <trkpt lat="40.521483" lon="-5.172933">
        <ele>2571.0</ele>
        <time>2018-08-13T12:23:38Z</time>
      </trkpt>
      <trkpt lat="40.521583" lon="-5.172900">
        <ele>2571.0</ele>
        <time>2018-08-13T12:23:39Z</time>
      </trkpt>
      <trkpt lat="40.521667" lon="-5.172817">
        <ele>2571.0</ele>
        <time>2018-08-13T12:23:40Z</time>
      </trkpt>
      <trkpt lat="40.521767" lon="-5.172733">
        <ele>2570.0</ele>
        <time>2018-08-13T12:23:41Z</time>
      </trkpt>
      <trkpt lat="40.521833" lon="-5.172633">
        <ele>2570.0</ele>
        <time>2018-08-13T12:23:42Z</time>
      </trkpt>
      <trkpt lat="40.521900" lon="-5.172533">
        <ele>2569.0</ele>
        <time>2018-08-13T12:23:43Z</time>
      </trkpt>
      <trkpt lat="40.521967" lon="-5.172433">
        <ele>2569.0</ele>
        <time>2018-08-13T12:23:44Z</time>
      </trkpt>
      <trkpt lat="40.522017" lon="-5.172333">
        <ele>2569.0</ele>
        <time>2018-08-13T12:23:45Z</time>
      </trkpt>
      <trkpt lat="40.522067" lon="-5.172233">
        <ele>2568.0</ele>
        <time>2018-08-13T12:23:46Z</time>
      </trkpt>
      <trkpt lat="40.522117" lon="-5.172133">
        <ele>2567.0</ele>
        <time>2018-08-13T12:23:47Z</time>
      </trkpt>
      <trkpt lat="40.522183" lon="-5.172017">
        <ele>2566.0</ele>
        <time>2018-08-13T12:23:48Z</time>
      </trkpt>
      <trkpt lat="40.522250" lon="-5.171917">
        <ele>2566.0</ele>
        <time>2018-08-13T12:23:49Z</time>
      </trkpt>
      <trkpt lat="40.522317" lon="-5.171800">
        <ele>2566.0</ele>
        <time>2018-08-13T12:23:50Z</time>
      </trkpt>
      <trkpt lat="40.522383" lon="-5.171717">
        <ele>2566.0</ele>
        <time>2018-08-13T12:23:51Z</time>
      </trkpt>
      <trkpt lat="40.522467" lon="-5.171633">
        <ele>2567.0</ele>
        <time>2018-08-13T12:23:52Z</time>
      </trkpt>
      <trkpt lat="40.522517" lon="-5.171533">
        <ele>2567.0</ele>
        <time>2018-08-13T12:23:53Z</time>
      </trkpt>
      <trkpt lat="40.522583" lon="-5.171433">
        <ele>2567.0</ele>
        <time>2018-08-13T12:23:54Z</time>
      </trkpt>
      <trkpt lat="40.522633" lon="-5.171317">
        <ele>2569.0</ele>
        <time>2018-08-13T12:23:55Z</time>
      </trkpt>
      <trkpt lat="40.522683" lon="-5.171217">
        <ele>2570.0</ele>
        <time>2018-08-13T12:23:56Z</time>
      </trkpt>
      <trkpt lat="40.522733" lon="-5.171133">
        <ele>2572.0</ele>
        <time>2018-08-13T12:23:57Z</time>
      </trkpt>
      <trkpt lat="40.522783" lon="-5.171050">
        <ele>2572.0</ele>
        <time>2018-08-13T12:23:58Z</time>
      </trkpt>
      <trkpt lat="40.522833" lon="-5.170967">
        <ele>2572.0</ele>
        <time>2018-08-13T12:23:59Z</time>
      </trkpt>
      <trkpt lat="40.522883" lon="-5.170867">
        <ele>2572.0</ele>
        <time>2018-08-13T12:24:00Z</time>
      </trkpt>
      <trkpt lat="40.522950" lon="-5.170783">
        <ele>2571.0</ele>
        <time>2018-08-13T12:24:01Z</time>
      </trkpt>
      <trkpt lat="40.523000" lon="-5.170667">
        <ele>2570.0</ele>
        <time>2018-08-13T12:24:02Z</time>
      </trkpt>
      <trkpt lat="40.523033" lon="-5.170517">
        <ele>2569.0</ele>
        <time>2018-08-13T12:24:03Z</time>
      </trkpt>
      <trkpt lat="40.523067" lon="-5.170383">
        <ele>2568.0</ele>
        <time>2018-08-13T12:24:04Z</time>
      </trkpt>
      <trkpt lat="40.523067" lon="-5.170250">
        <ele>2567.0</ele>
        <time>2018-08-13T12:24:05Z</time>
      </trkpt>
      <trkpt lat="40.523067" lon="-5.170100">
        <ele>2567.0</ele>
        <time>2018-08-13T12:24:06Z</time>
      </trkpt>
      <trkpt lat="40.523083" lon="-5.169967">
        <ele>2567.0</ele>
        <time>2018-08-13T12:24:07Z</time>
      </trkpt>
      <trkpt lat="40.523100" lon="-5.169817">
        <ele>2568.0</ele>
        <time>2018-08-13T12:24:08Z</time>
      </trkpt>
      <trkpt lat="40.523117" lon="-5.169683">
        <ele>2568.0</ele>
        <time>2018-08-13T12:24:09Z</time>
      </trkpt>
      <trkpt lat="40.523133" lon="-5.169533">
        <ele>2568.0</ele>
        <time>2018-08-13T12:24:10Z</time>
      </trkpt>
      <trkpt lat="40.523167" lon="-5.169400">
        <ele>2569.0</ele>
        <time>2018-08-13T12:24:11Z</time>
      </trkpt>
      <trkpt lat="40.523183" lon="-5.169267">
        <ele>2570.0</ele>
        <time>2018-08-13T12:24:12Z</time>
      </trkpt>
      <trkpt lat="40.523217" lon="-5.169150">
        <ele>2569.0</ele>
        <time>2018-08-13T12:24:13Z</time>
      </trkpt>
      <trkpt lat="40.523250" lon="-5.169017">
        <ele>2568.0</ele>
        <time>2018-08-13T12:24:14Z</time>
      </trkpt>
      <trkpt lat="40.523317" lon="-5.168867">
        <ele>2568.0</ele>
        <time>2018-08-13T12:24:15Z</time>
      </trkpt>
      <trkpt lat="40.523383" lon="-5.168733">
        <ele>2568.0</ele>
        <time>2018-08-13T12:24:16Z</time>
      </trkpt>
      <trkpt lat="40.523450" lon="-5.168583">
        <ele>2571.0</ele>
        <time>2018-08-13T12:24:17Z</time>
      </trkpt>
      <trkpt lat="40.523517" lon="-5.168433">
        <ele>2574.0</ele>
        <time>2018-08-13T12:24:18Z</time>
      </trkpt>
      <trkpt lat="40.523550" lon="-5.168300">
        <ele>2577.0</ele>
        <time>2018-08-13T12:24:19Z</time>
      </trkpt>
      <trkpt lat="40.523600" lon="-5.168167">
        <ele>2579.0</ele>
        <time>2018-08-13T12:24:20Z</time>
      </trkpt>
      <trkpt lat="40.523633" lon="-5.168017">
        <ele>2580.0</ele>
        <time>2018-08-13T12:24:21Z</time>
      </trkpt>
      <trkpt lat="40.523700" lon="-5.167883">
        <ele>2581.0</ele>
        <time>2018-08-13T12:24:22Z</time>
      </trkpt>
      <trkpt lat="40.523750" lon="-5.167733">
        <ele>2581.0</ele>
        <time>2018-08-13T12:24:23Z</time>
      </trkpt>
      <trkpt lat="40.523817" lon="-5.167567">
        <ele>2581.0</ele>
        <time>2018-08-13T12:24:24Z</time>
      </trkpt>
      <trkpt lat="40.523883" lon="-5.167400">
        <ele>2581.0</ele>
        <time>2018-08-13T12:24:25Z</time>
      </trkpt>
      <trkpt lat="40.523933" lon="-5.167250">
        <ele>2582.0</ele>
        <time>2018-08-13T12:24:26Z</time>
      </trkpt>
      <trkpt lat="40.523983" lon="-5.167100">
        <ele>2582.0</ele>
        <time>2018-08-13T12:24:27Z</time>
      </trkpt>
      <trkpt lat="40.524033" lon="-5.166967">
        <ele>2581.0</ele>
        <time>2018-08-13T12:24:28Z</time>
      </trkpt>
      <trkpt lat="40.524100" lon="-5.166833">
        <ele>2581.0</ele>
        <time>2018-08-13T12:24:29Z</time>
      </trkpt>
      <trkpt lat="40.524183" lon="-5.166683">
        <ele>2580.0</ele>
        <time>2018-08-13T12:24:30Z</time>
      </trkpt>
      <trkpt lat="40.524283" lon="-5.166550">
        <ele>2581.0</ele>
        <time>2018-08-13T12:24:31Z</time>
      </trkpt>
      <trkpt lat="40.524400" lon="-5.166433">
        <ele>2582.0</ele>
        <time>2018-08-13T12:24:32Z</time>
      </trkpt>
      <trkpt lat="40.524500" lon="-5.166333">
        <ele>2583.0</ele>
        <time>2018-08-13T12:24:33Z</time>
      </trkpt>
      <trkpt lat="40.524600" lon="-5.166233">
        <ele>2584.0</ele>
        <time>2018-08-13T12:24:34Z</time>
      </trkpt>
      <trkpt lat="40.524683" lon="-5.166117">
        <ele>2584.0</ele>
        <time>2018-08-13T12:24:35Z</time>
      </trkpt>
      <trkpt lat="40.524750" lon="-5.165983">
        <ele>2583.0</ele>
        <time>2018-08-13T12:24:36Z</time>
      </trkpt>
      <trkpt lat="40.524817" lon="-5.165850">
        <ele>2582.0</ele>
        <time>2018-08-13T12:24:37Z</time>
      </trkpt>
      <trkpt lat="40.524900" lon="-5.165700">
        <ele>2580.0</ele>
        <time>2018-08-13T12:24:38Z</time>
      </trkpt>
      <trkpt lat="40.524967" lon="-5.165533">
        <ele>2579.0</ele>
        <time>2018-08-13T12:24:39Z</time>
      </trkpt>
      <trkpt lat="40.525017" lon="-5.165367">
        <ele>2577.0</ele>
        <time>2018-08-13T12:24:40Z</time>
      </trkpt>
      <trkpt lat="40.525083" lon="-5.165183">
        <ele>2577.0</ele>
        <time>2018-08-13T12:24:41Z</time>
      </trkpt>
      <trkpt lat="40.525133" lon="-5.165017">
        <ele>2577.0</ele>
        <time>2018-08-13T12:24:42Z</time>
      </trkpt>
      <trkpt lat="40.525183" lon="-5.164850">
        <ele>2577.0</ele>
        <time>2018-08-13T12:24:43Z</time>
      </trkpt>
      <trkpt lat="40.525217" lon="-5.164683">
        <ele>2577.0</ele>
        <time>2018-08-13T12:24:44Z</time>
      </trkpt>
      <trkpt lat="40.525267" lon="-5.164533">
        <ele>2576.0</ele>
        <time>2018-08-13T12:24:45Z</time>
      </trkpt>
      <trkpt lat="40.525317" lon="-5.164383">
        <ele>2575.0</ele>
        <time>2018-08-13T12:24:46Z</time>
      </trkpt>
      <trkpt lat="40.525367" lon="-5.164233">
        <ele>2573.0</ele>
        <time>2018-08-13T12:24:47Z</time>
      </trkpt>
      <trkpt lat="40.525417" lon="-5.164067">
        <ele>2571.0</ele>
        <time>2018-08-13T12:24:48Z</time>
      </trkpt>
      <trkpt lat="40.525467" lon="-5.163900">
        <ele>2570.0</ele>
        <time>2018-08-13T12:24:49Z</time>
      </trkpt>
      <trkpt lat="40.525483" lon="-5.163733">
        <ele>2568.0</ele>
        <time>2018-08-13T12:24:50Z</time>
      </trkpt>
      <trkpt lat="40.525483" lon="-5.163550">
        <ele>2566.0</ele>
        <time>2018-08-13T12:24:51Z</time>
      </trkpt>
      <trkpt lat="40.525483" lon="-5.163367">
        <ele>2565.0</ele>
        <time>2018-08-13T12:24:52Z</time>
      </trkpt>
      <trkpt lat="40.525483" lon="-5.163167">
        <ele>2564.0</ele>
        <time>2018-08-13T12:24:53Z</time>
      </trkpt>
      <trkpt lat="40.525483" lon="-5.162983">
        <ele>2564.0</ele>
        <time>2018-08-13T12:24:54Z</time>
      </trkpt>
      <trkpt lat="40.525467" lon="-5.162800">
        <ele>2565.0</ele>
        <time>2018-08-13T12:24:55Z</time>
      </trkpt>
      <trkpt lat="40.525433" lon="-5.162617">
        <ele>2565.0</ele>
        <time>2018-08-13T12:24:56Z</time>
      </trkpt>
      <trkpt lat="40.525383" lon="-5.162467">
        <ele>2565.0</ele>
        <time>2018-08-13T12:24:57Z</time>
      </trkpt>
      <trkpt lat="40.525317" lon="-5.162300">
        <ele>2565.0</ele>
        <time>2018-08-13T12:24:58Z</time>
      </trkpt>
      <trkpt lat="40.525233" lon="-5.162150">
        <ele>2565.0</ele>
        <time>2018-08-13T12:24:59Z</time>
      </trkpt>
      <trkpt lat="40.525150" lon="-5.162017">
        <ele>2566.0</ele>
        <time>2018-08-13T12:25:00Z</time>
      </trkpt>
      <trkpt lat="40.525067" lon="-5.161883">
        <ele>2568.0</ele>
        <time>2018-08-13T12:25:01Z</time>
      </trkpt>
      <trkpt lat="40.525000" lon="-5.161750">
        <ele>2571.0</ele>
        <time>2018-08-13T12:25:02Z</time>
      </trkpt>
      <trkpt lat="40.524933" lon="-5.161617">
        <ele>2573.0</ele>
        <time>2018-08-13T12:25:03Z</time>
      </trkpt>
      <trkpt lat="40.524883" lon="-5.161483">
        <ele>2574.0</ele>
        <time>2018-08-13T12:25:04Z</time>
      </trkpt>
      <trkpt lat="40.524817" lon="-5.161350">
        <ele>2575.0</ele>
        <time>2018-08-13T12:25:05Z</time>
      </trkpt>
      <trkpt lat="40.524767" lon="-5.161217">
        <ele>2576.0</ele>
        <time>2018-08-13T12:25:06Z</time>
      </trkpt>
      <trkpt lat="40.524700" lon="-5.161100">
        <ele>2577.0</ele>
        <time>2018-08-13T12:25:07Z</time>
      </trkpt>
      <trkpt lat="40.524650" lon="-5.161000">
        <ele>2578.0</ele>
        <time>2018-08-13T12:25:08Z</time>
      </trkpt>
      <trkpt lat="40.524583" lon="-5.160917">
        <ele>2578.0</ele>
        <time>2018-08-13T12:25:09Z</time>
      </trkpt>
      <trkpt lat="40.524500" lon="-5.160833">
        <ele>2577.0</ele>
        <time>2018-08-13T12:25:10Z</time>
      </trkpt>
      <trkpt lat="40.524417" lon="-5.160767">
        <ele>2576.0</ele>
        <time>2018-08-13T12:25:11Z</time>
      </trkpt>
      <trkpt lat="40.524333" lon="-5.160717">
        <ele>2577.0</ele>
        <time>2018-08-13T12:25:12Z</time>
      </trkpt>
      <trkpt lat="40.524250" lon="-5.160700">
        <ele>2579.0</ele>
        <time>2018-08-13T12:25:13Z</time>
      </trkpt>
      <trkpt lat="40.524183" lon="-5.160700">
        <ele>2580.0</ele>
        <time>2018-08-13T12:25:14Z</time>
      </trkpt>
      <trkpt lat="40.524150" lon="-5.160750">
        <ele>2581.0</ele>
        <time>2018-08-13T12:25:15Z</time>
      </trkpt>
      <trkpt lat="40.524133" lon="-5.160800">
        <ele>2582.0</ele>
        <time>2018-08-13T12:25:16Z</time>
      </trkpt>
      <trkpt lat="40.524133" lon="-5.160867">
        <ele>2584.0</ele>
        <time>2018-08-13T12:25:17Z</time>
      </trkpt>
      <trkpt lat="40.524150" lon="-5.160933">
        <ele>2585.0</ele>
        <time>2018-08-13T12:25:18Z</time>
      </trkpt>
      <trkpt lat="40.524167" lon="-5.161000">
        <ele>2585.0</ele>
        <time>2018-08-13T12:25:19Z</time>
      </trkpt>
      <trkpt lat="40.524200" lon="-5.161050">
        <ele>2585.0</ele>
        <time>2018-08-13T12:25:20Z</time>
      </trkpt>
      <trkpt lat="40.524250" lon="-5.161133">
        <ele>2584.0</ele>
        <time>2018-08-13T12:25:21Z</time>
      </trkpt>
      <trkpt lat="40.524317" lon="-5.161200">
        <ele>2582.0</ele>
        <time>2018-08-13T12:25:22Z</time>
      </trkpt>
      <trkpt lat="40.524400" lon="-5.161267">
        <ele>2581.0</ele>
        <time>2018-08-13T12:25:23Z</time>
      </trkpt>
      <trkpt lat="40.524517" lon="-5.161317">
        <ele>2580.0</ele>
        <time>2018-08-13T12:25:24Z</time>
      </trkpt>
      <trkpt lat="40.524633" lon="-5.161333">
        <ele>2579.0</ele>
        <time>2018-08-13T12:25:25Z</time>
      </trkpt>
      <trkpt lat="40.524767" lon="-5.161333">
        <ele>2579.0</ele>
        <time>2018-08-13T12:25:26Z</time>
      </trkpt>
      <trkpt lat="40.524900" lon="-5.161333">
        <ele>2579.0</ele>
        <time>2018-08-13T12:25:27Z</time>
      </trkpt>
      <trkpt lat="40.525033" lon="-5.161300">
        <ele>2579.0</ele>
        <time>2018-08-13T12:25:28Z</time>
      </trkpt>
      <trkpt lat="40.525167" lon="-5.161267">
        <ele>2580.0</ele>
        <time>2018-08-13T12:25:29Z</time>
      </trkpt>
      <trkpt lat="40.525283" lon="-5.161183">
        <ele>2582.0</ele>
        <time>2018-08-13T12:25:30Z</time>
      </trkpt>
      <trkpt lat="40.525383" lon="-5.161100">
        <ele>2585.0</ele>
        <time>2018-08-13T12:25:31Z</time>
      </trkpt>
      <trkpt lat="40.525450" lon="-5.160983">
        <ele>2587.0</ele>
        <time>2018-08-13T12:25:32Z</time>
      </trkpt>
      <trkpt lat="40.525533" lon="-5.160883">
        <ele>2588.0</ele>
        <time>2018-08-13T12:25:33Z</time>
      </trkpt>
      <trkpt lat="40.525600" lon="-5.160783">
        <ele>2588.0</ele>
        <time>2018-08-13T12:25:34Z</time>
      </trkpt>
      <trkpt lat="40.525683" lon="-5.160683">
        <ele>2587.0</ele>
        <time>2018-08-13T12:25:35Z</time>
      </trkpt>
      <trkpt lat="40.525783" lon="-5.160583">
        <ele>2586.0</ele>
        <time>2018-08-13T12:25:36Z</time>
      </trkpt>
      <trkpt lat="40.525867" lon="-5.160450">
        <ele>2586.0</ele>
        <time>2018-08-13T12:25:37Z</time>
      </trkpt>
      <trkpt lat="40.525933" lon="-5.160317">
        <ele>2585.0</ele>
        <time>2018-08-13T12:25:38Z</time>
      </trkpt>
      <trkpt lat="40.526017" lon="-5.160167">
        <ele>2586.0</ele>
        <time>2018-08-13T12:25:39Z</time>
      </trkpt>
      <trkpt lat="40.526100" lon="-5.160050">
        <ele>2586.0</ele>
        <time>2018-08-13T12:25:40Z</time>
      </trkpt>
      <trkpt lat="40.526183" lon="-5.159917">
        <ele>2587.0</ele>
        <time>2018-08-13T12:25:41Z</time>
      </trkpt>
      <trkpt lat="40.526267" lon="-5.159767">
        <ele>2587.0</ele>
        <time>2018-08-13T12:25:42Z</time>
      </trkpt>
      <trkpt lat="40.526333" lon="-5.159633">
        <ele>2588.0</ele>
        <time>2018-08-13T12:25:43Z</time>
      </trkpt>
      <trkpt lat="40.526400" lon="-5.159483">
        <ele>2589.0</ele>
        <time>2018-08-13T12:25:44Z</time>
      </trkpt>
      <trkpt lat="40.526467" lon="-5.159350">
        <ele>2590.0</ele>
        <time>2018-08-13T12:25:45Z</time>
      </trkpt>
      <trkpt lat="40.526533" lon="-5.159200">
        <ele>2591.0</ele>
        <time>2018-08-13T12:25:46Z</time>
      </trkpt>
      <trkpt lat="40.526600" lon="-5.159067">
        <ele>2591.0</ele>
        <time>2018-08-13T12:25:47Z</time>
      </trkpt>
      <trkpt lat="40.526667" lon="-5.158917">
        <ele>2591.0</ele>
        <time>2018-08-13T12:25:48Z</time>
      </trkpt>
      <trkpt lat="40.526750" lon="-5.158767">
        <ele>2591.0</ele>
        <time>2018-08-13T12:25:49Z</time>
      </trkpt>
      <trkpt lat="40.526833" lon="-5.158617">
        <ele>2591.0</ele>
        <time>2018-08-13T12:25:50Z</time>
      </trkpt>
      <trkpt lat="40.526900" lon="-5.158483">
        <ele>2592.0</ele>
        <time>2018-08-13T12:25:51Z</time>
      </trkpt>
      <trkpt lat="40.526983" lon="-5.158333">
        <ele>2592.0</ele>
        <time>2018-08-13T12:25:52Z</time>
      </trkpt>
      <trkpt lat="40.527050" lon="-5.158200">
        <ele>2592.0</ele>
        <time>2018-08-13T12:25:53Z</time>
      </trkpt>
      <trkpt lat="40.527117" lon="-5.158033">
        <ele>2591.0</ele>
        <time>2018-08-13T12:25:54Z</time>
      </trkpt>
      <trkpt lat="40.527167" lon="-5.157867">
        <ele>2590.0</ele>
        <time>2018-08-13T12:25:55Z</time>
      </trkpt>
      <trkpt lat="40.527217" lon="-5.157683">
        <ele>2589.0</ele>
        <time>2018-08-13T12:25:56Z</time>
      </trkpt>
      <trkpt lat="40.527250" lon="-5.157500">
        <ele>2588.0</ele>
        <time>2018-08-13T12:25:57Z</time>
      </trkpt>
      <trkpt lat="40.527283" lon="-5.157333">
        <ele>2587.0</ele>
        <time>2018-08-13T12:25:58Z</time>
      </trkpt>
      <trkpt lat="40.527317" lon="-5.157150">
        <ele>2586.0</ele>
        <time>2018-08-13T12:25:59Z</time>
      </trkpt>
      <trkpt lat="40.527350" lon="-5.156983">
        <ele>2585.0</ele>
        <time>2018-08-13T12:26:00Z</time>
      </trkpt>
      <trkpt lat="40.527400" lon="-5.156817">
        <ele>2584.0</ele>
        <time>2018-08-13T12:26:01Z</time>
      </trkpt>
      <trkpt lat="40.527450" lon="-5.156650">
        <ele>2584.0</ele>
        <time>2018-08-13T12:26:02Z</time>
      </trkpt>
      <trkpt lat="40.527517" lon="-5.156500">
        <ele>2582.0</ele>
        <time>2018-08-13T12:26:03Z</time>
      </trkpt>
      <trkpt lat="40.527583" lon="-5.156350">
        <ele>2580.0</ele>
        <time>2018-08-13T12:26:04Z</time>
      </trkpt>
      <trkpt lat="40.527667" lon="-5.156183">
        <ele>2577.0</ele>
        <time>2018-08-13T12:26:05Z</time>
      </trkpt>
      <trkpt lat="40.527750" lon="-5.156033">
        <ele>2574.0</ele>
        <time>2018-08-13T12:26:06Z</time>
      </trkpt>
      <trkpt lat="40.527850" lon="-5.155867">
        <ele>2572.0</ele>
        <time>2018-08-13T12:26:07Z</time>
      </trkpt>
      <trkpt lat="40.527933" lon="-5.155700">
        <ele>2571.0</ele>
        <time>2018-08-13T12:26:08Z</time>
      </trkpt>
      <trkpt lat="40.528017" lon="-5.155533">
        <ele>2569.0</ele>
        <time>2018-08-13T12:26:09Z</time>
      </trkpt>
      <trkpt lat="40.528100" lon="-5.155367">
        <ele>2568.0</ele>
        <time>2018-08-13T12:26:10Z</time>
      </trkpt>
      <trkpt lat="40.528167" lon="-5.155200">
        <ele>2566.0</ele>
        <time>2018-08-13T12:26:11Z</time>
      </trkpt>
      <trkpt lat="40.528267" lon="-5.155033">
        <ele>2564.0</ele>
        <time>2018-08-13T12:26:12Z</time>
      </trkpt>
      <trkpt lat="40.528350" lon="-5.154867">
        <ele>2562.0</ele>
        <time>2018-08-13T12:26:13Z</time>
      </trkpt>
      <trkpt lat="40.528450" lon="-5.154700">
        <ele>2559.0</ele>
        <time>2018-08-13T12:26:14Z</time>
      </trkpt>
      <trkpt lat="40.528567" lon="-5.154533">
        <ele>2556.0</ele>
        <time>2018-08-13T12:26:15Z</time>
      </trkpt>
      <trkpt lat="40.528683" lon="-5.154367">
        <ele>2553.0</ele>
        <time>2018-08-13T12:26:16Z</time>
      </trkpt>
      <trkpt lat="40.528800" lon="-5.154183">
        <ele>2551.0</ele>
        <time>2018-08-13T12:26:17Z</time>
      </trkpt>
      <trkpt lat="40.528917" lon="-5.154017">
        <ele>2549.0</ele>
        <time>2018-08-13T12:26:18Z</time>
      </trkpt>
      <trkpt lat="40.529017" lon="-5.153850">
        <ele>2547.0</ele>
        <time>2018-08-13T12:26:19Z</time>
      </trkpt>
      <trkpt lat="40.529117" lon="-5.153667">
        <ele>2545.0</ele>
        <time>2018-08-13T12:26:20Z</time>
      </trkpt>
      <trkpt lat="40.529217" lon="-5.153483">
        <ele>2542.0</ele>
        <time>2018-08-13T12:26:21Z</time>
      </trkpt>
      <trkpt lat="40.529333" lon="-5.153300">
        <ele>2540.0</ele>
        <time>2018-08-13T12:26:22Z</time>
      </trkpt>
      <trkpt lat="40.529433" lon="-5.153117">
        <ele>2538.0</ele>
        <time>2018-08-13T12:26:23Z</time>
      </trkpt>
      <trkpt lat="40.529533" lon="-5.152950">
        <ele>2536.0</ele>
        <time>2018-08-13T12:26:24Z</time>
      </trkpt>
      <trkpt lat="40.529633" lon="-5.152767">
        <ele>2534.0</ele>
        <time>2018-08-13T12:26:25Z</time>
      </trkpt>
      <trkpt lat="40.529733" lon="-5.152583">
        <ele>2531.0</ele>
        <time>2018-08-13T12:26:26Z</time>
      </trkpt>
      <trkpt lat="40.529817" lon="-5.152400">
        <ele>2528.0</ele>
        <time>2018-08-13T12:26:27Z</time>
      </trkpt>
      <trkpt lat="40.529917" lon="-5.152217">
        <ele>2524.0</ele>
        <time>2018-08-13T12:26:28Z</time>
      </trkpt>
      <trkpt lat="40.530017" lon="-5.152033">
        <ele>2522.0</ele>
        <time>2018-08-13T12:26:29Z</time>
      </trkpt>
      <trkpt lat="40.530117" lon="-5.151833">
        <ele>2519.0</ele>
        <time>2018-08-13T12:26:30Z</time>
      </trkpt>
      <trkpt lat="40.530183" lon="-5.151633">
        <ele>2517.0</ele>
        <time>2018-08-13T12:26:31Z</time>
      </trkpt>
      <trkpt lat="40.530250" lon="-5.151433">
        <ele>2515.0</ele>
        <time>2018-08-13T12:26:32Z</time>
      </trkpt>
      <trkpt lat="40.530317" lon="-5.151233">
        <ele>2513.0</ele>
        <time>2018-08-13T12:26:33Z</time>
      </trkpt>
      <trkpt lat="40.530383" lon="-5.151033">
        <ele>2510.0</ele>
        <time>2018-08-13T12:26:34Z</time>
      </trkpt>
      <trkpt lat="40.530433" lon="-5.150817">
        <ele>2508.0</ele>
        <time>2018-08-13T12:26:35Z</time>
      </trkpt>
      <trkpt lat="40.530483" lon="-5.150617">
        <ele>2505.0</ele>
        <time>2018-08-13T12:26:36Z</time>
      </trkpt>
      <trkpt lat="40.530533" lon="-5.150400">
        <ele>2502.0</ele>
        <time>2018-08-13T12:26:37Z</time>
      </trkpt>
      <trkpt lat="40.530600" lon="-5.150183">
        <ele>2499.0</ele>
        <time>2018-08-13T12:26:38Z</time>
      </trkpt>
      <trkpt lat="40.530650" lon="-5.149967">
        <ele>2496.0</ele>
        <time>2018-08-13T12:26:39Z</time>
      </trkpt>
      <trkpt lat="40.530700" lon="-5.149767">
        <ele>2493.0</ele>
        <time>2018-08-13T12:26:40Z</time>
      </trkpt>
      <trkpt lat="40.530767" lon="-5.149550">
        <ele>2490.0</ele>
        <time>2018-08-13T12:26:41Z</time>
      </trkpt>
      <trkpt lat="40.530817" lon="-5.149333">
        <ele>2488.0</ele>
        <time>2018-08-13T12:26:42Z</time>
      </trkpt>
      <trkpt lat="40.530867" lon="-5.149133">
        <ele>2486.0</ele>
        <time>2018-08-13T12:26:43Z</time>
      </trkpt>
      <trkpt lat="40.530933" lon="-5.148933">
        <ele>2483.0</ele>
        <time>2018-08-13T12:26:44Z</time>
      </trkpt>
      <trkpt lat="40.531000" lon="-5.148733">
        <ele>2481.0</ele>
        <time>2018-08-13T12:26:45Z</time>
      </trkpt>
      <trkpt lat="40.531067" lon="-5.148533">
        <ele>2478.0</ele>
        <time>2018-08-13T12:26:46Z</time>
      </trkpt>
      <trkpt lat="40.531133" lon="-5.148317">
        <ele>2475.0</ele>
        <time>2018-08-13T12:26:47Z</time>
      </trkpt>
      <trkpt lat="40.531200" lon="-5.148100">
        <ele>2473.0</ele>
        <time>2018-08-13T12:26:48Z</time>
      </trkpt>
      <trkpt lat="40.531267" lon="-5.147900">
        <ele>2471.0</ele>
        <time>2018-08-13T12:26:49Z</time>
      </trkpt>
      <trkpt lat="40.531333" lon="-5.147683">
        <ele>2470.0</ele>
        <time>2018-08-13T12:26:50Z</time>
      </trkpt>
      <trkpt lat="40.531400" lon="-5.147483">
        <ele>2469.0</ele>
        <time>2018-08-13T12:26:51Z</time>
      </trkpt>
      <trkpt lat="40.531450" lon="-5.147283">
        <ele>2468.0</ele>
        <time>2018-08-13T12:26:52Z</time>
      </trkpt>
      <trkpt lat="40.531517" lon="-5.147100">
        <ele>2467.0</ele>
        <time>2018-08-13T12:26:53Z</time>
      </trkpt>
      <trkpt lat="40.531583" lon="-5.146917">
        <ele>2465.0</ele>
        <time>2018-08-13T12:26:54Z</time>
      </trkpt>
      <trkpt lat="40.531633" lon="-5.146717">
        <ele>2462.0</ele>
        <time>2018-08-13T12:26:55Z</time>
      </trkpt>
      <trkpt lat="40.531700" lon="-5.146533">
        <ele>2460.0</ele>
        <time>2018-08-13T12:26:56Z</time>
      </trkpt>
      <trkpt lat="40.531767" lon="-5.146333">
        <ele>2459.0</ele>
        <time>2018-08-13T12:26:57Z</time>
      </trkpt>
      <trkpt lat="40.531833" lon="-5.146150">
        <ele>2459.0</ele>
        <time>2018-08-13T12:26:58Z</time>
      </trkpt>
      <trkpt lat="40.531900" lon="-5.145967">
        <ele>2459.0</ele>
        <time>2018-08-13T12:26:59Z</time>
      </trkpt>
      <trkpt lat="40.531967" lon="-5.145800">
        <ele>2458.0</ele>
        <time>2018-08-13T12:27:00Z</time>
      </trkpt>
      <trkpt lat="40.532033" lon="-5.145617">
        <ele>2456.0</ele>
        <time>2018-08-13T12:27:01Z</time>
      </trkpt>
      <trkpt lat="40.532100" lon="-5.145433">
        <ele>2454.0</ele>
        <time>2018-08-13T12:27:02Z</time>
      </trkpt>
      <trkpt lat="40.532183" lon="-5.145250">
        <ele>2452.0</ele>
        <time>2018-08-13T12:27:03Z</time>
      </trkpt>
      <trkpt lat="40.532267" lon="-5.145050">
        <ele>2450.0</ele>
        <time>2018-08-13T12:27:04Z</time>
      </trkpt>
      <trkpt lat="40.532333" lon="-5.144850">
        <ele>2449.0</ele>
        <time>2018-08-13T12:27:05Z</time>
      </trkpt>
      <trkpt lat="40.532383" lon="-5.144650">
        <ele>2449.0</ele>
        <time>2018-08-13T12:27:06Z</time>
      </trkpt>
      <trkpt lat="40.532450" lon="-5.144450">
        <ele>2448.0</ele>
        <time>2018-08-13T12:27:07Z</time>
      </trkpt>
      <trkpt lat="40.532517" lon="-5.144250">
        <ele>2448.0</ele>
        <time>2018-08-13T12:27:08Z</time>
      </trkpt>
      <trkpt lat="40.532583" lon="-5.144050">
        <ele>2447.0</ele>
        <time>2018-08-13T12:27:09Z</time>
      </trkpt>
      <trkpt lat="40.532650" lon="-5.143867">
        <ele>2447.0</ele>
        <time>2018-08-13T12:27:10Z</time>
      </trkpt>
      <trkpt lat="40.532717" lon="-5.143667">
        <ele>2446.0</ele>
        <time>2018-08-13T12:27:11Z</time>
      </trkpt>
      <trkpt lat="40.532783" lon="-5.143483">
        <ele>2445.0</ele>
        <time>2018-08-13T12:27:12Z</time>
      </trkpt>
      <trkpt lat="40.532833" lon="-5.143300">
        <ele>2443.0</ele>
        <time>2018-08-13T12:27:13Z</time>
      </trkpt>
      <trkpt lat="40.532917" lon="-5.143100">
        <ele>2441.0</ele>
        <time>2018-08-13T12:27:14Z</time>
      </trkpt>
      <trkpt lat="40.532983" lon="-5.142900">
        <ele>2440.0</ele>
        <time>2018-08-13T12:27:15Z</time>
      </trkpt>
      <trkpt lat="40.533050" lon="-5.142700">
        <ele>2439.0</ele>
        <time>2018-08-13T12:27:16Z</time>
      </trkpt>
      <trkpt lat="40.533117" lon="-5.142517">
        <ele>2439.0</ele>
        <time>2018-08-13T12:27:17Z</time>
      </trkpt>
      <trkpt lat="40.533183" lon="-5.142333">
        <ele>2438.0</ele>
        <time>2018-08-13T12:27:18Z</time>
      </trkpt>
      <trkpt lat="40.533250" lon="-5.142150">
        <ele>2436.0</ele>
        <time>2018-08-13T12:27:19Z</time>
      </trkpt>
      <trkpt lat="40.533317" lon="-5.141983">
        <ele>2434.0</ele>
        <time>2018-08-13T12:27:20Z</time>
      </trkpt>
      <trkpt lat="40.533400" lon="-5.141800">
        <ele>2432.0</ele>
        <time>2018-08-13T12:27:21Z</time>
      </trkpt>
      <trkpt lat="40.533483" lon="-5.141617">
        <ele>2430.0</ele>
        <time>2018-08-13T12:27:22Z</time>
      </trkpt>
      <trkpt lat="40.533583" lon="-5.141433">
        <ele>2429.0</ele>
        <time>2018-08-13T12:27:23Z</time>
      </trkpt>
      <trkpt lat="40.533667" lon="-5.141250">
        <ele>2428.0</ele>
        <time>2018-08-13T12:27:24Z</time>
      </trkpt>
      <trkpt lat="40.533767" lon="-5.141083">
        <ele>2429.0</ele>
        <time>2018-08-13T12:27:25Z</time>
      </trkpt>
      <trkpt lat="40.533833" lon="-5.140917">
        <ele>2430.0</ele>
        <time>2018-08-13T12:27:26Z</time>
      </trkpt>
      <trkpt lat="40.533917" lon="-5.140750">
        <ele>2431.0</ele>
        <time>2018-08-13T12:27:27Z</time>
      </trkpt>
      <trkpt lat="40.533967" lon="-5.140583">
        <ele>2431.0</ele>
        <time>2018-08-13T12:27:28Z</time>
      </trkpt>
      <trkpt lat="40.534033" lon="-5.140417">
        <ele>2431.0</ele>
        <time>2018-08-13T12:27:29Z</time>
      </trkpt>
      <trkpt lat="40.534083" lon="-5.140233">
        <ele>2429.0</ele>
        <time>2018-08-13T12:27:30Z</time>
      </trkpt>
      <trkpt lat="40.534133" lon="-5.140050">
        <ele>2428.0</ele>
        <time>2018-08-13T12:27:31Z</time>
      </trkpt>
      <trkpt lat="40.534183" lon="-5.139867">
        <ele>2426.0</ele>
        <time>2018-08-13T12:27:32Z</time>
      </trkpt>
      <trkpt lat="40.534233" lon="-5.139667">
        <ele>2425.0</ele>
        <time>2018-08-13T12:27:33Z</time>
      </trkpt>
      <trkpt lat="40.534267" lon="-5.139483">
        <ele>2423.0</ele>
        <time>2018-08-13T12:27:34Z</time>
      </trkpt>
      <trkpt lat="40.534300" lon="-5.139283">
        <ele>2422.0</ele>
        <time>2018-08-13T12:27:35Z</time>
      </trkpt>
      <trkpt lat="40.534333" lon="-5.139067">
        <ele>2420.0</ele>
        <time>2018-08-13T12:27:36Z</time>
      </trkpt>
      <trkpt lat="40.534350" lon="-5.138867">
        <ele>2419.0</ele>
        <time>2018-08-13T12:27:37Z</time>
      </trkpt>
      <trkpt lat="40.534383" lon="-5.138667">
        <ele>2418.0</ele>
        <time>2018-08-13T12:27:38Z</time>
      </trkpt>
      <trkpt lat="40.534417" lon="-5.138467">
        <ele>2417.0</ele>
        <time>2018-08-13T12:27:39Z</time>
      </trkpt>
      <trkpt lat="40.534433" lon="-5.138267">
        <ele>2416.0</ele>
        <time>2018-08-13T12:27:40Z</time>
      </trkpt>
      <trkpt lat="40.534467" lon="-5.138067">
        <ele>2414.0</ele>
        <time>2018-08-13T12:27:41Z</time>
      </trkpt>
      <trkpt lat="40.534500" lon="-5.137867">
        <ele>2412.0</ele>
        <time>2018-08-13T12:27:42Z</time>
      </trkpt>
      <trkpt lat="40.534533" lon="-5.137667">
        <ele>2410.0</ele>
        <time>2018-08-13T12:27:43Z</time>
      </trkpt>
      <trkpt lat="40.534583" lon="-5.137483">
        <ele>2408.0</ele>
        <time>2018-08-13T12:27:44Z</time>
      </trkpt>
      <trkpt lat="40.534633" lon="-5.137283">
        <ele>2406.0</ele>
        <time>2018-08-13T12:27:45Z</time>
      </trkpt>
      <trkpt lat="40.534683" lon="-5.137083">
        <ele>2404.0</ele>
        <time>2018-08-13T12:27:46Z</time>
      </trkpt>
      <trkpt lat="40.534733" lon="-5.136883">
        <ele>2402.0</ele>
        <time>2018-08-13T12:27:47Z</time>
      </trkpt>
      <trkpt lat="40.534800" lon="-5.136683">
        <ele>2400.0</ele>
        <time>2018-08-13T12:27:48Z</time>
      </trkpt>
      <trkpt lat="40.534850" lon="-5.136500">
        <ele>2399.0</ele>
        <time>2018-08-13T12:27:49Z</time>
      </trkpt>
      <trkpt lat="40.534900" lon="-5.136300">
        <ele>2398.0</ele>
        <time>2018-08-13T12:27:50Z</time>
      </trkpt>
      <trkpt lat="40.534967" lon="-5.136117">
        <ele>2396.0</ele>
        <time>2018-08-13T12:27:51Z</time>
      </trkpt>
      <trkpt lat="40.535017" lon="-5.135917">
        <ele>2394.0</ele>
        <time>2018-08-13T12:27:52Z</time>
      </trkpt>
      <trkpt lat="40.535083" lon="-5.135717">
        <ele>2392.0</ele>
        <time>2018-08-13T12:27:53Z</time>
      </trkpt>
      <trkpt lat="40.535133" lon="-5.135517">
        <ele>2391.0</ele>
        <time>2018-08-13T12:27:54Z</time>
      </trkpt>
      <trkpt lat="40.535200" lon="-5.135333">
        <ele>2389.0</ele>
        <time>2018-08-13T12:27:55Z</time>
      </trkpt>
      <trkpt lat="40.535250" lon="-5.135150">
        <ele>2387.0</ele>
        <time>2018-08-13T12:27:56Z</time>
      </trkpt>
      <trkpt lat="40.535317" lon="-5.134950">
        <ele>2385.0</ele>
        <time>2018-08-13T12:27:57Z</time>
      </trkpt>
      <trkpt lat="40.535367" lon="-5.134750">
        <ele>2383.0</ele>
        <time>2018-08-13T12:27:58Z</time>
      </trkpt>
      <trkpt lat="40.535417" lon="-5.134550">
        <ele>2380.0</ele>
        <time>2018-08-13T12:27:59Z</time>
      </trkpt>
      <trkpt lat="40.535467" lon="-5.134333">
        <ele>2379.0</ele>
        <time>2018-08-13T12:28:00Z</time>
      </trkpt>
      <trkpt lat="40.535517" lon="-5.134133">
        <ele>2378.0</ele>
        <time>2018-08-13T12:28:01Z</time>
      </trkpt>
      <trkpt lat="40.535550" lon="-5.133933">
        <ele>2377.0</ele>
        <time>2018-08-13T12:28:02Z</time>
      </trkpt>
      <trkpt lat="40.535583" lon="-5.133733">
        <ele>2376.0</ele>
        <time>2018-08-13T12:28:03Z</time>
      </trkpt>
      <trkpt lat="40.535617" lon="-5.133533">
        <ele>2374.0</ele>
        <time>2018-08-13T12:28:04Z</time>
      </trkpt>
      <trkpt lat="40.535650" lon="-5.133317">
        <ele>2371.0</ele>
        <time>2018-08-13T12:28:05Z</time>
      </trkpt>
      <trkpt lat="40.535667" lon="-5.133083">
        <ele>2369.0</ele>
        <time>2018-08-13T12:28:06Z</time>
      </trkpt>
      <trkpt lat="40.535700" lon="-5.132867">
        <ele>2367.0</ele>
        <time>2018-08-13T12:28:07Z</time>
      </trkpt>
      <trkpt lat="40.535733" lon="-5.132650">
        <ele>2366.0</ele>
        <time>2018-08-13T12:28:08Z</time>
      </trkpt>
      <trkpt lat="40.535767" lon="-5.132450">
        <ele>2364.0</ele>
        <time>2018-08-13T12:28:09Z</time>
      </trkpt>
      <trkpt lat="40.535800" lon="-5.132233">
        <ele>2362.0</ele>
        <time>2018-08-13T12:28:10Z</time>
      </trkpt>
      <trkpt lat="40.535817" lon="-5.132033">
        <ele>2360.0</ele>
        <time>2018-08-13T12:28:11Z</time>
      </trkpt>
      <trkpt lat="40.535867" lon="-5.131817">
        <ele>2357.0</ele>
        <time>2018-08-13T12:28:12Z</time>
      </trkpt>
      <trkpt lat="40.535900" lon="-5.131600">
        <ele>2354.0</ele>
        <time>2018-08-13T12:28:13Z</time>
      </trkpt>
      <trkpt lat="40.535933" lon="-5.131367">
        <ele>2353.0</ele>
        <time>2018-08-13T12:28:14Z</time>
      </trkpt>
      <trkpt lat="40.535967" lon="-5.131150">
        <ele>2353.0</ele>
        <time>2018-08-13T12:28:15Z</time>
      </trkpt>
      <trkpt lat="40.536000" lon="-5.130933">
        <ele>2353.0</ele>
        <time>2018-08-13T12:28:16Z</time>
      </trkpt>
      <trkpt lat="40.536033" lon="-5.130733">
        <ele>2352.0</ele>
        <time>2018-08-13T12:28:17Z</time>
      </trkpt>
      <trkpt lat="40.536083" lon="-5.130533">
        <ele>2350.0</ele>
        <time>2018-08-13T12:28:18Z</time>
      </trkpt>
      <trkpt lat="40.536133" lon="-5.130350">
        <ele>2349.0</ele>
        <time>2018-08-13T12:28:19Z</time>
      </trkpt>
      <trkpt lat="40.536183" lon="-5.130167">
        <ele>2348.0</ele>
        <time>2018-08-13T12:28:20Z</time>
      </trkpt>
      <trkpt lat="40.536217" lon="-5.129967">
        <ele>2346.0</ele>
        <time>2018-08-13T12:28:21Z</time>
      </trkpt>
      <trkpt lat="40.536267" lon="-5.129767">
        <ele>2345.0</ele>
        <time>2018-08-13T12:28:22Z</time>
      </trkpt>
      <trkpt lat="40.536300" lon="-5.129567">
        <ele>2344.0</ele>
        <time>2018-08-13T12:28:23Z</time>
      </trkpt>
      <trkpt lat="40.536350" lon="-5.129367">
        <ele>2343.0</ele>
        <time>2018-08-13T12:28:24Z</time>
      </trkpt>
      <trkpt lat="40.536383" lon="-5.129183">
        <ele>2342.0</ele>
        <time>2018-08-13T12:28:25Z</time>
      </trkpt>
      <trkpt lat="40.536417" lon="-5.129000">
        <ele>2340.0</ele>
        <time>2018-08-13T12:28:26Z</time>
      </trkpt>
      <trkpt lat="40.536467" lon="-5.128817">
        <ele>2338.0</ele>
        <time>2018-08-13T12:28:27Z</time>
      </trkpt>
      <trkpt lat="40.536517" lon="-5.128617">
        <ele>2336.0</ele>
        <time>2018-08-13T12:28:28Z</time>
      </trkpt>
      <trkpt lat="40.536550" lon="-5.128417">
        <ele>2334.0</ele>
        <time>2018-08-13T12:28:29Z</time>
      </trkpt>
      <trkpt lat="40.536583" lon="-5.128217">
        <ele>2332.0</ele>
        <time>2018-08-13T12:28:30Z</time>
      </trkpt>
      <trkpt lat="40.536617" lon="-5.128017">
        <ele>2330.0</ele>
        <time>2018-08-13T12:28:31Z</time>
      </trkpt>
      <trkpt lat="40.536650" lon="-5.127817">
        <ele>2328.0</ele>
        <time>2018-08-13T12:28:32Z</time>
      </trkpt>
      <trkpt lat="40.536700" lon="-5.127600">
        <ele>2325.0</ele>
        <time>2018-08-13T12:28:33Z</time>
      </trkpt>
      <trkpt lat="40.536733" lon="-5.127383">
        <ele>2323.0</ele>
        <time>2018-08-13T12:28:34Z</time>
      </trkpt>
      <trkpt lat="40.536767" lon="-5.127167">
        <ele>2322.0</ele>
        <time>2018-08-13T12:28:35Z</time>
      </trkpt>
      <trkpt lat="40.536800" lon="-5.126950">
        <ele>2321.0</ele>
        <time>2018-08-13T12:28:36Z</time>
      </trkpt>
      <trkpt lat="40.536833" lon="-5.126733">
        <ele>2320.0</ele>
        <time>2018-08-13T12:28:37Z</time>
      </trkpt>
      <trkpt lat="40.536867" lon="-5.126533">
        <ele>2319.0</ele>
        <time>2018-08-13T12:28:38Z</time>
      </trkpt>
      <trkpt lat="40.536883" lon="-5.126333">
        <ele>2318.0</ele>
        <time>2018-08-13T12:28:39Z</time>
      </trkpt>
      <trkpt lat="40.536917" lon="-5.126133">
        <ele>2316.0</ele>
        <time>2018-08-13T12:28:40Z</time>
      </trkpt>
      <trkpt lat="40.536950" lon="-5.125917">
        <ele>2313.0</ele>
        <time>2018-08-13T12:28:41Z</time>
      </trkpt>
      <trkpt lat="40.536967" lon="-5.125700">
        <ele>2311.0</ele>
        <time>2018-08-13T12:28:42Z</time>
      </trkpt>
      <trkpt lat="40.537000" lon="-5.125483">
        <ele>2308.0</ele>
        <time>2018-08-13T12:28:43Z</time>
      </trkpt>
      <trkpt lat="40.537033" lon="-5.125250">
        <ele>2307.0</ele>
        <time>2018-08-13T12:28:44Z</time>
      </trkpt>
      <trkpt lat="40.537067" lon="-5.125033">
        <ele>2307.0</ele>
        <time>2018-08-13T12:28:45Z</time>
      </trkpt>
      <trkpt lat="40.537083" lon="-5.124833">
        <ele>2307.0</ele>
        <time>2018-08-13T12:28:46Z</time>
      </trkpt>
      <trkpt lat="40.537117" lon="-5.124650">
        <ele>2306.0</ele>
        <time>2018-08-13T12:28:47Z</time>
      </trkpt>
      <trkpt lat="40.537133" lon="-5.124467">
        <ele>2304.0</ele>
        <time>2018-08-13T12:28:48Z</time>
      </trkpt>
      <trkpt lat="40.537167" lon="-5.124267">
        <ele>2301.0</ele>
        <time>2018-08-13T12:28:49Z</time>
      </trkpt>
      <trkpt lat="40.537200" lon="-5.124067">
        <ele>2298.0</ele>
        <time>2018-08-13T12:28:50Z</time>
      </trkpt>
      <trkpt lat="40.537250" lon="-5.123850">
        <ele>2295.0</ele>
        <time>2018-08-13T12:28:51Z</time>
      </trkpt>
      <trkpt lat="40.537283" lon="-5.123650">
        <ele>2293.0</ele>
        <time>2018-08-13T12:28:52Z</time>
      </trkpt>
      <trkpt lat="40.537317" lon="-5.123433">
        <ele>2291.0</ele>
        <time>2018-08-13T12:28:53Z</time>
      </trkpt>
      <trkpt lat="40.537333" lon="-5.123200">
        <ele>2289.0</ele>
        <time>2018-08-13T12:28:54Z</time>
      </trkpt>
      <trkpt lat="40.537350" lon="-5.122983">
        <ele>2288.0</ele>
        <time>2018-08-13T12:28:55Z</time>
      </trkpt>
      <trkpt lat="40.537367" lon="-5.122767">
        <ele>2287.0</ele>
        <time>2018-08-13T12:28:56Z</time>
      </trkpt>
      <trkpt lat="40.537383" lon="-5.122550">
        <ele>2286.0</ele>
        <time>2018-08-13T12:28:57Z</time>
      </trkpt>
      <trkpt lat="40.537400" lon="-5.122350">
        <ele>2284.0</ele>
        <time>2018-08-13T12:28:58Z</time>
      </trkpt>
      <trkpt lat="40.537417" lon="-5.122133">
        <ele>2282.0</ele>
        <time>2018-08-13T12:28:59Z</time>
      </trkpt>
      <trkpt lat="40.537433" lon="-5.121933">
        <ele>2280.0</ele>
        <time>2018-08-13T12:29:00Z</time>
      </trkpt>
      <trkpt lat="40.537450" lon="-5.121717">
        <ele>2278.0</ele>
        <time>2018-08-13T12:29:01Z</time>
      </trkpt>
      <trkpt lat="40.537483" lon="-5.121500">
        <ele>2277.0</ele>
        <time>2018-08-13T12:29:02Z</time>
      </trkpt>
      <trkpt lat="40.537517" lon="-5.121300">
        <ele>2276.0</ele>
        <time>2018-08-13T12:29:03Z</time>
      </trkpt>
      <trkpt lat="40.537533" lon="-5.121100">
        <ele>2275.0</ele>
        <time>2018-08-13T12:29:04Z</time>
      </trkpt>
      <trkpt lat="40.537550" lon="-5.120900">
        <ele>2273.0</ele>
        <time>2018-08-13T12:29:05Z</time>
      </trkpt>
      <trkpt lat="40.537567" lon="-5.120700">
        <ele>2271.0</ele>
        <time>2018-08-13T12:29:06Z</time>
      </trkpt>
      <trkpt lat="40.537583" lon="-5.120483">
        <ele>2269.0</ele>
        <time>2018-08-13T12:29:07Z</time>
      </trkpt>
      <trkpt lat="40.537600" lon="-5.120283">
        <ele>2267.0</ele>
        <time>2018-08-13T12:29:08Z</time>
      </trkpt>
      <trkpt lat="40.537617" lon="-5.120083">
        <ele>2266.0</ele>
        <time>2018-08-13T12:29:09Z</time>
      </trkpt>
      <trkpt lat="40.537617" lon="-5.119900">
        <ele>2265.0</ele>
        <time>2018-08-13T12:29:10Z</time>
      </trkpt>
      <trkpt lat="40.537633" lon="-5.119700">
        <ele>2263.0</ele>
        <time>2018-08-13T12:29:11Z</time>
      </trkpt>
      <trkpt lat="40.537633" lon="-5.119517">
        <ele>2261.0</ele>
        <time>2018-08-13T12:29:12Z</time>
      </trkpt>
      <trkpt lat="40.537650" lon="-5.119317">
        <ele>2258.0</ele>
        <time>2018-08-13T12:29:13Z</time>
      </trkpt>
      <trkpt lat="40.537650" lon="-5.119117">
        <ele>2256.0</ele>
        <time>2018-08-13T12:29:14Z</time>
      </trkpt>
      <trkpt lat="40.537667" lon="-5.118933">
        <ele>2255.0</ele>
        <time>2018-08-13T12:29:15Z</time>
      </trkpt>
      <trkpt lat="40.537683" lon="-5.118750">
        <ele>2254.0</ele>
        <time>2018-08-13T12:29:16Z</time>
      </trkpt>
      <trkpt lat="40.537700" lon="-5.118567">
        <ele>2252.0</ele>
        <time>2018-08-13T12:29:17Z</time>
      </trkpt>
      <trkpt lat="40.537717" lon="-5.118383">
        <ele>2249.0</ele>
        <time>2018-08-13T12:29:18Z</time>
      </trkpt>
      <trkpt lat="40.537750" lon="-5.118200">
        <ele>2246.0</ele>
        <time>2018-08-13T12:29:19Z</time>
      </trkpt>
      <trkpt lat="40.537800" lon="-5.118000">
        <ele>2243.0</ele>
        <time>2018-08-13T12:29:20Z</time>
      </trkpt>
      <trkpt lat="40.537867" lon="-5.117817">
        <ele>2242.0</ele>
        <time>2018-08-13T12:29:21Z</time>
      </trkpt>
      <trkpt lat="40.537900" lon="-5.117650">
        <ele>2241.0</ele>
        <time>2018-08-13T12:29:22Z</time>
      </trkpt>
      <trkpt lat="40.537933" lon="-5.117483">
        <ele>2239.0</ele>
        <time>2018-08-13T12:29:23Z</time>
      </trkpt>
      <trkpt lat="40.537967" lon="-5.117317">
        <ele>2237.0</ele>
        <time>2018-08-13T12:29:24Z</time>
      </trkpt>
      <trkpt lat="40.538000" lon="-5.117150">
        <ele>2233.0</ele>
        <time>2018-08-13T12:29:25Z</time>
      </trkpt>
      <trkpt lat="40.538050" lon="-5.116983">
        <ele>2230.0</ele>
        <time>2018-08-13T12:29:26Z</time>
      </trkpt>
      <trkpt lat="40.538117" lon="-5.116817">
        <ele>2227.0</ele>
        <time>2018-08-13T12:29:27Z</time>
      </trkpt>
      <trkpt lat="40.538183" lon="-5.116633">
        <ele>2225.0</ele>
        <time>2018-08-13T12:29:28Z</time>
      </trkpt>
      <trkpt lat="40.538233" lon="-5.116483">
        <ele>2223.0</ele>
        <time>2018-08-13T12:29:29Z</time>
      </trkpt>
      <trkpt lat="40.538267" lon="-5.116317">
        <ele>2221.0</ele>
        <time>2018-08-13T12:29:30Z</time>
      </trkpt>
      <trkpt lat="40.538317" lon="-5.116150">
        <ele>2218.0</ele>
        <time>2018-08-13T12:29:31Z</time>
      </trkpt>
      <trkpt lat="40.538350" lon="-5.115983">
        <ele>2216.0</ele>
        <time>2018-08-13T12:29:32Z</time>
      </trkpt>
      <trkpt lat="40.538417" lon="-5.115833">
        <ele>2213.0</ele>
        <time>2018-08-13T12:29:33Z</time>
      </trkpt>
      <trkpt lat="40.538467" lon="-5.115650">
        <ele>2210.0</ele>
        <time>2018-08-13T12:29:34Z</time>
      </trkpt>
      <trkpt lat="40.538517" lon="-5.115483">
        <ele>2207.0</ele>
        <time>2018-08-13T12:29:35Z</time>
      </trkpt>
      <trkpt lat="40.538567" lon="-5.115300">
        <ele>2205.0</ele>
        <time>2018-08-13T12:29:36Z</time>
      </trkpt>
      <trkpt lat="40.538617" lon="-5.115133">
        <ele>2203.0</ele>
        <time>2018-08-13T12:29:37Z</time>
      </trkpt>
      <trkpt lat="40.538667" lon="-5.114950">
        <ele>2201.0</ele>
        <time>2018-08-13T12:29:38Z</time>
      </trkpt>
      <trkpt lat="40.538717" lon="-5.114783">
        <ele>2198.0</ele>
        <time>2018-08-13T12:29:39Z</time>
      </trkpt>
      <trkpt lat="40.538767" lon="-5.114617">
        <ele>2196.0</ele>
        <time>2018-08-13T12:29:40Z</time>
      </trkpt>
      <trkpt lat="40.538833" lon="-5.114450">
        <ele>2193.0</ele>
        <time>2018-08-13T12:29:41Z</time>
      </trkpt>
      <trkpt lat="40.538900" lon="-5.114283">
        <ele>2189.0</ele>
        <time>2018-08-13T12:29:42Z</time>
      </trkpt>
      <trkpt lat="40.538967" lon="-5.114117">
        <ele>2186.0</ele>
        <time>2018-08-13T12:29:43Z</time>
      </trkpt>
      <trkpt lat="40.539050" lon="-5.113950">
        <ele>2183.0</ele>
        <time>2018-08-13T12:29:44Z</time>
      </trkpt>
      <trkpt lat="40.539117" lon="-5.113783">
        <ele>2181.0</ele>
        <time>2018-08-13T12:29:45Z</time>
      </trkpt>
      <trkpt lat="40.539200" lon="-5.113617">
        <ele>2179.0</ele>
        <time>2018-08-13T12:29:46Z</time>
      </trkpt>
      <trkpt lat="40.539250" lon="-5.113450">
        <ele>2177.0</ele>
        <time>2018-08-13T12:29:47Z</time>
      </trkpt>
      <trkpt lat="40.539283" lon="-5.113267">
        <ele>2174.0</ele>
        <time>2018-08-13T12:29:48Z</time>
      </trkpt>
      <trkpt lat="40.539333" lon="-5.113100">
        <ele>2170.0</ele>
        <time>2018-08-13T12:29:49Z</time>
      </trkpt>
      <trkpt lat="40.539367" lon="-5.112917">
        <ele>2167.0</ele>
        <time>2018-08-13T12:29:50Z</time>
      </trkpt>
      <trkpt lat="40.539400" lon="-5.112733">
        <ele>2164.0</ele>
        <time>2018-08-13T12:29:51Z</time>
      </trkpt>
      <trkpt lat="40.539433" lon="-5.112550">
        <ele>2163.0</ele>
        <time>2018-08-13T12:29:52Z</time>
      </trkpt>
      <trkpt lat="40.539450" lon="-5.112367">
        <ele>2160.0</ele>
        <time>2018-08-13T12:29:53Z</time>
      </trkpt>
      <trkpt lat="40.539467" lon="-5.112200">
        <ele>2156.0</ele>
        <time>2018-08-13T12:29:54Z</time>
      </trkpt>
      <trkpt lat="40.539467" lon="-5.112000">
        <ele>2152.0</ele>
        <time>2018-08-13T12:29:55Z</time>
      </trkpt>
      <trkpt lat="40.539450" lon="-5.111800">
        <ele>2149.0</ele>
        <time>2018-08-13T12:29:56Z</time>
      </trkpt>
      <trkpt lat="40.539450" lon="-5.111617">
        <ele>2146.0</ele>
        <time>2018-08-13T12:29:57Z</time>
      </trkpt>
      <trkpt lat="40.539433" lon="-5.111417">
        <ele>2144.0</ele>
        <time>2018-08-13T12:29:58Z</time>
      </trkpt>
      <trkpt lat="40.539417" lon="-5.111233">
        <ele>2143.0</ele>
        <time>2018-08-13T12:29:59Z</time>
      </trkpt>
      <trkpt lat="40.539417" lon="-5.111050">
        <ele>2141.0</ele>
        <time>2018-08-13T12:30:00Z</time>
      </trkpt>
      <trkpt lat="40.539400" lon="-5.110883">
        <ele>2138.0</ele>
        <time>2018-08-13T12:30:01Z</time>
      </trkpt>
      <trkpt lat="40.539383" lon="-5.110700">
        <ele>2134.0</ele>
        <time>2018-08-13T12:30:02Z</time>
      </trkpt>
      <trkpt lat="40.539367" lon="-5.110517">
        <ele>2131.0</ele>
        <time>2018-08-13T12:30:03Z</time>
      </trkpt>
      <trkpt lat="40.539333" lon="-5.110333">
        <ele>2128.0</ele>
        <time>2018-08-13T12:30:04Z</time>
      </trkpt>
      <trkpt lat="40.539300" lon="-5.110150">
        <ele>2126.0</ele>
        <time>2018-08-13T12:30:05Z</time>
      </trkpt>
      <trkpt lat="40.539267" lon="-5.109967">
        <ele>2123.0</ele>
        <time>2018-08-13T12:30:06Z</time>
      </trkpt>
      <trkpt lat="40.539250" lon="-5.109800">
        <ele>2121.0</ele>
        <time>2018-08-13T12:30:07Z</time>
      </trkpt>
      <trkpt lat="40.539233" lon="-5.109617">
        <ele>2118.0</ele>
        <time>2018-08-13T12:30:08Z</time>
      </trkpt>
      <trkpt lat="40.539217" lon="-5.109433">
        <ele>2116.0</ele>
        <time>2018-08-13T12:30:09Z</time>
      </trkpt>
      <trkpt lat="40.539183" lon="-5.109250">
        <ele>2113.0</ele>
        <time>2018-08-13T12:30:10Z</time>
      </trkpt>
      <trkpt lat="40.539167" lon="-5.109067">
        <ele>2111.0</ele>
        <time>2018-08-13T12:30:11Z</time>
      </trkpt>
      <trkpt lat="40.539167" lon="-5.108883">
        <ele>2108.0</ele>
        <time>2018-08-13T12:30:12Z</time>
      </trkpt>
      <trkpt lat="40.539150" lon="-5.108700">
        <ele>2106.0</ele>
        <time>2018-08-13T12:30:13Z</time>
      </trkpt>
      <trkpt lat="40.539150" lon="-5.108517">
        <ele>2104.0</ele>
        <time>2018-08-13T12:30:14Z</time>
      </trkpt>
      <trkpt lat="40.539167" lon="-5.108350">
        <ele>2102.0</ele>
        <time>2018-08-13T12:30:15Z</time>
      </trkpt>
      <trkpt lat="40.539150" lon="-5.108183">
        <ele>2099.0</ele>
        <time>2018-08-13T12:30:16Z</time>
      </trkpt>
      <trkpt lat="40.539150" lon="-5.108000">
        <ele>2095.0</ele>
        <time>2018-08-13T12:30:17Z</time>
      </trkpt>
      <trkpt lat="40.539150" lon="-5.107817">
        <ele>2091.0</ele>
        <time>2018-08-13T12:30:18Z</time>
      </trkpt>
      <trkpt lat="40.539150" lon="-5.107617">
        <ele>2088.0</ele>
        <time>2018-08-13T12:30:19Z</time>
      </trkpt>
      <trkpt lat="40.539133" lon="-5.107417">
        <ele>2084.0</ele>
        <time>2018-08-13T12:30:20Z</time>
      </trkpt>
      <trkpt lat="40.539100" lon="-5.107217">
        <ele>2081.0</ele>
        <time>2018-08-13T12:30:21Z</time>
      </trkpt>
      <trkpt lat="40.539083" lon="-5.107017">
        <ele>2078.0</ele>
        <time>2018-08-13T12:30:22Z</time>
      </trkpt>
      <trkpt lat="40.539050" lon="-5.106833">
        <ele>2075.0</ele>
        <time>2018-08-13T12:30:23Z</time>
      </trkpt>
      <trkpt lat="40.539033" lon="-5.106633">
        <ele>2072.0</ele>
        <time>2018-08-13T12:30:24Z</time>
      </trkpt>
      <trkpt lat="40.539017" lon="-5.106450">
        <ele>2070.0</ele>
        <time>2018-08-13T12:30:25Z</time>
      </trkpt>
      <trkpt lat="40.539000" lon="-5.106250">
        <ele>2067.0</ele>
        <time>2018-08-13T12:30:26Z</time>
      </trkpt>
      <trkpt lat="40.539000" lon="-5.106050">
        <ele>2064.0</ele>
        <time>2018-08-13T12:30:27Z</time>
      </trkpt>
      <trkpt lat="40.538983" lon="-5.105850">
        <ele>2061.0</ele>
        <time>2018-08-13T12:30:28Z</time>
      </trkpt>
      <trkpt lat="40.538983" lon="-5.105650">
        <ele>2059.0</ele>
        <time>2018-08-13T12:30:29Z</time>
      </trkpt>
      <trkpt lat="40.538983" lon="-5.105467">
        <ele>2056.0</ele>
        <time>2018-08-13T12:30:30Z</time>
      </trkpt>
      <trkpt lat="40.538967" lon="-5.105267">
        <ele>2054.0</ele>
        <time>2018-08-13T12:30:31Z</time>
      </trkpt>
      <trkpt lat="40.538950" lon="-5.105083">
        <ele>2053.0</ele>
        <time>2018-08-13T12:30:32Z</time>
      </trkpt>
      <trkpt lat="40.538950" lon="-5.104917">
        <ele>2051.0</ele>
        <time>2018-08-13T12:30:33Z</time>
      </trkpt>
      <trkpt lat="40.538933" lon="-5.104750">
        <ele>2048.0</ele>
        <time>2018-08-13T12:30:34Z</time>
      </trkpt>
      <trkpt lat="40.538933" lon="-5.104567">
        <ele>2046.0</ele>
        <time>2018-08-13T12:30:35Z</time>
      </trkpt>
      <trkpt lat="40.538933" lon="-5.104367">
        <ele>2043.0</ele>
        <time>2018-08-13T12:30:36Z</time>
      </trkpt>
      <trkpt lat="40.538933" lon="-5.104167">
        <ele>2040.0</ele>
        <time>2018-08-13T12:30:37Z</time>
      </trkpt>
      <trkpt lat="40.538917" lon="-5.103967">
        <ele>2039.0</ele>
        <time>2018-08-13T12:30:38Z</time>
      </trkpt>
      <trkpt lat="40.538917" lon="-5.103783">
        <ele>2037.0</ele>
        <time>2018-08-13T12:30:39Z</time>
      </trkpt>
      <trkpt lat="40.538900" lon="-5.103600">
        <ele>2035.0</ele>
        <time>2018-08-13T12:30:40Z</time>
      </trkpt>
      <trkpt lat="40.538900" lon="-5.103417">
        <ele>2033.0</ele>
        <time>2018-08-13T12:30:41Z</time>
      </trkpt>
      <trkpt lat="40.538883" lon="-5.103233">
        <ele>2030.0</ele>
        <time>2018-08-13T12:30:42Z</time>
      </trkpt>
      <trkpt lat="40.538867" lon="-5.103050">
        <ele>2027.0</ele>
        <time>2018-08-13T12:30:43Z</time>
      </trkpt>
      <trkpt lat="40.538850" lon="-5.102867">
        <ele>2024.0</ele>
        <time>2018-08-13T12:30:44Z</time>
      </trkpt>
      <trkpt lat="40.538833" lon="-5.102667">
        <ele>2021.0</ele>
        <time>2018-08-13T12:30:45Z</time>
      </trkpt>
      <trkpt lat="40.538817" lon="-5.102483">
        <ele>2018.0</ele>
        <time>2018-08-13T12:30:46Z</time>
      </trkpt>
      <trkpt lat="40.538800" lon="-5.102300">
        <ele>2015.0</ele>
        <time>2018-08-13T12:30:47Z</time>
      </trkpt>
      <trkpt lat="40.538783" lon="-5.102117">
        <ele>2012.0</ele>
        <time>2018-08-13T12:30:48Z</time>
      </trkpt>
      <trkpt lat="40.538750" lon="-5.101933">
        <ele>2008.0</ele>
        <time>2018-08-13T12:30:49Z</time>
      </trkpt>
      <trkpt lat="40.538733" lon="-5.101733">
        <ele>2005.0</ele>
        <time>2018-08-13T12:30:50Z</time>
      </trkpt>
      <trkpt lat="40.538717" lon="-5.101550">
        <ele>2002.0</ele>
        <time>2018-08-13T12:30:51Z</time>
      </trkpt>
      <trkpt lat="40.538683" lon="-5.101367">
        <ele>1999.0</ele>
        <time>2018-08-13T12:30:52Z</time>
      </trkpt>
      <trkpt lat="40.538667" lon="-5.101167">
        <ele>1997.0</ele>
        <time>2018-08-13T12:30:53Z</time>
      </trkpt>
      <trkpt lat="40.538667" lon="-5.100967">
        <ele>1994.0</ele>
        <time>2018-08-13T12:30:54Z</time>
      </trkpt>
      <trkpt lat="40.538667" lon="-5.100767">
        <ele>1992.0</ele>
        <time>2018-08-13T12:30:55Z</time>
      </trkpt>
      <trkpt lat="40.538667" lon="-5.100583">
        <ele>1991.0</ele>
        <time>2018-08-13T12:30:56Z</time>
      </trkpt>
      <trkpt lat="40.538650" lon="-5.100417">
        <ele>1989.0</ele>
        <time>2018-08-13T12:30:57Z</time>
      </trkpt>
      <trkpt lat="40.538650" lon="-5.100233">
        <ele>1987.0</ele>
        <time>2018-08-13T12:30:58Z</time>
      </trkpt>
      <trkpt lat="40.538633" lon="-5.100050">
        <ele>1984.0</ele>
        <time>2018-08-13T12:30:59Z</time>
      </trkpt>
      <trkpt lat="40.538617" lon="-5.099867">
        <ele>1982.0</ele>
        <time>2018-08-13T12:31:00Z</time>
      </trkpt>
      <trkpt lat="40.538617" lon="-5.099683">
        <ele>1979.0</ele>
        <time>2018-08-13T12:31:01Z</time>
      </trkpt>
      <trkpt lat="40.538617" lon="-5.099500">
        <ele>1977.0</ele>
        <time>2018-08-13T12:31:02Z</time>
      </trkpt>
      <trkpt lat="40.538617" lon="-5.099317">
        <ele>1974.0</ele>
        <time>2018-08-13T12:31:03Z</time>
      </trkpt>
      <trkpt lat="40.538617" lon="-5.099133">
        <ele>1970.0</ele>
        <time>2018-08-13T12:31:04Z</time>
      </trkpt>
      <trkpt lat="40.538633" lon="-5.098950">
        <ele>1967.0</ele>
        <time>2018-08-13T12:31:05Z</time>
      </trkpt>
      <trkpt lat="40.538650" lon="-5.098767">
        <ele>1965.0</ele>
        <time>2018-08-13T12:31:06Z</time>
      </trkpt>
      <trkpt lat="40.538667" lon="-5.098583">
        <ele>1963.0</ele>
        <time>2018-08-13T12:31:07Z</time>
      </trkpt>
      <trkpt lat="40.538683" lon="-5.098417">
        <ele>1961.0</ele>
        <time>2018-08-13T12:31:08Z</time>
      </trkpt>
      <trkpt lat="40.538700" lon="-5.098233">
        <ele>1958.0</ele>
        <time>2018-08-13T12:31:09Z</time>
      </trkpt>
      <trkpt lat="40.538717" lon="-5.098050">
        <ele>1955.0</ele>
        <time>2018-08-13T12:31:10Z</time>
      </trkpt>
      <trkpt lat="40.538750" lon="-5.097867">
        <ele>1952.0</ele>
        <time>2018-08-13T12:31:11Z</time>
      </trkpt>
      <trkpt lat="40.538767" lon="-5.097667">
        <ele>1948.0</ele>
        <time>2018-08-13T12:31:12Z</time>
      </trkpt>
      <trkpt lat="40.538783" lon="-5.097483">
        <ele>1945.0</ele>
        <time>2018-08-13T12:31:13Z</time>
      </trkpt>
      <trkpt lat="40.538800" lon="-5.097300">
        <ele>1943.0</ele>
        <time>2018-08-13T12:31:14Z</time>
      </trkpt>
      <trkpt lat="40.538800" lon="-5.097117">
        <ele>1941.0</ele>
        <time>2018-08-13T12:31:15Z</time>
      </trkpt>
      <trkpt lat="40.538800" lon="-5.096933">
        <ele>1938.0</ele>
        <time>2018-08-13T12:31:16Z</time>
      </trkpt>
      <trkpt lat="40.538767" lon="-5.096767">
        <ele>1935.0</ele>
        <time>2018-08-13T12:31:17Z</time>
      </trkpt>
      <trkpt lat="40.538733" lon="-5.096600">
        <ele>1933.0</ele>
        <time>2018-08-13T12:31:18Z</time>
      </trkpt>
      <trkpt lat="40.538700" lon="-5.096433">
        <ele>1931.0</ele>
        <time>2018-08-13T12:31:19Z</time>
      </trkpt>
      <trkpt lat="40.538667" lon="-5.096267">
        <ele>1929.0</ele>
        <time>2018-08-13T12:31:20Z</time>
      </trkpt>
      <trkpt lat="40.538667" lon="-5.096100">
        <ele>1926.0</ele>
        <time>2018-08-13T12:31:21Z</time>
      </trkpt>
      <trkpt lat="40.538683" lon="-5.095917">
        <ele>1922.0</ele>
        <time>2018-08-13T12:31:22Z</time>
      </trkpt>
      <trkpt lat="40.538717" lon="-5.095750">
        <ele>1919.0</ele>
        <time>2018-08-13T12:31:23Z</time>
      </trkpt>
      <trkpt lat="40.538767" lon="-5.095567">
        <ele>1916.0</ele>
        <time>2018-08-13T12:31:24Z</time>
      </trkpt>
      <trkpt lat="40.538800" lon="-5.095417">
        <ele>1914.0</ele>
        <time>2018-08-13T12:31:25Z</time>
      </trkpt>
      <trkpt lat="40.538833" lon="-5.095250">
        <ele>1911.0</ele>
        <time>2018-08-13T12:31:26Z</time>
      </trkpt>
      <trkpt lat="40.538850" lon="-5.095083">
        <ele>1908.0</ele>
        <time>2018-08-13T12:31:27Z</time>
      </trkpt>
      <trkpt lat="40.538867" lon="-5.094917">
        <ele>1905.0</ele>
        <time>2018-08-13T12:31:28Z</time>
      </trkpt>
      <trkpt lat="40.538883" lon="-5.094750">
        <ele>1901.0</ele>
        <time>2018-08-13T12:31:29Z</time>
      </trkpt>
      <trkpt lat="40.538900" lon="-5.094567">
        <ele>1898.0</ele>
        <time>2018-08-13T12:31:30Z</time>
      </trkpt>
      <trkpt lat="40.538917" lon="-5.094400">
        <ele>1896.0</ele>
        <time>2018-08-13T12:31:31Z</time>
      </trkpt>
      <trkpt lat="40.538950" lon="-5.094217">
        <ele>1893.0</ele>
        <time>2018-08-13T12:31:32Z</time>
      </trkpt>
      <trkpt lat="40.538950" lon="-5.094033">
        <ele>1890.0</ele>
        <time>2018-08-13T12:31:33Z</time>
      </trkpt>
      <trkpt lat="40.538967" lon="-5.093850">
        <ele>1888.0</ele>
        <time>2018-08-13T12:31:34Z</time>
      </trkpt>
      <trkpt lat="40.538983" lon="-5.093683">
        <ele>1885.0</ele>
        <time>2018-08-13T12:31:35Z</time>
      </trkpt>
      <trkpt lat="40.539017" lon="-5.093517">
        <ele>1883.0</ele>
        <time>2018-08-13T12:31:36Z</time>
      </trkpt>
      <trkpt lat="40.539050" lon="-5.093350">
        <ele>1880.0</ele>
        <time>2018-08-13T12:31:37Z</time>
      </trkpt>
      <trkpt lat="40.539083" lon="-5.093200">
        <ele>1876.0</ele>
        <time>2018-08-13T12:31:38Z</time>
      </trkpt>
      <trkpt lat="40.539133" lon="-5.093017">
        <ele>1871.0</ele>
        <time>2018-08-13T12:31:39Z</time>
      </trkpt>
      <trkpt lat="40.539183" lon="-5.092833">
        <ele>1867.0</ele>
        <time>2018-08-13T12:31:40Z</time>
      </trkpt>
      <trkpt lat="40.539217" lon="-5.092633">
        <ele>1863.0</ele>
        <time>2018-08-13T12:31:41Z</time>
      </trkpt>
      <trkpt lat="40.539233" lon="-5.092450">
        <ele>1861.0</ele>
        <time>2018-08-13T12:31:42Z</time>
      </trkpt>
      <trkpt lat="40.539250" lon="-5.092267">
        <ele>1858.0</ele>
        <time>2018-08-13T12:31:43Z</time>
      </trkpt>
      <trkpt lat="40.539283" lon="-5.092083">
        <ele>1855.0</ele>
        <time>2018-08-13T12:31:44Z</time>
      </trkpt>
      <trkpt lat="40.539300" lon="-5.091917">
        <ele>1852.0</ele>
        <time>2018-08-13T12:31:45Z</time>
      </trkpt>
      <trkpt lat="40.539333" lon="-5.091733">
        <ele>1848.0</ele>
        <time>2018-08-13T12:31:46Z</time>
      </trkpt>
      <trkpt lat="40.539367" lon="-5.091550">
        <ele>1844.0</ele>
        <time>2018-08-13T12:31:47Z</time>
      </trkpt>
      <trkpt lat="40.539383" lon="-5.091367">
        <ele>1841.0</ele>
        <time>2018-08-13T12:31:48Z</time>
      </trkpt>
      <trkpt lat="40.539417" lon="-5.091183">
        <ele>1838.0</ele>
        <time>2018-08-13T12:31:49Z</time>
      </trkpt>
      <trkpt lat="40.539433" lon="-5.091000">
        <ele>1835.0</ele>
        <time>2018-08-13T12:31:50Z</time>
      </trkpt>
      <trkpt lat="40.539467" lon="-5.090817">
        <ele>1833.0</ele>
        <time>2018-08-13T12:31:51Z</time>
      </trkpt>
      <trkpt lat="40.539483" lon="-5.090633">
        <ele>1831.0</ele>
        <time>2018-08-13T12:31:52Z</time>
      </trkpt>
      <trkpt lat="40.539517" lon="-5.090467">
        <ele>1829.0</ele>
        <time>2018-08-13T12:31:53Z</time>
      </trkpt>
      <trkpt lat="40.539533" lon="-5.090300">
        <ele>1828.0</ele>
        <time>2018-08-13T12:31:54Z</time>
      </trkpt>
      <trkpt lat="40.539567" lon="-5.090133">
        <ele>1827.0</ele>
        <time>2018-08-13T12:31:55Z</time>
      </trkpt>
      <trkpt lat="40.539617" lon="-5.089967">
        <ele>1825.0</ele>
        <time>2018-08-13T12:31:56Z</time>
      </trkpt>
      <trkpt lat="40.539667" lon="-5.089817">
        <ele>1822.0</ele>
        <time>2018-08-13T12:31:57Z</time>
      </trkpt>
      <trkpt lat="40.539733" lon="-5.089650">
        <ele>1820.0</ele>
        <time>2018-08-13T12:31:58Z</time>
      </trkpt>
      <trkpt lat="40.539817" lon="-5.089500">
        <ele>1818.0</ele>
        <time>2018-08-13T12:31:59Z</time>
      </trkpt>
      <trkpt lat="40.539900" lon="-5.089350">
        <ele>1818.0</ele>
        <time>2018-08-13T12:32:00Z</time>
      </trkpt>
      <trkpt lat="40.539983" lon="-5.089217">
        <ele>1817.0</ele>
        <time>2018-08-13T12:32:01Z</time>
      </trkpt>
      <trkpt lat="40.540050" lon="-5.089083">
        <ele>1816.0</ele>
        <time>2018-08-13T12:32:02Z</time>
      </trkpt>
      <trkpt lat="40.540133" lon="-5.088967">
        <ele>1815.0</ele>
        <time>2018-08-13T12:32:03Z</time>
      </trkpt>
      <trkpt lat="40.540200" lon="-5.088867">
        <ele>1812.0</ele>
        <time>2018-08-13T12:32:04Z</time>
      </trkpt>
      <trkpt lat="40.540300" lon="-5.088767">
        <ele>1808.0</ele>
        <time>2018-08-13T12:32:05Z</time>
      </trkpt>
      <trkpt lat="40.540400" lon="-5.088650">
        <ele>1804.0</ele>
        <time>2018-08-13T12:32:06Z</time>
      </trkpt>
      <trkpt lat="40.540500" lon="-5.088533">
        <ele>1801.0</ele>
        <time>2018-08-13T12:32:07Z</time>
      </trkpt>
      <trkpt lat="40.540583" lon="-5.088417">
        <ele>1798.0</ele>
        <time>2018-08-13T12:32:08Z</time>
      </trkpt>
      <trkpt lat="40.540667" lon="-5.088300">
        <ele>1796.0</ele>
        <time>2018-08-13T12:32:09Z</time>
      </trkpt>
      <trkpt lat="40.540733" lon="-5.088167">
        <ele>1793.0</ele>
        <time>2018-08-13T12:32:10Z</time>
      </trkpt>
      <trkpt lat="40.540800" lon="-5.088017">
        <ele>1790.0</ele>
        <time>2018-08-13T12:32:11Z</time>
      </trkpt>
      <trkpt lat="40.540867" lon="-5.087883">
        <ele>1786.0</ele>
        <time>2018-08-13T12:32:12Z</time>
      </trkpt>
      <trkpt lat="40.540950" lon="-5.087750">
        <ele>1783.0</ele>
        <time>2018-08-13T12:32:13Z</time>
      </trkpt>
      <trkpt lat="40.541017" lon="-5.087633">
        <ele>1779.0</ele>
        <time>2018-08-13T12:32:14Z</time>
      </trkpt>
      <trkpt lat="40.541100" lon="-5.087517">
        <ele>1776.0</ele>
        <time>2018-08-13T12:32:15Z</time>
      </trkpt>
      <trkpt lat="40.541183" lon="-5.087433">
        <ele>1772.0</ele>
        <time>2018-08-13T12:32:16Z</time>
      </trkpt>
      <trkpt lat="40.541267" lon="-5.087350">
        <ele>1768.0</ele>
        <time>2018-08-13T12:32:17Z</time>
      </trkpt>
      <trkpt lat="40.541350" lon="-5.087250">
        <ele>1765.0</ele>
        <time>2018-08-13T12:32:18Z</time>
      </trkpt>
      <trkpt lat="40.541450" lon="-5.087167">
        <ele>1761.0</ele>
        <time>2018-08-13T12:32:19Z</time>
      </trkpt>
      <trkpt lat="40.541533" lon="-5.087100">
        <ele>1757.0</ele>
        <time>2018-08-13T12:32:20Z</time>
      </trkpt>
      <trkpt lat="40.541633" lon="-5.087033">
        <ele>1754.0</ele>
        <time>2018-08-13T12:32:21Z</time>
      </trkpt>
      <trkpt lat="40.541733" lon="-5.086967">
        <ele>1751.0</ele>
        <time>2018-08-13T12:32:22Z</time>
      </trkpt>
      <trkpt lat="40.541833" lon="-5.086883">
        <ele>1748.0</ele>
        <time>2018-08-13T12:32:23Z</time>
      </trkpt>
      <trkpt lat="40.541917" lon="-5.086800">
        <ele>1744.0</ele>
        <time>2018-08-13T12:32:24Z</time>
      </trkpt>
      <trkpt lat="40.542017" lon="-5.086700">
        <ele>1740.0</ele>
        <time>2018-08-13T12:32:25Z</time>
      </trkpt>
      <trkpt lat="40.542117" lon="-5.086583">
        <ele>1737.0</ele>
        <time>2018-08-13T12:32:26Z</time>
      </trkpt>
      <trkpt lat="40.542217" lon="-5.086467">
        <ele>1734.0</ele>
        <time>2018-08-13T12:32:27Z</time>
      </trkpt>
      <trkpt lat="40.542317" lon="-5.086350">
        <ele>1732.0</ele>
        <time>2018-08-13T12:32:28Z</time>
      </trkpt>
      <trkpt lat="40.542417" lon="-5.086233">
        <ele>1730.0</ele>
        <time>2018-08-13T12:32:29Z</time>
      </trkpt>
      <trkpt lat="40.542500" lon="-5.086117">
        <ele>1727.0</ele>
        <time>2018-08-13T12:32:30Z</time>
      </trkpt>
      <trkpt lat="40.542583" lon="-5.086000">
        <ele>1725.0</ele>
        <time>2018-08-13T12:32:31Z</time>
      </trkpt>
      <trkpt lat="40.542683" lon="-5.085883">
        <ele>1722.0</ele>
        <time>2018-08-13T12:32:32Z</time>
      </trkpt>
      <trkpt lat="40.542767" lon="-5.085750">
        <ele>1720.0</ele>
        <time>2018-08-13T12:32:33Z</time>
      </trkpt>
      <trkpt lat="40.542850" lon="-5.085633">
        <ele>1717.0</ele>
        <time>2018-08-13T12:32:34Z</time>
      </trkpt>
      <trkpt lat="40.542933" lon="-5.085517">
        <ele>1714.0</ele>
        <time>2018-08-13T12:32:35Z</time>
      </trkpt>
      <trkpt lat="40.543033" lon="-5.085417">
        <ele>1711.0</ele>
        <time>2018-08-13T12:32:36Z</time>
      </trkpt>
      <trkpt lat="40.543117" lon="-5.085317">
        <ele>1708.0</ele>
        <time>2018-08-13T12:32:37Z</time>
      </trkpt>
      <trkpt lat="40.543217" lon="-5.085233">
        <ele>1705.0</ele>
        <time>2018-08-13T12:32:38Z</time>
      </trkpt>
      <trkpt lat="40.543300" lon="-5.085150">
        <ele>1702.0</ele>
        <time>2018-08-13T12:32:39Z</time>
      </trkpt>
      <trkpt lat="40.543400" lon="-5.085050">
        <ele>1699.0</ele>
        <time>2018-08-13T12:32:40Z</time>
      </trkpt>
      <trkpt lat="40.543500" lon="-5.084950">
        <ele>1696.0</ele>
        <time>2018-08-13T12:32:41Z</time>
      </trkpt>
      <trkpt lat="40.543617" lon="-5.084867">
        <ele>1694.0</ele>
        <time>2018-08-13T12:32:42Z</time>
      </trkpt>
      <trkpt lat="40.543717" lon="-5.084767">
        <ele>1692.0</ele>
        <time>2018-08-13T12:32:43Z</time>
      </trkpt>
      <trkpt lat="40.543817" lon="-5.084700">
        <ele>1690.0</ele>
        <time>2018-08-13T12:32:44Z</time>
      </trkpt>
      <trkpt lat="40.543917" lon="-5.084617">
        <ele>1688.0</ele>
        <time>2018-08-13T12:32:45Z</time>
      </trkpt>
      <trkpt lat="40.544017" lon="-5.084517">
        <ele>1686.0</ele>
        <time>2018-08-13T12:32:46Z</time>
      </trkpt>
      <trkpt lat="40.544117" lon="-5.084417">
        <ele>1684.0</ele>
        <time>2018-08-13T12:32:47Z</time>
      </trkpt>
      <trkpt lat="40.544200" lon="-5.084317">
        <ele>1681.0</ele>
        <time>2018-08-13T12:32:48Z</time>
      </trkpt>
      <trkpt lat="40.544300" lon="-5.084200">
        <ele>1679.0</ele>
        <time>2018-08-13T12:32:49Z</time>
      </trkpt>
      <trkpt lat="40.544400" lon="-5.084117">
        <ele>1678.0</ele>
        <time>2018-08-13T12:32:50Z</time>
      </trkpt>
      <trkpt lat="40.544483" lon="-5.084017">
        <ele>1676.0</ele>
        <time>2018-08-13T12:32:51Z</time>
      </trkpt>
      <trkpt lat="40.544567" lon="-5.083933">
        <ele>1675.0</ele>
        <time>2018-08-13T12:32:52Z</time>
      </trkpt>
      <trkpt lat="40.544650" lon="-5.083850">
        <ele>1672.0</ele>
        <time>2018-08-13T12:32:53Z</time>
      </trkpt>
      <trkpt lat="40.544733" lon="-5.083767">
        <ele>1668.0</ele>
        <time>2018-08-13T12:32:54Z</time>
      </trkpt>
      <trkpt lat="40.544833" lon="-5.083667">
        <ele>1664.0</ele>
        <time>2018-08-13T12:32:55Z</time>
      </trkpt>
      <trkpt lat="40.544933" lon="-5.083600">
        <ele>1661.0</ele>
        <time>2018-08-13T12:32:56Z</time>
      </trkpt>
      <trkpt lat="40.545033" lon="-5.083517">
        <ele>1658.0</ele>
        <time>2018-08-13T12:32:57Z</time>
      </trkpt>
      <trkpt lat="40.545133" lon="-5.083450">
        <ele>1656.0</ele>
        <time>2018-08-13T12:32:58Z</time>
      </trkpt>
      <trkpt lat="40.545233" lon="-5.083383">
        <ele>1654.0</ele>
        <time>2018-08-13T12:32:59Z</time>
      </trkpt>
      <trkpt lat="40.545317" lon="-5.083317">
        <ele>1652.0</ele>
        <time>2018-08-13T12:33:00Z</time>
      </trkpt>
      <trkpt lat="40.545417" lon="-5.083233">
        <ele>1649.0</ele>
        <time>2018-08-13T12:33:01Z</time>
      </trkpt>
      <trkpt lat="40.545500" lon="-5.083183">
        <ele>1646.0</ele>
        <time>2018-08-13T12:33:02Z</time>
      </trkpt>
      <trkpt lat="40.545600" lon="-5.083117">
        <ele>1643.0</ele>
        <time>2018-08-13T12:33:03Z</time>
      </trkpt>
      <trkpt lat="40.545700" lon="-5.083067">
        <ele>1641.0</ele>
        <time>2018-08-13T12:33:04Z</time>
      </trkpt>
      <trkpt lat="40.545783" lon="-5.083017">
        <ele>1638.0</ele>
        <time>2018-08-13T12:33:05Z</time>
      </trkpt>
      <trkpt lat="40.545883" lon="-5.082983">
        <ele>1636.0</ele>
        <time>2018-08-13T12:33:06Z</time>
      </trkpt>
      <trkpt lat="40.545967" lon="-5.082933">
        <ele>1633.0</ele>
        <time>2018-08-13T12:33:07Z</time>
      </trkpt>
      <trkpt lat="40.546050" lon="-5.082883">
        <ele>1631.0</ele>
        <time>2018-08-13T12:33:08Z</time>
      </trkpt>
      <trkpt lat="40.546150" lon="-5.082833">
        <ele>1627.0</ele>
        <time>2018-08-13T12:33:09Z</time>
      </trkpt>
      <trkpt lat="40.546250" lon="-5.082767">
        <ele>1624.0</ele>
        <time>2018-08-13T12:33:10Z</time>
      </trkpt>
      <trkpt lat="40.546350" lon="-5.082683">
        <ele>1620.0</ele>
        <time>2018-08-13T12:33:11Z</time>
      </trkpt>
      <trkpt lat="40.546450" lon="-5.082617">
        <ele>1617.0</ele>
        <time>2018-08-13T12:33:12Z</time>
      </trkpt>
      <trkpt lat="40.546550" lon="-5.082567">
        <ele>1614.0</ele>
        <time>2018-08-13T12:33:13Z</time>
      </trkpt>
      <trkpt lat="40.546650" lon="-5.082533">
        <ele>1611.0</ele>
        <time>2018-08-13T12:33:14Z</time>
      </trkpt>
      <trkpt lat="40.546750" lon="-5.082500">
        <ele>1609.0</ele>
        <time>2018-08-13T12:33:15Z</time>
      </trkpt>
      <trkpt lat="40.546850" lon="-5.082450">
        <ele>1606.0</ele>
        <time>2018-08-13T12:33:16Z</time>
      </trkpt>
      <trkpt lat="40.546950" lon="-5.082400">
        <ele>1604.0</ele>
        <time>2018-08-13T12:33:17Z</time>
      </trkpt>
      <trkpt lat="40.547050" lon="-5.082350">
        <ele>1601.0</ele>
        <time>2018-08-13T12:33:18Z</time>
      </trkpt>
      <trkpt lat="40.547150" lon="-5.082300">
        <ele>1598.0</ele>
        <time>2018-08-13T12:33:19Z</time>
      </trkpt>
      <trkpt lat="40.547267" lon="-5.082250">
        <ele>1595.0</ele>
        <time>2018-08-13T12:33:20Z</time>
      </trkpt>
      <trkpt lat="40.547383" lon="-5.082200">
        <ele>1593.0</ele>
        <time>2018-08-13T12:33:21Z</time>
      </trkpt>
      <trkpt lat="40.547483" lon="-5.082150">
        <ele>1592.0</ele>
        <time>2018-08-13T12:33:22Z</time>
      </trkpt>
      <trkpt lat="40.547583" lon="-5.082083">
        <ele>1592.0</ele>
        <time>2018-08-13T12:33:23Z</time>
      </trkpt>
      <trkpt lat="40.547667" lon="-5.082033">
        <ele>1592.0</ele>
        <time>2018-08-13T12:33:24Z</time>
      </trkpt>
      <trkpt lat="40.547750" lon="-5.081983">
        <ele>1591.0</ele>
        <time>2018-08-13T12:33:25Z</time>
      </trkpt>
      <trkpt lat="40.547833" lon="-5.081950">
        <ele>1589.0</ele>
        <time>2018-08-13T12:33:26Z</time>
      </trkpt>
      <trkpt lat="40.547917" lon="-5.081917">
        <ele>1587.0</ele>
        <time>2018-08-13T12:33:27Z</time>
      </trkpt>
      <trkpt lat="40.548017" lon="-5.081883">
        <ele>1585.0</ele>
        <time>2018-08-13T12:33:28Z</time>
      </trkpt>
      <trkpt lat="40.548117" lon="-5.081850">
        <ele>1583.0</ele>
        <time>2018-08-13T12:33:29Z</time>
      </trkpt>
      <trkpt lat="40.548217" lon="-5.081817">
        <ele>1581.0</ele>
        <time>2018-08-13T12:33:30Z</time>
      </trkpt>
      <trkpt lat="40.548300" lon="-5.081783">
        <ele>1580.0</ele>
        <time>2018-08-13T12:33:31Z</time>
      </trkpt>
      <trkpt lat="40.548400" lon="-5.081750">
        <ele>1577.0</ele>
        <time>2018-08-13T12:33:32Z</time>
      </trkpt>
      <trkpt lat="40.548483" lon="-5.081717">
        <ele>1575.0</ele>
        <time>2018-08-13T12:33:33Z</time>
      </trkpt>
      <trkpt lat="40.548583" lon="-5.081683">
        <ele>1572.0</ele>
        <time>2018-08-13T12:33:34Z</time>
      </trkpt>
      <trkpt lat="40.548667" lon="-5.081633">
        <ele>1570.0</ele>
        <time>2018-08-13T12:33:35Z</time>
      </trkpt>
      <trkpt lat="40.548750" lon="-5.081583">
        <ele>1568.0</ele>
        <time>2018-08-13T12:33:36Z</time>
      </trkpt>
      <trkpt lat="40.548850" lon="-5.081533">
        <ele>1566.0</ele>
        <time>2018-08-13T12:33:37Z</time>
      </trkpt>
      <trkpt lat="40.548950" lon="-5.081467">
        <ele>1564.0</ele>
        <time>2018-08-13T12:33:38Z</time>
      </trkpt>
      <trkpt lat="40.549050" lon="-5.081400">
        <ele>1563.0</ele>
        <time>2018-08-13T12:33:39Z</time>
      </trkpt>
      <trkpt lat="40.549150" lon="-5.081350">
        <ele>1563.0</ele>
        <time>2018-08-13T12:33:40Z</time>
      </trkpt>
      <trkpt lat="40.549250" lon="-5.081317">
        <ele>1564.0</ele>
        <time>2018-08-13T12:33:41Z</time>
      </trkpt>
      <trkpt lat="40.549333" lon="-5.081267">
        <ele>1565.0</ele>
        <time>2018-08-13T12:33:42Z</time>
      </trkpt>
      <trkpt lat="40.549417" lon="-5.081217">
        <ele>1566.0</ele>
        <time>2018-08-13T12:33:43Z</time>
      </trkpt>
      <trkpt lat="40.549500" lon="-5.081150">
        <ele>1566.0</ele>
        <time>2018-08-13T12:33:44Z</time>
      </trkpt>
      <trkpt lat="40.549567" lon="-5.081100">
        <ele>1564.0</ele>
        <time>2018-08-13T12:33:45Z</time>
      </trkpt>
      <trkpt lat="40.549650" lon="-5.081033">
        <ele>1563.0</ele>
        <time>2018-08-13T12:33:46Z</time>
      </trkpt>
      <trkpt lat="40.549733" lon="-5.080983">
        <ele>1561.0</ele>
        <time>2018-08-13T12:33:47Z</time>
      </trkpt>
      <trkpt lat="40.549817" lon="-5.080900">
        <ele>1560.0</ele>
        <time>2018-08-13T12:33:48Z</time>
      </trkpt>
      <trkpt lat="40.549900" lon="-5.080833">
        <ele>1558.0</ele>
        <time>2018-08-13T12:33:49Z</time>
      </trkpt>
      <trkpt lat="40.549983" lon="-5.080767">
        <ele>1557.0</ele>
        <time>2018-08-13T12:33:50Z</time>
      </trkpt>
      <trkpt lat="40.550050" lon="-5.080700">
        <ele>1555.0</ele>
        <time>2018-08-13T12:33:51Z</time>
      </trkpt>
      <trkpt lat="40.550133" lon="-5.080650">
        <ele>1551.0</ele>
        <time>2018-08-13T12:33:52Z</time>
      </trkpt>
      <trkpt lat="40.550217" lon="-5.080600">
        <ele>1547.0</ele>
        <time>2018-08-13T12:33:53Z</time>
      </trkpt>
      <trkpt lat="40.550300" lon="-5.080517">
        <ele>1543.0</ele>
        <time>2018-08-13T12:33:54Z</time>
      </trkpt>
      <trkpt lat="40.550400" lon="-5.080400">
        <ele>1538.0</ele>
        <time>2018-08-13T12:33:55Z</time>
      </trkpt>
      <trkpt lat="40.550483" lon="-5.080267">
        <ele>1535.0</ele>
        <time>2018-08-13T12:33:56Z</time>
      </trkpt>
      <trkpt lat="40.550567" lon="-5.080100">
        <ele>1533.0</ele>
        <time>2018-08-13T12:33:57Z</time>
      </trkpt>
      <trkpt lat="40.550617" lon="-5.079950">
        <ele>1531.0</ele>
        <time>2018-08-13T12:33:58Z</time>
      </trkpt>
      <trkpt lat="40.550667" lon="-5.079800">
        <ele>1529.0</ele>
        <time>2018-08-13T12:33:59Z</time>
      </trkpt>
      <trkpt lat="40.550717" lon="-5.079633">
        <ele>1526.0</ele>
        <time>2018-08-13T12:34:00Z</time>
      </trkpt>
      <trkpt lat="40.550750" lon="-5.079450">
        <ele>1522.0</ele>
        <time>2018-08-13T12:34:01Z</time>
      </trkpt>
      <trkpt lat="40.550800" lon="-5.079267">
        <ele>1518.0</ele>
        <time>2018-08-13T12:34:02Z</time>
      </trkpt>
      <trkpt lat="40.550850" lon="-5.079083">
        <ele>1516.0</ele>
        <time>2018-08-13T12:34:03Z</time>
      </trkpt>
      <trkpt lat="40.550900" lon="-5.078917">
        <ele>1514.0</ele>
        <time>2018-08-13T12:34:04Z</time>
      </trkpt>
      <trkpt lat="40.550950" lon="-5.078750">
        <ele>1513.0</ele>
        <time>2018-08-13T12:34:05Z</time>
      </trkpt>
      <trkpt lat="40.550983" lon="-5.078583">
        <ele>1510.0</ele>
        <time>2018-08-13T12:34:06Z</time>
      </trkpt>
      <trkpt lat="40.551033" lon="-5.078417">
        <ele>1508.0</ele>
        <time>2018-08-13T12:34:07Z</time>
      </trkpt>
      <trkpt lat="40.551100" lon="-5.078250">
        <ele>1506.0</ele>
        <time>2018-08-13T12:34:08Z</time>
      </trkpt>
      <trkpt lat="40.551150" lon="-5.078083">
        <ele>1505.0</ele>
        <time>2018-08-13T12:34:09Z</time>
      </trkpt>
      <trkpt lat="40.551200" lon="-5.077933">
        <ele>1504.0</ele>
        <time>2018-08-13T12:34:10Z</time>
      </trkpt>
      <trkpt lat="40.551250" lon="-5.077767">
        <ele>1502.0</ele>
        <time>2018-08-13T12:34:11Z</time>
      </trkpt>
      <trkpt lat="40.551283" lon="-5.077600">
        <ele>1499.0</ele>
        <time>2018-08-13T12:34:12Z</time>
      </trkpt>
      <trkpt lat="40.551333" lon="-5.077433">
        <ele>1497.0</ele>
        <time>2018-08-13T12:34:13Z</time>
      </trkpt>
      <trkpt lat="40.551400" lon="-5.077250">
        <ele>1493.0</ele>
        <time>2018-08-13T12:34:14Z</time>
      </trkpt>
      <trkpt lat="40.551467" lon="-5.077067">
        <ele>1492.0</ele>
        <time>2018-08-13T12:34:15Z</time>
      </trkpt>
      <trkpt lat="40.551533" lon="-5.076883">
        <ele>1492.0</ele>
        <time>2018-08-13T12:34:16Z</time>
      </trkpt>
      <trkpt lat="40.551567" lon="-5.076717">
        <ele>1493.0</ele>
        <time>2018-08-13T12:34:17Z</time>
      </trkpt>
      <trkpt lat="40.551583" lon="-5.076550">
        <ele>1494.0</ele>
        <time>2018-08-13T12:34:18Z</time>
      </trkpt>
      <trkpt lat="40.551617" lon="-5.076417">
        <ele>1494.0</ele>
        <time>2018-08-13T12:34:19Z</time>
      </trkpt>
      <trkpt lat="40.551650" lon="-5.076267">
        <ele>1493.0</ele>
        <time>2018-08-13T12:34:20Z</time>
      </trkpt>
      <trkpt lat="40.551700" lon="-5.076133">
        <ele>1490.0</ele>
        <time>2018-08-13T12:34:21Z</time>
      </trkpt>
      <trkpt lat="40.551767" lon="-5.076000">
        <ele>1487.0</ele>
        <time>2018-08-13T12:34:22Z</time>
      </trkpt>
      <trkpt lat="40.551817" lon="-5.075833">
        <ele>1485.0</ele>
        <time>2018-08-13T12:34:23Z</time>
      </trkpt>
      <trkpt lat="40.551867" lon="-5.075667">
        <ele>1484.0</ele>
        <time>2018-08-13T12:34:24Z</time>
      </trkpt>
      <trkpt lat="40.551900" lon="-5.075500">
        <ele>1484.0</ele>
        <time>2018-08-13T12:34:25Z</time>
      </trkpt>
      <trkpt lat="40.551933" lon="-5.075333">
        <ele>1484.0</ele>
        <time>2018-08-13T12:34:26Z</time>
      </trkpt>
      <trkpt lat="40.551967" lon="-5.075183">
        <ele>1483.0</ele>
        <time>2018-08-13T12:34:27Z</time>
      </trkpt>
      <trkpt lat="40.552000" lon="-5.075033">
        <ele>1481.0</ele>
        <time>2018-08-13T12:34:28Z</time>
      </trkpt>
      <trkpt lat="40.552050" lon="-5.074883">
        <ele>1478.0</ele>
        <time>2018-08-13T12:34:29Z</time>
      </trkpt>
      <trkpt lat="40.552100" lon="-5.074750">
        <ele>1475.0</ele>
        <time>2018-08-13T12:34:30Z</time>
      </trkpt>
      <trkpt lat="40.552167" lon="-5.074617">
        <ele>1471.0</ele>
        <time>2018-08-13T12:34:31Z</time>
      </trkpt>
      <trkpt lat="40.552267" lon="-5.074483">
        <ele>1468.0</ele>
        <time>2018-08-13T12:34:32Z</time>
      </trkpt>
      <trkpt lat="40.552350" lon="-5.074383">
        <ele>1465.0</ele>
        <time>2018-08-13T12:34:33Z</time>
      </trkpt>
      <trkpt lat="40.552433" lon="-5.074300">
        <ele>1464.0</ele>
        <time>2018-08-13T12:34:34Z</time>
      </trkpt>
      <trkpt lat="40.552517" lon="-5.074233">
        <ele>1462.0</ele>
        <time>2018-08-13T12:34:35Z</time>
      </trkpt>
      <trkpt lat="40.552600" lon="-5.074167">
        <ele>1459.0</ele>
        <time>2018-08-13T12:34:36Z</time>
      </trkpt>
      <trkpt lat="40.552683" lon="-5.074117">
        <ele>1456.0</ele>
        <time>2018-08-13T12:34:37Z</time>
      </trkpt>
      <trkpt lat="40.552783" lon="-5.074083">
        <ele>1452.0</ele>
        <time>2018-08-13T12:34:38Z</time>
      </trkpt>
      <trkpt lat="40.552867" lon="-5.074050">
        <ele>1449.0</ele>
        <time>2018-08-13T12:34:39Z</time>
      </trkpt>
      <trkpt lat="40.552967" lon="-5.074033">
        <ele>1447.0</ele>
        <time>2018-08-13T12:34:40Z</time>
      </trkpt>
      <trkpt lat="40.553050" lon="-5.074017">
        <ele>1446.0</ele>
        <time>2018-08-13T12:34:41Z</time>
      </trkpt>
      <trkpt lat="40.553133" lon="-5.074000">
        <ele>1445.0</ele>
        <time>2018-08-13T12:34:42Z</time>
      </trkpt>
      <trkpt lat="40.553200" lon="-5.073967">
        <ele>1442.0</ele>
        <time>2018-08-13T12:34:43Z</time>
      </trkpt>
      <trkpt lat="40.553283" lon="-5.073950">
        <ele>1440.0</ele>
        <time>2018-08-13T12:34:44Z</time>
      </trkpt>
      <trkpt lat="40.553367" lon="-5.073933">
        <ele>1437.0</ele>
        <time>2018-08-13T12:34:45Z</time>
      </trkpt>
      <trkpt lat="40.553450" lon="-5.073900">
        <ele>1435.0</ele>
        <time>2018-08-13T12:34:46Z</time>
      </trkpt>
      <trkpt lat="40.553550" lon="-5.073867">
        <ele>1435.0</ele>
        <time>2018-08-13T12:34:47Z</time>
      </trkpt>
      <trkpt lat="40.553617" lon="-5.073800">
        <ele>1435.0</ele>
        <time>2018-08-13T12:34:48Z</time>
      </trkpt>
      <trkpt lat="40.553700" lon="-5.073717">
        <ele>1434.0</ele>
        <time>2018-08-13T12:34:49Z</time>
      </trkpt>
      <trkpt lat="40.553767" lon="-5.073633">
        <ele>1433.0</ele>
        <time>2018-08-13T12:34:50Z</time>
      </trkpt>
      <trkpt lat="40.553833" lon="-5.073533">
        <ele>1431.0</ele>
        <time>2018-08-13T12:34:51Z</time>
      </trkpt>
      <trkpt lat="40.553917" lon="-5.073433">
        <ele>1429.0</ele>
        <time>2018-08-13T12:34:52Z</time>
      </trkpt>
      <trkpt lat="40.554017" lon="-5.073333">
        <ele>1426.0</ele>
        <time>2018-08-13T12:34:53Z</time>
      </trkpt>
      <trkpt lat="40.554133" lon="-5.073233">
        <ele>1425.0</ele>
        <time>2018-08-13T12:34:54Z</time>
      </trkpt>
      <trkpt lat="40.554233" lon="-5.073150">
        <ele>1425.0</ele>
        <time>2018-08-13T12:34:55Z</time>
      </trkpt>
      <trkpt lat="40.554317" lon="-5.073067">
        <ele>1425.0</ele>
        <time>2018-08-13T12:34:56Z</time>
      </trkpt>
      <trkpt lat="40.554400" lon="-5.073000">
        <ele>1425.0</ele>
        <time>2018-08-13T12:34:57Z</time>
      </trkpt>
      <trkpt lat="40.554483" lon="-5.072917">
        <ele>1423.0</ele>
        <time>2018-08-13T12:34:58Z</time>
      </trkpt>
      <trkpt lat="40.554583" lon="-5.072833">
        <ele>1420.0</ele>
        <time>2018-08-13T12:34:59Z</time>
      </trkpt>
      <trkpt lat="40.554700" lon="-5.072767">
        <ele>1418.0</ele>
        <time>2018-08-13T12:35:00Z</time>
      </trkpt>
      <trkpt lat="40.554800" lon="-5.072700">
        <ele>1417.0</ele>
        <time>2018-08-13T12:35:01Z</time>
      </trkpt>
      <trkpt lat="40.554900" lon="-5.072650">
        <ele>1416.0</ele>
        <time>2018-08-13T12:35:02Z</time>
      </trkpt>
      <trkpt lat="40.555000" lon="-5.072600">
        <ele>1417.0</ele>
        <time>2018-08-13T12:35:03Z</time>
      </trkpt>
      <trkpt lat="40.555083" lon="-5.072533">
        <ele>1417.0</ele>
        <time>2018-08-13T12:35:04Z</time>
      </trkpt>
      <trkpt lat="40.555167" lon="-5.072467">
        <ele>1416.0</ele>
        <time>2018-08-13T12:35:05Z</time>
      </trkpt>
      <trkpt lat="40.555267" lon="-5.072433">
        <ele>1414.0</ele>
        <time>2018-08-13T12:35:06Z</time>
      </trkpt>
      <trkpt lat="40.555350" lon="-5.072383">
        <ele>1413.0</ele>
        <time>2018-08-13T12:35:07Z</time>
      </trkpt>
      <trkpt lat="40.555450" lon="-5.072350">
        <ele>1412.0</ele>
        <time>2018-08-13T12:35:08Z</time>
      </trkpt>
      <trkpt lat="40.555567" lon="-5.072317">
        <ele>1411.0</ele>
        <time>2018-08-13T12:35:09Z</time>
      </trkpt>
      <trkpt lat="40.555667" lon="-5.072250">
        <ele>1410.0</ele>
        <time>2018-08-13T12:35:10Z</time>
      </trkpt>
      <trkpt lat="40.555767" lon="-5.072200">
        <ele>1410.0</ele>
        <time>2018-08-13T12:35:11Z</time>
      </trkpt>
      <trkpt lat="40.555850" lon="-5.072150">
        <ele>1409.0</ele>
        <time>2018-08-13T12:35:12Z</time>
      </trkpt>
      <trkpt lat="40.555950" lon="-5.072117">
        <ele>1409.0</ele>
        <time>2018-08-13T12:35:13Z</time>
      </trkpt>
      <trkpt lat="40.556033" lon="-5.072083">
        <ele>1408.0</ele>
        <time>2018-08-13T12:35:14Z</time>
      </trkpt>
      <trkpt lat="40.556117" lon="-5.072033">
        <ele>1408.0</ele>
        <time>2018-08-13T12:35:15Z</time>
      </trkpt>
      <trkpt lat="40.556217" lon="-5.071967">
        <ele>1407.0</ele>
        <time>2018-08-13T12:35:16Z</time>
      </trkpt>
      <trkpt lat="40.556317" lon="-5.071917">
        <ele>1407.0</ele>
        <time>2018-08-13T12:35:17Z</time>
      </trkpt>
      <trkpt lat="40.556400" lon="-5.071867">
        <ele>1408.0</ele>
        <time>2018-08-13T12:35:18Z</time>
      </trkpt>
      <trkpt lat="40.556483" lon="-5.071833">
        <ele>1410.0</ele>
        <time>2018-08-13T12:35:19Z</time>
      </trkpt>
      <trkpt lat="40.556550" lon="-5.071800">
        <ele>1411.0</ele>
        <time>2018-08-13T12:35:20Z</time>
      </trkpt>
      <trkpt lat="40.556633" lon="-5.071750">
        <ele>1411.0</ele>
        <time>2018-08-13T12:35:21Z</time>
      </trkpt>
      <trkpt lat="40.556700" lon="-5.071700">
        <ele>1412.0</ele>
        <time>2018-08-13T12:35:22Z</time>
      </trkpt>
      <trkpt lat="40.556800" lon="-5.071633">
        <ele>1411.0</ele>
        <time>2018-08-13T12:35:23Z</time>
      </trkpt>
      <trkpt lat="40.556883" lon="-5.071567">
        <ele>1412.0</ele>
        <time>2018-08-13T12:35:24Z</time>
      </trkpt>
      <trkpt lat="40.556983" lon="-5.071500">
        <ele>1413.0</ele>
        <time>2018-08-13T12:35:25Z</time>
      </trkpt>
      <trkpt lat="40.557067" lon="-5.071433">
        <ele>1414.0</ele>
        <time>2018-08-13T12:35:26Z</time>
      </trkpt>
      <trkpt lat="40.557167" lon="-5.071367">
        <ele>1416.0</ele>
        <time>2018-08-13T12:35:27Z</time>
      </trkpt>
      <trkpt lat="40.557250" lon="-5.071300">
        <ele>1416.0</ele>
        <time>2018-08-13T12:35:28Z</time>
      </trkpt>
      <trkpt lat="40.557317" lon="-5.071200">
        <ele>1416.0</ele>
        <time>2018-08-13T12:35:29Z</time>
      </trkpt>
      <trkpt lat="40.557383" lon="-5.071100">
        <ele>1415.0</ele>
        <time>2018-08-13T12:35:30Z</time>
      </trkpt>
      <trkpt lat="40.557467" lon="-5.070967">
        <ele>1413.0</ele>
        <time>2018-08-13T12:35:31Z</time>
      </trkpt>
      <trkpt lat="40.557517" lon="-5.070800">
        <ele>1412.0</ele>
        <time>2018-08-13T12:35:32Z</time>
      </trkpt>
      <trkpt lat="40.557550" lon="-5.070617">
        <ele>1411.0</ele>
        <time>2018-08-13T12:35:33Z</time>
      </trkpt>
      <trkpt lat="40.557550" lon="-5.070417">
        <ele>1411.0</ele>
        <time>2018-08-13T12:35:34Z</time>
      </trkpt>
      <trkpt lat="40.557517" lon="-5.070233">
        <ele>1412.0</ele>
        <time>2018-08-13T12:35:35Z</time>
      </trkpt>
      <trkpt lat="40.557450" lon="-5.070067">
        <ele>1412.0</ele>
        <time>2018-08-13T12:35:36Z</time>
      </trkpt>
      <trkpt lat="40.557383" lon="-5.069917">
        <ele>1412.0</ele>
        <time>2018-08-13T12:35:37Z</time>
      </trkpt>
      <trkpt lat="40.557317" lon="-5.069783">
        <ele>1411.0</ele>
        <time>2018-08-13T12:35:38Z</time>
      </trkpt>
      <trkpt lat="40.557233" lon="-5.069667">
        <ele>1410.0</ele>
        <time>2018-08-13T12:35:39Z</time>
      </trkpt>
      <trkpt lat="40.557133" lon="-5.069567">
        <ele>1408.0</ele>
        <time>2018-08-13T12:35:40Z</time>
      </trkpt>
      <trkpt lat="40.557033" lon="-5.069483">
        <ele>1407.0</ele>
        <time>2018-08-13T12:35:41Z</time>
      </trkpt>
      <trkpt lat="40.556933" lon="-5.069400">
        <ele>1405.0</ele>
        <time>2018-08-13T12:35:42Z</time>
      </trkpt>
      <trkpt lat="40.556817" lon="-5.069350">
        <ele>1404.0</ele>
        <time>2018-08-13T12:35:43Z</time>
      </trkpt>
      <trkpt lat="40.556717" lon="-5.069300">
        <ele>1404.0</ele>
        <time>2018-08-13T12:35:44Z</time>
      </trkpt>
      <trkpt lat="40.556617" lon="-5.069283">
        <ele>1405.0</ele>
        <time>2018-08-13T12:35:45Z</time>
      </trkpt>
      <trkpt lat="40.556533" lon="-5.069267">
        <ele>1406.0</ele>
        <time>2018-08-13T12:35:46Z</time>
      </trkpt>
      <trkpt lat="40.556450" lon="-5.069233">
        <ele>1408.0</ele>
        <time>2018-08-13T12:35:47Z</time>
      </trkpt>
      <trkpt lat="40.556367" lon="-5.069200">
        <ele>1409.0</ele>
        <time>2018-08-13T12:35:48Z</time>
      </trkpt>
      <trkpt lat="40.556300" lon="-5.069183">
        <ele>1409.0</ele>
        <time>2018-08-13T12:35:49Z</time>
      </trkpt>
      <trkpt lat="40.556233" lon="-5.069167">
        <ele>1409.0</ele>
        <time>2018-08-13T12:35:50Z</time>
      </trkpt>
      <trkpt lat="40.556167" lon="-5.069167">
        <ele>1408.0</ele>
        <time>2018-08-13T12:35:51Z</time>
      </trkpt>
      <trkpt lat="40.556100" lon="-5.069167">
        <ele>1407.0</ele>
        <time>2018-08-13T12:35:52Z</time>
      </trkpt>
      <trkpt lat="40.556033" lon="-5.069150">
        <ele>1407.0</ele>
        <time>2018-08-13T12:35:53Z</time>
      </trkpt>
      <trkpt lat="40.555950" lon="-5.069117">
        <ele>1406.0</ele>
        <time>2018-08-13T12:35:54Z</time>
      </trkpt>
      <trkpt lat="40.555850" lon="-5.069083">
        <ele>1406.0</ele>
        <time>2018-08-13T12:35:55Z</time>
      </trkpt>
      <trkpt lat="40.555767" lon="-5.069033">
        <ele>1406.0</ele>
        <time>2018-08-13T12:35:56Z</time>
      </trkpt>
      <trkpt lat="40.555667" lon="-5.069000">
        <ele>1406.0</ele>
        <time>2018-08-13T12:35:57Z</time>
      </trkpt>
      <trkpt lat="40.555583" lon="-5.068950">
        <ele>1406.0</ele>
        <time>2018-08-13T12:35:58Z</time>
      </trkpt>
      <trkpt lat="40.555500" lon="-5.068867">
        <ele>1404.0</ele>
        <time>2018-08-13T12:35:59Z</time>
      </trkpt>
      <trkpt lat="40.555417" lon="-5.068783">
        <ele>1402.0</ele>
        <time>2018-08-13T12:36:00Z</time>
      </trkpt>
      <trkpt lat="40.555317" lon="-5.068667">
        <ele>1400.0</ele>
        <time>2018-08-13T12:36:01Z</time>
      </trkpt>
      <trkpt lat="40.555233" lon="-5.068533">
        <ele>1399.0</ele>
        <time>2018-08-13T12:36:02Z</time>
      </trkpt>
      <trkpt lat="40.555167" lon="-5.068383">
        <ele>1398.0</ele>
        <time>2018-08-13T12:36:03Z</time>
      </trkpt>
      <trkpt lat="40.555083" lon="-5.068250">
        <ele>1398.0</ele>
        <time>2018-08-13T12:36:04Z</time>
      </trkpt>
      <trkpt lat="40.555000" lon="-5.068117">
        <ele>1396.0</ele>
        <time>2018-08-13T12:36:05Z</time>
      </trkpt>
      <trkpt lat="40.554933" lon="-5.068000">
        <ele>1394.0</ele>
        <time>2018-08-13T12:36:06Z</time>
      </trkpt>
      <trkpt lat="40.554850" lon="-5.067883">
        <ele>1392.0</ele>
        <time>2018-08-13T12:36:07Z</time>
      </trkpt>
      <trkpt lat="40.554750" lon="-5.067767">
        <ele>1389.0</ele>
        <time>2018-08-13T12:36:08Z</time>
      </trkpt>
      <trkpt lat="40.554667" lon="-5.067667">
        <ele>1387.0</ele>
        <time>2018-08-13T12:36:09Z</time>
      </trkpt>
      <trkpt lat="40.554567" lon="-5.067550">
        <ele>1385.0</ele>
        <time>2018-08-13T12:36:10Z</time>
      </trkpt>
      <trkpt lat="40.554467" lon="-5.067467">
        <ele>1384.0</ele>
        <time>2018-08-13T12:36:11Z</time>
      </trkpt>
      <trkpt lat="40.554383" lon="-5.067367">
        <ele>1382.0</ele>
        <time>2018-08-13T12:36:12Z</time>
      </trkpt>
      <trkpt lat="40.554300" lon="-5.067300">
        <ele>1381.0</ele>
        <time>2018-08-13T12:36:13Z</time>
      </trkpt>
      <trkpt lat="40.554217" lon="-5.067233">
        <ele>1378.0</ele>
        <time>2018-08-13T12:36:14Z</time>
      </trkpt>
      <trkpt lat="40.554150" lon="-5.067183">
        <ele>1376.0</ele>
        <time>2018-08-13T12:36:15Z</time>
      </trkpt>
      <trkpt lat="40.554067" lon="-5.067117">
        <ele>1372.0</ele>
        <time>2018-08-13T12:36:16Z</time>
      </trkpt>
      <trkpt lat="40.553967" lon="-5.067050">
        <ele>1368.0</ele>
        <time>2018-08-13T12:36:17Z</time>
      </trkpt>
      <trkpt lat="40.553867" lon="-5.066950">
        <ele>1365.0</ele>
        <time>2018-08-13T12:36:18Z</time>
      </trkpt>
      <trkpt lat="40.553767" lon="-5.066833">
        <ele>1363.0</ele>
        <time>2018-08-13T12:36:19Z</time>
      </trkpt>
      <trkpt lat="40.553667" lon="-5.066717">
        <ele>1363.0</ele>
        <time>2018-08-13T12:36:20Z</time>
      </trkpt>
      <trkpt lat="40.553583" lon="-5.066600">
        <ele>1364.0</ele>
        <time>2018-08-13T12:36:21Z</time>
      </trkpt>
      <trkpt lat="40.553517" lon="-5.066483">
        <ele>1365.0</ele>
        <time>2018-08-13T12:36:22Z</time>
      </trkpt>
      <trkpt lat="40.553467" lon="-5.066383">
        <ele>1365.0</ele>
        <time>2018-08-13T12:36:23Z</time>
      </trkpt>
      <trkpt lat="40.553383" lon="-5.066283">
        <ele>1364.0</ele>
        <time>2018-08-13T12:36:24Z</time>
      </trkpt>
      <trkpt lat="40.553300" lon="-5.066167">
        <ele>1363.0</ele>
        <time>2018-08-13T12:36:25Z</time>
      </trkpt>
      <trkpt lat="40.553217" lon="-5.066067">
        <ele>1362.0</ele>
        <time>2018-08-13T12:36:26Z</time>
      </trkpt>
      <trkpt lat="40.553133" lon="-5.065983">
        <ele>1363.0</ele>
        <time>2018-08-13T12:36:27Z</time>
      </trkpt>
      <trkpt lat="40.553050" lon="-5.065883">
        <ele>1363.0</ele>
        <time>2018-08-13T12:36:28Z</time>
      </trkpt>
      <trkpt lat="40.552983" lon="-5.065800">
        <ele>1363.0</ele>
        <time>2018-08-13T12:36:29Z</time>
      </trkpt>
      <trkpt lat="40.552900" lon="-5.065717">
        <ele>1362.0</ele>
        <time>2018-08-13T12:36:30Z</time>
      </trkpt>
      <trkpt lat="40.552817" lon="-5.065633">
        <ele>1361.0</ele>
        <time>2018-08-13T12:36:31Z</time>
      </trkpt>
      <trkpt lat="40.552733" lon="-5.065550">
        <ele>1359.0</ele>
        <time>2018-08-13T12:36:32Z</time>
      </trkpt>
      <trkpt lat="40.552650" lon="-5.065483">
        <ele>1357.0</ele>
        <time>2018-08-13T12:36:33Z</time>
      </trkpt>
      <trkpt lat="40.552567" lon="-5.065417">
        <ele>1355.0</ele>
        <time>2018-08-13T12:36:34Z</time>
      </trkpt>
      <trkpt lat="40.552483" lon="-5.065350">
        <ele>1352.0</ele>
        <time>2018-08-13T12:36:35Z</time>
      </trkpt>
      <trkpt lat="40.552417" lon="-5.065250">
        <ele>1348.0</ele>
        <time>2018-08-13T12:36:36Z</time>
      </trkpt>
      <trkpt lat="40.552333" lon="-5.065133">
        <ele>1343.0</ele>
        <time>2018-08-13T12:36:37Z</time>
      </trkpt>
      <trkpt lat="40.552250" lon="-5.065000">
        <ele>1338.0</ele>
        <time>2018-08-13T12:36:38Z</time>
      </trkpt>
      <trkpt lat="40.552167" lon="-5.064883">
        <ele>1333.0</ele>
        <time>2018-08-13T12:36:39Z</time>
      </trkpt>
      <trkpt lat="40.552067" lon="-5.064800">
        <ele>1330.0</ele>
        <time>2018-08-13T12:36:40Z</time>
      </trkpt>
      <trkpt lat="40.551983" lon="-5.064733">
        <ele>1328.0</ele>
        <time>2018-08-13T12:36:41Z</time>
      </trkpt>
      <trkpt lat="40.551900" lon="-5.064700">
        <ele>1326.0</ele>
        <time>2018-08-13T12:36:42Z</time>
      </trkpt>
      <trkpt lat="40.551850" lon="-5.064683">
        <ele>1324.0</ele>
        <time>2018-08-13T12:36:43Z</time>
      </trkpt>
      <trkpt lat="40.551800" lon="-5.064700">
        <ele>1321.0</ele>
        <time>2018-08-13T12:36:44Z</time>
      </trkpt>
      <trkpt lat="40.551750" lon="-5.064750">
        <ele>1317.0</ele>
        <time>2018-08-13T12:36:45Z</time>
      </trkpt>
      <trkpt lat="40.551733" lon="-5.064817">
        <ele>1315.0</ele>
        <time>2018-08-13T12:36:46Z</time>
      </trkpt>
      <trkpt lat="40.551733" lon="-5.064883">
        <ele>1314.0</ele>
        <time>2018-08-13T12:36:47Z</time>
      </trkpt>
      <trkpt lat="40.551750" lon="-5.064950">
        <ele>1314.0</ele>
        <time>2018-08-13T12:36:48Z</time>
      </trkpt>
      <trkpt lat="40.551767" lon="-5.065017">
        <ele>1313.0</ele>
        <time>2018-08-13T12:36:49Z</time>
      </trkpt>
      <trkpt lat="40.551800" lon="-5.065083">
        <ele>1312.0</ele>
        <time>2018-08-13T12:36:50Z</time>
      </trkpt>
      <trkpt lat="40.551817" lon="-5.065167">
        <ele>1311.0</ele>
        <time>2018-08-13T12:36:51Z</time>
      </trkpt>
      <trkpt lat="40.551867" lon="-5.065233">
        <ele>1311.0</ele>
        <time>2018-08-13T12:36:52Z</time>
      </trkpt>
      <trkpt lat="40.551917" lon="-5.065300">
        <ele>1311.0</ele>
        <time>2018-08-13T12:36:53Z</time>
      </trkpt>
      <trkpt lat="40.551967" lon="-5.065350">
        <ele>1311.0</ele>
        <time>2018-08-13T12:36:54Z</time>
      </trkpt>
      <trkpt lat="40.552000" lon="-5.065383">
        <ele>1310.0</ele>
        <time>2018-08-13T12:36:55Z</time>
      </trkpt>
      <trkpt lat="40.552033" lon="-5.065417">
        <ele>1307.0</ele>
        <time>2018-08-13T12:36:56Z</time>
      </trkpt>
      <trkpt lat="40.552067" lon="-5.065467">
        <ele>1303.0</ele>
        <time>2018-08-13T12:36:57Z</time>
      </trkpt>
      <trkpt lat="40.552100" lon="-5.065517">
        <ele>1299.0</ele>
        <time>2018-08-13T12:36:58Z</time>
      </trkpt>
      <trkpt lat="40.552133" lon="-5.065600">
        <ele>1296.0</ele>
        <time>2018-08-13T12:36:59Z</time>
      </trkpt>
      <trkpt lat="40.552150" lon="-5.065683">
        <ele>1295.0</ele>
        <time>2018-08-13T12:37:00Z</time>
      </trkpt>
      <trkpt lat="40.552167" lon="-5.065767">
        <ele>1294.0</ele>
        <time>2018-08-13T12:37:01Z</time>
      </trkpt>
      <trkpt lat="40.552150" lon="-5.065833">
        <ele>1295.0</ele>
        <time>2018-08-13T12:37:02Z</time>
      </trkpt>
      <trkpt lat="40.552133" lon="-5.065883">
        <ele>1295.0</ele>
        <time>2018-08-13T12:37:03Z</time>
      </trkpt>
      <trkpt lat="40.552133" lon="-5.065950">
        <ele>1294.0</ele>
        <time>2018-08-13T12:37:04Z</time>
      </trkpt>
      <trkpt lat="40.552133" lon="-5.066033">
        <ele>1293.0</ele>
        <time>2018-08-13T12:37:05Z</time>
      </trkpt>
      <trkpt lat="40.552133" lon="-5.066133">
        <ele>1293.0</ele>
        <time>2018-08-13T12:37:06Z</time>
      </trkpt>
      <trkpt lat="40.552150" lon="-5.066233">
        <ele>1294.0</ele>
        <time>2018-08-13T12:37:07Z</time>
      </trkpt>
      <trkpt lat="40.552150" lon="-5.066300">
        <ele>1295.0</ele>
        <time>2018-08-13T12:37:08Z</time>
      </trkpt>
      <trkpt lat="40.552150" lon="-5.066367">
        <ele>1296.0</ele>
        <time>2018-08-13T12:37:09Z</time>
      </trkpt>
      <trkpt lat="40.552133" lon="-5.066433">
        <ele>1296.0</ele>
        <time>2018-08-13T12:37:10Z</time>
      </trkpt>
      <trkpt lat="40.552133" lon="-5.066483">
        <ele>1296.0</ele>
        <time>2018-08-13T12:37:11Z</time>
      </trkpt>
      <trkpt lat="40.552133" lon="-5.066533">
        <ele>1295.0</ele>
        <time>2018-08-13T12:37:12Z</time>
      </trkpt>
      <trkpt lat="40.552117" lon="-5.066583">
        <ele>1294.0</ele>
        <time>2018-08-13T12:37:13Z</time>
      </trkpt>
      <trkpt lat="40.552100" lon="-5.066650">
        <ele>1291.0</ele>
        <time>2018-08-13T12:37:14Z</time>
      </trkpt>
      <trkpt lat="40.552100" lon="-5.066700">
        <ele>1290.0</ele>
        <time>2018-08-13T12:37:15Z</time>
      </trkpt>
      <trkpt lat="40.552100" lon="-5.066767">
        <ele>1289.0</ele>
        <time>2018-08-13T12:37:16Z</time>
      </trkpt>
      <trkpt lat="40.552117" lon="-5.066817">
        <ele>1288.0</ele>
        <time>2018-08-13T12:37:17Z</time>
      </trkpt>
      <trkpt lat="40.552150" lon="-5.066867">
        <ele>1286.0</ele>
        <time>2018-08-13T12:37:18Z</time>
      </trkpt>
      <trkpt lat="40.552183" lon="-5.066917">
        <ele>1285.0</ele>
        <time>2018-08-13T12:37:19Z</time>
      </trkpt>
      <trkpt lat="40.552217" lon="-5.066967">
        <ele>1283.0</ele>
        <time>2018-08-13T12:37:20Z</time>
      </trkpt>
      <trkpt lat="40.552250" lon="-5.067000">
        <ele>1282.0</ele>
        <time>2018-08-13T12:37:21Z</time>
      </trkpt>
      <trkpt lat="40.552300" lon="-5.067050">
        <ele>1280.0</ele>
        <time>2018-08-13T12:37:22Z</time>
      </trkpt>
      <trkpt lat="40.552350" lon="-5.067083">
        <ele>1280.0</ele>
        <time>2018-08-13T12:37:23Z</time>
      </trkpt>
      <trkpt lat="40.552417" lon="-5.067117">
        <ele>1279.0</ele>
        <time>2018-08-13T12:37:24Z</time>
      </trkpt>
      <trkpt lat="40.552467" lon="-5.067150">
        <ele>1278.0</ele>
        <time>2018-08-13T12:37:25Z</time>
      </trkpt>
      <trkpt lat="40.552517" lon="-5.067183">
        <ele>1277.0</ele>
        <time>2018-08-13T12:37:26Z</time>
      </trkpt>
      <trkpt lat="40.552550" lon="-5.067233">
        <ele>1276.0</ele>
        <time>2018-08-13T12:37:27Z</time>
      </trkpt>
      <trkpt lat="40.552550" lon="-5.067267">
        <ele>1275.0</ele>
        <time>2018-08-13T12:37:28Z</time>
      </trkpt>
      <trkpt lat="40.552533" lon="-5.067283">
        <ele>1275.0</ele>
        <time>2018-08-13T12:37:29Z</time>
      </trkpt>
      <trkpt lat="40.552533" lon="-5.067300">
        <ele>1273.0</ele>
        <time>2018-08-13T12:37:30Z</time>
      </trkpt>
      <trkpt lat="40.552550" lon="-5.067300">
        <ele>1272.0</ele>
        <time>2018-08-13T12:37:31Z</time>
      </trkpt>
      <trkpt lat="40.552600" lon="-5.067317">
        <ele>1271.0</ele>
        <time>2018-08-13T12:37:32Z</time>
      </trkpt>
      <trkpt lat="40.552633" lon="-5.067350">
        <ele>1269.0</ele>
        <time>2018-08-13T12:37:33Z</time>
      </trkpt>
      <trkpt lat="40.552667" lon="-5.067383">
        <ele>1266.0</ele>
        <time>2018-08-13T12:37:34Z</time>
      </trkpt>
      <trkpt lat="40.552717" lon="-5.067417">
        <ele>1264.0</ele>
        <time>2018-08-13T12:37:35Z</time>
      </trkpt>
      <trkpt lat="40.552750" lon="-5.067433">
        <ele>1263.0</ele>
        <time>2018-08-13T12:37:36Z</time>
      </trkpt>
      <trkpt lat="40.552800" lon="-5.067450">
        <ele>1262.0</ele>
        <time>2018-08-13T12:37:37Z</time>
      </trkpt>
      <trkpt lat="40.552850" lon="-5.067450">
        <ele>1261.0</ele>
        <time>2018-08-13T12:37:38Z</time>
      </trkpt>
      <trkpt lat="40.552917" lon="-5.067467">
        <ele>1259.0</ele>
        <time>2018-08-13T12:37:39Z</time>
      </trkpt>
      <trkpt lat="40.553000" lon="-5.067483">
        <ele>1257.0</ele>
        <time>2018-08-13T12:37:40Z</time>
      </trkpt>
      <trkpt lat="40.553083" lon="-5.067500">
        <ele>1255.0</ele>
        <time>2018-08-13T12:37:41Z</time>
      </trkpt>
      <trkpt lat="40.553200" lon="-5.067500">
        <ele>1254.0</ele>
        <time>2018-08-13T12:37:42Z</time>
      </trkpt>
      <trkpt lat="40.553317" lon="-5.067500">
        <ele>1255.0</ele>
        <time>2018-08-13T12:37:43Z</time>
      </trkpt>
      <trkpt lat="40.553417" lon="-5.067500">
        <ele>1257.0</ele>
        <time>2018-08-13T12:37:44Z</time>
      </trkpt>
      <trkpt lat="40.553500" lon="-5.067467">
        <ele>1258.0</ele>
        <time>2018-08-13T12:37:45Z</time>
      </trkpt>
      <trkpt lat="40.553600" lon="-5.067450">
        <ele>1257.0</ele>
        <time>2018-08-13T12:37:46Z</time>
      </trkpt>
      <trkpt lat="40.553700" lon="-5.067417">
        <ele>1257.0</ele>
        <time>2018-08-13T12:37:47Z</time>
      </trkpt>
      <trkpt lat="40.553800" lon="-5.067417">
        <ele>1259.0</ele>
        <time>2018-08-13T12:37:48Z</time>
      </trkpt>
      <trkpt lat="40.553900" lon="-5.067383">
        <ele>1262.0</ele>
        <time>2018-08-13T12:37:49Z</time>
      </trkpt>
      <trkpt lat="40.553983" lon="-5.067350">
        <ele>1265.0</ele>
        <time>2018-08-13T12:37:50Z</time>
      </trkpt>
      <trkpt lat="40.554050" lon="-5.067317">
        <ele>1264.0</ele>
        <time>2018-08-13T12:37:51Z</time>
      </trkpt>
      <trkpt lat="40.554133" lon="-5.067283">
        <ele>1262.0</ele>
        <time>2018-08-13T12:37:52Z</time>
      </trkpt>
      <trkpt lat="40.554217" lon="-5.067300">
        <ele>1259.0</ele>
        <time>2018-08-13T12:37:53Z</time>
      </trkpt>
      <trkpt lat="40.554283" lon="-5.067333">
        <ele>1255.0</ele>
        <time>2018-08-13T12:37:54Z</time>
      </trkpt>
      <trkpt lat="40.554317" lon="-5.067400">
        <ele>1254.0</ele>
        <time>2018-08-13T12:37:55Z</time>
      </trkpt>
      <trkpt lat="40.554317" lon="-5.067450">
        <ele>1254.0</ele>
        <time>2018-08-13T12:37:56Z</time>
      </trkpt>
      <trkpt lat="40.554300" lon="-5.067467">
        <ele>1252.0</ele>
        <time>2018-08-13T12:37:57Z</time>
      </trkpt>
      <trkpt lat="40.554250" lon="-5.067483">
        <ele>1251.0</ele>
        <time>2018-08-13T12:37:58Z</time>
      </trkpt>
      <trkpt lat="40.554183" lon="-5.067500">
        <ele>1251.0</ele>
        <time>2018-08-13T12:37:59Z</time>
      </trkpt>
      <trkpt lat="40.554117" lon="-5.067500">
        <ele>1251.0</ele>
        <time>2018-08-13T12:38:00Z</time>
      </trkpt>
      <trkpt lat="40.554050" lon="-5.067500">
        <ele>1252.0</ele>
        <time>2018-08-13T12:38:01Z</time>
      </trkpt>
      <trkpt lat="40.553967" lon="-5.067500">
        <ele>1254.0</ele>
        <time>2018-08-13T12:38:02Z</time>
      </trkpt>
      <trkpt lat="40.553900" lon="-5.067500">
        <ele>1255.0</ele>
        <time>2018-08-13T12:38:03Z</time>
      </trkpt>
      <trkpt lat="40.553817" lon="-5.067500">
        <ele>1256.0</ele>
        <time>2018-08-13T12:38:04Z</time>
      </trkpt>
      <trkpt lat="40.553733" lon="-5.067483">
        <ele>1257.0</ele>
        <time>2018-08-13T12:38:05Z</time>
      </trkpt>
      <trkpt lat="40.553650" lon="-5.067450">
        <ele>1257.0</ele>
        <time>2018-08-13T12:38:06Z</time>
      </trkpt>
      <trkpt lat="40.553567" lon="-5.067400">
        <ele>1257.0</ele>
        <time>2018-08-13T12:38:07Z</time>
      </trkpt>
      <trkpt lat="40.553483" lon="-5.067317">
        <ele>1256.0</ele>
        <time>2018-08-13T12:38:08Z</time>
      </trkpt>
      <trkpt lat="40.553417" lon="-5.067183">
        <ele>1255.0</ele>
        <time>2018-08-13T12:38:09Z</time>
      </trkpt>
      <trkpt lat="40.553350" lon="-5.067000">
        <ele>1254.0</ele>
        <time>2018-08-13T12:38:10Z</time>
      </trkpt>
      <trkpt lat="40.553300" lon="-5.066800">
        <ele>1254.0</ele>
        <time>2018-08-13T12:38:11Z</time>
      </trkpt>
      <trkpt lat="40.553283" lon="-5.066617">
        <ele>1255.0</ele>
        <time>2018-08-13T12:38:12Z</time>
      </trkpt>
      <trkpt lat="40.553300" lon="-5.066433">
        <ele>1255.0</ele>
        <time>2018-08-13T12:38:13Z</time>
      </trkpt>
      <trkpt lat="40.553350" lon="-5.066250">
        <ele>1256.0</ele>
        <time>2018-08-13T12:38:14Z</time>
      </trkpt>
      <trkpt lat="40.553433" lon="-5.066100">
        <ele>1257.0</ele>
        <time>2018-08-13T12:38:15Z</time>
      </trkpt>
      <trkpt lat="40.553517" lon="-5.065967">
        <ele>1259.0</ele>
        <time>2018-08-13T12:38:16Z</time>
      </trkpt>
      <trkpt lat="40.553600" lon="-5.065850">
        <ele>1260.0</ele>
        <time>2018-08-13T12:38:17Z</time>
      </trkpt>
      <trkpt lat="40.553700" lon="-5.065767">
        <ele>1262.0</ele>
        <time>2018-08-13T12:38:18Z</time>
      </trkpt>
      <trkpt lat="40.553783" lon="-5.065733">
        <ele>1262.0</ele>
        <time>2018-08-13T12:38:19Z</time>
      </trkpt>
      <trkpt lat="40.553883" lon="-5.065733">
        <ele>1262.0</ele>
        <time>2018-08-13T12:38:20Z</time>
      </trkpt>
      <trkpt lat="40.553983" lon="-5.065750">
        <ele>1263.0</ele>
        <time>2018-08-13T12:38:21Z</time>
      </trkpt>
      <trkpt lat="40.554050" lon="-5.065783">
        <ele>1266.0</ele>
        <time>2018-08-13T12:38:22Z</time>
      </trkpt>
      <trkpt lat="40.554117" lon="-5.065800">
        <ele>1268.0</ele>
        <time>2018-08-13T12:38:23Z</time>
      </trkpt>
      <trkpt lat="40.554133" lon="-5.065817">
        <ele>1270.0</ele>
        <time>2018-08-13T12:38:24Z</time>
      </trkpt>
      <trkpt lat="40.554133" lon="-5.065867">
        <ele>1269.0</ele>
        <time>2018-08-13T12:38:25Z</time>
      </trkpt>
      <trkpt lat="40.554100" lon="-5.065917">
        <ele>1268.0</ele>
        <time>2018-08-13T12:38:26Z</time>
      </trkpt>
      <trkpt lat="40.554033" lon="-5.065967">
        <ele>1269.0</ele>
        <time>2018-08-13T12:38:27Z</time>
      </trkpt>
      <trkpt lat="40.553950" lon="-5.065967">
        <ele>1270.0</ele>
        <time>2018-08-13T12:38:28Z</time>
      </trkpt>
      <trkpt lat="40.553850" lon="-5.065917">
        <ele>1271.0</ele>
        <time>2018-08-13T12:38:29Z</time>
      </trkpt>
      <trkpt lat="40.553767" lon="-5.065800">
        <ele>1272.0</ele>
        <time>2018-08-13T12:38:30Z</time>
      </trkpt>
      <trkpt lat="40.553717" lon="-5.065650">
        <ele>1271.0</ele>
        <time>2018-08-13T12:38:31Z</time>
      </trkpt>
      <trkpt lat="40.553683" lon="-5.065450">
        <ele>1270.0</ele>
        <time>2018-08-13T12:38:32Z</time>
      </trkpt>
      <trkpt lat="40.553683" lon="-5.065250">
        <ele>1269.0</ele>
        <time>2018-08-13T12:38:33Z</time>
      </trkpt>
      <trkpt lat="40.553717" lon="-5.065050">
        <ele>1269.0</ele>
        <time>2018-08-13T12:38:34Z</time>
      </trkpt>
      <trkpt lat="40.553767" lon="-5.064867">
        <ele>1269.0</ele>
        <time>2018-08-13T12:38:35Z</time>
      </trkpt>
      <trkpt lat="40.553867" lon="-5.064717">
        <ele>1271.0</ele>
        <time>2018-08-13T12:38:36Z</time>
      </trkpt>
      <trkpt lat="40.553967" lon="-5.064617">
        <ele>1271.0</ele>
        <time>2018-08-13T12:38:37Z</time>
      </trkpt>
      <trkpt lat="40.554083" lon="-5.064567">
        <ele>1273.0</ele>
        <time>2018-08-13T12:38:38Z</time>
      </trkpt>
      <trkpt lat="40.554183" lon="-5.064550">
        <ele>1275.0</ele>
        <time>2018-08-13T12:38:39Z</time>
      </trkpt>
      <trkpt lat="40.554250" lon="-5.064550">
        <ele>1278.0</ele>
        <time>2018-08-13T12:38:40Z</time>
      </trkpt>
      <trkpt lat="40.554300" lon="-5.064583">
        <ele>1279.0</ele>
        <time>2018-08-13T12:38:41Z</time>
      </trkpt>
      <trkpt lat="40.554333" lon="-5.064633">
        <ele>1279.0</ele>
        <time>2018-08-13T12:38:42Z</time>
      </trkpt>
      <trkpt lat="40.554333" lon="-5.064717">
        <ele>1279.0</ele>
        <time>2018-08-13T12:38:43Z</time>
      </trkpt>
      <trkpt lat="40.554317" lon="-5.064783">
        <ele>1281.0</ele>
        <time>2018-08-13T12:38:44Z</time>
      </trkpt>
      <trkpt lat="40.554267" lon="-5.064850">
        <ele>1284.0</ele>
        <time>2018-08-13T12:38:45Z</time>
      </trkpt>
      <trkpt lat="40.554183" lon="-5.064867">
        <ele>1286.0</ele>
        <time>2018-08-13T12:38:46Z</time>
      </trkpt>
      <trkpt lat="40.554100" lon="-5.064833">
        <ele>1287.0</ele>
        <time>2018-08-13T12:38:47Z</time>
      </trkpt>
      <trkpt lat="40.554017" lon="-5.064750">
        <ele>1287.0</ele>
        <time>2018-08-13T12:38:48Z</time>
      </trkpt>
      <trkpt lat="40.553933" lon="-5.064617">
        <ele>1286.0</ele>
        <time>2018-08-13T12:38:49Z</time>
      </trkpt>
      <trkpt lat="40.553867" lon="-5.064433">
        <ele>1284.0</ele>
        <time>2018-08-13T12:38:50Z</time>
      </trkpt>
      <trkpt lat="40.553833" lon="-5.064233">
        <ele>1283.0</ele>
        <time>2018-08-13T12:38:51Z</time>
      </trkpt>
      <trkpt lat="40.553850" lon="-5.064000">
        <ele>1282.0</ele>
        <time>2018-08-13T12:38:52Z</time>
      </trkpt>
      <trkpt lat="40.553917" lon="-5.063800">
        <ele>1283.0</ele>
        <time>2018-08-13T12:38:53Z</time>
      </trkpt>
      <trkpt lat="40.554017" lon="-5.063650">
        <ele>1284.0</ele>
        <time>2018-08-13T12:38:54Z</time>
      </trkpt>
      <trkpt lat="40.554117" lon="-5.063533">
        <ele>1287.0</ele>
        <time>2018-08-13T12:38:55Z</time>
      </trkpt>
      <trkpt lat="40.554200" lon="-5.063433">
        <ele>1289.0</ele>
        <time>2018-08-13T12:38:56Z</time>
      </trkpt>
      <trkpt lat="40.554283" lon="-5.063333">
        <ele>1292.0</ele>
        <time>2018-08-13T12:38:57Z</time>
      </trkpt>
      <trkpt lat="40.554367" lon="-5.063267">
        <ele>1293.0</ele>
        <time>2018-08-13T12:38:58Z</time>
      </trkpt>
      <trkpt lat="40.554467" lon="-5.063217">
        <ele>1293.0</ele>
        <time>2018-08-13T12:38:59Z</time>
      </trkpt>
      <trkpt lat="40.554550" lon="-5.063233">
        <ele>1293.0</ele>
        <time>2018-08-13T12:39:00Z</time>
      </trkpt>
      <trkpt lat="40.554617" lon="-5.063267">
        <ele>1293.0</ele>
        <time>2018-08-13T12:39:01Z</time>
      </trkpt>
      <trkpt lat="40.554667" lon="-5.063333">
        <ele>1294.0</ele>
        <time>2018-08-13T12:39:02Z</time>
      </trkpt>
      <trkpt lat="40.554700" lon="-5.063383">
        <ele>1296.0</ele>
        <time>2018-08-13T12:39:03Z</time>
      </trkpt>
      <trkpt lat="40.554700" lon="-5.063433">
        <ele>1299.0</ele>
        <time>2018-08-13T12:39:04Z</time>
      </trkpt>
      <trkpt lat="40.554683" lon="-5.063467">
        <ele>1300.0</ele>
        <time>2018-08-13T12:39:05Z</time>
      </trkpt>
      <trkpt lat="40.554633" lon="-5.063500">
        <ele>1301.0</ele>
        <time>2018-08-13T12:39:06Z</time>
      </trkpt>
      <trkpt lat="40.554567" lon="-5.063483">
        <ele>1302.0</ele>
        <time>2018-08-13T12:39:07Z</time>
      </trkpt>
      <trkpt lat="40.554483" lon="-5.063433">
        <ele>1303.0</ele>
        <time>2018-08-13T12:39:08Z</time>
      </trkpt>
      <trkpt lat="40.554400" lon="-5.063333">
        <ele>1303.0</ele>
        <time>2018-08-13T12:39:09Z</time>
      </trkpt>
      <trkpt lat="40.554317" lon="-5.063200">
        <ele>1304.0</ele>
        <time>2018-08-13T12:39:10Z</time>
      </trkpt>
      <trkpt lat="40.554267" lon="-5.063000">
        <ele>1305.0</ele>
        <time>2018-08-13T12:39:11Z</time>
      </trkpt>
      <trkpt lat="40.554267" lon="-5.062800">
        <ele>1307.0</ele>
        <time>2018-08-13T12:39:12Z</time>
      </trkpt>
      <trkpt lat="40.554317" lon="-5.062633">
        <ele>1309.0</ele>
        <time>2018-08-13T12:39:13Z</time>
      </trkpt>
      <trkpt lat="40.554383" lon="-5.062483">
        <ele>1311.0</ele>
        <time>2018-08-13T12:39:14Z</time>
      </trkpt>
      <trkpt lat="40.554450" lon="-5.062367">
        <ele>1313.0</ele>
        <time>2018-08-13T12:39:15Z</time>
      </trkpt>
      <trkpt lat="40.554550" lon="-5.062283">
        <ele>1315.0</ele>
        <time>2018-08-13T12:39:16Z</time>
      </trkpt>
      <trkpt lat="40.554650" lon="-5.062250">
        <ele>1316.0</ele>
        <time>2018-08-13T12:39:17Z</time>
      </trkpt>
      <trkpt lat="40.554733" lon="-5.062267">
        <ele>1316.0</ele>
        <time>2018-08-13T12:39:18Z</time>
      </trkpt>
      <trkpt lat="40.554800" lon="-5.062317">
        <ele>1317.0</ele>
        <time>2018-08-13T12:39:19Z</time>
      </trkpt>
      <trkpt lat="40.554817" lon="-5.062400">
        <ele>1318.0</ele>
        <time>2018-08-13T12:39:20Z</time>
      </trkpt>
      <trkpt lat="40.554800" lon="-5.062467">
        <ele>1320.0</ele>
        <time>2018-08-13T12:39:21Z</time>
      </trkpt>
      <trkpt lat="40.554750" lon="-5.062500">
        <ele>1322.0</ele>
        <time>2018-08-13T12:39:22Z</time>
      </trkpt>
      <trkpt lat="40.554683" lon="-5.062483">
        <ele>1322.0</ele>
        <time>2018-08-13T12:39:23Z</time>
      </trkpt>
      <trkpt lat="40.554583" lon="-5.062433">
        <ele>1321.0</ele>
        <time>2018-08-13T12:39:24Z</time>
      </trkpt>
      <trkpt lat="40.554500" lon="-5.062317">
        <ele>1319.0</ele>
        <time>2018-08-13T12:39:25Z</time>
      </trkpt>
      <trkpt lat="40.554433" lon="-5.062150">
        <ele>1318.0</ele>
        <time>2018-08-13T12:39:26Z</time>
      </trkpt>
      <trkpt lat="40.554383" lon="-5.061950">
        <ele>1318.0</ele>
        <time>2018-08-13T12:39:27Z</time>
      </trkpt>
      <trkpt lat="40.554400" lon="-5.061733">
        <ele>1320.0</ele>
        <time>2018-08-13T12:39:28Z</time>
      </trkpt>
      <trkpt lat="40.554467" lon="-5.061550">
        <ele>1322.0</ele>
        <time>2018-08-13T12:39:29Z</time>
      </trkpt>
      <trkpt lat="40.554550" lon="-5.061400">
        <ele>1326.0</ele>
        <time>2018-08-13T12:39:30Z</time>
      </trkpt>
      <trkpt lat="40.554633" lon="-5.061300">
        <ele>1331.0</ele>
        <time>2018-08-13T12:39:31Z</time>
      </trkpt>
      <trkpt lat="40.554700" lon="-5.061217">
        <ele>1335.0</ele>
        <time>2018-08-13T12:39:32Z</time>
      </trkpt>
      <trkpt lat="40.554767" lon="-5.061117">
        <ele>1338.0</ele>
        <time>2018-08-13T12:39:33Z</time>
      </trkpt>
      <trkpt lat="40.554817" lon="-5.061017">
        <ele>1338.0</ele>
        <time>2018-08-13T12:39:34Z</time>
      </trkpt>
      <trkpt lat="40.554883" lon="-5.060917">
        <ele>1338.0</ele>
        <time>2018-08-13T12:39:35Z</time>
      </trkpt>
      <trkpt lat="40.554983" lon="-5.060850">
        <ele>1336.0</ele>
        <time>2018-08-13T12:39:36Z</time>
      </trkpt>
      <trkpt lat="40.555067" lon="-5.060833">
        <ele>1335.0</ele>
        <time>2018-08-13T12:39:37Z</time>
      </trkpt>
      <trkpt lat="40.555133" lon="-5.060867">
        <ele>1335.0</ele>
        <time>2018-08-13T12:39:38Z</time>
      </trkpt>
      <trkpt lat="40.555183" lon="-5.060933">
        <ele>1336.0</ele>
        <time>2018-08-13T12:39:39Z</time>
      </trkpt>
      <trkpt lat="40.555183" lon="-5.060983">
        <ele>1338.0</ele>
        <time>2018-08-13T12:39:40Z</time>
      </trkpt>
      <trkpt lat="40.555150" lon="-5.061017">
        <ele>1340.0</ele>
        <time>2018-08-13T12:39:41Z</time>
      </trkpt>
      <trkpt lat="40.555117" lon="-5.061017">
        <ele>1341.0</ele>
        <time>2018-08-13T12:39:42Z</time>
      </trkpt>
      <trkpt lat="40.555033" lon="-5.061000">
        <ele>1341.0</ele>
        <time>2018-08-13T12:39:43Z</time>
      </trkpt>
      <trkpt lat="40.554950" lon="-5.060967">
        <ele>1340.0</ele>
        <time>2018-08-13T12:39:44Z</time>
      </trkpt>
      <trkpt lat="40.554850" lon="-5.060900">
        <ele>1340.0</ele>
        <time>2018-08-13T12:39:45Z</time>
      </trkpt>
      <trkpt lat="40.554750" lon="-5.060817">
        <ele>1341.0</ele>
        <time>2018-08-13T12:39:46Z</time>
      </trkpt>
      <trkpt lat="40.554667" lon="-5.060650">
        <ele>1342.0</ele>
        <time>2018-08-13T12:39:47Z</time>
      </trkpt>
      <trkpt lat="40.554617" lon="-5.060467">
        <ele>1343.0</ele>
        <time>2018-08-13T12:39:48Z</time>
      </trkpt>
      <trkpt lat="40.554617" lon="-5.060250">
        <ele>1345.0</ele>
        <time>2018-08-13T12:39:49Z</time>
      </trkpt>
      <trkpt lat="40.554617" lon="-5.060050">
        <ele>1349.0</ele>
        <time>2018-08-13T12:39:50Z</time>
      </trkpt>
      <trkpt lat="40.554617" lon="-5.059883">
        <ele>1354.0</ele>
        <time>2018-08-13T12:39:51Z</time>
      </trkpt>
      <trkpt lat="40.554600" lon="-5.059733">
        <ele>1357.0</ele>
        <time>2018-08-13T12:39:52Z</time>
      </trkpt>
      <trkpt lat="40.554600" lon="-5.059567">
        <ele>1359.0</ele>
        <time>2018-08-13T12:39:53Z</time>
      </trkpt>
      <trkpt lat="40.554600" lon="-5.059383">
        <ele>1359.0</ele>
        <time>2018-08-13T12:39:54Z</time>
      </trkpt>
      <trkpt lat="40.554633" lon="-5.059217">
        <ele>1360.0</ele>
        <time>2018-08-13T12:39:55Z</time>
      </trkpt>
      <trkpt lat="40.554683" lon="-5.059050">
        <ele>1359.0</ele>
        <time>2018-08-13T12:39:56Z</time>
      </trkpt>
      <trkpt lat="40.554767" lon="-5.058950">
        <ele>1359.0</ele>
        <time>2018-08-13T12:39:57Z</time>
      </trkpt>
      <trkpt lat="40.554867" lon="-5.058883">
        <ele>1359.0</ele>
        <time>2018-08-13T12:39:58Z</time>
      </trkpt>
      <trkpt lat="40.554967" lon="-5.058883">
        <ele>1359.0</ele>
        <time>2018-08-13T12:39:59Z</time>
      </trkpt>
      <trkpt lat="40.555017" lon="-5.058917">
        <ele>1360.0</ele>
        <time>2018-08-13T12:40:00Z</time>
      </trkpt>
      <trkpt lat="40.555033" lon="-5.058983">
        <ele>1362.0</ele>
        <time>2018-08-13T12:40:01Z</time>
      </trkpt>
      <trkpt lat="40.554983" lon="-5.059033">
        <ele>1362.0</ele>
        <time>2018-08-13T12:40:02Z</time>
      </trkpt>
      <trkpt lat="40.554933" lon="-5.059083">
        <ele>1363.0</ele>
        <time>2018-08-13T12:40:03Z</time>
      </trkpt>
      <trkpt lat="40.554850" lon="-5.059117">
        <ele>1363.0</ele>
        <time>2018-08-13T12:40:04Z</time>
      </trkpt>
      <trkpt lat="40.554767" lon="-5.059133">
        <ele>1363.0</ele>
        <time>2018-08-13T12:40:05Z</time>
      </trkpt>
      <trkpt lat="40.554683" lon="-5.059133">
        <ele>1365.0</ele>
        <time>2018-08-13T12:40:06Z</time>
      </trkpt>
      <trkpt lat="40.554600" lon="-5.059117">
        <ele>1367.0</ele>
        <time>2018-08-13T12:40:07Z</time>
      </trkpt>
      <trkpt lat="40.554500" lon="-5.059067">
        <ele>1368.0</ele>
        <time>2018-08-13T12:40:08Z</time>
      </trkpt>
      <trkpt lat="40.554417" lon="-5.058967">
        <ele>1369.0</ele>
        <time>2018-08-13T12:40:09Z</time>
      </trkpt>
      <trkpt lat="40.554317" lon="-5.058867">
        <ele>1370.0</ele>
        <time>2018-08-13T12:40:10Z</time>
      </trkpt>
      <trkpt lat="40.554217" lon="-5.058767">
        <ele>1372.0</ele>
        <time>2018-08-13T12:40:11Z</time>
      </trkpt>
      <trkpt lat="40.554133" lon="-5.058667">
        <ele>1374.0</ele>
        <time>2018-08-13T12:40:12Z</time>
      </trkpt>
      <trkpt lat="40.554050" lon="-5.058567">
        <ele>1375.0</ele>
        <time>2018-08-13T12:40:13Z</time>
      </trkpt>
      <trkpt lat="40.553967" lon="-5.058450">
        <ele>1376.0</ele>
        <time>2018-08-13T12:40:14Z</time>
      </trkpt>
      <trkpt lat="40.553883" lon="-5.058300">
        <ele>1376.0</ele>
        <time>2018-08-13T12:40:15Z</time>
      </trkpt>
      <trkpt lat="40.553817" lon="-5.058133">
        <ele>1375.0</ele>
        <time>2018-08-13T12:40:16Z</time>
      </trkpt>
      <trkpt lat="40.553750" lon="-5.057933">
        <ele>1375.0</ele>
        <time>2018-08-13T12:40:17Z</time>
      </trkpt>
      <trkpt lat="40.553717" lon="-5.057733">
        <ele>1376.0</ele>
        <time>2018-08-13T12:40:18Z</time>
      </trkpt>
      <trkpt lat="40.553733" lon="-5.057517">
        <ele>1376.0</ele>
        <time>2018-08-13T12:40:19Z</time>
      </trkpt>
      <trkpt lat="40.553783" lon="-5.057350">
        <ele>1377.0</ele>
        <time>2018-08-13T12:40:20Z</time>
      </trkpt>
      <trkpt lat="40.553883" lon="-5.057217">
        <ele>1376.0</ele>
        <time>2018-08-13T12:40:21Z</time>
      </trkpt>
      <trkpt lat="40.554000" lon="-5.057167">
        <ele>1377.0</ele>
        <time>2018-08-13T12:40:22Z</time>
      </trkpt>
      <trkpt lat="40.554100" lon="-5.057150">
        <ele>1379.0</ele>
        <time>2018-08-13T12:40:23Z</time>
      </trkpt>
      <trkpt lat="40.554200" lon="-5.057183">
        <ele>1382.0</ele>
        <time>2018-08-13T12:40:24Z</time>
      </trkpt>
      <trkpt lat="40.554250" lon="-5.057217">
        <ele>1387.0</ele>
        <time>2018-08-13T12:40:25Z</time>
      </trkpt>
      <trkpt lat="40.554283" lon="-5.057250">
        <ele>1390.0</ele>
        <time>2018-08-13T12:40:26Z</time>
      </trkpt>
      <trkpt lat="40.554300" lon="-5.057283">
        <ele>1392.0</ele>
        <time>2018-08-13T12:40:27Z</time>
      </trkpt>
      <trkpt lat="40.554300" lon="-5.057317">
        <ele>1392.0</ele>
        <time>2018-08-13T12:40:28Z</time>
      </trkpt>
      <trkpt lat="40.554283" lon="-5.057383">
        <ele>1392.0</ele>
        <time>2018-08-13T12:40:29Z</time>
      </trkpt>
      <trkpt lat="40.554233" lon="-5.057467">
        <ele>1392.0</ele>
        <time>2018-08-13T12:40:30Z</time>
      </trkpt>
      <trkpt lat="40.554167" lon="-5.057517">
        <ele>1394.0</ele>
        <time>2018-08-13T12:40:31Z</time>
      </trkpt>
      <trkpt lat="40.554067" lon="-5.057533">
        <ele>1396.0</ele>
        <time>2018-08-13T12:40:32Z</time>
      </trkpt>
      <trkpt lat="40.553967" lon="-5.057500">
        <ele>1398.0</ele>
        <time>2018-08-13T12:40:33Z</time>
      </trkpt>
      <trkpt lat="40.553867" lon="-5.057400">
        <ele>1400.0</ele>
        <time>2018-08-13T12:40:34Z</time>
      </trkpt>
      <trkpt lat="40.553767" lon="-5.057250">
        <ele>1400.0</ele>
        <time>2018-08-13T12:40:35Z</time>
      </trkpt>
      <trkpt lat="40.553717" lon="-5.057067">
        <ele>1400.0</ele>
        <time>2018-08-13T12:40:36Z</time>
      </trkpt>
      <trkpt lat="40.553683" lon="-5.056850">
        <ele>1400.0</ele>
        <time>2018-08-13T12:40:37Z</time>
      </trkpt>
      <trkpt lat="40.553683" lon="-5.056633">
        <ele>1400.0</ele>
        <time>2018-08-13T12:40:38Z</time>
      </trkpt>
      <trkpt lat="40.553717" lon="-5.056417">
        <ele>1402.0</ele>
        <time>2018-08-13T12:40:39Z</time>
      </trkpt>
      <trkpt lat="40.553767" lon="-5.056233">
        <ele>1405.0</ele>
        <time>2018-08-13T12:40:40Z</time>
      </trkpt>
      <trkpt lat="40.553817" lon="-5.056083">
        <ele>1408.0</ele>
        <time>2018-08-13T12:40:41Z</time>
      </trkpt>
      <trkpt lat="40.553867" lon="-5.055950">
        <ele>1411.0</ele>
        <time>2018-08-13T12:40:42Z</time>
      </trkpt>
      <trkpt lat="40.553933" lon="-5.055833">
        <ele>1413.0</ele>
        <time>2018-08-13T12:40:43Z</time>
      </trkpt>
      <trkpt lat="40.554000" lon="-5.055717">
        <ele>1414.0</ele>
        <time>2018-08-13T12:40:44Z</time>
      </trkpt>
      <trkpt lat="40.554083" lon="-5.055600">
        <ele>1414.0</ele>
        <time>2018-08-13T12:40:45Z</time>
      </trkpt>
      <trkpt lat="40.554183" lon="-5.055517">
        <ele>1415.0</ele>
        <time>2018-08-13T12:40:46Z</time>
      </trkpt>
      <trkpt lat="40.554300" lon="-5.055500">
        <ele>1416.0</ele>
        <time>2018-08-13T12:40:47Z</time>
      </trkpt>
      <trkpt lat="40.554383" lon="-5.055517">
        <ele>1418.0</ele>
        <time>2018-08-13T12:40:48Z</time>
      </trkpt>
      <trkpt lat="40.554433" lon="-5.055583">
        <ele>1422.0</ele>
        <time>2018-08-13T12:40:49Z</time>
      </trkpt>
      <trkpt lat="40.554467" lon="-5.055650">
        <ele>1425.0</ele>
        <time>2018-08-13T12:40:50Z</time>
      </trkpt>
      <trkpt lat="40.554450" lon="-5.055700">
        <ele>1429.0</ele>
        <time>2018-08-13T12:40:51Z</time>
      </trkpt>
      <trkpt lat="40.554433" lon="-5.055733">
        <ele>1431.0</ele>
        <time>2018-08-13T12:40:52Z</time>
      </trkpt>
      <trkpt lat="40.554383" lon="-5.055767">
        <ele>1431.0</ele>
        <time>2018-08-13T12:40:53Z</time>
      </trkpt>
      <trkpt lat="40.554317" lon="-5.055833">
        <ele>1431.0</ele>
        <time>2018-08-13T12:40:54Z</time>
      </trkpt>
      <trkpt lat="40.554250" lon="-5.055883">
        <ele>1431.0</ele>
        <time>2018-08-13T12:40:55Z</time>
      </trkpt>
      <trkpt lat="40.554150" lon="-5.055933">
        <ele>1434.0</ele>
        <time>2018-08-13T12:40:56Z</time>
      </trkpt>
      <trkpt lat="40.554067" lon="-5.055950">
        <ele>1437.0</ele>
        <time>2018-08-13T12:40:57Z</time>
      </trkpt>
      <trkpt lat="40.553967" lon="-5.055933">
        <ele>1439.0</ele>
        <time>2018-08-13T12:40:58Z</time>
      </trkpt>
      <trkpt lat="40.553867" lon="-5.055900">
        <ele>1441.0</ele>
        <time>2018-08-13T12:40:59Z</time>
      </trkpt>
      <trkpt lat="40.553750" lon="-5.055850">
        <ele>1442.0</ele>
        <time>2018-08-13T12:41:00Z</time>
      </trkpt>
      <trkpt lat="40.553633" lon="-5.055783">
        <ele>1443.0</ele>
        <time>2018-08-13T12:41:01Z</time>
      </trkpt>
      <trkpt lat="40.553517" lon="-5.055683">
        <ele>1444.0</ele>
        <time>2018-08-13T12:41:02Z</time>
      </trkpt>
      <trkpt lat="40.553433" lon="-5.055550">
        <ele>1446.0</ele>
        <time>2018-08-13T12:41:03Z</time>
      </trkpt>
      <trkpt lat="40.553367" lon="-5.055367">
        <ele>1446.0</ele>
        <time>2018-08-13T12:41:04Z</time>
      </trkpt>
      <trkpt lat="40.553367" lon="-5.055167">
        <ele>1446.0</ele>
        <time>2018-08-13T12:41:05Z</time>
      </trkpt>
      <trkpt lat="40.553383" lon="-5.054950">
        <ele>1446.0</ele>
        <time>2018-08-13T12:41:06Z</time>
      </trkpt>
      <trkpt lat="40.553433" lon="-5.054767">
        <ele>1448.0</ele>
        <time>2018-08-13T12:41:07Z</time>
      </trkpt>
      <trkpt lat="40.553483" lon="-5.054600">
        <ele>1451.0</ele>
        <time>2018-08-13T12:41:08Z</time>
      </trkpt>
      <trkpt lat="40.553567" lon="-5.054467">
        <ele>1453.0</ele>
        <time>2018-08-13T12:41:09Z</time>
      </trkpt>
      <trkpt lat="40.553650" lon="-5.054383">
        <ele>1455.0</ele>
        <time>2018-08-13T12:41:10Z</time>
      </trkpt>
      <trkpt lat="40.553733" lon="-5.054367">
        <ele>1457.0</ele>
        <time>2018-08-13T12:41:11Z</time>
      </trkpt>
      <trkpt lat="40.553800" lon="-5.054383">
        <ele>1458.0</ele>
        <time>2018-08-13T12:41:12Z</time>
      </trkpt>
      <trkpt lat="40.553867" lon="-5.054400">
        <ele>1461.0</ele>
        <time>2018-08-13T12:41:13Z</time>
      </trkpt>
      <trkpt lat="40.553900" lon="-5.054450">
        <ele>1463.0</ele>
        <time>2018-08-13T12:41:14Z</time>
      </trkpt>
      <trkpt lat="40.553933" lon="-5.054500">
        <ele>1465.0</ele>
        <time>2018-08-13T12:41:15Z</time>
      </trkpt>
      <trkpt lat="40.553917" lon="-5.054583">
        <ele>1466.0</ele>
        <time>2018-08-13T12:41:16Z</time>
      </trkpt>
      <trkpt lat="40.553883" lon="-5.054667">
        <ele>1468.0</ele>
        <time>2018-08-13T12:41:17Z</time>
      </trkpt>
      <trkpt lat="40.553800" lon="-5.054733">
        <ele>1470.0</ele>
        <time>2018-08-13T12:41:18Z</time>
      </trkpt>
      <trkpt lat="40.553717" lon="-5.054750">
        <ele>1474.0</ele>
        <time>2018-08-13T12:41:19Z</time>
      </trkpt>
      <trkpt lat="40.553617" lon="-5.054717">
        <ele>1476.0</ele>
        <time>2018-08-13T12:41:20Z</time>
      </trkpt>
      <trkpt lat="40.553517" lon="-5.054650">
        <ele>1478.0</ele>
        <time>2018-08-13T12:41:21Z</time>
      </trkpt>
      <trkpt lat="40.553433" lon="-5.054533">
        <ele>1478.0</ele>
        <time>2018-08-13T12:41:22Z</time>
      </trkpt>
      <trkpt lat="40.553350" lon="-5.054400">
        <ele>1477.0</ele>
        <time>2018-08-13T12:41:23Z</time>
      </trkpt>
      <trkpt lat="40.553267" lon="-5.054233">
        <ele>1475.0</ele>
        <time>2018-08-13T12:41:24Z</time>
      </trkpt>
      <trkpt lat="40.553200" lon="-5.054033">
        <ele>1474.0</ele>
        <time>2018-08-13T12:41:25Z</time>
      </trkpt>
      <trkpt lat="40.553183" lon="-5.053800">
        <ele>1475.0</ele>
        <time>2018-08-13T12:41:26Z</time>
      </trkpt>
      <trkpt lat="40.553200" lon="-5.053583">
        <ele>1477.0</ele>
        <time>2018-08-13T12:41:27Z</time>
      </trkpt>
      <trkpt lat="40.553250" lon="-5.053400">
        <ele>1480.0</ele>
        <time>2018-08-13T12:41:28Z</time>
      </trkpt>
      <trkpt lat="40.553317" lon="-5.053250">
        <ele>1485.0</ele>
        <time>2018-08-13T12:41:29Z</time>
      </trkpt>
      <trkpt lat="40.553367" lon="-5.053117">
        <ele>1490.0</ele>
        <time>2018-08-13T12:41:30Z</time>
      </trkpt>
      <trkpt lat="40.553400" lon="-5.053000">
        <ele>1496.0</ele>
        <time>2018-08-13T12:41:31Z</time>
      </trkpt>
      <trkpt lat="40.553433" lon="-5.052883">
        <ele>1499.0</ele>
        <time>2018-08-13T12:41:32Z</time>
      </trkpt>
      <trkpt lat="40.553467" lon="-5.052767">
        <ele>1501.0</ele>
        <time>2018-08-13T12:41:33Z</time>
      </trkpt>
      <trkpt lat="40.553533" lon="-5.052650">
        <ele>1501.0</ele>
        <time>2018-08-13T12:41:34Z</time>
      </trkpt>
      <trkpt lat="40.553600" lon="-5.052583">
        <ele>1501.0</ele>
        <time>2018-08-13T12:41:35Z</time>
      </trkpt>
      <trkpt lat="40.553683" lon="-5.052550">
        <ele>1502.0</ele>
        <time>2018-08-13T12:41:36Z</time>
      </trkpt>
      <trkpt lat="40.553767" lon="-5.052567">
        <ele>1504.0</ele>
        <time>2018-08-13T12:41:37Z</time>
      </trkpt>
      <trkpt lat="40.553817" lon="-5.052633">
        <ele>1506.0</ele>
        <time>2018-08-13T12:41:38Z</time>
      </trkpt>
      <trkpt lat="40.553850" lon="-5.052700">
        <ele>1510.0</ele>
        <time>2018-08-13T12:41:39Z</time>
      </trkpt>
      <trkpt lat="40.553850" lon="-5.052783">
        <ele>1514.0</ele>
        <time>2018-08-13T12:41:40Z</time>
      </trkpt>
      <trkpt lat="40.553833" lon="-5.052850">
        <ele>1519.0</ele>
        <time>2018-08-13T12:41:41Z</time>
      </trkpt>
      <trkpt lat="40.553783" lon="-5.052867">
        <ele>1523.0</ele>
        <time>2018-08-13T12:41:42Z</time>
      </trkpt>
      <trkpt lat="40.553700" lon="-5.052867">
        <ele>1525.0</ele>
        <time>2018-08-13T12:41:43Z</time>
      </trkpt>
      <trkpt lat="40.553617" lon="-5.052833">
        <ele>1526.0</ele>
        <time>2018-08-13T12:41:44Z</time>
      </trkpt>
      <trkpt lat="40.553500" lon="-5.052750">
        <ele>1525.0</ele>
        <time>2018-08-13T12:41:45Z</time>
      </trkpt>
      <trkpt lat="40.553400" lon="-5.052650">
        <ele>1524.0</ele>
        <time>2018-08-13T12:41:46Z</time>
      </trkpt>
      <trkpt lat="40.553283" lon="-5.052500">
        <ele>1524.0</ele>
        <time>2018-08-13T12:41:47Z</time>
      </trkpt>
      <trkpt lat="40.553200" lon="-5.052300">
        <ele>1524.0</ele>
        <time>2018-08-13T12:41:48Z</time>
      </trkpt>
      <trkpt lat="40.553117" lon="-5.052100">
        <ele>1526.0</ele>
        <time>2018-08-13T12:41:49Z</time>
      </trkpt>
      <trkpt lat="40.553083" lon="-5.051883">
        <ele>1529.0</ele>
        <time>2018-08-13T12:41:50Z</time>
      </trkpt>
      <trkpt lat="40.553083" lon="-5.051683">
        <ele>1532.0</ele>
        <time>2018-08-13T12:41:51Z</time>
      </trkpt>
      <trkpt lat="40.553100" lon="-5.051483">
        <ele>1534.0</ele>
        <time>2018-08-13T12:41:52Z</time>
      </trkpt>
      <trkpt lat="40.553150" lon="-5.051283">
        <ele>1536.0</ele>
        <time>2018-08-13T12:41:53Z</time>
      </trkpt>
      <trkpt lat="40.553200" lon="-5.051100">
        <ele>1539.0</ele>
        <time>2018-08-13T12:41:54Z</time>
      </trkpt>
      <trkpt lat="40.553267" lon="-5.050933">
        <ele>1543.0</ele>
        <time>2018-08-13T12:41:55Z</time>
      </trkpt>
      <trkpt lat="40.553333" lon="-5.050833">
        <ele>1547.0</ele>
        <time>2018-08-13T12:41:56Z</time>
      </trkpt>
      <trkpt lat="40.553400" lon="-5.050783">
        <ele>1548.0</ele>
        <time>2018-08-13T12:41:57Z</time>
      </trkpt>
      <trkpt lat="40.553483" lon="-5.050767">
        <ele>1548.0</ele>
        <time>2018-08-13T12:41:58Z</time>
      </trkpt>
      <trkpt lat="40.553550" lon="-5.050783">
        <ele>1549.0</ele>
        <time>2018-08-13T12:41:59Z</time>
      </trkpt>
      <trkpt lat="40.553600" lon="-5.050817">
        <ele>1552.0</ele>
        <time>2018-08-13T12:42:00Z</time>
      </trkpt>
      <trkpt lat="40.553633" lon="-5.050883">
        <ele>1556.0</ele>
        <time>2018-08-13T12:42:01Z</time>
      </trkpt>
      <trkpt lat="40.553633" lon="-5.050933">
        <ele>1560.0</ele>
        <time>2018-08-13T12:42:02Z</time>
      </trkpt>
      <trkpt lat="40.553600" lon="-5.050983">
        <ele>1564.0</ele>
        <time>2018-08-13T12:42:03Z</time>
      </trkpt>
      <trkpt lat="40.553550" lon="-5.051000">
        <ele>1568.0</ele>
        <time>2018-08-13T12:42:04Z</time>
      </trkpt>
      <trkpt lat="40.553467" lon="-5.051000">
        <ele>1572.0</ele>
        <time>2018-08-13T12:42:05Z</time>
      </trkpt>
      <trkpt lat="40.553367" lon="-5.050967">
        <ele>1573.0</ele>
        <time>2018-08-13T12:42:06Z</time>
      </trkpt>
      <trkpt lat="40.553250" lon="-5.050867">
        <ele>1573.0</ele>
        <time>2018-08-13T12:42:07Z</time>
      </trkpt>
      <trkpt lat="40.553133" lon="-5.050733">
        <ele>1573.0</ele>
        <time>2018-08-13T12:42:08Z</time>
      </trkpt>
      <trkpt lat="40.553050" lon="-5.050517">
        <ele>1573.0</ele>
        <time>2018-08-13T12:42:09Z</time>
      </trkpt>
      <trkpt lat="40.553000" lon="-5.050283">
        <ele>1576.0</ele>
        <time>2018-08-13T12:42:10Z</time>
      </trkpt>
      <trkpt lat="40.552983" lon="-5.050050">
        <ele>1581.0</ele>
        <time>2018-08-13T12:42:11Z</time>
      </trkpt>
      <trkpt lat="40.553000" lon="-5.049850">
        <ele>1586.0</ele>
        <time>2018-08-13T12:42:12Z</time>
      </trkpt>
      <trkpt lat="40.553017" lon="-5.049683">
        <ele>1591.0</ele>
        <time>2018-08-13T12:42:13Z</time>
      </trkpt>
      <trkpt lat="40.553050" lon="-5.049550">
        <ele>1594.0</ele>
        <time>2018-08-13T12:42:14Z</time>
      </trkpt>
      <trkpt lat="40.553100" lon="-5.049417">
        <ele>1596.0</ele>
        <time>2018-08-13T12:42:15Z</time>
      </trkpt>
      <trkpt lat="40.553150" lon="-5.049300">
        <ele>1598.0</ele>
        <time>2018-08-13T12:42:16Z</time>
      </trkpt>
      <trkpt lat="40.553217" lon="-5.049183">
        <ele>1599.0</ele>
        <time>2018-08-13T12:42:17Z</time>
      </trkpt>
      <trkpt lat="40.553300" lon="-5.049100">
        <ele>1600.0</ele>
        <time>2018-08-13T12:42:18Z</time>
      </trkpt>
      <trkpt lat="40.553383" lon="-5.049050">
        <ele>1602.0</ele>
        <time>2018-08-13T12:42:19Z</time>
      </trkpt>
      <trkpt lat="40.553467" lon="-5.049017">
        <ele>1606.0</ele>
        <time>2018-08-13T12:42:20Z</time>
      </trkpt>
      <trkpt lat="40.553550" lon="-5.049033">
        <ele>1610.0</ele>
        <time>2018-08-13T12:42:21Z</time>
      </trkpt>
      <trkpt lat="40.553600" lon="-5.049067">
        <ele>1615.0</ele>
        <time>2018-08-13T12:42:22Z</time>
      </trkpt>
      <trkpt lat="40.553650" lon="-5.049100">
        <ele>1619.0</ele>
        <time>2018-08-13T12:42:23Z</time>
      </trkpt>
      <trkpt lat="40.553700" lon="-5.049133">
        <ele>1623.0</ele>
        <time>2018-08-13T12:42:24Z</time>
      </trkpt>
      <trkpt lat="40.553733" lon="-5.049150">
        <ele>1628.0</ele>
        <time>2018-08-13T12:42:25Z</time>
      </trkpt>
      <trkpt lat="40.553750" lon="-5.049183">
        <ele>1632.0</ele>
        <time>2018-08-13T12:42:26Z</time>
      </trkpt>
      <trkpt lat="40.553733" lon="-5.049217">
        <ele>1635.0</ele>
        <time>2018-08-13T12:42:27Z</time>
      </trkpt>
      <trkpt lat="40.553683" lon="-5.049267">
        <ele>1637.0</ele>
        <time>2018-08-13T12:42:28Z</time>
      </trkpt>
      <trkpt lat="40.553600" lon="-5.049300">
        <ele>1640.0</ele>
        <time>2018-08-13T12:42:29Z</time>
      </trkpt>
      <trkpt lat="40.553483" lon="-5.049300">
        <ele>1642.0</ele>
        <time>2018-08-13T12:42:30Z</time>
      </trkpt>
      <trkpt lat="40.553367" lon="-5.049267">
        <ele>1645.0</ele>
        <time>2018-08-13T12:42:31Z</time>
      </trkpt>
      <trkpt lat="40.553250" lon="-5.049183">
        <ele>1648.0</ele>
        <time>2018-08-13T12:42:32Z</time>
      </trkpt>
      <trkpt lat="40.553150" lon="-5.049067">
        <ele>1650.0</ele>
        <time>2018-08-13T12:42:33Z</time>
      </trkpt>
      <trkpt lat="40.553050" lon="-5.048883">
        <ele>1651.0</ele>
        <time>2018-08-13T12:42:34Z</time>
      </trkpt>
      <trkpt lat="40.552967" lon="-5.048683">
        <ele>1653.0</ele>
        <time>2018-08-13T12:42:35Z</time>
      </trkpt>
      <trkpt lat="40.552917" lon="-5.048467">
        <ele>1655.0</ele>
        <time>2018-08-13T12:42:36Z</time>
      </trkpt>
      <trkpt lat="40.552900" lon="-5.048233">
        <ele>1658.0</ele>
        <time>2018-08-13T12:42:37Z</time>
      </trkpt>
      <trkpt lat="40.552900" lon="-5.048033">
        <ele>1662.0</ele>
        <time>2018-08-13T12:42:38Z</time>
      </trkpt>
      <trkpt lat="40.552933" lon="-5.047833">
        <ele>1665.0</ele>
        <time>2018-08-13T12:42:39Z</time>
      </trkpt>
      <trkpt lat="40.552983" lon="-5.047667">
        <ele>1669.0</ele>
        <time>2018-08-13T12:42:40Z</time>
      </trkpt>
      <trkpt lat="40.553050" lon="-5.047533">
        <ele>1672.0</ele>
        <time>2018-08-13T12:42:41Z</time>
      </trkpt>
      <trkpt lat="40.553133" lon="-5.047433">
        <ele>1676.0</ele>
        <time>2018-08-13T12:42:42Z</time>
      </trkpt>
      <trkpt lat="40.553217" lon="-5.047367">
        <ele>1680.0</ele>
        <time>2018-08-13T12:42:43Z</time>
      </trkpt>
      <trkpt lat="40.553300" lon="-5.047317">
        <ele>1684.0</ele>
        <time>2018-08-13T12:42:44Z</time>
      </trkpt>
      <trkpt lat="40.553367" lon="-5.047283">
        <ele>1688.0</ele>
        <time>2018-08-13T12:42:45Z</time>
      </trkpt>
      <trkpt lat="40.553433" lon="-5.047250">
        <ele>1691.0</ele>
        <time>2018-08-13T12:42:46Z</time>
      </trkpt>
      <trkpt lat="40.553483" lon="-5.047233">
        <ele>1694.0</ele>
        <time>2018-08-13T12:42:47Z</time>
      </trkpt>
      <trkpt lat="40.553533" lon="-5.047250">
        <ele>1696.0</ele>
        <time>2018-08-13T12:42:48Z</time>
      </trkpt>
      <trkpt lat="40.553567" lon="-5.047300">
        <ele>1698.0</ele>
        <time>2018-08-13T12:42:49Z</time>
      </trkpt>
      <trkpt lat="40.553533" lon="-5.047367">
        <ele>1702.0</ele>
        <time>2018-08-13T12:42:50Z</time>
      </trkpt>
      <trkpt lat="40.553483" lon="-5.047400">
        <ele>1706.0</ele>
        <time>2018-08-13T12:42:51Z</time>
      </trkpt>
      <trkpt lat="40.553383" lon="-5.047400">
        <ele>1710.0</ele>
        <time>2018-08-13T12:42:52Z</time>
      </trkpt>
      <trkpt lat="40.553283" lon="-5.047367">
        <ele>1714.0</ele>
        <time>2018-08-13T12:42:53Z</time>
      </trkpt>
      <trkpt lat="40.553183" lon="-5.047283">
        <ele>1718.0</ele>
        <time>2018-08-13T12:42:54Z</time>
      </trkpt>
      <trkpt lat="40.553083" lon="-5.047167">
        <ele>1721.0</ele>
        <time>2018-08-13T12:42:55Z</time>
      </trkpt>
      <trkpt lat="40.552983" lon="-5.047017">
        <ele>1723.0</ele>
        <time>2018-08-13T12:42:56Z</time>
      </trkpt>
      <trkpt lat="40.552900" lon="-5.046833">
        <ele>1725.0</ele>
        <time>2018-08-13T12:42:57Z</time>
      </trkpt>
      <trkpt lat="40.552867" lon="-5.046617">
        <ele>1727.0</ele>
        <time>2018-08-13T12:42:58Z</time>
      </trkpt>
      <trkpt lat="40.552867" lon="-5.046383">
        <ele>1728.0</ele>
        <time>2018-08-13T12:42:59Z</time>
      </trkpt>
      <trkpt lat="40.552900" lon="-5.046167">
        <ele>1730.0</ele>
        <time>2018-08-13T12:43:00Z</time>
      </trkpt>
      <trkpt lat="40.552967" lon="-5.045967">
        <ele>1733.0</ele>
        <time>2018-08-13T12:43:01Z</time>
      </trkpt>
      <trkpt lat="40.553050" lon="-5.045800">
        <ele>1737.0</ele>
        <time>2018-08-13T12:43:02Z</time>
      </trkpt>
      <trkpt lat="40.553150" lon="-5.045667">
        <ele>1742.0</ele>
        <time>2018-08-13T12:43:03Z</time>
      </trkpt>
      <trkpt lat="40.553233" lon="-5.045567">
        <ele>1747.0</ele>
        <time>2018-08-13T12:43:04Z</time>
      </trkpt>
      <trkpt lat="40.553317" lon="-5.045483">
        <ele>1752.0</ele>
        <time>2018-08-13T12:43:05Z</time>
      </trkpt>
      <trkpt lat="40.553400" lon="-5.045417">
        <ele>1756.0</ele>
        <time>2018-08-13T12:43:06Z</time>
      </trkpt>
      <trkpt lat="40.553483" lon="-5.045367">
        <ele>1759.0</ele>
        <time>2018-08-13T12:43:07Z</time>
      </trkpt>
      <trkpt lat="40.553567" lon="-5.045333">
        <ele>1761.0</ele>
        <time>2018-08-13T12:43:08Z</time>
      </trkpt>
      <trkpt lat="40.553633" lon="-5.045350">
        <ele>1763.0</ele>
        <time>2018-08-13T12:43:09Z</time>
      </trkpt>
      <trkpt lat="40.553700" lon="-5.045383">
        <ele>1765.0</ele>
        <time>2018-08-13T12:43:10Z</time>
      </trkpt>
      <trkpt lat="40.553733" lon="-5.045450">
        <ele>1768.0</ele>
        <time>2018-08-13T12:43:11Z</time>
      </trkpt>
      <trkpt lat="40.553750" lon="-5.045517">
        <ele>1771.0</ele>
        <time>2018-08-13T12:43:12Z</time>
      </trkpt>
      <trkpt lat="40.553717" lon="-5.045583">
        <ele>1775.0</ele>
        <time>2018-08-13T12:43:13Z</time>
      </trkpt>
      <trkpt lat="40.553667" lon="-5.045633">
        <ele>1778.0</ele>
        <time>2018-08-13T12:43:14Z</time>
      </trkpt>
      <trkpt lat="40.553583" lon="-5.045650">
        <ele>1782.0</ele>
        <time>2018-08-13T12:43:15Z</time>
      </trkpt>
      <trkpt lat="40.553483" lon="-5.045633">
        <ele>1784.0</ele>
        <time>2018-08-13T12:43:16Z</time>
      </trkpt>
      <trkpt lat="40.553367" lon="-5.045583">
        <ele>1789.0</ele>
        <time>2018-08-13T12:43:17Z</time>
      </trkpt>
      <trkpt lat="40.553267" lon="-5.045467">
        <ele>1793.0</ele>
        <time>2018-08-13T12:43:18Z</time>
      </trkpt>
      <trkpt lat="40.553167" lon="-5.045317">
        <ele>1798.0</ele>
        <time>2018-08-13T12:43:19Z</time>
      </trkpt>
      <trkpt lat="40.553083" lon="-5.045150">
        <ele>1804.0</ele>
        <time>2018-08-13T12:43:20Z</time>
      </trkpt>
      <trkpt lat="40.553033" lon="-5.044967">
        <ele>1808.0</ele>
        <time>2018-08-13T12:43:21Z</time>
      </trkpt>
      <trkpt lat="40.553017" lon="-5.044767">
        <ele>1811.0</ele>
        <time>2018-08-13T12:43:22Z</time>
      </trkpt>
      <trkpt lat="40.553017" lon="-5.044550">
        <ele>1813.0</ele>
        <time>2018-08-13T12:43:23Z</time>
      </trkpt>
      <trkpt lat="40.553067" lon="-5.044350">
        <ele>1815.0</ele>
        <time>2018-08-13T12:43:24Z</time>
      </trkpt>
      <trkpt lat="40.553133" lon="-5.044150">
        <ele>1819.0</ele>
        <time>2018-08-13T12:43:25Z</time>
      </trkpt>
      <trkpt lat="40.553200" lon="-5.044000">
        <ele>1824.0</ele>
        <time>2018-08-13T12:43:26Z</time>
      </trkpt>
      <trkpt lat="40.553283" lon="-5.043900">
        <ele>1828.0</ele>
        <time>2018-08-13T12:43:27Z</time>
      </trkpt>
      <trkpt lat="40.553367" lon="-5.043833">
        <ele>1831.0</ele>
        <time>2018-08-13T12:43:28Z</time>
      </trkpt>
      <trkpt lat="40.553433" lon="-5.043800">
        <ele>1833.0</ele>
        <time>2018-08-13T12:43:29Z</time>
      </trkpt>
      <trkpt lat="40.553483" lon="-5.043817">
        <ele>1835.0</ele>
        <time>2018-08-13T12:43:30Z</time>
      </trkpt>
      <trkpt lat="40.553533" lon="-5.043867">
        <ele>1837.0</ele>
        <time>2018-08-13T12:43:31Z</time>
      </trkpt>
      <trkpt lat="40.553517" lon="-5.043933">
        <ele>1840.0</ele>
        <time>2018-08-13T12:43:32Z</time>
      </trkpt>
      <trkpt lat="40.553450" lon="-5.043983">
        <ele>1842.0</ele>
        <time>2018-08-13T12:43:33Z</time>
      </trkpt>
      <trkpt lat="40.553350" lon="-5.043967">
        <ele>1844.0</ele>
        <time>2018-08-13T12:43:34Z</time>
      </trkpt>
      <trkpt lat="40.553217" lon="-5.043883">
        <ele>1847.0</ele>
        <time>2018-08-13T12:43:35Z</time>
      </trkpt>
      <trkpt lat="40.553100" lon="-5.043733">
        <ele>1851.0</ele>
        <time>2018-08-13T12:43:36Z</time>
      </trkpt>
      <trkpt lat="40.553017" lon="-5.043550">
        <ele>1857.0</ele>
        <time>2018-08-13T12:43:37Z</time>
      </trkpt>
      <trkpt lat="40.552950" lon="-5.043383">
        <ele>1863.0</ele>
        <time>2018-08-13T12:43:38Z</time>
      </trkpt>
      <trkpt lat="40.552900" lon="-5.043200">
        <ele>1868.0</ele>
        <time>2018-08-13T12:43:39Z</time>
      </trkpt>
      <trkpt lat="40.552850" lon="-5.043033">
        <ele>1871.0</ele>
        <time>2018-08-13T12:43:40Z</time>
      </trkpt>
      <trkpt lat="40.552817" lon="-5.042850">
        <ele>1873.0</ele>
        <time>2018-08-13T12:43:41Z</time>
      </trkpt>
      <trkpt lat="40.552783" lon="-5.042650">
        <ele>1875.0</ele>
        <time>2018-08-13T12:43:42Z</time>
      </trkpt>
      <trkpt lat="40.552750" lon="-5.042433">
        <ele>1878.0</ele>
        <time>2018-08-13T12:43:43Z</time>
      </trkpt>
      <trkpt lat="40.552767" lon="-5.042217">
        <ele>1880.0</ele>
        <time>2018-08-13T12:43:44Z</time>
      </trkpt>
      <trkpt lat="40.552783" lon="-5.042000">
        <ele>1883.0</ele>
        <time>2018-08-13T12:43:45Z</time>
      </trkpt>
      <trkpt lat="40.552833" lon="-5.041800">
        <ele>1888.0</ele>
        <time>2018-08-13T12:43:46Z</time>
      </trkpt>
      <trkpt lat="40.552883" lon="-5.041633">
        <ele>1893.0</ele>
        <time>2018-08-13T12:43:47Z</time>
      </trkpt>
      <trkpt lat="40.552950" lon="-5.041500">
        <ele>1897.0</ele>
        <time>2018-08-13T12:43:48Z</time>
      </trkpt>
      <trkpt lat="40.553033" lon="-5.041383">
        <ele>1900.0</ele>
        <time>2018-08-13T12:43:49Z</time>
      </trkpt>
      <trkpt lat="40.553100" lon="-5.041300">
        <ele>1903.0</ele>
        <time>2018-08-13T12:43:50Z</time>
      </trkpt>
      <trkpt lat="40.553183" lon="-5.041233">
        <ele>1905.0</ele>
        <time>2018-08-13T12:43:51Z</time>
      </trkpt>
      <trkpt lat="40.553283" lon="-5.041200">
        <ele>1906.0</ele>
        <time>2018-08-13T12:43:52Z</time>
      </trkpt>
      <trkpt lat="40.553350" lon="-5.041200">
        <ele>1908.0</ele>
        <time>2018-08-13T12:43:53Z</time>
      </trkpt>
      <trkpt lat="40.553400" lon="-5.041233">
        <ele>1910.0</ele>
        <time>2018-08-13T12:43:54Z</time>
      </trkpt>
      <trkpt lat="40.553433" lon="-5.041283">
        <ele>1912.0</ele>
        <time>2018-08-13T12:43:55Z</time>
      </trkpt>
      <trkpt lat="40.553433" lon="-5.041350">
        <ele>1914.0</ele>
        <time>2018-08-13T12:43:56Z</time>
      </trkpt>
      <trkpt lat="40.553383" lon="-5.041417">
        <ele>1917.0</ele>
        <time>2018-08-13T12:43:57Z</time>
      </trkpt>
      <trkpt lat="40.553333" lon="-5.041450">
        <ele>1922.0</ele>
        <time>2018-08-13T12:43:58Z</time>
      </trkpt>
      <trkpt lat="40.553267" lon="-5.041450">
        <ele>1926.0</ele>
        <time>2018-08-13T12:43:59Z</time>
      </trkpt>
      <trkpt lat="40.553183" lon="-5.041417">
        <ele>1931.0</ele>
        <time>2018-08-13T12:44:00Z</time>
      </trkpt>
      <trkpt lat="40.553100" lon="-5.041367">
        <ele>1934.0</ele>
        <time>2018-08-13T12:44:01Z</time>
      </trkpt>
      <trkpt lat="40.553017" lon="-5.041283">
        <ele>1938.0</ele>
        <time>2018-08-13T12:44:02Z</time>
      </trkpt>
      <trkpt lat="40.552917" lon="-5.041183">
        <ele>1941.0</ele>
        <time>2018-08-13T12:44:03Z</time>
      </trkpt>
      <trkpt lat="40.552833" lon="-5.041050">
        <ele>1944.0</ele>
        <time>2018-08-13T12:44:04Z</time>
      </trkpt>
      <trkpt lat="40.552733" lon="-5.040900">
        <ele>1948.0</ele>
        <time>2018-08-13T12:44:05Z</time>
      </trkpt>
      <trkpt lat="40.552667" lon="-5.040717">
        <ele>1952.0</ele>
        <time>2018-08-13T12:44:06Z</time>
      </trkpt>
      <trkpt lat="40.552633" lon="-5.040533">
        <ele>1956.0</ele>
        <time>2018-08-13T12:44:07Z</time>
      </trkpt>
      <trkpt lat="40.552600" lon="-5.040350">
        <ele>1958.0</ele>
        <time>2018-08-13T12:44:08Z</time>
      </trkpt>
      <trkpt lat="40.552600" lon="-5.040150">
        <ele>1960.0</ele>
        <time>2018-08-13T12:44:09Z</time>
      </trkpt>
      <trkpt lat="40.552633" lon="-5.039950">
        <ele>1962.0</ele>
        <time>2018-08-13T12:44:10Z</time>
      </trkpt>
      <trkpt lat="40.552700" lon="-5.039767">
        <ele>1964.0</ele>
        <time>2018-08-13T12:44:11Z</time>
      </trkpt>
      <trkpt lat="40.552767" lon="-5.039600">
        <ele>1966.0</ele>
        <time>2018-08-13T12:44:12Z</time>
      </trkpt>
      <trkpt lat="40.552867" lon="-5.039483">
        <ele>1968.0</ele>
        <time>2018-08-13T12:44:13Z</time>
      </trkpt>
      <trkpt lat="40.552950" lon="-5.039417">
        <ele>1971.0</ele>
        <time>2018-08-13T12:44:14Z</time>
      </trkpt>
      <trkpt lat="40.553050" lon="-5.039367">
        <ele>1973.0</ele>
        <time>2018-08-13T12:44:15Z</time>
      </trkpt>
      <trkpt lat="40.553133" lon="-5.039333">
        <ele>1975.0</ele>
        <time>2018-08-13T12:44:16Z</time>
      </trkpt>
      <trkpt lat="40.553183" lon="-5.039333">
        <ele>1976.0</ele>
        <time>2018-08-13T12:44:17Z</time>
      </trkpt>
      <trkpt lat="40.553233" lon="-5.039367">
        <ele>1978.0</ele>
        <time>2018-08-13T12:44:18Z</time>
      </trkpt>
      <trkpt lat="40.553267" lon="-5.039433">
        <ele>1980.0</ele>
        <time>2018-08-13T12:44:19Z</time>
      </trkpt>
      <trkpt lat="40.553267" lon="-5.039483">
        <ele>1982.0</ele>
        <time>2018-08-13T12:44:20Z</time>
      </trkpt>
      <trkpt lat="40.553250" lon="-5.039533">
        <ele>1984.0</ele>
        <time>2018-08-13T12:44:21Z</time>
      </trkpt>
      <trkpt lat="40.553217" lon="-5.039567">
        <ele>1986.0</ele>
        <time>2018-08-13T12:44:22Z</time>
      </trkpt>
      <trkpt lat="40.553167" lon="-5.039600">
        <ele>1989.0</ele>
        <time>2018-08-13T12:44:23Z</time>
      </trkpt>
      <trkpt lat="40.553100" lon="-5.039617">
        <ele>1991.0</ele>
        <time>2018-08-13T12:44:24Z</time>
      </trkpt>
      <trkpt lat="40.553000" lon="-5.039600">
        <ele>1994.0</ele>
        <time>2018-08-13T12:44:25Z</time>
      </trkpt>
      <trkpt lat="40.552900" lon="-5.039550">
        <ele>1997.0</ele>
        <time>2018-08-13T12:44:26Z</time>
      </trkpt>
      <trkpt lat="40.552800" lon="-5.039483">
        <ele>2001.0</ele>
        <time>2018-08-13T12:44:27Z</time>
      </trkpt>
      <trkpt lat="40.552700" lon="-5.039400">
        <ele>2005.0</ele>
        <time>2018-08-13T12:44:28Z</time>
      </trkpt>
      <trkpt lat="40.552617" lon="-5.039317">
        <ele>2009.0</ele>
        <time>2018-08-13T12:44:29Z</time>
      </trkpt>
      <trkpt lat="40.552533" lon="-5.039183">
        <ele>2013.0</ele>
        <time>2018-08-13T12:44:30Z</time>
      </trkpt>
      <trkpt lat="40.552467" lon="-5.039033">
        <ele>2016.0</ele>
        <time>2018-08-13T12:44:31Z</time>
      </trkpt>
      <trkpt lat="40.552417" lon="-5.038867">
        <ele>2018.0</ele>
        <time>2018-08-13T12:44:32Z</time>
      </trkpt>
      <trkpt lat="40.552383" lon="-5.038650">
        <ele>2020.0</ele>
        <time>2018-08-13T12:44:33Z</time>
      </trkpt>
      <trkpt lat="40.552383" lon="-5.038433">
        <ele>2023.0</ele>
        <time>2018-08-13T12:44:34Z</time>
      </trkpt>
      <trkpt lat="40.552417" lon="-5.038233">
        <ele>2026.0</ele>
        <time>2018-08-13T12:44:35Z</time>
      </trkpt>
      <trkpt lat="40.552467" lon="-5.038067">
        <ele>2029.0</ele>
        <time>2018-08-13T12:44:36Z</time>
      </trkpt>
      <trkpt lat="40.552533" lon="-5.037900">
        <ele>2031.0</ele>
        <time>2018-08-13T12:44:37Z</time>
      </trkpt>
      <trkpt lat="40.552617" lon="-5.037783">
        <ele>2034.0</ele>
        <time>2018-08-13T12:44:38Z</time>
      </trkpt>
      <trkpt lat="40.552700" lon="-5.037700">
        <ele>2036.0</ele>
        <time>2018-08-13T12:44:39Z</time>
      </trkpt>
      <trkpt lat="40.552800" lon="-5.037650">
        <ele>2038.0</ele>
        <time>2018-08-13T12:44:40Z</time>
      </trkpt>
      <trkpt lat="40.552867" lon="-5.037633">
        <ele>2039.0</ele>
        <time>2018-08-13T12:44:41Z</time>
      </trkpt>
      <trkpt lat="40.552933" lon="-5.037667">
        <ele>2039.0</ele>
        <time>2018-08-13T12:44:42Z</time>
      </trkpt>
      <trkpt lat="40.552967" lon="-5.037700">
        <ele>2040.0</ele>
        <time>2018-08-13T12:44:43Z</time>
      </trkpt>
      <trkpt lat="40.552983" lon="-5.037767">
        <ele>2041.0</ele>
        <time>2018-08-13T12:44:44Z</time>
      </trkpt>
      <trkpt lat="40.552967" lon="-5.037833">
        <ele>2043.0</ele>
        <time>2018-08-13T12:44:45Z</time>
      </trkpt>
      <trkpt lat="40.552917" lon="-5.037867">
        <ele>2045.0</ele>
        <time>2018-08-13T12:44:46Z</time>
      </trkpt>
      <trkpt lat="40.552850" lon="-5.037900">
        <ele>2048.0</ele>
        <time>2018-08-13T12:44:47Z</time>
      </trkpt>
      <trkpt lat="40.552750" lon="-5.037900">
        <ele>2051.0</ele>
        <time>2018-08-13T12:44:48Z</time>
      </trkpt>
      <trkpt lat="40.552667" lon="-5.037867">
        <ele>2054.0</ele>
        <time>2018-08-13T12:44:49Z</time>
      </trkpt>
      <trkpt lat="40.552567" lon="-5.037817">
        <ele>2057.0</ele>
        <time>2018-08-13T12:44:50Z</time>
      </trkpt>
      <trkpt lat="40.552467" lon="-5.037750">
        <ele>2060.0</ele>
        <time>2018-08-13T12:44:51Z</time>
      </trkpt>
      <trkpt lat="40.552367" lon="-5.037667">
        <ele>2063.0</ele>
        <time>2018-08-13T12:44:52Z</time>
      </trkpt>
      <trkpt lat="40.552283" lon="-5.037583">
        <ele>2066.0</ele>
        <time>2018-08-13T12:44:53Z</time>
      </trkpt>
      <trkpt lat="40.552183" lon="-5.037483">
        <ele>2069.0</ele>
        <time>2018-08-13T12:44:54Z</time>
      </trkpt>
      <trkpt lat="40.552083" lon="-5.037367">
        <ele>2072.0</ele>
        <time>2018-08-13T12:44:55Z</time>
      </trkpt>
      <trkpt lat="40.551983" lon="-5.037250">
        <ele>2075.0</ele>
        <time>2018-08-13T12:44:56Z</time>
      </trkpt>
      <trkpt lat="40.551900" lon="-5.037133">
        <ele>2078.0</ele>
        <time>2018-08-13T12:44:57Z</time>
      </trkpt>
      <trkpt lat="40.551800" lon="-5.037000">
        <ele>2080.0</ele>
        <time>2018-08-13T12:44:58Z</time>
      </trkpt>
      <trkpt lat="40.551733" lon="-5.036850">
        <ele>2082.0</ele>
        <time>2018-08-13T12:44:59Z</time>
      </trkpt>
      <trkpt lat="40.551683" lon="-5.036667">
        <ele>2083.0</ele>
        <time>2018-08-13T12:45:00Z</time>
      </trkpt>
      <trkpt lat="40.551650" lon="-5.036450">
        <ele>2084.0</ele>
        <time>2018-08-13T12:45:01Z</time>
      </trkpt>
      <trkpt lat="40.551633" lon="-5.036250">
        <ele>2086.0</ele>
        <time>2018-08-13T12:45:02Z</time>
      </trkpt>
      <trkpt lat="40.551633" lon="-5.036033">
        <ele>2089.0</ele>
        <time>2018-08-13T12:45:03Z</time>
      </trkpt>
      <trkpt lat="40.551667" lon="-5.035833">
        <ele>2091.0</ele>
        <time>2018-08-13T12:45:04Z</time>
      </trkpt>
      <trkpt lat="40.551700" lon="-5.035633">
        <ele>2093.0</ele>
        <time>2018-08-13T12:45:05Z</time>
      </trkpt>
      <trkpt lat="40.551767" lon="-5.035467">
        <ele>2095.0</ele>
        <time>2018-08-13T12:45:06Z</time>
      </trkpt>
      <trkpt lat="40.551833" lon="-5.035317">
        <ele>2097.0</ele>
        <time>2018-08-13T12:45:07Z</time>
      </trkpt>
      <trkpt lat="40.551900" lon="-5.035183">
        <ele>2098.0</ele>
        <time>2018-08-13T12:45:08Z</time>
      </trkpt>
      <trkpt lat="40.552000" lon="-5.035083">
        <ele>2098.0</ele>
        <time>2018-08-13T12:45:09Z</time>
      </trkpt>
      <trkpt lat="40.552083" lon="-5.035017">
        <ele>2098.0</ele>
        <time>2018-08-13T12:45:10Z</time>
      </trkpt>
      <trkpt lat="40.552167" lon="-5.034983">
        <ele>2098.0</ele>
        <time>2018-08-13T12:45:11Z</time>
      </trkpt>
      <trkpt lat="40.552267" lon="-5.034967">
        <ele>2098.0</ele>
        <time>2018-08-13T12:45:12Z</time>
      </trkpt>
      <trkpt lat="40.552333" lon="-5.035000">
        <ele>2100.0</ele>
        <time>2018-08-13T12:45:13Z</time>
      </trkpt>
      <trkpt lat="40.552400" lon="-5.035033">
        <ele>2103.0</ele>
        <time>2018-08-13T12:45:14Z</time>
      </trkpt>
      <trkpt lat="40.552450" lon="-5.035067">
        <ele>2106.0</ele>
        <time>2018-08-13T12:45:15Z</time>
      </trkpt>
      <trkpt lat="40.552467" lon="-5.035100">
        <ele>2108.0</ele>
        <time>2018-08-13T12:45:16Z</time>
      </trkpt>
      <trkpt lat="40.552450" lon="-5.035133">
        <ele>2109.0</ele>
        <time>2018-08-13T12:45:17Z</time>
      </trkpt>
      <trkpt lat="40.552417" lon="-5.035150">
        <ele>2109.0</ele>
        <time>2018-08-13T12:45:18Z</time>
      </trkpt>
      <trkpt lat="40.552367" lon="-5.035183">
        <ele>2108.0</ele>
        <time>2018-08-13T12:45:19Z</time>
      </trkpt>
      <trkpt lat="40.552300" lon="-5.035200">
        <ele>2108.0</ele>
        <time>2018-08-13T12:45:20Z</time>
      </trkpt>
      <trkpt lat="40.552217" lon="-5.035217">
        <ele>2109.0</ele>
        <time>2018-08-13T12:45:21Z</time>
      </trkpt>
      <trkpt lat="40.552117" lon="-5.035200">
        <ele>2110.0</ele>
        <time>2018-08-13T12:45:22Z</time>
      </trkpt>
      <trkpt lat="40.552017" lon="-5.035167">
        <ele>2111.0</ele>
        <time>2018-08-13T12:45:23Z</time>
      </trkpt>
      <trkpt lat="40.551933" lon="-5.035117">
        <ele>2112.0</ele>
        <time>2018-08-13T12:45:24Z</time>
      </trkpt>
      <trkpt lat="40.551833" lon="-5.035033">
        <ele>2114.0</ele>
        <time>2018-08-13T12:45:25Z</time>
      </trkpt>
      <trkpt lat="40.551750" lon="-5.034967">
        <ele>2114.0</ele>
        <time>2018-08-13T12:45:26Z</time>
      </trkpt>
      <trkpt lat="40.551650" lon="-5.034883">
        <ele>2114.0</ele>
        <time>2018-08-13T12:45:27Z</time>
      </trkpt>
      <trkpt lat="40.551550" lon="-5.034783">
        <ele>2115.0</ele>
        <time>2018-08-13T12:45:28Z</time>
      </trkpt>
      <trkpt lat="40.551450" lon="-5.034667">
        <ele>2116.0</ele>
        <time>2018-08-13T12:45:29Z</time>
      </trkpt>
      <trkpt lat="40.551350" lon="-5.034517">
        <ele>2117.0</ele>
        <time>2018-08-13T12:45:30Z</time>
      </trkpt>
      <trkpt lat="40.551267" lon="-5.034367">
        <ele>2119.0</ele>
        <time>2018-08-13T12:45:31Z</time>
      </trkpt>
      <trkpt lat="40.551200" lon="-5.034217">
        <ele>2121.0</ele>
        <time>2018-08-13T12:45:32Z</time>
      </trkpt>
      <trkpt lat="40.551133" lon="-5.034067">
        <ele>2122.0</ele>
        <time>2018-08-13T12:45:33Z</time>
      </trkpt>
      <trkpt lat="40.551067" lon="-5.033900">
        <ele>2122.0</ele>
        <time>2018-08-13T12:45:34Z</time>
      </trkpt>
      <trkpt lat="40.551017" lon="-5.033700">
        <ele>2122.0</ele>
        <time>2018-08-13T12:45:35Z</time>
      </trkpt>
      <trkpt lat="40.550983" lon="-5.033483">
        <ele>2122.0</ele>
        <time>2018-08-13T12:45:36Z</time>
      </trkpt>
      <trkpt lat="40.550967" lon="-5.033267">
        <ele>2123.0</ele>
        <time>2018-08-13T12:45:37Z</time>
      </trkpt>
      <trkpt lat="40.550983" lon="-5.033050">
        <ele>2125.0</ele>
        <time>2018-08-13T12:45:38Z</time>
      </trkpt>
      <trkpt lat="40.551000" lon="-5.032833">
        <ele>2127.0</ele>
        <time>2018-08-13T12:45:39Z</time>
      </trkpt>
      <trkpt lat="40.551017" lon="-5.032633">
        <ele>2129.0</ele>
        <time>2018-08-13T12:45:40Z</time>
      </trkpt>
      <trkpt lat="40.551050" lon="-5.032467">
        <ele>2131.0</ele>
        <time>2018-08-13T12:45:41Z</time>
      </trkpt>
      <trkpt lat="40.551100" lon="-5.032300">
        <ele>2133.0</ele>
        <time>2018-08-13T12:45:42Z</time>
      </trkpt>
      <trkpt lat="40.551167" lon="-5.032150">
        <ele>2134.0</ele>
        <time>2018-08-13T12:45:43Z</time>
      </trkpt>
      <trkpt lat="40.551233" lon="-5.032000">
        <ele>2133.0</ele>
        <time>2018-08-13T12:45:44Z</time>
      </trkpt>
      <trkpt lat="40.551300" lon="-5.031883">
        <ele>2133.0</ele>
        <time>2018-08-13T12:45:45Z</time>
      </trkpt>
      <trkpt lat="40.551383" lon="-5.031767">
        <ele>2133.0</ele>
        <time>2018-08-13T12:45:46Z</time>
      </trkpt>
      <trkpt lat="40.551467" lon="-5.031667">
        <ele>2132.0</ele>
        <time>2018-08-13T12:45:47Z</time>
      </trkpt>
      <trkpt lat="40.551550" lon="-5.031600">
        <ele>2131.0</ele>
        <time>2018-08-13T12:45:48Z</time>
      </trkpt>
      <trkpt lat="40.551617" lon="-5.031550">
        <ele>2130.0</ele>
        <time>2018-08-13T12:45:49Z</time>
      </trkpt>
      <trkpt lat="40.551683" lon="-5.031517">
        <ele>2128.0</ele>
        <time>2018-08-13T12:45:50Z</time>
      </trkpt>
      <trkpt lat="40.551750" lon="-5.031500">
        <ele>2126.0</ele>
        <time>2018-08-13T12:45:51Z</time>
      </trkpt>
      <trkpt lat="40.551800" lon="-5.031517">
        <ele>2123.0</ele>
        <time>2018-08-13T12:45:52Z</time>
      </trkpt>
      <trkpt lat="40.551850" lon="-5.031567">
        <ele>2122.0</ele>
        <time>2018-08-13T12:45:53Z</time>
      </trkpt>
      <trkpt lat="40.551883" lon="-5.031617">
        <ele>2121.0</ele>
        <time>2018-08-13T12:45:54Z</time>
      </trkpt>
      <trkpt lat="40.551883" lon="-5.031667">
        <ele>2122.0</ele>
        <time>2018-08-13T12:45:55Z</time>
      </trkpt>
      <trkpt lat="40.551867" lon="-5.031733">
        <ele>2124.0</ele>
        <time>2018-08-13T12:45:56Z</time>
      </trkpt>
      <trkpt lat="40.551833" lon="-5.031767">
        <ele>2126.0</ele>
        <time>2018-08-13T12:45:57Z</time>
      </trkpt>
      <trkpt lat="40.551783" lon="-5.031783">
        <ele>2128.0</ele>
        <time>2018-08-13T12:45:58Z</time>
      </trkpt>
      <trkpt lat="40.551733" lon="-5.031783">
        <ele>2130.0</ele>
        <time>2018-08-13T12:45:59Z</time>
      </trkpt>
      <trkpt lat="40.551667" lon="-5.031800">
        <ele>2131.0</ele>
        <time>2018-08-13T12:46:00Z</time>
      </trkpt>
      <trkpt lat="40.551600" lon="-5.031817">
        <ele>2130.0</ele>
        <time>2018-08-13T12:46:01Z</time>
      </trkpt>
      <trkpt lat="40.551517" lon="-5.031817">
        <ele>2130.0</ele>
        <time>2018-08-13T12:46:02Z</time>
      </trkpt>
      <trkpt lat="40.551417" lon="-5.031800">
        <ele>2130.0</ele>
        <time>2018-08-13T12:46:03Z</time>
      </trkpt>
      <trkpt lat="40.551317" lon="-5.031767">
        <ele>2130.0</ele>
        <time>2018-08-13T12:46:04Z</time>
      </trkpt>
      <trkpt lat="40.551200" lon="-5.031717">
        <ele>2131.0</ele>
        <time>2018-08-13T12:46:05Z</time>
      </trkpt>
      <trkpt lat="40.551100" lon="-5.031667">
        <ele>2132.0</ele>
        <time>2018-08-13T12:46:06Z</time>
      </trkpt>
      <trkpt lat="40.550983" lon="-5.031600">
        <ele>2134.0</ele>
        <time>2018-08-13T12:46:07Z</time>
      </trkpt>
      <trkpt lat="40.550883" lon="-5.031533">
        <ele>2136.0</ele>
        <time>2018-08-13T12:46:08Z</time>
      </trkpt>
      <trkpt lat="40.550783" lon="-5.031450">
        <ele>2137.0</ele>
        <time>2018-08-13T12:46:09Z</time>
      </trkpt>
      <trkpt lat="40.550683" lon="-5.031350">
        <ele>2138.0</ele>
        <time>2018-08-13T12:46:10Z</time>
      </trkpt>
      <trkpt lat="40.550583" lon="-5.031250">
        <ele>2138.0</ele>
        <time>2018-08-13T12:46:11Z</time>
      </trkpt>
      <trkpt lat="40.550483" lon="-5.031150">
        <ele>2139.0</ele>
        <time>2018-08-13T12:46:12Z</time>
      </trkpt>
      <trkpt lat="40.550383" lon="-5.031050">
        <ele>2139.0</ele>
        <time>2018-08-13T12:46:13Z</time>
      </trkpt>
      <trkpt lat="40.550283" lon="-5.030917">
        <ele>2140.0</ele>
        <time>2018-08-13T12:46:14Z</time>
      </trkpt>
      <trkpt lat="40.550200" lon="-5.030800">
        <ele>2141.0</ele>
        <time>2018-08-13T12:46:15Z</time>
      </trkpt>
      <trkpt lat="40.550117" lon="-5.030650">
        <ele>2142.0</ele>
        <time>2018-08-13T12:46:16Z</time>
      </trkpt>
      <trkpt lat="40.550033" lon="-5.030483">
        <ele>2143.0</ele>
        <time>2018-08-13T12:46:17Z</time>
      </trkpt>
      <trkpt lat="40.549983" lon="-5.030317">
        <ele>2143.0</ele>
        <time>2018-08-13T12:46:18Z</time>
      </trkpt>
      <trkpt lat="40.549933" lon="-5.030133">
        <ele>2144.0</ele>
        <time>2018-08-13T12:46:19Z</time>
      </trkpt>
      <trkpt lat="40.549883" lon="-5.029950">
        <ele>2144.0</ele>
        <time>2018-08-13T12:46:20Z</time>
      </trkpt>
      <trkpt lat="40.549867" lon="-5.029767">
        <ele>2144.0</ele>
        <time>2018-08-13T12:46:21Z</time>
      </trkpt>
      <trkpt lat="40.549850" lon="-5.029567">
        <ele>2143.0</ele>
        <time>2018-08-13T12:46:22Z</time>
      </trkpt>
      <trkpt lat="40.549850" lon="-5.029383">
        <ele>2143.0</ele>
        <time>2018-08-13T12:46:23Z</time>
      </trkpt>
      <trkpt lat="40.549883" lon="-5.029200">
        <ele>2141.0</ele>
        <time>2018-08-13T12:46:24Z</time>
      </trkpt>
      <trkpt lat="40.549917" lon="-5.029033">
        <ele>2139.0</ele>
        <time>2018-08-13T12:46:25Z</time>
      </trkpt>
      <trkpt lat="40.549983" lon="-5.028867">
        <ele>2137.0</ele>
        <time>2018-08-13T12:46:26Z</time>
      </trkpt>
      <trkpt lat="40.550050" lon="-5.028733">
        <ele>2135.0</ele>
        <time>2018-08-13T12:46:27Z</time>
      </trkpt>
      <trkpt lat="40.550133" lon="-5.028633">
        <ele>2133.0</ele>
        <time>2018-08-13T12:46:28Z</time>
      </trkpt>
      <trkpt lat="40.550217" lon="-5.028567">
        <ele>2130.0</ele>
        <time>2018-08-13T12:46:29Z</time>
      </trkpt>
      <trkpt lat="40.550300" lon="-5.028533">
        <ele>2128.0</ele>
        <time>2018-08-13T12:46:30Z</time>
      </trkpt>
      <trkpt lat="40.550383" lon="-5.028517">
        <ele>2127.0</ele>
        <time>2018-08-13T12:46:31Z</time>
      </trkpt>
      <trkpt lat="40.550450" lon="-5.028517">
        <ele>2126.0</ele>
        <time>2018-08-13T12:46:32Z</time>
      </trkpt>
      <trkpt lat="40.550500" lon="-5.028567">
        <ele>2127.0</ele>
        <time>2018-08-13T12:46:33Z</time>
      </trkpt>
      <trkpt lat="40.550517" lon="-5.028617">
        <ele>2126.0</ele>
        <time>2018-08-13T12:46:34Z</time>
      </trkpt>
      <trkpt lat="40.550533" lon="-5.028683">
        <ele>2126.0</ele>
        <time>2018-08-13T12:46:35Z</time>
      </trkpt>
      <trkpt lat="40.550533" lon="-5.028733">
        <ele>2126.0</ele>
        <time>2018-08-13T12:46:36Z</time>
      </trkpt>
      <trkpt lat="40.550500" lon="-5.028800">
        <ele>2127.0</ele>
        <time>2018-08-13T12:46:37Z</time>
      </trkpt>
      <trkpt lat="40.550433" lon="-5.028850">
        <ele>2128.0</ele>
        <time>2018-08-13T12:46:38Z</time>
      </trkpt>
      <trkpt lat="40.550367" lon="-5.028867">
        <ele>2129.0</ele>
        <time>2018-08-13T12:46:39Z</time>
      </trkpt>
      <trkpt lat="40.550300" lon="-5.028883">
        <ele>2129.0</ele>
        <time>2018-08-13T12:46:40Z</time>
      </trkpt>
      <trkpt lat="40.550217" lon="-5.028900">
        <ele>2129.0</ele>
        <time>2018-08-13T12:46:41Z</time>
      </trkpt>
      <trkpt lat="40.550117" lon="-5.028900">
        <ele>2129.0</ele>
        <time>2018-08-13T12:46:42Z</time>
      </trkpt>
      <trkpt lat="40.550017" lon="-5.028867">
        <ele>2129.0</ele>
        <time>2018-08-13T12:46:43Z</time>
      </trkpt>
      <trkpt lat="40.549917" lon="-5.028833">
        <ele>2128.0</ele>
        <time>2018-08-13T12:46:44Z</time>
      </trkpt>
      <trkpt lat="40.549833" lon="-5.028767">
        <ele>2128.0</ele>
        <time>2018-08-13T12:46:45Z</time>
      </trkpt>
      <trkpt lat="40.549733" lon="-5.028700">
        <ele>2127.0</ele>
        <time>2018-08-13T12:46:46Z</time>
      </trkpt>
      <trkpt lat="40.549633" lon="-5.028633">
        <ele>2126.0</ele>
        <time>2018-08-13T12:46:47Z</time>
      </trkpt>
      <trkpt lat="40.549550" lon="-5.028550">
        <ele>2125.0</ele>
        <time>2018-08-13T12:46:48Z</time>
      </trkpt>
      <trkpt lat="40.549433" lon="-5.028467">
        <ele>2123.0</ele>
        <time>2018-08-13T12:46:49Z</time>
      </trkpt>
      <trkpt lat="40.549333" lon="-5.028333">
        <ele>2121.0</ele>
        <time>2018-08-13T12:46:50Z</time>
      </trkpt>
      <trkpt lat="40.549250" lon="-5.028183">
        <ele>2120.0</ele>
        <time>2018-08-13T12:46:51Z</time>
      </trkpt>
      <trkpt lat="40.549150" lon="-5.028033">
        <ele>2119.0</ele>
        <time>2018-08-13T12:46:52Z</time>
      </trkpt>
      <trkpt lat="40.549083" lon="-5.027883">
        <ele>2119.0</ele>
        <time>2018-08-13T12:46:53Z</time>
      </trkpt>
      <trkpt lat="40.549000" lon="-5.027717">
        <ele>2117.0</ele>
        <time>2018-08-13T12:46:54Z</time>
      </trkpt>
      <trkpt lat="40.548933" lon="-5.027550">
        <ele>2116.0</ele>
        <time>2018-08-13T12:46:55Z</time>
      </trkpt>
      <trkpt lat="40.548867" lon="-5.027367">
        <ele>2114.0</ele>
        <time>2018-08-13T12:46:56Z</time>
      </trkpt>
      <trkpt lat="40.548817" lon="-5.027167">
        <ele>2113.0</ele>
        <time>2018-08-13T12:46:57Z</time>
      </trkpt>
      <trkpt lat="40.548767" lon="-5.026983">
        <ele>2110.0</ele>
        <time>2018-08-13T12:46:58Z</time>
      </trkpt>
      <trkpt lat="40.548750" lon="-5.026783">
        <ele>2107.0</ele>
        <time>2018-08-13T12:46:59Z</time>
      </trkpt>
      <trkpt lat="40.548733" lon="-5.026583">
        <ele>2102.0</ele>
        <time>2018-08-13T12:47:00Z</time>
      </trkpt>
      <trkpt lat="40.548733" lon="-5.026383">
        <ele>2098.0</ele>
        <time>2018-08-13T12:47:01Z</time>
      </trkpt>
      <trkpt lat="40.548733" lon="-5.026183">
        <ele>2093.0</ele>
        <time>2018-08-13T12:47:02Z</time>
      </trkpt>
      <trkpt lat="40.548733" lon="-5.025967">
        <ele>2088.0</ele>
        <time>2018-08-13T12:47:03Z</time>
      </trkpt>
      <trkpt lat="40.548733" lon="-5.025750">
        <ele>2084.0</ele>
        <time>2018-08-13T12:47:04Z</time>
      </trkpt>
      <trkpt lat="40.548750" lon="-5.025517">
        <ele>2079.0</ele>
        <time>2018-08-13T12:47:05Z</time>
      </trkpt>
      <trkpt lat="40.548750" lon="-5.025300">
        <ele>2075.0</ele>
        <time>2018-08-13T12:47:06Z</time>
      </trkpt>
      <trkpt lat="40.548750" lon="-5.025067">
        <ele>2072.0</ele>
        <time>2018-08-13T12:47:07Z</time>
      </trkpt>
      <trkpt lat="40.548767" lon="-5.024850">
        <ele>2069.0</ele>
        <time>2018-08-13T12:47:08Z</time>
      </trkpt>
      <trkpt lat="40.548767" lon="-5.024650">
        <ele>2065.0</ele>
        <time>2018-08-13T12:47:09Z</time>
      </trkpt>
      <trkpt lat="40.548783" lon="-5.024450">
        <ele>2061.0</ele>
        <time>2018-08-13T12:47:10Z</time>
      </trkpt>
      <trkpt lat="40.548800" lon="-5.024250">
        <ele>2057.0</ele>
        <time>2018-08-13T12:47:11Z</time>
      </trkpt>
      <trkpt lat="40.548833" lon="-5.024050">
        <ele>2052.0</ele>
        <time>2018-08-13T12:47:12Z</time>
      </trkpt>
      <trkpt lat="40.548867" lon="-5.023850">
        <ele>2047.0</ele>
        <time>2018-08-13T12:47:13Z</time>
      </trkpt>
      <trkpt lat="40.548900" lon="-5.023633">
        <ele>2043.0</ele>
        <time>2018-08-13T12:47:14Z</time>
      </trkpt>
      <trkpt lat="40.548933" lon="-5.023433">
        <ele>2040.0</ele>
        <time>2018-08-13T12:47:15Z</time>
      </trkpt>
      <trkpt lat="40.548967" lon="-5.023250">
        <ele>2036.0</ele>
        <time>2018-08-13T12:47:16Z</time>
      </trkpt>
      <trkpt lat="40.549017" lon="-5.023067">
        <ele>2032.0</ele>
        <time>2018-08-13T12:47:17Z</time>
      </trkpt>
      <trkpt lat="40.549050" lon="-5.022883">
        <ele>2027.0</ele>
        <time>2018-08-13T12:47:18Z</time>
      </trkpt>
      <trkpt lat="40.549100" lon="-5.022683">
        <ele>2022.0</ele>
        <time>2018-08-13T12:47:19Z</time>
      </trkpt>
      <trkpt lat="40.549150" lon="-5.022483">
        <ele>2017.0</ele>
        <time>2018-08-13T12:47:20Z</time>
      </trkpt>
      <trkpt lat="40.549217" lon="-5.022300">
        <ele>2013.0</ele>
        <time>2018-08-13T12:47:21Z</time>
      </trkpt>
      <trkpt lat="40.549267" lon="-5.022117">
        <ele>2009.0</ele>
        <time>2018-08-13T12:47:22Z</time>
      </trkpt>
      <trkpt lat="40.549333" lon="-5.021950">
        <ele>2005.0</ele>
        <time>2018-08-13T12:47:23Z</time>
      </trkpt>
      <trkpt lat="40.549400" lon="-5.021767">
        <ele>2001.0</ele>
        <time>2018-08-13T12:47:24Z</time>
      </trkpt>
      <trkpt lat="40.549450" lon="-5.021583">
        <ele>1996.0</ele>
        <time>2018-08-13T12:47:25Z</time>
      </trkpt>
      <trkpt lat="40.549500" lon="-5.021400">
        <ele>1990.0</ele>
        <time>2018-08-13T12:47:26Z</time>
      </trkpt>
      <trkpt lat="40.549567" lon="-5.021217">
        <ele>1985.0</ele>
        <time>2018-08-13T12:47:27Z</time>
      </trkpt>
      <trkpt lat="40.549633" lon="-5.021033">
        <ele>1979.0</ele>
        <time>2018-08-13T12:47:28Z</time>
      </trkpt>
      <trkpt lat="40.549717" lon="-5.020833">
        <ele>1975.0</ele>
        <time>2018-08-13T12:47:29Z</time>
      </trkpt>
      <trkpt lat="40.549783" lon="-5.020650">
        <ele>1970.0</ele>
        <time>2018-08-13T12:47:30Z</time>
      </trkpt>
      <trkpt lat="40.549850" lon="-5.020450">
        <ele>1966.0</ele>
        <time>2018-08-13T12:47:31Z</time>
      </trkpt>
      <trkpt lat="40.549917" lon="-5.020267">
        <ele>1962.0</ele>
        <time>2018-08-13T12:47:32Z</time>
      </trkpt>
      <trkpt lat="40.549983" lon="-5.020067">
        <ele>1958.0</ele>
        <time>2018-08-13T12:47:33Z</time>
      </trkpt>
      <trkpt lat="40.550050" lon="-5.019883">
        <ele>1954.0</ele>
        <time>2018-08-13T12:47:34Z</time>
      </trkpt>
      <trkpt lat="40.550117" lon="-5.019683">
        <ele>1951.0</ele>
        <time>2018-08-13T12:47:35Z</time>
      </trkpt>
      <trkpt lat="40.550167" lon="-5.019500">
        <ele>1948.0</ele>
        <time>2018-08-13T12:47:36Z</time>
      </trkpt>
      <trkpt lat="40.550217" lon="-5.019317">
        <ele>1945.0</ele>
        <time>2018-08-13T12:47:37Z</time>
      </trkpt>
      <trkpt lat="40.550267" lon="-5.019133">
        <ele>1940.0</ele>
        <time>2018-08-13T12:47:38Z</time>
      </trkpt>
      <trkpt lat="40.550300" lon="-5.018950">
        <ele>1935.0</ele>
        <time>2018-08-13T12:47:39Z</time>
      </trkpt>
      <trkpt lat="40.550350" lon="-5.018750">
        <ele>1931.0</ele>
        <time>2018-08-13T12:47:40Z</time>
      </trkpt>
      <trkpt lat="40.550383" lon="-5.018550">
        <ele>1927.0</ele>
        <time>2018-08-13T12:47:41Z</time>
      </trkpt>
      <trkpt lat="40.550433" lon="-5.018367">
        <ele>1924.0</ele>
        <time>2018-08-13T12:47:42Z</time>
      </trkpt>
      <trkpt lat="40.550467" lon="-5.018167">
        <ele>1921.0</ele>
        <time>2018-08-13T12:47:43Z</time>
      </trkpt>
      <trkpt lat="40.550483" lon="-5.017967">
        <ele>1917.0</ele>
        <time>2018-08-13T12:47:44Z</time>
      </trkpt>
      <trkpt lat="40.550500" lon="-5.017750">
        <ele>1913.0</ele>
        <time>2018-08-13T12:47:45Z</time>
      </trkpt>
      <trkpt lat="40.550517" lon="-5.017533">
        <ele>1910.0</ele>
        <time>2018-08-13T12:47:46Z</time>
      </trkpt>
      <trkpt lat="40.550533" lon="-5.017333">
        <ele>1909.0</ele>
        <time>2018-08-13T12:47:47Z</time>
      </trkpt>
      <trkpt lat="40.550550" lon="-5.017150">
        <ele>1906.0</ele>
        <time>2018-08-13T12:47:48Z</time>
      </trkpt>
      <trkpt lat="40.550567" lon="-5.016967">
        <ele>1904.0</ele>
        <time>2018-08-13T12:47:49Z</time>
      </trkpt>
      <trkpt lat="40.550600" lon="-5.016800">
        <ele>1900.0</ele>
        <time>2018-08-13T12:47:50Z</time>
      </trkpt>
      <trkpt lat="40.550650" lon="-5.016633">
        <ele>1895.0</ele>
        <time>2018-08-13T12:47:51Z</time>
      </trkpt>
      <trkpt lat="40.550700" lon="-5.016483">
        <ele>1890.0</ele>
        <time>2018-08-13T12:47:52Z</time>
      </trkpt>
      <trkpt lat="40.550783" lon="-5.016317">
        <ele>1886.0</ele>
        <time>2018-08-13T12:47:53Z</time>
      </trkpt>
      <trkpt lat="40.550833" lon="-5.016150">
        <ele>1881.0</ele>
        <time>2018-08-13T12:47:54Z</time>
      </trkpt>
      <trkpt lat="40.550883" lon="-5.015983">
        <ele>1877.0</ele>
        <time>2018-08-13T12:47:55Z</time>
      </trkpt>
      <trkpt lat="40.550933" lon="-5.015800">
        <ele>1873.0</ele>
        <time>2018-08-13T12:47:56Z</time>
      </trkpt>
      <trkpt lat="40.550983" lon="-5.015600">
        <ele>1869.0</ele>
        <time>2018-08-13T12:47:57Z</time>
      </trkpt>
      <trkpt lat="40.551017" lon="-5.015417">
        <ele>1865.0</ele>
        <time>2018-08-13T12:47:58Z</time>
      </trkpt>
      <trkpt lat="40.551067" lon="-5.015217">
        <ele>1860.0</ele>
        <time>2018-08-13T12:47:59Z</time>
      </trkpt>
      <trkpt lat="40.551100" lon="-5.015017">
        <ele>1855.0</ele>
        <time>2018-08-13T12:48:00Z</time>
      </trkpt>
      <trkpt lat="40.551150" lon="-5.014817">
        <ele>1850.0</ele>
        <time>2018-08-13T12:48:01Z</time>
      </trkpt>
      <trkpt lat="40.551200" lon="-5.014617">
        <ele>1846.0</ele>
        <time>2018-08-13T12:48:02Z</time>
      </trkpt>
      <trkpt lat="40.551250" lon="-5.014417">
        <ele>1842.0</ele>
        <time>2018-08-13T12:48:03Z</time>
      </trkpt>
      <trkpt lat="40.551300" lon="-5.014233">
        <ele>1838.0</ele>
        <time>2018-08-13T12:48:04Z</time>
      </trkpt>
      <trkpt lat="40.551333" lon="-5.014050">
        <ele>1834.0</ele>
        <time>2018-08-13T12:48:05Z</time>
      </trkpt>
      <trkpt lat="40.551367" lon="-5.013850">
        <ele>1830.0</ele>
        <time>2018-08-13T12:48:06Z</time>
      </trkpt>
      <trkpt lat="40.551400" lon="-5.013667">
        <ele>1825.0</ele>
        <time>2018-08-13T12:48:07Z</time>
      </trkpt>
      <trkpt lat="40.551450" lon="-5.013467">
        <ele>1821.0</ele>
        <time>2018-08-13T12:48:08Z</time>
      </trkpt>
      <trkpt lat="40.551483" lon="-5.013267">
        <ele>1817.0</ele>
        <time>2018-08-13T12:48:09Z</time>
      </trkpt>
      <trkpt lat="40.551533" lon="-5.013067">
        <ele>1814.0</ele>
        <time>2018-08-13T12:48:10Z</time>
      </trkpt>
      <trkpt lat="40.551567" lon="-5.012867">
        <ele>1811.0</ele>
        <time>2018-08-13T12:48:11Z</time>
      </trkpt>
      <trkpt lat="40.551600" lon="-5.012667">
        <ele>1808.0</ele>
        <time>2018-08-13T12:48:12Z</time>
      </trkpt>
      <trkpt lat="40.551650" lon="-5.012483">
        <ele>1805.0</ele>
        <time>2018-08-13T12:48:13Z</time>
      </trkpt>
      <trkpt lat="40.551683" lon="-5.012300">
        <ele>1801.0</ele>
        <time>2018-08-13T12:48:14Z</time>
      </trkpt>
      <trkpt lat="40.551733" lon="-5.012117">
        <ele>1797.0</ele>
        <time>2018-08-13T12:48:15Z</time>
      </trkpt>
      <trkpt lat="40.551783" lon="-5.011950">
        <ele>1792.0</ele>
        <time>2018-08-13T12:48:16Z</time>
      </trkpt>
      <trkpt lat="40.551850" lon="-5.011767">
        <ele>1787.0</ele>
        <time>2018-08-13T12:48:17Z</time>
      </trkpt>
      <trkpt lat="40.551917" lon="-5.011583">
        <ele>1783.0</ele>
        <time>2018-08-13T12:48:18Z</time>
      </trkpt>
      <trkpt lat="40.551983" lon="-5.011400">
        <ele>1780.0</ele>
        <time>2018-08-13T12:48:19Z</time>
      </trkpt>
      <trkpt lat="40.552033" lon="-5.011217">
        <ele>1777.0</ele>
        <time>2018-08-13T12:48:20Z</time>
      </trkpt>
      <trkpt lat="40.552083" lon="-5.011033">
        <ele>1774.0</ele>
        <time>2018-08-13T12:48:21Z</time>
      </trkpt>
      <trkpt lat="40.552133" lon="-5.010867">
        <ele>1771.0</ele>
        <time>2018-08-13T12:48:22Z</time>
      </trkpt>
      <trkpt lat="40.552183" lon="-5.010683">
        <ele>1768.0</ele>
        <time>2018-08-13T12:48:23Z</time>
      </trkpt>
      <trkpt lat="40.552233" lon="-5.010517">
        <ele>1765.0</ele>
        <time>2018-08-13T12:48:24Z</time>
      </trkpt>
      <trkpt lat="40.552283" lon="-5.010350">
        <ele>1761.0</ele>
        <time>2018-08-13T12:48:25Z</time>
      </trkpt>
      <trkpt lat="40.552333" lon="-5.010167">
        <ele>1759.0</ele>
        <time>2018-08-13T12:48:26Z</time>
      </trkpt>
      <trkpt lat="40.552383" lon="-5.009983">
        <ele>1757.0</ele>
        <time>2018-08-13T12:48:27Z</time>
      </trkpt>
      <trkpt lat="40.552400" lon="-5.009800">
        <ele>1754.0</ele>
        <time>2018-08-13T12:48:28Z</time>
      </trkpt>
      <trkpt lat="40.552433" lon="-5.009633">
        <ele>1751.0</ele>
        <time>2018-08-13T12:48:29Z</time>
      </trkpt>
      <trkpt lat="40.552467" lon="-5.009467">
        <ele>1747.0</ele>
        <time>2018-08-13T12:48:30Z</time>
      </trkpt>
      <trkpt lat="40.552533" lon="-5.009283">
        <ele>1742.0</ele>
        <time>2018-08-13T12:48:31Z</time>
      </trkpt>
      <trkpt lat="40.552600" lon="-5.009083">
        <ele>1738.0</ele>
        <time>2018-08-13T12:48:32Z</time>
      </trkpt>
      <trkpt lat="40.552667" lon="-5.008883">
        <ele>1736.0</ele>
        <time>2018-08-13T12:48:33Z</time>
      </trkpt>
      <trkpt lat="40.552717" lon="-5.008683">
        <ele>1735.0</ele>
        <time>2018-08-13T12:48:34Z</time>
      </trkpt>
      <trkpt lat="40.552750" lon="-5.008483">
        <ele>1733.0</ele>
        <time>2018-08-13T12:48:35Z</time>
      </trkpt>
      <trkpt lat="40.552800" lon="-5.008283">
        <ele>1731.0</ele>
        <time>2018-08-13T12:48:36Z</time>
      </trkpt>
      <trkpt lat="40.552883" lon="-5.008100">
        <ele>1730.0</ele>
        <time>2018-08-13T12:48:37Z</time>
      </trkpt>
      <trkpt lat="40.552967" lon="-5.007933">
        <ele>1728.0</ele>
        <time>2018-08-13T12:48:38Z</time>
      </trkpt>
      <trkpt lat="40.553033" lon="-5.007767">
        <ele>1726.0</ele>
        <time>2018-08-13T12:48:39Z</time>
      </trkpt>
      <trkpt lat="40.553100" lon="-5.007600">
        <ele>1724.0</ele>
        <time>2018-08-13T12:48:40Z</time>
      </trkpt>
      <trkpt lat="40.553167" lon="-5.007417">
        <ele>1722.0</ele>
        <time>2018-08-13T12:48:41Z</time>
      </trkpt>
      <trkpt lat="40.553200" lon="-5.007217">
        <ele>1719.0</ele>
        <time>2018-08-13T12:48:42Z</time>
      </trkpt>
      <trkpt lat="40.553250" lon="-5.007017">
        <ele>1717.0</ele>
        <time>2018-08-13T12:48:43Z</time>
      </trkpt>
      <trkpt lat="40.553317" lon="-5.006833">
        <ele>1715.0</ele>
        <time>2018-08-13T12:48:44Z</time>
      </trkpt>
      <trkpt lat="40.553367" lon="-5.006650">
        <ele>1712.0</ele>
        <time>2018-08-13T12:48:45Z</time>
      </trkpt>
      <trkpt lat="40.553417" lon="-5.006483">
        <ele>1710.0</ele>
        <time>2018-08-13T12:48:46Z</time>
      </trkpt>
      <trkpt lat="40.553467" lon="-5.006283">
        <ele>1706.0</ele>
        <time>2018-08-13T12:48:47Z</time>
      </trkpt>
      <trkpt lat="40.553517" lon="-5.006100">
        <ele>1703.0</ele>
        <time>2018-08-13T12:48:48Z</time>
      </trkpt>
      <trkpt lat="40.553583" lon="-5.005917">
        <ele>1700.0</ele>
        <time>2018-08-13T12:48:49Z</time>
      </trkpt>
      <trkpt lat="40.553633" lon="-5.005733">
        <ele>1697.0</ele>
        <time>2018-08-13T12:48:50Z</time>
      </trkpt>
      <trkpt lat="40.553700" lon="-5.005567">
        <ele>1695.0</ele>
        <time>2018-08-13T12:48:51Z</time>
      </trkpt>
      <trkpt lat="40.553767" lon="-5.005383">
        <ele>1693.0</ele>
        <time>2018-08-13T12:48:52Z</time>
      </trkpt>
      <trkpt lat="40.553833" lon="-5.005233">
        <ele>1693.0</ele>
        <time>2018-08-13T12:48:53Z</time>
      </trkpt>
      <trkpt lat="40.553883" lon="-5.005067">
        <ele>1692.0</ele>
        <time>2018-08-13T12:48:54Z</time>
      </trkpt>
      <trkpt lat="40.553950" lon="-5.004933">
        <ele>1691.0</ele>
        <time>2018-08-13T12:48:55Z</time>
      </trkpt>
      <trkpt lat="40.554000" lon="-5.004783">
        <ele>1690.0</ele>
        <time>2018-08-13T12:48:56Z</time>
      </trkpt>
      <trkpt lat="40.554050" lon="-5.004633">
        <ele>1689.0</ele>
        <time>2018-08-13T12:48:57Z</time>
      </trkpt>
      <trkpt lat="40.554117" lon="-5.004483">
        <ele>1689.0</ele>
        <time>2018-08-13T12:48:58Z</time>
      </trkpt>
      <trkpt lat="40.554167" lon="-5.004333">
        <ele>1688.0</ele>
        <time>2018-08-13T12:48:59Z</time>
      </trkpt>
      <trkpt lat="40.554217" lon="-5.004183">
        <ele>1686.0</ele>
        <time>2018-08-13T12:49:00Z</time>
      </trkpt>
      <trkpt lat="40.554250" lon="-5.004017">
        <ele>1685.0</ele>
        <time>2018-08-13T12:49:01Z</time>
      </trkpt>
      <trkpt lat="40.554300" lon="-5.003850">
        <ele>1683.0</ele>
        <time>2018-08-13T12:49:02Z</time>
      </trkpt>
      <trkpt lat="40.554350" lon="-5.003683">
        <ele>1681.0</ele>
        <time>2018-08-13T12:49:03Z</time>
      </trkpt>
      <trkpt lat="40.554417" lon="-5.003533">
        <ele>1680.0</ele>
        <time>2018-08-13T12:49:04Z</time>
      </trkpt>
      <trkpt lat="40.554467" lon="-5.003383">
        <ele>1679.0</ele>
        <time>2018-08-13T12:49:05Z</time>
      </trkpt>
      <trkpt lat="40.554517" lon="-5.003233">
        <ele>1677.0</ele>
        <time>2018-08-13T12:49:06Z</time>
      </trkpt>
      <trkpt lat="40.554567" lon="-5.003083">
        <ele>1676.0</ele>
        <time>2018-08-13T12:49:07Z</time>
      </trkpt>
      <trkpt lat="40.554617" lon="-5.002933">
        <ele>1675.0</ele>
        <time>2018-08-13T12:49:08Z</time>
      </trkpt>
      <trkpt lat="40.554633" lon="-5.002783">
        <ele>1673.0</ele>
        <time>2018-08-13T12:49:09Z</time>
      </trkpt>
      <trkpt lat="40.554667" lon="-5.002650">
        <ele>1672.0</ele>
        <time>2018-08-13T12:49:10Z</time>
      </trkpt>
      <trkpt lat="40.554717" lon="-5.002500">
        <ele>1670.0</ele>
        <time>2018-08-13T12:49:11Z</time>
      </trkpt>
      <trkpt lat="40.554767" lon="-5.002383">
        <ele>1669.0</ele>
        <time>2018-08-13T12:49:12Z</time>
      </trkpt>
      <trkpt lat="40.554817" lon="-5.002250">
        <ele>1667.0</ele>
        <time>2018-08-13T12:49:13Z</time>
      </trkpt>
      <trkpt lat="40.554850" lon="-5.002100">
        <ele>1666.0</ele>
        <time>2018-08-13T12:49:14Z</time>
      </trkpt>
      <trkpt lat="40.554900" lon="-5.001950">
        <ele>1665.0</ele>
        <time>2018-08-13T12:49:15Z</time>
      </trkpt>
      <trkpt lat="40.554933" lon="-5.001800">
        <ele>1663.0</ele>
        <time>2018-08-13T12:49:16Z</time>
      </trkpt>
      <trkpt lat="40.554967" lon="-5.001667">
        <ele>1662.0</ele>
        <time>2018-08-13T12:49:17Z</time>
      </trkpt>
      <trkpt lat="40.555017" lon="-5.001533">
        <ele>1660.0</ele>
        <time>2018-08-13T12:49:18Z</time>
      </trkpt>
      <trkpt lat="40.555050" lon="-5.001400">
        <ele>1659.0</ele>
        <time>2018-08-13T12:49:19Z</time>
      </trkpt>
      <trkpt lat="40.555100" lon="-5.001267">
        <ele>1658.0</ele>
        <time>2018-08-13T12:49:20Z</time>
      </trkpt>
      <trkpt lat="40.555117" lon="-5.001117">
        <ele>1657.0</ele>
        <time>2018-08-13T12:49:21Z</time>
      </trkpt>
      <trkpt lat="40.555150" lon="-5.000967">
        <ele>1656.0</ele>
        <time>2018-08-13T12:49:22Z</time>
      </trkpt>
      <trkpt lat="40.555183" lon="-5.000833">
        <ele>1656.0</ele>
        <time>2018-08-13T12:49:23Z</time>
      </trkpt>
      <trkpt lat="40.555217" lon="-5.000717">
        <ele>1655.0</ele>
        <time>2018-08-13T12:49:24Z</time>
      </trkpt>
      <trkpt lat="40.555267" lon="-5.000600">
        <ele>1655.0</ele>
        <time>2018-08-13T12:49:25Z</time>
      </trkpt>
      <trkpt lat="40.555317" lon="-5.000500">
        <ele>1655.0</ele>
        <time>2018-08-13T12:49:26Z</time>
      </trkpt>
      <trkpt lat="40.555367" lon="-5.000400">
        <ele>1655.0</ele>
        <time>2018-08-13T12:49:27Z</time>
      </trkpt>
      <trkpt lat="40.555400" lon="-5.000300">
        <ele>1654.0</ele>
        <time>2018-08-13T12:49:28Z</time>
      </trkpt>
      <trkpt lat="40.555450" lon="-5.000183">
        <ele>1654.0</ele>
        <time>2018-08-13T12:49:29Z</time>
      </trkpt>
      <trkpt lat="40.555483" lon="-5.000067">
        <ele>1653.0</ele>
        <time>2018-08-13T12:49:30Z</time>
      </trkpt>
      <trkpt lat="40.555533" lon="-4.999967">
        <ele>1653.0</ele>
        <time>2018-08-13T12:49:31Z</time>
      </trkpt>
      <trkpt lat="40.555583" lon="-4.999850">
        <ele>1652.0</ele>
        <time>2018-08-13T12:49:32Z</time>
      </trkpt>
      <trkpt lat="40.555633" lon="-4.999750">
        <ele>1651.0</ele>
        <time>2018-08-13T12:49:33Z</time>
      </trkpt>
      <trkpt lat="40.555683" lon="-4.999650">
        <ele>1650.0</ele>
        <time>2018-08-13T12:49:34Z</time>
      </trkpt>
      <trkpt lat="40.555717" lon="-4.999533">
        <ele>1648.0</ele>
        <time>2018-08-13T12:49:35Z</time>
      </trkpt>
      <trkpt lat="40.555750" lon="-4.999433">
        <ele>1646.0</ele>
        <time>2018-08-13T12:49:36Z</time>
      </trkpt>
      <trkpt lat="40.555800" lon="-4.999317">
        <ele>1645.0</ele>
        <time>2018-08-13T12:49:37Z</time>
      </trkpt>
      <trkpt lat="40.555850" lon="-4.999200">
        <ele>1644.0</ele>
        <time>2018-08-13T12:49:38Z</time>
      </trkpt>
      <trkpt lat="40.555883" lon="-4.999117">
        <ele>1643.0</ele>
        <time>2018-08-13T12:49:39Z</time>
      </trkpt>
      <trkpt lat="40.555917" lon="-4.999017">
        <ele>1641.0</ele>
        <time>2018-08-13T12:49:40Z</time>
      </trkpt>
      <trkpt lat="40.555950" lon="-4.998933">
        <ele>1638.0</ele>
        <time>2018-08-13T12:49:41Z</time>
      </trkpt>
      <trkpt lat="40.555983" lon="-4.998833">
        <ele>1635.0</ele>
        <time>2018-08-13T12:49:42Z</time>
      </trkpt>
      <trkpt lat="40.556033" lon="-4.998717">
        <ele>1632.0</ele>
        <time>2018-08-13T12:49:43Z</time>
      </trkpt>
      <trkpt lat="40.556083" lon="-4.998583">
        <ele>1629.0</ele>
        <time>2018-08-13T12:49:44Z</time>
      </trkpt>
      <trkpt lat="40.556133" lon="-4.998450">
        <ele>1627.0</ele>
        <time>2018-08-13T12:49:45Z</time>
      </trkpt>
      <trkpt lat="40.556183" lon="-4.998317">
        <ele>1626.0</ele>
        <time>2018-08-13T12:49:46Z</time>
      </trkpt>
      <trkpt lat="40.556233" lon="-4.998200">
        <ele>1624.0</ele>
        <time>2018-08-13T12:49:47Z</time>
      </trkpt>
      <trkpt lat="40.556300" lon="-4.998083">
        <ele>1622.0</ele>
        <time>2018-08-13T12:49:48Z</time>
      </trkpt>
      <trkpt lat="40.556367" lon="-4.997967">
        <ele>1621.0</ele>
        <time>2018-08-13T12:49:49Z</time>
      </trkpt>
      <trkpt lat="40.556417" lon="-4.997850">
        <ele>1619.0</ele>
        <time>2018-08-13T12:49:50Z</time>
      </trkpt>
      <trkpt lat="40.556483" lon="-4.997717">
        <ele>1619.0</ele>
        <time>2018-08-13T12:49:51Z</time>
      </trkpt>
      <trkpt lat="40.556567" lon="-4.997600">
        <ele>1618.0</ele>
        <time>2018-08-13T12:49:52Z</time>
      </trkpt>
      <trkpt lat="40.556633" lon="-4.997500">
        <ele>1619.0</ele>
        <time>2018-08-13T12:49:53Z</time>
      </trkpt>
      <trkpt lat="40.556717" lon="-4.997400">
        <ele>1620.0</ele>
        <time>2018-08-13T12:49:54Z</time>
      </trkpt>
      <trkpt lat="40.556767" lon="-4.997317">
        <ele>1622.0</ele>
        <time>2018-08-13T12:49:55Z</time>
      </trkpt>
      <trkpt lat="40.556833" lon="-4.997217">
        <ele>1623.0</ele>
        <time>2018-08-13T12:49:56Z</time>
      </trkpt>
      <trkpt lat="40.556883" lon="-4.997133">
        <ele>1623.0</ele>
        <time>2018-08-13T12:49:57Z</time>
      </trkpt>
      <trkpt lat="40.556933" lon="-4.997033">
        <ele>1622.0</ele>
        <time>2018-08-13T12:49:58Z</time>
      </trkpt>
      <trkpt lat="40.556983" lon="-4.996917">
        <ele>1621.0</ele>
        <time>2018-08-13T12:49:59Z</time>
      </trkpt>
      <trkpt lat="40.557050" lon="-4.996800">
        <ele>1619.0</ele>
        <time>2018-08-13T12:50:00Z</time>
      </trkpt>
      <trkpt lat="40.557117" lon="-4.996683">
        <ele>1618.0</ele>
        <time>2018-08-13T12:50:01Z</time>
      </trkpt>
      <trkpt lat="40.557167" lon="-4.996550">
        <ele>1618.0</ele>
        <time>2018-08-13T12:50:02Z</time>
      </trkpt>
      <trkpt lat="40.557200" lon="-4.996400">
        <ele>1617.0</ele>
        <time>2018-08-13T12:50:03Z</time>
      </trkpt>
      <trkpt lat="40.557233" lon="-4.996233">
        <ele>1617.0</ele>
        <time>2018-08-13T12:50:04Z</time>
      </trkpt>
      <trkpt lat="40.557283" lon="-4.996083">
        <ele>1618.0</ele>
        <time>2018-08-13T12:50:05Z</time>
      </trkpt>
      <trkpt lat="40.557317" lon="-4.995933">
        <ele>1619.0</ele>
        <time>2018-08-13T12:50:06Z</time>
      </trkpt>
      <trkpt lat="40.557350" lon="-4.995783">
        <ele>1621.0</ele>
        <time>2018-08-13T12:50:07Z</time>
      </trkpt>
      <trkpt lat="40.557400" lon="-4.995667">
        <ele>1624.0</ele>
        <time>2018-08-13T12:50:08Z</time>
      </trkpt>
      <trkpt lat="40.557450" lon="-4.995550">
        <ele>1626.0</ele>
        <time>2018-08-13T12:50:09Z</time>
      </trkpt>
      <trkpt lat="40.557517" lon="-4.995433">
        <ele>1628.0</ele>
        <time>2018-08-13T12:50:10Z</time>
      </trkpt>
      <trkpt lat="40.557567" lon="-4.995350">
        <ele>1629.0</ele>
        <time>2018-08-13T12:50:11Z</time>
      </trkpt>
      <trkpt lat="40.557650" lon="-4.995300">
        <ele>1630.0</ele>
        <time>2018-08-13T12:50:12Z</time>
      </trkpt>
      <trkpt lat="40.557717" lon="-4.995267">
        <ele>1632.0</ele>
        <time>2018-08-13T12:50:13Z</time>
      </trkpt>
      <trkpt lat="40.557800" lon="-4.995233">
        <ele>1634.0</ele>
        <time>2018-08-13T12:50:14Z</time>
      </trkpt>
      <trkpt lat="40.557867" lon="-4.995217">
        <ele>1636.0</ele>
        <time>2018-08-13T12:50:15Z</time>
      </trkpt>
      <trkpt lat="40.557950" lon="-4.995200">
        <ele>1638.0</ele>
        <time>2018-08-13T12:50:16Z</time>
      </trkpt>
      <trkpt lat="40.558017" lon="-4.995167">
        <ele>1640.0</ele>
        <time>2018-08-13T12:50:17Z</time>
      </trkpt>
      <trkpt lat="40.558100" lon="-4.995150">
        <ele>1642.0</ele>
        <time>2018-08-13T12:50:18Z</time>
      </trkpt>
      <trkpt lat="40.558150" lon="-4.995167">
        <ele>1644.0</ele>
        <time>2018-08-13T12:50:19Z</time>
      </trkpt>
      <trkpt lat="40.558167" lon="-4.995217">
        <ele>1644.0</ele>
        <time>2018-08-13T12:50:20Z</time>
      </trkpt>
      <trkpt lat="40.558167" lon="-4.995283">
        <ele>1644.0</ele>
        <time>2018-08-13T12:50:21Z</time>
      </trkpt>
      <trkpt lat="40.558117" lon="-4.995350">
        <ele>1644.0</ele>
        <time>2018-08-13T12:50:22Z</time>
      </trkpt>
      <trkpt lat="40.558033" lon="-4.995417">
        <ele>1644.0</ele>
        <time>2018-08-13T12:50:23Z</time>
      </trkpt>
      <trkpt lat="40.557950" lon="-4.995450">
        <ele>1646.0</ele>
        <time>2018-08-13T12:50:24Z</time>
      </trkpt>
      <trkpt lat="40.557833" lon="-4.995433">
        <ele>1647.0</ele>
        <time>2018-08-13T12:50:25Z</time>
      </trkpt>
      <trkpt lat="40.557717" lon="-4.995383">
        <ele>1648.0</ele>
        <time>2018-08-13T12:50:26Z</time>
      </trkpt>
      <trkpt lat="40.557600" lon="-4.995300">
        <ele>1649.0</ele>
        <time>2018-08-13T12:50:27Z</time>
      </trkpt>
      <trkpt lat="40.557517" lon="-4.995150">
        <ele>1650.0</ele>
        <time>2018-08-13T12:50:28Z</time>
      </trkpt>
      <trkpt lat="40.557433" lon="-4.994967">
        <ele>1650.0</ele>
        <time>2018-08-13T12:50:29Z</time>
      </trkpt>
      <trkpt lat="40.557400" lon="-4.994767">
        <ele>1651.0</ele>
        <time>2018-08-13T12:50:30Z</time>
      </trkpt>
      <trkpt lat="40.557400" lon="-4.994567">
        <ele>1652.0</ele>
        <time>2018-08-13T12:50:31Z</time>
      </trkpt>
      <trkpt lat="40.557417" lon="-4.994367">
        <ele>1654.0</ele>
        <time>2018-08-13T12:50:32Z</time>
      </trkpt>
      <trkpt lat="40.557433" lon="-4.994167">
        <ele>1657.0</ele>
        <time>2018-08-13T12:50:33Z</time>
      </trkpt>
      <trkpt lat="40.557450" lon="-4.993983">
        <ele>1660.0</ele>
        <time>2018-08-13T12:50:34Z</time>
      </trkpt>
      <trkpt lat="40.557467" lon="-4.993817">
        <ele>1662.0</ele>
        <time>2018-08-13T12:50:35Z</time>
      </trkpt>
      <trkpt lat="40.557483" lon="-4.993650">
        <ele>1664.0</ele>
        <time>2018-08-13T12:50:36Z</time>
      </trkpt>
      <trkpt lat="40.557500" lon="-4.993483">
        <ele>1665.0</ele>
        <time>2018-08-13T12:50:37Z</time>
      </trkpt>
      <trkpt lat="40.557533" lon="-4.993317">
        <ele>1665.0</ele>
        <time>2018-08-13T12:50:38Z</time>
      </trkpt>
      <trkpt lat="40.557600" lon="-4.993183">
        <ele>1665.0</ele>
        <time>2018-08-13T12:50:39Z</time>
      </trkpt>
      <trkpt lat="40.557667" lon="-4.993067">
        <ele>1665.0</ele>
        <time>2018-08-13T12:50:40Z</time>
      </trkpt>
      <trkpt lat="40.557750" lon="-4.993017">
        <ele>1665.0</ele>
        <time>2018-08-13T12:50:41Z</time>
      </trkpt>
      <trkpt lat="40.557833" lon="-4.993017">
        <ele>1666.0</ele>
        <time>2018-08-13T12:50:42Z</time>
      </trkpt>
      <trkpt lat="40.557883" lon="-4.993050">
        <ele>1667.0</ele>
        <time>2018-08-13T12:50:43Z</time>
      </trkpt>
      <trkpt lat="40.557900" lon="-4.993083">
        <ele>1669.0</ele>
        <time>2018-08-13T12:50:44Z</time>
      </trkpt>
      <trkpt lat="40.557900" lon="-4.993133">
        <ele>1670.0</ele>
        <time>2018-08-13T12:50:45Z</time>
      </trkpt>
      <trkpt lat="40.557883" lon="-4.993183">
        <ele>1670.0</ele>
        <time>2018-08-13T12:50:46Z</time>
      </trkpt>
      <trkpt lat="40.557833" lon="-4.993233">
        <ele>1670.0</ele>
        <time>2018-08-13T12:50:47Z</time>
      </trkpt>
      <trkpt lat="40.557750" lon="-4.993283">
        <ele>1670.0</ele>
        <time>2018-08-13T12:50:48Z</time>
      </trkpt>
      <trkpt lat="40.557667" lon="-4.993300">
        <ele>1669.0</ele>
        <time>2018-08-13T12:50:49Z</time>
      </trkpt>
      <trkpt lat="40.557550" lon="-4.993317">
        <ele>1669.0</ele>
        <time>2018-08-13T12:50:50Z</time>
      </trkpt>
      <trkpt lat="40.557433" lon="-4.993283">
        <ele>1670.0</ele>
        <time>2018-08-13T12:50:51Z</time>
      </trkpt>
      <trkpt lat="40.557317" lon="-4.993217">
        <ele>1671.0</ele>
        <time>2018-08-13T12:50:52Z</time>
      </trkpt>
      <trkpt lat="40.557217" lon="-4.993100">
        <ele>1672.0</ele>
        <time>2018-08-13T12:50:53Z</time>
      </trkpt>
      <trkpt lat="40.557117" lon="-4.992967">
        <ele>1673.0</ele>
        <time>2018-08-13T12:50:54Z</time>
      </trkpt>
      <trkpt lat="40.557017" lon="-4.992817">
        <ele>1675.0</ele>
        <time>2018-08-13T12:50:55Z</time>
      </trkpt>
      <trkpt lat="40.556933" lon="-4.992667">
        <ele>1677.0</ele>
        <time>2018-08-13T12:50:56Z</time>
      </trkpt>
      <trkpt lat="40.556833" lon="-4.992517">
        <ele>1679.0</ele>
        <time>2018-08-13T12:50:57Z</time>
      </trkpt>
      <trkpt lat="40.556750" lon="-4.992367">
        <ele>1680.0</ele>
        <time>2018-08-13T12:50:58Z</time>
      </trkpt>
      <trkpt lat="40.556667" lon="-4.992200">
        <ele>1682.0</ele>
        <time>2018-08-13T12:50:59Z</time>
      </trkpt>
      <trkpt lat="40.556567" lon="-4.992067">
        <ele>1683.0</ele>
        <time>2018-08-13T12:51:00Z</time>
      </trkpt>
      <trkpt lat="40.556483" lon="-4.991917">
        <ele>1684.0</ele>
        <time>2018-08-13T12:51:01Z</time>
      </trkpt>
      <trkpt lat="40.556400" lon="-4.991767">
        <ele>1685.0</ele>
        <time>2018-08-13T12:51:02Z</time>
      </trkpt>
      <trkpt lat="40.556350" lon="-4.991600">
        <ele>1685.0</ele>
        <time>2018-08-13T12:51:03Z</time>
      </trkpt>
      <trkpt lat="40.556317" lon="-4.991433">
        <ele>1684.0</ele>
        <time>2018-08-13T12:51:04Z</time>
      </trkpt>
      <trkpt lat="40.556333" lon="-4.991267">
        <ele>1683.0</ele>
        <time>2018-08-13T12:51:05Z</time>
      </trkpt>
      <trkpt lat="40.556367" lon="-4.991100">
        <ele>1682.0</ele>
        <time>2018-08-13T12:51:06Z</time>
      </trkpt>
      <trkpt lat="40.556417" lon="-4.990967">
        <ele>1683.0</ele>
        <time>2018-08-13T12:51:07Z</time>
      </trkpt>
      <trkpt lat="40.556467" lon="-4.990867">
        <ele>1686.0</ele>
        <time>2018-08-13T12:51:08Z</time>
      </trkpt>
      <trkpt lat="40.556517" lon="-4.990783">
        <ele>1687.0</ele>
        <time>2018-08-13T12:51:09Z</time>
      </trkpt>
      <trkpt lat="40.556567" lon="-4.990733">
        <ele>1687.0</ele>
        <time>2018-08-13T12:51:10Z</time>
      </trkpt>
      <trkpt lat="40.556617" lon="-4.990700">
        <ele>1687.0</ele>
        <time>2018-08-13T12:51:11Z</time>
      </trkpt>
      <trkpt lat="40.556667" lon="-4.990683">
        <ele>1687.0</ele>
        <time>2018-08-13T12:51:12Z</time>
      </trkpt>
      <trkpt lat="40.556700" lon="-4.990700">
        <ele>1686.0</ele>
        <time>2018-08-13T12:51:13Z</time>
      </trkpt>
      <trkpt lat="40.556733" lon="-4.990733">
        <ele>1686.0</ele>
        <time>2018-08-13T12:51:14Z</time>
      </trkpt>
      <trkpt lat="40.556733" lon="-4.990800">
        <ele>1687.0</ele>
        <time>2018-08-13T12:51:15Z</time>
      </trkpt>
      <trkpt lat="40.556700" lon="-4.990867">
        <ele>1688.0</ele>
        <time>2018-08-13T12:51:16Z</time>
      </trkpt>
      <trkpt lat="40.556633" lon="-4.990933">
        <ele>1689.0</ele>
        <time>2018-08-13T12:51:17Z</time>
      </trkpt>
      <trkpt lat="40.556550" lon="-4.990983">
        <ele>1691.0</ele>
        <time>2018-08-13T12:51:18Z</time>
      </trkpt>
      <trkpt lat="40.556467" lon="-4.991000">
        <ele>1693.0</ele>
        <time>2018-08-13T12:51:19Z</time>
      </trkpt>
      <trkpt lat="40.556367" lon="-4.991017">
        <ele>1695.0</ele>
        <time>2018-08-13T12:51:20Z</time>
      </trkpt>
      <trkpt lat="40.556267" lon="-4.991017">
        <ele>1696.0</ele>
        <time>2018-08-13T12:51:21Z</time>
      </trkpt>
      <trkpt lat="40.556150" lon="-4.991000">
        <ele>1697.0</ele>
        <time>2018-08-13T12:51:22Z</time>
      </trkpt>
      <trkpt lat="40.556050" lon="-4.990967">
        <ele>1698.0</ele>
        <time>2018-08-13T12:51:23Z</time>
      </trkpt>
      <trkpt lat="40.555933" lon="-4.990933">
        <ele>1698.0</ele>
        <time>2018-08-13T12:51:24Z</time>
      </trkpt>
      <trkpt lat="40.555833" lon="-4.990867">
        <ele>1698.0</ele>
        <time>2018-08-13T12:51:25Z</time>
      </trkpt>
      <trkpt lat="40.555717" lon="-4.990817">
        <ele>1698.0</ele>
        <time>2018-08-13T12:51:26Z</time>
      </trkpt>
      <trkpt lat="40.555600" lon="-4.990767">
        <ele>1698.0</ele>
        <time>2018-08-13T12:51:27Z</time>
      </trkpt>
      <trkpt lat="40.555483" lon="-4.990733">
        <ele>1698.0</ele>
        <time>2018-08-13T12:51:28Z</time>
      </trkpt>
      <trkpt lat="40.555367" lon="-4.990717">
        <ele>1699.0</ele>
        <time>2018-08-13T12:51:29Z</time>
      </trkpt>
      <trkpt lat="40.555267" lon="-4.990700">
        <ele>1700.0</ele>
        <time>2018-08-13T12:51:30Z</time>
      </trkpt>
      <trkpt lat="40.555183" lon="-4.990683">
        <ele>1701.0</ele>
        <time>2018-08-13T12:51:31Z</time>
      </trkpt>
      <trkpt lat="40.555083" lon="-4.990683">
        <ele>1701.0</ele>
        <time>2018-08-13T12:51:32Z</time>
      </trkpt>
      <trkpt lat="40.555000" lon="-4.990733">
        <ele>1701.0</ele>
        <time>2018-08-13T12:51:33Z</time>
      </trkpt>
      <trkpt lat="40.554917" lon="-4.990783">
        <ele>1701.0</ele>
        <time>2018-08-13T12:51:34Z</time>
      </trkpt>
      <trkpt lat="40.554850" lon="-4.990867">
        <ele>1701.0</ele>
        <time>2018-08-13T12:51:35Z</time>
      </trkpt>
      <trkpt lat="40.554817" lon="-4.990950">
        <ele>1703.0</ele>
        <time>2018-08-13T12:51:36Z</time>
      </trkpt>
      <trkpt lat="40.554783" lon="-4.991050">
        <ele>1704.0</ele>
        <time>2018-08-13T12:51:37Z</time>
      </trkpt>
      <trkpt lat="40.554783" lon="-4.991117">
        <ele>1705.0</ele>
        <time>2018-08-13T12:51:38Z</time>
      </trkpt>
      <trkpt lat="40.554800" lon="-4.991183">
        <ele>1706.0</ele>
        <time>2018-08-13T12:51:39Z</time>
      </trkpt>
      <trkpt lat="40.554817" lon="-4.991233">
        <ele>1706.0</ele>
        <time>2018-08-13T12:51:40Z</time>
      </trkpt>
      <trkpt lat="40.554867" lon="-4.991283">
        <ele>1706.0</ele>
        <time>2018-08-13T12:51:41Z</time>
      </trkpt>
      <trkpt lat="40.554917" lon="-4.991333">
        <ele>1706.0</ele>
        <time>2018-08-13T12:51:42Z</time>
      </trkpt>
      <trkpt lat="40.554983" lon="-4.991350">
        <ele>1706.0</ele>
        <time>2018-08-13T12:51:43Z</time>
      </trkpt>
      <trkpt lat="40.555067" lon="-4.991367">
        <ele>1706.0</ele>
        <time>2018-08-13T12:51:44Z</time>
      </trkpt>
      <trkpt lat="40.555150" lon="-4.991350">
        <ele>1706.0</ele>
        <time>2018-08-13T12:51:45Z</time>
      </trkpt>
      <trkpt lat="40.555217" lon="-4.991317">
        <ele>1707.0</ele>
        <time>2018-08-13T12:51:46Z</time>
      </trkpt>
      <trkpt lat="40.555300" lon="-4.991250">
        <ele>1707.0</ele>
        <time>2018-08-13T12:51:47Z</time>
      </trkpt>
      <trkpt lat="40.555383" lon="-4.991167">
        <ele>1707.0</ele>
        <time>2018-08-13T12:51:48Z</time>
      </trkpt>
      <trkpt lat="40.555450" lon="-4.991067">
        <ele>1708.0</ele>
        <time>2018-08-13T12:51:49Z</time>
      </trkpt>
      <trkpt lat="40.555533" lon="-4.990983">
        <ele>1708.0</ele>
        <time>2018-08-13T12:51:50Z</time>
      </trkpt>
      <trkpt lat="40.555600" lon="-4.990883">
        <ele>1708.0</ele>
        <time>2018-08-13T12:51:51Z</time>
      </trkpt>
      <trkpt lat="40.555683" lon="-4.990783">
        <ele>1708.0</ele>
        <time>2018-08-13T12:51:52Z</time>
      </trkpt>
      <trkpt lat="40.555750" lon="-4.990667">
        <ele>1709.0</ele>
        <time>2018-08-13T12:51:53Z</time>
      </trkpt>
      <trkpt lat="40.555800" lon="-4.990550">
        <ele>1712.0</ele>
        <time>2018-08-13T12:51:54Z</time>
      </trkpt>
      <trkpt lat="40.555867" lon="-4.990450">
        <ele>1714.0</ele>
        <time>2018-08-13T12:51:55Z</time>
      </trkpt>
      <trkpt lat="40.555917" lon="-4.990367">
        <ele>1716.0</ele>
        <time>2018-08-13T12:51:56Z</time>
      </trkpt>
      <trkpt lat="40.555983" lon="-4.990283">
        <ele>1717.0</ele>
        <time>2018-08-13T12:51:57Z</time>
      </trkpt>
      <trkpt lat="40.556067" lon="-4.990183">
        <ele>1718.0</ele>
        <time>2018-08-13T12:51:58Z</time>
      </trkpt>
      <trkpt lat="40.556133" lon="-4.990067">
        <ele>1720.0</ele>
        <time>2018-08-13T12:51:59Z</time>
      </trkpt>
      <trkpt lat="40.556200" lon="-4.989933">
        <ele>1722.0</ele>
        <time>2018-08-13T12:52:00Z</time>
      </trkpt>
      <trkpt lat="40.556233" lon="-4.989783">
        <ele>1724.0</ele>
        <time>2018-08-13T12:52:01Z</time>
      </trkpt>
      <trkpt lat="40.556233" lon="-4.989633">
        <ele>1726.0</ele>
        <time>2018-08-13T12:52:02Z</time>
      </trkpt>
      <trkpt lat="40.556233" lon="-4.989467">
        <ele>1727.0</ele>
        <time>2018-08-13T12:52:03Z</time>
      </trkpt>
      <trkpt lat="40.556200" lon="-4.989300">
        <ele>1726.0</ele>
        <time>2018-08-13T12:52:04Z</time>
      </trkpt>
      <trkpt lat="40.556167" lon="-4.989133">
        <ele>1726.0</ele>
        <time>2018-08-13T12:52:05Z</time>
      </trkpt>
      <trkpt lat="40.556100" lon="-4.988983">
        <ele>1725.0</ele>
        <time>2018-08-13T12:52:06Z</time>
      </trkpt>
      <trkpt lat="40.556000" lon="-4.988850">
        <ele>1724.0</ele>
        <time>2018-08-13T12:52:07Z</time>
      </trkpt>
      <trkpt lat="40.555883" lon="-4.988750">
        <ele>1724.0</ele>
        <time>2018-08-13T12:52:08Z</time>
      </trkpt>
      <trkpt lat="40.555783" lon="-4.988683">
        <ele>1723.0</ele>
        <time>2018-08-13T12:52:09Z</time>
      </trkpt>
      <trkpt lat="40.555667" lon="-4.988667">
        <ele>1723.0</ele>
        <time>2018-08-13T12:52:10Z</time>
      </trkpt>
      <trkpt lat="40.555567" lon="-4.988667">
        <ele>1723.0</ele>
        <time>2018-08-13T12:52:11Z</time>
      </trkpt>
      <trkpt lat="40.555483" lon="-4.988700">
        <ele>1722.0</ele>
        <time>2018-08-13T12:52:12Z</time>
      </trkpt>
      <trkpt lat="40.555417" lon="-4.988767">
        <ele>1722.0</ele>
        <time>2018-08-13T12:52:13Z</time>
      </trkpt>
      <trkpt lat="40.555367" lon="-4.988833">
        <ele>1722.0</ele>
        <time>2018-08-13T12:52:14Z</time>
      </trkpt>
      <trkpt lat="40.555350" lon="-4.988917">
        <ele>1723.0</ele>
        <time>2018-08-13T12:52:15Z</time>
      </trkpt>
      <trkpt lat="40.555333" lon="-4.988983">
        <ele>1725.0</ele>
        <time>2018-08-13T12:52:16Z</time>
      </trkpt>
      <trkpt lat="40.555333" lon="-4.989050">
        <ele>1728.0</ele>
        <time>2018-08-13T12:52:17Z</time>
      </trkpt>
      <trkpt lat="40.555317" lon="-4.989117">
        <ele>1731.0</ele>
        <time>2018-08-13T12:52:18Z</time>
      </trkpt>
      <trkpt lat="40.555283" lon="-4.989167">
        <ele>1733.0</ele>
        <time>2018-08-13T12:52:19Z</time>
      </trkpt>
      <trkpt lat="40.555267" lon="-4.989200">
        <ele>1734.0</ele>
        <time>2018-08-13T12:52:20Z</time>
      </trkpt>
      <trkpt lat="40.555233" lon="-4.989250">
        <ele>1734.0</ele>
        <time>2018-08-13T12:52:21Z</time>
      </trkpt>
      <trkpt lat="40.555200" lon="-4.989300">
        <ele>1733.0</ele>
        <time>2018-08-13T12:52:22Z</time>
      </trkpt>
      <trkpt lat="40.555200" lon="-4.989367">
        <ele>1732.0</ele>
        <time>2018-08-13T12:52:23Z</time>
      </trkpt>
      <trkpt lat="40.555217" lon="-4.989450">
        <ele>1731.0</ele>
        <time>2018-08-13T12:52:24Z</time>
      </trkpt>
      <trkpt lat="40.555250" lon="-4.989517">
        <ele>1730.0</ele>
        <time>2018-08-13T12:52:25Z</time>
      </trkpt>
      <trkpt lat="40.555317" lon="-4.989550">
        <ele>1731.0</ele>
        <time>2018-08-13T12:52:26Z</time>
      </trkpt>
      <trkpt lat="40.555367" lon="-4.989550">
        <ele>1731.0</ele>
        <time>2018-08-13T12:52:27Z</time>
      </trkpt>
      <trkpt lat="40.555417" lon="-4.989533">
        <ele>1730.0</ele>
        <time>2018-08-13T12:52:28Z</time>
      </trkpt>
      <trkpt lat="40.555483" lon="-4.989483">
        <ele>1727.0</ele>
        <time>2018-08-13T12:52:29Z</time>
      </trkpt>
      <trkpt lat="40.555550" lon="-4.989433">
        <ele>1723.0</ele>
        <time>2018-08-13T12:52:30Z</time>
      </trkpt>
      <trkpt lat="40.555650" lon="-4.989367">
        <ele>1720.0</ele>
        <time>2018-08-13T12:52:31Z</time>
      </trkpt>
      <trkpt lat="40.555750" lon="-4.989267">
        <ele>1718.0</ele>
        <time>2018-08-13T12:52:32Z</time>
      </trkpt>
      <trkpt lat="40.555817" lon="-4.989117">
        <ele>1717.0</ele>
        <time>2018-08-13T12:52:33Z</time>
      </trkpt>
      <trkpt lat="40.555883" lon="-4.988950">
        <ele>1716.0</ele>
        <time>2018-08-13T12:52:34Z</time>
      </trkpt>
      <trkpt lat="40.555933" lon="-4.988750">
        <ele>1715.0</ele>
        <time>2018-08-13T12:52:35Z</time>
      </trkpt>
      <trkpt lat="40.555950" lon="-4.988567">
        <ele>1715.0</ele>
        <time>2018-08-13T12:52:36Z</time>
      </trkpt>
      <trkpt lat="40.555967" lon="-4.988383">
        <ele>1714.0</ele>
        <time>2018-08-13T12:52:37Z</time>
      </trkpt>
      <trkpt lat="40.555967" lon="-4.988183">
        <ele>1711.0</ele>
        <time>2018-08-13T12:52:38Z</time>
      </trkpt>
      <trkpt lat="40.555950" lon="-4.987983">
        <ele>1710.0</ele>
        <time>2018-08-13T12:52:39Z</time>
      </trkpt>
      <trkpt lat="40.555933" lon="-4.987783">
        <ele>1711.0</ele>
        <time>2018-08-13T12:52:40Z</time>
      </trkpt>
      <trkpt lat="40.555900" lon="-4.987583">
        <ele>1712.0</ele>
        <time>2018-08-13T12:52:41Z</time>
      </trkpt>
      <trkpt lat="40.555867" lon="-4.987417">
        <ele>1714.0</ele>
        <time>2018-08-13T12:52:42Z</time>
      </trkpt>
      <trkpt lat="40.555833" lon="-4.987267">
        <ele>1715.0</ele>
        <time>2018-08-13T12:52:43Z</time>
      </trkpt>
      <trkpt lat="40.555800" lon="-4.987100">
        <ele>1715.0</ele>
        <time>2018-08-13T12:52:44Z</time>
      </trkpt>
      <trkpt lat="40.555767" lon="-4.986933">
        <ele>1715.0</ele>
        <time>2018-08-13T12:52:45Z</time>
      </trkpt>
      <trkpt lat="40.555733" lon="-4.986767">
        <ele>1714.0</ele>
        <time>2018-08-13T12:52:46Z</time>
      </trkpt>
      <trkpt lat="40.555683" lon="-4.986583">
        <ele>1713.0</ele>
        <time>2018-08-13T12:52:47Z</time>
      </trkpt>
      <trkpt lat="40.555617" lon="-4.986417">
        <ele>1712.0</ele>
        <time>2018-08-13T12:52:48Z</time>
      </trkpt>
      <trkpt lat="40.555567" lon="-4.986233">
        <ele>1712.0</ele>
        <time>2018-08-13T12:52:49Z</time>
      </trkpt>
      <trkpt lat="40.555500" lon="-4.986067">
        <ele>1712.0</ele>
        <time>2018-08-13T12:52:50Z</time>
      </trkpt>
      <trkpt lat="40.555433" lon="-4.985900">
        <ele>1712.0</ele>
        <time>2018-08-13T12:52:51Z</time>
      </trkpt>
      <trkpt lat="40.555383" lon="-4.985733">
        <ele>1713.0</ele>
        <time>2018-08-13T12:52:52Z</time>
      </trkpt>
      <trkpt lat="40.555317" lon="-4.985583">
        <ele>1712.0</ele>
        <time>2018-08-13T12:52:53Z</time>
      </trkpt>
      <trkpt lat="40.555250" lon="-4.985433">
        <ele>1712.0</ele>
        <time>2018-08-13T12:52:54Z</time>
      </trkpt>
      <trkpt lat="40.555183" lon="-4.985267">
        <ele>1711.0</ele>
        <time>2018-08-13T12:52:55Z</time>
      </trkpt>
      <trkpt lat="40.555117" lon="-4.985100">
        <ele>1711.0</ele>
        <time>2018-08-13T12:52:56Z</time>
      </trkpt>
      <trkpt lat="40.555050" lon="-4.984933">
        <ele>1712.0</ele>
        <time>2018-08-13T12:52:57Z</time>
      </trkpt>
      <trkpt lat="40.554983" lon="-4.984767">
        <ele>1713.0</ele>
        <time>2018-08-13T12:52:58Z</time>
      </trkpt>
      <trkpt lat="40.554917" lon="-4.984600">
        <ele>1714.0</ele>
        <time>2018-08-13T12:52:59Z</time>
      </trkpt>
      <trkpt lat="40.554850" lon="-4.984450">
        <ele>1715.0</ele>
        <time>2018-08-13T12:53:00Z</time>
      </trkpt>
      <trkpt lat="40.554800" lon="-4.984267">
        <ele>1715.0</ele>
        <time>2018-08-13T12:53:01Z</time>
      </trkpt>
      <trkpt lat="40.554750" lon="-4.984067">
        <ele>1714.0</ele>
        <time>2018-08-13T12:53:02Z</time>
      </trkpt>
      <trkpt lat="40.554717" lon="-4.983867">
        <ele>1714.0</ele>
        <time>2018-08-13T12:53:03Z</time>
      </trkpt>
      <trkpt lat="40.554667" lon="-4.983667">
        <ele>1716.0</ele>
        <time>2018-08-13T12:53:04Z</time>
      </trkpt>
      <trkpt lat="40.554617" lon="-4.983467">
        <ele>1717.0</ele>
        <time>2018-08-13T12:53:05Z</time>
      </trkpt>
      <trkpt lat="40.554533" lon="-4.983300">
        <ele>1717.0</ele>
        <time>2018-08-13T12:53:06Z</time>
      </trkpt>
      <trkpt lat="40.554433" lon="-4.983183">
        <ele>1716.0</ele>
        <time>2018-08-13T12:53:07Z</time>
      </trkpt>
      <trkpt lat="40.554317" lon="-4.983100">
        <ele>1714.0</ele>
        <time>2018-08-13T12:53:08Z</time>
      </trkpt>
      <trkpt lat="40.554200" lon="-4.983067">
        <ele>1713.0</ele>
        <time>2018-08-13T12:53:09Z</time>
      </trkpt>
      <trkpt lat="40.554083" lon="-4.983050">
        <ele>1712.0</ele>
        <time>2018-08-13T12:53:10Z</time>
      </trkpt>
      <trkpt lat="40.553967" lon="-4.983050">
        <ele>1712.0</ele>
        <time>2018-08-13T12:53:11Z</time>
      </trkpt>
      <trkpt lat="40.553867" lon="-4.983083">
        <ele>1714.0</ele>
        <time>2018-08-13T12:53:12Z</time>
      </trkpt>
      <trkpt lat="40.553767" lon="-4.983133">
        <ele>1715.0</ele>
        <time>2018-08-13T12:53:13Z</time>
      </trkpt>
      <trkpt lat="40.553700" lon="-4.983167">
        <ele>1717.0</ele>
        <time>2018-08-13T12:53:14Z</time>
      </trkpt>
      <trkpt lat="40.553617" lon="-4.983217">
        <ele>1720.0</ele>
        <time>2018-08-13T12:53:15Z</time>
      </trkpt>
      <trkpt lat="40.553567" lon="-4.983283">
        <ele>1721.0</ele>
        <time>2018-08-13T12:53:16Z</time>
      </trkpt>
      <trkpt lat="40.553533" lon="-4.983350">
        <ele>1722.0</ele>
        <time>2018-08-13T12:53:17Z</time>
      </trkpt>
      <trkpt lat="40.553517" lon="-4.983433">
        <ele>1723.0</ele>
        <time>2018-08-13T12:53:18Z</time>
      </trkpt>
      <trkpt lat="40.553517" lon="-4.983517">
        <ele>1726.0</ele>
        <time>2018-08-13T12:53:19Z</time>
      </trkpt>
      <trkpt lat="40.553533" lon="-4.983567">
        <ele>1729.0</ele>
        <time>2018-08-13T12:53:20Z</time>
      </trkpt>
      <trkpt lat="40.553550" lon="-4.983617">
        <ele>1733.0</ele>
        <time>2018-08-13T12:53:21Z</time>
      </trkpt>
      <trkpt lat="40.553583" lon="-4.983633">
        <ele>1735.0</ele>
        <time>2018-08-13T12:53:22Z</time>
      </trkpt>
      <trkpt lat="40.553617" lon="-4.983633">
        <ele>1737.0</ele>
        <time>2018-08-13T12:53:23Z</time>
      </trkpt>
      <trkpt lat="40.553650" lon="-4.983617">
        <ele>1737.0</ele>
        <time>2018-08-13T12:53:24Z</time>
      </trkpt>
      <trkpt lat="40.553700" lon="-4.983583">
        <ele>1736.0</ele>
        <time>2018-08-13T12:53:25Z</time>
      </trkpt>
      <trkpt lat="40.553767" lon="-4.983517">
        <ele>1735.0</ele>
        <time>2018-08-13T12:53:26Z</time>
      </trkpt>
      <trkpt lat="40.553817" lon="-4.983433">
        <ele>1734.0</ele>
        <time>2018-08-13T12:53:27Z</time>
      </trkpt>
      <trkpt lat="40.553883" lon="-4.983300">
        <ele>1733.0</ele>
        <time>2018-08-13T12:53:28Z</time>
      </trkpt>
      <trkpt lat="40.553917" lon="-4.983117">
        <ele>1732.0</ele>
        <time>2018-08-13T12:53:29Z</time>
      </trkpt>
      <trkpt lat="40.553933" lon="-4.982933">
        <ele>1731.0</ele>
        <time>2018-08-13T12:53:30Z</time>
      </trkpt>
      <trkpt lat="40.553917" lon="-4.982750">
        <ele>1731.0</ele>
        <time>2018-08-13T12:53:31Z</time>
      </trkpt>
      <trkpt lat="40.553867" lon="-4.982567">
        <ele>1731.0</ele>
        <time>2018-08-13T12:53:32Z</time>
      </trkpt>
      <trkpt lat="40.553800" lon="-4.982367">
        <ele>1731.0</ele>
        <time>2018-08-13T12:53:33Z</time>
      </trkpt>
      <trkpt lat="40.553717" lon="-4.982183">
        <ele>1731.0</ele>
        <time>2018-08-13T12:53:34Z</time>
      </trkpt>
      <trkpt lat="40.553633" lon="-4.982017">
        <ele>1732.0</ele>
        <time>2018-08-13T12:53:35Z</time>
      </trkpt>
      <trkpt lat="40.553533" lon="-4.981867">
        <ele>1734.0</ele>
        <time>2018-08-13T12:53:36Z</time>
      </trkpt>
      <trkpt lat="40.553433" lon="-4.981717">
        <ele>1736.0</ele>
        <time>2018-08-13T12:53:37Z</time>
      </trkpt>
      <trkpt lat="40.553350" lon="-4.981567">
        <ele>1738.0</ele>
        <time>2018-08-13T12:53:38Z</time>
      </trkpt>
      <trkpt lat="40.553267" lon="-4.981417">
        <ele>1741.0</ele>
        <time>2018-08-13T12:53:39Z</time>
      </trkpt>
      <trkpt lat="40.553183" lon="-4.981267">
        <ele>1742.0</ele>
        <time>2018-08-13T12:53:40Z</time>
      </trkpt>
      <trkpt lat="40.553100" lon="-4.981117">
        <ele>1743.0</ele>
        <time>2018-08-13T12:53:41Z</time>
      </trkpt>
      <trkpt lat="40.553000" lon="-4.980967">
        <ele>1742.0</ele>
        <time>2018-08-13T12:53:42Z</time>
      </trkpt>
      <trkpt lat="40.552900" lon="-4.980833">
        <ele>1742.0</ele>
        <time>2018-08-13T12:53:43Z</time>
      </trkpt>
      <trkpt lat="40.552783" lon="-4.980700">
        <ele>1743.0</ele>
        <time>2018-08-13T12:53:44Z</time>
      </trkpt>
      <trkpt lat="40.552683" lon="-4.980567">
        <ele>1744.0</ele>
        <time>2018-08-13T12:53:45Z</time>
      </trkpt>
      <trkpt lat="40.552567" lon="-4.980467">
        <ele>1743.0</ele>
        <time>2018-08-13T12:53:46Z</time>
      </trkpt>
      <trkpt lat="40.552433" lon="-4.980367">
        <ele>1744.0</ele>
        <time>2018-08-13T12:53:47Z</time>
      </trkpt>
      <trkpt lat="40.552317" lon="-4.980283">
        <ele>1743.0</ele>
        <time>2018-08-13T12:53:48Z</time>
      </trkpt>
      <trkpt lat="40.552183" lon="-4.980217">
        <ele>1744.0</ele>
        <time>2018-08-13T12:53:49Z</time>
      </trkpt>
      <trkpt lat="40.552067" lon="-4.980167">
        <ele>1745.0</ele>
        <time>2018-08-13T12:53:50Z</time>
      </trkpt>
      <trkpt lat="40.551933" lon="-4.980117">
        <ele>1748.0</ele>
        <time>2018-08-13T12:53:51Z</time>
      </trkpt>
      <trkpt lat="40.551833" lon="-4.980050">
        <ele>1751.0</ele>
        <time>2018-08-13T12:53:52Z</time>
      </trkpt>
      <trkpt lat="40.551717" lon="-4.979967">
        <ele>1754.0</ele>
        <time>2018-08-13T12:53:53Z</time>
      </trkpt>
      <trkpt lat="40.551600" lon="-4.979883">
        <ele>1756.0</ele>
        <time>2018-08-13T12:53:54Z</time>
      </trkpt>
      <trkpt lat="40.551500" lon="-4.979800">
        <ele>1757.0</ele>
        <time>2018-08-13T12:53:55Z</time>
      </trkpt>
      <trkpt lat="40.551383" lon="-4.979717">
        <ele>1760.0</ele>
        <time>2018-08-13T12:53:56Z</time>
      </trkpt>
      <trkpt lat="40.551283" lon="-4.979633">
        <ele>1762.0</ele>
        <time>2018-08-13T12:53:57Z</time>
      </trkpt>
      <trkpt lat="40.551167" lon="-4.979550">
        <ele>1764.0</ele>
        <time>2018-08-13T12:53:58Z</time>
      </trkpt>
      <trkpt lat="40.551067" lon="-4.979500">
        <ele>1764.0</ele>
        <time>2018-08-13T12:53:59Z</time>
      </trkpt>
      <trkpt lat="40.550967" lon="-4.979483">
        <ele>1763.0</ele>
        <time>2018-08-13T12:54:00Z</time>
      </trkpt>
      <trkpt lat="40.550850" lon="-4.979467">
        <ele>1762.0</ele>
        <time>2018-08-13T12:54:01Z</time>
      </trkpt>
      <trkpt lat="40.550733" lon="-4.979483">
        <ele>1760.0</ele>
        <time>2018-08-13T12:54:02Z</time>
      </trkpt>
      <trkpt lat="40.550617" lon="-4.979500">
        <ele>1760.0</ele>
        <time>2018-08-13T12:54:03Z</time>
      </trkpt>
      <trkpt lat="40.550483" lon="-4.979517">
        <ele>1762.0</ele>
        <time>2018-08-13T12:54:04Z</time>
      </trkpt>
      <trkpt lat="40.550367" lon="-4.979533">
        <ele>1766.0</ele>
        <time>2018-08-13T12:54:05Z</time>
      </trkpt>
      <trkpt lat="40.550250" lon="-4.979550">
        <ele>1770.0</ele>
        <time>2018-08-13T12:54:06Z</time>
      </trkpt>
      <trkpt lat="40.550150" lon="-4.979550">
        <ele>1774.0</ele>
        <time>2018-08-13T12:54:07Z</time>
      </trkpt>
      <trkpt lat="40.550050" lon="-4.979533">
        <ele>1776.0</ele>
        <time>2018-08-13T12:54:08Z</time>
      </trkpt>
      <trkpt lat="40.549967" lon="-4.979500">
        <ele>1776.0</ele>
        <time>2018-08-13T12:54:09Z</time>
      </trkpt>
      <trkpt lat="40.549867" lon="-4.979483">
        <ele>1776.0</ele>
        <time>2018-08-13T12:54:10Z</time>
      </trkpt>
      <trkpt lat="40.549767" lon="-4.979483">
        <ele>1775.0</ele>
        <time>2018-08-13T12:54:11Z</time>
      </trkpt>
      <trkpt lat="40.549650" lon="-4.979517">
        <ele>1774.0</ele>
        <time>2018-08-13T12:54:12Z</time>
      </trkpt>
      <trkpt lat="40.549550" lon="-4.979600">
        <ele>1773.0</ele>
        <time>2018-08-13T12:54:13Z</time>
      </trkpt>
      <trkpt lat="40.549467" lon="-4.979700">
        <ele>1774.0</ele>
        <time>2018-08-13T12:54:14Z</time>
      </trkpt>
      <trkpt lat="40.549400" lon="-4.979817">
        <ele>1774.0</ele>
        <time>2018-08-13T12:54:15Z</time>
      </trkpt>
      <trkpt lat="40.549367" lon="-4.979917">
        <ele>1775.0</ele>
        <time>2018-08-13T12:54:16Z</time>
      </trkpt>
      <trkpt lat="40.549350" lon="-4.980033">
        <ele>1776.0</ele>
        <time>2018-08-13T12:54:17Z</time>
      </trkpt>
      <trkpt lat="40.549350" lon="-4.980150">
        <ele>1776.0</ele>
        <time>2018-08-13T12:54:18Z</time>
      </trkpt>
      <trkpt lat="40.549350" lon="-4.980250">
        <ele>1777.0</ele>
        <time>2018-08-13T12:54:19Z</time>
      </trkpt>
      <trkpt lat="40.549367" lon="-4.980350">
        <ele>1779.0</ele>
        <time>2018-08-13T12:54:20Z</time>
      </trkpt>
      <trkpt lat="40.549383" lon="-4.980433">
        <ele>1781.0</ele>
        <time>2018-08-13T12:54:21Z</time>
      </trkpt>
      <trkpt lat="40.549417" lon="-4.980500">
        <ele>1782.0</ele>
        <time>2018-08-13T12:54:22Z</time>
      </trkpt>
      <trkpt lat="40.549467" lon="-4.980550">
        <ele>1783.0</ele>
        <time>2018-08-13T12:54:23Z</time>
      </trkpt>
      <trkpt lat="40.549517" lon="-4.980583">
        <ele>1785.0</ele>
        <time>2018-08-13T12:54:24Z</time>
      </trkpt>
      <trkpt lat="40.549567" lon="-4.980617">
        <ele>1786.0</ele>
        <time>2018-08-13T12:54:25Z</time>
      </trkpt>
      <trkpt lat="40.549633" lon="-4.980650">
        <ele>1788.0</ele>
        <time>2018-08-13T12:54:26Z</time>
      </trkpt>
      <trkpt lat="40.549717" lon="-4.980650">
        <ele>1789.0</ele>
        <time>2018-08-13T12:54:27Z</time>
      </trkpt>
      <trkpt lat="40.549783" lon="-4.980650">
        <ele>1791.0</ele>
        <time>2018-08-13T12:54:28Z</time>
      </trkpt>
      <trkpt lat="40.549867" lon="-4.980600">
        <ele>1792.0</ele>
        <time>2018-08-13T12:54:29Z</time>
      </trkpt>
      <trkpt lat="40.549933" lon="-4.980533">
        <ele>1794.0</ele>
        <time>2018-08-13T12:54:30Z</time>
      </trkpt>
      <trkpt lat="40.550000" lon="-4.980433">
        <ele>1796.0</ele>
        <time>2018-08-13T12:54:31Z</time>
      </trkpt>
      <trkpt lat="40.550033" lon="-4.980317">
        <ele>1799.0</ele>
        <time>2018-08-13T12:54:32Z</time>
      </trkpt>
      <trkpt lat="40.550050" lon="-4.980200">
        <ele>1800.0</ele>
        <time>2018-08-13T12:54:33Z</time>
      </trkpt>
      <trkpt lat="40.550067" lon="-4.980083">
        <ele>1801.0</ele>
        <time>2018-08-13T12:54:34Z</time>
      </trkpt>
      <trkpt lat="40.550100" lon="-4.979933">
        <ele>1801.0</ele>
        <time>2018-08-13T12:54:35Z</time>
      </trkpt>
      <trkpt lat="40.550100" lon="-4.979783">
        <ele>1801.0</ele>
        <time>2018-08-13T12:54:36Z</time>
      </trkpt>
      <trkpt lat="40.550100" lon="-4.979633">
        <ele>1801.0</ele>
        <time>2018-08-13T12:54:37Z</time>
      </trkpt>
      <trkpt lat="40.550050" lon="-4.979483">
        <ele>1802.0</ele>
        <time>2018-08-13T12:54:38Z</time>
      </trkpt>
      <trkpt lat="40.549983" lon="-4.979350">
        <ele>1803.0</ele>
        <time>2018-08-13T12:54:39Z</time>
      </trkpt>
      <trkpt lat="40.549900" lon="-4.979233">
        <ele>1804.0</ele>
        <time>2018-08-13T12:54:40Z</time>
      </trkpt>
      <trkpt lat="40.549817" lon="-4.979117">
        <ele>1807.0</ele>
        <time>2018-08-13T12:54:41Z</time>
      </trkpt>
      <trkpt lat="40.549717" lon="-4.979017">
        <ele>1810.0</ele>
        <time>2018-08-13T12:54:42Z</time>
      </trkpt>
      <trkpt lat="40.549617" lon="-4.978933">
        <ele>1813.0</ele>
        <time>2018-08-13T12:54:43Z</time>
      </trkpt>
      <trkpt lat="40.549517" lon="-4.978900">
        <ele>1815.0</ele>
        <time>2018-08-13T12:54:44Z</time>
      </trkpt>
      <trkpt lat="40.549400" lon="-4.978900">
        <ele>1817.0</ele>
        <time>2018-08-13T12:54:45Z</time>
      </trkpt>
      <trkpt lat="40.549300" lon="-4.978917">
        <ele>1819.0</ele>
        <time>2018-08-13T12:54:46Z</time>
      </trkpt>
      <trkpt lat="40.549217" lon="-4.978967">
        <ele>1821.0</ele>
        <time>2018-08-13T12:54:47Z</time>
      </trkpt>
      <trkpt lat="40.549133" lon="-4.979033">
        <ele>1823.0</ele>
        <time>2018-08-13T12:54:48Z</time>
      </trkpt>
      <trkpt lat="40.549083" lon="-4.979100">
        <ele>1824.0</ele>
        <time>2018-08-13T12:54:49Z</time>
      </trkpt>
      <trkpt lat="40.549017" lon="-4.979167">
        <ele>1825.0</ele>
        <time>2018-08-13T12:54:50Z</time>
      </trkpt>
      <trkpt lat="40.548983" lon="-4.979267">
        <ele>1826.0</ele>
        <time>2018-08-13T12:54:51Z</time>
      </trkpt>
      <trkpt lat="40.548967" lon="-4.979350">
        <ele>1827.0</ele>
        <time>2018-08-13T12:54:52Z</time>
      </trkpt>
      <trkpt lat="40.548983" lon="-4.979467">
        <ele>1828.0</ele>
        <time>2018-08-13T12:54:53Z</time>
      </trkpt>
      <trkpt lat="40.549017" lon="-4.979550">
        <ele>1829.0</ele>
        <time>2018-08-13T12:54:54Z</time>
      </trkpt>
      <trkpt lat="40.549067" lon="-4.979600">
        <ele>1831.0</ele>
        <time>2018-08-13T12:54:55Z</time>
      </trkpt>
      <trkpt lat="40.549150" lon="-4.979617">
        <ele>1836.0</ele>
        <time>2018-08-13T12:54:56Z</time>
      </trkpt>
      <trkpt lat="40.549217" lon="-4.979600">
        <ele>1839.0</ele>
        <time>2018-08-13T12:54:57Z</time>
      </trkpt>
      <trkpt lat="40.549267" lon="-4.979583">
        <ele>1842.0</ele>
        <time>2018-08-13T12:54:58Z</time>
      </trkpt>
      <trkpt lat="40.549300" lon="-4.979533">
        <ele>1845.0</ele>
        <time>2018-08-13T12:54:59Z</time>
      </trkpt>
      <trkpt lat="40.549367" lon="-4.979467">
        <ele>1846.0</ele>
        <time>2018-08-13T12:55:00Z</time>
      </trkpt>
      <trkpt lat="40.549433" lon="-4.979367">
        <ele>1845.0</ele>
        <time>2018-08-13T12:55:01Z</time>
      </trkpt>
      <trkpt lat="40.549517" lon="-4.979283">
        <ele>1845.0</ele>
        <time>2018-08-13T12:55:02Z</time>
      </trkpt>
      <trkpt lat="40.549583" lon="-4.979167">
        <ele>1846.0</ele>
        <time>2018-08-13T12:55:03Z</time>
      </trkpt>
      <trkpt lat="40.549633" lon="-4.979050">
        <ele>1848.0</ele>
        <time>2018-08-13T12:55:04Z</time>
      </trkpt>
      <trkpt lat="40.549667" lon="-4.978900">
        <ele>1849.0</ele>
        <time>2018-08-13T12:55:05Z</time>
      </trkpt>
      <trkpt lat="40.549683" lon="-4.978767">
        <ele>1851.0</ele>
        <time>2018-08-13T12:55:06Z</time>
      </trkpt>
      <trkpt lat="40.549700" lon="-4.978617">
        <ele>1852.0</ele>
        <time>2018-08-13T12:55:07Z</time>
      </trkpt>
      <trkpt lat="40.549700" lon="-4.978450">
        <ele>1852.0</ele>
        <time>2018-08-13T12:55:08Z</time>
      </trkpt>
      <trkpt lat="40.549683" lon="-4.978300">
        <ele>1853.0</ele>
        <time>2018-08-13T12:55:09Z</time>
      </trkpt>
      <trkpt lat="40.549650" lon="-4.978150">
        <ele>1854.0</ele>
        <time>2018-08-13T12:55:10Z</time>
      </trkpt>
      <trkpt lat="40.549617" lon="-4.978000">
        <ele>1855.0</ele>
        <time>2018-08-13T12:55:11Z</time>
      </trkpt>
      <trkpt lat="40.549567" lon="-4.977850">
        <ele>1856.0</ele>
        <time>2018-08-13T12:55:12Z</time>
      </trkpt>
      <trkpt lat="40.549517" lon="-4.977717">
        <ele>1856.0</ele>
        <time>2018-08-13T12:55:13Z</time>
      </trkpt>
      <trkpt lat="40.549450" lon="-4.977583">
        <ele>1857.0</ele>
        <time>2018-08-13T12:55:14Z</time>
      </trkpt>
      <trkpt lat="40.549383" lon="-4.977450">
        <ele>1858.0</ele>
        <time>2018-08-13T12:55:15Z</time>
      </trkpt>
      <trkpt lat="40.549333" lon="-4.977300">
        <ele>1859.0</ele>
        <time>2018-08-13T12:55:16Z</time>
      </trkpt>
      <trkpt lat="40.549283" lon="-4.977167">
        <ele>1860.0</ele>
        <time>2018-08-13T12:55:17Z</time>
      </trkpt>
      <trkpt lat="40.549233" lon="-4.977033">
        <ele>1861.0</ele>
        <time>2018-08-13T12:55:18Z</time>
      </trkpt>
      <trkpt lat="40.549183" lon="-4.976900">
        <ele>1862.0</ele>
        <time>2018-08-13T12:55:19Z</time>
      </trkpt>
      <trkpt lat="40.549100" lon="-4.976783">
        <ele>1862.0</ele>
        <time>2018-08-13T12:55:20Z</time>
      </trkpt>
      <trkpt lat="40.549017" lon="-4.976667">
        <ele>1861.0</ele>
        <time>2018-08-13T12:55:21Z</time>
      </trkpt>
      <trkpt lat="40.548900" lon="-4.976583">
        <ele>1861.0</ele>
        <time>2018-08-13T12:55:22Z</time>
      </trkpt>
      <trkpt lat="40.548767" lon="-4.976517">
        <ele>1862.0</ele>
        <time>2018-08-13T12:55:23Z</time>
      </trkpt>
      <trkpt lat="40.548650" lon="-4.976483">
        <ele>1864.0</ele>
        <time>2018-08-13T12:55:24Z</time>
      </trkpt>
      <trkpt lat="40.548533" lon="-4.976467">
        <ele>1867.0</ele>
        <time>2018-08-13T12:55:25Z</time>
      </trkpt>
      <trkpt lat="40.548417" lon="-4.976467">
        <ele>1870.0</ele>
        <time>2018-08-13T12:55:26Z</time>
      </trkpt>
      <trkpt lat="40.548300" lon="-4.976450">
        <ele>1874.0</ele>
        <time>2018-08-13T12:55:27Z</time>
      </trkpt>
      <trkpt lat="40.548200" lon="-4.976417">
        <ele>1877.0</ele>
        <time>2018-08-13T12:55:28Z</time>
      </trkpt>
      <trkpt lat="40.548100" lon="-4.976383">
        <ele>1881.0</ele>
        <time>2018-08-13T12:55:29Z</time>
      </trkpt>
      <trkpt lat="40.548000" lon="-4.976317">
        <ele>1883.0</ele>
        <time>2018-08-13T12:55:30Z</time>
      </trkpt>
      <trkpt lat="40.547900" lon="-4.976250">
        <ele>1885.0</ele>
        <time>2018-08-13T12:55:31Z</time>
      </trkpt>
      <trkpt lat="40.547800" lon="-4.976183">
        <ele>1887.0</ele>
        <time>2018-08-13T12:55:32Z</time>
      </trkpt>
      <trkpt lat="40.547700" lon="-4.976083">
        <ele>1889.0</ele>
        <time>2018-08-13T12:55:33Z</time>
      </trkpt>
      <trkpt lat="40.547600" lon="-4.976000">
        <ele>1891.0</ele>
        <time>2018-08-13T12:55:34Z</time>
      </trkpt>
      <trkpt lat="40.547483" lon="-4.975900">
        <ele>1893.0</ele>
        <time>2018-08-13T12:55:35Z</time>
      </trkpt>
      <trkpt lat="40.547367" lon="-4.975833">
        <ele>1895.0</ele>
        <time>2018-08-13T12:55:36Z</time>
      </trkpt>
      <trkpt lat="40.547250" lon="-4.975783">
        <ele>1898.0</ele>
        <time>2018-08-13T12:55:37Z</time>
      </trkpt>
      <trkpt lat="40.547133" lon="-4.975733">
        <ele>1901.0</ele>
        <time>2018-08-13T12:55:38Z</time>
      </trkpt>
      <trkpt lat="40.547017" lon="-4.975683">
        <ele>1904.0</ele>
        <time>2018-08-13T12:55:39Z</time>
      </trkpt>
      <trkpt lat="40.546900" lon="-4.975650">
        <ele>1907.0</ele>
        <time>2018-08-13T12:55:40Z</time>
      </trkpt>
      <trkpt lat="40.546783" lon="-4.975617">
        <ele>1909.0</ele>
        <time>2018-08-13T12:55:41Z</time>
      </trkpt>
      <trkpt lat="40.546667" lon="-4.975617">
        <ele>1911.0</ele>
        <time>2018-08-13T12:55:42Z</time>
      </trkpt>
      <trkpt lat="40.546550" lon="-4.975650">
        <ele>1912.0</ele>
        <time>2018-08-13T12:55:43Z</time>
      </trkpt>
      <trkpt lat="40.546467" lon="-4.975700">
        <ele>1913.0</ele>
        <time>2018-08-13T12:55:44Z</time>
      </trkpt>
      <trkpt lat="40.546400" lon="-4.975800">
        <ele>1913.0</ele>
        <time>2018-08-13T12:55:45Z</time>
      </trkpt>
      <trkpt lat="40.546367" lon="-4.975883">
        <ele>1913.0</ele>
        <time>2018-08-13T12:55:46Z</time>
      </trkpt>
      <trkpt lat="40.546367" lon="-4.975967">
        <ele>1913.0</ele>
        <time>2018-08-13T12:55:47Z</time>
      </trkpt>
      <trkpt lat="40.546383" lon="-4.976033">
        <ele>1913.0</ele>
        <time>2018-08-13T12:55:48Z</time>
      </trkpt>
      <trkpt lat="40.546450" lon="-4.976050">
        <ele>1913.0</ele>
        <time>2018-08-13T12:55:49Z</time>
      </trkpt>
      <trkpt lat="40.546517" lon="-4.976017">
        <ele>1912.0</ele>
        <time>2018-08-13T12:55:50Z</time>
      </trkpt>
      <trkpt lat="40.546600" lon="-4.975950">
        <ele>1911.0</ele>
        <time>2018-08-13T12:55:51Z</time>
      </trkpt>
      <trkpt lat="40.546667" lon="-4.975850">
        <ele>1911.0</ele>
        <time>2018-08-13T12:55:52Z</time>
      </trkpt>
      <trkpt lat="40.546717" lon="-4.975767">
        <ele>1913.0</ele>
        <time>2018-08-13T12:55:53Z</time>
      </trkpt>
      <trkpt lat="40.546767" lon="-4.975667">
        <ele>1915.0</ele>
        <time>2018-08-13T12:55:54Z</time>
      </trkpt>
      <trkpt lat="40.546783" lon="-4.975533">
        <ele>1917.0</ele>
        <time>2018-08-13T12:55:55Z</time>
      </trkpt>
      <trkpt lat="40.546800" lon="-4.975400">
        <ele>1917.0</ele>
        <time>2018-08-13T12:55:56Z</time>
      </trkpt>
      <trkpt lat="40.546800" lon="-4.975217">
        <ele>1918.0</ele>
        <time>2018-08-13T12:55:57Z</time>
      </trkpt>
      <trkpt lat="40.546783" lon="-4.975050">
        <ele>1920.0</ele>
        <time>2018-08-13T12:55:58Z</time>
      </trkpt>
      <trkpt lat="40.546750" lon="-4.974867">
        <ele>1923.0</ele>
        <time>2018-08-13T12:55:59Z</time>
      </trkpt>
      <trkpt lat="40.546700" lon="-4.974717">
        <ele>1928.0</ele>
        <time>2018-08-13T12:56:00Z</time>
      </trkpt>
      <trkpt lat="40.546667" lon="-4.974583">
        <ele>1932.0</ele>
        <time>2018-08-13T12:56:01Z</time>
      </trkpt>
      <trkpt lat="40.546617" lon="-4.974450">
        <ele>1935.0</ele>
        <time>2018-08-13T12:56:02Z</time>
      </trkpt>
      <trkpt lat="40.546583" lon="-4.974317">
        <ele>1936.0</ele>
        <time>2018-08-13T12:56:03Z</time>
      </trkpt>
      <trkpt lat="40.546550" lon="-4.974167">
        <ele>1937.0</ele>
        <time>2018-08-13T12:56:04Z</time>
      </trkpt>
      <trkpt lat="40.546500" lon="-4.974017">
        <ele>1938.0</ele>
        <time>2018-08-13T12:56:05Z</time>
      </trkpt>
      <trkpt lat="40.546450" lon="-4.973850">
        <ele>1940.0</ele>
        <time>2018-08-13T12:56:06Z</time>
      </trkpt>
      <trkpt lat="40.546400" lon="-4.973700">
        <ele>1942.0</ele>
        <time>2018-08-13T12:56:07Z</time>
      </trkpt>
      <trkpt lat="40.546317" lon="-4.973550">
        <ele>1944.0</ele>
        <time>2018-08-13T12:56:08Z</time>
      </trkpt>
      <trkpt lat="40.546233" lon="-4.973417">
        <ele>1946.0</ele>
        <time>2018-08-13T12:56:09Z</time>
      </trkpt>
      <trkpt lat="40.546133" lon="-4.973283">
        <ele>1948.0</ele>
        <time>2018-08-13T12:56:10Z</time>
      </trkpt>
      <trkpt lat="40.546050" lon="-4.973150">
        <ele>1950.0</ele>
        <time>2018-08-13T12:56:11Z</time>
      </trkpt>
      <trkpt lat="40.545950" lon="-4.973033">
        <ele>1951.0</ele>
        <time>2018-08-13T12:56:12Z</time>
      </trkpt>
      <trkpt lat="40.545850" lon="-4.972917">
        <ele>1952.0</ele>
        <time>2018-08-13T12:56:13Z</time>
      </trkpt>
      <trkpt lat="40.545733" lon="-4.972817">
        <ele>1953.0</ele>
        <time>2018-08-13T12:56:14Z</time>
      </trkpt>
      <trkpt lat="40.545617" lon="-4.972700">
        <ele>1955.0</ele>
        <time>2018-08-13T12:56:15Z</time>
      </trkpt>
      <trkpt lat="40.545500" lon="-4.972617">
        <ele>1957.0</ele>
        <time>2018-08-13T12:56:16Z</time>
      </trkpt>
      <trkpt lat="40.545400" lon="-4.972517">
        <ele>1960.0</ele>
        <time>2018-08-13T12:56:17Z</time>
      </trkpt>
      <trkpt lat="40.545300" lon="-4.972450">
        <ele>1962.0</ele>
        <time>2018-08-13T12:56:18Z</time>
      </trkpt>
      <trkpt lat="40.545183" lon="-4.972367">
        <ele>1962.0</ele>
        <time>2018-08-13T12:56:19Z</time>
      </trkpt>
      <trkpt lat="40.545067" lon="-4.972300">
        <ele>1962.0</ele>
        <time>2018-08-13T12:56:20Z</time>
      </trkpt>
      <trkpt lat="40.544950" lon="-4.972233">
        <ele>1961.0</ele>
        <time>2018-08-13T12:56:21Z</time>
      </trkpt>
      <trkpt lat="40.544817" lon="-4.972183">
        <ele>1960.0</ele>
        <time>2018-08-13T12:56:22Z</time>
      </trkpt>
      <trkpt lat="40.544683" lon="-4.972133">
        <ele>1958.0</ele>
        <time>2018-08-13T12:56:23Z</time>
      </trkpt>
      <trkpt lat="40.544567" lon="-4.972117">
        <ele>1957.0</ele>
        <time>2018-08-13T12:56:24Z</time>
      </trkpt>
      <trkpt lat="40.544450" lon="-4.972150">
        <ele>1957.0</ele>
        <time>2018-08-13T12:56:25Z</time>
      </trkpt>
      <trkpt lat="40.544350" lon="-4.972200">
        <ele>1957.0</ele>
        <time>2018-08-13T12:56:26Z</time>
      </trkpt>
      <trkpt lat="40.544267" lon="-4.972250">
        <ele>1957.0</ele>
        <time>2018-08-13T12:56:27Z</time>
      </trkpt>
      <trkpt lat="40.544183" lon="-4.972300">
        <ele>1957.0</ele>
        <time>2018-08-13T12:56:28Z</time>
      </trkpt>
      <trkpt lat="40.544117" lon="-4.972367">
        <ele>1957.0</ele>
        <time>2018-08-13T12:56:29Z</time>
      </trkpt>
      <trkpt lat="40.544067" lon="-4.972433">
        <ele>1957.0</ele>
        <time>2018-08-13T12:56:30Z</time>
      </trkpt>
      <trkpt lat="40.544017" lon="-4.972500">
        <ele>1956.0</ele>
        <time>2018-08-13T12:56:31Z</time>
      </trkpt>
      <trkpt lat="40.543983" lon="-4.972567">
        <ele>1954.0</ele>
        <time>2018-08-13T12:56:32Z</time>
      </trkpt>
      <trkpt lat="40.543967" lon="-4.972650">
        <ele>1953.0</ele>
        <time>2018-08-13T12:56:33Z</time>
      </trkpt>
      <trkpt lat="40.543950" lon="-4.972717">
        <ele>1953.0</ele>
        <time>2018-08-13T12:56:34Z</time>
      </trkpt>
      <trkpt lat="40.543967" lon="-4.972783">
        <ele>1952.0</ele>
        <time>2018-08-13T12:56:35Z</time>
      </trkpt>
      <trkpt lat="40.543983" lon="-4.972833">
        <ele>1951.0</ele>
        <time>2018-08-13T12:56:36Z</time>
      </trkpt>
      <trkpt lat="40.544033" lon="-4.972867">
        <ele>1949.0</ele>
        <time>2018-08-13T12:56:37Z</time>
      </trkpt>
      <trkpt lat="40.544083" lon="-4.972900">
        <ele>1949.0</ele>
        <time>2018-08-13T12:56:38Z</time>
      </trkpt>
      <trkpt lat="40.544133" lon="-4.972933">
        <ele>1951.0</ele>
        <time>2018-08-13T12:56:39Z</time>
      </trkpt>
      <trkpt lat="40.544183" lon="-4.972950">
        <ele>1953.0</ele>
        <time>2018-08-13T12:56:40Z</time>
      </trkpt>
      <trkpt lat="40.544233" lon="-4.972950">
        <ele>1955.0</ele>
        <time>2018-08-13T12:56:41Z</time>
      </trkpt>
      <trkpt lat="40.544300" lon="-4.972967">
        <ele>1956.0</ele>
        <time>2018-08-13T12:56:42Z</time>
      </trkpt>
      <trkpt lat="40.544350" lon="-4.972983">
        <ele>1958.0</ele>
        <time>2018-08-13T12:56:43Z</time>
      </trkpt>
      <trkpt lat="40.544417" lon="-4.973000">
        <ele>1961.0</ele>
        <time>2018-08-13T12:56:44Z</time>
      </trkpt>
      <trkpt lat="40.544483" lon="-4.973000">
        <ele>1964.0</ele>
        <time>2018-08-13T12:56:45Z</time>
      </trkpt>
      <trkpt lat="40.544550" lon="-4.972983">
        <ele>1968.0</ele>
        <time>2018-08-13T12:56:46Z</time>
      </trkpt>
      <trkpt lat="40.544600" lon="-4.972950">
        <ele>1972.0</ele>
        <time>2018-08-13T12:56:47Z</time>
      </trkpt>
      <trkpt lat="40.544667" lon="-4.972933">
        <ele>1975.0</ele>
        <time>2018-08-13T12:56:48Z</time>
      </trkpt>
      <trkpt lat="40.544717" lon="-4.972900">
        <ele>1978.0</ele>
        <time>2018-08-13T12:56:49Z</time>
      </trkpt>
      <trkpt lat="40.544783" lon="-4.972883">
        <ele>1980.0</ele>
        <time>2018-08-13T12:56:50Z</time>
      </trkpt>
      <trkpt lat="40.544850" lon="-4.972833">
        <ele>1983.0</ele>
        <time>2018-08-13T12:56:51Z</time>
      </trkpt>
      <trkpt lat="40.544917" lon="-4.972750">
        <ele>1985.0</ele>
        <time>2018-08-13T12:56:52Z</time>
      </trkpt>
      <trkpt lat="40.544967" lon="-4.972633">
        <ele>1987.0</ele>
        <time>2018-08-13T12:56:53Z</time>
      </trkpt>
      <trkpt lat="40.545017" lon="-4.972483">
        <ele>1989.0</ele>
        <time>2018-08-13T12:56:54Z</time>
      </trkpt>
      <trkpt lat="40.545033" lon="-4.972333">
        <ele>1992.0</ele>
        <time>2018-08-13T12:56:55Z</time>
      </trkpt>
      <trkpt lat="40.545000" lon="-4.972150">
        <ele>1995.0</ele>
        <time>2018-08-13T12:56:56Z</time>
      </trkpt>
      <trkpt lat="40.544950" lon="-4.972000">
        <ele>1997.0</ele>
        <time>2018-08-13T12:56:57Z</time>
      </trkpt>
      <trkpt lat="40.544850" lon="-4.971867">
        <ele>1998.0</ele>
        <time>2018-08-13T12:56:58Z</time>
      </trkpt>
      <trkpt lat="40.544733" lon="-4.971800">
        <ele>2000.0</ele>
        <time>2018-08-13T12:56:59Z</time>
      </trkpt>
      <trkpt lat="40.544617" lon="-4.971767">
        <ele>2002.0</ele>
        <time>2018-08-13T12:57:00Z</time>
      </trkpt>
      <trkpt lat="40.544500" lon="-4.971783">
        <ele>2003.0</ele>
        <time>2018-08-13T12:57:01Z</time>
      </trkpt>
      <trkpt lat="40.544400" lon="-4.971850">
        <ele>2004.0</ele>
        <time>2018-08-13T12:57:02Z</time>
      </trkpt>
      <trkpt lat="40.544333" lon="-4.971950">
        <ele>2005.0</ele>
        <time>2018-08-13T12:57:03Z</time>
      </trkpt>
      <trkpt lat="40.544300" lon="-4.972067">
        <ele>2005.0</ele>
        <time>2018-08-13T12:57:04Z</time>
      </trkpt>
      <trkpt lat="40.544283" lon="-4.972167">
        <ele>2006.0</ele>
        <time>2018-08-13T12:57:05Z</time>
      </trkpt>
      <trkpt lat="40.544300" lon="-4.972267">
        <ele>2009.0</ele>
        <time>2018-08-13T12:57:06Z</time>
      </trkpt>
      <trkpt lat="40.544317" lon="-4.972367">
        <ele>2012.0</ele>
        <time>2018-08-13T12:57:07Z</time>
      </trkpt>
      <trkpt lat="40.544350" lon="-4.972433">
        <ele>2016.0</ele>
        <time>2018-08-13T12:57:08Z</time>
      </trkpt>
      <trkpt lat="40.544400" lon="-4.972500">
        <ele>2019.0</ele>
        <time>2018-08-13T12:57:09Z</time>
      </trkpt>
      <trkpt lat="40.544450" lon="-4.972550">
        <ele>2022.0</ele>
        <time>2018-08-13T12:57:10Z</time>
      </trkpt>
      <trkpt lat="40.544500" lon="-4.972583">
        <ele>2025.0</ele>
        <time>2018-08-13T12:57:11Z</time>
      </trkpt>
      <trkpt lat="40.544567" lon="-4.972583">
        <ele>2027.0</ele>
        <time>2018-08-13T12:57:12Z</time>
      </trkpt>
      <trkpt lat="40.544633" lon="-4.972583">
        <ele>2029.0</ele>
        <time>2018-08-13T12:57:13Z</time>
      </trkpt>
      <trkpt lat="40.544700" lon="-4.972550">
        <ele>2031.0</ele>
        <time>2018-08-13T12:57:14Z</time>
      </trkpt>
      <trkpt lat="40.544783" lon="-4.972483">
        <ele>2031.0</ele>
        <time>2018-08-13T12:57:15Z</time>
      </trkpt>
      <trkpt lat="40.544850" lon="-4.972383">
        <ele>2031.0</ele>
        <time>2018-08-13T12:57:16Z</time>
      </trkpt>
      <trkpt lat="40.544917" lon="-4.972267">
        <ele>2032.0</ele>
        <time>2018-08-13T12:57:17Z</time>
      </trkpt>
      <trkpt lat="40.544983" lon="-4.972100">
        <ele>2034.0</ele>
        <time>2018-08-13T12:57:18Z</time>
      </trkpt>
      <trkpt lat="40.545017" lon="-4.971950">
        <ele>2038.0</ele>
        <time>2018-08-13T12:57:19Z</time>
      </trkpt>
      <trkpt lat="40.545033" lon="-4.971800">
        <ele>2043.0</ele>
        <time>2018-08-13T12:57:20Z</time>
      </trkpt>
      <trkpt lat="40.545033" lon="-4.971667">
        <ele>2046.0</ele>
        <time>2018-08-13T12:57:21Z</time>
      </trkpt>
      <trkpt lat="40.545017" lon="-4.971533">
        <ele>2049.0</ele>
        <time>2018-08-13T12:57:22Z</time>
      </trkpt>
      <trkpt lat="40.544983" lon="-4.971383">
        <ele>2051.0</ele>
        <time>2018-08-13T12:57:23Z</time>
      </trkpt>
      <trkpt lat="40.544933" lon="-4.971250">
        <ele>2052.0</ele>
        <time>2018-08-13T12:57:24Z</time>
      </trkpt>
      <trkpt lat="40.544850" lon="-4.971117">
        <ele>2055.0</ele>
        <time>2018-08-13T12:57:25Z</time>
      </trkpt>
      <trkpt lat="40.544750" lon="-4.971017">
        <ele>2057.0</ele>
        <time>2018-08-13T12:57:26Z</time>
      </trkpt>
      <trkpt lat="40.544650" lon="-4.970950">
        <ele>2061.0</ele>
        <time>2018-08-13T12:57:27Z</time>
      </trkpt>
      <trkpt lat="40.544550" lon="-4.970900">
        <ele>2065.0</ele>
        <time>2018-08-13T12:57:28Z</time>
      </trkpt>
      <trkpt lat="40.544450" lon="-4.970900">
        <ele>2068.0</ele>
        <time>2018-08-13T12:57:29Z</time>
      </trkpt>
      <trkpt lat="40.544367" lon="-4.970917">
        <ele>2069.0</ele>
        <time>2018-08-13T12:57:30Z</time>
      </trkpt>
      <trkpt lat="40.544300" lon="-4.970950">
        <ele>2070.0</ele>
        <time>2018-08-13T12:57:31Z</time>
      </trkpt>
      <trkpt lat="40.544217" lon="-4.971033">
        <ele>2071.0</ele>
        <time>2018-08-13T12:57:32Z</time>
      </trkpt>
      <trkpt lat="40.544167" lon="-4.971133">
        <ele>2072.0</ele>
        <time>2018-08-13T12:57:33Z</time>
      </trkpt>
      <trkpt lat="40.544117" lon="-4.971233">
        <ele>2074.0</ele>
        <time>2018-08-13T12:57:34Z</time>
      </trkpt>
      <trkpt lat="40.544100" lon="-4.971350">
        <ele>2077.0</ele>
        <time>2018-08-13T12:57:35Z</time>
      </trkpt>
      <trkpt lat="40.544117" lon="-4.971450">
        <ele>2079.0</ele>
        <time>2018-08-13T12:57:36Z</time>
      </trkpt>
      <trkpt lat="40.544150" lon="-4.971533">
        <ele>2081.0</ele>
        <time>2018-08-13T12:57:37Z</time>
      </trkpt>
      <trkpt lat="40.544200" lon="-4.971600">
        <ele>2083.0</ele>
        <time>2018-08-13T12:57:38Z</time>
      </trkpt>
      <trkpt lat="40.544250" lon="-4.971650">
        <ele>2085.0</ele>
        <time>2018-08-13T12:57:39Z</time>
      </trkpt>
      <trkpt lat="40.544317" lon="-4.971700">
        <ele>2087.0</ele>
        <time>2018-08-13T12:57:40Z</time>
      </trkpt>
      <trkpt lat="40.544383" lon="-4.971717">
        <ele>2089.0</ele>
        <time>2018-08-13T12:57:41Z</time>
      </trkpt>
      <trkpt lat="40.544450" lon="-4.971717">
        <ele>2090.0</ele>
        <time>2018-08-13T12:57:42Z</time>
      </trkpt>
      <trkpt lat="40.544533" lon="-4.971700">
        <ele>2090.0</ele>
        <time>2018-08-13T12:57:43Z</time>
      </trkpt>
      <trkpt lat="40.544633" lon="-4.971650">
        <ele>2091.0</ele>
        <time>2018-08-13T12:57:44Z</time>
      </trkpt>
      <trkpt lat="40.544717" lon="-4.971583">
        <ele>2092.0</ele>
        <time>2018-08-13T12:57:45Z</time>
      </trkpt>
      <trkpt lat="40.544817" lon="-4.971500">
        <ele>2095.0</ele>
        <time>2018-08-13T12:57:46Z</time>
      </trkpt>
      <trkpt lat="40.544867" lon="-4.971383">
        <ele>2097.0</ele>
        <time>2018-08-13T12:57:47Z</time>
      </trkpt>
      <trkpt lat="40.544917" lon="-4.971267">
        <ele>2100.0</ele>
        <time>2018-08-13T12:57:48Z</time>
      </trkpt>
      <trkpt lat="40.544933" lon="-4.971117">
        <ele>2101.0</ele>
        <time>2018-08-13T12:57:49Z</time>
      </trkpt>
      <trkpt lat="40.544933" lon="-4.970967">
        <ele>2102.0</ele>
        <time>2018-08-13T12:57:50Z</time>
      </trkpt>
      <trkpt lat="40.544933" lon="-4.970817">
        <ele>2103.0</ele>
        <time>2018-08-13T12:57:51Z</time>
      </trkpt>
      <trkpt lat="40.544900" lon="-4.970650">
        <ele>2104.0</ele>
        <time>2018-08-13T12:57:52Z</time>
      </trkpt>
      <trkpt lat="40.544833" lon="-4.970500">
        <ele>2104.0</ele>
        <time>2018-08-13T12:57:53Z</time>
      </trkpt>
      <trkpt lat="40.544750" lon="-4.970367">
        <ele>2106.0</ele>
        <time>2018-08-13T12:57:54Z</time>
      </trkpt>
      <trkpt lat="40.544650" lon="-4.970250">
        <ele>2110.0</ele>
        <time>2018-08-13T12:57:55Z</time>
      </trkpt>
      <trkpt lat="40.544567" lon="-4.970183">
        <ele>2115.0</ele>
        <time>2018-08-13T12:57:56Z</time>
      </trkpt>
      <trkpt lat="40.544467" lon="-4.970133">
        <ele>2118.0</ele>
        <time>2018-08-13T12:57:57Z</time>
      </trkpt>
      <trkpt lat="40.544383" lon="-4.970083">
        <ele>2121.0</ele>
        <time>2018-08-13T12:57:58Z</time>
      </trkpt>
      <trkpt lat="40.544300" lon="-4.970050">
        <ele>2122.0</ele>
        <time>2018-08-13T12:57:59Z</time>
      </trkpt>
      <trkpt lat="40.544200" lon="-4.970050">
        <ele>2123.0</ele>
        <time>2018-08-13T12:58:00Z</time>
      </trkpt>
      <trkpt lat="40.544100" lon="-4.970067">
        <ele>2125.0</ele>
        <time>2018-08-13T12:58:01Z</time>
      </trkpt>
      <trkpt lat="40.544017" lon="-4.970133">
        <ele>2126.0</ele>
        <time>2018-08-13T12:58:02Z</time>
      </trkpt>
      <trkpt lat="40.543967" lon="-4.970217">
        <ele>2128.0</ele>
        <time>2018-08-13T12:58:03Z</time>
      </trkpt>
      <trkpt lat="40.543917" lon="-4.970317">
        <ele>2131.0</ele>
        <time>2018-08-13T12:58:04Z</time>
      </trkpt>
      <trkpt lat="40.543900" lon="-4.970417">
        <ele>2134.0</ele>
        <time>2018-08-13T12:58:05Z</time>
      </trkpt>
      <trkpt lat="40.543900" lon="-4.970500">
        <ele>2137.0</ele>
        <time>2018-08-13T12:58:06Z</time>
      </trkpt>
      <trkpt lat="40.543933" lon="-4.970583">
        <ele>2139.0</ele>
        <time>2018-08-13T12:58:07Z</time>
      </trkpt>
      <trkpt lat="40.543967" lon="-4.970650">
        <ele>2141.0</ele>
        <time>2018-08-13T12:58:08Z</time>
      </trkpt>
      <trkpt lat="40.544017" lon="-4.970717">
        <ele>2142.0</ele>
        <time>2018-08-13T12:58:09Z</time>
      </trkpt>
      <trkpt lat="40.544100" lon="-4.970750">
        <ele>2143.0</ele>
        <time>2018-08-13T12:58:10Z</time>
      </trkpt>
      <trkpt lat="40.544200" lon="-4.970750">
        <ele>2143.0</ele>
        <time>2018-08-13T12:58:11Z</time>
      </trkpt>
      <trkpt lat="40.544300" lon="-4.970717">
        <ele>2143.0</ele>
        <time>2018-08-13T12:58:12Z</time>
      </trkpt>
      <trkpt lat="40.544383" lon="-4.970633">
        <ele>2145.0</ele>
        <time>2018-08-13T12:58:13Z</time>
      </trkpt>
      <trkpt lat="40.544450" lon="-4.970517">
        <ele>2147.0</ele>
        <time>2018-08-13T12:58:14Z</time>
      </trkpt>
      <trkpt lat="40.544500" lon="-4.970383">
        <ele>2149.0</ele>
        <time>2018-08-13T12:58:15Z</time>
      </trkpt>
      <trkpt lat="40.544533" lon="-4.970250">
        <ele>2150.0</ele>
        <time>2018-08-13T12:58:16Z</time>
      </trkpt>
      <trkpt lat="40.544550" lon="-4.970100">
        <ele>2152.0</ele>
        <time>2018-08-13T12:58:17Z</time>
      </trkpt>
      <trkpt lat="40.544567" lon="-4.969950">
        <ele>2153.0</ele>
        <time>2018-08-13T12:58:18Z</time>
      </trkpt>
      <trkpt lat="40.544567" lon="-4.969783">
        <ele>2153.0</ele>
        <time>2018-08-13T12:58:19Z</time>
      </trkpt>
      <trkpt lat="40.544533" lon="-4.969617">
        <ele>2154.0</ele>
        <time>2018-08-13T12:58:20Z</time>
      </trkpt>
      <trkpt lat="40.544483" lon="-4.969450">
        <ele>2154.0</ele>
        <time>2018-08-13T12:58:21Z</time>
      </trkpt>
      <trkpt lat="40.544400" lon="-4.969300">
        <ele>2156.0</ele>
        <time>2018-08-13T12:58:22Z</time>
      </trkpt>
      <trkpt lat="40.544300" lon="-4.969200">
        <ele>2159.0</ele>
        <time>2018-08-13T12:58:23Z</time>
      </trkpt>
      <trkpt lat="40.544200" lon="-4.969133">
        <ele>2162.0</ele>
        <time>2018-08-13T12:58:24Z</time>
      </trkpt>
      <trkpt lat="40.544100" lon="-4.969083">
        <ele>2165.0</ele>
        <time>2018-08-13T12:58:25Z</time>
      </trkpt>
      <trkpt lat="40.544000" lon="-4.969067">
        <ele>2167.0</ele>
        <time>2018-08-13T12:58:26Z</time>
      </trkpt>
      <trkpt lat="40.543917" lon="-4.969050">
        <ele>2169.0</ele>
        <time>2018-08-13T12:58:27Z</time>
      </trkpt>
      <trkpt lat="40.543833" lon="-4.969067">
        <ele>2169.0</ele>
        <time>2018-08-13T12:58:28Z</time>
      </trkpt>
      <trkpt lat="40.543750" lon="-4.969100">
        <ele>2169.0</ele>
        <time>2018-08-13T12:58:29Z</time>
      </trkpt>
      <trkpt lat="40.543667" lon="-4.969150">
        <ele>2170.0</ele>
        <time>2018-08-13T12:58:30Z</time>
      </trkpt>
      <trkpt lat="40.543617" lon="-4.969233">
        <ele>2170.0</ele>
        <time>2018-08-13T12:58:31Z</time>
      </trkpt>
      <trkpt lat="40.543567" lon="-4.969317">
        <ele>2170.0</ele>
        <time>2018-08-13T12:58:32Z</time>
      </trkpt>
      <trkpt lat="40.543533" lon="-4.969417">
        <ele>2172.0</ele>
        <time>2018-08-13T12:58:33Z</time>
      </trkpt>
      <trkpt lat="40.543517" lon="-4.969500">
        <ele>2174.0</ele>
        <time>2018-08-13T12:58:34Z</time>
      </trkpt>
      <trkpt lat="40.543517" lon="-4.969583">
        <ele>2176.0</ele>
        <time>2018-08-13T12:58:35Z</time>
      </trkpt>
      <trkpt lat="40.543550" lon="-4.969667">
        <ele>2176.0</ele>
        <time>2018-08-13T12:58:36Z</time>
      </trkpt>
      <trkpt lat="40.543600" lon="-4.969733">
        <ele>2177.0</ele>
        <time>2018-08-13T12:58:37Z</time>
      </trkpt>
      <trkpt lat="40.543667" lon="-4.969800">
        <ele>2177.0</ele>
        <time>2018-08-13T12:58:38Z</time>
      </trkpt>
      <trkpt lat="40.543750" lon="-4.969867">
        <ele>2178.0</ele>
        <time>2018-08-13T12:58:39Z</time>
      </trkpt>
      <trkpt lat="40.543833" lon="-4.969900">
        <ele>2179.0</ele>
        <time>2018-08-13T12:58:40Z</time>
      </trkpt>
      <trkpt lat="40.543917" lon="-4.969900">
        <ele>2181.0</ele>
        <time>2018-08-13T12:58:41Z</time>
      </trkpt>
      <trkpt lat="40.544017" lon="-4.969883">
        <ele>2182.0</ele>
        <time>2018-08-13T12:58:42Z</time>
      </trkpt>
      <trkpt lat="40.544100" lon="-4.969850">
        <ele>2183.0</ele>
        <time>2018-08-13T12:58:43Z</time>
      </trkpt>
      <trkpt lat="40.544200" lon="-4.969783">
        <ele>2183.0</ele>
        <time>2018-08-13T12:58:44Z</time>
      </trkpt>
      <trkpt lat="40.544283" lon="-4.969733">
        <ele>2184.0</ele>
        <time>2018-08-13T12:58:45Z</time>
      </trkpt>
      <trkpt lat="40.544367" lon="-4.969633">
        <ele>2184.0</ele>
        <time>2018-08-13T12:58:46Z</time>
      </trkpt>
      <trkpt lat="40.544433" lon="-4.969533">
        <ele>2183.0</ele>
        <time>2018-08-13T12:58:47Z</time>
      </trkpt>
      <trkpt lat="40.544483" lon="-4.969383">
        <ele>2183.0</ele>
        <time>2018-08-13T12:58:48Z</time>
      </trkpt>
      <trkpt lat="40.544517" lon="-4.969233">
        <ele>2183.0</ele>
        <time>2018-08-13T12:58:49Z</time>
      </trkpt>
      <trkpt lat="40.544533" lon="-4.969083">
        <ele>2183.0</ele>
        <time>2018-08-13T12:58:50Z</time>
      </trkpt>
      <trkpt lat="40.544517" lon="-4.968917">
        <ele>2183.0</ele>
        <time>2018-08-13T12:58:51Z</time>
      </trkpt>
      <trkpt lat="40.544500" lon="-4.968767">
        <ele>2182.0</ele>
        <time>2018-08-13T12:58:52Z</time>
      </trkpt>
      <trkpt lat="40.544450" lon="-4.968617">
        <ele>2182.0</ele>
        <time>2018-08-13T12:58:53Z</time>
      </trkpt>
      <trkpt lat="40.544400" lon="-4.968467">
        <ele>2182.0</ele>
        <time>2018-08-13T12:58:54Z</time>
      </trkpt>
      <trkpt lat="40.544317" lon="-4.968333">
        <ele>2182.0</ele>
        <time>2018-08-13T12:58:55Z</time>
      </trkpt>
      <trkpt lat="40.544250" lon="-4.968200">
        <ele>2183.0</ele>
        <time>2018-08-13T12:58:56Z</time>
      </trkpt>
      <trkpt lat="40.544167" lon="-4.968067">
        <ele>2185.0</ele>
        <time>2018-08-13T12:58:57Z</time>
      </trkpt>
      <trkpt lat="40.544100" lon="-4.967950">
        <ele>2188.0</ele>
        <time>2018-08-13T12:58:58Z</time>
      </trkpt>
      <trkpt lat="40.544017" lon="-4.967833">
        <ele>2190.0</ele>
        <time>2018-08-13T12:58:59Z</time>
      </trkpt>
      <trkpt lat="40.543950" lon="-4.967733">
        <ele>2192.0</ele>
        <time>2018-08-13T12:59:00Z</time>
      </trkpt>
      <trkpt lat="40.543867" lon="-4.967617">
        <ele>2194.0</ele>
        <time>2018-08-13T12:59:01Z</time>
      </trkpt>
      <trkpt lat="40.543783" lon="-4.967533">
        <ele>2195.0</ele>
        <time>2018-08-13T12:59:02Z</time>
      </trkpt>
      <trkpt lat="40.543700" lon="-4.967467">
        <ele>2194.0</ele>
        <time>2018-08-13T12:59:03Z</time>
      </trkpt>
      <trkpt lat="40.543600" lon="-4.967417">
        <ele>2194.0</ele>
        <time>2018-08-13T12:59:04Z</time>
      </trkpt>
      <trkpt lat="40.543483" lon="-4.967383">
        <ele>2195.0</ele>
        <time>2018-08-13T12:59:05Z</time>
      </trkpt>
      <trkpt lat="40.543383" lon="-4.967367">
        <ele>2196.0</ele>
        <time>2018-08-13T12:59:06Z</time>
      </trkpt>
      <trkpt lat="40.543267" lon="-4.967383">
        <ele>2198.0</ele>
        <time>2018-08-13T12:59:07Z</time>
      </trkpt>
      <trkpt lat="40.543183" lon="-4.967400">
        <ele>2199.0</ele>
        <time>2018-08-13T12:59:08Z</time>
      </trkpt>
      <trkpt lat="40.543100" lon="-4.967417">
        <ele>2200.0</ele>
        <time>2018-08-13T12:59:09Z</time>
      </trkpt>
      <trkpt lat="40.543017" lon="-4.967467">
        <ele>2200.0</ele>
        <time>2018-08-13T12:59:10Z</time>
      </trkpt>
      <trkpt lat="40.542933" lon="-4.967517">
        <ele>2201.0</ele>
        <time>2018-08-13T12:59:11Z</time>
      </trkpt>
      <trkpt lat="40.542867" lon="-4.967567">
        <ele>2201.0</ele>
        <time>2018-08-13T12:59:12Z</time>
      </trkpt>
      <trkpt lat="40.542800" lon="-4.967633">
        <ele>2202.0</ele>
        <time>2018-08-13T12:59:13Z</time>
      </trkpt>
      <trkpt lat="40.542733" lon="-4.967717">
        <ele>2203.0</ele>
        <time>2018-08-13T12:59:14Z</time>
      </trkpt>
      <trkpt lat="40.542700" lon="-4.967783">
        <ele>2203.0</ele>
        <time>2018-08-13T12:59:15Z</time>
      </trkpt>
      <trkpt lat="40.542650" lon="-4.967867">
        <ele>2203.0</ele>
        <time>2018-08-13T12:59:16Z</time>
      </trkpt>
      <trkpt lat="40.542633" lon="-4.967950">
        <ele>2203.0</ele>
        <time>2018-08-13T12:59:17Z</time>
      </trkpt>
      <trkpt lat="40.542617" lon="-4.968050">
        <ele>2203.0</ele>
        <time>2018-08-13T12:59:18Z</time>
      </trkpt>
      <trkpt lat="40.542633" lon="-4.968133">
        <ele>2202.0</ele>
        <time>2018-08-13T12:59:19Z</time>
      </trkpt>
      <trkpt lat="40.542667" lon="-4.968217">
        <ele>2201.0</ele>
        <time>2018-08-13T12:59:20Z</time>
      </trkpt>
      <trkpt lat="40.542717" lon="-4.968283">
        <ele>2201.0</ele>
        <time>2018-08-13T12:59:21Z</time>
      </trkpt>
      <trkpt lat="40.542783" lon="-4.968333">
        <ele>2201.0</ele>
        <time>2018-08-13T12:59:22Z</time>
      </trkpt>
      <trkpt lat="40.542850" lon="-4.968350">
        <ele>2201.0</ele>
        <time>2018-08-13T12:59:23Z</time>
      </trkpt>
      <trkpt lat="40.542933" lon="-4.968367">
        <ele>2201.0</ele>
        <time>2018-08-13T12:59:24Z</time>
      </trkpt>
      <trkpt lat="40.543033" lon="-4.968350">
        <ele>2201.0</ele>
        <time>2018-08-13T12:59:25Z</time>
      </trkpt>
      <trkpt lat="40.543117" lon="-4.968300">
        <ele>2202.0</ele>
        <time>2018-08-13T12:59:26Z</time>
      </trkpt>
      <trkpt lat="40.543200" lon="-4.968233">
        <ele>2202.0</ele>
        <time>2018-08-13T12:59:27Z</time>
      </trkpt>
      <trkpt lat="40.543283" lon="-4.968150">
        <ele>2202.0</ele>
        <time>2018-08-13T12:59:28Z</time>
      </trkpt>
      <trkpt lat="40.543367" lon="-4.968067">
        <ele>2202.0</ele>
        <time>2018-08-13T12:59:29Z</time>
      </trkpt>
      <trkpt lat="40.543450" lon="-4.968000">
        <ele>2202.0</ele>
        <time>2018-08-13T12:59:30Z</time>
      </trkpt>
      <trkpt lat="40.543533" lon="-4.967917">
        <ele>2201.0</ele>
        <time>2018-08-13T12:59:31Z</time>
      </trkpt>
      <trkpt lat="40.543617" lon="-4.967833">
        <ele>2201.0</ele>
        <time>2018-08-13T12:59:32Z</time>
      </trkpt>
      <trkpt lat="40.543700" lon="-4.967733">
        <ele>2202.0</ele>
        <time>2018-08-13T12:59:33Z</time>
      </trkpt>
      <trkpt lat="40.543783" lon="-4.967650">
        <ele>2203.0</ele>
        <time>2018-08-13T12:59:34Z</time>
      </trkpt>
      <trkpt lat="40.543850" lon="-4.967567">
        <ele>2204.0</ele>
        <time>2018-08-13T12:59:35Z</time>
      </trkpt>
      <trkpt lat="40.543917" lon="-4.967500">
        <ele>2205.0</ele>
        <time>2018-08-13T12:59:36Z</time>
      </trkpt>
      <trkpt lat="40.544000" lon="-4.967433">
        <ele>2206.0</ele>
        <time>2018-08-13T12:59:37Z</time>
      </trkpt>
      <trkpt lat="40.544067" lon="-4.967350">
        <ele>2206.0</ele>
        <time>2018-08-13T12:59:38Z</time>
      </trkpt>
      <trkpt lat="40.544117" lon="-4.967250">
        <ele>2206.0</ele>
        <time>2018-08-13T12:59:39Z</time>
      </trkpt>
      <trkpt lat="40.544183" lon="-4.967150">
        <ele>2206.0</ele>
        <time>2018-08-13T12:59:40Z</time>
      </trkpt>
      <trkpt lat="40.544250" lon="-4.967033">
        <ele>2206.0</ele>
        <time>2018-08-13T12:59:41Z</time>
      </trkpt>
      <trkpt lat="40.544317" lon="-4.966917">
        <ele>2206.0</ele>
        <time>2018-08-13T12:59:42Z</time>
      </trkpt>
      <trkpt lat="40.544400" lon="-4.966800">
        <ele>2207.0</ele>
        <time>2018-08-13T12:59:43Z</time>
      </trkpt>
      <trkpt lat="40.544483" lon="-4.966683">
        <ele>2209.0</ele>
        <time>2018-08-13T12:59:44Z</time>
      </trkpt>
      <trkpt lat="40.544550" lon="-4.966583">
        <ele>2210.0</ele>
        <time>2018-08-13T12:59:45Z</time>
      </trkpt>
      <trkpt lat="40.544600" lon="-4.966450">
        <ele>2213.0</ele>
        <time>2018-08-13T12:59:46Z</time>
      </trkpt>
      <trkpt lat="40.544650" lon="-4.966333">
        <ele>2215.0</ele>
        <time>2018-08-13T12:59:47Z</time>
      </trkpt>
      <trkpt lat="40.544700" lon="-4.966217">
        <ele>2218.0</ele>
        <time>2018-08-13T12:59:48Z</time>
      </trkpt>
      <trkpt lat="40.544750" lon="-4.966100">
        <ele>2220.0</ele>
        <time>2018-08-13T12:59:49Z</time>
      </trkpt>
      <trkpt lat="40.544800" lon="-4.966017">
        <ele>2222.0</ele>
        <time>2018-08-13T12:59:50Z</time>
      </trkpt>
      <trkpt lat="40.544867" lon="-4.965917">
        <ele>2223.0</ele>
        <time>2018-08-13T12:59:51Z</time>
      </trkpt>
      <trkpt lat="40.544917" lon="-4.965800">
        <ele>2224.0</ele>
        <time>2018-08-13T12:59:52Z</time>
      </trkpt>
      <trkpt lat="40.544950" lon="-4.965650">
        <ele>2225.0</ele>
        <time>2018-08-13T12:59:53Z</time>
      </trkpt>
      <trkpt lat="40.544967" lon="-4.965483">
        <ele>2226.0</ele>
        <time>2018-08-13T12:59:54Z</time>
      </trkpt>
      <trkpt lat="40.544933" lon="-4.965300">
        <ele>2226.0</ele>
        <time>2018-08-13T12:59:55Z</time>
      </trkpt>
      <trkpt lat="40.544867" lon="-4.965133">
        <ele>2227.0</ele>
        <time>2018-08-13T12:59:56Z</time>
      </trkpt>
      <trkpt lat="40.544783" lon="-4.964983">
        <ele>2228.0</ele>
        <time>2018-08-13T12:59:57Z</time>
      </trkpt>
      <trkpt lat="40.544700" lon="-4.964867">
        <ele>2230.0</ele>
        <time>2018-08-13T12:59:58Z</time>
      </trkpt>
      <trkpt lat="40.544583" lon="-4.964750">
        <ele>2233.0</ele>
        <time>2018-08-13T12:59:59Z</time>
      </trkpt>
      <trkpt lat="40.544483" lon="-4.964650">
        <ele>2235.0</ele>
        <time>2018-08-13T13:00:00Z</time>
      </trkpt>
      <trkpt lat="40.544367" lon="-4.964583">
        <ele>2237.0</ele>
        <time>2018-08-13T13:00:01Z</time>
      </trkpt>
      <trkpt lat="40.544267" lon="-4.964550">
        <ele>2239.0</ele>
        <time>2018-08-13T13:00:02Z</time>
      </trkpt>
      <trkpt lat="40.544167" lon="-4.964550">
        <ele>2240.0</ele>
        <time>2018-08-13T13:00:03Z</time>
      </trkpt>
      <trkpt lat="40.544067" lon="-4.964550">
        <ele>2241.0</ele>
        <time>2018-08-13T13:00:04Z</time>
      </trkpt>
      <trkpt lat="40.543983" lon="-4.964567">
        <ele>2242.0</ele>
        <time>2018-08-13T13:00:05Z</time>
      </trkpt>
      <trkpt lat="40.543917" lon="-4.964600">
        <ele>2242.0</ele>
        <time>2018-08-13T13:00:06Z</time>
      </trkpt>
      <trkpt lat="40.543850" lon="-4.964667">
        <ele>2243.0</ele>
        <time>2018-08-13T13:00:07Z</time>
      </trkpt>
      <trkpt lat="40.543817" lon="-4.964717">
        <ele>2243.0</ele>
        <time>2018-08-13T13:00:08Z</time>
      </trkpt>
      <trkpt lat="40.543800" lon="-4.964783">
        <ele>2244.0</ele>
        <time>2018-08-13T13:00:09Z</time>
      </trkpt>
      <trkpt lat="40.543783" lon="-4.964850">
        <ele>2245.0</ele>
        <time>2018-08-13T13:00:10Z</time>
      </trkpt>
      <trkpt lat="40.543800" lon="-4.964917">
        <ele>2245.0</ele>
        <time>2018-08-13T13:00:11Z</time>
      </trkpt>
      <trkpt lat="40.543817" lon="-4.964983">
        <ele>2245.0</ele>
        <time>2018-08-13T13:00:12Z</time>
      </trkpt>
      <trkpt lat="40.543867" lon="-4.965033">
        <ele>2245.0</ele>
        <time>2018-08-13T13:00:13Z</time>
      </trkpt>
      <trkpt lat="40.543917" lon="-4.965083">
        <ele>2246.0</ele>
        <time>2018-08-13T13:00:14Z</time>
      </trkpt>
      <trkpt lat="40.543967" lon="-4.965100">
        <ele>2246.0</ele>
        <time>2018-08-13T13:00:15Z</time>
      </trkpt>
      <trkpt lat="40.544050" lon="-4.965133">
        <ele>2247.0</ele>
        <time>2018-08-13T13:00:16Z</time>
      </trkpt>
      <trkpt lat="40.544117" lon="-4.965133">
        <ele>2247.0</ele>
        <time>2018-08-13T13:00:17Z</time>
      </trkpt>
      <trkpt lat="40.544217" lon="-4.965133">
        <ele>2248.0</ele>
        <time>2018-08-13T13:00:18Z</time>
      </trkpt>
      <trkpt lat="40.544300" lon="-4.965083">
        <ele>2249.0</ele>
        <time>2018-08-13T13:00:19Z</time>
      </trkpt>
      <trkpt lat="40.544383" lon="-4.965033">
        <ele>2250.0</ele>
        <time>2018-08-13T13:00:20Z</time>
      </trkpt>
      <trkpt lat="40.544467" lon="-4.964950">
        <ele>2253.0</ele>
        <time>2018-08-13T13:00:21Z</time>
      </trkpt>
      <trkpt lat="40.544533" lon="-4.964883">
        <ele>2256.0</ele>
        <time>2018-08-13T13:00:22Z</time>
      </trkpt>
      <trkpt lat="40.544600" lon="-4.964800">
        <ele>2259.0</ele>
        <time>2018-08-13T13:00:23Z</time>
      </trkpt>
      <trkpt lat="40.544667" lon="-4.964733">
        <ele>2261.0</ele>
        <time>2018-08-13T13:00:24Z</time>
      </trkpt>
      <trkpt lat="40.544733" lon="-4.964650">
        <ele>2262.0</ele>
        <time>2018-08-13T13:00:25Z</time>
      </trkpt>
      <trkpt lat="40.544783" lon="-4.964550">
        <ele>2262.0</ele>
        <time>2018-08-13T13:00:26Z</time>
      </trkpt>
      <trkpt lat="40.544833" lon="-4.964433">
        <ele>2260.0</ele>
        <time>2018-08-13T13:00:27Z</time>
      </trkpt>
      <trkpt lat="40.544867" lon="-4.964267">
        <ele>2258.0</ele>
        <time>2018-08-13T13:00:28Z</time>
      </trkpt>
      <trkpt lat="40.544867" lon="-4.964083">
        <ele>2258.0</ele>
        <time>2018-08-13T13:00:29Z</time>
      </trkpt>
      <trkpt lat="40.544867" lon="-4.963900">
        <ele>2260.0</ele>
        <time>2018-08-13T13:00:30Z</time>
      </trkpt>
      <trkpt lat="40.544833" lon="-4.963750">
        <ele>2263.0</ele>
        <time>2018-08-13T13:00:31Z</time>
      </trkpt>
      <trkpt lat="40.544800" lon="-4.963617">
        <ele>2265.0</ele>
        <time>2018-08-13T13:00:32Z</time>
      </trkpt>
      <trkpt lat="40.544750" lon="-4.963483">
        <ele>2266.0</ele>
        <time>2018-08-13T13:00:33Z</time>
      </trkpt>
      <trkpt lat="40.544683" lon="-4.963367">
        <ele>2266.0</ele>
        <time>2018-08-13T13:00:34Z</time>
      </trkpt>
      <trkpt lat="40.544600" lon="-4.963250">
        <ele>2267.0</ele>
        <time>2018-08-13T13:00:35Z</time>
      </trkpt>
      <trkpt lat="40.544517" lon="-4.963117">
        <ele>2267.0</ele>
        <time>2018-08-13T13:00:36Z</time>
      </trkpt>
      <trkpt lat="40.544417" lon="-4.963000">
        <ele>2268.0</ele>
        <time>2018-08-13T13:00:37Z</time>
      </trkpt>
      <trkpt lat="40.544300" lon="-4.962883">
        <ele>2270.0</ele>
        <time>2018-08-13T13:00:38Z</time>
      </trkpt>
      <trkpt lat="40.544183" lon="-4.962800">
        <ele>2272.0</ele>
        <time>2018-08-13T13:00:39Z</time>
      </trkpt>
      <trkpt lat="40.544067" lon="-4.962750">
        <ele>2274.0</ele>
        <time>2018-08-13T13:00:40Z</time>
      </trkpt>
      <trkpt lat="40.543950" lon="-4.962700">
        <ele>2276.0</ele>
        <time>2018-08-13T13:00:41Z</time>
      </trkpt>
      <trkpt lat="40.543850" lon="-4.962683">
        <ele>2278.0</ele>
        <time>2018-08-13T13:00:42Z</time>
      </trkpt>
      <trkpt lat="40.543750" lon="-4.962683">
        <ele>2279.0</ele>
        <time>2018-08-13T13:00:43Z</time>
      </trkpt>
      <trkpt lat="40.543667" lon="-4.962683">
        <ele>2280.0</ele>
        <time>2018-08-13T13:00:44Z</time>
      </trkpt>
      <trkpt lat="40.543600" lon="-4.962717">
        <ele>2281.0</ele>
        <time>2018-08-13T13:00:45Z</time>
      </trkpt>
      <trkpt lat="40.543550" lon="-4.962767">
        <ele>2281.0</ele>
        <time>2018-08-13T13:00:46Z</time>
      </trkpt>
      <trkpt lat="40.543517" lon="-4.962833">
        <ele>2282.0</ele>
        <time>2018-08-13T13:00:47Z</time>
      </trkpt>
      <trkpt lat="40.543500" lon="-4.962917">
        <ele>2282.0</ele>
        <time>2018-08-13T13:00:48Z</time>
      </trkpt>
      <trkpt lat="40.543517" lon="-4.963000">
        <ele>2283.0</ele>
        <time>2018-08-13T13:00:49Z</time>
      </trkpt>
      <trkpt lat="40.543550" lon="-4.963067">
        <ele>2284.0</ele>
        <time>2018-08-13T13:00:50Z</time>
      </trkpt>
      <trkpt lat="40.543583" lon="-4.963117">
        <ele>2285.0</ele>
        <time>2018-08-13T13:00:51Z</time>
      </trkpt>
      <trkpt lat="40.543650" lon="-4.963167">
        <ele>2285.0</ele>
        <time>2018-08-13T13:00:52Z</time>
      </trkpt>
      <trkpt lat="40.543717" lon="-4.963200">
        <ele>2285.0</ele>
        <time>2018-08-13T13:00:53Z</time>
      </trkpt>
      <trkpt lat="40.543817" lon="-4.963217">
        <ele>2284.0</ele>
        <time>2018-08-13T13:00:54Z</time>
      </trkpt>
      <trkpt lat="40.543917" lon="-4.963200">
        <ele>2285.0</ele>
        <time>2018-08-13T13:00:55Z</time>
      </trkpt>
      <trkpt lat="40.544017" lon="-4.963150">
        <ele>2286.0</ele>
        <time>2018-08-13T13:00:56Z</time>
      </trkpt>
      <trkpt lat="40.544117" lon="-4.963067">
        <ele>2287.0</ele>
        <time>2018-08-13T13:00:57Z</time>
      </trkpt>
      <trkpt lat="40.544200" lon="-4.962967">
        <ele>2289.0</ele>
        <time>2018-08-13T13:00:58Z</time>
      </trkpt>
      <trkpt lat="40.544283" lon="-4.962850">
        <ele>2291.0</ele>
        <time>2018-08-13T13:00:59Z</time>
      </trkpt>
      <trkpt lat="40.544333" lon="-4.962733">
        <ele>2292.0</ele>
        <time>2018-08-13T13:01:00Z</time>
      </trkpt>
      <trkpt lat="40.544400" lon="-4.962600">
        <ele>2293.0</ele>
        <time>2018-08-13T13:01:01Z</time>
      </trkpt>
      <trkpt lat="40.544433" lon="-4.962450">
        <ele>2293.0</ele>
        <time>2018-08-13T13:01:02Z</time>
      </trkpt>
      <trkpt lat="40.544467" lon="-4.962283">
        <ele>2295.0</ele>
        <time>2018-08-13T13:01:03Z</time>
      </trkpt>
      <trkpt lat="40.544483" lon="-4.962133">
        <ele>2297.0</ele>
        <time>2018-08-13T13:01:04Z</time>
      </trkpt>
      <trkpt lat="40.544483" lon="-4.961983">
        <ele>2299.0</ele>
        <time>2018-08-13T13:01:05Z</time>
      </trkpt>
      <trkpt lat="40.544467" lon="-4.961850">
        <ele>2300.0</ele>
        <time>2018-08-13T13:01:06Z</time>
      </trkpt>
      <trkpt lat="40.544433" lon="-4.961700">
        <ele>2299.0</ele>
        <time>2018-08-13T13:01:07Z</time>
      </trkpt>
      <trkpt lat="40.544400" lon="-4.961567">
        <ele>2299.0</ele>
        <time>2018-08-13T13:01:08Z</time>
      </trkpt>
      <trkpt lat="40.544367" lon="-4.961417">
        <ele>2299.0</ele>
        <time>2018-08-13T13:01:09Z</time>
      </trkpt>
      <trkpt lat="40.544333" lon="-4.961250">
        <ele>2299.0</ele>
        <time>2018-08-13T13:01:10Z</time>
      </trkpt>
      <trkpt lat="40.544267" lon="-4.961100">
        <ele>2298.0</ele>
        <time>2018-08-13T13:01:11Z</time>
      </trkpt>
      <trkpt lat="40.544200" lon="-4.960950">
        <ele>2298.0</ele>
        <time>2018-08-13T13:01:12Z</time>
      </trkpt>
      <trkpt lat="40.544117" lon="-4.960817">
        <ele>2298.0</ele>
        <time>2018-08-13T13:01:13Z</time>
      </trkpt>
      <trkpt lat="40.544017" lon="-4.960700">
        <ele>2298.0</ele>
        <time>2018-08-13T13:01:14Z</time>
      </trkpt>
      <trkpt lat="40.543917" lon="-4.960583">
        <ele>2299.0</ele>
        <time>2018-08-13T13:01:15Z</time>
      </trkpt>
      <trkpt lat="40.543817" lon="-4.960467">
        <ele>2301.0</ele>
        <time>2018-08-13T13:01:16Z</time>
      </trkpt>
      <trkpt lat="40.543700" lon="-4.960350">
        <ele>2303.0</ele>
        <time>2018-08-13T13:01:17Z</time>
      </trkpt>
      <trkpt lat="40.543600" lon="-4.960267">
        <ele>2306.0</ele>
        <time>2018-08-13T13:01:18Z</time>
      </trkpt>
      <trkpt lat="40.543500" lon="-4.960200">
        <ele>2308.0</ele>
        <time>2018-08-13T13:01:19Z</time>
      </trkpt>
      <trkpt lat="40.543417" lon="-4.960167">
        <ele>2310.0</ele>
        <time>2018-08-13T13:01:20Z</time>
      </trkpt>
      <trkpt lat="40.543317" lon="-4.960133">
        <ele>2311.0</ele>
        <time>2018-08-13T13:01:21Z</time>
      </trkpt>
      <trkpt lat="40.543233" lon="-4.960133">
        <ele>2310.0</ele>
        <time>2018-08-13T13:01:22Z</time>
      </trkpt>
      <trkpt lat="40.543150" lon="-4.960150">
        <ele>2310.0</ele>
        <time>2018-08-13T13:01:23Z</time>
      </trkpt>
      <trkpt lat="40.543083" lon="-4.960200">
        <ele>2310.0</ele>
        <time>2018-08-13T13:01:24Z</time>
      </trkpt>
      <trkpt lat="40.543033" lon="-4.960267">
        <ele>2310.0</ele>
        <time>2018-08-13T13:01:25Z</time>
      </trkpt>
      <trkpt lat="40.543000" lon="-4.960333">
        <ele>2311.0</ele>
        <time>2018-08-13T13:01:26Z</time>
      </trkpt>
      <trkpt lat="40.543000" lon="-4.960417">
        <ele>2312.0</ele>
        <time>2018-08-13T13:01:27Z</time>
      </trkpt>
      <trkpt lat="40.543000" lon="-4.960500">
        <ele>2312.0</ele>
        <time>2018-08-13T13:01:28Z</time>
      </trkpt>
      <trkpt lat="40.543017" lon="-4.960567">
        <ele>2313.0</ele>
        <time>2018-08-13T13:01:29Z</time>
      </trkpt>
      <trkpt lat="40.543033" lon="-4.960633">
        <ele>2314.0</ele>
        <time>2018-08-13T13:01:30Z</time>
      </trkpt>
      <trkpt lat="40.543067" lon="-4.960683">
        <ele>2314.0</ele>
        <time>2018-08-13T13:01:31Z</time>
      </trkpt>
      <trkpt lat="40.543117" lon="-4.960733">
        <ele>2314.0</ele>
        <time>2018-08-13T13:01:32Z</time>
      </trkpt>
      <trkpt lat="40.543200" lon="-4.960767">
        <ele>2314.0</ele>
        <time>2018-08-13T13:01:33Z</time>
      </trkpt>
      <trkpt lat="40.543267" lon="-4.960783">
        <ele>2314.0</ele>
        <time>2018-08-13T13:01:34Z</time>
      </trkpt>
      <trkpt lat="40.543367" lon="-4.960783">
        <ele>2315.0</ele>
        <time>2018-08-13T13:01:35Z</time>
      </trkpt>
      <trkpt lat="40.543450" lon="-4.960767">
        <ele>2315.0</ele>
        <time>2018-08-13T13:01:36Z</time>
      </trkpt>
      <trkpt lat="40.543550" lon="-4.960717">
        <ele>2316.0</ele>
        <time>2018-08-13T13:01:37Z</time>
      </trkpt>
      <trkpt lat="40.543633" lon="-4.960650">
        <ele>2316.0</ele>
        <time>2018-08-13T13:01:38Z</time>
      </trkpt>
      <trkpt lat="40.543717" lon="-4.960550">
        <ele>2317.0</ele>
        <time>2018-08-13T13:01:39Z</time>
      </trkpt>
      <trkpt lat="40.543800" lon="-4.960433">
        <ele>2319.0</ele>
        <time>2018-08-13T13:01:40Z</time>
      </trkpt>
      <trkpt lat="40.543867" lon="-4.960300">
        <ele>2321.0</ele>
        <time>2018-08-13T13:01:41Z</time>
      </trkpt>
      <trkpt lat="40.543900" lon="-4.960167">
        <ele>2322.0</ele>
        <time>2018-08-13T13:01:42Z</time>
      </trkpt>
      <trkpt lat="40.543933" lon="-4.960017">
        <ele>2324.0</ele>
        <time>2018-08-13T13:01:43Z</time>
      </trkpt>
      <trkpt lat="40.543933" lon="-4.959867">
        <ele>2324.0</ele>
        <time>2018-08-13T13:01:44Z</time>
      </trkpt>
      <trkpt lat="40.543933" lon="-4.959700">
        <ele>2324.0</ele>
        <time>2018-08-13T13:01:45Z</time>
      </trkpt>
      <trkpt lat="40.543917" lon="-4.959533">
        <ele>2323.0</ele>
        <time>2018-08-13T13:01:46Z</time>
      </trkpt>
      <trkpt lat="40.543867" lon="-4.959350">
        <ele>2323.0</ele>
        <time>2018-08-13T13:01:47Z</time>
      </trkpt>
      <trkpt lat="40.543817" lon="-4.959183">
        <ele>2323.0</ele>
        <time>2018-08-13T13:01:48Z</time>
      </trkpt>
      <trkpt lat="40.543750" lon="-4.959017">
        <ele>2323.0</ele>
        <time>2018-08-13T13:01:49Z</time>
      </trkpt>
      <trkpt lat="40.543650" lon="-4.958867">
        <ele>2324.0</ele>
        <time>2018-08-13T13:01:50Z</time>
      </trkpt>
      <trkpt lat="40.543567" lon="-4.958733">
        <ele>2326.0</ele>
        <time>2018-08-13T13:01:51Z</time>
      </trkpt>
      <trkpt lat="40.543467" lon="-4.958617">
        <ele>2326.0</ele>
        <time>2018-08-13T13:01:52Z</time>
      </trkpt>
      <trkpt lat="40.543367" lon="-4.958517">
        <ele>2327.0</ele>
        <time>2018-08-13T13:01:53Z</time>
      </trkpt>
      <trkpt lat="40.543267" lon="-4.958450">
        <ele>2327.0</ele>
        <time>2018-08-13T13:01:54Z</time>
      </trkpt>
      <trkpt lat="40.543167" lon="-4.958367">
        <ele>2328.0</ele>
        <time>2018-08-13T13:01:55Z</time>
      </trkpt>
      <trkpt lat="40.543067" lon="-4.958300">
        <ele>2329.0</ele>
        <time>2018-08-13T13:01:56Z</time>
      </trkpt>
      <trkpt lat="40.542967" lon="-4.958250">
        <ele>2331.0</ele>
        <time>2018-08-13T13:01:57Z</time>
      </trkpt>
      <trkpt lat="40.542867" lon="-4.958200">
        <ele>2331.0</ele>
        <time>2018-08-13T13:01:58Z</time>
      </trkpt>
      <trkpt lat="40.542783" lon="-4.958183">
        <ele>2331.0</ele>
        <time>2018-08-13T13:01:59Z</time>
      </trkpt>
      <trkpt lat="40.542683" lon="-4.958200">
        <ele>2331.0</ele>
        <time>2018-08-13T13:02:00Z</time>
      </trkpt>
      <trkpt lat="40.542600" lon="-4.958217">
        <ele>2331.0</ele>
        <time>2018-08-13T13:02:01Z</time>
      </trkpt>
      <trkpt lat="40.542517" lon="-4.958250">
        <ele>2332.0</ele>
        <time>2018-08-13T13:02:02Z</time>
      </trkpt>
      <trkpt lat="40.542450" lon="-4.958300">
        <ele>2333.0</ele>
        <time>2018-08-13T13:02:03Z</time>
      </trkpt>
      <trkpt lat="40.542383" lon="-4.958350">
        <ele>2334.0</ele>
        <time>2018-08-13T13:02:04Z</time>
      </trkpt>
      <trkpt lat="40.542350" lon="-4.958433">
        <ele>2335.0</ele>
        <time>2018-08-13T13:02:05Z</time>
      </trkpt>
      <trkpt lat="40.542317" lon="-4.958500">
        <ele>2335.0</ele>
        <time>2018-08-13T13:02:06Z</time>
      </trkpt>
      <trkpt lat="40.542317" lon="-4.958583">
        <ele>2336.0</ele>
        <time>2018-08-13T13:02:07Z</time>
      </trkpt>
      <trkpt lat="40.542333" lon="-4.958650">
        <ele>2336.0</ele>
        <time>2018-08-13T13:02:08Z</time>
      </trkpt>
      <trkpt lat="40.542367" lon="-4.958717">
        <ele>2336.0</ele>
        <time>2018-08-13T13:02:09Z</time>
      </trkpt>
      <trkpt lat="40.542417" lon="-4.958767">
        <ele>2336.0</ele>
        <time>2018-08-13T13:02:10Z</time>
      </trkpt>
      <trkpt lat="40.542500" lon="-4.958800">
        <ele>2335.0</ele>
        <time>2018-08-13T13:02:11Z</time>
      </trkpt>
      <trkpt lat="40.542583" lon="-4.958817">
        <ele>2335.0</ele>
        <time>2018-08-13T13:02:12Z</time>
      </trkpt>
      <trkpt lat="40.542683" lon="-4.958800">
        <ele>2334.0</ele>
        <time>2018-08-13T13:02:13Z</time>
      </trkpt>
      <trkpt lat="40.542800" lon="-4.958750">
        <ele>2334.0</ele>
        <time>2018-08-13T13:02:14Z</time>
      </trkpt>
      <trkpt lat="40.542900" lon="-4.958667">
        <ele>2335.0</ele>
        <time>2018-08-13T13:02:15Z</time>
      </trkpt>
      <trkpt lat="40.542983" lon="-4.958550">
        <ele>2336.0</ele>
        <time>2018-08-13T13:02:16Z</time>
      </trkpt>
      <trkpt lat="40.543050" lon="-4.958417">
        <ele>2336.0</ele>
        <time>2018-08-13T13:02:17Z</time>
      </trkpt>
      <trkpt lat="40.543100" lon="-4.958283">
        <ele>2336.0</ele>
        <time>2018-08-13T13:02:18Z</time>
      </trkpt>
      <trkpt lat="40.543133" lon="-4.958133">
        <ele>2336.0</ele>
        <time>2018-08-13T13:02:19Z</time>
      </trkpt>
      <trkpt lat="40.543167" lon="-4.957967">
        <ele>2336.0</ele>
        <time>2018-08-13T13:02:20Z</time>
      </trkpt>
      <trkpt lat="40.543200" lon="-4.957800">
        <ele>2337.0</ele>
        <time>2018-08-13T13:02:21Z</time>
      </trkpt>
      <trkpt lat="40.543217" lon="-4.957617">
        <ele>2338.0</ele>
        <time>2018-08-13T13:02:22Z</time>
      </trkpt>
      <trkpt lat="40.543217" lon="-4.957450">
        <ele>2339.0</ele>
        <time>2018-08-13T13:02:23Z</time>
      </trkpt>
      <trkpt lat="40.543200" lon="-4.957283">
        <ele>2339.0</ele>
        <time>2018-08-13T13:02:24Z</time>
      </trkpt>
      <trkpt lat="40.543150" lon="-4.957117">
        <ele>2339.0</ele>
        <time>2018-08-13T13:02:25Z</time>
      </trkpt>
      <trkpt lat="40.543083" lon="-4.956967">
        <ele>2338.0</ele>
        <time>2018-08-13T13:02:26Z</time>
      </trkpt>
      <trkpt lat="40.543000" lon="-4.956817">
        <ele>2337.0</ele>
        <time>2018-08-13T13:02:27Z</time>
      </trkpt>
      <trkpt lat="40.542917" lon="-4.956667">
        <ele>2337.0</ele>
        <time>2018-08-13T13:02:28Z</time>
      </trkpt>
      <trkpt lat="40.542817" lon="-4.956533">
        <ele>2337.0</ele>
        <time>2018-08-13T13:02:29Z</time>
      </trkpt>
      <trkpt lat="40.542717" lon="-4.956417">
        <ele>2338.0</ele>
        <time>2018-08-13T13:02:30Z</time>
      </trkpt>
      <trkpt lat="40.542617" lon="-4.956283">
        <ele>2340.0</ele>
        <time>2018-08-13T13:02:31Z</time>
      </trkpt>
      <trkpt lat="40.542533" lon="-4.956167">
        <ele>2341.0</ele>
        <time>2018-08-13T13:02:32Z</time>
      </trkpt>
      <trkpt lat="40.542450" lon="-4.956067">
        <ele>2341.0</ele>
        <time>2018-08-13T13:02:33Z</time>
      </trkpt>
      <trkpt lat="40.542367" lon="-4.955950">
        <ele>2342.0</ele>
        <time>2018-08-13T13:02:34Z</time>
      </trkpt>
      <trkpt lat="40.542267" lon="-4.955850">
        <ele>2341.0</ele>
        <time>2018-08-13T13:02:35Z</time>
      </trkpt>
      <trkpt lat="40.542167" lon="-4.955783">
        <ele>2340.0</ele>
        <time>2018-08-13T13:02:36Z</time>
      </trkpt>
      <trkpt lat="40.542050" lon="-4.955717">
        <ele>2340.0</ele>
        <time>2018-08-13T13:02:37Z</time>
      </trkpt>
      <trkpt lat="40.541933" lon="-4.955683">
        <ele>2339.0</ele>
        <time>2018-08-13T13:02:38Z</time>
      </trkpt>
      <trkpt lat="40.541817" lon="-4.955667">
        <ele>2339.0</ele>
        <time>2018-08-13T13:02:39Z</time>
      </trkpt>
      <trkpt lat="40.541700" lon="-4.955650">
        <ele>2340.0</ele>
        <time>2018-08-13T13:02:40Z</time>
      </trkpt>
      <trkpt lat="40.541600" lon="-4.955650">
        <ele>2341.0</ele>
        <time>2018-08-13T13:02:41Z</time>
      </trkpt>
      <trkpt lat="40.541500" lon="-4.955650">
        <ele>2342.0</ele>
        <time>2018-08-13T13:02:42Z</time>
      </trkpt>
      <trkpt lat="40.541417" lon="-4.955683">
        <ele>2342.0</ele>
        <time>2018-08-13T13:02:43Z</time>
      </trkpt>
      <trkpt lat="40.541350" lon="-4.955717">
        <ele>2341.0</ele>
        <time>2018-08-13T13:02:44Z</time>
      </trkpt>
      <trkpt lat="40.541283" lon="-4.955767">
        <ele>2340.0</ele>
        <time>2018-08-13T13:02:45Z</time>
      </trkpt>
      <trkpt lat="40.541233" lon="-4.955833">
        <ele>2337.0</ele>
        <time>2018-08-13T13:02:46Z</time>
      </trkpt>
      <trkpt lat="40.541200" lon="-4.955933">
        <ele>2335.0</ele>
        <time>2018-08-13T13:02:47Z</time>
      </trkpt>
      <trkpt lat="40.541183" lon="-4.956050">
        <ele>2334.0</ele>
        <time>2018-08-13T13:02:48Z</time>
      </trkpt>
      <trkpt lat="40.541183" lon="-4.956167">
        <ele>2335.0</ele>
        <time>2018-08-13T13:02:49Z</time>
      </trkpt>
      <trkpt lat="40.541217" lon="-4.956283">
        <ele>2336.0</ele>
        <time>2018-08-13T13:02:50Z</time>
      </trkpt>
      <trkpt lat="40.541250" lon="-4.956367">
        <ele>2339.0</ele>
        <time>2018-08-13T13:02:51Z</time>
      </trkpt>
      <trkpt lat="40.541300" lon="-4.956450">
        <ele>2341.0</ele>
        <time>2018-08-13T13:02:52Z</time>
      </trkpt>
      <trkpt lat="40.541350" lon="-4.956517">
        <ele>2344.0</ele>
        <time>2018-08-13T13:02:53Z</time>
      </trkpt>
      <trkpt lat="40.541417" lon="-4.956567">
        <ele>2347.0</ele>
        <time>2018-08-13T13:02:54Z</time>
      </trkpt>
      <trkpt lat="40.541483" lon="-4.956617">
        <ele>2350.0</ele>
        <time>2018-08-13T13:02:55Z</time>
      </trkpt>
      <trkpt lat="40.541533" lon="-4.956650">
        <ele>2351.0</ele>
        <time>2018-08-13T13:02:56Z</time>
      </trkpt>
      <trkpt lat="40.541617" lon="-4.956650">
        <ele>2352.0</ele>
        <time>2018-08-13T13:02:57Z</time>
      </trkpt>
      <trkpt lat="40.541700" lon="-4.956650">
        <ele>2352.0</ele>
        <time>2018-08-13T13:02:58Z</time>
      </trkpt>
      <trkpt lat="40.541800" lon="-4.956617">
        <ele>2352.0</ele>
        <time>2018-08-13T13:02:59Z</time>
      </trkpt>
      <trkpt lat="40.541900" lon="-4.956567">
        <ele>2353.0</ele>
        <time>2018-08-13T13:03:00Z</time>
      </trkpt>
      <trkpt lat="40.542000" lon="-4.956500">
        <ele>2354.0</ele>
        <time>2018-08-13T13:03:01Z</time>
      </trkpt>
      <trkpt lat="40.542083" lon="-4.956383">
        <ele>2354.0</ele>
        <time>2018-08-13T13:03:02Z</time>
      </trkpt>
      <trkpt lat="40.542117" lon="-4.956233">
        <ele>2354.0</ele>
        <time>2018-08-13T13:03:03Z</time>
      </trkpt>
      <trkpt lat="40.542133" lon="-4.956067">
        <ele>2353.0</ele>
        <time>2018-08-13T13:03:04Z</time>
      </trkpt>
      <trkpt lat="40.542117" lon="-4.955883">
        <ele>2353.0</ele>
        <time>2018-08-13T13:03:05Z</time>
      </trkpt>
      <trkpt lat="40.542083" lon="-4.955733">
        <ele>2354.0</ele>
        <time>2018-08-13T13:03:06Z</time>
      </trkpt>
      <trkpt lat="40.542050" lon="-4.955567">
        <ele>2355.0</ele>
        <time>2018-08-13T13:03:07Z</time>
      </trkpt>
      <trkpt lat="40.542000" lon="-4.955417">
        <ele>2356.0</ele>
        <time>2018-08-13T13:03:08Z</time>
      </trkpt>
      <trkpt lat="40.541950" lon="-4.955283">
        <ele>2357.0</ele>
        <time>2018-08-13T13:03:09Z</time>
      </trkpt>
      <trkpt lat="40.541900" lon="-4.955133">
        <ele>2358.0</ele>
        <time>2018-08-13T13:03:10Z</time>
      </trkpt>
      <trkpt lat="40.541833" lon="-4.954983">
        <ele>2359.0</ele>
        <time>2018-08-13T13:03:11Z</time>
      </trkpt>
      <trkpt lat="40.541767" lon="-4.954850">
        <ele>2361.0</ele>
        <time>2018-08-13T13:03:12Z</time>
      </trkpt>
      <trkpt lat="40.541683" lon="-4.954717">
        <ele>2362.0</ele>
        <time>2018-08-13T13:03:13Z</time>
      </trkpt>
      <trkpt lat="40.541600" lon="-4.954600">
        <ele>2363.0</ele>
        <time>2018-08-13T13:03:14Z</time>
      </trkpt>
      <trkpt lat="40.541517" lon="-4.954500">
        <ele>2364.0</ele>
        <time>2018-08-13T13:03:15Z</time>
      </trkpt>
      <trkpt lat="40.541417" lon="-4.954433">
        <ele>2364.0</ele>
        <time>2018-08-13T13:03:16Z</time>
      </trkpt>
      <trkpt lat="40.541317" lon="-4.954383">
        <ele>2364.0</ele>
        <time>2018-08-13T13:03:17Z</time>
      </trkpt>
      <trkpt lat="40.541200" lon="-4.954367">
        <ele>2364.0</ele>
        <time>2018-08-13T13:03:18Z</time>
      </trkpt>
      <trkpt lat="40.541100" lon="-4.954367">
        <ele>2364.0</ele>
        <time>2018-08-13T13:03:19Z</time>
      </trkpt>
      <trkpt lat="40.540983" lon="-4.954383">
        <ele>2364.0</ele>
        <time>2018-08-13T13:03:20Z</time>
      </trkpt>
      <trkpt lat="40.540917" lon="-4.954433">
        <ele>2365.0</ele>
        <time>2018-08-13T13:03:21Z</time>
      </trkpt>
      <trkpt lat="40.540850" lon="-4.954517">
        <ele>2365.0</ele>
        <time>2018-08-13T13:03:22Z</time>
      </trkpt>
      <trkpt lat="40.540817" lon="-4.954600">
        <ele>2363.0</ele>
        <time>2018-08-13T13:03:23Z</time>
      </trkpt>
      <trkpt lat="40.540800" lon="-4.954700">
        <ele>2361.0</ele>
        <time>2018-08-13T13:03:24Z</time>
      </trkpt>
      <trkpt lat="40.540783" lon="-4.954800">
        <ele>2360.0</ele>
        <time>2018-08-13T13:03:25Z</time>
      </trkpt>
      <trkpt lat="40.540800" lon="-4.954917">
        <ele>2360.0</ele>
        <time>2018-08-13T13:03:26Z</time>
      </trkpt>
      <trkpt lat="40.540817" lon="-4.955017">
        <ele>2361.0</ele>
        <time>2018-08-13T13:03:27Z</time>
      </trkpt>
      <trkpt lat="40.540883" lon="-4.955083">
        <ele>2362.0</ele>
        <time>2018-08-13T13:03:28Z</time>
      </trkpt>
      <trkpt lat="40.540950" lon="-4.955150">
        <ele>2362.0</ele>
        <time>2018-08-13T13:03:29Z</time>
      </trkpt>
      <trkpt lat="40.541050" lon="-4.955167">
        <ele>2363.0</ele>
        <time>2018-08-13T13:03:30Z</time>
      </trkpt>
      <trkpt lat="40.541150" lon="-4.955167">
        <ele>2364.0</ele>
        <time>2018-08-13T13:03:31Z</time>
      </trkpt>
      <trkpt lat="40.541267" lon="-4.955150">
        <ele>2365.0</ele>
        <time>2018-08-13T13:03:32Z</time>
      </trkpt>
      <trkpt lat="40.541367" lon="-4.955117">
        <ele>2366.0</ele>
        <time>2018-08-13T13:03:33Z</time>
      </trkpt>
      <trkpt lat="40.541483" lon="-4.955067">
        <ele>2366.0</ele>
        <time>2018-08-13T13:03:34Z</time>
      </trkpt>
      <trkpt lat="40.541583" lon="-4.955000">
        <ele>2366.0</ele>
        <time>2018-08-13T13:03:35Z</time>
      </trkpt>
      <trkpt lat="40.541667" lon="-4.954900">
        <ele>2367.0</ele>
        <time>2018-08-13T13:03:36Z</time>
      </trkpt>
      <trkpt lat="40.541767" lon="-4.954800">
        <ele>2367.0</ele>
        <time>2018-08-13T13:03:37Z</time>
      </trkpt>
      <trkpt lat="40.541850" lon="-4.954667">
        <ele>2367.0</ele>
        <time>2018-08-13T13:03:38Z</time>
      </trkpt>
      <trkpt lat="40.541917" lon="-4.954550">
        <ele>2367.0</ele>
        <time>2018-08-13T13:03:39Z</time>
      </trkpt>
      <trkpt lat="40.541967" lon="-4.954433">
        <ele>2367.0</ele>
        <time>2018-08-13T13:03:40Z</time>
      </trkpt>
      <trkpt lat="40.542017" lon="-4.954300">
        <ele>2366.0</ele>
        <time>2018-08-13T13:03:41Z</time>
      </trkpt>
      <trkpt lat="40.542050" lon="-4.954167">
        <ele>2365.0</ele>
        <time>2018-08-13T13:03:42Z</time>
      </trkpt>
      <trkpt lat="40.542100" lon="-4.954017">
        <ele>2364.0</ele>
        <time>2018-08-13T13:03:43Z</time>
      </trkpt>
      <trkpt lat="40.542150" lon="-4.953867">
        <ele>2363.0</ele>
        <time>2018-08-13T13:03:44Z</time>
      </trkpt>
      <trkpt lat="40.542217" lon="-4.953717">
        <ele>2364.0</ele>
        <time>2018-08-13T13:03:45Z</time>
      </trkpt>
      <trkpt lat="40.542267" lon="-4.953583">
        <ele>2366.0</ele>
        <time>2018-08-13T13:03:46Z</time>
      </trkpt>
      <trkpt lat="40.542317" lon="-4.953450">
        <ele>2367.0</ele>
        <time>2018-08-13T13:03:47Z</time>
      </trkpt>
      <trkpt lat="40.542367" lon="-4.953333">
        <ele>2368.0</ele>
        <time>2018-08-13T13:03:48Z</time>
      </trkpt>
      <trkpt lat="40.542417" lon="-4.953217">
        <ele>2367.0</ele>
        <time>2018-08-13T13:03:49Z</time>
      </trkpt>
      <trkpt lat="40.542467" lon="-4.953083">
        <ele>2366.0</ele>
        <time>2018-08-13T13:03:50Z</time>
      </trkpt>
      <trkpt lat="40.542517" lon="-4.952967">
        <ele>2366.0</ele>
        <time>2018-08-13T13:03:51Z</time>
      </trkpt>
      <trkpt lat="40.542567" lon="-4.952833">
        <ele>2365.0</ele>
        <time>2018-08-13T13:03:52Z</time>
      </trkpt>
      <trkpt lat="40.542600" lon="-4.952717">
        <ele>2365.0</ele>
        <time>2018-08-13T13:03:53Z</time>
      </trkpt>
      <trkpt lat="40.542633" lon="-4.952583">
        <ele>2365.0</ele>
        <time>2018-08-13T13:03:54Z</time>
      </trkpt>
      <trkpt lat="40.542633" lon="-4.952450">
        <ele>2364.0</ele>
        <time>2018-08-13T13:03:55Z</time>
      </trkpt>
      <trkpt lat="40.542633" lon="-4.952317">
        <ele>2364.0</ele>
        <time>2018-08-13T13:03:56Z</time>
      </trkpt>
      <trkpt lat="40.542633" lon="-4.952167">
        <ele>2364.0</ele>
        <time>2018-08-13T13:03:57Z</time>
      </trkpt>
      <trkpt lat="40.542633" lon="-4.952017">
        <ele>2363.0</ele>
        <time>2018-08-13T13:03:58Z</time>
      </trkpt>
      <trkpt lat="40.542667" lon="-4.951867">
        <ele>2362.0</ele>
        <time>2018-08-13T13:03:59Z</time>
      </trkpt>
      <trkpt lat="40.542683" lon="-4.951717">
        <ele>2363.0</ele>
        <time>2018-08-13T13:04:00Z</time>
      </trkpt>
      <trkpt lat="40.542717" lon="-4.951550">
        <ele>2364.0</ele>
        <time>2018-08-13T13:04:01Z</time>
      </trkpt>
      <trkpt lat="40.542733" lon="-4.951400">
        <ele>2365.0</ele>
        <time>2018-08-13T13:04:02Z</time>
      </trkpt>
      <trkpt lat="40.542733" lon="-4.951250">
        <ele>2365.0</ele>
        <time>2018-08-13T13:04:03Z</time>
      </trkpt>
      <trkpt lat="40.542767" lon="-4.951117">
        <ele>2365.0</ele>
        <time>2018-08-13T13:04:04Z</time>
      </trkpt>
      <trkpt lat="40.542783" lon="-4.950983">
        <ele>2364.0</ele>
        <time>2018-08-13T13:04:05Z</time>
      </trkpt>
      <trkpt lat="40.542833" lon="-4.950867">
        <ele>2361.0</ele>
        <time>2018-08-13T13:04:06Z</time>
      </trkpt>
      <trkpt lat="40.542867" lon="-4.950733">
        <ele>2358.0</ele>
        <time>2018-08-13T13:04:07Z</time>
      </trkpt>
      <trkpt lat="40.542917" lon="-4.950600">
        <ele>2356.0</ele>
        <time>2018-08-13T13:04:08Z</time>
      </trkpt>
      <trkpt lat="40.542983" lon="-4.950483">
        <ele>2355.0</ele>
        <time>2018-08-13T13:04:09Z</time>
      </trkpt>
      <trkpt lat="40.543017" lon="-4.950367">
        <ele>2353.0</ele>
        <time>2018-08-13T13:04:10Z</time>
      </trkpt>
      <trkpt lat="40.543050" lon="-4.950250">
        <ele>2350.0</ele>
        <time>2018-08-13T13:04:11Z</time>
      </trkpt>
      <trkpt lat="40.543100" lon="-4.950133">
        <ele>2346.0</ele>
        <time>2018-08-13T13:04:12Z</time>
      </trkpt>
      <trkpt lat="40.543150" lon="-4.949983">
        <ele>2342.0</ele>
        <time>2018-08-13T13:04:13Z</time>
      </trkpt>
      <trkpt lat="40.543217" lon="-4.949833">
        <ele>2338.0</ele>
        <time>2018-08-13T13:04:14Z</time>
      </trkpt>
      <trkpt lat="40.543283" lon="-4.949683">
        <ele>2337.0</ele>
        <time>2018-08-13T13:04:15Z</time>
      </trkpt>
      <trkpt lat="40.543367" lon="-4.949533">
        <ele>2339.0</ele>
        <time>2018-08-13T13:04:16Z</time>
      </trkpt>
      <trkpt lat="40.543433" lon="-4.949400">
        <ele>2342.0</ele>
        <time>2018-08-13T13:04:17Z</time>
      </trkpt>
      <trkpt lat="40.543500" lon="-4.949300">
        <ele>2344.0</ele>
        <time>2018-08-13T13:04:18Z</time>
      </trkpt>
      <trkpt lat="40.543550" lon="-4.949183">
        <ele>2345.0</ele>
        <time>2018-08-13T13:04:19Z</time>
      </trkpt>
      <trkpt lat="40.543617" lon="-4.949083">
        <ele>2345.0</ele>
        <time>2018-08-13T13:04:20Z</time>
      </trkpt>
      <trkpt lat="40.543683" lon="-4.948967">
        <ele>2343.0</ele>
        <time>2018-08-13T13:04:21Z</time>
      </trkpt>
      <trkpt lat="40.543750" lon="-4.948833">
        <ele>2342.0</ele>
        <time>2018-08-13T13:04:22Z</time>
      </trkpt>
      <trkpt lat="40.543817" lon="-4.948700">
        <ele>2340.0</ele>
        <time>2018-08-13T13:04:23Z</time>
      </trkpt>
      <trkpt lat="40.543900" lon="-4.948567">
        <ele>2340.0</ele>
        <time>2018-08-13T13:04:24Z</time>
      </trkpt>
      <trkpt lat="40.544000" lon="-4.948433">
        <ele>2341.0</ele>
        <time>2018-08-13T13:04:25Z</time>
      </trkpt>
      <trkpt lat="40.544083" lon="-4.948317">
        <ele>2342.0</ele>
        <time>2018-08-13T13:04:26Z</time>
      </trkpt>
      <trkpt lat="40.544150" lon="-4.948200">
        <ele>2345.0</ele>
        <time>2018-08-13T13:04:27Z</time>
      </trkpt>
      <trkpt lat="40.544200" lon="-4.948083">
        <ele>2347.0</ele>
        <time>2018-08-13T13:04:28Z</time>
      </trkpt>
      <trkpt lat="40.544250" lon="-4.947967">
        <ele>2348.0</ele>
        <time>2018-08-13T13:04:29Z</time>
      </trkpt>
      <trkpt lat="40.544300" lon="-4.947867">
        <ele>2348.0</ele>
        <time>2018-08-13T13:04:30Z</time>
      </trkpt>
      <trkpt lat="40.544367" lon="-4.947750">
        <ele>2348.0</ele>
        <time>2018-08-13T13:04:31Z</time>
      </trkpt>
      <trkpt lat="40.544417" lon="-4.947650">
        <ele>2348.0</ele>
        <time>2018-08-13T13:04:32Z</time>
      </trkpt>
      <trkpt lat="40.544467" lon="-4.947550">
        <ele>2348.0</ele>
        <time>2018-08-13T13:04:33Z</time>
      </trkpt>
      <trkpt lat="40.544533" lon="-4.947433">
        <ele>2347.0</ele>
        <time>2018-08-13T13:04:34Z</time>
      </trkpt>
      <trkpt lat="40.544600" lon="-4.947333">
        <ele>2346.0</ele>
        <time>2018-08-13T13:04:35Z</time>
      </trkpt>
      <trkpt lat="40.544650" lon="-4.947233">
        <ele>2344.0</ele>
        <time>2018-08-13T13:04:36Z</time>
      </trkpt>
      <trkpt lat="40.544733" lon="-4.947133">
        <ele>2342.0</ele>
        <time>2018-08-13T13:04:37Z</time>
      </trkpt>
      <trkpt lat="40.544800" lon="-4.947033">
        <ele>2341.0</ele>
        <time>2018-08-13T13:04:38Z</time>
      </trkpt>
      <trkpt lat="40.544867" lon="-4.946917">
        <ele>2340.0</ele>
        <time>2018-08-13T13:04:39Z</time>
      </trkpt>
      <trkpt lat="40.544950" lon="-4.946817">
        <ele>2340.0</ele>
        <time>2018-08-13T13:04:40Z</time>
      </trkpt>
      <trkpt lat="40.545033" lon="-4.946733">
        <ele>2341.0</ele>
        <time>2018-08-13T13:04:41Z</time>
      </trkpt>
      <trkpt lat="40.545117" lon="-4.946650">
        <ele>2341.0</ele>
        <time>2018-08-13T13:04:42Z</time>
      </trkpt>
      <trkpt lat="40.545200" lon="-4.946567">
        <ele>2341.0</ele>
        <time>2018-08-13T13:04:43Z</time>
      </trkpt>
      <trkpt lat="40.545283" lon="-4.946500">
        <ele>2341.0</ele>
        <time>2018-08-13T13:04:44Z</time>
      </trkpt>
      <trkpt lat="40.545367" lon="-4.946433">
        <ele>2341.0</ele>
        <time>2018-08-13T13:04:45Z</time>
      </trkpt>
      <trkpt lat="40.545450" lon="-4.946333">
        <ele>2341.0</ele>
        <time>2018-08-13T13:04:46Z</time>
      </trkpt>
      <trkpt lat="40.545533" lon="-4.946233">
        <ele>2341.0</ele>
        <time>2018-08-13T13:04:47Z</time>
      </trkpt>
      <trkpt lat="40.545600" lon="-4.946133">
        <ele>2341.0</ele>
        <time>2018-08-13T13:04:48Z</time>
      </trkpt>
      <trkpt lat="40.545667" lon="-4.946033">
        <ele>2342.0</ele>
        <time>2018-08-13T13:04:49Z</time>
      </trkpt>
      <trkpt lat="40.545733" lon="-4.945933">
        <ele>2341.0</ele>
        <time>2018-08-13T13:04:50Z</time>
      </trkpt>
      <trkpt lat="40.545817" lon="-4.945850">
        <ele>2341.0</ele>
        <time>2018-08-13T13:04:51Z</time>
      </trkpt>
      <trkpt lat="40.545883" lon="-4.945750">
        <ele>2341.0</ele>
        <time>2018-08-13T13:04:52Z</time>
      </trkpt>
      <trkpt lat="40.545933" lon="-4.945633">
        <ele>2340.0</ele>
        <time>2018-08-13T13:04:53Z</time>
      </trkpt>
      <trkpt lat="40.546000" lon="-4.945517">
        <ele>2339.0</ele>
        <time>2018-08-13T13:04:54Z</time>
      </trkpt>
      <trkpt lat="40.546050" lon="-4.945400">
        <ele>2338.0</ele>
        <time>2018-08-13T13:04:55Z</time>
      </trkpt>
      <trkpt lat="40.546117" lon="-4.945300">
        <ele>2336.0</ele>
        <time>2018-08-13T13:04:56Z</time>
      </trkpt>
      <trkpt lat="40.546200" lon="-4.945183">
        <ele>2335.0</ele>
        <time>2018-08-13T13:04:57Z</time>
      </trkpt>
      <trkpt lat="40.546283" lon="-4.945050">
        <ele>2335.0</ele>
        <time>2018-08-13T13:04:58Z</time>
      </trkpt>
      <trkpt lat="40.546350" lon="-4.944917">
        <ele>2336.0</ele>
        <time>2018-08-13T13:04:59Z</time>
      </trkpt>
      <trkpt lat="40.546417" lon="-4.944800">
        <ele>2337.0</ele>
        <time>2018-08-13T13:05:00Z</time>
      </trkpt>
      <trkpt lat="40.546483" lon="-4.944683">
        <ele>2337.0</ele>
        <time>2018-08-13T13:05:01Z</time>
      </trkpt>
      <trkpt lat="40.546550" lon="-4.944567">
        <ele>2336.0</ele>
        <time>2018-08-13T13:05:02Z</time>
      </trkpt>
      <trkpt lat="40.546617" lon="-4.944467">
        <ele>2334.0</ele>
        <time>2018-08-13T13:05:03Z</time>
      </trkpt>
      <trkpt lat="40.546683" lon="-4.944367">
        <ele>2332.0</ele>
        <time>2018-08-13T13:05:04Z</time>
      </trkpt>
      <trkpt lat="40.546767" lon="-4.944283">
        <ele>2330.0</ele>
        <time>2018-08-13T13:05:05Z</time>
      </trkpt>
      <trkpt lat="40.546850" lon="-4.944217">
        <ele>2329.0</ele>
        <time>2018-08-13T13:05:06Z</time>
      </trkpt>
      <trkpt lat="40.546933" lon="-4.944150">
        <ele>2328.0</ele>
        <time>2018-08-13T13:05:07Z</time>
      </trkpt>
      <trkpt lat="40.547017" lon="-4.944050">
        <ele>2326.0</ele>
        <time>2018-08-13T13:05:08Z</time>
      </trkpt>
      <trkpt lat="40.547083" lon="-4.943933">
        <ele>2323.0</ele>
        <time>2018-08-13T13:05:09Z</time>
      </trkpt>
      <trkpt lat="40.547150" lon="-4.943783">
        <ele>2320.0</ele>
        <time>2018-08-13T13:05:10Z</time>
      </trkpt>
      <trkpt lat="40.547217" lon="-4.943667">
        <ele>2317.0</ele>
        <time>2018-08-13T13:05:11Z</time>
      </trkpt>
      <trkpt lat="40.547283" lon="-4.943533">
        <ele>2315.0</ele>
        <time>2018-08-13T13:05:12Z</time>
      </trkpt>
      <trkpt lat="40.547367" lon="-4.943417">
        <ele>2314.0</ele>
        <time>2018-08-13T13:05:13Z</time>
      </trkpt>
      <trkpt lat="40.547450" lon="-4.943283">
        <ele>2314.0</ele>
        <time>2018-08-13T13:05:14Z</time>
      </trkpt>
      <trkpt lat="40.547500" lon="-4.943167">
        <ele>2315.0</ele>
        <time>2018-08-13T13:05:15Z</time>
      </trkpt>
      <trkpt lat="40.547550" lon="-4.943033">
        <ele>2315.0</ele>
        <time>2018-08-13T13:05:16Z</time>
      </trkpt>
      <trkpt lat="40.547600" lon="-4.942900">
        <ele>2315.0</ele>
        <time>2018-08-13T13:05:17Z</time>
      </trkpt>
      <trkpt lat="40.547650" lon="-4.942733">
        <ele>2313.0</ele>
        <time>2018-08-13T13:05:18Z</time>
      </trkpt>
      <trkpt lat="40.547700" lon="-4.942583">
        <ele>2310.0</ele>
        <time>2018-08-13T13:05:19Z</time>
      </trkpt>
      <trkpt lat="40.547767" lon="-4.942417">
        <ele>2308.0</ele>
        <time>2018-08-13T13:05:20Z</time>
      </trkpt>
      <trkpt lat="40.547817" lon="-4.942250">
        <ele>2306.0</ele>
        <time>2018-08-13T13:05:21Z</time>
      </trkpt>
      <trkpt lat="40.547883" lon="-4.942100">
        <ele>2304.0</ele>
        <time>2018-08-13T13:05:22Z</time>
      </trkpt>
      <trkpt lat="40.547933" lon="-4.941950">
        <ele>2302.0</ele>
        <time>2018-08-13T13:05:23Z</time>
      </trkpt>
      <trkpt lat="40.547983" lon="-4.941800">
        <ele>2300.0</ele>
        <time>2018-08-13T13:05:24Z</time>
      </trkpt>
      <trkpt lat="40.548033" lon="-4.941650">
        <ele>2298.0</ele>
        <time>2018-08-13T13:05:25Z</time>
      </trkpt>
      <trkpt lat="40.548083" lon="-4.941517">
        <ele>2295.0</ele>
        <time>2018-08-13T13:05:26Z</time>
      </trkpt>
      <trkpt lat="40.548167" lon="-4.941367">
        <ele>2293.0</ele>
        <time>2018-08-13T13:05:27Z</time>
      </trkpt>
      <trkpt lat="40.548250" lon="-4.941233">
        <ele>2291.0</ele>
        <time>2018-08-13T13:05:28Z</time>
      </trkpt>
      <trkpt lat="40.548317" lon="-4.941067">
        <ele>2290.0</ele>
        <time>2018-08-13T13:05:29Z</time>
      </trkpt>
      <trkpt lat="40.548367" lon="-4.940900">
        <ele>2288.0</ele>
        <time>2018-08-13T13:05:30Z</time>
      </trkpt>
      <trkpt lat="40.548400" lon="-4.940733">
        <ele>2286.0</ele>
        <time>2018-08-13T13:05:31Z</time>
      </trkpt>
      <trkpt lat="40.548433" lon="-4.940583">
        <ele>2285.0</ele>
        <time>2018-08-13T13:05:32Z</time>
      </trkpt>
      <trkpt lat="40.548483" lon="-4.940417">
        <ele>2283.0</ele>
        <time>2018-08-13T13:05:33Z</time>
      </trkpt>
      <trkpt lat="40.548550" lon="-4.940267">
        <ele>2281.0</ele>
        <time>2018-08-13T13:05:34Z</time>
      </trkpt>
      <trkpt lat="40.548600" lon="-4.940117">
        <ele>2280.0</ele>
        <time>2018-08-13T13:05:35Z</time>
      </trkpt>
      <trkpt lat="40.548650" lon="-4.939950">
        <ele>2279.0</ele>
        <time>2018-08-13T13:05:36Z</time>
      </trkpt>
      <trkpt lat="40.548683" lon="-4.939800">
        <ele>2278.0</ele>
        <time>2018-08-13T13:05:37Z</time>
      </trkpt>
      <trkpt lat="40.548733" lon="-4.939650">
        <ele>2277.0</ele>
        <time>2018-08-13T13:05:38Z</time>
      </trkpt>
      <trkpt lat="40.548767" lon="-4.939500">
        <ele>2275.0</ele>
        <time>2018-08-13T13:05:39Z</time>
      </trkpt>
      <trkpt lat="40.548817" lon="-4.939333">
        <ele>2273.0</ele>
        <time>2018-08-13T13:05:40Z</time>
      </trkpt>
      <trkpt lat="40.548850" lon="-4.939167">
        <ele>2270.0</ele>
        <time>2018-08-13T13:05:41Z</time>
      </trkpt>
      <trkpt lat="40.548900" lon="-4.939000">
        <ele>2269.0</ele>
        <time>2018-08-13T13:05:42Z</time>
      </trkpt>
      <trkpt lat="40.548933" lon="-4.938833">
        <ele>2267.0</ele>
        <time>2018-08-13T13:05:43Z</time>
      </trkpt>
      <trkpt lat="40.548967" lon="-4.938683">
        <ele>2266.0</ele>
        <time>2018-08-13T13:05:44Z</time>
      </trkpt>
      <trkpt lat="40.549017" lon="-4.938517">
        <ele>2264.0</ele>
        <time>2018-08-13T13:05:45Z</time>
      </trkpt>
      <trkpt lat="40.549050" lon="-4.938367">
        <ele>2262.0</ele>
        <time>2018-08-13T13:05:46Z</time>
      </trkpt>
      <trkpt lat="40.549100" lon="-4.938200">
        <ele>2260.0</ele>
        <time>2018-08-13T13:05:47Z</time>
      </trkpt>
      <trkpt lat="40.549150" lon="-4.938033">
        <ele>2259.0</ele>
        <time>2018-08-13T13:05:48Z</time>
      </trkpt>
      <trkpt lat="40.549217" lon="-4.937883">
        <ele>2258.0</ele>
        <time>2018-08-13T13:05:49Z</time>
      </trkpt>
      <trkpt lat="40.549250" lon="-4.937733">
        <ele>2258.0</ele>
        <time>2018-08-13T13:05:50Z</time>
      </trkpt>
      <trkpt lat="40.549300" lon="-4.937600">
        <ele>2257.0</ele>
        <time>2018-08-13T13:05:51Z</time>
      </trkpt>
      <trkpt lat="40.549333" lon="-4.937450">
        <ele>2255.0</ele>
        <time>2018-08-13T13:05:52Z</time>
      </trkpt>
      <trkpt lat="40.549367" lon="-4.937300">
        <ele>2253.0</ele>
        <time>2018-08-13T13:05:53Z</time>
      </trkpt>
      <trkpt lat="40.549417" lon="-4.937150">
        <ele>2250.0</ele>
        <time>2018-08-13T13:05:54Z</time>
      </trkpt>
      <trkpt lat="40.549467" lon="-4.936983">
        <ele>2248.0</ele>
        <time>2018-08-13T13:05:55Z</time>
      </trkpt>
      <trkpt lat="40.549517" lon="-4.936817">
        <ele>2247.0</ele>
        <time>2018-08-13T13:05:56Z</time>
      </trkpt>
      <trkpt lat="40.549550" lon="-4.936650">
        <ele>2247.0</ele>
        <time>2018-08-13T13:05:57Z</time>
      </trkpt>
      <trkpt lat="40.549600" lon="-4.936500">
        <ele>2247.0</ele>
        <time>2018-08-13T13:05:58Z</time>
      </trkpt>
      <trkpt lat="40.549633" lon="-4.936333">
        <ele>2246.0</ele>
        <time>2018-08-13T13:05:59Z</time>
      </trkpt>
      <trkpt lat="40.549667" lon="-4.936183">
        <ele>2244.0</ele>
        <time>2018-08-13T13:06:00Z</time>
      </trkpt>
      <trkpt lat="40.549717" lon="-4.936017">
        <ele>2243.0</ele>
        <time>2018-08-13T13:06:01Z</time>
      </trkpt>
      <trkpt lat="40.549750" lon="-4.935850">
        <ele>2241.0</ele>
        <time>2018-08-13T13:06:02Z</time>
      </trkpt>
      <trkpt lat="40.549800" lon="-4.935683">
        <ele>2240.0</ele>
        <time>2018-08-13T13:06:03Z</time>
      </trkpt>
      <trkpt lat="40.549850" lon="-4.935533">
        <ele>2239.0</ele>
        <time>2018-08-13T13:06:04Z</time>
      </trkpt>
      <trkpt lat="40.549900" lon="-4.935383">
        <ele>2237.0</ele>
        <time>2018-08-13T13:06:05Z</time>
      </trkpt>
      <trkpt lat="40.549950" lon="-4.935217">
        <ele>2234.0</ele>
        <time>2018-08-13T13:06:06Z</time>
      </trkpt>
      <trkpt lat="40.550000" lon="-4.935050">
        <ele>2232.0</ele>
        <time>2018-08-13T13:06:07Z</time>
      </trkpt>
      <trkpt lat="40.550067" lon="-4.934883">
        <ele>2231.0</ele>
        <time>2018-08-13T13:06:08Z</time>
      </trkpt>
      <trkpt lat="40.550117" lon="-4.934733">
        <ele>2229.0</ele>
        <time>2018-08-13T13:06:09Z</time>
      </trkpt>
      <trkpt lat="40.550183" lon="-4.934583">
        <ele>2227.0</ele>
        <time>2018-08-13T13:06:10Z</time>
      </trkpt>
      <trkpt lat="40.550233" lon="-4.934417">
        <ele>2225.0</ele>
        <time>2018-08-13T13:06:11Z</time>
      </trkpt>
      <trkpt lat="40.550300" lon="-4.934267">
        <ele>2223.0</ele>
        <time>2018-08-13T13:06:12Z</time>
      </trkpt>
      <trkpt lat="40.550350" lon="-4.934117">
        <ele>2221.0</ele>
        <time>2018-08-13T13:06:13Z</time>
      </trkpt>
      <trkpt lat="40.550417" lon="-4.933950">
        <ele>2219.0</ele>
        <time>2018-08-13T13:06:14Z</time>
      </trkpt>
      <trkpt lat="40.550467" lon="-4.933800">
        <ele>2216.0</ele>
        <time>2018-08-13T13:06:15Z</time>
      </trkpt>
      <trkpt lat="40.550517" lon="-4.933633">
        <ele>2213.0</ele>
        <time>2018-08-13T13:06:16Z</time>
      </trkpt>
      <trkpt lat="40.550583" lon="-4.933483">
        <ele>2211.0</ele>
        <time>2018-08-13T13:06:17Z</time>
      </trkpt>
      <trkpt lat="40.550633" lon="-4.933333">
        <ele>2208.0</ele>
        <time>2018-08-13T13:06:18Z</time>
      </trkpt>
      <trkpt lat="40.550700" lon="-4.933183">
        <ele>2206.0</ele>
        <time>2018-08-13T13:06:19Z</time>
      </trkpt>
      <trkpt lat="40.550767" lon="-4.933050">
        <ele>2204.0</ele>
        <time>2018-08-13T13:06:20Z</time>
      </trkpt>
      <trkpt lat="40.550817" lon="-4.932917">
        <ele>2203.0</ele>
        <time>2018-08-13T13:06:21Z</time>
      </trkpt>
      <trkpt lat="40.550883" lon="-4.932767">
        <ele>2202.0</ele>
        <time>2018-08-13T13:06:22Z</time>
      </trkpt>
      <trkpt lat="40.550917" lon="-4.932633">
        <ele>2200.0</ele>
        <time>2018-08-13T13:06:23Z</time>
      </trkpt>
      <trkpt lat="40.550967" lon="-4.932483">
        <ele>2198.0</ele>
        <time>2018-08-13T13:06:24Z</time>
      </trkpt>
      <trkpt lat="40.551033" lon="-4.932350">
        <ele>2196.0</ele>
        <time>2018-08-13T13:06:25Z</time>
      </trkpt>
      <trkpt lat="40.551083" lon="-4.932200">
        <ele>2193.0</ele>
        <time>2018-08-13T13:06:26Z</time>
      </trkpt>
      <trkpt lat="40.551150" lon="-4.932050">
        <ele>2191.0</ele>
        <time>2018-08-13T13:06:27Z</time>
      </trkpt>
      <trkpt lat="40.551217" lon="-4.931900">
        <ele>2190.0</ele>
        <time>2018-08-13T13:06:28Z</time>
      </trkpt>
      <trkpt lat="40.551283" lon="-4.931767">
        <ele>2189.0</ele>
        <time>2018-08-13T13:06:29Z</time>
      </trkpt>
      <trkpt lat="40.551350" lon="-4.931617">
        <ele>2188.0</ele>
        <time>2018-08-13T13:06:30Z</time>
      </trkpt>
      <trkpt lat="40.551417" lon="-4.931483">
        <ele>2188.0</ele>
        <time>2018-08-13T13:06:31Z</time>
      </trkpt>
      <trkpt lat="40.551467" lon="-4.931350">
        <ele>2187.0</ele>
        <time>2018-08-13T13:06:32Z</time>
      </trkpt>
      <trkpt lat="40.551533" lon="-4.931217">
        <ele>2186.0</ele>
        <time>2018-08-13T13:06:33Z</time>
      </trkpt>
      <trkpt lat="40.551600" lon="-4.931067">
        <ele>2184.0</ele>
        <time>2018-08-13T13:06:34Z</time>
      </trkpt>
      <trkpt lat="40.551667" lon="-4.930933">
        <ele>2183.0</ele>
        <time>2018-08-13T13:06:35Z</time>
      </trkpt>
      <trkpt lat="40.551733" lon="-4.930800">
        <ele>2181.0</ele>
        <time>2018-08-13T13:06:36Z</time>
      </trkpt>
      <trkpt lat="40.551783" lon="-4.930650">
        <ele>2181.0</ele>
        <time>2018-08-13T13:06:37Z</time>
      </trkpt>
      <trkpt lat="40.551833" lon="-4.930517">
        <ele>2180.0</ele>
        <time>2018-08-13T13:06:38Z</time>
      </trkpt>
      <trkpt lat="40.551883" lon="-4.930367">
        <ele>2180.0</ele>
        <time>2018-08-13T13:06:39Z</time>
      </trkpt>
      <trkpt lat="40.551933" lon="-4.930233">
        <ele>2179.0</ele>
        <time>2018-08-13T13:06:40Z</time>
      </trkpt>
      <trkpt lat="40.551983" lon="-4.930083">
        <ele>2178.0</ele>
        <time>2018-08-13T13:06:41Z</time>
      </trkpt>
      <trkpt lat="40.552017" lon="-4.929950">
        <ele>2178.0</ele>
        <time>2018-08-13T13:06:42Z</time>
      </trkpt>
      <trkpt lat="40.552067" lon="-4.929817">
        <ele>2177.0</ele>
        <time>2018-08-13T13:06:43Z</time>
      </trkpt>
      <trkpt lat="40.552117" lon="-4.929683">
        <ele>2176.0</ele>
        <time>2018-08-13T13:06:44Z</time>
      </trkpt>
      <trkpt lat="40.552167" lon="-4.929550">
        <ele>2174.0</ele>
        <time>2018-08-13T13:06:45Z</time>
      </trkpt>
      <trkpt lat="40.552200" lon="-4.929433">
        <ele>2172.0</ele>
        <time>2018-08-13T13:06:46Z</time>
      </trkpt>
      <trkpt lat="40.552250" lon="-4.929300">
        <ele>2171.0</ele>
        <time>2018-08-13T13:06:47Z</time>
      </trkpt>
      <trkpt lat="40.552317" lon="-4.929183">
        <ele>2169.0</ele>
        <time>2018-08-13T13:06:48Z</time>
      </trkpt>
      <trkpt lat="40.552367" lon="-4.929050">
        <ele>2168.0</ele>
        <time>2018-08-13T13:06:49Z</time>
      </trkpt>
      <trkpt lat="40.552400" lon="-4.928933">
        <ele>2167.0</ele>
        <time>2018-08-13T13:06:50Z</time>
      </trkpt>
      <trkpt lat="40.552433" lon="-4.928800">
        <ele>2165.0</ele>
        <time>2018-08-13T13:06:51Z</time>
      </trkpt>
      <trkpt lat="40.552467" lon="-4.928650">
        <ele>2162.0</ele>
        <time>2018-08-13T13:06:52Z</time>
      </trkpt>
      <trkpt lat="40.552517" lon="-4.928517">
        <ele>2160.0</ele>
        <time>2018-08-13T13:06:53Z</time>
      </trkpt>
      <trkpt lat="40.552567" lon="-4.928400">
        <ele>2158.0</ele>
        <time>2018-08-13T13:06:54Z</time>
      </trkpt>
      <trkpt lat="40.552633" lon="-4.928300">
        <ele>2155.0</ele>
        <time>2018-08-13T13:06:55Z</time>
      </trkpt>
      <trkpt lat="40.552700" lon="-4.928183">
        <ele>2153.0</ele>
        <time>2018-08-13T13:06:56Z</time>
      </trkpt>
      <trkpt lat="40.552750" lon="-4.928067">
        <ele>2151.0</ele>
        <time>2018-08-13T13:06:57Z</time>
      </trkpt>
      <trkpt lat="40.552800" lon="-4.927917">
        <ele>2150.0</ele>
        <time>2018-08-13T13:06:58Z</time>
      </trkpt>
      <trkpt lat="40.552850" lon="-4.927783">
        <ele>2149.0</ele>
        <time>2018-08-13T13:06:59Z</time>
      </trkpt>
      <trkpt lat="40.552900" lon="-4.927650">
        <ele>2148.0</ele>
        <time>2018-08-13T13:07:00Z</time>
      </trkpt>
      <trkpt lat="40.552950" lon="-4.927533">
        <ele>2146.0</ele>
        <time>2018-08-13T13:07:01Z</time>
      </trkpt>
      <trkpt lat="40.553000" lon="-4.927400">
        <ele>2144.0</ele>
        <time>2018-08-13T13:07:02Z</time>
      </trkpt>
      <trkpt lat="40.553033" lon="-4.927250">
        <ele>2142.0</ele>
        <time>2018-08-13T13:07:03Z</time>
      </trkpt>
      <trkpt lat="40.553083" lon="-4.927100">
        <ele>2140.0</ele>
        <time>2018-08-13T13:07:04Z</time>
      </trkpt>
      <trkpt lat="40.553133" lon="-4.926967">
        <ele>2138.0</ele>
        <time>2018-08-13T13:07:05Z</time>
      </trkpt>
      <trkpt lat="40.553183" lon="-4.926850">
        <ele>2136.0</ele>
        <time>2018-08-13T13:07:06Z</time>
      </trkpt>
      <trkpt lat="40.553217" lon="-4.926717">
        <ele>2133.0</ele>
        <time>2018-08-13T13:07:07Z</time>
      </trkpt>
      <trkpt lat="40.553250" lon="-4.926583">
        <ele>2130.0</ele>
        <time>2018-08-13T13:07:08Z</time>
      </trkpt>
      <trkpt lat="40.553283" lon="-4.926433">
        <ele>2126.0</ele>
        <time>2018-08-13T13:07:09Z</time>
      </trkpt>
      <trkpt lat="40.553333" lon="-4.926267">
        <ele>2123.0</ele>
        <time>2018-08-13T13:07:10Z</time>
      </trkpt>
      <trkpt lat="40.553367" lon="-4.926117">
        <ele>2120.0</ele>
        <time>2018-08-13T13:07:11Z</time>
      </trkpt>
      <trkpt lat="40.553417" lon="-4.925983">
        <ele>2117.0</ele>
        <time>2018-08-13T13:07:12Z</time>
      </trkpt>
      <trkpt lat="40.553467" lon="-4.925833">
        <ele>2114.0</ele>
        <time>2018-08-13T13:07:13Z</time>
      </trkpt>
      <trkpt lat="40.553500" lon="-4.925667">
        <ele>2111.0</ele>
        <time>2018-08-13T13:07:14Z</time>
      </trkpt>
      <trkpt lat="40.553550" lon="-4.925517">
        <ele>2108.0</ele>
        <time>2018-08-13T13:07:15Z</time>
      </trkpt>
      <trkpt lat="40.553583" lon="-4.925367">
        <ele>2105.0</ele>
        <time>2018-08-13T13:07:16Z</time>
      </trkpt>
      <trkpt lat="40.553650" lon="-4.925217">
        <ele>2102.0</ele>
        <time>2018-08-13T13:07:17Z</time>
      </trkpt>
      <trkpt lat="40.553700" lon="-4.925067">
        <ele>2099.0</ele>
        <time>2018-08-13T13:07:18Z</time>
      </trkpt>
      <trkpt lat="40.553733" lon="-4.924900">
        <ele>2097.0</ele>
        <time>2018-08-13T13:07:19Z</time>
      </trkpt>
      <trkpt lat="40.553783" lon="-4.924750">
        <ele>2095.0</ele>
        <time>2018-08-13T13:07:20Z</time>
      </trkpt>
      <trkpt lat="40.553817" lon="-4.924583">
        <ele>2091.0</ele>
        <time>2018-08-13T13:07:21Z</time>
      </trkpt>
      <trkpt lat="40.553867" lon="-4.924433">
        <ele>2088.0</ele>
        <time>2018-08-13T13:07:22Z</time>
      </trkpt>
      <trkpt lat="40.553933" lon="-4.924283">
        <ele>2085.0</ele>
        <time>2018-08-13T13:07:23Z</time>
      </trkpt>
      <trkpt lat="40.554000" lon="-4.924117">
        <ele>2082.0</ele>
        <time>2018-08-13T13:07:24Z</time>
      </trkpt>
      <trkpt lat="40.554067" lon="-4.923967">
        <ele>2079.0</ele>
        <time>2018-08-13T13:07:25Z</time>
      </trkpt>
      <trkpt lat="40.554117" lon="-4.923817">
        <ele>2076.0</ele>
        <time>2018-08-13T13:07:26Z</time>
      </trkpt>
      <trkpt lat="40.554183" lon="-4.923683">
        <ele>2073.0</ele>
        <time>2018-08-13T13:07:27Z</time>
      </trkpt>
      <trkpt lat="40.554250" lon="-4.923533">
        <ele>2070.0</ele>
        <time>2018-08-13T13:07:28Z</time>
      </trkpt>
      <trkpt lat="40.554317" lon="-4.923400">
        <ele>2066.0</ele>
        <time>2018-08-13T13:07:29Z</time>
      </trkpt>
      <trkpt lat="40.554383" lon="-4.923233">
        <ele>2063.0</ele>
        <time>2018-08-13T13:07:30Z</time>
      </trkpt>
      <trkpt lat="40.554450" lon="-4.923100">
        <ele>2061.0</ele>
        <time>2018-08-13T13:07:31Z</time>
      </trkpt>
      <trkpt lat="40.554517" lon="-4.922950">
        <ele>2059.0</ele>
        <time>2018-08-13T13:07:32Z</time>
      </trkpt>
      <trkpt lat="40.554567" lon="-4.922817">
        <ele>2057.0</ele>
        <time>2018-08-13T13:07:33Z</time>
      </trkpt>
      <trkpt lat="40.554633" lon="-4.922667">
        <ele>2054.0</ele>
        <time>2018-08-13T13:07:34Z</time>
      </trkpt>
      <trkpt lat="40.554683" lon="-4.922517">
        <ele>2051.0</ele>
        <time>2018-08-13T13:07:35Z</time>
      </trkpt>
      <trkpt lat="40.554733" lon="-4.922367">
        <ele>2048.0</ele>
        <time>2018-08-13T13:07:36Z</time>
      </trkpt>
      <trkpt lat="40.554800" lon="-4.922217">
        <ele>2044.0</ele>
        <time>2018-08-13T13:07:37Z</time>
      </trkpt>
      <trkpt lat="40.554867" lon="-4.922067">
        <ele>2041.0</ele>
        <time>2018-08-13T13:07:38Z</time>
      </trkpt>
      <trkpt lat="40.554950" lon="-4.921917">
        <ele>2038.0</ele>
        <time>2018-08-13T13:07:39Z</time>
      </trkpt>
      <trkpt lat="40.555017" lon="-4.921783">
        <ele>2037.0</ele>
        <time>2018-08-13T13:07:40Z</time>
      </trkpt>
      <trkpt lat="40.555100" lon="-4.921667">
        <ele>2035.0</ele>
        <time>2018-08-13T13:07:41Z</time>
      </trkpt>
      <trkpt lat="40.555183" lon="-4.921567">
        <ele>2033.0</ele>
        <time>2018-08-13T13:07:42Z</time>
      </trkpt>
      <trkpt lat="40.555283" lon="-4.921450">
        <ele>2030.0</ele>
        <time>2018-08-13T13:07:43Z</time>
      </trkpt>
      <trkpt lat="40.555367" lon="-4.921350">
        <ele>2027.0</ele>
        <time>2018-08-13T13:07:44Z</time>
      </trkpt>
      <trkpt lat="40.555450" lon="-4.921233">
        <ele>2024.0</ele>
        <time>2018-08-13T13:07:45Z</time>
      </trkpt>
      <trkpt lat="40.555550" lon="-4.921150">
        <ele>2021.0</ele>
        <time>2018-08-13T13:07:46Z</time>
      </trkpt>
      <trkpt lat="40.555650" lon="-4.921067">
        <ele>2018.0</ele>
        <time>2018-08-13T13:07:47Z</time>
      </trkpt>
      <trkpt lat="40.555750" lon="-4.920983">
        <ele>2016.0</ele>
        <time>2018-08-13T13:07:48Z</time>
      </trkpt>
      <trkpt lat="40.555850" lon="-4.920900">
        <ele>2015.0</ele>
        <time>2018-08-13T13:07:49Z</time>
      </trkpt>
      <trkpt lat="40.555950" lon="-4.920833">
        <ele>2014.0</ele>
        <time>2018-08-13T13:07:50Z</time>
      </trkpt>
      <trkpt lat="40.556033" lon="-4.920750">
        <ele>2014.0</ele>
        <time>2018-08-13T13:07:51Z</time>
      </trkpt>
      <trkpt lat="40.556133" lon="-4.920683">
        <ele>2013.0</ele>
        <time>2018-08-13T13:07:52Z</time>
      </trkpt>
      <trkpt lat="40.556217" lon="-4.920600">
        <ele>2011.0</ele>
        <time>2018-08-13T13:07:53Z</time>
      </trkpt>
      <trkpt lat="40.556300" lon="-4.920533">
        <ele>2009.0</ele>
        <time>2018-08-13T13:07:54Z</time>
      </trkpt>
      <trkpt lat="40.556383" lon="-4.920450">
        <ele>2007.0</ele>
        <time>2018-08-13T13:07:55Z</time>
      </trkpt>
      <trkpt lat="40.556467" lon="-4.920367">
        <ele>2003.0</ele>
        <time>2018-08-13T13:07:56Z</time>
      </trkpt>
      <trkpt lat="40.556567" lon="-4.920283">
        <ele>2001.0</ele>
        <time>2018-08-13T13:07:57Z</time>
      </trkpt>
      <trkpt lat="40.556667" lon="-4.920200">
        <ele>1999.0</ele>
        <time>2018-08-13T13:07:58Z</time>
      </trkpt>
      <trkpt lat="40.556750" lon="-4.920117">
        <ele>1998.0</ele>
        <time>2018-08-13T13:07:59Z</time>
      </trkpt>
      <trkpt lat="40.556833" lon="-4.920033">
        <ele>1997.0</ele>
        <time>2018-08-13T13:08:00Z</time>
      </trkpt>
      <trkpt lat="40.556900" lon="-4.919933">
        <ele>1995.0</ele>
        <time>2018-08-13T13:08:01Z</time>
      </trkpt>
      <trkpt lat="40.556983" lon="-4.919833">
        <ele>1993.0</ele>
        <time>2018-08-13T13:08:02Z</time>
      </trkpt>
      <trkpt lat="40.557067" lon="-4.919733">
        <ele>1991.0</ele>
        <time>2018-08-13T13:08:03Z</time>
      </trkpt>
      <trkpt lat="40.557167" lon="-4.919650">
        <ele>1989.0</ele>
        <time>2018-08-13T13:08:04Z</time>
      </trkpt>
      <trkpt lat="40.557267" lon="-4.919567">
        <ele>1988.0</ele>
        <time>2018-08-13T13:08:05Z</time>
      </trkpt>
      <trkpt lat="40.557350" lon="-4.919483">
        <ele>1988.0</ele>
        <time>2018-08-13T13:08:06Z</time>
      </trkpt>
      <trkpt lat="40.557433" lon="-4.919400">
        <ele>1988.0</ele>
        <time>2018-08-13T13:08:07Z</time>
      </trkpt>
      <trkpt lat="40.557500" lon="-4.919300">
        <ele>1988.0</ele>
        <time>2018-08-13T13:08:08Z</time>
      </trkpt>
      <trkpt lat="40.557583" lon="-4.919217">
        <ele>1986.0</ele>
        <time>2018-08-13T13:08:09Z</time>
      </trkpt>
      <trkpt lat="40.557667" lon="-4.919117">
        <ele>1985.0</ele>
        <time>2018-08-13T13:08:10Z</time>
      </trkpt>
      <trkpt lat="40.557767" lon="-4.919033">
        <ele>1983.0</ele>
        <time>2018-08-13T13:08:11Z</time>
      </trkpt>
      <trkpt lat="40.557867" lon="-4.918933">
        <ele>1982.0</ele>
        <time>2018-08-13T13:08:12Z</time>
      </trkpt>
      <trkpt lat="40.557950" lon="-4.918850">
        <ele>1981.0</ele>
        <time>2018-08-13T13:08:13Z</time>
      </trkpt>
      <trkpt lat="40.558050" lon="-4.918783">
        <ele>1981.0</ele>
        <time>2018-08-13T13:08:14Z</time>
      </trkpt>
      <trkpt lat="40.558133" lon="-4.918733">
        <ele>1981.0</ele>
        <time>2018-08-13T13:08:15Z</time>
      </trkpt>
      <trkpt lat="40.558233" lon="-4.918667">
        <ele>1981.0</ele>
        <time>2018-08-13T13:08:16Z</time>
      </trkpt>
      <trkpt lat="40.558317" lon="-4.918583">
        <ele>1981.0</ele>
        <time>2018-08-13T13:08:17Z</time>
      </trkpt>
      <trkpt lat="40.558400" lon="-4.918517">
        <ele>1980.0</ele>
        <time>2018-08-13T13:08:18Z</time>
      </trkpt>
      <trkpt lat="40.558500" lon="-4.918433">
        <ele>1979.0</ele>
        <time>2018-08-13T13:08:19Z</time>
      </trkpt>
      <trkpt lat="40.558583" lon="-4.918383">
        <ele>1979.0</ele>
        <time>2018-08-13T13:08:20Z</time>
      </trkpt>
      <trkpt lat="40.558667" lon="-4.918300">
        <ele>1978.0</ele>
        <time>2018-08-13T13:08:21Z</time>
      </trkpt>
      <trkpt lat="40.558750" lon="-4.918233">
        <ele>1976.0</ele>
        <time>2018-08-13T13:08:22Z</time>
      </trkpt>
      <trkpt lat="40.558833" lon="-4.918150">
        <ele>1975.0</ele>
        <time>2018-08-13T13:08:23Z</time>
      </trkpt>
      <trkpt lat="40.558917" lon="-4.918067">
        <ele>1975.0</ele>
        <time>2018-08-13T13:08:24Z</time>
      </trkpt>
      <trkpt lat="40.558983" lon="-4.918000">
        <ele>1975.0</ele>
        <time>2018-08-13T13:08:25Z</time>
      </trkpt>
      <trkpt lat="40.559050" lon="-4.917933">
        <ele>1975.0</ele>
        <time>2018-08-13T13:08:26Z</time>
      </trkpt>
      <trkpt lat="40.559117" lon="-4.917850">
        <ele>1973.0</ele>
        <time>2018-08-13T13:08:27Z</time>
      </trkpt>
      <trkpt lat="40.559183" lon="-4.917767">
        <ele>1971.0</ele>
        <time>2018-08-13T13:08:28Z</time>
      </trkpt>
      <trkpt lat="40.559250" lon="-4.917667">
        <ele>1969.0</ele>
        <time>2018-08-13T13:08:29Z</time>
      </trkpt>
      <trkpt lat="40.559333" lon="-4.917567">
        <ele>1967.0</ele>
        <time>2018-08-13T13:08:30Z</time>
      </trkpt>
      <trkpt lat="40.559400" lon="-4.917483">
        <ele>1965.0</ele>
        <time>2018-08-13T13:08:31Z</time>
      </trkpt>
      <trkpt lat="40.559483" lon="-4.917383">
        <ele>1964.0</ele>
        <time>2018-08-13T13:08:32Z</time>
      </trkpt>
      <trkpt lat="40.559550" lon="-4.917283">
        <ele>1962.0</ele>
        <time>2018-08-13T13:08:33Z</time>
      </trkpt>
      <trkpt lat="40.559600" lon="-4.917183">
        <ele>1960.0</ele>
        <time>2018-08-13T13:08:34Z</time>
      </trkpt>
      <trkpt lat="40.559650" lon="-4.917083">
        <ele>1958.0</ele>
        <time>2018-08-13T13:08:35Z</time>
      </trkpt>
      <trkpt lat="40.559717" lon="-4.916983">
        <ele>1956.0</ele>
        <time>2018-08-13T13:08:36Z</time>
      </trkpt>
      <trkpt lat="40.559783" lon="-4.916883">
        <ele>1954.0</ele>
        <time>2018-08-13T13:08:37Z</time>
      </trkpt>
      <trkpt lat="40.559850" lon="-4.916783">
        <ele>1953.0</ele>
        <time>2018-08-13T13:08:38Z</time>
      </trkpt>
      <trkpt lat="40.559933" lon="-4.916683">
        <ele>1952.0</ele>
        <time>2018-08-13T13:08:39Z</time>
      </trkpt>
      <trkpt lat="40.560017" lon="-4.916583">
        <ele>1951.0</ele>
        <time>2018-08-13T13:08:40Z</time>
      </trkpt>
      <trkpt lat="40.560100" lon="-4.916500">
        <ele>1949.0</ele>
        <time>2018-08-13T13:08:41Z</time>
      </trkpt>
      <trkpt lat="40.560200" lon="-4.916417">
        <ele>1947.0</ele>
        <time>2018-08-13T13:08:42Z</time>
      </trkpt>
      <trkpt lat="40.560283" lon="-4.916317">
        <ele>1945.0</ele>
        <time>2018-08-13T13:08:43Z</time>
      </trkpt>
      <trkpt lat="40.560367" lon="-4.916217">
        <ele>1943.0</ele>
        <time>2018-08-13T13:08:44Z</time>
      </trkpt>
      <trkpt lat="40.560450" lon="-4.916117">
        <ele>1941.0</ele>
        <time>2018-08-13T13:08:45Z</time>
      </trkpt>
      <trkpt lat="40.560550" lon="-4.916017">
        <ele>1939.0</ele>
        <time>2018-08-13T13:08:46Z</time>
      </trkpt>
      <trkpt lat="40.560633" lon="-4.915933">
        <ele>1937.0</ele>
        <time>2018-08-13T13:08:47Z</time>
      </trkpt>
      <trkpt lat="40.560717" lon="-4.915850">
        <ele>1935.0</ele>
        <time>2018-08-13T13:08:48Z</time>
      </trkpt>
      <trkpt lat="40.560817" lon="-4.915767">
        <ele>1933.0</ele>
        <time>2018-08-13T13:08:49Z</time>
      </trkpt>
      <trkpt lat="40.560917" lon="-4.915667">
        <ele>1932.0</ele>
        <time>2018-08-13T13:08:50Z</time>
      </trkpt>
      <trkpt lat="40.561000" lon="-4.915567">
        <ele>1931.0</ele>
        <time>2018-08-13T13:08:51Z</time>
      </trkpt>
      <trkpt lat="40.561100" lon="-4.915483">
        <ele>1929.0</ele>
        <time>2018-08-13T13:08:52Z</time>
      </trkpt>
      <trkpt lat="40.561183" lon="-4.915400">
        <ele>1927.0</ele>
        <time>2018-08-13T13:08:53Z</time>
      </trkpt>
      <trkpt lat="40.561267" lon="-4.915317">
        <ele>1925.0</ele>
        <time>2018-08-13T13:08:54Z</time>
      </trkpt>
      <trkpt lat="40.561350" lon="-4.915217">
        <ele>1922.0</ele>
        <time>2018-08-13T13:08:55Z</time>
      </trkpt>
      <trkpt lat="40.561433" lon="-4.915100">
        <ele>1919.0</ele>
        <time>2018-08-13T13:08:56Z</time>
      </trkpt>
      <trkpt lat="40.561517" lon="-4.914983">
        <ele>1918.0</ele>
        <time>2018-08-13T13:08:57Z</time>
      </trkpt>
      <trkpt lat="40.561600" lon="-4.914867">
        <ele>1916.0</ele>
        <time>2018-08-13T13:08:58Z</time>
      </trkpt>
      <trkpt lat="40.561667" lon="-4.914767">
        <ele>1914.0</ele>
        <time>2018-08-13T13:08:59Z</time>
      </trkpt>
      <trkpt lat="40.561750" lon="-4.914650">
        <ele>1912.0</ele>
        <time>2018-08-13T13:09:00Z</time>
      </trkpt>
      <trkpt lat="40.561833" lon="-4.914533">
        <ele>1909.0</ele>
        <time>2018-08-13T13:09:01Z</time>
      </trkpt>
      <trkpt lat="40.561917" lon="-4.914417">
        <ele>1906.0</ele>
        <time>2018-08-13T13:09:02Z</time>
      </trkpt>
      <trkpt lat="40.562017" lon="-4.914300">
        <ele>1904.0</ele>
        <time>2018-08-13T13:09:03Z</time>
      </trkpt>
      <trkpt lat="40.562117" lon="-4.914183">
        <ele>1902.0</ele>
        <time>2018-08-13T13:09:04Z</time>
      </trkpt>
      <trkpt lat="40.562200" lon="-4.914083">
        <ele>1901.0</ele>
        <time>2018-08-13T13:09:05Z</time>
      </trkpt>
      <trkpt lat="40.562283" lon="-4.913983">
        <ele>1900.0</ele>
        <time>2018-08-13T13:09:06Z</time>
      </trkpt>
      <trkpt lat="40.562350" lon="-4.913867">
        <ele>1898.0</ele>
        <time>2018-08-13T13:09:07Z</time>
      </trkpt>
      <trkpt lat="40.562417" lon="-4.913750">
        <ele>1895.0</ele>
        <time>2018-08-13T13:09:08Z</time>
      </trkpt>
      <trkpt lat="40.562483" lon="-4.913617">
        <ele>1893.0</ele>
        <time>2018-08-13T13:09:09Z</time>
      </trkpt>
      <trkpt lat="40.562550" lon="-4.913500">
        <ele>1891.0</ele>
        <time>2018-08-13T13:09:10Z</time>
      </trkpt>
      <trkpt lat="40.562633" lon="-4.913383">
        <ele>1888.0</ele>
        <time>2018-08-13T13:09:11Z</time>
      </trkpt>
      <trkpt lat="40.562717" lon="-4.913283">
        <ele>1886.0</ele>
        <time>2018-08-13T13:09:12Z</time>
      </trkpt>
      <trkpt lat="40.562800" lon="-4.913150">
        <ele>1884.0</ele>
        <time>2018-08-13T13:09:13Z</time>
      </trkpt>
      <trkpt lat="40.562867" lon="-4.913033">
        <ele>1882.0</ele>
        <time>2018-08-13T13:09:14Z</time>
      </trkpt>
      <trkpt lat="40.562933" lon="-4.912917">
        <ele>1880.0</ele>
        <time>2018-08-13T13:09:15Z</time>
      </trkpt>
      <trkpt lat="40.563000" lon="-4.912800">
        <ele>1877.0</ele>
        <time>2018-08-13T13:09:16Z</time>
      </trkpt>
      <trkpt lat="40.563067" lon="-4.912667">
        <ele>1875.0</ele>
        <time>2018-08-13T13:09:17Z</time>
      </trkpt>
      <trkpt lat="40.563133" lon="-4.912550">
        <ele>1872.0</ele>
        <time>2018-08-13T13:09:18Z</time>
      </trkpt>
      <trkpt lat="40.563200" lon="-4.912417">
        <ele>1870.0</ele>
        <time>2018-08-13T13:09:19Z</time>
      </trkpt>
      <trkpt lat="40.563283" lon="-4.912283">
        <ele>1868.0</ele>
        <time>2018-08-13T13:09:20Z</time>
      </trkpt>
      <trkpt lat="40.563333" lon="-4.912167">
        <ele>1867.0</ele>
        <time>2018-08-13T13:09:21Z</time>
      </trkpt>
      <trkpt lat="40.563400" lon="-4.912050">
        <ele>1864.0</ele>
        <time>2018-08-13T13:09:22Z</time>
      </trkpt>
      <trkpt lat="40.563450" lon="-4.911917">
        <ele>1862.0</ele>
        <time>2018-08-13T13:09:23Z</time>
      </trkpt>
      <trkpt lat="40.563500" lon="-4.911800">
        <ele>1858.0</ele>
        <time>2018-08-13T13:09:24Z</time>
      </trkpt>
      <trkpt lat="40.563567" lon="-4.911667">
        <ele>1855.0</ele>
        <time>2018-08-13T13:09:25Z</time>
      </trkpt>
      <trkpt lat="40.563633" lon="-4.911550">
        <ele>1851.0</ele>
        <time>2018-08-13T13:09:26Z</time>
      </trkpt>
      <trkpt lat="40.563717" lon="-4.911433">
        <ele>1847.0</ele>
        <time>2018-08-13T13:09:27Z</time>
      </trkpt>
      <trkpt lat="40.563783" lon="-4.911333">
        <ele>1844.0</ele>
        <time>2018-08-13T13:09:28Z</time>
      </trkpt>
      <trkpt lat="40.563867" lon="-4.911217">
        <ele>1840.0</ele>
        <time>2018-08-13T13:09:29Z</time>
      </trkpt>
      <trkpt lat="40.563933" lon="-4.911100">
        <ele>1836.0</ele>
        <time>2018-08-13T13:09:30Z</time>
      </trkpt>
      <trkpt lat="40.564017" lon="-4.910983">
        <ele>1832.0</ele>
        <time>2018-08-13T13:09:31Z</time>
      </trkpt>
      <trkpt lat="40.564100" lon="-4.910883">
        <ele>1829.0</ele>
        <time>2018-08-13T13:09:32Z</time>
      </trkpt>
      <trkpt lat="40.564183" lon="-4.910783">
        <ele>1825.0</ele>
        <time>2018-08-13T13:09:33Z</time>
      </trkpt>
      <trkpt lat="40.564267" lon="-4.910683">
        <ele>1821.0</ele>
        <time>2018-08-13T13:09:34Z</time>
      </trkpt>
      <trkpt lat="40.564350" lon="-4.910567">
        <ele>1816.0</ele>
        <time>2018-08-13T13:09:35Z</time>
      </trkpt>
      <trkpt lat="40.564450" lon="-4.910433">
        <ele>1812.0</ele>
        <time>2018-08-13T13:09:36Z</time>
      </trkpt>
      <trkpt lat="40.564533" lon="-4.910317">
        <ele>1809.0</ele>
        <time>2018-08-13T13:09:37Z</time>
      </trkpt>
      <trkpt lat="40.564617" lon="-4.910217">
        <ele>1806.0</ele>
        <time>2018-08-13T13:09:38Z</time>
      </trkpt>
      <trkpt lat="40.564700" lon="-4.910133">
        <ele>1802.0</ele>
        <time>2018-08-13T13:09:39Z</time>
      </trkpt>
      <trkpt lat="40.564783" lon="-4.910033">
        <ele>1797.0</ele>
        <time>2018-08-13T13:09:40Z</time>
      </trkpt>
      <trkpt lat="40.564867" lon="-4.909933">
        <ele>1791.0</ele>
        <time>2018-08-13T13:09:41Z</time>
      </trkpt>
      <trkpt lat="40.564967" lon="-4.909817">
        <ele>1786.0</ele>
        <time>2018-08-13T13:09:42Z</time>
      </trkpt>
      <trkpt lat="40.565050" lon="-4.909683">
        <ele>1782.0</ele>
        <time>2018-08-13T13:09:43Z</time>
      </trkpt>
      <trkpt lat="40.565133" lon="-4.909567">
        <ele>1779.0</ele>
        <time>2018-08-13T13:09:44Z</time>
      </trkpt>
      <trkpt lat="40.565233" lon="-4.909400">
        <ele>1777.0</ele>
        <time>2018-08-13T13:09:45Z</time>
      </trkpt>
      <trkpt lat="40.565317" lon="-4.909233">
        <ele>1777.0</ele>
        <time>2018-08-13T13:09:46Z</time>
      </trkpt>
      <trkpt lat="40.565383" lon="-4.909067">
        <ele>1778.0</ele>
        <time>2018-08-13T13:09:47Z</time>
      </trkpt>
      <trkpt lat="40.565450" lon="-4.908917">
        <ele>1781.0</ele>
        <time>2018-08-13T13:09:48Z</time>
      </trkpt>
      <trkpt lat="40.565517" lon="-4.908783">
        <ele>1783.0</ele>
        <time>2018-08-13T13:09:49Z</time>
      </trkpt>
      <trkpt lat="40.565550" lon="-4.908667">
        <ele>1785.0</ele>
        <time>2018-08-13T13:09:50Z</time>
      </trkpt>
      <trkpt lat="40.565583" lon="-4.908550">
        <ele>1785.0</ele>
        <time>2018-08-13T13:09:51Z</time>
      </trkpt>
      <trkpt lat="40.565633" lon="-4.908433">
        <ele>1784.0</ele>
        <time>2018-08-13T13:09:52Z</time>
      </trkpt>
      <trkpt lat="40.565700" lon="-4.908317">
        <ele>1783.0</ele>
        <time>2018-08-13T13:09:53Z</time>
      </trkpt>
      <trkpt lat="40.565767" lon="-4.908183">
        <ele>1782.0</ele>
        <time>2018-08-13T13:09:54Z</time>
      </trkpt>
      <trkpt lat="40.565833" lon="-4.908050">
        <ele>1781.0</ele>
        <time>2018-08-13T13:09:55Z</time>
      </trkpt>
      <trkpt lat="40.565900" lon="-4.907917">
        <ele>1780.0</ele>
        <time>2018-08-13T13:09:56Z</time>
      </trkpt>
      <trkpt lat="40.565983" lon="-4.907783">
        <ele>1780.0</ele>
        <time>2018-08-13T13:09:57Z</time>
      </trkpt>
      <trkpt lat="40.566050" lon="-4.907633">
        <ele>1779.0</ele>
        <time>2018-08-13T13:09:58Z</time>
      </trkpt>
      <trkpt lat="40.566117" lon="-4.907500">
        <ele>1778.0</ele>
        <time>2018-08-13T13:09:59Z</time>
      </trkpt>
      <trkpt lat="40.566183" lon="-4.907367">
        <ele>1777.0</ele>
        <time>2018-08-13T13:10:00Z</time>
      </trkpt>
      <trkpt lat="40.566250" lon="-4.907217">
        <ele>1776.0</ele>
        <time>2018-08-13T13:10:01Z</time>
      </trkpt>
      <trkpt lat="40.566317" lon="-4.907067">
        <ele>1777.0</ele>
        <time>2018-08-13T13:10:02Z</time>
      </trkpt>
      <trkpt lat="40.566367" lon="-4.906917">
        <ele>1777.0</ele>
        <time>2018-08-13T13:10:03Z</time>
      </trkpt>
      <trkpt lat="40.566417" lon="-4.906783">
        <ele>1777.0</ele>
        <time>2018-08-13T13:10:04Z</time>
      </trkpt>
      <trkpt lat="40.566483" lon="-4.906650">
        <ele>1777.0</ele>
        <time>2018-08-13T13:10:05Z</time>
      </trkpt>
      <trkpt lat="40.566567" lon="-4.906550">
        <ele>1777.0</ele>
        <time>2018-08-13T13:10:06Z</time>
      </trkpt>
      <trkpt lat="40.566650" lon="-4.906450">
        <ele>1779.0</ele>
        <time>2018-08-13T13:10:07Z</time>
      </trkpt>
      <trkpt lat="40.566733" lon="-4.906350">
        <ele>1781.0</ele>
        <time>2018-08-13T13:10:08Z</time>
      </trkpt>
      <trkpt lat="40.566817" lon="-4.906233">
        <ele>1785.0</ele>
        <time>2018-08-13T13:10:09Z</time>
      </trkpt>
      <trkpt lat="40.566917" lon="-4.906133">
        <ele>1789.0</ele>
        <time>2018-08-13T13:10:10Z</time>
      </trkpt>
      <trkpt lat="40.567000" lon="-4.906050">
        <ele>1795.0</ele>
        <time>2018-08-13T13:10:11Z</time>
      </trkpt>
      <trkpt lat="40.567083" lon="-4.905983">
        <ele>1800.0</ele>
        <time>2018-08-13T13:10:12Z</time>
      </trkpt>
      <trkpt lat="40.567133" lon="-4.905933">
        <ele>1805.0</ele>
        <time>2018-08-13T13:10:13Z</time>
      </trkpt>
      <trkpt lat="40.567200" lon="-4.905883">
        <ele>1809.0</ele>
        <time>2018-08-13T13:10:14Z</time>
      </trkpt>
      <trkpt lat="40.567250" lon="-4.905817">
        <ele>1811.0</ele>
        <time>2018-08-13T13:10:15Z</time>
      </trkpt>
      <trkpt lat="40.567317" lon="-4.905750">
        <ele>1813.0</ele>
        <time>2018-08-13T13:10:16Z</time>
      </trkpt>
      <trkpt lat="40.567383" lon="-4.905650">
        <ele>1814.0</ele>
        <time>2018-08-13T13:10:17Z</time>
      </trkpt>
      <trkpt lat="40.567433" lon="-4.905500">
        <ele>1816.0</ele>
        <time>2018-08-13T13:10:18Z</time>
      </trkpt>
      <trkpt lat="40.567467" lon="-4.905333">
        <ele>1818.0</ele>
        <time>2018-08-13T13:10:19Z</time>
      </trkpt>
      <trkpt lat="40.567483" lon="-4.905167">
        <ele>1820.0</ele>
        <time>2018-08-13T13:10:20Z</time>
      </trkpt>
      <trkpt lat="40.567467" lon="-4.904983">
        <ele>1822.0</ele>
        <time>2018-08-13T13:10:21Z</time>
      </trkpt>
      <trkpt lat="40.567417" lon="-4.904800">
        <ele>1823.0</ele>
        <time>2018-08-13T13:10:22Z</time>
      </trkpt>
      <trkpt lat="40.567350" lon="-4.904617">
        <ele>1825.0</ele>
        <time>2018-08-13T13:10:23Z</time>
      </trkpt>
      <trkpt lat="40.567250" lon="-4.904450">
        <ele>1829.0</ele>
        <time>2018-08-13T13:10:24Z</time>
      </trkpt>
      <trkpt lat="40.567150" lon="-4.904317">
        <ele>1833.0</ele>
        <time>2018-08-13T13:10:25Z</time>
      </trkpt>
      <trkpt lat="40.567050" lon="-4.904233">
        <ele>1836.0</ele>
        <time>2018-08-13T13:10:26Z</time>
      </trkpt>
      <trkpt lat="40.566950" lon="-4.904200">
        <ele>1837.0</ele>
        <time>2018-08-13T13:10:27Z</time>
      </trkpt>
      <trkpt lat="40.566867" lon="-4.904200">
        <ele>1837.0</ele>
        <time>2018-08-13T13:10:28Z</time>
      </trkpt>
      <trkpt lat="40.566767" lon="-4.904233">
        <ele>1838.0</ele>
        <time>2018-08-13T13:10:29Z</time>
      </trkpt>
      <trkpt lat="40.566700" lon="-4.904300">
        <ele>1841.0</ele>
        <time>2018-08-13T13:10:30Z</time>
      </trkpt>
      <trkpt lat="40.566650" lon="-4.904350">
        <ele>1845.0</ele>
        <time>2018-08-13T13:10:31Z</time>
      </trkpt>
      <trkpt lat="40.566633" lon="-4.904417">
        <ele>1848.0</ele>
        <time>2018-08-13T13:10:32Z</time>
      </trkpt>
      <trkpt lat="40.566650" lon="-4.904467">
        <ele>1851.0</ele>
        <time>2018-08-13T13:10:33Z</time>
      </trkpt>
      <trkpt lat="40.566683" lon="-4.904517">
        <ele>1855.0</ele>
        <time>2018-08-13T13:10:34Z</time>
      </trkpt>
      <trkpt lat="40.566733" lon="-4.904533">
        <ele>1858.0</ele>
        <time>2018-08-13T13:10:35Z</time>
      </trkpt>
      <trkpt lat="40.566783" lon="-4.904533">
        <ele>1861.0</ele>
        <time>2018-08-13T13:10:36Z</time>
      </trkpt>
      <trkpt lat="40.566850" lon="-4.904517">
        <ele>1864.0</ele>
        <time>2018-08-13T13:10:37Z</time>
      </trkpt>
      <trkpt lat="40.566933" lon="-4.904467">
        <ele>1866.0</ele>
        <time>2018-08-13T13:10:38Z</time>
      </trkpt>
      <trkpt lat="40.567017" lon="-4.904400">
        <ele>1869.0</ele>
        <time>2018-08-13T13:10:39Z</time>
      </trkpt>
      <trkpt lat="40.567100" lon="-4.904300">
        <ele>1871.0</ele>
        <time>2018-08-13T13:10:40Z</time>
      </trkpt>
      <trkpt lat="40.567167" lon="-4.904183">
        <ele>1874.0</ele>
        <time>2018-08-13T13:10:41Z</time>
      </trkpt>
      <trkpt lat="40.567217" lon="-4.904033">
        <ele>1877.0</ele>
        <time>2018-08-13T13:10:42Z</time>
      </trkpt>
      <trkpt lat="40.567267" lon="-4.903883">
        <ele>1879.0</ele>
        <time>2018-08-13T13:10:43Z</time>
      </trkpt>
      <trkpt lat="40.567300" lon="-4.903717">
        <ele>1881.0</ele>
        <time>2018-08-13T13:10:44Z</time>
      </trkpt>
      <trkpt lat="40.567300" lon="-4.903533">
        <ele>1883.0</ele>
        <time>2018-08-13T13:10:45Z</time>
      </trkpt>
      <trkpt lat="40.567283" lon="-4.903333">
        <ele>1886.0</ele>
        <time>2018-08-13T13:10:46Z</time>
      </trkpt>
      <trkpt lat="40.567233" lon="-4.903133">
        <ele>1888.0</ele>
        <time>2018-08-13T13:10:47Z</time>
      </trkpt>
      <trkpt lat="40.567167" lon="-4.902967">
        <ele>1891.0</ele>
        <time>2018-08-13T13:10:48Z</time>
      </trkpt>
      <trkpt lat="40.567067" lon="-4.902817">
        <ele>1895.0</ele>
        <time>2018-08-13T13:10:49Z</time>
      </trkpt>
      <trkpt lat="40.566950" lon="-4.902700">
        <ele>1899.0</ele>
        <time>2018-08-13T13:10:50Z</time>
      </trkpt>
      <trkpt lat="40.566833" lon="-4.902617">
        <ele>1902.0</ele>
        <time>2018-08-13T13:10:51Z</time>
      </trkpt>
      <trkpt lat="40.566717" lon="-4.902567">
        <ele>1906.0</ele>
        <time>2018-08-13T13:10:52Z</time>
      </trkpt>
      <trkpt lat="40.566600" lon="-4.902533">
        <ele>1909.0</ele>
        <time>2018-08-13T13:10:53Z</time>
      </trkpt>
      <trkpt lat="40.566500" lon="-4.902550">
        <ele>1912.0</ele>
        <time>2018-08-13T13:10:54Z</time>
      </trkpt>
      <trkpt lat="40.566417" lon="-4.902583">
        <ele>1914.0</ele>
        <time>2018-08-13T13:10:55Z</time>
      </trkpt>
      <trkpt lat="40.566333" lon="-4.902633">
        <ele>1917.0</ele>
        <time>2018-08-13T13:10:56Z</time>
      </trkpt>
      <trkpt lat="40.566267" lon="-4.902700">
        <ele>1919.0</ele>
        <time>2018-08-13T13:10:57Z</time>
      </trkpt>
      <trkpt lat="40.566183" lon="-4.902767">
        <ele>1923.0</ele>
        <time>2018-08-13T13:10:58Z</time>
      </trkpt>
      <trkpt lat="40.566150" lon="-4.902850">
        <ele>1926.0</ele>
        <time>2018-08-13T13:10:59Z</time>
      </trkpt>
      <trkpt lat="40.566150" lon="-4.902917">
        <ele>1929.0</ele>
        <time>2018-08-13T13:11:00Z</time>
      </trkpt>
      <trkpt lat="40.566150" lon="-4.902983">
        <ele>1932.0</ele>
        <time>2018-08-13T13:11:01Z</time>
      </trkpt>
      <trkpt lat="40.566167" lon="-4.903050">
        <ele>1935.0</ele>
        <time>2018-08-13T13:11:02Z</time>
      </trkpt>
      <trkpt lat="40.566183" lon="-4.903100">
        <ele>1939.0</ele>
        <time>2018-08-13T13:11:03Z</time>
      </trkpt>
      <trkpt lat="40.566183" lon="-4.903150">
        <ele>1942.0</ele>
        <time>2018-08-13T13:11:04Z</time>
      </trkpt>
      <trkpt lat="40.566217" lon="-4.903200">
        <ele>1945.0</ele>
        <time>2018-08-13T13:11:05Z</time>
      </trkpt>
      <trkpt lat="40.566283" lon="-4.903217">
        <ele>1947.0</ele>
        <time>2018-08-13T13:11:06Z</time>
      </trkpt>
      <trkpt lat="40.566350" lon="-4.903233">
        <ele>1950.0</ele>
        <time>2018-08-13T13:11:07Z</time>
      </trkpt>
      <trkpt lat="40.566433" lon="-4.903233">
        <ele>1954.0</ele>
        <time>2018-08-13T13:11:08Z</time>
      </trkpt>
      <trkpt lat="40.566500" lon="-4.903217">
        <ele>1957.0</ele>
        <time>2018-08-13T13:11:09Z</time>
      </trkpt>
      <trkpt lat="40.566567" lon="-4.903183">
        <ele>1960.0</ele>
        <time>2018-08-13T13:11:10Z</time>
      </trkpt>
      <trkpt lat="40.566650" lon="-4.903133">
        <ele>1962.0</ele>
        <time>2018-08-13T13:11:11Z</time>
      </trkpt>
      <trkpt lat="40.566717" lon="-4.903067">
        <ele>1964.0</ele>
        <time>2018-08-13T13:11:12Z</time>
      </trkpt>
      <trkpt lat="40.566800" lon="-4.902967">
        <ele>1966.0</ele>
        <time>2018-08-13T13:11:13Z</time>
      </trkpt>
      <trkpt lat="40.566883" lon="-4.902850">
        <ele>1968.0</ele>
        <time>2018-08-13T13:11:14Z</time>
      </trkpt>
      <trkpt lat="40.566950" lon="-4.902717">
        <ele>1971.0</ele>
        <time>2018-08-13T13:11:15Z</time>
      </trkpt>
      <trkpt lat="40.567000" lon="-4.902567">
        <ele>1974.0</ele>
        <time>2018-08-13T13:11:16Z</time>
      </trkpt>
      <trkpt lat="40.567017" lon="-4.902383">
        <ele>1976.0</ele>
        <time>2018-08-13T13:11:17Z</time>
      </trkpt>
      <trkpt lat="40.567033" lon="-4.902217">
        <ele>1977.0</ele>
        <time>2018-08-13T13:11:18Z</time>
      </trkpt>
      <trkpt lat="40.567017" lon="-4.902050">
        <ele>1978.0</ele>
        <time>2018-08-13T13:11:19Z</time>
      </trkpt>
      <trkpt lat="40.566983" lon="-4.901883">
        <ele>1979.0</ele>
        <time>2018-08-13T13:11:20Z</time>
      </trkpt>
      <trkpt lat="40.566917" lon="-4.901733">
        <ele>1979.0</ele>
        <time>2018-08-13T13:11:21Z</time>
      </trkpt>
      <trkpt lat="40.566833" lon="-4.901600">
        <ele>1980.0</ele>
        <time>2018-08-13T13:11:22Z</time>
      </trkpt>
      <trkpt lat="40.566733" lon="-4.901483">
        <ele>1982.0</ele>
        <time>2018-08-13T13:11:23Z</time>
      </trkpt>
      <trkpt lat="40.566633" lon="-4.901417">
        <ele>1984.0</ele>
        <time>2018-08-13T13:11:24Z</time>
      </trkpt>
      <trkpt lat="40.566517" lon="-4.901383">
        <ele>1986.0</ele>
        <time>2018-08-13T13:11:25Z</time>
      </trkpt>
      <trkpt lat="40.566417" lon="-4.901383">
        <ele>1988.0</ele>
        <time>2018-08-13T13:11:26Z</time>
      </trkpt>
      <trkpt lat="40.566333" lon="-4.901400">
        <ele>1989.0</ele>
        <time>2018-08-13T13:11:27Z</time>
      </trkpt>
      <trkpt lat="40.566267" lon="-4.901450">
        <ele>1990.0</ele>
        <time>2018-08-13T13:11:28Z</time>
      </trkpt>
      <trkpt lat="40.566200" lon="-4.901517">
        <ele>1992.0</ele>
        <time>2018-08-13T13:11:29Z</time>
      </trkpt>
      <trkpt lat="40.566167" lon="-4.901600">
        <ele>1996.0</ele>
        <time>2018-08-13T13:11:30Z</time>
      </trkpt>
      <trkpt lat="40.566133" lon="-4.901650">
        <ele>2000.0</ele>
        <time>2018-08-13T13:11:31Z</time>
      </trkpt>
      <trkpt lat="40.566117" lon="-4.901700">
        <ele>2003.0</ele>
        <time>2018-08-13T13:11:32Z</time>
      </trkpt>
      <trkpt lat="40.566117" lon="-4.901750">
        <ele>2005.0</ele>
        <time>2018-08-13T13:11:33Z</time>
      </trkpt>
      <trkpt lat="40.566100" lon="-4.901800">
        <ele>2008.0</ele>
        <time>2018-08-13T13:11:34Z</time>
      </trkpt>
      <trkpt lat="40.566100" lon="-4.901883">
        <ele>2012.0</ele>
        <time>2018-08-13T13:11:35Z</time>
      </trkpt>
      <trkpt lat="40.566133" lon="-4.901933">
        <ele>2016.0</ele>
        <time>2018-08-13T13:11:36Z</time>
      </trkpt>
      <trkpt lat="40.566167" lon="-4.901933">
        <ele>2020.0</ele>
        <time>2018-08-13T13:11:37Z</time>
      </trkpt>
      <trkpt lat="40.566200" lon="-4.901917">
        <ele>2021.0</ele>
        <time>2018-08-13T13:11:38Z</time>
      </trkpt>
      <trkpt lat="40.566250" lon="-4.901883">
        <ele>2021.0</ele>
        <time>2018-08-13T13:11:39Z</time>
      </trkpt>
      <trkpt lat="40.566333" lon="-4.901833">
        <ele>2022.0</ele>
        <time>2018-08-13T13:11:40Z</time>
      </trkpt>
      <trkpt lat="40.566433" lon="-4.901767">
        <ele>2023.0</ele>
        <time>2018-08-13T13:11:41Z</time>
      </trkpt>
      <trkpt lat="40.566517" lon="-4.901667">
        <ele>2027.0</ele>
        <time>2018-08-13T13:11:42Z</time>
      </trkpt>
      <trkpt lat="40.566600" lon="-4.901567">
        <ele>2032.0</ele>
        <time>2018-08-13T13:11:43Z</time>
      </trkpt>
      <trkpt lat="40.566667" lon="-4.901450">
        <ele>2038.0</ele>
        <time>2018-08-13T13:11:44Z</time>
      </trkpt>
      <trkpt lat="40.566733" lon="-4.901333">
        <ele>2043.0</ele>
        <time>2018-08-13T13:11:45Z</time>
      </trkpt>
      <trkpt lat="40.566767" lon="-4.901217">
        <ele>2047.0</ele>
        <time>2018-08-13T13:11:46Z</time>
      </trkpt>
      <trkpt lat="40.566817" lon="-4.901100">
        <ele>2049.0</ele>
        <time>2018-08-13T13:11:47Z</time>
      </trkpt>
      <trkpt lat="40.566867" lon="-4.900983">
        <ele>2050.0</ele>
        <time>2018-08-13T13:11:48Z</time>
      </trkpt>
      <trkpt lat="40.566933" lon="-4.900850">
        <ele>2049.0</ele>
        <time>2018-08-13T13:11:49Z</time>
      </trkpt>
      <trkpt lat="40.566983" lon="-4.900700">
        <ele>2049.0</ele>
        <time>2018-08-13T13:11:50Z</time>
      </trkpt>
      <trkpt lat="40.567050" lon="-4.900533">
        <ele>2049.0</ele>
        <time>2018-08-13T13:11:51Z</time>
      </trkpt>
      <trkpt lat="40.567083" lon="-4.900350">
        <ele>2049.0</ele>
        <time>2018-08-13T13:11:52Z</time>
      </trkpt>
      <trkpt lat="40.567100" lon="-4.900167">
        <ele>2050.0</ele>
        <time>2018-08-13T13:11:53Z</time>
      </trkpt>
      <trkpt lat="40.567100" lon="-4.899967">
        <ele>2052.0</ele>
        <time>2018-08-13T13:11:54Z</time>
      </trkpt>
      <trkpt lat="40.567067" lon="-4.899767">
        <ele>2056.0</ele>
        <time>2018-08-13T13:11:55Z</time>
      </trkpt>
      <trkpt lat="40.567033" lon="-4.899583">
        <ele>2060.0</ele>
        <time>2018-08-13T13:11:56Z</time>
      </trkpt>
      <trkpt lat="40.567017" lon="-4.899417">
        <ele>2066.0</ele>
        <time>2018-08-13T13:11:57Z</time>
      </trkpt>
      <trkpt lat="40.566983" lon="-4.899250">
        <ele>2071.0</ele>
        <time>2018-08-13T13:11:58Z</time>
      </trkpt>
      <trkpt lat="40.566950" lon="-4.899083">
        <ele>2075.0</ele>
        <time>2018-08-13T13:11:59Z</time>
      </trkpt>
      <trkpt lat="40.566917" lon="-4.898900">
        <ele>2079.0</ele>
        <time>2018-08-13T13:12:00Z</time>
      </trkpt>
      <trkpt lat="40.566917" lon="-4.898733">
        <ele>2082.0</ele>
        <time>2018-08-13T13:12:01Z</time>
      </trkpt>
      <trkpt lat="40.566900" lon="-4.898550">
        <ele>2086.0</ele>
        <time>2018-08-13T13:12:02Z</time>
      </trkpt>
      <trkpt lat="40.566883" lon="-4.898383">
        <ele>2090.0</ele>
        <time>2018-08-13T13:12:03Z</time>
      </trkpt>
      <trkpt lat="40.566867" lon="-4.898217">
        <ele>2094.0</ele>
        <time>2018-08-13T13:12:04Z</time>
      </trkpt>
      <trkpt lat="40.566850" lon="-4.898033">
        <ele>2097.0</ele>
        <time>2018-08-13T13:12:05Z</time>
      </trkpt>
      <trkpt lat="40.566817" lon="-4.897867">
        <ele>2100.0</ele>
        <time>2018-08-13T13:12:06Z</time>
      </trkpt>
      <trkpt lat="40.566767" lon="-4.897700">
        <ele>2103.0</ele>
        <time>2018-08-13T13:12:07Z</time>
      </trkpt>
      <trkpt lat="40.566683" lon="-4.897550">
        <ele>2106.0</ele>
        <time>2018-08-13T13:12:08Z</time>
      </trkpt>
      <trkpt lat="40.566600" lon="-4.897433">
        <ele>2110.0</ele>
        <time>2018-08-13T13:12:09Z</time>
      </trkpt>
      <trkpt lat="40.566500" lon="-4.897317">
        <ele>2113.0</ele>
        <time>2018-08-13T13:12:10Z</time>
      </trkpt>
      <trkpt lat="40.566383" lon="-4.897233">
        <ele>2117.0</ele>
        <time>2018-08-13T13:12:11Z</time>
      </trkpt>
      <trkpt lat="40.566283" lon="-4.897167">
        <ele>2121.0</ele>
        <time>2018-08-13T13:12:12Z</time>
      </trkpt>
      <trkpt lat="40.566183" lon="-4.897150">
        <ele>2124.0</ele>
        <time>2018-08-13T13:12:13Z</time>
      </trkpt>
      <trkpt lat="40.566083" lon="-4.897150">
        <ele>2127.0</ele>
        <time>2018-08-13T13:12:14Z</time>
      </trkpt>
      <trkpt lat="40.566033" lon="-4.897183">
        <ele>2129.0</ele>
        <time>2018-08-13T13:12:15Z</time>
      </trkpt>
      <trkpt lat="40.565983" lon="-4.897217">
        <ele>2131.0</ele>
        <time>2018-08-13T13:12:16Z</time>
      </trkpt>
      <trkpt lat="40.565950" lon="-4.897267">
        <ele>2133.0</ele>
        <time>2018-08-13T13:12:17Z</time>
      </trkpt>
      <trkpt lat="40.565933" lon="-4.897300">
        <ele>2135.0</ele>
        <time>2018-08-13T13:12:18Z</time>
      </trkpt>
      <trkpt lat="40.565917" lon="-4.897367">
        <ele>2136.0</ele>
        <time>2018-08-13T13:12:19Z</time>
      </trkpt>
      <trkpt lat="40.565933" lon="-4.897433">
        <ele>2136.0</ele>
        <time>2018-08-13T13:12:20Z</time>
      </trkpt>
      <trkpt lat="40.565967" lon="-4.897500">
        <ele>2136.0</ele>
        <time>2018-08-13T13:12:21Z</time>
      </trkpt>
      <trkpt lat="40.566017" lon="-4.897567">
        <ele>2136.0</ele>
        <time>2018-08-13T13:12:22Z</time>
      </trkpt>
      <trkpt lat="40.566083" lon="-4.897617">
        <ele>2138.0</ele>
        <time>2018-08-13T13:12:23Z</time>
      </trkpt>
      <trkpt lat="40.566167" lon="-4.897633">
        <ele>2140.0</ele>
        <time>2018-08-13T13:12:24Z</time>
      </trkpt>
      <trkpt lat="40.566250" lon="-4.897633">
        <ele>2142.0</ele>
        <time>2018-08-13T13:12:25Z</time>
      </trkpt>
      <trkpt lat="40.566367" lon="-4.897600">
        <ele>2144.0</ele>
        <time>2018-08-13T13:12:26Z</time>
      </trkpt>
      <trkpt lat="40.566467" lon="-4.897550">
        <ele>2147.0</ele>
        <time>2018-08-13T13:12:27Z</time>
      </trkpt>
      <trkpt lat="40.566567" lon="-4.897500">
        <ele>2150.0</ele>
        <time>2018-08-13T13:12:28Z</time>
      </trkpt>
      <trkpt lat="40.566650" lon="-4.897433">
        <ele>2155.0</ele>
        <time>2018-08-13T13:12:29Z</time>
      </trkpt>
      <trkpt lat="40.566733" lon="-4.897350">
        <ele>2159.0</ele>
        <time>2018-08-13T13:12:30Z</time>
      </trkpt>
      <trkpt lat="40.566800" lon="-4.897283">
        <ele>2164.0</ele>
        <time>2018-08-13T13:12:31Z</time>
      </trkpt>
      <trkpt lat="40.566867" lon="-4.897200">
        <ele>2168.0</ele>
        <time>2018-08-13T13:12:32Z</time>
      </trkpt>
      <trkpt lat="40.566933" lon="-4.897133">
        <ele>2171.0</ele>
        <time>2018-08-13T13:12:33Z</time>
      </trkpt>
      <trkpt lat="40.567017" lon="-4.897050">
        <ele>2176.0</ele>
        <time>2018-08-13T13:12:34Z</time>
      </trkpt>
      <trkpt lat="40.567100" lon="-4.897000">
        <ele>2180.0</ele>
        <time>2018-08-13T13:12:35Z</time>
      </trkpt>
      <trkpt lat="40.567167" lon="-4.896933">
        <ele>2186.0</ele>
        <time>2018-08-13T13:12:36Z</time>
      </trkpt>
      <trkpt lat="40.567233" lon="-4.896833">
        <ele>2191.0</ele>
        <time>2018-08-13T13:12:37Z</time>
      </trkpt>
      <trkpt lat="40.567283" lon="-4.896733">
        <ele>2195.0</ele>
        <time>2018-08-13T13:12:38Z</time>
      </trkpt>
      <trkpt lat="40.567333" lon="-4.896617">
        <ele>2200.0</ele>
        <time>2018-08-13T13:12:39Z</time>
      </trkpt>
      <trkpt lat="40.567400" lon="-4.896500">
        <ele>2204.0</ele>
        <time>2018-08-13T13:12:40Z</time>
      </trkpt>
      <trkpt lat="40.567467" lon="-4.896417">
        <ele>2208.0</ele>
        <time>2018-08-13T13:12:41Z</time>
      </trkpt>
      <trkpt lat="40.567533" lon="-4.896333">
        <ele>2213.0</ele>
        <time>2018-08-13T13:12:42Z</time>
      </trkpt>
      <trkpt lat="40.567600" lon="-4.896250">
        <ele>2217.0</ele>
        <time>2018-08-13T13:12:43Z</time>
      </trkpt>
      <trkpt lat="40.567650" lon="-4.896133">
        <ele>2222.0</ele>
        <time>2018-08-13T13:12:44Z</time>
      </trkpt>
      <trkpt lat="40.567717" lon="-4.896000">
        <ele>2225.0</ele>
        <time>2018-08-13T13:12:45Z</time>
      </trkpt>
      <trkpt lat="40.567767" lon="-4.895867">
        <ele>2228.0</ele>
        <time>2018-08-13T13:12:46Z</time>
      </trkpt>
      <trkpt lat="40.567817" lon="-4.895717">
        <ele>2231.0</ele>
        <time>2018-08-13T13:12:47Z</time>
      </trkpt>
      <trkpt lat="40.567833" lon="-4.895567">
        <ele>2234.0</ele>
        <time>2018-08-13T13:12:48Z</time>
      </trkpt>
      <trkpt lat="40.567850" lon="-4.895417">
        <ele>2236.0</ele>
        <time>2018-08-13T13:12:49Z</time>
      </trkpt>
      <trkpt lat="40.567850" lon="-4.895267">
        <ele>2238.0</ele>
        <time>2018-08-13T13:12:50Z</time>
      </trkpt>
      <trkpt lat="40.567817" lon="-4.895100">
        <ele>2239.0</ele>
        <time>2018-08-13T13:12:51Z</time>
      </trkpt>
      <trkpt lat="40.567750" lon="-4.894950">
        <ele>2239.0</ele>
        <time>2018-08-13T13:12:52Z</time>
      </trkpt>
      <trkpt lat="40.567667" lon="-4.894817">
        <ele>2241.0</ele>
        <time>2018-08-13T13:12:53Z</time>
      </trkpt>
      <trkpt lat="40.567567" lon="-4.894700">
        <ele>2243.0</ele>
        <time>2018-08-13T13:12:54Z</time>
      </trkpt>
      <trkpt lat="40.567467" lon="-4.894617">
        <ele>2246.0</ele>
        <time>2018-08-13T13:12:55Z</time>
      </trkpt>
      <trkpt lat="40.567367" lon="-4.894550">
        <ele>2248.0</ele>
        <time>2018-08-13T13:12:56Z</time>
      </trkpt>
      <trkpt lat="40.567267" lon="-4.894517">
        <ele>2251.0</ele>
        <time>2018-08-13T13:12:57Z</time>
      </trkpt>
      <trkpt lat="40.567183" lon="-4.894517">
        <ele>2252.0</ele>
        <time>2018-08-13T13:12:58Z</time>
      </trkpt>
      <trkpt lat="40.567083" lon="-4.894533">
        <ele>2253.0</ele>
        <time>2018-08-13T13:12:59Z</time>
      </trkpt>
      <trkpt lat="40.567017" lon="-4.894567">
        <ele>2254.0</ele>
        <time>2018-08-13T13:13:00Z</time>
      </trkpt>
      <trkpt lat="40.566933" lon="-4.894617">
        <ele>2255.0</ele>
        <time>2018-08-13T13:13:01Z</time>
      </trkpt>
      <trkpt lat="40.566883" lon="-4.894667">
        <ele>2256.0</ele>
        <time>2018-08-13T13:13:02Z</time>
      </trkpt>
      <trkpt lat="40.566850" lon="-4.894733">
        <ele>2255.0</ele>
        <time>2018-08-13T13:13:03Z</time>
      </trkpt>
      <trkpt lat="40.566833" lon="-4.894817">
        <ele>2255.0</ele>
        <time>2018-08-13T13:13:04Z</time>
      </trkpt>
      <trkpt lat="40.566833" lon="-4.894917">
        <ele>2255.0</ele>
        <time>2018-08-13T13:13:05Z</time>
      </trkpt>
      <trkpt lat="40.566850" lon="-4.895017">
        <ele>2257.0</ele>
        <time>2018-08-13T13:13:06Z</time>
      </trkpt>
      <trkpt lat="40.566867" lon="-4.895100">
        <ele>2259.0</ele>
        <time>2018-08-13T13:13:07Z</time>
      </trkpt>
      <trkpt lat="40.566900" lon="-4.895183">
        <ele>2263.0</ele>
        <time>2018-08-13T13:13:08Z</time>
      </trkpt>
      <trkpt lat="40.566950" lon="-4.895233">
        <ele>2267.0</ele>
        <time>2018-08-13T13:13:09Z</time>
      </trkpt>
      <trkpt lat="40.567017" lon="-4.895250">
        <ele>2270.0</ele>
        <time>2018-08-13T13:13:10Z</time>
      </trkpt>
      <trkpt lat="40.567100" lon="-4.895267">
        <ele>2273.0</ele>
        <time>2018-08-13T13:13:11Z</time>
      </trkpt>
      <trkpt lat="40.567183" lon="-4.895283">
        <ele>2277.0</ele>
        <time>2018-08-13T13:13:12Z</time>
      </trkpt>
      <trkpt lat="40.567267" lon="-4.895300">
        <ele>2281.0</ele>
        <time>2018-08-13T13:13:13Z</time>
      </trkpt>
      <trkpt lat="40.567350" lon="-4.895317">
        <ele>2285.0</ele>
        <time>2018-08-13T13:13:14Z</time>
      </trkpt>
      <trkpt lat="40.567450" lon="-4.895300">
        <ele>2289.0</ele>
        <time>2018-08-13T13:13:15Z</time>
      </trkpt>
      <trkpt lat="40.567533" lon="-4.895283">
        <ele>2293.0</ele>
        <time>2018-08-13T13:13:16Z</time>
      </trkpt>
      <trkpt lat="40.567633" lon="-4.895267">
        <ele>2297.0</ele>
        <time>2018-08-13T13:13:17Z</time>
      </trkpt>
      <trkpt lat="40.567733" lon="-4.895233">
        <ele>2301.0</ele>
        <time>2018-08-13T13:13:18Z</time>
      </trkpt>
      <trkpt lat="40.567833" lon="-4.895200">
        <ele>2306.0</ele>
        <time>2018-08-13T13:13:19Z</time>
      </trkpt>
      <trkpt lat="40.567917" lon="-4.895167">
        <ele>2311.0</ele>
        <time>2018-08-13T13:13:20Z</time>
      </trkpt>
      <trkpt lat="40.568017" lon="-4.895133">
        <ele>2316.0</ele>
        <time>2018-08-13T13:13:21Z</time>
      </trkpt>
      <trkpt lat="40.568100" lon="-4.895100">
        <ele>2321.0</ele>
        <time>2018-08-13T13:13:22Z</time>
      </trkpt>
      <trkpt lat="40.568200" lon="-4.895067">
        <ele>2327.0</ele>
        <time>2018-08-13T13:13:23Z</time>
      </trkpt>
      <trkpt lat="40.568283" lon="-4.895017">
        <ele>2332.0</ele>
        <time>2018-08-13T13:13:24Z</time>
      </trkpt>
      <trkpt lat="40.568383" lon="-4.894983">
        <ele>2336.0</ele>
        <time>2018-08-13T13:13:25Z</time>
      </trkpt>
      <trkpt lat="40.568483" lon="-4.894933">
        <ele>2341.0</ele>
        <time>2018-08-13T13:13:26Z</time>
      </trkpt>
      <trkpt lat="40.568583" lon="-4.894883">
        <ele>2345.0</ele>
        <time>2018-08-13T13:13:27Z</time>
      </trkpt>
      <trkpt lat="40.568667" lon="-4.894817">
        <ele>2349.0</ele>
        <time>2018-08-13T13:13:28Z</time>
      </trkpt>
      <trkpt lat="40.568767" lon="-4.894750">
        <ele>2353.0</ele>
        <time>2018-08-13T13:13:29Z</time>
      </trkpt>
      <trkpt lat="40.568833" lon="-4.894683">
        <ele>2357.0</ele>
        <time>2018-08-13T13:13:30Z</time>
      </trkpt>
      <trkpt lat="40.568917" lon="-4.894633">
        <ele>2361.0</ele>
        <time>2018-08-13T13:13:31Z</time>
      </trkpt>
      <trkpt lat="40.568983" lon="-4.894567">
        <ele>2363.0</ele>
        <time>2018-08-13T13:13:32Z</time>
      </trkpt>
      <trkpt lat="40.569050" lon="-4.894483">
        <ele>2364.0</ele>
        <time>2018-08-13T13:13:33Z</time>
      </trkpt>
      <trkpt lat="40.569117" lon="-4.894383">
        <ele>2363.0</ele>
        <time>2018-08-13T13:13:34Z</time>
      </trkpt>
      <trkpt lat="40.569183" lon="-4.894250">
        <ele>2362.0</ele>
        <time>2018-08-13T13:13:35Z</time>
      </trkpt>
      <trkpt lat="40.569233" lon="-4.894117">
        <ele>2361.0</ele>
        <time>2018-08-13T13:13:36Z</time>
      </trkpt>
      <trkpt lat="40.569267" lon="-4.893967">
        <ele>2360.0</ele>
        <time>2018-08-13T13:13:37Z</time>
      </trkpt>
      <trkpt lat="40.569283" lon="-4.893817">
        <ele>2358.0</ele>
        <time>2018-08-13T13:13:38Z</time>
      </trkpt>
      <trkpt lat="40.569283" lon="-4.893650">
        <ele>2357.0</ele>
        <time>2018-08-13T13:13:39Z</time>
      </trkpt>
      <trkpt lat="40.569267" lon="-4.893500">
        <ele>2355.0</ele>
        <time>2018-08-13T13:13:40Z</time>
      </trkpt>
      <trkpt lat="40.569200" lon="-4.893333">
        <ele>2354.0</ele>
        <time>2018-08-13T13:13:41Z</time>
      </trkpt>
      <trkpt lat="40.569133" lon="-4.893217">
        <ele>2355.0</ele>
        <time>2018-08-13T13:13:42Z</time>
      </trkpt>
      <trkpt lat="40.569033" lon="-4.893117">
        <ele>2356.0</ele>
        <time>2018-08-13T13:13:43Z</time>
      </trkpt>
      <trkpt lat="40.568950" lon="-4.893033">
        <ele>2357.0</ele>
        <time>2018-08-13T13:13:44Z</time>
      </trkpt>
      <trkpt lat="40.568867" lon="-4.892983">
        <ele>2358.0</ele>
        <time>2018-08-13T13:13:45Z</time>
      </trkpt>
      <trkpt lat="40.568767" lon="-4.892933">
        <ele>2358.0</ele>
        <time>2018-08-13T13:13:46Z</time>
      </trkpt>
      <trkpt lat="40.568667" lon="-4.892900">
        <ele>2358.0</ele>
        <time>2018-08-13T13:13:47Z</time>
      </trkpt>
      <trkpt lat="40.568567" lon="-4.892883">
        <ele>2359.0</ele>
        <time>2018-08-13T13:13:48Z</time>
      </trkpt>
      <trkpt lat="40.568467" lon="-4.892883">
        <ele>2360.0</ele>
        <time>2018-08-13T13:13:49Z</time>
      </trkpt>
      <trkpt lat="40.568367" lon="-4.892900">
        <ele>2362.0</ele>
        <time>2018-08-13T13:13:50Z</time>
      </trkpt>
      <trkpt lat="40.568283" lon="-4.892933">
        <ele>2363.0</ele>
        <time>2018-08-13T13:13:51Z</time>
      </trkpt>
      <trkpt lat="40.568217" lon="-4.892983">
        <ele>2365.0</ele>
        <time>2018-08-13T13:13:52Z</time>
      </trkpt>
      <trkpt lat="40.568167" lon="-4.893050">
        <ele>2367.0</ele>
        <time>2018-08-13T13:13:53Z</time>
      </trkpt>
      <trkpt lat="40.568117" lon="-4.893117">
        <ele>2369.0</ele>
        <time>2018-08-13T13:13:54Z</time>
      </trkpt>
      <trkpt lat="40.568100" lon="-4.893200">
        <ele>2370.0</ele>
        <time>2018-08-13T13:13:55Z</time>
      </trkpt>
      <trkpt lat="40.568117" lon="-4.893300">
        <ele>2373.0</ele>
        <time>2018-08-13T13:13:56Z</time>
      </trkpt>
      <trkpt lat="40.568133" lon="-4.893400">
        <ele>2377.0</ele>
        <time>2018-08-13T13:13:57Z</time>
      </trkpt>
      <trkpt lat="40.568133" lon="-4.893517">
        <ele>2382.0</ele>
        <time>2018-08-13T13:13:58Z</time>
      </trkpt>
      <trkpt lat="40.568117" lon="-4.893600">
        <ele>2388.0</ele>
        <time>2018-08-13T13:13:59Z</time>
      </trkpt>
      <trkpt lat="40.568117" lon="-4.893683">
        <ele>2394.0</ele>
        <time>2018-08-13T13:14:00Z</time>
      </trkpt>
      <trkpt lat="40.568117" lon="-4.893767">
        <ele>2399.0</ele>
        <time>2018-08-13T13:14:01Z</time>
      </trkpt>
      <trkpt lat="40.568133" lon="-4.893850">
        <ele>2403.0</ele>
        <time>2018-08-13T13:14:02Z</time>
      </trkpt>
      <trkpt lat="40.568133" lon="-4.893933">
        <ele>2405.0</ele>
        <time>2018-08-13T13:14:03Z</time>
      </trkpt>
      <trkpt lat="40.568150" lon="-4.894050">
        <ele>2408.0</ele>
        <time>2018-08-13T13:14:04Z</time>
      </trkpt>
      <trkpt lat="40.568167" lon="-4.894150">
        <ele>2412.0</ele>
        <time>2018-08-13T13:14:05Z</time>
      </trkpt>
      <trkpt lat="40.568183" lon="-4.894267">
        <ele>2416.0</ele>
        <time>2018-08-13T13:14:06Z</time>
      </trkpt>
      <trkpt lat="40.568217" lon="-4.894367">
        <ele>2420.0</ele>
        <time>2018-08-13T13:14:07Z</time>
      </trkpt>
      <trkpt lat="40.568267" lon="-4.894450">
        <ele>2423.0</ele>
        <time>2018-08-13T13:14:08Z</time>
      </trkpt>
      <trkpt lat="40.568317" lon="-4.894533">
        <ele>2426.0</ele>
        <time>2018-08-13T13:14:09Z</time>
      </trkpt>
      <trkpt lat="40.568367" lon="-4.894617">
        <ele>2428.0</ele>
        <time>2018-08-13T13:14:10Z</time>
      </trkpt>
      <trkpt lat="40.568417" lon="-4.894700">
        <ele>2430.0</ele>
        <time>2018-08-13T13:14:11Z</time>
      </trkpt>
      <trkpt lat="40.568467" lon="-4.894783">
        <ele>2432.0</ele>
        <time>2018-08-13T13:14:12Z</time>
      </trkpt>
      <trkpt lat="40.568533" lon="-4.894867">
        <ele>2434.0</ele>
        <time>2018-08-13T13:14:13Z</time>
      </trkpt>
      <trkpt lat="40.568600" lon="-4.894933">
        <ele>2436.0</ele>
        <time>2018-08-13T13:14:14Z</time>
      </trkpt>
      <trkpt lat="40.568667" lon="-4.895000">
        <ele>2439.0</ele>
        <time>2018-08-13T13:14:15Z</time>
      </trkpt>
      <trkpt lat="40.568733" lon="-4.895050">
        <ele>2442.0</ele>
        <time>2018-08-13T13:14:16Z</time>
      </trkpt>
      <trkpt lat="40.568817" lon="-4.895083">
        <ele>2445.0</ele>
        <time>2018-08-13T13:14:17Z</time>
      </trkpt>
      <trkpt lat="40.568883" lon="-4.895083">
        <ele>2445.0</ele>
        <time>2018-08-13T13:14:18Z</time>
      </trkpt>
      <trkpt lat="40.568967" lon="-4.895067">
        <ele>2446.0</ele>
        <time>2018-08-13T13:14:19Z</time>
      </trkpt>
      <trkpt lat="40.569050" lon="-4.895050">
        <ele>2445.0</ele>
        <time>2018-08-13T13:14:20Z</time>
      </trkpt>
      <trkpt lat="40.569117" lon="-4.895033">
        <ele>2444.0</ele>
        <time>2018-08-13T13:14:21Z</time>
      </trkpt>
      <trkpt lat="40.569200" lon="-4.894983">
        <ele>2443.0</ele>
        <time>2018-08-13T13:14:22Z</time>
      </trkpt>
      <trkpt lat="40.569283" lon="-4.894917">
        <ele>2442.0</ele>
        <time>2018-08-13T13:14:23Z</time>
      </trkpt>
      <trkpt lat="40.569367" lon="-4.894833">
        <ele>2440.0</ele>
        <time>2018-08-13T13:14:24Z</time>
      </trkpt>
      <trkpt lat="40.569433" lon="-4.894733">
        <ele>2439.0</ele>
        <time>2018-08-13T13:14:25Z</time>
      </trkpt>
      <trkpt lat="40.569500" lon="-4.894633">
        <ele>2437.0</ele>
        <time>2018-08-13T13:14:26Z</time>
      </trkpt>
      <trkpt lat="40.569550" lon="-4.894533">
        <ele>2436.0</ele>
        <time>2018-08-13T13:14:27Z</time>
      </trkpt>
      <trkpt lat="40.569583" lon="-4.894417">
        <ele>2433.0</ele>
        <time>2018-08-13T13:14:28Z</time>
      </trkpt>
      <trkpt lat="40.569600" lon="-4.894283">
        <ele>2430.0</ele>
        <time>2018-08-13T13:14:29Z</time>
      </trkpt>
      <trkpt lat="40.569617" lon="-4.894150">
        <ele>2428.0</ele>
        <time>2018-08-13T13:14:30Z</time>
      </trkpt>
      <trkpt lat="40.569617" lon="-4.894000">
        <ele>2425.0</ele>
        <time>2018-08-13T13:14:31Z</time>
      </trkpt>
      <trkpt lat="40.569600" lon="-4.893850">
        <ele>2424.0</ele>
        <time>2018-08-13T13:14:32Z</time>
      </trkpt>
      <trkpt lat="40.569583" lon="-4.893733">
        <ele>2423.0</ele>
        <time>2018-08-13T13:14:33Z</time>
      </trkpt>
      <trkpt lat="40.569533" lon="-4.893617">
        <ele>2422.0</ele>
        <time>2018-08-13T13:14:34Z</time>
      </trkpt>
      <trkpt lat="40.569483" lon="-4.893483">
        <ele>2420.0</ele>
        <time>2018-08-13T13:14:35Z</time>
      </trkpt>
      <trkpt lat="40.569417" lon="-4.893367">
        <ele>2418.0</ele>
        <time>2018-08-13T13:14:36Z</time>
      </trkpt>
      <trkpt lat="40.569350" lon="-4.893250">
        <ele>2418.0</ele>
        <time>2018-08-13T13:14:37Z</time>
      </trkpt>
      <trkpt lat="40.569267" lon="-4.893133">
        <ele>2419.0</ele>
        <time>2018-08-13T13:14:38Z</time>
      </trkpt>
      <trkpt lat="40.569183" lon="-4.893050">
        <ele>2420.0</ele>
        <time>2018-08-13T13:14:39Z</time>
      </trkpt>
      <trkpt lat="40.569083" lon="-4.892983">
        <ele>2421.0</ele>
        <time>2018-08-13T13:14:40Z</time>
      </trkpt>
      <trkpt lat="40.569000" lon="-4.892933">
        <ele>2421.0</ele>
        <time>2018-08-13T13:14:41Z</time>
      </trkpt>
      <trkpt lat="40.568883" lon="-4.892883">
        <ele>2421.0</ele>
        <time>2018-08-13T13:14:42Z</time>
      </trkpt>
      <trkpt lat="40.568800" lon="-4.892867">
        <ele>2421.0</ele>
        <time>2018-08-13T13:14:43Z</time>
      </trkpt>
      <trkpt lat="40.568700" lon="-4.892883">
        <ele>2422.0</ele>
        <time>2018-08-13T13:14:44Z</time>
      </trkpt>
      <trkpt lat="40.568617" lon="-4.892933">
        <ele>2423.0</ele>
        <time>2018-08-13T13:14:45Z</time>
      </trkpt>
      <trkpt lat="40.568550" lon="-4.892983">
        <ele>2424.0</ele>
        <time>2018-08-13T13:14:46Z</time>
      </trkpt>
      <trkpt lat="40.568500" lon="-4.893050">
        <ele>2426.0</ele>
        <time>2018-08-13T13:14:47Z</time>
      </trkpt>
      <trkpt lat="40.568433" lon="-4.893100">
        <ele>2428.0</ele>
        <time>2018-08-13T13:14:48Z</time>
      </trkpt>
      <trkpt lat="40.568383" lon="-4.893167">
        <ele>2429.0</ele>
        <time>2018-08-13T13:14:49Z</time>
      </trkpt>
      <trkpt lat="40.568317" lon="-4.893217">
        <ele>2430.0</ele>
        <time>2018-08-13T13:14:50Z</time>
      </trkpt>
      <trkpt lat="40.568250" lon="-4.893267">
        <ele>2431.0</ele>
        <time>2018-08-13T13:14:51Z</time>
      </trkpt>
      <trkpt lat="40.568200" lon="-4.893317">
        <ele>2432.0</ele>
        <time>2018-08-13T13:14:52Z</time>
      </trkpt>
      <trkpt lat="40.568150" lon="-4.893367">
        <ele>2432.0</ele>
        <time>2018-08-13T13:14:53Z</time>
      </trkpt>
      <trkpt lat="40.568083" lon="-4.893417">
        <ele>2432.0</ele>
        <time>2018-08-13T13:14:54Z</time>
      </trkpt>
      <trkpt lat="40.568050" lon="-4.893467">
        <ele>2430.0</ele>
        <time>2018-08-13T13:14:55Z</time>
      </trkpt>
      <trkpt lat="40.568017" lon="-4.893533">
        <ele>2429.0</ele>
        <time>2018-08-13T13:14:56Z</time>
      </trkpt>
      <trkpt lat="40.568000" lon="-4.893600">
        <ele>2428.0</ele>
        <time>2018-08-13T13:14:57Z</time>
      </trkpt>
      <trkpt lat="40.568000" lon="-4.893683">
        <ele>2426.0</ele>
        <time>2018-08-13T13:14:58Z</time>
      </trkpt>
      <trkpt lat="40.568017" lon="-4.893767">
        <ele>2425.0</ele>
        <time>2018-08-13T13:14:59Z</time>
      </trkpt>
      <trkpt lat="40.568033" lon="-4.893867">
        <ele>2423.0</ele>
        <time>2018-08-13T13:15:00Z</time>
      </trkpt>
      <trkpt lat="40.568083" lon="-4.893967">
        <ele>2421.0</ele>
        <time>2018-08-13T13:15:01Z</time>
      </trkpt>
      <trkpt lat="40.568150" lon="-4.894033">
        <ele>2421.0</ele>
        <time>2018-08-13T13:15:02Z</time>
      </trkpt>
      <trkpt lat="40.568217" lon="-4.894100">
        <ele>2421.0</ele>
        <time>2018-08-13T13:15:03Z</time>
      </trkpt>
      <trkpt lat="40.568300" lon="-4.894133">
        <ele>2422.0</ele>
        <time>2018-08-13T13:15:04Z</time>
      </trkpt>
      <trkpt lat="40.568367" lon="-4.894167">
        <ele>2422.0</ele>
        <time>2018-08-13T13:15:05Z</time>
      </trkpt>
      <trkpt lat="40.568433" lon="-4.894183">
        <ele>2422.0</ele>
        <time>2018-08-13T13:15:06Z</time>
      </trkpt>
      <trkpt lat="40.568517" lon="-4.894200">
        <ele>2422.0</ele>
        <time>2018-08-13T13:15:07Z</time>
      </trkpt>
      <trkpt lat="40.568600" lon="-4.894233">
        <ele>2421.0</ele>
        <time>2018-08-13T13:15:08Z</time>
      </trkpt>
      <trkpt lat="40.568683" lon="-4.894233">
        <ele>2420.0</ele>
        <time>2018-08-13T13:15:09Z</time>
      </trkpt>
      <trkpt lat="40.568767" lon="-4.894217">
        <ele>2418.0</ele>
        <time>2018-08-13T13:15:10Z</time>
      </trkpt>
      <trkpt lat="40.568850" lon="-4.894200">
        <ele>2417.0</ele>
        <time>2018-08-13T13:15:11Z</time>
      </trkpt>
      <trkpt lat="40.568950" lon="-4.894167">
        <ele>2415.0</ele>
        <time>2018-08-13T13:15:12Z</time>
      </trkpt>
      <trkpt lat="40.569033" lon="-4.894133">
        <ele>2415.0</ele>
        <time>2018-08-13T13:15:13Z</time>
      </trkpt>
      <trkpt lat="40.569117" lon="-4.894100">
        <ele>2414.0</ele>
        <time>2018-08-13T13:15:14Z</time>
      </trkpt>
      <trkpt lat="40.569200" lon="-4.894033">
        <ele>2414.0</ele>
        <time>2018-08-13T13:15:15Z</time>
      </trkpt>
      <trkpt lat="40.569267" lon="-4.893967">
        <ele>2413.0</ele>
        <time>2018-08-13T13:15:16Z</time>
      </trkpt>
      <trkpt lat="40.569317" lon="-4.893883">
        <ele>2410.0</ele>
        <time>2018-08-13T13:15:17Z</time>
      </trkpt>
      <trkpt lat="40.569383" lon="-4.893800">
        <ele>2407.0</ele>
        <time>2018-08-13T13:15:18Z</time>
      </trkpt>
      <trkpt lat="40.569467" lon="-4.893717">
        <ele>2403.0</ele>
        <time>2018-08-13T13:15:19Z</time>
      </trkpt>
      <trkpt lat="40.569550" lon="-4.893633">
        <ele>2400.0</ele>
        <time>2018-08-13T13:15:20Z</time>
      </trkpt>
      <trkpt lat="40.569633" lon="-4.893533">
        <ele>2398.0</ele>
        <time>2018-08-13T13:15:21Z</time>
      </trkpt>
      <trkpt lat="40.569700" lon="-4.893450">
        <ele>2395.0</ele>
        <time>2018-08-13T13:15:22Z</time>
      </trkpt>
      <trkpt lat="40.569767" lon="-4.893350">
        <ele>2393.0</ele>
        <time>2018-08-13T13:15:23Z</time>
      </trkpt>
      <trkpt lat="40.569833" lon="-4.893267">
        <ele>2389.0</ele>
        <time>2018-08-13T13:15:24Z</time>
      </trkpt>
      <trkpt lat="40.569900" lon="-4.893167">
        <ele>2385.0</ele>
        <time>2018-08-13T13:15:25Z</time>
      </trkpt>
      <trkpt lat="40.569983" lon="-4.893083">
        <ele>2381.0</ele>
        <time>2018-08-13T13:15:26Z</time>
      </trkpt>
      <trkpt lat="40.570083" lon="-4.892983">
        <ele>2378.0</ele>
        <time>2018-08-13T13:15:27Z</time>
      </trkpt>
      <trkpt lat="40.570183" lon="-4.892883">
        <ele>2375.0</ele>
        <time>2018-08-13T13:15:28Z</time>
      </trkpt>
      <trkpt lat="40.570283" lon="-4.892783">
        <ele>2374.0</ele>
        <time>2018-08-13T13:15:29Z</time>
      </trkpt>
      <trkpt lat="40.570367" lon="-4.892683">
        <ele>2373.0</ele>
        <time>2018-08-13T13:15:30Z</time>
      </trkpt>
      <trkpt lat="40.570433" lon="-4.892600">
        <ele>2372.0</ele>
        <time>2018-08-13T13:15:31Z</time>
      </trkpt>
      <trkpt lat="40.570517" lon="-4.892517">
        <ele>2370.0</ele>
        <time>2018-08-13T13:15:32Z</time>
      </trkpt>
      <trkpt lat="40.570617" lon="-4.892433">
        <ele>2367.0</ele>
        <time>2018-08-13T13:15:33Z</time>
      </trkpt>
      <trkpt lat="40.570700" lon="-4.892333">
        <ele>2365.0</ele>
        <time>2018-08-13T13:15:34Z</time>
      </trkpt>
      <trkpt lat="40.570783" lon="-4.892233">
        <ele>2363.0</ele>
        <time>2018-08-13T13:15:35Z</time>
      </trkpt>
      <trkpt lat="40.570867" lon="-4.892117">
        <ele>2361.0</ele>
        <time>2018-08-13T13:15:36Z</time>
      </trkpt>
      <trkpt lat="40.570950" lon="-4.892033">
        <ele>2359.0</ele>
        <time>2018-08-13T13:15:37Z</time>
      </trkpt>
      <trkpt lat="40.571033" lon="-4.891950">
        <ele>2357.0</ele>
        <time>2018-08-13T13:15:38Z</time>
      </trkpt>
      <trkpt lat="40.571117" lon="-4.891850">
        <ele>2354.0</ele>
        <time>2018-08-13T13:15:39Z</time>
      </trkpt>
      <trkpt lat="40.571217" lon="-4.891767">
        <ele>2352.0</ele>
        <time>2018-08-13T13:15:40Z</time>
      </trkpt>
      <trkpt lat="40.571300" lon="-4.891667">
        <ele>2349.0</ele>
        <time>2018-08-13T13:15:41Z</time>
      </trkpt>
      <trkpt lat="40.571383" lon="-4.891550">
        <ele>2347.0</ele>
        <time>2018-08-13T13:15:42Z</time>
      </trkpt>
      <trkpt lat="40.571483" lon="-4.891450">
        <ele>2346.0</ele>
        <time>2018-08-13T13:15:43Z</time>
      </trkpt>
      <trkpt lat="40.571567" lon="-4.891367">
        <ele>2344.0</ele>
        <time>2018-08-13T13:15:44Z</time>
      </trkpt>
      <trkpt lat="40.571650" lon="-4.891283">
        <ele>2342.0</ele>
        <time>2018-08-13T13:15:45Z</time>
      </trkpt>
      <trkpt lat="40.571750" lon="-4.891183">
        <ele>2340.0</ele>
        <time>2018-08-13T13:15:46Z</time>
      </trkpt>
      <trkpt lat="40.571833" lon="-4.891100">
        <ele>2339.0</ele>
        <time>2018-08-13T13:15:47Z</time>
      </trkpt>
      <trkpt lat="40.571917" lon="-4.891017">
        <ele>2338.0</ele>
        <time>2018-08-13T13:15:48Z</time>
      </trkpt>
      <trkpt lat="40.572000" lon="-4.890933">
        <ele>2337.0</ele>
        <time>2018-08-13T13:15:49Z</time>
      </trkpt>
      <trkpt lat="40.572083" lon="-4.890867">
        <ele>2336.0</ele>
        <time>2018-08-13T13:15:50Z</time>
      </trkpt>
      <trkpt lat="40.572133" lon="-4.890767">
        <ele>2335.0</ele>
        <time>2018-08-13T13:15:51Z</time>
      </trkpt>
      <trkpt lat="40.572200" lon="-4.890667">
        <ele>2334.0</ele>
        <time>2018-08-13T13:15:52Z</time>
      </trkpt>
      <trkpt lat="40.572267" lon="-4.890533">
        <ele>2334.0</ele>
        <time>2018-08-13T13:15:53Z</time>
      </trkpt>
      <trkpt lat="40.572333" lon="-4.890417">
        <ele>2334.0</ele>
        <time>2018-08-13T13:15:54Z</time>
      </trkpt>
      <trkpt lat="40.572400" lon="-4.890317">
        <ele>2334.0</ele>
        <time>2018-08-13T13:15:55Z</time>
      </trkpt>
      <trkpt lat="40.572467" lon="-4.890200">
        <ele>2335.0</ele>
        <time>2018-08-13T13:15:56Z</time>
      </trkpt>
      <trkpt lat="40.572533" lon="-4.890083">
        <ele>2335.0</ele>
        <time>2018-08-13T13:15:57Z</time>
      </trkpt>
      <trkpt lat="40.572600" lon="-4.889950">
        <ele>2335.0</ele>
        <time>2018-08-13T13:15:58Z</time>
      </trkpt>
      <trkpt lat="40.572667" lon="-4.889833">
        <ele>2335.0</ele>
        <time>2018-08-13T13:15:59Z</time>
      </trkpt>
      <trkpt lat="40.572750" lon="-4.889733">
        <ele>2335.0</ele>
        <time>2018-08-13T13:16:00Z</time>
      </trkpt>
      <trkpt lat="40.572833" lon="-4.889617">
        <ele>2336.0</ele>
        <time>2018-08-13T13:16:01Z</time>
      </trkpt>
      <trkpt lat="40.572900" lon="-4.889517">
        <ele>2336.0</ele>
        <time>2018-08-13T13:16:02Z</time>
      </trkpt>
      <trkpt lat="40.572983" lon="-4.889417">
        <ele>2333.0</ele>
        <time>2018-08-13T13:16:03Z</time>
      </trkpt>
      <trkpt lat="40.573050" lon="-4.889300">
        <ele>2332.0</ele>
        <time>2018-08-13T13:16:04Z</time>
      </trkpt>
      <trkpt lat="40.573117" lon="-4.889183">
        <ele>2331.0</ele>
        <time>2018-08-13T13:16:05Z</time>
      </trkpt>
      <trkpt lat="40.573200" lon="-4.889067">
        <ele>2331.0</ele>
        <time>2018-08-13T13:16:06Z</time>
      </trkpt>
      <trkpt lat="40.573267" lon="-4.888950">
        <ele>2331.0</ele>
        <time>2018-08-13T13:16:07Z</time>
      </trkpt>
      <trkpt lat="40.573333" lon="-4.888817">
        <ele>2330.0</ele>
        <time>2018-08-13T13:16:08Z</time>
      </trkpt>
      <trkpt lat="40.573400" lon="-4.888700">
        <ele>2330.0</ele>
        <time>2018-08-13T13:16:09Z</time>
      </trkpt>
      <trkpt lat="40.573483" lon="-4.888583">
        <ele>2328.0</ele>
        <time>2018-08-13T13:16:10Z</time>
      </trkpt>
      <trkpt lat="40.573567" lon="-4.888483">
        <ele>2327.0</ele>
        <time>2018-08-13T13:16:11Z</time>
      </trkpt>
      <trkpt lat="40.573650" lon="-4.888367">
        <ele>2324.0</ele>
        <time>2018-08-13T13:16:12Z</time>
      </trkpt>
      <trkpt lat="40.573750" lon="-4.888233">
        <ele>2323.0</ele>
        <time>2018-08-13T13:16:13Z</time>
      </trkpt>
      <trkpt lat="40.573833" lon="-4.888100">
        <ele>2323.0</ele>
        <time>2018-08-13T13:16:14Z</time>
      </trkpt>
      <trkpt lat="40.573917" lon="-4.887983">
        <ele>2323.0</ele>
        <time>2018-08-13T13:16:15Z</time>
      </trkpt>
      <trkpt lat="40.574000" lon="-4.887850">
        <ele>2323.0</ele>
        <time>2018-08-13T13:16:16Z</time>
      </trkpt>
      <trkpt lat="40.574083" lon="-4.887733">
        <ele>2324.0</ele>
        <time>2018-08-13T13:16:17Z</time>
      </trkpt>
      <trkpt lat="40.574167" lon="-4.887617">
        <ele>2325.0</ele>
        <time>2018-08-13T13:16:18Z</time>
      </trkpt>
      <trkpt lat="40.574233" lon="-4.887517">
        <ele>2327.0</ele>
        <time>2018-08-13T13:16:19Z</time>
      </trkpt>
      <trkpt lat="40.574300" lon="-4.887417">
        <ele>2329.0</ele>
        <time>2018-08-13T13:16:20Z</time>
      </trkpt>
      <trkpt lat="40.574367" lon="-4.887333">
        <ele>2331.0</ele>
        <time>2018-08-13T13:16:21Z</time>
      </trkpt>
      <trkpt lat="40.574450" lon="-4.887233">
        <ele>2331.0</ele>
        <time>2018-08-13T13:16:22Z</time>
      </trkpt>
      <trkpt lat="40.574517" lon="-4.887133">
        <ele>2331.0</ele>
        <time>2018-08-13T13:16:23Z</time>
      </trkpt>
      <trkpt lat="40.574600" lon="-4.887033">
        <ele>2331.0</ele>
        <time>2018-08-13T13:16:24Z</time>
      </trkpt>
      <trkpt lat="40.574667" lon="-4.886900">
        <ele>2331.0</ele>
        <time>2018-08-13T13:16:25Z</time>
      </trkpt>
      <trkpt lat="40.574717" lon="-4.886750">
        <ele>2330.0</ele>
        <time>2018-08-13T13:16:26Z</time>
      </trkpt>
      <trkpt lat="40.574767" lon="-4.886583">
        <ele>2330.0</ele>
        <time>2018-08-13T13:16:27Z</time>
      </trkpt>
      <trkpt lat="40.574817" lon="-4.886417">
        <ele>2330.0</ele>
        <time>2018-08-13T13:16:28Z</time>
      </trkpt>
      <trkpt lat="40.574850" lon="-4.886267">
        <ele>2330.0</ele>
        <time>2018-08-13T13:16:29Z</time>
      </trkpt>
      <trkpt lat="40.574900" lon="-4.886117">
        <ele>2331.0</ele>
        <time>2018-08-13T13:16:30Z</time>
      </trkpt>
      <trkpt lat="40.574950" lon="-4.885967">
        <ele>2329.0</ele>
        <time>2018-08-13T13:16:31Z</time>
      </trkpt>
      <trkpt lat="40.575000" lon="-4.885817">
        <ele>2328.0</ele>
        <time>2018-08-13T13:16:32Z</time>
      </trkpt>
      <trkpt lat="40.575050" lon="-4.885683">
        <ele>2325.0</ele>
        <time>2018-08-13T13:16:33Z</time>
      </trkpt>
      <trkpt lat="40.575100" lon="-4.885550">
        <ele>2321.0</ele>
        <time>2018-08-13T13:16:34Z</time>
      </trkpt>
      <trkpt lat="40.575183" lon="-4.885417">
        <ele>2316.0</ele>
        <time>2018-08-13T13:16:35Z</time>
      </trkpt>
      <trkpt lat="40.575283" lon="-4.885300">
        <ele>2311.0</ele>
        <time>2018-08-13T13:16:36Z</time>
      </trkpt>
      <trkpt lat="40.575383" lon="-4.885183">
        <ele>2307.0</ele>
        <time>2018-08-13T13:16:37Z</time>
      </trkpt>
      <trkpt lat="40.575483" lon="-4.885067">
        <ele>2303.0</ele>
        <time>2018-08-13T13:16:38Z</time>
      </trkpt>
      <trkpt lat="40.575567" lon="-4.884933">
        <ele>2298.0</ele>
        <time>2018-08-13T13:16:39Z</time>
      </trkpt>
      <trkpt lat="40.575650" lon="-4.884800">
        <ele>2294.0</ele>
        <time>2018-08-13T13:16:40Z</time>
      </trkpt>
      <trkpt lat="40.575733" lon="-4.884667">
        <ele>2290.0</ele>
        <time>2018-08-13T13:16:41Z</time>
      </trkpt>
      <trkpt lat="40.575833" lon="-4.884533">
        <ele>2287.0</ele>
        <time>2018-08-13T13:16:42Z</time>
      </trkpt>
      <trkpt lat="40.575933" lon="-4.884417">
        <ele>2285.0</ele>
        <time>2018-08-13T13:16:43Z</time>
      </trkpt>
      <trkpt lat="40.576050" lon="-4.884333">
        <ele>2282.0</ele>
        <time>2018-08-13T13:16:44Z</time>
      </trkpt>
      <trkpt lat="40.576150" lon="-4.884233">
        <ele>2279.0</ele>
        <time>2018-08-13T13:16:45Z</time>
      </trkpt>
      <trkpt lat="40.576267" lon="-4.884117">
        <ele>2276.0</ele>
        <time>2018-08-13T13:16:46Z</time>
      </trkpt>
      <trkpt lat="40.576367" lon="-4.884000">
        <ele>2272.0</ele>
        <time>2018-08-13T13:16:47Z</time>
      </trkpt>
      <trkpt lat="40.576483" lon="-4.883883">
        <ele>2269.0</ele>
        <time>2018-08-13T13:16:48Z</time>
      </trkpt>
      <trkpt lat="40.576583" lon="-4.883783">
        <ele>2267.0</ele>
        <time>2018-08-13T13:16:49Z</time>
      </trkpt>
      <trkpt lat="40.576683" lon="-4.883667">
        <ele>2265.0</ele>
        <time>2018-08-13T13:16:50Z</time>
      </trkpt>
      <trkpt lat="40.576783" lon="-4.883550">
        <ele>2263.0</ele>
        <time>2018-08-13T13:16:51Z</time>
      </trkpt>
      <trkpt lat="40.576867" lon="-4.883450">
        <ele>2262.0</ele>
        <time>2018-08-13T13:16:52Z</time>
      </trkpt>
      <trkpt lat="40.576950" lon="-4.883367">
        <ele>2261.0</ele>
        <time>2018-08-13T13:16:53Z</time>
      </trkpt>
      <trkpt lat="40.577050" lon="-4.883283">
        <ele>2260.0</ele>
        <time>2018-08-13T13:16:54Z</time>
      </trkpt>
      <trkpt lat="40.577133" lon="-4.883200">
        <ele>2257.0</ele>
        <time>2018-08-13T13:16:55Z</time>
      </trkpt>
      <trkpt lat="40.577233" lon="-4.883117">
        <ele>2255.0</ele>
        <time>2018-08-13T13:16:56Z</time>
      </trkpt>
      <trkpt lat="40.577317" lon="-4.883033">
        <ele>2253.0</ele>
        <time>2018-08-13T13:16:57Z</time>
      </trkpt>
      <trkpt lat="40.577400" lon="-4.882950">
        <ele>2251.0</ele>
        <time>2018-08-13T13:16:58Z</time>
      </trkpt>
      <trkpt lat="40.577483" lon="-4.882867">
        <ele>2248.0</ele>
        <time>2018-08-13T13:16:59Z</time>
      </trkpt>
      <trkpt lat="40.577583" lon="-4.882800">
        <ele>2245.0</ele>
        <time>2018-08-13T13:17:00Z</time>
      </trkpt>
      <trkpt lat="40.577667" lon="-4.882733">
        <ele>2241.0</ele>
        <time>2018-08-13T13:17:01Z</time>
      </trkpt>
      <trkpt lat="40.577767" lon="-4.882650">
        <ele>2237.0</ele>
        <time>2018-08-13T13:17:02Z</time>
      </trkpt>
      <trkpt lat="40.577850" lon="-4.882550">
        <ele>2233.0</ele>
        <time>2018-08-13T13:17:03Z</time>
      </trkpt>
      <trkpt lat="40.577933" lon="-4.882450">
        <ele>2230.0</ele>
        <time>2018-08-13T13:17:04Z</time>
      </trkpt>
      <trkpt lat="40.578017" lon="-4.882350">
        <ele>2226.0</ele>
        <time>2018-08-13T13:17:05Z</time>
      </trkpt>
      <trkpt lat="40.578100" lon="-4.882267">
        <ele>2223.0</ele>
        <time>2018-08-13T13:17:06Z</time>
      </trkpt>
      <trkpt lat="40.578200" lon="-4.882167">
        <ele>2219.0</ele>
        <time>2018-08-13T13:17:07Z</time>
      </trkpt>
      <trkpt lat="40.578300" lon="-4.882067">
        <ele>2217.0</ele>
        <time>2018-08-13T13:17:08Z</time>
      </trkpt>
      <trkpt lat="40.578383" lon="-4.881967">
        <ele>2215.0</ele>
        <time>2018-08-13T13:17:09Z</time>
      </trkpt>
      <trkpt lat="40.578450" lon="-4.881833">
        <ele>2214.0</ele>
        <time>2018-08-13T13:17:10Z</time>
      </trkpt>
      <trkpt lat="40.578517" lon="-4.881733">
        <ele>2212.0</ele>
        <time>2018-08-13T13:17:11Z</time>
      </trkpt>
      <trkpt lat="40.578600" lon="-4.881633">
        <ele>2210.0</ele>
        <time>2018-08-13T13:17:12Z</time>
      </trkpt>
      <trkpt lat="40.578683" lon="-4.881550">
        <ele>2208.0</ele>
        <time>2018-08-13T13:17:13Z</time>
      </trkpt>
      <trkpt lat="40.578767" lon="-4.881450">
        <ele>2205.0</ele>
        <time>2018-08-13T13:17:14Z</time>
      </trkpt>
      <trkpt lat="40.578850" lon="-4.881350">
        <ele>2202.0</ele>
        <time>2018-08-13T13:17:15Z</time>
      </trkpt>
      <trkpt lat="40.578933" lon="-4.881233">
        <ele>2199.0</ele>
        <time>2018-08-13T13:17:16Z</time>
      </trkpt>
      <trkpt lat="40.579017" lon="-4.881133">
        <ele>2196.0</ele>
        <time>2018-08-13T13:17:17Z</time>
      </trkpt>
      <trkpt lat="40.579100" lon="-4.881017">
        <ele>2194.0</ele>
        <time>2018-08-13T13:17:18Z</time>
      </trkpt>
      <trkpt lat="40.579183" lon="-4.880900">
        <ele>2193.0</ele>
        <time>2018-08-13T13:17:19Z</time>
      </trkpt>
      <trkpt lat="40.579267" lon="-4.880800">
        <ele>2192.0</ele>
        <time>2018-08-13T13:17:20Z</time>
      </trkpt>
      <trkpt lat="40.579350" lon="-4.880700">
        <ele>2191.0</ele>
        <time>2018-08-13T13:17:21Z</time>
      </trkpt>
      <trkpt lat="40.579417" lon="-4.880600">
        <ele>2189.0</ele>
        <time>2018-08-13T13:17:22Z</time>
      </trkpt>
      <trkpt lat="40.579500" lon="-4.880517">
        <ele>2187.0</ele>
        <time>2018-08-13T13:17:23Z</time>
      </trkpt>
      <trkpt lat="40.579583" lon="-4.880433">
        <ele>2185.0</ele>
        <time>2018-08-13T13:17:24Z</time>
      </trkpt>
      <trkpt lat="40.579683" lon="-4.880350">
        <ele>2183.0</ele>
        <time>2018-08-13T13:17:25Z</time>
      </trkpt>
      <trkpt lat="40.579767" lon="-4.880267">
        <ele>2182.0</ele>
        <time>2018-08-13T13:17:26Z</time>
      </trkpt>
      <trkpt lat="40.579850" lon="-4.880183">
        <ele>2180.0</ele>
        <time>2018-08-13T13:17:27Z</time>
      </trkpt>
      <trkpt lat="40.579950" lon="-4.880117">
        <ele>2178.0</ele>
        <time>2018-08-13T13:17:28Z</time>
      </trkpt>
      <trkpt lat="40.580050" lon="-4.880033">
        <ele>2175.0</ele>
        <time>2018-08-13T13:17:29Z</time>
      </trkpt>
      <trkpt lat="40.580150" lon="-4.879950">
        <ele>2173.0</ele>
        <time>2018-08-13T13:17:30Z</time>
      </trkpt>
      <trkpt lat="40.580250" lon="-4.879850">
        <ele>2171.0</ele>
        <time>2018-08-13T13:17:31Z</time>
      </trkpt>
      <trkpt lat="40.580350" lon="-4.879767">
        <ele>2171.0</ele>
        <time>2018-08-13T13:17:32Z</time>
      </trkpt>
      <trkpt lat="40.580450" lon="-4.879683">
        <ele>2171.0</ele>
        <time>2018-08-13T13:17:33Z</time>
      </trkpt>
      <trkpt lat="40.580533" lon="-4.879617">
        <ele>2171.0</ele>
        <time>2018-08-13T13:17:34Z</time>
      </trkpt>
      <trkpt lat="40.580633" lon="-4.879550">
        <ele>2169.0</ele>
        <time>2018-08-13T13:17:35Z</time>
      </trkpt>
      <trkpt lat="40.580733" lon="-4.879483">
        <ele>2167.0</ele>
        <time>2018-08-13T13:17:36Z</time>
      </trkpt>
      <trkpt lat="40.580833" lon="-4.879417">
        <ele>2165.0</ele>
        <time>2018-08-13T13:17:37Z</time>
      </trkpt>
      <trkpt lat="40.580933" lon="-4.879350">
        <ele>2164.0</ele>
        <time>2018-08-13T13:17:38Z</time>
      </trkpt>
      <trkpt lat="40.581050" lon="-4.879267">
        <ele>2163.0</ele>
        <time>2018-08-13T13:17:39Z</time>
      </trkpt>
      <trkpt lat="40.581150" lon="-4.879200">
        <ele>2162.0</ele>
        <time>2018-08-13T13:17:40Z</time>
      </trkpt>
      <trkpt lat="40.581250" lon="-4.879117">
        <ele>2160.0</ele>
        <time>2018-08-13T13:17:41Z</time>
      </trkpt>
      <trkpt lat="40.581350" lon="-4.879033">
        <ele>2159.0</ele>
        <time>2018-08-13T13:17:42Z</time>
      </trkpt>
      <trkpt lat="40.581450" lon="-4.878933">
        <ele>2157.0</ele>
        <time>2018-08-13T13:17:43Z</time>
      </trkpt>
      <trkpt lat="40.581550" lon="-4.878850">
        <ele>2155.0</ele>
        <time>2018-08-13T13:17:44Z</time>
      </trkpt>
      <trkpt lat="40.581667" lon="-4.878767">
        <ele>2154.0</ele>
        <time>2018-08-13T13:17:45Z</time>
      </trkpt>
      <trkpt lat="40.581767" lon="-4.878667">
        <ele>2152.0</ele>
        <time>2018-08-13T13:17:46Z</time>
      </trkpt>
      <trkpt lat="40.581867" lon="-4.878583">
        <ele>2150.0</ele>
        <time>2018-08-13T13:17:47Z</time>
      </trkpt>
      <trkpt lat="40.581983" lon="-4.878500">
        <ele>2148.0</ele>
        <time>2018-08-13T13:17:48Z</time>
      </trkpt>
      <trkpt lat="40.582083" lon="-4.878417">
        <ele>2146.0</ele>
        <time>2018-08-13T13:17:49Z</time>
      </trkpt>
      <trkpt lat="40.582183" lon="-4.878317">
        <ele>2144.0</ele>
        <time>2018-08-13T13:17:50Z</time>
      </trkpt>
      <trkpt lat="40.582300" lon="-4.878233">
        <ele>2142.0</ele>
        <time>2018-08-13T13:17:51Z</time>
      </trkpt>
      <trkpt lat="40.582400" lon="-4.878150">
        <ele>2140.0</ele>
        <time>2018-08-13T13:17:52Z</time>
      </trkpt>
      <trkpt lat="40.582500" lon="-4.878067">
        <ele>2139.0</ele>
        <time>2018-08-13T13:17:53Z</time>
      </trkpt>
      <trkpt lat="40.582600" lon="-4.877967">
        <ele>2137.0</ele>
        <time>2018-08-13T13:17:54Z</time>
      </trkpt>
      <trkpt lat="40.582683" lon="-4.877867">
        <ele>2135.0</ele>
        <time>2018-08-13T13:17:55Z</time>
      </trkpt>
      <trkpt lat="40.582767" lon="-4.877783">
        <ele>2132.0</ele>
        <time>2018-08-13T13:17:56Z</time>
      </trkpt>
      <trkpt lat="40.582867" lon="-4.877667">
        <ele>2129.0</ele>
        <time>2018-08-13T13:17:57Z</time>
      </trkpt>
      <trkpt lat="40.582950" lon="-4.877567">
        <ele>2126.0</ele>
        <time>2018-08-13T13:17:58Z</time>
      </trkpt>
      <trkpt lat="40.583050" lon="-4.877467">
        <ele>2123.0</ele>
        <time>2018-08-13T13:17:59Z</time>
      </trkpt>
      <trkpt lat="40.583150" lon="-4.877350">
        <ele>2122.0</ele>
        <time>2018-08-13T13:18:00Z</time>
      </trkpt>
      <trkpt lat="40.583250" lon="-4.877250">
        <ele>2121.0</ele>
        <time>2018-08-13T13:18:01Z</time>
      </trkpt>
      <trkpt lat="40.583350" lon="-4.877150">
        <ele>2120.0</ele>
        <time>2018-08-13T13:18:02Z</time>
      </trkpt>
      <trkpt lat="40.583433" lon="-4.877050">
        <ele>2120.0</ele>
        <time>2018-08-13T13:18:03Z</time>
      </trkpt>
      <trkpt lat="40.583533" lon="-4.876950">
        <ele>2119.0</ele>
        <time>2018-08-13T13:18:04Z</time>
      </trkpt>
      <trkpt lat="40.583617" lon="-4.876850">
        <ele>2118.0</ele>
        <time>2018-08-13T13:18:05Z</time>
      </trkpt>
      <trkpt lat="40.583700" lon="-4.876750">
        <ele>2116.0</ele>
        <time>2018-08-13T13:18:06Z</time>
      </trkpt>
      <trkpt lat="40.583800" lon="-4.876650">
        <ele>2114.0</ele>
        <time>2018-08-13T13:18:07Z</time>
      </trkpt>
      <trkpt lat="40.583900" lon="-4.876533">
        <ele>2112.0</ele>
        <time>2018-08-13T13:18:08Z</time>
      </trkpt>
      <trkpt lat="40.584000" lon="-4.876417">
        <ele>2110.0</ele>
        <time>2018-08-13T13:18:09Z</time>
      </trkpt>
      <trkpt lat="40.584083" lon="-4.876317">
        <ele>2109.0</ele>
        <time>2018-08-13T13:18:10Z</time>
      </trkpt>
      <trkpt lat="40.584183" lon="-4.876200">
        <ele>2107.0</ele>
        <time>2018-08-13T13:18:11Z</time>
      </trkpt>
      <trkpt lat="40.584267" lon="-4.876067">
        <ele>2105.0</ele>
        <time>2018-08-13T13:18:12Z</time>
      </trkpt>
      <trkpt lat="40.584350" lon="-4.875950">
        <ele>2103.0</ele>
        <time>2018-08-13T13:18:13Z</time>
      </trkpt>
      <trkpt lat="40.584433" lon="-4.875833">
        <ele>2100.0</ele>
        <time>2018-08-13T13:18:14Z</time>
      </trkpt>
      <trkpt lat="40.584517" lon="-4.875717">
        <ele>2097.0</ele>
        <time>2018-08-13T13:18:15Z</time>
      </trkpt>
      <trkpt lat="40.584617" lon="-4.875583">
        <ele>2094.0</ele>
        <time>2018-08-13T13:18:16Z</time>
      </trkpt>
      <trkpt lat="40.584700" lon="-4.875450">
        <ele>2091.0</ele>
        <time>2018-08-13T13:18:17Z</time>
      </trkpt>
      <trkpt lat="40.584783" lon="-4.875333">
        <ele>2089.0</ele>
        <time>2018-08-13T13:18:18Z</time>
      </trkpt>
      <trkpt lat="40.584883" lon="-4.875200">
        <ele>2087.0</ele>
        <time>2018-08-13T13:18:19Z</time>
      </trkpt>
      <trkpt lat="40.584967" lon="-4.875083">
        <ele>2084.0</ele>
        <time>2018-08-13T13:18:20Z</time>
      </trkpt>
      <trkpt lat="40.585050" lon="-4.874983">
        <ele>2082.0</ele>
        <time>2018-08-13T13:18:21Z</time>
      </trkpt>
      <trkpt lat="40.585133" lon="-4.874867">
        <ele>2079.0</ele>
        <time>2018-08-13T13:18:22Z</time>
      </trkpt>
      <trkpt lat="40.585200" lon="-4.874750">
        <ele>2076.0</ele>
        <time>2018-08-13T13:18:23Z</time>
      </trkpt>
      <trkpt lat="40.585283" lon="-4.874650">
        <ele>2074.0</ele>
        <time>2018-08-13T13:18:24Z</time>
      </trkpt>
      <trkpt lat="40.585367" lon="-4.874533">
        <ele>2071.0</ele>
        <time>2018-08-13T13:18:25Z</time>
      </trkpt>
      <trkpt lat="40.585433" lon="-4.874433">
        <ele>2068.0</ele>
        <time>2018-08-13T13:18:26Z</time>
      </trkpt>
      <trkpt lat="40.585500" lon="-4.874333">
        <ele>2065.0</ele>
        <time>2018-08-13T13:18:27Z</time>
      </trkpt>
      <trkpt lat="40.585567" lon="-4.874233">
        <ele>2062.0</ele>
        <time>2018-08-13T13:18:28Z</time>
      </trkpt>
      <trkpt lat="40.585650" lon="-4.874133">
        <ele>2058.0</ele>
        <time>2018-08-13T13:18:29Z</time>
      </trkpt>
      <trkpt lat="40.585717" lon="-4.874033">
        <ele>2055.0</ele>
        <time>2018-08-13T13:18:30Z</time>
      </trkpt>
      <trkpt lat="40.585783" lon="-4.873933">
        <ele>2052.0</ele>
        <time>2018-08-13T13:18:31Z</time>
      </trkpt>
      <trkpt lat="40.585850" lon="-4.873817">
        <ele>2049.0</ele>
        <time>2018-08-13T13:18:32Z</time>
      </trkpt>
      <trkpt lat="40.585917" lon="-4.873700">
        <ele>2046.0</ele>
        <time>2018-08-13T13:18:33Z</time>
      </trkpt>
      <trkpt lat="40.586000" lon="-4.873600">
        <ele>2043.0</ele>
        <time>2018-08-13T13:18:34Z</time>
      </trkpt>
      <trkpt lat="40.586083" lon="-4.873517">
        <ele>2040.0</ele>
        <time>2018-08-13T13:18:35Z</time>
      </trkpt>
      <trkpt lat="40.586150" lon="-4.873417">
        <ele>2038.0</ele>
        <time>2018-08-13T13:18:36Z</time>
      </trkpt>
      <trkpt lat="40.586233" lon="-4.873317">
        <ele>2036.0</ele>
        <time>2018-08-13T13:18:37Z</time>
      </trkpt>
      <trkpt lat="40.586300" lon="-4.873217">
        <ele>2034.0</ele>
        <time>2018-08-13T13:18:38Z</time>
      </trkpt>
      <trkpt lat="40.586367" lon="-4.873133">
        <ele>2032.0</ele>
        <time>2018-08-13T13:18:39Z</time>
      </trkpt>
      <trkpt lat="40.586433" lon="-4.873050">
        <ele>2029.0</ele>
        <time>2018-08-13T13:18:40Z</time>
      </trkpt>
      <trkpt lat="40.586517" lon="-4.872967">
        <ele>2025.0</ele>
        <time>2018-08-13T13:18:41Z</time>
      </trkpt>
      <trkpt lat="40.586600" lon="-4.872867">
        <ele>2022.0</ele>
        <time>2018-08-13T13:18:42Z</time>
      </trkpt>
      <trkpt lat="40.586683" lon="-4.872750">
        <ele>2019.0</ele>
        <time>2018-08-13T13:18:43Z</time>
      </trkpt>
      <trkpt lat="40.586767" lon="-4.872633">
        <ele>2016.0</ele>
        <time>2018-08-13T13:18:44Z</time>
      </trkpt>
      <trkpt lat="40.586850" lon="-4.872517">
        <ele>2014.0</ele>
        <time>2018-08-13T13:18:45Z</time>
      </trkpt>
      <trkpt lat="40.586917" lon="-4.872400">
        <ele>2012.0</ele>
        <time>2018-08-13T13:18:46Z</time>
      </trkpt>
      <trkpt lat="40.587000" lon="-4.872283">
        <ele>2010.0</ele>
        <time>2018-08-13T13:18:47Z</time>
      </trkpt>
      <trkpt lat="40.587067" lon="-4.872167">
        <ele>2008.0</ele>
        <time>2018-08-13T13:18:48Z</time>
      </trkpt>
      <trkpt lat="40.587150" lon="-4.872050">
        <ele>2005.0</ele>
        <time>2018-08-13T13:18:49Z</time>
      </trkpt>
      <trkpt lat="40.587233" lon="-4.871917">
        <ele>2003.0</ele>
        <time>2018-08-13T13:18:50Z</time>
      </trkpt>
      <trkpt lat="40.587333" lon="-4.871783">
        <ele>2001.0</ele>
        <time>2018-08-13T13:18:51Z</time>
      </trkpt>
      <trkpt lat="40.587417" lon="-4.871650">
        <ele>2000.0</ele>
        <time>2018-08-13T13:18:52Z</time>
      </trkpt>
      <trkpt lat="40.587500" lon="-4.871517">
        <ele>1999.0</ele>
        <time>2018-08-13T13:18:53Z</time>
      </trkpt>
      <trkpt lat="40.587583" lon="-4.871400">
        <ele>1999.0</ele>
        <time>2018-08-13T13:18:54Z</time>
      </trkpt>
      <trkpt lat="40.587650" lon="-4.871267">
        <ele>1997.0</ele>
        <time>2018-08-13T13:18:55Z</time>
      </trkpt>
      <trkpt lat="40.587733" lon="-4.871133">
        <ele>1995.0</ele>
        <time>2018-08-13T13:18:56Z</time>
      </trkpt>
      <trkpt lat="40.587817" lon="-4.871000">
        <ele>1993.0</ele>
        <time>2018-08-13T13:18:57Z</time>
      </trkpt>
      <trkpt lat="40.587900" lon="-4.870867">
        <ele>1992.0</ele>
        <time>2018-08-13T13:18:58Z</time>
      </trkpt>
      <trkpt lat="40.587967" lon="-4.870733">
        <ele>1990.0</ele>
        <time>2018-08-13T13:18:59Z</time>
      </trkpt>
      <trkpt lat="40.588033" lon="-4.870600">
        <ele>1989.0</ele>
        <time>2018-08-13T13:19:00Z</time>
      </trkpt>
      <trkpt lat="40.588100" lon="-4.870450">
        <ele>1988.0</ele>
        <time>2018-08-13T13:19:01Z</time>
      </trkpt>
      <trkpt lat="40.588150" lon="-4.870300">
        <ele>1986.0</ele>
        <time>2018-08-13T13:19:02Z</time>
      </trkpt>
      <trkpt lat="40.588217" lon="-4.870167">
        <ele>1984.0</ele>
        <time>2018-08-13T13:19:03Z</time>
      </trkpt>
      <trkpt lat="40.588283" lon="-4.870017">
        <ele>1982.0</ele>
        <time>2018-08-13T13:19:04Z</time>
      </trkpt>
      <trkpt lat="40.588350" lon="-4.869867">
        <ele>1979.0</ele>
        <time>2018-08-13T13:19:05Z</time>
      </trkpt>
      <trkpt lat="40.588417" lon="-4.869717">
        <ele>1978.0</ele>
        <time>2018-08-13T13:19:06Z</time>
      </trkpt>
      <trkpt lat="40.588467" lon="-4.869583">
        <ele>1978.0</ele>
        <time>2018-08-13T13:19:07Z</time>
      </trkpt>
      <trkpt lat="40.588517" lon="-4.869450">
        <ele>1977.0</ele>
        <time>2018-08-13T13:19:08Z</time>
      </trkpt>
      <trkpt lat="40.588567" lon="-4.869317">
        <ele>1976.0</ele>
        <time>2018-08-13T13:19:09Z</time>
      </trkpt>
      <trkpt lat="40.588633" lon="-4.869183">
        <ele>1973.0</ele>
        <time>2018-08-13T13:19:10Z</time>
      </trkpt>
      <trkpt lat="40.588683" lon="-4.869050">
        <ele>1970.0</ele>
        <time>2018-08-13T13:19:11Z</time>
      </trkpt>
      <trkpt lat="40.588750" lon="-4.868917">
        <ele>1968.0</ele>
        <time>2018-08-13T13:19:12Z</time>
      </trkpt>
      <trkpt lat="40.588800" lon="-4.868783">
        <ele>1966.0</ele>
        <time>2018-08-13T13:19:13Z</time>
      </trkpt>
      <trkpt lat="40.588867" lon="-4.868633">
        <ele>1964.0</ele>
        <time>2018-08-13T13:19:14Z</time>
      </trkpt>
      <trkpt lat="40.588917" lon="-4.868500">
        <ele>1963.0</ele>
        <time>2018-08-13T13:19:15Z</time>
      </trkpt>
      <trkpt lat="40.588967" lon="-4.868350">
        <ele>1961.0</ele>
        <time>2018-08-13T13:19:16Z</time>
      </trkpt>
      <trkpt lat="40.589033" lon="-4.868200">
        <ele>1959.0</ele>
        <time>2018-08-13T13:19:17Z</time>
      </trkpt>
      <trkpt lat="40.589083" lon="-4.868067">
        <ele>1956.0</ele>
        <time>2018-08-13T13:19:18Z</time>
      </trkpt>
      <trkpt lat="40.589150" lon="-4.867917">
        <ele>1953.0</ele>
        <time>2018-08-13T13:19:19Z</time>
      </trkpt>
      <trkpt lat="40.589217" lon="-4.867767">
        <ele>1950.0</ele>
        <time>2018-08-13T13:19:20Z</time>
      </trkpt>
      <trkpt lat="40.589300" lon="-4.867633">
        <ele>1947.0</ele>
        <time>2018-08-13T13:19:21Z</time>
      </trkpt>
      <trkpt lat="40.589383" lon="-4.867517">
        <ele>1945.0</ele>
        <time>2018-08-13T13:19:22Z</time>
      </trkpt>
      <trkpt lat="40.589467" lon="-4.867400">
        <ele>1943.0</ele>
        <time>2018-08-13T13:19:23Z</time>
      </trkpt>
      <trkpt lat="40.589533" lon="-4.867283">
        <ele>1942.0</ele>
        <time>2018-08-13T13:19:24Z</time>
      </trkpt>
      <trkpt lat="40.589617" lon="-4.867183">
        <ele>1940.0</ele>
        <time>2018-08-13T13:19:25Z</time>
      </trkpt>
      <trkpt lat="40.589700" lon="-4.867067">
        <ele>1938.0</ele>
        <time>2018-08-13T13:19:26Z</time>
      </trkpt>
      <trkpt lat="40.589767" lon="-4.866967">
        <ele>1935.0</ele>
        <time>2018-08-13T13:19:27Z</time>
      </trkpt>
      <trkpt lat="40.589833" lon="-4.866833">
        <ele>1933.0</ele>
        <time>2018-08-13T13:19:28Z</time>
      </trkpt>
      <trkpt lat="40.589917" lon="-4.866717">
        <ele>1930.0</ele>
        <time>2018-08-13T13:19:29Z</time>
      </trkpt>
      <trkpt lat="40.590000" lon="-4.866583">
        <ele>1928.0</ele>
        <time>2018-08-13T13:19:30Z</time>
      </trkpt>
      <trkpt lat="40.590083" lon="-4.866467">
        <ele>1927.0</ele>
        <time>2018-08-13T13:19:31Z</time>
      </trkpt>
      <trkpt lat="40.590150" lon="-4.866367">
        <ele>1925.0</ele>
        <time>2018-08-13T13:19:32Z</time>
      </trkpt>
      <trkpt lat="40.590233" lon="-4.866283">
        <ele>1923.0</ele>
        <time>2018-08-13T13:19:33Z</time>
      </trkpt>
      <trkpt lat="40.590317" lon="-4.866183">
        <ele>1921.0</ele>
        <time>2018-08-13T13:19:34Z</time>
      </trkpt>
      <trkpt lat="40.590383" lon="-4.866067">
        <ele>1918.0</ele>
        <time>2018-08-13T13:19:35Z</time>
      </trkpt>
      <trkpt lat="40.590467" lon="-4.865950">
        <ele>1915.0</ele>
        <time>2018-08-13T13:19:36Z</time>
      </trkpt>
      <trkpt lat="40.590533" lon="-4.865833">
        <ele>1914.0</ele>
        <time>2018-08-13T13:19:37Z</time>
      </trkpt>
      <trkpt lat="40.590600" lon="-4.865700">
        <ele>1913.0</ele>
        <time>2018-08-13T13:19:38Z</time>
      </trkpt>
      <trkpt lat="40.590667" lon="-4.865583">
        <ele>1911.0</ele>
        <time>2018-08-13T13:19:39Z</time>
      </trkpt>
      <trkpt lat="40.590750" lon="-4.865450">
        <ele>1909.0</ele>
        <time>2018-08-13T13:19:40Z</time>
      </trkpt>
      <trkpt lat="40.590817" lon="-4.865333">
        <ele>1907.0</ele>
        <time>2018-08-13T13:19:41Z</time>
      </trkpt>
      <trkpt lat="40.590900" lon="-4.865200">
        <ele>1905.0</ele>
        <time>2018-08-13T13:19:42Z</time>
      </trkpt>
      <trkpt lat="40.590983" lon="-4.865083">
        <ele>1903.0</ele>
        <time>2018-08-13T13:19:43Z</time>
      </trkpt>
      <trkpt lat="40.591067" lon="-4.864967">
        <ele>1902.0</ele>
        <time>2018-08-13T13:19:44Z</time>
      </trkpt>
      <trkpt lat="40.591150" lon="-4.864867">
        <ele>1899.0</ele>
        <time>2018-08-13T13:19:45Z</time>
      </trkpt>
      <trkpt lat="40.591233" lon="-4.864733">
        <ele>1897.0</ele>
        <time>2018-08-13T13:19:46Z</time>
      </trkpt>
      <trkpt lat="40.591300" lon="-4.864617">
        <ele>1894.0</ele>
        <time>2018-08-13T13:19:47Z</time>
      </trkpt>
      <trkpt lat="40.591383" lon="-4.864483">
        <ele>1891.0</ele>
        <time>2018-08-13T13:19:48Z</time>
      </trkpt>
      <trkpt lat="40.591467" lon="-4.864350">
        <ele>1889.0</ele>
        <time>2018-08-13T13:19:49Z</time>
      </trkpt>
      <trkpt lat="40.591533" lon="-4.864200">
        <ele>1887.0</ele>
        <time>2018-08-13T13:19:50Z</time>
      </trkpt>
      <trkpt lat="40.591600" lon="-4.864067">
        <ele>1884.0</ele>
        <time>2018-08-13T13:19:51Z</time>
      </trkpt>
      <trkpt lat="40.591667" lon="-4.863917">
        <ele>1882.0</ele>
        <time>2018-08-13T13:19:52Z</time>
      </trkpt>
      <trkpt lat="40.591733" lon="-4.863767">
        <ele>1879.0</ele>
        <time>2018-08-13T13:19:53Z</time>
      </trkpt>
      <trkpt lat="40.591800" lon="-4.863600">
        <ele>1876.0</ele>
        <time>2018-08-13T13:19:54Z</time>
      </trkpt>
      <trkpt lat="40.591867" lon="-4.863433">
        <ele>1873.0</ele>
        <time>2018-08-13T13:19:55Z</time>
      </trkpt>
      <trkpt lat="40.591933" lon="-4.863267">
        <ele>1872.0</ele>
        <time>2018-08-13T13:19:56Z</time>
      </trkpt>
      <trkpt lat="40.591983" lon="-4.863100">
        <ele>1871.0</ele>
        <time>2018-08-13T13:19:57Z</time>
      </trkpt>
      <trkpt lat="40.592017" lon="-4.862933">
        <ele>1871.0</ele>
        <time>2018-08-13T13:19:58Z</time>
      </trkpt>
      <trkpt lat="40.592067" lon="-4.862783">
        <ele>1870.0</ele>
        <time>2018-08-13T13:19:59Z</time>
      </trkpt>
      <trkpt lat="40.592100" lon="-4.862633">
        <ele>1869.0</ele>
        <time>2018-08-13T13:20:00Z</time>
      </trkpt>
      <trkpt lat="40.592150" lon="-4.862500">
        <ele>1866.0</ele>
        <time>2018-08-13T13:20:01Z</time>
      </trkpt>
      <trkpt lat="40.592217" lon="-4.862367">
        <ele>1863.0</ele>
        <time>2018-08-13T13:20:02Z</time>
      </trkpt>
      <trkpt lat="40.592283" lon="-4.862233">
        <ele>1860.0</ele>
        <time>2018-08-13T13:20:03Z</time>
      </trkpt>
      <trkpt lat="40.592333" lon="-4.862083">
        <ele>1858.0</ele>
        <time>2018-08-13T13:20:04Z</time>
      </trkpt>
      <trkpt lat="40.592400" lon="-4.861933">
        <ele>1856.0</ele>
        <time>2018-08-13T13:20:05Z</time>
      </trkpt>
      <trkpt lat="40.592450" lon="-4.861783">
        <ele>1854.0</ele>
        <time>2018-08-13T13:20:06Z</time>
      </trkpt>
      <trkpt lat="40.592500" lon="-4.861633">
        <ele>1852.0</ele>
        <time>2018-08-13T13:20:07Z</time>
      </trkpt>
      <trkpt lat="40.592567" lon="-4.861500">
        <ele>1850.0</ele>
        <time>2018-08-13T13:20:08Z</time>
      </trkpt>
      <trkpt lat="40.592633" lon="-4.861367">
        <ele>1848.0</ele>
        <time>2018-08-13T13:20:09Z</time>
      </trkpt>
      <trkpt lat="40.592700" lon="-4.861233">
        <ele>1846.0</ele>
        <time>2018-08-13T13:20:10Z</time>
      </trkpt>
      <trkpt lat="40.592750" lon="-4.861100">
        <ele>1844.0</ele>
        <time>2018-08-13T13:20:11Z</time>
      </trkpt>
      <trkpt lat="40.592800" lon="-4.860950">
        <ele>1843.0</ele>
        <time>2018-08-13T13:20:12Z</time>
      </trkpt>
      <trkpt lat="40.592850" lon="-4.860817">
        <ele>1841.0</ele>
        <time>2018-08-13T13:20:13Z</time>
      </trkpt>
      <trkpt lat="40.592900" lon="-4.860667">
        <ele>1839.0</ele>
        <time>2018-08-13T13:20:14Z</time>
      </trkpt>
      <trkpt lat="40.592967" lon="-4.860533">
        <ele>1836.0</ele>
        <time>2018-08-13T13:20:15Z</time>
      </trkpt>
      <trkpt lat="40.593017" lon="-4.860400">
        <ele>1834.0</ele>
        <time>2018-08-13T13:20:16Z</time>
      </trkpt>
      <trkpt lat="40.593100" lon="-4.860267">
        <ele>1832.0</ele>
        <time>2018-08-13T13:20:17Z</time>
      </trkpt>
      <trkpt lat="40.593167" lon="-4.860150">
        <ele>1830.0</ele>
        <time>2018-08-13T13:20:18Z</time>
      </trkpt>
      <trkpt lat="40.593233" lon="-4.860033">
        <ele>1829.0</ele>
        <time>2018-08-13T13:20:19Z</time>
      </trkpt>
      <trkpt lat="40.593283" lon="-4.859933">
        <ele>1827.0</ele>
        <time>2018-08-13T13:20:20Z</time>
      </trkpt>
      <trkpt lat="40.593350" lon="-4.859817">
        <ele>1826.0</ele>
        <time>2018-08-13T13:20:21Z</time>
      </trkpt>
      <trkpt lat="40.593417" lon="-4.859717">
        <ele>1824.0</ele>
        <time>2018-08-13T13:20:22Z</time>
      </trkpt>
      <trkpt lat="40.593483" lon="-4.859600">
        <ele>1823.0</ele>
        <time>2018-08-13T13:20:23Z</time>
      </trkpt>
      <trkpt lat="40.593550" lon="-4.859500">
        <ele>1821.0</ele>
        <time>2018-08-13T13:20:24Z</time>
      </trkpt>
      <trkpt lat="40.593617" lon="-4.859383">
        <ele>1819.0</ele>
        <time>2018-08-13T13:20:25Z</time>
      </trkpt>
      <trkpt lat="40.593683" lon="-4.859283">
        <ele>1817.0</ele>
        <time>2018-08-13T13:20:26Z</time>
      </trkpt>
      <trkpt lat="40.593750" lon="-4.859167">
        <ele>1816.0</ele>
        <time>2018-08-13T13:20:27Z</time>
      </trkpt>
      <trkpt lat="40.593817" lon="-4.859050">
        <ele>1814.0</ele>
        <time>2018-08-13T13:20:28Z</time>
      </trkpt>
      <trkpt lat="40.593883" lon="-4.858917">
        <ele>1813.0</ele>
        <time>2018-08-13T13:20:29Z</time>
      </trkpt>
      <trkpt lat="40.593950" lon="-4.858800">
        <ele>1812.0</ele>
        <time>2018-08-13T13:20:30Z</time>
      </trkpt>
      <trkpt lat="40.594017" lon="-4.858683">
        <ele>1812.0</ele>
        <time>2018-08-13T13:20:31Z</time>
      </trkpt>
      <trkpt lat="40.594083" lon="-4.858550">
        <ele>1811.0</ele>
        <time>2018-08-13T13:20:32Z</time>
      </trkpt>
      <trkpt lat="40.594133" lon="-4.858417">
        <ele>1811.0</ele>
        <time>2018-08-13T13:20:33Z</time>
      </trkpt>
      <trkpt lat="40.594183" lon="-4.858300">
        <ele>1810.0</ele>
        <time>2018-08-13T13:20:34Z</time>
      </trkpt>
      <trkpt lat="40.594233" lon="-4.858150">
        <ele>1808.0</ele>
        <time>2018-08-13T13:20:35Z</time>
      </trkpt>
      <trkpt lat="40.594300" lon="-4.858000">
        <ele>1807.0</ele>
        <time>2018-08-13T13:20:36Z</time>
      </trkpt>
      <trkpt lat="40.594350" lon="-4.857850">
        <ele>1805.0</ele>
        <time>2018-08-13T13:20:37Z</time>
      </trkpt>
      <trkpt lat="40.594400" lon="-4.857717">
        <ele>1804.0</ele>
        <time>2018-08-13T13:20:38Z</time>
      </trkpt>
      <trkpt lat="40.594467" lon="-4.857600">
        <ele>1803.0</ele>
        <time>2018-08-13T13:20:39Z</time>
      </trkpt>
      <trkpt lat="40.594533" lon="-4.857483">
        <ele>1801.0</ele>
        <time>2018-08-13T13:20:40Z</time>
      </trkpt>
      <trkpt lat="40.594583" lon="-4.857350">
        <ele>1799.0</ele>
        <time>2018-08-13T13:20:41Z</time>
      </trkpt>
      <trkpt lat="40.594633" lon="-4.857217">
        <ele>1796.0</ele>
        <time>2018-08-13T13:20:42Z</time>
      </trkpt>
      <trkpt lat="40.594683" lon="-4.857067">
        <ele>1793.0</ele>
        <time>2018-08-13T13:20:43Z</time>
      </trkpt>
      <trkpt lat="40.594750" lon="-4.856917">
        <ele>1790.0</ele>
        <time>2018-08-13T13:20:44Z</time>
      </trkpt>
      <trkpt lat="40.594817" lon="-4.856783">
        <ele>1788.0</ele>
        <time>2018-08-13T13:20:45Z</time>
      </trkpt>
      <trkpt lat="40.594867" lon="-4.856633">
        <ele>1787.0</ele>
        <time>2018-08-13T13:20:46Z</time>
      </trkpt>
      <trkpt lat="40.594917" lon="-4.856500">
        <ele>1785.0</ele>
        <time>2018-08-13T13:20:47Z</time>
      </trkpt>
      <trkpt lat="40.594967" lon="-4.856367">
        <ele>1783.0</ele>
        <time>2018-08-13T13:20:48Z</time>
      </trkpt>
      <trkpt lat="40.595033" lon="-4.856217">
        <ele>1781.0</ele>
        <time>2018-08-13T13:20:49Z</time>
      </trkpt>
      <trkpt lat="40.595083" lon="-4.856083">
        <ele>1779.0</ele>
        <time>2018-08-13T13:20:50Z</time>
      </trkpt>
      <trkpt lat="40.595150" lon="-4.855933">
        <ele>1777.0</ele>
        <time>2018-08-13T13:20:51Z</time>
      </trkpt>
      <trkpt lat="40.595200" lon="-4.855800">
        <ele>1776.0</ele>
        <time>2018-08-13T13:20:52Z</time>
      </trkpt>
      <trkpt lat="40.595267" lon="-4.855667">
        <ele>1774.0</ele>
        <time>2018-08-13T13:20:53Z</time>
      </trkpt>
      <trkpt lat="40.595317" lon="-4.855533">
        <ele>1773.0</ele>
        <time>2018-08-13T13:20:54Z</time>
      </trkpt>
      <trkpt lat="40.595367" lon="-4.855417">
        <ele>1770.0</ele>
        <time>2018-08-13T13:20:55Z</time>
      </trkpt>
      <trkpt lat="40.595417" lon="-4.855267">
        <ele>1768.0</ele>
        <time>2018-08-13T13:20:56Z</time>
      </trkpt>
      <trkpt lat="40.595483" lon="-4.855133">
        <ele>1765.0</ele>
        <time>2018-08-13T13:20:57Z</time>
      </trkpt>
      <trkpt lat="40.595567" lon="-4.855000">
        <ele>1762.0</ele>
        <time>2018-08-13T13:20:58Z</time>
      </trkpt>
      <trkpt lat="40.595650" lon="-4.854883">
        <ele>1760.0</ele>
        <time>2018-08-13T13:20:59Z</time>
      </trkpt>
      <trkpt lat="40.595733" lon="-4.854767">
        <ele>1758.0</ele>
        <time>2018-08-13T13:21:00Z</time>
      </trkpt>
      <trkpt lat="40.595817" lon="-4.854667">
        <ele>1756.0</ele>
        <time>2018-08-13T13:21:01Z</time>
      </trkpt>
      <trkpt lat="40.595900" lon="-4.854550">
        <ele>1753.0</ele>
        <time>2018-08-13T13:21:02Z</time>
      </trkpt>
      <trkpt lat="40.595983" lon="-4.854433">
        <ele>1751.0</ele>
        <time>2018-08-13T13:21:03Z</time>
      </trkpt>
      <trkpt lat="40.596067" lon="-4.854300">
        <ele>1749.0</ele>
        <time>2018-08-13T13:21:04Z</time>
      </trkpt>
      <trkpt lat="40.596150" lon="-4.854167">
        <ele>1748.0</ele>
        <time>2018-08-13T13:21:05Z</time>
      </trkpt>
      <trkpt lat="40.596233" lon="-4.854067">
        <ele>1748.0</ele>
        <time>2018-08-13T13:21:06Z</time>
      </trkpt>
      <trkpt lat="40.596317" lon="-4.853950">
        <ele>1747.0</ele>
        <time>2018-08-13T13:21:07Z</time>
      </trkpt>
      <trkpt lat="40.596383" lon="-4.853833">
        <ele>1745.0</ele>
        <time>2018-08-13T13:21:08Z</time>
      </trkpt>
      <trkpt lat="40.596467" lon="-4.853717">
        <ele>1742.0</ele>
        <time>2018-08-13T13:21:09Z</time>
      </trkpt>
      <trkpt lat="40.596567" lon="-4.853617">
        <ele>1740.0</ele>
        <time>2018-08-13T13:21:10Z</time>
      </trkpt>
      <trkpt lat="40.596667" lon="-4.853500">
        <ele>1739.0</ele>
        <time>2018-08-13T13:21:11Z</time>
      </trkpt>
      <trkpt lat="40.596767" lon="-4.853400">
        <ele>1738.0</ele>
        <time>2018-08-13T13:21:12Z</time>
      </trkpt>
      <trkpt lat="40.596850" lon="-4.853283">
        <ele>1737.0</ele>
        <time>2018-08-13T13:21:13Z</time>
      </trkpt>
      <trkpt lat="40.596917" lon="-4.853167">
        <ele>1736.0</ele>
        <time>2018-08-13T13:21:14Z</time>
      </trkpt>
      <trkpt lat="40.597000" lon="-4.853050">
        <ele>1734.0</ele>
        <time>2018-08-13T13:21:15Z</time>
      </trkpt>
      <trkpt lat="40.597083" lon="-4.852933">
        <ele>1732.0</ele>
        <time>2018-08-13T13:21:16Z</time>
      </trkpt>
      <trkpt lat="40.597183" lon="-4.852817">
        <ele>1729.0</ele>
        <time>2018-08-13T13:21:17Z</time>
      </trkpt>
      <trkpt lat="40.597267" lon="-4.852700">
        <ele>1727.0</ele>
        <time>2018-08-13T13:21:18Z</time>
      </trkpt>
      <trkpt lat="40.597350" lon="-4.852583">
        <ele>1725.0</ele>
        <time>2018-08-13T13:21:19Z</time>
      </trkpt>
      <trkpt lat="40.597433" lon="-4.852467">
        <ele>1722.0</ele>
        <time>2018-08-13T13:21:20Z</time>
      </trkpt>
      <trkpt lat="40.597533" lon="-4.852350">
        <ele>1720.0</ele>
        <time>2018-08-13T13:21:21Z</time>
      </trkpt>
      <trkpt lat="40.597617" lon="-4.852233">
        <ele>1718.0</ele>
        <time>2018-08-13T13:21:22Z</time>
      </trkpt>
      <trkpt lat="40.597700" lon="-4.852117">
        <ele>1716.0</ele>
        <time>2018-08-13T13:21:23Z</time>
      </trkpt>
      <trkpt lat="40.597783" lon="-4.851983">
        <ele>1714.0</ele>
        <time>2018-08-13T13:21:24Z</time>
      </trkpt>
      <trkpt lat="40.597867" lon="-4.851867">
        <ele>1712.0</ele>
        <time>2018-08-13T13:21:25Z</time>
      </trkpt>
      <trkpt lat="40.597933" lon="-4.851733">
        <ele>1709.0</ele>
        <time>2018-08-13T13:21:26Z</time>
      </trkpt>
      <trkpt lat="40.598017" lon="-4.851600">
        <ele>1707.0</ele>
        <time>2018-08-13T13:21:27Z</time>
      </trkpt>
      <trkpt lat="40.598100" lon="-4.851467">
        <ele>1706.0</ele>
        <time>2018-08-13T13:21:28Z</time>
      </trkpt>
      <trkpt lat="40.598183" lon="-4.851350">
        <ele>1704.0</ele>
        <time>2018-08-13T13:21:29Z</time>
      </trkpt>
      <trkpt lat="40.598250" lon="-4.851217">
        <ele>1703.0</ele>
        <time>2018-08-13T13:21:30Z</time>
      </trkpt>
      <trkpt lat="40.598333" lon="-4.851100">
        <ele>1702.0</ele>
        <time>2018-08-13T13:21:31Z</time>
      </trkpt>
      <trkpt lat="40.598400" lon="-4.850983">
        <ele>1699.0</ele>
        <time>2018-08-13T13:21:32Z</time>
      </trkpt>
      <trkpt lat="40.598483" lon="-4.850850">
        <ele>1697.0</ele>
        <time>2018-08-13T13:21:33Z</time>
      </trkpt>
      <trkpt lat="40.598567" lon="-4.850717">
        <ele>1694.0</ele>
        <time>2018-08-13T13:21:34Z</time>
      </trkpt>
      <trkpt lat="40.598633" lon="-4.850567">
        <ele>1692.0</ele>
        <time>2018-08-13T13:21:35Z</time>
      </trkpt>
      <trkpt lat="40.598717" lon="-4.850450">
        <ele>1690.0</ele>
        <time>2018-08-13T13:21:36Z</time>
      </trkpt>
      <trkpt lat="40.598800" lon="-4.850317">
        <ele>1688.0</ele>
        <time>2018-08-13T13:21:37Z</time>
      </trkpt>
      <trkpt lat="40.598883" lon="-4.850183">
        <ele>1686.0</ele>
        <time>2018-08-13T13:21:38Z</time>
      </trkpt>
      <trkpt lat="40.598950" lon="-4.850033">
        <ele>1684.0</ele>
        <time>2018-08-13T13:21:39Z</time>
      </trkpt>
      <trkpt lat="40.599033" lon="-4.849883">
        <ele>1682.0</ele>
        <time>2018-08-13T13:21:40Z</time>
      </trkpt>
      <trkpt lat="40.599100" lon="-4.849750">
        <ele>1680.0</ele>
        <time>2018-08-13T13:21:41Z</time>
      </trkpt>
      <trkpt lat="40.599183" lon="-4.849617">
        <ele>1679.0</ele>
        <time>2018-08-13T13:21:42Z</time>
      </trkpt>
      <trkpt lat="40.599250" lon="-4.849467">
        <ele>1677.0</ele>
        <time>2018-08-13T13:21:43Z</time>
      </trkpt>
      <trkpt lat="40.599333" lon="-4.849333">
        <ele>1675.0</ele>
        <time>2018-08-13T13:21:44Z</time>
      </trkpt>
      <trkpt lat="40.599400" lon="-4.849200">
        <ele>1673.0</ele>
        <time>2018-08-13T13:21:45Z</time>
      </trkpt>
      <trkpt lat="40.599483" lon="-4.849050">
        <ele>1671.0</ele>
        <time>2018-08-13T13:21:46Z</time>
      </trkpt>
      <trkpt lat="40.599567" lon="-4.848917">
        <ele>1669.0</ele>
        <time>2018-08-13T13:21:47Z</time>
      </trkpt>
      <trkpt lat="40.599633" lon="-4.848783">
        <ele>1668.0</ele>
        <time>2018-08-13T13:21:48Z</time>
      </trkpt>
      <trkpt lat="40.599733" lon="-4.848650">
        <ele>1668.0</ele>
        <time>2018-08-13T13:21:49Z</time>
      </trkpt>
      <trkpt lat="40.599800" lon="-4.848533">
        <ele>1669.0</ele>
        <time>2018-08-13T13:21:50Z</time>
      </trkpt>
      <trkpt lat="40.599883" lon="-4.848417">
        <ele>1670.0</ele>
        <time>2018-08-13T13:21:51Z</time>
      </trkpt>
      <trkpt lat="40.599950" lon="-4.848317">
        <ele>1672.0</ele>
        <time>2018-08-13T13:21:52Z</time>
      </trkpt>
      <trkpt lat="40.600017" lon="-4.848200">
        <ele>1673.0</ele>
        <time>2018-08-13T13:21:53Z</time>
      </trkpt>
      <trkpt lat="40.600083" lon="-4.848083">
        <ele>1675.0</ele>
        <time>2018-08-13T13:21:54Z</time>
      </trkpt>
      <trkpt lat="40.600150" lon="-4.847950">
        <ele>1677.0</ele>
        <time>2018-08-13T13:21:55Z</time>
      </trkpt>
      <trkpt lat="40.600233" lon="-4.847850">
        <ele>1679.0</ele>
        <time>2018-08-13T13:21:56Z</time>
      </trkpt>
      <trkpt lat="40.600317" lon="-4.847750">
        <ele>1681.0</ele>
        <time>2018-08-13T13:21:57Z</time>
      </trkpt>
      <trkpt lat="40.600383" lon="-4.847717">
        <ele>1682.0</ele>
        <time>2018-08-13T13:21:58Z</time>
      </trkpt>
      <trkpt lat="40.600433" lon="-4.847717">
        <ele>1683.0</ele>
        <time>2018-08-13T13:21:59Z</time>
      </trkpt>
      <trkpt lat="40.600467" lon="-4.847767">
        <ele>1683.0</ele>
        <time>2018-08-13T13:22:00Z</time>
      </trkpt>
      <trkpt lat="40.600467" lon="-4.847833">
        <ele>1683.0</ele>
        <time>2018-08-13T13:22:01Z</time>
      </trkpt>
      <trkpt lat="40.600433" lon="-4.847917">
        <ele>1685.0</ele>
        <time>2018-08-13T13:22:02Z</time>
      </trkpt>
      <trkpt lat="40.600367" lon="-4.847967">
        <ele>1686.0</ele>
        <time>2018-08-13T13:22:03Z</time>
      </trkpt>
      <trkpt lat="40.600283" lon="-4.847983">
        <ele>1687.0</ele>
        <time>2018-08-13T13:22:04Z</time>
      </trkpt>
      <trkpt lat="40.600167" lon="-4.847967">
        <ele>1688.0</ele>
        <time>2018-08-13T13:22:05Z</time>
      </trkpt>
      <trkpt lat="40.600050" lon="-4.847917">
        <ele>1689.0</ele>
        <time>2018-08-13T13:22:06Z</time>
      </trkpt>
      <trkpt lat="40.599933" lon="-4.847833">
        <ele>1691.0</ele>
        <time>2018-08-13T13:22:07Z</time>
      </trkpt>
      <trkpt lat="40.599850" lon="-4.847750">
        <ele>1695.0</ele>
        <time>2018-08-13T13:22:08Z</time>
      </trkpt>
      <trkpt lat="40.599767" lon="-4.847650">
        <ele>1698.0</ele>
        <time>2018-08-13T13:22:09Z</time>
      </trkpt>
      <trkpt lat="40.599700" lon="-4.847550">
        <ele>1699.0</ele>
        <time>2018-08-13T13:22:10Z</time>
      </trkpt>
      <trkpt lat="40.599617" lon="-4.847467">
        <ele>1699.0</ele>
        <time>2018-08-13T13:22:11Z</time>
      </trkpt>
      <trkpt lat="40.599533" lon="-4.847383">
        <ele>1698.0</ele>
        <time>2018-08-13T13:22:12Z</time>
      </trkpt>
      <trkpt lat="40.599433" lon="-4.847300">
        <ele>1697.0</ele>
        <time>2018-08-13T13:22:13Z</time>
      </trkpt>
      <trkpt lat="40.599333" lon="-4.847183">
        <ele>1696.0</ele>
        <time>2018-08-13T13:22:14Z</time>
      </trkpt>
      <trkpt lat="40.599250" lon="-4.847033">
        <ele>1695.0</ele>
        <time>2018-08-13T13:22:15Z</time>
      </trkpt>
      <trkpt lat="40.599200" lon="-4.846850">
        <ele>1694.0</ele>
        <time>2018-08-13T13:22:16Z</time>
      </trkpt>
      <trkpt lat="40.599200" lon="-4.846650">
        <ele>1692.0</ele>
        <time>2018-08-13T13:22:17Z</time>
      </trkpt>
      <trkpt lat="40.599217" lon="-4.846467">
        <ele>1690.0</ele>
        <time>2018-08-13T13:22:18Z</time>
      </trkpt>
      <trkpt lat="40.599267" lon="-4.846283">
        <ele>1689.0</ele>
        <time>2018-08-13T13:22:19Z</time>
      </trkpt>
      <trkpt lat="40.599350" lon="-4.846100">
        <ele>1688.0</ele>
        <time>2018-08-13T13:22:20Z</time>
      </trkpt>
      <trkpt lat="40.599417" lon="-4.845967">
        <ele>1688.0</ele>
        <time>2018-08-13T13:22:21Z</time>
      </trkpt>
      <trkpt lat="40.599517" lon="-4.845833">
        <ele>1688.0</ele>
        <time>2018-08-13T13:22:22Z</time>
      </trkpt>
      <trkpt lat="40.599600" lon="-4.845733">
        <ele>1690.0</ele>
        <time>2018-08-13T13:22:23Z</time>
      </trkpt>
      <trkpt lat="40.599683" lon="-4.845633">
        <ele>1692.0</ele>
        <time>2018-08-13T13:22:24Z</time>
      </trkpt>
      <trkpt lat="40.599767" lon="-4.845533">
        <ele>1694.0</ele>
        <time>2018-08-13T13:22:25Z</time>
      </trkpt>
      <trkpt lat="40.599833" lon="-4.845433">
        <ele>1696.0</ele>
        <time>2018-08-13T13:22:26Z</time>
      </trkpt>
      <trkpt lat="40.599900" lon="-4.845300">
        <ele>1697.0</ele>
        <time>2018-08-13T13:22:27Z</time>
      </trkpt>
      <trkpt lat="40.599967" lon="-4.845183">
        <ele>1697.0</ele>
        <time>2018-08-13T13:22:28Z</time>
      </trkpt>
      <trkpt lat="40.600050" lon="-4.845050">
        <ele>1698.0</ele>
        <time>2018-08-13T13:22:29Z</time>
      </trkpt>
      <trkpt lat="40.600117" lon="-4.844950">
        <ele>1699.0</ele>
        <time>2018-08-13T13:22:30Z</time>
      </trkpt>
      <trkpt lat="40.600183" lon="-4.844867">
        <ele>1700.0</ele>
        <time>2018-08-13T13:22:31Z</time>
      </trkpt>
      <trkpt lat="40.600250" lon="-4.844800">
        <ele>1699.0</ele>
        <time>2018-08-13T13:22:32Z</time>
      </trkpt>
      <trkpt lat="40.600300" lon="-4.844767">
        <ele>1696.0</ele>
        <time>2018-08-13T13:22:33Z</time>
      </trkpt>
      <trkpt lat="40.600367" lon="-4.844750">
        <ele>1693.0</ele>
        <time>2018-08-13T13:22:34Z</time>
      </trkpt>
      <trkpt lat="40.600433" lon="-4.844733">
        <ele>1689.0</ele>
        <time>2018-08-13T13:22:35Z</time>
      </trkpt>
      <trkpt lat="40.600517" lon="-4.844683">
        <ele>1685.0</ele>
        <time>2018-08-13T13:22:36Z</time>
      </trkpt>
      <trkpt lat="40.600617" lon="-4.844600">
        <ele>1682.0</ele>
        <time>2018-08-13T13:22:37Z</time>
      </trkpt>
      <trkpt lat="40.600700" lon="-4.844467">
        <ele>1680.0</ele>
        <time>2018-08-13T13:22:38Z</time>
      </trkpt>
      <trkpt lat="40.600750" lon="-4.844300">
        <ele>1678.0</ele>
        <time>2018-08-13T13:22:39Z</time>
      </trkpt>
      <trkpt lat="40.600783" lon="-4.844117">
        <ele>1676.0</ele>
        <time>2018-08-13T13:22:40Z</time>
      </trkpt>
      <trkpt lat="40.600783" lon="-4.843950">
        <ele>1675.0</ele>
        <time>2018-08-13T13:22:41Z</time>
      </trkpt>
      <trkpt lat="40.600767" lon="-4.843800">
        <ele>1674.0</ele>
        <time>2018-08-13T13:22:42Z</time>
      </trkpt>
      <trkpt lat="40.600733" lon="-4.843650">
        <ele>1671.0</ele>
        <time>2018-08-13T13:22:43Z</time>
      </trkpt>
      <trkpt lat="40.600683" lon="-4.843517">
        <ele>1668.0</ele>
        <time>2018-08-13T13:22:44Z</time>
      </trkpt>
      <trkpt lat="40.600633" lon="-4.843367">
        <ele>1664.0</ele>
        <time>2018-08-13T13:22:45Z</time>
      </trkpt>
      <trkpt lat="40.600567" lon="-4.843217">
        <ele>1660.0</ele>
        <time>2018-08-13T13:22:46Z</time>
      </trkpt>
      <trkpt lat="40.600483" lon="-4.843083">
        <ele>1655.0</ele>
        <time>2018-08-13T13:22:47Z</time>
      </trkpt>
      <trkpt lat="40.600383" lon="-4.842967">
        <ele>1652.0</ele>
        <time>2018-08-13T13:22:48Z</time>
      </trkpt>
      <trkpt lat="40.600283" lon="-4.842867">
        <ele>1649.0</ele>
        <time>2018-08-13T13:22:49Z</time>
      </trkpt>
      <trkpt lat="40.600167" lon="-4.842800">
        <ele>1646.0</ele>
        <time>2018-08-13T13:22:50Z</time>
      </trkpt>
      <trkpt lat="40.600067" lon="-4.842750">
        <ele>1643.0</ele>
        <time>2018-08-13T13:22:51Z</time>
      </trkpt>
      <trkpt lat="40.599967" lon="-4.842733">
        <ele>1640.0</ele>
        <time>2018-08-13T13:22:52Z</time>
      </trkpt>
      <trkpt lat="40.599867" lon="-4.842733">
        <ele>1637.0</ele>
        <time>2018-08-13T13:22:53Z</time>
      </trkpt>
      <trkpt lat="40.599783" lon="-4.842767">
        <ele>1635.0</ele>
        <time>2018-08-13T13:22:54Z</time>
      </trkpt>
      <trkpt lat="40.599700" lon="-4.842817">
        <ele>1633.0</ele>
        <time>2018-08-13T13:22:55Z</time>
      </trkpt>
      <trkpt lat="40.599633" lon="-4.842867">
        <ele>1631.0</ele>
        <time>2018-08-13T13:22:56Z</time>
      </trkpt>
      <trkpt lat="40.599583" lon="-4.842900">
        <ele>1629.0</ele>
        <time>2018-08-13T13:22:57Z</time>
      </trkpt>
      <trkpt lat="40.599533" lon="-4.842950">
        <ele>1627.0</ele>
        <time>2018-08-13T13:22:58Z</time>
      </trkpt>
      <trkpt lat="40.599517" lon="-4.843017">
        <ele>1624.0</ele>
        <time>2018-08-13T13:22:59Z</time>
      </trkpt>
      <trkpt lat="40.599517" lon="-4.843083">
        <ele>1620.0</ele>
        <time>2018-08-13T13:23:00Z</time>
      </trkpt>
      <trkpt lat="40.599533" lon="-4.843133">
        <ele>1617.0</ele>
        <time>2018-08-13T13:23:01Z</time>
      </trkpt>
      <trkpt lat="40.599567" lon="-4.843183">
        <ele>1616.0</ele>
        <time>2018-08-13T13:23:02Z</time>
      </trkpt>
      <trkpt lat="40.599617" lon="-4.843233">
        <ele>1614.0</ele>
        <time>2018-08-13T13:23:03Z</time>
      </trkpt>
      <trkpt lat="40.599650" lon="-4.843267">
        <ele>1613.0</ele>
        <time>2018-08-13T13:23:04Z</time>
      </trkpt>
      <trkpt lat="40.599700" lon="-4.843300">
        <ele>1612.0</ele>
        <time>2018-08-13T13:23:05Z</time>
      </trkpt>
      <trkpt lat="40.599767" lon="-4.843317">
        <ele>1610.0</ele>
        <time>2018-08-13T13:23:06Z</time>
      </trkpt>
      <trkpt lat="40.599850" lon="-4.843317">
        <ele>1607.0</ele>
        <time>2018-08-13T13:23:07Z</time>
      </trkpt>
      <trkpt lat="40.599933" lon="-4.843317">
        <ele>1605.0</ele>
        <time>2018-08-13T13:23:08Z</time>
      </trkpt>
      <trkpt lat="40.600017" lon="-4.843300">
        <ele>1603.0</ele>
        <time>2018-08-13T13:23:09Z</time>
      </trkpt>
      <trkpt lat="40.600100" lon="-4.843267">
        <ele>1602.0</ele>
        <time>2018-08-13T13:23:10Z</time>
      </trkpt>
      <trkpt lat="40.600183" lon="-4.843233">
        <ele>1601.0</ele>
        <time>2018-08-13T13:23:11Z</time>
      </trkpt>
      <trkpt lat="40.600267" lon="-4.843233">
        <ele>1600.0</ele>
        <time>2018-08-13T13:23:12Z</time>
      </trkpt>
      <trkpt lat="40.600333" lon="-4.843200">
        <ele>1598.0</ele>
        <time>2018-08-13T13:23:13Z</time>
      </trkpt>
      <trkpt lat="40.600417" lon="-4.843150">
        <ele>1596.0</ele>
        <time>2018-08-13T13:23:14Z</time>
      </trkpt>
      <trkpt lat="40.600500" lon="-4.843100">
        <ele>1593.0</ele>
        <time>2018-08-13T13:23:15Z</time>
      </trkpt>
      <trkpt lat="40.600583" lon="-4.843050">
        <ele>1590.0</ele>
        <time>2018-08-13T13:23:16Z</time>
      </trkpt>
      <trkpt lat="40.600667" lon="-4.843000">
        <ele>1587.0</ele>
        <time>2018-08-13T13:23:17Z</time>
      </trkpt>
      <trkpt lat="40.600750" lon="-4.842983">
        <ele>1585.0</ele>
        <time>2018-08-13T13:23:18Z</time>
      </trkpt>
      <trkpt lat="40.600833" lon="-4.842950">
        <ele>1584.0</ele>
        <time>2018-08-13T13:23:19Z</time>
      </trkpt>
      <trkpt lat="40.600900" lon="-4.842933">
        <ele>1583.0</ele>
        <time>2018-08-13T13:23:20Z</time>
      </trkpt>
      <trkpt lat="40.600950" lon="-4.842883">
        <ele>1580.0</ele>
        <time>2018-08-13T13:23:21Z</time>
      </trkpt>
      <trkpt lat="40.601000" lon="-4.842833">
        <ele>1576.0</ele>
        <time>2018-08-13T13:23:22Z</time>
      </trkpt>
      <trkpt lat="40.601067" lon="-4.842783">
        <ele>1572.0</ele>
        <time>2018-08-13T13:23:23Z</time>
      </trkpt>
      <trkpt lat="40.601150" lon="-4.842733">
        <ele>1568.0</ele>
        <time>2018-08-13T13:23:24Z</time>
      </trkpt>
      <trkpt lat="40.601233" lon="-4.842700">
        <ele>1564.0</ele>
        <time>2018-08-13T13:23:25Z</time>
      </trkpt>
      <trkpt lat="40.601300" lon="-4.842667">
        <ele>1562.0</ele>
        <time>2018-08-13T13:23:26Z</time>
      </trkpt>
      <trkpt lat="40.601383" lon="-4.842633">
        <ele>1561.0</ele>
        <time>2018-08-13T13:23:27Z</time>
      </trkpt>
      <trkpt lat="40.601450" lon="-4.842617">
        <ele>1561.0</ele>
        <time>2018-08-13T13:23:28Z</time>
      </trkpt>
      <trkpt lat="40.601517" lon="-4.842600">
        <ele>1561.0</ele>
        <time>2018-08-13T13:23:29Z</time>
      </trkpt>
      <trkpt lat="40.601567" lon="-4.842600">
        <ele>1560.0</ele>
        <time>2018-08-13T13:23:30Z</time>
      </trkpt>
      <trkpt lat="40.601633" lon="-4.842567">
        <ele>1559.0</ele>
        <time>2018-08-13T13:23:31Z</time>
      </trkpt>
      <trkpt lat="40.601683" lon="-4.842533">
        <ele>1557.0</ele>
        <time>2018-08-13T13:23:32Z</time>
      </trkpt>
      <trkpt lat="40.601750" lon="-4.842483">
        <ele>1556.0</ele>
        <time>2018-08-13T13:23:33Z</time>
      </trkpt>
      <trkpt lat="40.601817" lon="-4.842450">
        <ele>1555.0</ele>
        <time>2018-08-13T13:23:34Z</time>
      </trkpt>
      <trkpt lat="40.601883" lon="-4.842417">
        <ele>1554.0</ele>
        <time>2018-08-13T13:23:35Z</time>
      </trkpt>
      <trkpt lat="40.601950" lon="-4.842367">
        <ele>1553.0</ele>
        <time>2018-08-13T13:23:36Z</time>
      </trkpt>
      <trkpt lat="40.602017" lon="-4.842317">
        <ele>1551.0</ele>
        <time>2018-08-13T13:23:37Z</time>
      </trkpt>
      <trkpt lat="40.602083" lon="-4.842250">
        <ele>1550.0</ele>
        <time>2018-08-13T13:23:38Z</time>
      </trkpt>
      <trkpt lat="40.602150" lon="-4.842167">
        <ele>1549.0</ele>
        <time>2018-08-13T13:23:39Z</time>
      </trkpt>
      <trkpt lat="40.602200" lon="-4.842083">
        <ele>1548.0</ele>
        <time>2018-08-13T13:23:40Z</time>
      </trkpt>
      <trkpt lat="40.602250" lon="-4.841983">
        <ele>1548.0</ele>
        <time>2018-08-13T13:23:41Z</time>
      </trkpt>
      <trkpt lat="40.602300" lon="-4.841883">
        <ele>1547.0</ele>
        <time>2018-08-13T13:23:42Z</time>
      </trkpt>
      <trkpt lat="40.602350" lon="-4.841750">
        <ele>1545.0</ele>
        <time>2018-08-13T13:23:43Z</time>
      </trkpt>
      <trkpt lat="40.602400" lon="-4.841617">
        <ele>1543.0</ele>
        <time>2018-08-13T13:23:44Z</time>
      </trkpt>
      <trkpt lat="40.602450" lon="-4.841483">
        <ele>1544.0</ele>
        <time>2018-08-13T13:23:45Z</time>
      </trkpt>
      <trkpt lat="40.602467" lon="-4.841350">
        <ele>1546.0</ele>
        <time>2018-08-13T13:23:46Z</time>
      </trkpt>
      <trkpt lat="40.602483" lon="-4.841233">
        <ele>1547.0</ele>
        <time>2018-08-13T13:23:47Z</time>
      </trkpt>
      <trkpt lat="40.602483" lon="-4.841117">
        <ele>1547.0</ele>
        <time>2018-08-13T13:23:48Z</time>
      </trkpt>
      <trkpt lat="40.602517" lon="-4.841017">
        <ele>1545.0</ele>
        <time>2018-08-13T13:23:49Z</time>
      </trkpt>
      <trkpt lat="40.602550" lon="-4.840917">
        <ele>1543.0</ele>
        <time>2018-08-13T13:23:50Z</time>
      </trkpt>
      <trkpt lat="40.602583" lon="-4.840800">
        <ele>1541.0</ele>
        <time>2018-08-13T13:23:51Z</time>
      </trkpt>
      <trkpt lat="40.602633" lon="-4.840700">
        <ele>1541.0</ele>
        <time>2018-08-13T13:23:52Z</time>
      </trkpt>
      <trkpt lat="40.602683" lon="-4.840600">
        <ele>1540.0</ele>
        <time>2018-08-13T13:23:53Z</time>
      </trkpt>
      <trkpt lat="40.602733" lon="-4.840500">
        <ele>1540.0</ele>
        <time>2018-08-13T13:23:54Z</time>
      </trkpt>
      <trkpt lat="40.602783" lon="-4.840383">
        <ele>1539.0</ele>
        <time>2018-08-13T13:23:55Z</time>
      </trkpt>
      <trkpt lat="40.602833" lon="-4.840283">
        <ele>1537.0</ele>
        <time>2018-08-13T13:23:56Z</time>
      </trkpt>
      <trkpt lat="40.602900" lon="-4.840183">
        <ele>1536.0</ele>
        <time>2018-08-13T13:23:57Z</time>
      </trkpt>
      <trkpt lat="40.602967" lon="-4.840100">
        <ele>1534.0</ele>
        <time>2018-08-13T13:23:58Z</time>
      </trkpt>
      <trkpt lat="40.603017" lon="-4.840017">
        <ele>1532.0</ele>
        <time>2018-08-13T13:23:59Z</time>
      </trkpt>
      <trkpt lat="40.603083" lon="-4.839917">
        <ele>1532.0</ele>
        <time>2018-08-13T13:24:00Z</time>
      </trkpt>
      <trkpt lat="40.603133" lon="-4.839800">
        <ele>1533.0</ele>
        <time>2018-08-13T13:24:01Z</time>
      </trkpt>
      <trkpt lat="40.603200" lon="-4.839700">
        <ele>1536.0</ele>
        <time>2018-08-13T13:24:02Z</time>
      </trkpt>
      <trkpt lat="40.603233" lon="-4.839617">
        <ele>1539.0</ele>
        <time>2018-08-13T13:24:03Z</time>
      </trkpt>
      <trkpt lat="40.603283" lon="-4.839550">
        <ele>1541.0</ele>
        <time>2018-08-13T13:24:04Z</time>
      </trkpt>
      <trkpt lat="40.603317" lon="-4.839500">
        <ele>1543.0</ele>
        <time>2018-08-13T13:24:05Z</time>
      </trkpt>
      <trkpt lat="40.603367" lon="-4.839467">
        <ele>1543.0</ele>
        <time>2018-08-13T13:24:06Z</time>
      </trkpt>
      <trkpt lat="40.603433" lon="-4.839417">
        <ele>1542.0</ele>
        <time>2018-08-13T13:24:07Z</time>
      </trkpt>
      <trkpt lat="40.603500" lon="-4.839383">
        <ele>1542.0</ele>
        <time>2018-08-13T13:24:08Z</time>
      </trkpt>
      <trkpt lat="40.603567" lon="-4.839317">
        <ele>1542.0</ele>
        <time>2018-08-13T13:24:09Z</time>
      </trkpt>
      <trkpt lat="40.603617" lon="-4.839233">
        <ele>1542.0</ele>
        <time>2018-08-13T13:24:10Z</time>
      </trkpt>
      <trkpt lat="40.603667" lon="-4.839150">
        <ele>1541.0</ele>
        <time>2018-08-13T13:24:11Z</time>
      </trkpt>
      <trkpt lat="40.603717" lon="-4.839050">
        <ele>1540.0</ele>
        <time>2018-08-13T13:24:12Z</time>
      </trkpt>
      <trkpt lat="40.603767" lon="-4.838950">
        <ele>1538.0</ele>
        <time>2018-08-13T13:24:13Z</time>
      </trkpt>
      <trkpt lat="40.603833" lon="-4.838867">
        <ele>1537.0</ele>
        <time>2018-08-13T13:24:14Z</time>
      </trkpt>
      <trkpt lat="40.603883" lon="-4.838783">
        <ele>1536.0</ele>
        <time>2018-08-13T13:24:15Z</time>
      </trkpt>
      <trkpt lat="40.603950" lon="-4.838717">
        <ele>1535.0</ele>
        <time>2018-08-13T13:24:16Z</time>
      </trkpt>
      <trkpt lat="40.604017" lon="-4.838633">
        <ele>1534.0</ele>
        <time>2018-08-13T13:24:17Z</time>
      </trkpt>
      <trkpt lat="40.604083" lon="-4.838550">
        <ele>1533.0</ele>
        <time>2018-08-13T13:24:18Z</time>
      </trkpt>
      <trkpt lat="40.604150" lon="-4.838467">
        <ele>1533.0</ele>
        <time>2018-08-13T13:24:19Z</time>
      </trkpt>
      <trkpt lat="40.604217" lon="-4.838367">
        <ele>1533.0</ele>
        <time>2018-08-13T13:24:20Z</time>
      </trkpt>
      <trkpt lat="40.604283" lon="-4.838283">
        <ele>1533.0</ele>
        <time>2018-08-13T13:24:21Z</time>
      </trkpt>
      <trkpt lat="40.604350" lon="-4.838183">
        <ele>1532.0</ele>
        <time>2018-08-13T13:24:22Z</time>
      </trkpt>
      <trkpt lat="40.604400" lon="-4.838100">
        <ele>1531.0</ele>
        <time>2018-08-13T13:24:23Z</time>
      </trkpt>
      <trkpt lat="40.604483" lon="-4.838017">
        <ele>1530.0</ele>
        <time>2018-08-13T13:24:24Z</time>
      </trkpt>
      <trkpt lat="40.604550" lon="-4.837933">
        <ele>1528.0</ele>
        <time>2018-08-13T13:24:25Z</time>
      </trkpt>
      <trkpt lat="40.604650" lon="-4.837850">
        <ele>1528.0</ele>
        <time>2018-08-13T13:24:26Z</time>
      </trkpt>
      <trkpt lat="40.604733" lon="-4.837783">
        <ele>1527.0</ele>
        <time>2018-08-13T13:24:27Z</time>
      </trkpt>
      <trkpt lat="40.604800" lon="-4.837700">
        <ele>1526.0</ele>
        <time>2018-08-13T13:24:28Z</time>
      </trkpt>
      <trkpt lat="40.604883" lon="-4.837633">
        <ele>1524.0</ele>
        <time>2018-08-13T13:24:29Z</time>
      </trkpt>
      <trkpt lat="40.604950" lon="-4.837550">
        <ele>1521.0</ele>
        <time>2018-08-13T13:24:30Z</time>
      </trkpt>
      <trkpt lat="40.605017" lon="-4.837483">
        <ele>1518.0</ele>
        <time>2018-08-13T13:24:31Z</time>
      </trkpt>
      <trkpt lat="40.605117" lon="-4.837433">
        <ele>1514.0</ele>
        <time>2018-08-13T13:24:32Z</time>
      </trkpt>
      <trkpt lat="40.605217" lon="-4.837383">
        <ele>1510.0</ele>
        <time>2018-08-13T13:24:33Z</time>
      </trkpt>
      <trkpt lat="40.605317" lon="-4.837350">
        <ele>1509.0</ele>
        <time>2018-08-13T13:24:34Z</time>
      </trkpt>
      <trkpt lat="40.605417" lon="-4.837300">
        <ele>1509.0</ele>
        <time>2018-08-13T13:24:35Z</time>
      </trkpt>
      <trkpt lat="40.605500" lon="-4.837267">
        <ele>1510.0</ele>
        <time>2018-08-13T13:24:36Z</time>
      </trkpt>
      <trkpt lat="40.605567" lon="-4.837233">
        <ele>1510.0</ele>
        <time>2018-08-13T13:24:37Z</time>
      </trkpt>
      <trkpt lat="40.605633" lon="-4.837217">
        <ele>1509.0</ele>
        <time>2018-08-13T13:24:38Z</time>
      </trkpt>
      <trkpt lat="40.605717" lon="-4.837200">
        <ele>1507.0</ele>
        <time>2018-08-13T13:24:39Z</time>
      </trkpt>
      <trkpt lat="40.605817" lon="-4.837167">
        <ele>1505.0</ele>
        <time>2018-08-13T13:24:40Z</time>
      </trkpt>
      <trkpt lat="40.605900" lon="-4.837150">
        <ele>1504.0</ele>
        <time>2018-08-13T13:24:41Z</time>
      </trkpt>
      <trkpt lat="40.606000" lon="-4.837133">
        <ele>1503.0</ele>
        <time>2018-08-13T13:24:42Z</time>
      </trkpt>
      <trkpt lat="40.606083" lon="-4.837117">
        <ele>1502.0</ele>
        <time>2018-08-13T13:24:43Z</time>
      </trkpt>
      <trkpt lat="40.606167" lon="-4.837083">
        <ele>1502.0</ele>
        <time>2018-08-13T13:24:44Z</time>
      </trkpt>
      <trkpt lat="40.606250" lon="-4.837067">
        <ele>1502.0</ele>
        <time>2018-08-13T13:24:45Z</time>
      </trkpt>
      <trkpt lat="40.606317" lon="-4.837033">
        <ele>1500.0</ele>
        <time>2018-08-13T13:24:46Z</time>
      </trkpt>
      <trkpt lat="40.606400" lon="-4.837000">
        <ele>1499.0</ele>
        <time>2018-08-13T13:24:47Z</time>
      </trkpt>
      <trkpt lat="40.606483" lon="-4.836967">
        <ele>1497.0</ele>
        <time>2018-08-13T13:24:48Z</time>
      </trkpt>
      <trkpt lat="40.606567" lon="-4.836950">
        <ele>1495.0</ele>
        <time>2018-08-13T13:24:49Z</time>
      </trkpt>
      <trkpt lat="40.606650" lon="-4.836933">
        <ele>1494.0</ele>
        <time>2018-08-13T13:24:50Z</time>
      </trkpt>
      <trkpt lat="40.606733" lon="-4.836917">
        <ele>1494.0</ele>
        <time>2018-08-13T13:24:51Z</time>
      </trkpt>
      <trkpt lat="40.606800" lon="-4.836900">
        <ele>1494.0</ele>
        <time>2018-08-13T13:24:52Z</time>
      </trkpt>
      <trkpt lat="40.606867" lon="-4.836867">
        <ele>1493.0</ele>
        <time>2018-08-13T13:24:53Z</time>
      </trkpt>
      <trkpt lat="40.606933" lon="-4.836850">
        <ele>1492.0</ele>
        <time>2018-08-13T13:24:54Z</time>
      </trkpt>
      <trkpt lat="40.607000" lon="-4.836817">
        <ele>1490.0</ele>
        <time>2018-08-13T13:24:55Z</time>
      </trkpt>
      <trkpt lat="40.607050" lon="-4.836800">
        <ele>1489.0</ele>
        <time>2018-08-13T13:24:56Z</time>
      </trkpt>
      <trkpt lat="40.607100" lon="-4.836783">
        <ele>1487.0</ele>
        <time>2018-08-13T13:24:57Z</time>
      </trkpt>
      <trkpt lat="40.607167" lon="-4.836767">
        <ele>1486.0</ele>
        <time>2018-08-13T13:24:58Z</time>
      </trkpt>
      <trkpt lat="40.607233" lon="-4.836733">
        <ele>1484.0</ele>
        <time>2018-08-13T13:24:59Z</time>
      </trkpt>
      <trkpt lat="40.607317" lon="-4.836683">
        <ele>1483.0</ele>
        <time>2018-08-13T13:25:00Z</time>
      </trkpt>
      <trkpt lat="40.607383" lon="-4.836633">
        <ele>1481.0</ele>
        <time>2018-08-13T13:25:01Z</time>
      </trkpt>
      <trkpt lat="40.607450" lon="-4.836600">
        <ele>1480.0</ele>
        <time>2018-08-13T13:25:02Z</time>
      </trkpt>
      <trkpt lat="40.607517" lon="-4.836550">
        <ele>1479.0</ele>
        <time>2018-08-13T13:25:03Z</time>
      </trkpt>
      <trkpt lat="40.607583" lon="-4.836500">
        <ele>1477.0</ele>
        <time>2018-08-13T13:25:04Z</time>
      </trkpt>
      <trkpt lat="40.607633" lon="-4.836433">
        <ele>1475.0</ele>
        <time>2018-08-13T13:25:05Z</time>
      </trkpt>
      <trkpt lat="40.607700" lon="-4.836383">
        <ele>1472.0</ele>
        <time>2018-08-13T13:25:06Z</time>
      </trkpt>
      <trkpt lat="40.607767" lon="-4.836333">
        <ele>1468.0</ele>
        <time>2018-08-13T13:25:07Z</time>
      </trkpt>
      <trkpt lat="40.607850" lon="-4.836300">
        <ele>1463.0</ele>
        <time>2018-08-13T13:25:08Z</time>
      </trkpt>
      <trkpt lat="40.607933" lon="-4.836300">
        <ele>1460.0</ele>
        <time>2018-08-13T13:25:09Z</time>
      </trkpt>
      <trkpt lat="40.608000" lon="-4.836317">
        <ele>1457.0</ele>
        <time>2018-08-13T13:25:10Z</time>
      </trkpt>
      <trkpt lat="40.608067" lon="-4.836333">
        <ele>1455.0</ele>
        <time>2018-08-13T13:25:11Z</time>
      </trkpt>
      <trkpt lat="40.608133" lon="-4.836367">
        <ele>1455.0</ele>
        <time>2018-08-13T13:25:12Z</time>
      </trkpt>
      <trkpt lat="40.608183" lon="-4.836383">
        <ele>1454.0</ele>
        <time>2018-08-13T13:25:13Z</time>
      </trkpt>
      <trkpt lat="40.608233" lon="-4.836400">
        <ele>1452.0</ele>
        <time>2018-08-13T13:25:14Z</time>
      </trkpt>
      <trkpt lat="40.608267" lon="-4.836417">
        <ele>1450.0</ele>
        <time>2018-08-13T13:25:15Z</time>
      </trkpt>
      <trkpt lat="40.608300" lon="-4.836450">
        <ele>1446.0</ele>
        <time>2018-08-13T13:25:16Z</time>
      </trkpt>
      <trkpt lat="40.608317" lon="-4.836500">
        <ele>1441.0</ele>
        <time>2018-08-13T13:25:17Z</time>
      </trkpt>
      <trkpt lat="40.608350" lon="-4.836567">
        <ele>1437.0</ele>
        <time>2018-08-13T13:25:18Z</time>
      </trkpt>
      <trkpt lat="40.608383" lon="-4.836633">
        <ele>1434.0</ele>
        <time>2018-08-13T13:25:19Z</time>
      </trkpt>
      <trkpt lat="40.608417" lon="-4.836700">
        <ele>1433.0</ele>
        <time>2018-08-13T13:25:20Z</time>
      </trkpt>
      <trkpt lat="40.608450" lon="-4.836750">
        <ele>1433.0</ele>
        <time>2018-08-13T13:25:21Z</time>
      </trkpt>
      <trkpt lat="40.608467" lon="-4.836783">
        <ele>1434.0</ele>
        <time>2018-08-13T13:25:22Z</time>
      </trkpt>
      <trkpt lat="40.608467" lon="-4.836817">
        <ele>1436.0</ele>
        <time>2018-08-13T13:25:23Z</time>
      </trkpt>
      <trkpt lat="40.608467" lon="-4.836833">
        <ele>1436.0</ele>
        <time>2018-08-13T13:25:24Z</time>
      </trkpt>
      <trkpt lat="40.608483" lon="-4.836867">
        <ele>1436.0</ele>
        <time>2018-08-13T13:25:25Z</time>
      </trkpt>
      <trkpt lat="40.608483" lon="-4.836900">
        <ele>1436.0</ele>
        <time>2018-08-13T13:25:26Z</time>
      </trkpt>
      <trkpt lat="40.608517" lon="-4.836933">
        <ele>1435.0</ele>
        <time>2018-08-13T13:25:27Z</time>
      </trkpt>
      <trkpt lat="40.608533" lon="-4.836950">
        <ele>1434.0</ele>
        <time>2018-08-13T13:25:28Z</time>
      </trkpt>
      <trkpt lat="40.608567" lon="-4.836983">
        <ele>1434.0</ele>
        <time>2018-08-13T13:25:29Z</time>
      </trkpt>
      <trkpt lat="40.608600" lon="-4.837033">
        <ele>1434.0</ele>
        <time>2018-08-13T13:25:30Z</time>
      </trkpt>
      <trkpt lat="40.608633" lon="-4.837083">
        <ele>1435.0</ele>
        <time>2018-08-13T13:25:31Z</time>
      </trkpt>
      <trkpt lat="40.608667" lon="-4.837117">
        <ele>1436.0</ele>
        <time>2018-08-13T13:25:32Z</time>
      </trkpt>
      <trkpt lat="40.608700" lon="-4.837133">
        <ele>1436.0</ele>
        <time>2018-08-13T13:25:33Z</time>
      </trkpt>
      <trkpt lat="40.608750" lon="-4.837150">
        <ele>1435.0</ele>
        <time>2018-08-13T13:25:34Z</time>
      </trkpt>
      <trkpt lat="40.608783" lon="-4.837167">
        <ele>1433.0</ele>
        <time>2018-08-13T13:25:35Z</time>
      </trkpt>
      <trkpt lat="40.608833" lon="-4.837200">
        <ele>1432.0</ele>
        <time>2018-08-13T13:25:36Z</time>
      </trkpt>
      <trkpt lat="40.608883" lon="-4.837250">
        <ele>1432.0</ele>
        <time>2018-08-13T13:25:37Z</time>
      </trkpt>
      <trkpt lat="40.608933" lon="-4.837267">
        <ele>1434.0</ele>
        <time>2018-08-13T13:25:38Z</time>
      </trkpt>
      <trkpt lat="40.608983" lon="-4.837283">
        <ele>1436.0</ele>
        <time>2018-08-13T13:25:39Z</time>
      </trkpt>
      <trkpt lat="40.609017" lon="-4.837283">
        <ele>1436.0</ele>
        <time>2018-08-13T13:25:40Z</time>
      </trkpt>
      <trkpt lat="40.609050" lon="-4.837267">
        <ele>1436.0</ele>
        <time>2018-08-13T13:25:41Z</time>
      </trkpt>
      <trkpt lat="40.609083" lon="-4.837283">
        <ele>1435.0</ele>
        <time>2018-08-13T13:25:42Z</time>
      </trkpt>
      <trkpt lat="40.609133" lon="-4.837283">
        <ele>1433.0</ele>
        <time>2018-08-13T13:25:43Z</time>
      </trkpt>
      <trkpt lat="40.609183" lon="-4.837300">
        <ele>1431.0</ele>
        <time>2018-08-13T13:25:44Z</time>
      </trkpt>
      <trkpt lat="40.609217" lon="-4.837333">
        <ele>1430.0</ele>
        <time>2018-08-13T13:25:45Z</time>
      </trkpt>
      <trkpt lat="40.609250" lon="-4.837367">
        <ele>1429.0</ele>
        <time>2018-08-13T13:25:46Z</time>
      </trkpt>
      <trkpt lat="40.609283" lon="-4.837417">
        <ele>1428.0</ele>
        <time>2018-08-13T13:25:47Z</time>
      </trkpt>
      <trkpt lat="40.609317" lon="-4.837450">
        <ele>1428.0</ele>
        <time>2018-08-13T13:25:48Z</time>
      </trkpt>
      <trkpt lat="40.609350" lon="-4.837500">
        <ele>1427.0</ele>
        <time>2018-08-13T13:25:49Z</time>
      </trkpt>
      <trkpt lat="40.609400" lon="-4.837533">
        <ele>1428.0</ele>
        <time>2018-08-13T13:25:50Z</time>
      </trkpt>
      <trkpt lat="40.609433" lon="-4.837550">
        <ele>1428.0</ele>
        <time>2018-08-13T13:25:51Z</time>
      </trkpt>
      <trkpt lat="40.609483" lon="-4.837583">
        <ele>1427.0</ele>
        <time>2018-08-13T13:25:52Z</time>
      </trkpt>
      <trkpt lat="40.609533" lon="-4.837650">
        <ele>1427.0</ele>
        <time>2018-08-13T13:25:53Z</time>
      </trkpt>
      <trkpt lat="40.609567" lon="-4.837700">
        <ele>1428.0</ele>
        <time>2018-08-13T13:25:54Z</time>
      </trkpt>
      <trkpt lat="40.609617" lon="-4.837750">
        <ele>1428.0</ele>
        <time>2018-08-13T13:25:55Z</time>
      </trkpt>
      <trkpt lat="40.609650" lon="-4.837767">
        <ele>1428.0</ele>
        <time>2018-08-13T13:25:56Z</time>
      </trkpt>
      <trkpt lat="40.609700" lon="-4.837767">
        <ele>1428.0</ele>
        <time>2018-08-13T13:25:57Z</time>
      </trkpt>
      <trkpt lat="40.609750" lon="-4.837783">
        <ele>1427.0</ele>
        <time>2018-08-13T13:25:58Z</time>
      </trkpt>
      <trkpt lat="40.609783" lon="-4.837817">
        <ele>1426.0</ele>
        <time>2018-08-13T13:25:59Z</time>
      </trkpt>
      <trkpt lat="40.609833" lon="-4.837883">
        <ele>1423.0</ele>
        <time>2018-08-13T13:26:00Z</time>
      </trkpt>
      <trkpt lat="40.609867" lon="-4.837950">
        <ele>1422.0</ele>
        <time>2018-08-13T13:26:01Z</time>
      </trkpt>
      <trkpt lat="40.609917" lon="-4.838017">
        <ele>1422.0</ele>
        <time>2018-08-13T13:26:02Z</time>
      </trkpt>
      <trkpt lat="40.609933" lon="-4.838067">
        <ele>1423.0</ele>
        <time>2018-08-13T13:26:03Z</time>
      </trkpt>
      <trkpt lat="40.609950" lon="-4.838100">
        <ele>1425.0</ele>
        <time>2018-08-13T13:26:04Z</time>
      </trkpt>
      <trkpt lat="40.609967" lon="-4.838133">
        <ele>1427.0</ele>
        <time>2018-08-13T13:26:05Z</time>
      </trkpt>
      <trkpt lat="40.610000" lon="-4.838133">
        <ele>1428.0</ele>
        <time>2018-08-13T13:26:06Z</time>
      </trkpt>
      <trkpt lat="40.610050" lon="-4.838150">
        <ele>1429.0</ele>
        <time>2018-08-13T13:26:07Z</time>
      </trkpt>
      <trkpt lat="40.610083" lon="-4.838167">
        <ele>1429.0</ele>
        <time>2018-08-13T13:26:08Z</time>
      </trkpt>
      <trkpt lat="40.610133" lon="-4.838183">
        <ele>1430.0</ele>
        <time>2018-08-13T13:26:09Z</time>
      </trkpt>
      <trkpt lat="40.610183" lon="-4.838200">
        <ele>1431.0</ele>
        <time>2018-08-13T13:26:10Z</time>
      </trkpt>
      <trkpt lat="40.610250" lon="-4.838233">
        <ele>1432.0</ele>
        <time>2018-08-13T13:26:11Z</time>
      </trkpt>
      <trkpt lat="40.610317" lon="-4.838250">
        <ele>1433.0</ele>
        <time>2018-08-13T13:26:12Z</time>
      </trkpt>
      <trkpt lat="40.610383" lon="-4.838267">
        <ele>1434.0</ele>
        <time>2018-08-13T13:26:13Z</time>
      </trkpt>
      <trkpt lat="40.610450" lon="-4.838283">
        <ele>1436.0</ele>
        <time>2018-08-13T13:26:14Z</time>
      </trkpt>
      <trkpt lat="40.610517" lon="-4.838283">
        <ele>1439.0</ele>
        <time>2018-08-13T13:26:15Z</time>
      </trkpt>
      <trkpt lat="40.610583" lon="-4.838283">
        <ele>1441.0</ele>
        <time>2018-08-13T13:26:16Z</time>
      </trkpt>
      <trkpt lat="40.610650" lon="-4.838267">
        <ele>1442.0</ele>
        <time>2018-08-13T13:26:17Z</time>
      </trkpt>
      <trkpt lat="40.610733" lon="-4.838250">
        <ele>1443.0</ele>
        <time>2018-08-13T13:26:18Z</time>
      </trkpt>
      <trkpt lat="40.610800" lon="-4.838250">
        <ele>1443.0</ele>
        <time>2018-08-13T13:26:19Z</time>
      </trkpt>
      <trkpt lat="40.610867" lon="-4.838283">
        <ele>1444.0</ele>
        <time>2018-08-13T13:26:20Z</time>
      </trkpt>
      <trkpt lat="40.610917" lon="-4.838333">
        <ele>1444.0</ele>
        <time>2018-08-13T13:26:21Z</time>
      </trkpt>
      <trkpt lat="40.610933" lon="-4.838400">
        <ele>1444.0</ele>
        <time>2018-08-13T13:26:22Z</time>
      </trkpt>
      <trkpt lat="40.610917" lon="-4.838467">
        <ele>1443.0</ele>
        <time>2018-08-13T13:26:23Z</time>
      </trkpt>
      <trkpt lat="40.610850" lon="-4.838517">
        <ele>1443.0</ele>
        <time>2018-08-13T13:26:24Z</time>
      </trkpt>
      <trkpt lat="40.610767" lon="-4.838500">
        <ele>1442.0</ele>
        <time>2018-08-13T13:26:25Z</time>
      </trkpt>
      <trkpt lat="40.610667" lon="-4.838450">
        <ele>1441.0</ele>
        <time>2018-08-13T13:26:26Z</time>
      </trkpt>
      <trkpt lat="40.610583" lon="-4.838333">
        <ele>1440.0</ele>
        <time>2018-08-13T13:26:27Z</time>
      </trkpt>
      <trkpt lat="40.610517" lon="-4.838200">
        <ele>1439.0</ele>
        <time>2018-08-13T13:26:28Z</time>
      </trkpt>
      <trkpt lat="40.610450" lon="-4.838033">
        <ele>1438.0</ele>
        <time>2018-08-13T13:26:29Z</time>
      </trkpt>
      <trkpt lat="40.610417" lon="-4.837850">
        <ele>1438.0</ele>
        <time>2018-08-13T13:26:30Z</time>
      </trkpt>
      <trkpt lat="40.610400" lon="-4.837650">
        <ele>1437.0</ele>
        <time>2018-08-13T13:26:31Z</time>
      </trkpt>
      <trkpt lat="40.610400" lon="-4.837433">
        <ele>1437.0</ele>
        <time>2018-08-13T13:26:32Z</time>
      </trkpt>
      <trkpt lat="40.610433" lon="-4.837233">
        <ele>1437.0</ele>
        <time>2018-08-13T13:26:33Z</time>
      </trkpt>
      <trkpt lat="40.610467" lon="-4.837033">
        <ele>1439.0</ele>
        <time>2018-08-13T13:26:34Z</time>
      </trkpt>
      <trkpt lat="40.610517" lon="-4.836867">
        <ele>1442.0</ele>
        <time>2018-08-13T13:26:35Z</time>
      </trkpt>
      <trkpt lat="40.610567" lon="-4.836683">
        <ele>1444.0</ele>
        <time>2018-08-13T13:26:36Z</time>
      </trkpt>
      <trkpt lat="40.610600" lon="-4.836517">
        <ele>1446.0</ele>
        <time>2018-08-13T13:26:37Z</time>
      </trkpt>
      <trkpt lat="40.610617" lon="-4.836333">
        <ele>1449.0</ele>
        <time>2018-08-13T13:26:38Z</time>
      </trkpt>
      <trkpt lat="40.610633" lon="-4.836150">
        <ele>1452.0</ele>
        <time>2018-08-13T13:26:39Z</time>
      </trkpt>
      <trkpt lat="40.610650" lon="-4.835983">
        <ele>1456.0</ele>
        <time>2018-08-13T13:26:40Z</time>
      </trkpt>
      <trkpt lat="40.610667" lon="-4.835817">
        <ele>1458.0</ele>
        <time>2018-08-13T13:26:41Z</time>
      </trkpt>
      <trkpt lat="40.610700" lon="-4.835683">
        <ele>1459.0</ele>
        <time>2018-08-13T13:26:42Z</time>
      </trkpt>
      <trkpt lat="40.610750" lon="-4.835567">
        <ele>1459.0</ele>
        <time>2018-08-13T13:26:43Z</time>
      </trkpt>
      <trkpt lat="40.610833" lon="-4.835500">
        <ele>1459.0</ele>
        <time>2018-08-13T13:26:44Z</time>
      </trkpt>
      <trkpt lat="40.610933" lon="-4.835467">
        <ele>1460.0</ele>
        <time>2018-08-13T13:26:45Z</time>
      </trkpt>
      <trkpt lat="40.611017" lon="-4.835500">
        <ele>1462.0</ele>
        <time>2018-08-13T13:26:46Z</time>
      </trkpt>
      <trkpt lat="40.611050" lon="-4.835533">
        <ele>1465.0</ele>
        <time>2018-08-13T13:26:47Z</time>
      </trkpt>
      <trkpt lat="40.611067" lon="-4.835583">
        <ele>1467.0</ele>
        <time>2018-08-13T13:26:48Z</time>
      </trkpt>
      <trkpt lat="40.611033" lon="-4.835633">
        <ele>1469.0</ele>
        <time>2018-08-13T13:26:49Z</time>
      </trkpt>
      <trkpt lat="40.611017" lon="-4.835683">
        <ele>1470.0</ele>
        <time>2018-08-13T13:26:50Z</time>
      </trkpt>
      <trkpt lat="40.610967" lon="-4.835733">
        <ele>1471.0</ele>
        <time>2018-08-13T13:26:51Z</time>
      </trkpt>
      <trkpt lat="40.610917" lon="-4.835800">
        <ele>1471.0</ele>
        <time>2018-08-13T13:26:52Z</time>
      </trkpt>
      <trkpt lat="40.610833" lon="-4.835850">
        <ele>1473.0</ele>
        <time>2018-08-13T13:26:53Z</time>
      </trkpt>
      <trkpt lat="40.610733" lon="-4.835850">
        <ele>1475.0</ele>
        <time>2018-08-13T13:26:54Z</time>
      </trkpt>
      <trkpt lat="40.610633" lon="-4.835817">
        <ele>1478.0</ele>
        <time>2018-08-13T13:26:55Z</time>
      </trkpt>
      <trkpt lat="40.610533" lon="-4.835717">
        <ele>1480.0</ele>
        <time>2018-08-13T13:26:56Z</time>
      </trkpt>
      <trkpt lat="40.610450" lon="-4.835567">
        <ele>1482.0</ele>
        <time>2018-08-13T13:26:57Z</time>
      </trkpt>
      <trkpt lat="40.610400" lon="-4.835400">
        <ele>1484.0</ele>
        <time>2018-08-13T13:26:58Z</time>
      </trkpt>
      <trkpt lat="40.610367" lon="-4.835217">
        <ele>1486.0</ele>
        <time>2018-08-13T13:26:59Z</time>
      </trkpt>
      <trkpt lat="40.610333" lon="-4.835033">
        <ele>1490.0</ele>
        <time>2018-08-13T13:27:00Z</time>
      </trkpt>
      <trkpt lat="40.610317" lon="-4.834867">
        <ele>1493.0</ele>
        <time>2018-08-13T13:27:01Z</time>
      </trkpt>
      <trkpt lat="40.610317" lon="-4.834700">
        <ele>1495.0</ele>
        <time>2018-08-13T13:27:02Z</time>
      </trkpt>
      <trkpt lat="40.610367" lon="-4.834550">
        <ele>1496.0</ele>
        <time>2018-08-13T13:27:03Z</time>
      </trkpt>
      <trkpt lat="40.610450" lon="-4.834417">
        <ele>1497.0</ele>
        <time>2018-08-13T13:27:04Z</time>
      </trkpt>
      <trkpt lat="40.610550" lon="-4.834333">
        <ele>1500.0</ele>
        <time>2018-08-13T13:27:05Z</time>
      </trkpt>
      <trkpt lat="40.610633" lon="-4.834300">
        <ele>1504.0</ele>
        <time>2018-08-13T13:27:06Z</time>
      </trkpt>
      <trkpt lat="40.610700" lon="-4.834333">
        <ele>1507.0</ele>
        <time>2018-08-13T13:27:07Z</time>
      </trkpt>
      <trkpt lat="40.610717" lon="-4.834400">
        <ele>1509.0</ele>
        <time>2018-08-13T13:27:08Z</time>
      </trkpt>
      <trkpt lat="40.610700" lon="-4.834483">
        <ele>1511.0</ele>
        <time>2018-08-13T13:27:09Z</time>
      </trkpt>
      <trkpt lat="40.610667" lon="-4.834550">
        <ele>1514.0</ele>
        <time>2018-08-13T13:27:10Z</time>
      </trkpt>
      <trkpt lat="40.610617" lon="-4.834600">
        <ele>1517.0</ele>
        <time>2018-08-13T13:27:11Z</time>
      </trkpt>
      <trkpt lat="40.610533" lon="-4.834617">
        <ele>1518.0</ele>
        <time>2018-08-13T13:27:12Z</time>
      </trkpt>
      <trkpt lat="40.610433" lon="-4.834583">
        <ele>1519.0</ele>
        <time>2018-08-13T13:27:13Z</time>
      </trkpt>
      <trkpt lat="40.610333" lon="-4.834483">
        <ele>1520.0</ele>
        <time>2018-08-13T13:27:14Z</time>
      </trkpt>
      <trkpt lat="40.610250" lon="-4.834333">
        <ele>1522.0</ele>
        <time>2018-08-13T13:27:15Z</time>
      </trkpt>
      <trkpt lat="40.610183" lon="-4.834167">
        <ele>1525.0</ele>
        <time>2018-08-13T13:27:16Z</time>
      </trkpt>
      <trkpt lat="40.610133" lon="-4.833983">
        <ele>1529.0</ele>
        <time>2018-08-13T13:27:17Z</time>
      </trkpt>
      <trkpt lat="40.610117" lon="-4.833800">
        <ele>1533.0</ele>
        <time>2018-08-13T13:27:18Z</time>
      </trkpt>
      <trkpt lat="40.610117" lon="-4.833617">
        <ele>1536.0</ele>
        <time>2018-08-13T13:27:19Z</time>
      </trkpt>
      <trkpt lat="40.610100" lon="-4.833433">
        <ele>1539.0</ele>
        <time>2018-08-13T13:27:20Z</time>
      </trkpt>
      <trkpt lat="40.610100" lon="-4.833250">
        <ele>1542.0</ele>
        <time>2018-08-13T13:27:21Z</time>
      </trkpt>
      <trkpt lat="40.610100" lon="-4.833050">
        <ele>1545.0</ele>
        <time>2018-08-13T13:27:22Z</time>
      </trkpt>
      <trkpt lat="40.610100" lon="-4.832867">
        <ele>1547.0</ele>
        <time>2018-08-13T13:27:23Z</time>
      </trkpt>
      <trkpt lat="40.610083" lon="-4.832667">
        <ele>1550.0</ele>
        <time>2018-08-13T13:27:24Z</time>
      </trkpt>
      <trkpt lat="40.610100" lon="-4.832483">
        <ele>1553.0</ele>
        <time>2018-08-13T13:27:25Z</time>
      </trkpt>
      <trkpt lat="40.610133" lon="-4.832300">
        <ele>1556.0</ele>
        <time>2018-08-13T13:27:26Z</time>
      </trkpt>
      <trkpt lat="40.610200" lon="-4.832167">
        <ele>1558.0</ele>
        <time>2018-08-13T13:27:27Z</time>
      </trkpt>
      <trkpt lat="40.610300" lon="-4.832067">
        <ele>1560.0</ele>
        <time>2018-08-13T13:27:28Z</time>
      </trkpt>
      <trkpt lat="40.610400" lon="-4.832017">
        <ele>1562.0</ele>
        <time>2018-08-13T13:27:29Z</time>
      </trkpt>
      <trkpt lat="40.610467" lon="-4.832017">
        <ele>1564.0</ele>
        <time>2018-08-13T13:27:30Z</time>
      </trkpt>
      <trkpt lat="40.610517" lon="-4.832050">
        <ele>1565.0</ele>
        <time>2018-08-13T13:27:31Z</time>
      </trkpt>
      <trkpt lat="40.610550" lon="-4.832100">
        <ele>1566.0</ele>
        <time>2018-08-13T13:27:32Z</time>
      </trkpt>
      <trkpt lat="40.610533" lon="-4.832167">
        <ele>1566.0</ele>
        <time>2018-08-13T13:27:33Z</time>
      </trkpt>
      <trkpt lat="40.610483" lon="-4.832233">
        <ele>1568.0</ele>
        <time>2018-08-13T13:27:34Z</time>
      </trkpt>
      <trkpt lat="40.610417" lon="-4.832283">
        <ele>1570.0</ele>
        <time>2018-08-13T13:27:35Z</time>
      </trkpt>
      <trkpt lat="40.610317" lon="-4.832283">
        <ele>1573.0</ele>
        <time>2018-08-13T13:27:36Z</time>
      </trkpt>
      <trkpt lat="40.610217" lon="-4.832250">
        <ele>1576.0</ele>
        <time>2018-08-13T13:27:37Z</time>
      </trkpt>
      <trkpt lat="40.610117" lon="-4.832183">
        <ele>1579.0</ele>
        <time>2018-08-13T13:27:38Z</time>
      </trkpt>
      <trkpt lat="40.610000" lon="-4.832100">
        <ele>1582.0</ele>
        <time>2018-08-13T13:27:39Z</time>
      </trkpt>
      <trkpt lat="40.609917" lon="-4.832000">
        <ele>1585.0</ele>
        <time>2018-08-13T13:27:40Z</time>
      </trkpt>
      <trkpt lat="40.609817" lon="-4.831883">
        <ele>1589.0</ele>
        <time>2018-08-13T13:27:41Z</time>
      </trkpt>
      <trkpt lat="40.609733" lon="-4.831783">
        <ele>1592.0</ele>
        <time>2018-08-13T13:27:42Z</time>
      </trkpt>
      <trkpt lat="40.609650" lon="-4.831683">
        <ele>1594.0</ele>
        <time>2018-08-13T13:27:43Z</time>
      </trkpt>
      <trkpt lat="40.609567" lon="-4.831567">
        <ele>1597.0</ele>
        <time>2018-08-13T13:27:44Z</time>
      </trkpt>
      <trkpt lat="40.609467" lon="-4.831433">
        <ele>1599.0</ele>
        <time>2018-08-13T13:27:45Z</time>
      </trkpt>
      <trkpt lat="40.609400" lon="-4.831267">
        <ele>1600.0</ele>
        <time>2018-08-13T13:27:46Z</time>
      </trkpt>
      <trkpt lat="40.609383" lon="-4.831067">
        <ele>1601.0</ele>
        <time>2018-08-13T13:27:47Z</time>
      </trkpt>
      <trkpt lat="40.609400" lon="-4.830867">
        <ele>1603.0</ele>
        <time>2018-08-13T13:27:48Z</time>
      </trkpt>
      <trkpt lat="40.609450" lon="-4.830683">
        <ele>1605.0</ele>
        <time>2018-08-13T13:27:49Z</time>
      </trkpt>
      <trkpt lat="40.609533" lon="-4.830550">
        <ele>1607.0</ele>
        <time>2018-08-13T13:27:50Z</time>
      </trkpt>
      <trkpt lat="40.609600" lon="-4.830433">
        <ele>1610.0</ele>
        <time>2018-08-13T13:27:51Z</time>
      </trkpt>
      <trkpt lat="40.609683" lon="-4.830367">
        <ele>1613.0</ele>
        <time>2018-08-13T13:27:52Z</time>
      </trkpt>
      <trkpt lat="40.609767" lon="-4.830317">
        <ele>1616.0</ele>
        <time>2018-08-13T13:27:53Z</time>
      </trkpt>
      <trkpt lat="40.609833" lon="-4.830283">
        <ele>1618.0</ele>
        <time>2018-08-13T13:27:54Z</time>
      </trkpt>
      <trkpt lat="40.609900" lon="-4.830300">
        <ele>1620.0</ele>
        <time>2018-08-13T13:27:55Z</time>
      </trkpt>
      <trkpt lat="40.609933" lon="-4.830333">
        <ele>1622.0</ele>
        <time>2018-08-13T13:27:56Z</time>
      </trkpt>
      <trkpt lat="40.609967" lon="-4.830400">
        <ele>1623.0</ele>
        <time>2018-08-13T13:27:57Z</time>
      </trkpt>
      <trkpt lat="40.609950" lon="-4.830467">
        <ele>1625.0</ele>
        <time>2018-08-13T13:27:58Z</time>
      </trkpt>
      <trkpt lat="40.609917" lon="-4.830533">
        <ele>1627.0</ele>
        <time>2018-08-13T13:27:59Z</time>
      </trkpt>
      <trkpt lat="40.609833" lon="-4.830567">
        <ele>1628.0</ele>
        <time>2018-08-13T13:28:00Z</time>
      </trkpt>
      <trkpt lat="40.609733" lon="-4.830583">
        <ele>1630.0</ele>
        <time>2018-08-13T13:28:01Z</time>
      </trkpt>
      <trkpt lat="40.609633" lon="-4.830550">
        <ele>1632.0</ele>
        <time>2018-08-13T13:28:02Z</time>
      </trkpt>
      <trkpt lat="40.609517" lon="-4.830467">
        <ele>1635.0</ele>
        <time>2018-08-13T13:28:03Z</time>
      </trkpt>
      <trkpt lat="40.609433" lon="-4.830350">
        <ele>1637.0</ele>
        <time>2018-08-13T13:28:04Z</time>
      </trkpt>
      <trkpt lat="40.609350" lon="-4.830183">
        <ele>1639.0</ele>
        <time>2018-08-13T13:28:05Z</time>
      </trkpt>
      <trkpt lat="40.609300" lon="-4.830000">
        <ele>1641.0</ele>
        <time>2018-08-13T13:28:06Z</time>
      </trkpt>
      <trkpt lat="40.609300" lon="-4.829817">
        <ele>1643.0</ele>
        <time>2018-08-13T13:28:07Z</time>
      </trkpt>
      <trkpt lat="40.609350" lon="-4.829633">
        <ele>1645.0</ele>
        <time>2018-08-13T13:28:08Z</time>
      </trkpt>
      <trkpt lat="40.609400" lon="-4.829483">
        <ele>1647.0</ele>
        <time>2018-08-13T13:28:09Z</time>
      </trkpt>
      <trkpt lat="40.609483" lon="-4.829367">
        <ele>1649.0</ele>
        <time>2018-08-13T13:28:10Z</time>
      </trkpt>
      <trkpt lat="40.609550" lon="-4.829283">
        <ele>1653.0</ele>
        <time>2018-08-13T13:28:11Z</time>
      </trkpt>
      <trkpt lat="40.609633" lon="-4.829217">
        <ele>1656.0</ele>
        <time>2018-08-13T13:28:12Z</time>
      </trkpt>
      <trkpt lat="40.609700" lon="-4.829200">
        <ele>1659.0</ele>
        <time>2018-08-13T13:28:13Z</time>
      </trkpt>
      <trkpt lat="40.609750" lon="-4.829200">
        <ele>1661.0</ele>
        <time>2018-08-13T13:28:14Z</time>
      </trkpt>
      <trkpt lat="40.609783" lon="-4.829233">
        <ele>1663.0</ele>
        <time>2018-08-13T13:28:15Z</time>
      </trkpt>
      <trkpt lat="40.609800" lon="-4.829283">
        <ele>1664.0</ele>
        <time>2018-08-13T13:28:16Z</time>
      </trkpt>
      <trkpt lat="40.609783" lon="-4.829350">
        <ele>1665.0</ele>
        <time>2018-08-13T13:28:17Z</time>
      </trkpt>
      <trkpt lat="40.609733" lon="-4.829417">
        <ele>1667.0</ele>
        <time>2018-08-13T13:28:18Z</time>
      </trkpt>
      <trkpt lat="40.609650" lon="-4.829450">
        <ele>1669.0</ele>
        <time>2018-08-13T13:28:19Z</time>
      </trkpt>
      <trkpt lat="40.609550" lon="-4.829433">
        <ele>1672.0</ele>
        <time>2018-08-13T13:28:20Z</time>
      </trkpt>
      <trkpt lat="40.609450" lon="-4.829383">
        <ele>1675.0</ele>
        <time>2018-08-13T13:28:21Z</time>
      </trkpt>
      <trkpt lat="40.609350" lon="-4.829300">
        <ele>1677.0</ele>
        <time>2018-08-13T13:28:22Z</time>
      </trkpt>
      <trkpt lat="40.609250" lon="-4.829167">
        <ele>1680.0</ele>
        <time>2018-08-13T13:28:23Z</time>
      </trkpt>
      <trkpt lat="40.609167" lon="-4.829033">
        <ele>1682.0</ele>
        <time>2018-08-13T13:28:24Z</time>
      </trkpt>
      <trkpt lat="40.609100" lon="-4.828867">
        <ele>1684.0</ele>
        <time>2018-08-13T13:28:25Z</time>
      </trkpt>
      <trkpt lat="40.609067" lon="-4.828683">
        <ele>1685.0</ele>
        <time>2018-08-13T13:28:26Z</time>
      </trkpt>
      <trkpt lat="40.609067" lon="-4.828500">
        <ele>1686.0</ele>
        <time>2018-08-13T13:28:27Z</time>
      </trkpt>
      <trkpt lat="40.609100" lon="-4.828300">
        <ele>1687.0</ele>
        <time>2018-08-13T13:28:28Z</time>
      </trkpt>
      <trkpt lat="40.609150" lon="-4.828133">
        <ele>1690.0</ele>
        <time>2018-08-13T13:28:29Z</time>
      </trkpt>
      <trkpt lat="40.609217" lon="-4.828000">
        <ele>1695.0</ele>
        <time>2018-08-13T13:28:30Z</time>
      </trkpt>
      <trkpt lat="40.609283" lon="-4.827900">
        <ele>1699.0</ele>
        <time>2018-08-13T13:28:31Z</time>
      </trkpt>
      <trkpt lat="40.609350" lon="-4.827833">
        <ele>1701.0</ele>
        <time>2018-08-13T13:28:32Z</time>
      </trkpt>
      <trkpt lat="40.609417" lon="-4.827783">
        <ele>1703.0</ele>
        <time>2018-08-13T13:28:33Z</time>
      </trkpt>
      <trkpt lat="40.609483" lon="-4.827767">
        <ele>1706.0</ele>
        <time>2018-08-13T13:28:34Z</time>
      </trkpt>
      <trkpt lat="40.609533" lon="-4.827750">
        <ele>1708.0</ele>
        <time>2018-08-13T13:28:35Z</time>
      </trkpt>
      <trkpt lat="40.609567" lon="-4.827767">
        <ele>1710.0</ele>
        <time>2018-08-13T13:28:36Z</time>
      </trkpt>
      <trkpt lat="40.609567" lon="-4.827817">
        <ele>1709.0</ele>
        <time>2018-08-13T13:28:37Z</time>
      </trkpt>
      <trkpt lat="40.609533" lon="-4.827900">
        <ele>1709.0</ele>
        <time>2018-08-13T13:28:38Z</time>
      </trkpt>
      <trkpt lat="40.609467" lon="-4.827967">
        <ele>1710.0</ele>
        <time>2018-08-13T13:28:39Z</time>
      </trkpt>
      <trkpt lat="40.609383" lon="-4.828017">
        <ele>1714.0</ele>
        <time>2018-08-13T13:28:40Z</time>
      </trkpt>
      <trkpt lat="40.609283" lon="-4.828033">
        <ele>1719.0</ele>
        <time>2018-08-13T13:28:41Z</time>
      </trkpt>
      <trkpt lat="40.609167" lon="-4.827983">
        <ele>1724.0</ele>
        <time>2018-08-13T13:28:42Z</time>
      </trkpt>
      <trkpt lat="40.609067" lon="-4.827917">
        <ele>1727.0</ele>
        <time>2018-08-13T13:28:43Z</time>
      </trkpt>
      <trkpt lat="40.608983" lon="-4.827833">
        <ele>1729.0</ele>
        <time>2018-08-13T13:28:44Z</time>
      </trkpt>
      <trkpt lat="40.608883" lon="-4.827750">
        <ele>1731.0</ele>
        <time>2018-08-13T13:28:45Z</time>
      </trkpt>
      <trkpt lat="40.608783" lon="-4.827667">
        <ele>1732.0</ele>
        <time>2018-08-13T13:28:46Z</time>
      </trkpt>
      <trkpt lat="40.608683" lon="-4.827583">
        <ele>1733.0</ele>
        <time>2018-08-13T13:28:47Z</time>
      </trkpt>
      <trkpt lat="40.608583" lon="-4.827450">
        <ele>1734.0</ele>
        <time>2018-08-13T13:28:48Z</time>
      </trkpt>
      <trkpt lat="40.608500" lon="-4.827317">
        <ele>1736.0</ele>
        <time>2018-08-13T13:28:49Z</time>
      </trkpt>
      <trkpt lat="40.608417" lon="-4.827150">
        <ele>1738.0</ele>
        <time>2018-08-13T13:28:50Z</time>
      </trkpt>
      <trkpt lat="40.608367" lon="-4.826983">
        <ele>1740.0</ele>
        <time>2018-08-13T13:28:51Z</time>
      </trkpt>
      <trkpt lat="40.608300" lon="-4.826800">
        <ele>1744.0</ele>
        <time>2018-08-13T13:28:52Z</time>
      </trkpt>
      <trkpt lat="40.608267" lon="-4.826617">
        <ele>1746.0</ele>
        <time>2018-08-13T13:28:53Z</time>
      </trkpt>
      <trkpt lat="40.608250" lon="-4.826433">
        <ele>1749.0</ele>
        <time>2018-08-13T13:28:54Z</time>
      </trkpt>
      <trkpt lat="40.608250" lon="-4.826250">
        <ele>1752.0</ele>
        <time>2018-08-13T13:28:55Z</time>
      </trkpt>
      <trkpt lat="40.608250" lon="-4.826083">
        <ele>1755.0</ele>
        <time>2018-08-13T13:28:56Z</time>
      </trkpt>
      <trkpt lat="40.608217" lon="-4.825933">
        <ele>1758.0</ele>
        <time>2018-08-13T13:28:57Z</time>
      </trkpt>
      <trkpt lat="40.608217" lon="-4.825783">
        <ele>1760.0</ele>
        <time>2018-08-13T13:28:58Z</time>
      </trkpt>
      <trkpt lat="40.608233" lon="-4.825650">
        <ele>1761.0</ele>
        <time>2018-08-13T13:28:59Z</time>
      </trkpt>
      <trkpt lat="40.608267" lon="-4.825517">
        <ele>1760.0</ele>
        <time>2018-08-13T13:29:00Z</time>
      </trkpt>
      <trkpt lat="40.608317" lon="-4.825383">
        <ele>1760.0</ele>
        <time>2018-08-13T13:29:01Z</time>
      </trkpt>
      <trkpt lat="40.608383" lon="-4.825300">
        <ele>1761.0</ele>
        <time>2018-08-13T13:29:02Z</time>
      </trkpt>
      <trkpt lat="40.608450" lon="-4.825267">
        <ele>1762.0</ele>
        <time>2018-08-13T13:29:03Z</time>
      </trkpt>
      <trkpt lat="40.608483" lon="-4.825283">
        <ele>1764.0</ele>
        <time>2018-08-13T13:29:04Z</time>
      </trkpt>
      <trkpt lat="40.608500" lon="-4.825333">
        <ele>1764.0</ele>
        <time>2018-08-13T13:29:05Z</time>
      </trkpt>
      <trkpt lat="40.608483" lon="-4.825383">
        <ele>1765.0</ele>
        <time>2018-08-13T13:29:06Z</time>
      </trkpt>
      <trkpt lat="40.608450" lon="-4.825450">
        <ele>1766.0</ele>
        <time>2018-08-13T13:29:07Z</time>
      </trkpt>
      <trkpt lat="40.608383" lon="-4.825500">
        <ele>1769.0</ele>
        <time>2018-08-13T13:29:08Z</time>
      </trkpt>
      <trkpt lat="40.608317" lon="-4.825550">
        <ele>1772.0</ele>
        <time>2018-08-13T13:29:09Z</time>
      </trkpt>
      <trkpt lat="40.608250" lon="-4.825583">
        <ele>1776.0</ele>
        <time>2018-08-13T13:29:10Z</time>
      </trkpt>
      <trkpt lat="40.608183" lon="-4.825600">
        <ele>1779.0</ele>
        <time>2018-08-13T13:29:11Z</time>
      </trkpt>
      <trkpt lat="40.608100" lon="-4.825600">
        <ele>1781.0</ele>
        <time>2018-08-13T13:29:12Z</time>
      </trkpt>
      <trkpt lat="40.608000" lon="-4.825600">
        <ele>1782.0</ele>
        <time>2018-08-13T13:29:13Z</time>
      </trkpt>
      <trkpt lat="40.607883" lon="-4.825550">
        <ele>1783.0</ele>
        <time>2018-08-13T13:29:14Z</time>
      </trkpt>
      <trkpt lat="40.607767" lon="-4.825483">
        <ele>1784.0</ele>
        <time>2018-08-13T13:29:15Z</time>
      </trkpt>
      <trkpt lat="40.607650" lon="-4.825383">
        <ele>1786.0</ele>
        <time>2018-08-13T13:29:16Z</time>
      </trkpt>
      <trkpt lat="40.607550" lon="-4.825233">
        <ele>1787.0</ele>
        <time>2018-08-13T13:29:17Z</time>
      </trkpt>
      <trkpt lat="40.607483" lon="-4.825067">
        <ele>1790.0</ele>
        <time>2018-08-13T13:29:18Z</time>
      </trkpt>
      <trkpt lat="40.607450" lon="-4.824883">
        <ele>1792.0</ele>
        <time>2018-08-13T13:29:19Z</time>
      </trkpt>
      <trkpt lat="40.607450" lon="-4.824717">
        <ele>1794.0</ele>
        <time>2018-08-13T13:29:20Z</time>
      </trkpt>
      <trkpt lat="40.607450" lon="-4.824550">
        <ele>1796.0</ele>
        <time>2018-08-13T13:29:21Z</time>
      </trkpt>
      <trkpt lat="40.607483" lon="-4.824400">
        <ele>1798.0</ele>
        <time>2018-08-13T13:29:22Z</time>
      </trkpt>
      <trkpt lat="40.607533" lon="-4.824283">
        <ele>1799.0</ele>
        <time>2018-08-13T13:29:23Z</time>
      </trkpt>
      <trkpt lat="40.607583" lon="-4.824200">
        <ele>1800.0</ele>
        <time>2018-08-13T13:29:24Z</time>
      </trkpt>
      <trkpt lat="40.607650" lon="-4.824183">
        <ele>1801.0</ele>
        <time>2018-08-13T13:29:25Z</time>
      </trkpt>
      <trkpt lat="40.607683" lon="-4.824183">
        <ele>1803.0</ele>
        <time>2018-08-13T13:29:26Z</time>
      </trkpt>
      <trkpt lat="40.607717" lon="-4.824217">
        <ele>1804.0</ele>
        <time>2018-08-13T13:29:27Z</time>
      </trkpt>
      <trkpt lat="40.607733" lon="-4.824283">
        <ele>1806.0</ele>
        <time>2018-08-13T13:29:28Z</time>
      </trkpt>
      <trkpt lat="40.607717" lon="-4.824350">
        <ele>1808.0</ele>
        <time>2018-08-13T13:29:29Z</time>
      </trkpt>
      <trkpt lat="40.607683" lon="-4.824433">
        <ele>1811.0</ele>
        <time>2018-08-13T13:29:30Z</time>
      </trkpt>
      <trkpt lat="40.607617" lon="-4.824483">
        <ele>1814.0</ele>
        <time>2018-08-13T13:29:31Z</time>
      </trkpt>
      <trkpt lat="40.607550" lon="-4.824517">
        <ele>1817.0</ele>
        <time>2018-08-13T13:29:32Z</time>
      </trkpt>
      <trkpt lat="40.607433" lon="-4.824517">
        <ele>1818.0</ele>
        <time>2018-08-13T13:29:33Z</time>
      </trkpt>
      <trkpt lat="40.607317" lon="-4.824483">
        <ele>1818.0</ele>
        <time>2018-08-13T13:29:34Z</time>
      </trkpt>
      <trkpt lat="40.607200" lon="-4.824433">
        <ele>1819.0</ele>
        <time>2018-08-13T13:29:35Z</time>
      </trkpt>
      <trkpt lat="40.607083" lon="-4.824317">
        <ele>1821.0</ele>
        <time>2018-08-13T13:29:36Z</time>
      </trkpt>
      <trkpt lat="40.607000" lon="-4.824167">
        <ele>1823.0</ele>
        <time>2018-08-13T13:29:37Z</time>
      </trkpt>
      <trkpt lat="40.606950" lon="-4.823983">
        <ele>1824.0</ele>
        <time>2018-08-13T13:29:38Z</time>
      </trkpt>
      <trkpt lat="40.606933" lon="-4.823800">
        <ele>1825.0</ele>
        <time>2018-08-13T13:29:39Z</time>
      </trkpt>
      <trkpt lat="40.606950" lon="-4.823617">
        <ele>1827.0</ele>
        <time>2018-08-13T13:29:40Z</time>
      </trkpt>
      <trkpt lat="40.606983" lon="-4.823467">
        <ele>1829.0</ele>
        <time>2018-08-13T13:29:41Z</time>
      </trkpt>
      <trkpt lat="40.607017" lon="-4.823333">
        <ele>1832.0</ele>
        <time>2018-08-13T13:29:42Z</time>
      </trkpt>
      <trkpt lat="40.607083" lon="-4.823250">
        <ele>1834.0</ele>
        <time>2018-08-13T13:29:43Z</time>
      </trkpt>
      <trkpt lat="40.607133" lon="-4.823183">
        <ele>1836.0</ele>
        <time>2018-08-13T13:29:44Z</time>
      </trkpt>
      <trkpt lat="40.607183" lon="-4.823167">
        <ele>1838.0</ele>
        <time>2018-08-13T13:29:45Z</time>
      </trkpt>
      <trkpt lat="40.607233" lon="-4.823167">
        <ele>1839.0</ele>
        <time>2018-08-13T13:29:46Z</time>
      </trkpt>
      <trkpt lat="40.607283" lon="-4.823200">
        <ele>1841.0</ele>
        <time>2018-08-13T13:29:47Z</time>
      </trkpt>
      <trkpt lat="40.607317" lon="-4.823267">
        <ele>1843.0</ele>
        <time>2018-08-13T13:29:48Z</time>
      </trkpt>
      <trkpt lat="40.607317" lon="-4.823333">
        <ele>1846.0</ele>
        <time>2018-08-13T13:29:49Z</time>
      </trkpt>
      <trkpt lat="40.607283" lon="-4.823400">
        <ele>1849.0</ele>
        <time>2018-08-13T13:29:50Z</time>
      </trkpt>
      <trkpt lat="40.607217" lon="-4.823467">
        <ele>1851.0</ele>
        <time>2018-08-13T13:29:51Z</time>
      </trkpt>
      <trkpt lat="40.607133" lon="-4.823500">
        <ele>1853.0</ele>
        <time>2018-08-13T13:29:52Z</time>
      </trkpt>
      <trkpt lat="40.607033" lon="-4.823517">
        <ele>1855.0</ele>
        <time>2018-08-13T13:29:53Z</time>
      </trkpt>
      <trkpt lat="40.606933" lon="-4.823500">
        <ele>1857.0</ele>
        <time>2018-08-13T13:29:54Z</time>
      </trkpt>
      <trkpt lat="40.606817" lon="-4.823450">
        <ele>1858.0</ele>
        <time>2018-08-13T13:29:55Z</time>
      </trkpt>
      <trkpt lat="40.606717" lon="-4.823367">
        <ele>1859.0</ele>
        <time>2018-08-13T13:29:56Z</time>
      </trkpt>
      <trkpt lat="40.606600" lon="-4.823233">
        <ele>1859.0</ele>
        <time>2018-08-13T13:29:57Z</time>
      </trkpt>
      <trkpt lat="40.606517" lon="-4.823067">
        <ele>1861.0</ele>
        <time>2018-08-13T13:29:58Z</time>
      </trkpt>
      <trkpt lat="40.606450" lon="-4.822883">
        <ele>1864.0</ele>
        <time>2018-08-13T13:29:59Z</time>
      </trkpt>
      <trkpt lat="40.606433" lon="-4.822717">
        <ele>1866.0</ele>
        <time>2018-08-13T13:30:00Z</time>
      </trkpt>
      <trkpt lat="40.606417" lon="-4.822533">
        <ele>1869.0</ele>
        <time>2018-08-13T13:30:01Z</time>
      </trkpt>
      <trkpt lat="40.606433" lon="-4.822383">
        <ele>1871.0</ele>
        <time>2018-08-13T13:30:02Z</time>
      </trkpt>
      <trkpt lat="40.606450" lon="-4.822233">
        <ele>1873.0</ele>
        <time>2018-08-13T13:30:03Z</time>
      </trkpt>
      <trkpt lat="40.606483" lon="-4.822100">
        <ele>1875.0</ele>
        <time>2018-08-13T13:30:04Z</time>
      </trkpt>
      <trkpt lat="40.606533" lon="-4.821967">
        <ele>1876.0</ele>
        <time>2018-08-13T13:30:05Z</time>
      </trkpt>
      <trkpt lat="40.606600" lon="-4.821883">
        <ele>1877.0</ele>
        <time>2018-08-13T13:30:06Z</time>
      </trkpt>
      <trkpt lat="40.606683" lon="-4.821817">
        <ele>1878.0</ele>
        <time>2018-08-13T13:30:07Z</time>
      </trkpt>
      <trkpt lat="40.606767" lon="-4.821783">
        <ele>1880.0</ele>
        <time>2018-08-13T13:30:08Z</time>
      </trkpt>
      <trkpt lat="40.606833" lon="-4.821767">
        <ele>1884.0</ele>
        <time>2018-08-13T13:30:09Z</time>
      </trkpt>
      <trkpt lat="40.606867" lon="-4.821767">
        <ele>1887.0</ele>
        <time>2018-08-13T13:30:10Z</time>
      </trkpt>
      <trkpt lat="40.606900" lon="-4.821783">
        <ele>1889.0</ele>
        <time>2018-08-13T13:30:11Z</time>
      </trkpt>
      <trkpt lat="40.606933" lon="-4.821800">
        <ele>1892.0</ele>
        <time>2018-08-13T13:30:12Z</time>
      </trkpt>
      <trkpt lat="40.606950" lon="-4.821817">
        <ele>1894.0</ele>
        <time>2018-08-13T13:30:13Z</time>
      </trkpt>
      <trkpt lat="40.606983" lon="-4.821850">
        <ele>1896.0</ele>
        <time>2018-08-13T13:30:14Z</time>
      </trkpt>
      <trkpt lat="40.607000" lon="-4.821900">
        <ele>1897.0</ele>
        <time>2018-08-13T13:30:15Z</time>
      </trkpt>
      <trkpt lat="40.607000" lon="-4.821950">
        <ele>1899.0</ele>
        <time>2018-08-13T13:30:16Z</time>
      </trkpt>
      <trkpt lat="40.606983" lon="-4.822017">
        <ele>1900.0</ele>
        <time>2018-08-13T13:30:17Z</time>
      </trkpt>
      <trkpt lat="40.606933" lon="-4.822050">
        <ele>1902.0</ele>
        <time>2018-08-13T13:30:18Z</time>
      </trkpt>
      <trkpt lat="40.606867" lon="-4.822083">
        <ele>1904.0</ele>
        <time>2018-08-13T13:30:19Z</time>
      </trkpt>
      <trkpt lat="40.606783" lon="-4.822083">
        <ele>1905.0</ele>
        <time>2018-08-13T13:30:20Z</time>
      </trkpt>
      <trkpt lat="40.606683" lon="-4.822067">
        <ele>1906.0</ele>
        <time>2018-08-13T13:30:21Z</time>
      </trkpt>
      <trkpt lat="40.606600" lon="-4.822033">
        <ele>1907.0</ele>
        <time>2018-08-13T13:30:22Z</time>
      </trkpt>
      <trkpt lat="40.606483" lon="-4.821967">
        <ele>1908.0</ele>
        <time>2018-08-13T13:30:23Z</time>
      </trkpt>
      <trkpt lat="40.606383" lon="-4.821883">
        <ele>1908.0</ele>
        <time>2018-08-13T13:30:24Z</time>
      </trkpt>
      <trkpt lat="40.606267" lon="-4.821767">
        <ele>1909.0</ele>
        <time>2018-08-13T13:30:25Z</time>
      </trkpt>
      <trkpt lat="40.606183" lon="-4.821617">
        <ele>1910.0</ele>
        <time>2018-08-13T13:30:26Z</time>
      </trkpt>
      <trkpt lat="40.606100" lon="-4.821450">
        <ele>1913.0</ele>
        <time>2018-08-13T13:30:27Z</time>
      </trkpt>
      <trkpt lat="40.606050" lon="-4.821283">
        <ele>1915.0</ele>
        <time>2018-08-13T13:30:28Z</time>
      </trkpt>
      <trkpt lat="40.606033" lon="-4.821117">
        <ele>1917.0</ele>
        <time>2018-08-13T13:30:29Z</time>
      </trkpt>
      <trkpt lat="40.606017" lon="-4.820950">
        <ele>1918.0</ele>
        <time>2018-08-13T13:30:30Z</time>
      </trkpt>
      <trkpt lat="40.606017" lon="-4.820750">
        <ele>1920.0</ele>
        <time>2018-08-13T13:30:31Z</time>
      </trkpt>
      <trkpt lat="40.606017" lon="-4.820567">
        <ele>1923.0</ele>
        <time>2018-08-13T13:30:32Z</time>
      </trkpt>
      <trkpt lat="40.606017" lon="-4.820400">
        <ele>1926.0</ele>
        <time>2018-08-13T13:30:33Z</time>
      </trkpt>
      <trkpt lat="40.606017" lon="-4.820250">
        <ele>1929.0</ele>
        <time>2018-08-13T13:30:34Z</time>
      </trkpt>
      <trkpt lat="40.606017" lon="-4.820100">
        <ele>1930.0</ele>
        <time>2018-08-13T13:30:35Z</time>
      </trkpt>
      <trkpt lat="40.606017" lon="-4.819950">
        <ele>1930.0</ele>
        <time>2018-08-13T13:30:36Z</time>
      </trkpt>
      <trkpt lat="40.606050" lon="-4.819800">
        <ele>1928.0</ele>
        <time>2018-08-13T13:30:37Z</time>
      </trkpt>
      <trkpt lat="40.606100" lon="-4.819667">
        <ele>1926.0</ele>
        <time>2018-08-13T13:30:38Z</time>
      </trkpt>
      <trkpt lat="40.606167" lon="-4.819567">
        <ele>1925.0</ele>
        <time>2018-08-13T13:30:39Z</time>
      </trkpt>
      <trkpt lat="40.606250" lon="-4.819483">
        <ele>1925.0</ele>
        <time>2018-08-13T13:30:40Z</time>
      </trkpt>
      <trkpt lat="40.606350" lon="-4.819450">
        <ele>1925.0</ele>
        <time>2018-08-13T13:30:41Z</time>
      </trkpt>
      <trkpt lat="40.606417" lon="-4.819467">
        <ele>1925.0</ele>
        <time>2018-08-13T13:30:42Z</time>
      </trkpt>
      <trkpt lat="40.606483" lon="-4.819500">
        <ele>1927.0</ele>
        <time>2018-08-13T13:30:43Z</time>
      </trkpt>
      <trkpt lat="40.606517" lon="-4.819550">
        <ele>1928.0</ele>
        <time>2018-08-13T13:30:44Z</time>
      </trkpt>
      <trkpt lat="40.606517" lon="-4.819633">
        <ele>1929.0</ele>
        <time>2018-08-13T13:30:45Z</time>
      </trkpt>
      <trkpt lat="40.606500" lon="-4.819700">
        <ele>1929.0</ele>
        <time>2018-08-13T13:30:46Z</time>
      </trkpt>
      <trkpt lat="40.606483" lon="-4.819783">
        <ele>1929.0</ele>
        <time>2018-08-13T13:30:47Z</time>
      </trkpt>
      <trkpt lat="40.606433" lon="-4.819850">
        <ele>1929.0</ele>
        <time>2018-08-13T13:30:48Z</time>
      </trkpt>
      <trkpt lat="40.606367" lon="-4.819933">
        <ele>1931.0</ele>
        <time>2018-08-13T13:30:49Z</time>
      </trkpt>
      <trkpt lat="40.606283" lon="-4.819983">
        <ele>1933.0</ele>
        <time>2018-08-13T13:30:50Z</time>
      </trkpt>
      <trkpt lat="40.606183" lon="-4.820017">
        <ele>1936.0</ele>
        <time>2018-08-13T13:30:51Z</time>
      </trkpt>
      <trkpt lat="40.606100" lon="-4.820050">
        <ele>1941.0</ele>
        <time>2018-08-13T13:30:52Z</time>
      </trkpt>
      <trkpt lat="40.606033" lon="-4.820067">
        <ele>1944.0</ele>
        <time>2018-08-13T13:30:53Z</time>
      </trkpt>
      <trkpt lat="40.605967" lon="-4.820083">
        <ele>1947.0</ele>
        <time>2018-08-13T13:30:54Z</time>
      </trkpt>
      <trkpt lat="40.605883" lon="-4.820083">
        <ele>1949.0</ele>
        <time>2018-08-13T13:30:55Z</time>
      </trkpt>
      <trkpt lat="40.605800" lon="-4.820067">
        <ele>1950.0</ele>
        <time>2018-08-13T13:30:56Z</time>
      </trkpt>
      <trkpt lat="40.605700" lon="-4.820050">
        <ele>1950.0</ele>
        <time>2018-08-13T13:30:57Z</time>
      </trkpt>
      <trkpt lat="40.605583" lon="-4.820000">
        <ele>1951.0</ele>
        <time>2018-08-13T13:30:58Z</time>
      </trkpt>
      <trkpt lat="40.605467" lon="-4.819933">
        <ele>1953.0</ele>
        <time>2018-08-13T13:30:59Z</time>
      </trkpt>
      <trkpt lat="40.605367" lon="-4.819833">
        <ele>1955.0</ele>
        <time>2018-08-13T13:31:00Z</time>
      </trkpt>
      <trkpt lat="40.605283" lon="-4.819717">
        <ele>1957.0</ele>
        <time>2018-08-13T13:31:01Z</time>
      </trkpt>
      <trkpt lat="40.605200" lon="-4.819583">
        <ele>1959.0</ele>
        <time>2018-08-13T13:31:02Z</time>
      </trkpt>
      <trkpt lat="40.605150" lon="-4.819417">
        <ele>1961.0</ele>
        <time>2018-08-13T13:31:03Z</time>
      </trkpt>
      <trkpt lat="40.605100" lon="-4.819267">
        <ele>1963.0</ele>
        <time>2018-08-13T13:31:04Z</time>
      </trkpt>
      <trkpt lat="40.605083" lon="-4.819100">
        <ele>1964.0</ele>
        <time>2018-08-13T13:31:05Z</time>
      </trkpt>
      <trkpt lat="40.605100" lon="-4.818933">
        <ele>1965.0</ele>
        <time>2018-08-13T13:31:06Z</time>
      </trkpt>
      <trkpt lat="40.605133" lon="-4.818783">
        <ele>1966.0</ele>
        <time>2018-08-13T13:31:07Z</time>
      </trkpt>
      <trkpt lat="40.605183" lon="-4.818683">
        <ele>1966.0</ele>
        <time>2018-08-13T13:31:08Z</time>
      </trkpt>
      <trkpt lat="40.605250" lon="-4.818600">
        <ele>1965.0</ele>
        <time>2018-08-13T13:31:09Z</time>
      </trkpt>
      <trkpt lat="40.605333" lon="-4.818567">
        <ele>1965.0</ele>
        <time>2018-08-13T13:31:10Z</time>
      </trkpt>
      <trkpt lat="40.605417" lon="-4.818550">
        <ele>1966.0</ele>
        <time>2018-08-13T13:31:11Z</time>
      </trkpt>
      <trkpt lat="40.605467" lon="-4.818583">
        <ele>1968.0</ele>
        <time>2018-08-13T13:31:12Z</time>
      </trkpt>
      <trkpt lat="40.605500" lon="-4.818633">
        <ele>1971.0</ele>
        <time>2018-08-13T13:31:13Z</time>
      </trkpt>
      <trkpt lat="40.605517" lon="-4.818667">
        <ele>1973.0</ele>
        <time>2018-08-13T13:31:14Z</time>
      </trkpt>
      <trkpt lat="40.605517" lon="-4.818717">
        <ele>1975.0</ele>
        <time>2018-08-13T13:31:15Z</time>
      </trkpt>
      <trkpt lat="40.605500" lon="-4.818750">
        <ele>1977.0</ele>
        <time>2018-08-13T13:31:16Z</time>
      </trkpt>
      <trkpt lat="40.605483" lon="-4.818800">
        <ele>1978.0</ele>
        <time>2018-08-13T13:31:17Z</time>
      </trkpt>
      <trkpt lat="40.605433" lon="-4.818850">
        <ele>1979.0</ele>
        <time>2018-08-13T13:31:18Z</time>
      </trkpt>
      <trkpt lat="40.605367" lon="-4.818883">
        <ele>1979.0</ele>
        <time>2018-08-13T13:31:19Z</time>
      </trkpt>
      <trkpt lat="40.605267" lon="-4.818900">
        <ele>1978.0</ele>
        <time>2018-08-13T13:31:20Z</time>
      </trkpt>
      <trkpt lat="40.605167" lon="-4.818917">
        <ele>1979.0</ele>
        <time>2018-08-13T13:31:21Z</time>
      </trkpt>
      <trkpt lat="40.605050" lon="-4.818900">
        <ele>1981.0</ele>
        <time>2018-08-13T13:31:22Z</time>
      </trkpt>
      <trkpt lat="40.604950" lon="-4.818883">
        <ele>1984.0</ele>
        <time>2018-08-13T13:31:23Z</time>
      </trkpt>
      <trkpt lat="40.604850" lon="-4.818833">
        <ele>1987.0</ele>
        <time>2018-08-13T13:31:24Z</time>
      </trkpt>
      <trkpt lat="40.604750" lon="-4.818767">
        <ele>1988.0</ele>
        <time>2018-08-13T13:31:25Z</time>
      </trkpt>
      <trkpt lat="40.604650" lon="-4.818667">
        <ele>1989.0</ele>
        <time>2018-08-13T13:31:26Z</time>
      </trkpt>
      <trkpt lat="40.604550" lon="-4.818567">
        <ele>1990.0</ele>
        <time>2018-08-13T13:31:27Z</time>
      </trkpt>
      <trkpt lat="40.604433" lon="-4.818450">
        <ele>1991.0</ele>
        <time>2018-08-13T13:31:28Z</time>
      </trkpt>
      <trkpt lat="40.604333" lon="-4.818317">
        <ele>1993.0</ele>
        <time>2018-08-13T13:31:29Z</time>
      </trkpt>
      <trkpt lat="40.604250" lon="-4.818200">
        <ele>1995.0</ele>
        <time>2018-08-13T13:31:30Z</time>
      </trkpt>
      <trkpt lat="40.604183" lon="-4.818050">
        <ele>1997.0</ele>
        <time>2018-08-13T13:31:31Z</time>
      </trkpt>
      <trkpt lat="40.604117" lon="-4.817900">
        <ele>1997.0</ele>
        <time>2018-08-13T13:31:32Z</time>
      </trkpt>
      <trkpt lat="40.604067" lon="-4.817733">
        <ele>1997.0</ele>
        <time>2018-08-13T13:31:33Z</time>
      </trkpt>
      <trkpt lat="40.604033" lon="-4.817567">
        <ele>1997.0</ele>
        <time>2018-08-13T13:31:34Z</time>
      </trkpt>
      <trkpt lat="40.604017" lon="-4.817400">
        <ele>1997.0</ele>
        <time>2018-08-13T13:31:35Z</time>
      </trkpt>
      <trkpt lat="40.604033" lon="-4.817233">
        <ele>1998.0</ele>
        <time>2018-08-13T13:31:36Z</time>
      </trkpt>
      <trkpt lat="40.604033" lon="-4.817083">
        <ele>1998.0</ele>
        <time>2018-08-13T13:31:37Z</time>
      </trkpt>
      <trkpt lat="40.604067" lon="-4.816933">
        <ele>1998.0</ele>
        <time>2018-08-13T13:31:38Z</time>
      </trkpt>
      <trkpt lat="40.604100" lon="-4.816783">
        <ele>1997.0</ele>
        <time>2018-08-13T13:31:39Z</time>
      </trkpt>
      <trkpt lat="40.604167" lon="-4.816650">
        <ele>1996.0</ele>
        <time>2018-08-13T13:31:40Z</time>
      </trkpt>
      <trkpt lat="40.604233" lon="-4.816533">
        <ele>1996.0</ele>
        <time>2018-08-13T13:31:41Z</time>
      </trkpt>
      <trkpt lat="40.604300" lon="-4.816417">
        <ele>1997.0</ele>
        <time>2018-08-13T13:31:42Z</time>
      </trkpt>
      <trkpt lat="40.604367" lon="-4.816333">
        <ele>1999.0</ele>
        <time>2018-08-13T13:31:43Z</time>
      </trkpt>
      <trkpt lat="40.604433" lon="-4.816250">
        <ele>2001.0</ele>
        <time>2018-08-13T13:31:44Z</time>
      </trkpt>
      <trkpt lat="40.604500" lon="-4.816167">
        <ele>2001.0</ele>
        <time>2018-08-13T13:31:45Z</time>
      </trkpt>
      <trkpt lat="40.604567" lon="-4.816083">
        <ele>2001.0</ele>
        <time>2018-08-13T13:31:46Z</time>
      </trkpt>
      <trkpt lat="40.604633" lon="-4.816017">
        <ele>2001.0</ele>
        <time>2018-08-13T13:31:47Z</time>
      </trkpt>
      <trkpt lat="40.604717" lon="-4.815933">
        <ele>2000.0</ele>
        <time>2018-08-13T13:31:48Z</time>
      </trkpt>
      <trkpt lat="40.604783" lon="-4.815867">
        <ele>2000.0</ele>
        <time>2018-08-13T13:31:49Z</time>
      </trkpt>
      <trkpt lat="40.604867" lon="-4.815833">
        <ele>2001.0</ele>
        <time>2018-08-13T13:31:50Z</time>
      </trkpt>
      <trkpt lat="40.604933" lon="-4.815833">
        <ele>2001.0</ele>
        <time>2018-08-13T13:31:51Z</time>
      </trkpt>
      <trkpt lat="40.605017" lon="-4.815833">
        <ele>2001.0</ele>
        <time>2018-08-13T13:31:52Z</time>
      </trkpt>
      <trkpt lat="40.605083" lon="-4.815850">
        <ele>2003.0</ele>
        <time>2018-08-13T13:31:53Z</time>
      </trkpt>
      <trkpt lat="40.605133" lon="-4.815867">
        <ele>2005.0</ele>
        <time>2018-08-13T13:31:54Z</time>
      </trkpt>
      <trkpt lat="40.605167" lon="-4.815867">
        <ele>2006.0</ele>
        <time>2018-08-13T13:31:55Z</time>
      </trkpt>
      <trkpt lat="40.605200" lon="-4.815883">
        <ele>2007.0</ele>
        <time>2018-08-13T13:31:56Z</time>
      </trkpt>
      <trkpt lat="40.605233" lon="-4.815900">
        <ele>2007.0</ele>
        <time>2018-08-13T13:31:57Z</time>
      </trkpt>
      <trkpt lat="40.605250" lon="-4.815950">
        <ele>2006.0</ele>
        <time>2018-08-13T13:31:58Z</time>
      </trkpt>
      <trkpt lat="40.605267" lon="-4.816017">
        <ele>2005.0</ele>
        <time>2018-08-13T13:31:59Z</time>
      </trkpt>
      <trkpt lat="40.605267" lon="-4.816100">
        <ele>2005.0</ele>
        <time>2018-08-13T13:32:00Z</time>
      </trkpt>
      <trkpt lat="40.605233" lon="-4.816183">
        <ele>2005.0</ele>
        <time>2018-08-13T13:32:01Z</time>
      </trkpt>
      <trkpt lat="40.605200" lon="-4.816233">
        <ele>2006.0</ele>
        <time>2018-08-13T13:32:02Z</time>
      </trkpt>
      <trkpt lat="40.605133" lon="-4.816283">
        <ele>2007.0</ele>
        <time>2018-08-13T13:32:03Z</time>
      </trkpt>
      <trkpt lat="40.605050" lon="-4.816300">
        <ele>2007.0</ele>
        <time>2018-08-13T13:32:04Z</time>
      </trkpt>
      <trkpt lat="40.604967" lon="-4.816300">
        <ele>2007.0</ele>
        <time>2018-08-13T13:32:05Z</time>
      </trkpt>
      <trkpt lat="40.604867" lon="-4.816300">
        <ele>2008.0</ele>
        <time>2018-08-13T13:32:06Z</time>
      </trkpt>
      <trkpt lat="40.604767" lon="-4.816267">
        <ele>2010.0</ele>
        <time>2018-08-13T13:32:07Z</time>
      </trkpt>
      <trkpt lat="40.604667" lon="-4.816200">
        <ele>2011.0</ele>
        <time>2018-08-13T13:32:08Z</time>
      </trkpt>
      <trkpt lat="40.604567" lon="-4.816100">
        <ele>2011.0</ele>
        <time>2018-08-13T13:32:09Z</time>
      </trkpt>
      <trkpt lat="40.604467" lon="-4.815967">
        <ele>2011.0</ele>
        <time>2018-08-13T13:32:10Z</time>
      </trkpt>
      <trkpt lat="40.604367" lon="-4.815817">
        <ele>2012.0</ele>
        <time>2018-08-13T13:32:11Z</time>
      </trkpt>
      <trkpt lat="40.604267" lon="-4.815667">
        <ele>2014.0</ele>
        <time>2018-08-13T13:32:12Z</time>
      </trkpt>
      <trkpt lat="40.604183" lon="-4.815533">
        <ele>2017.0</ele>
        <time>2018-08-13T13:32:13Z</time>
      </trkpt>
      <trkpt lat="40.604100" lon="-4.815417">
        <ele>2019.0</ele>
        <time>2018-08-13T13:32:14Z</time>
      </trkpt>
      <trkpt lat="40.604033" lon="-4.815300">
        <ele>2020.0</ele>
        <time>2018-08-13T13:32:15Z</time>
      </trkpt>
      <trkpt lat="40.603967" lon="-4.815167">
        <ele>2020.0</ele>
        <time>2018-08-13T13:32:16Z</time>
      </trkpt>
      <trkpt lat="40.603900" lon="-4.815033">
        <ele>2020.0</ele>
        <time>2018-08-13T13:32:17Z</time>
      </trkpt>
      <trkpt lat="40.603833" lon="-4.814883">
        <ele>2019.0</ele>
        <time>2018-08-13T13:32:18Z</time>
      </trkpt>
      <trkpt lat="40.603783" lon="-4.814700">
        <ele>2018.0</ele>
        <time>2018-08-13T13:32:19Z</time>
      </trkpt>
      <trkpt lat="40.603733" lon="-4.814517">
        <ele>2018.0</ele>
        <time>2018-08-13T13:32:20Z</time>
      </trkpt>
      <trkpt lat="40.603700" lon="-4.814333">
        <ele>2019.0</ele>
        <time>2018-08-13T13:32:21Z</time>
      </trkpt>
      <trkpt lat="40.603667" lon="-4.814167">
        <ele>2021.0</ele>
        <time>2018-08-13T13:32:22Z</time>
      </trkpt>
      <trkpt lat="40.603633" lon="-4.814000">
        <ele>2021.0</ele>
        <time>2018-08-13T13:32:23Z</time>
      </trkpt>
      <trkpt lat="40.603617" lon="-4.813817">
        <ele>2021.0</ele>
        <time>2018-08-13T13:32:24Z</time>
      </trkpt>
      <trkpt lat="40.603600" lon="-4.813633">
        <ele>2019.0</ele>
        <time>2018-08-13T13:32:25Z</time>
      </trkpt>
      <trkpt lat="40.603600" lon="-4.813450">
        <ele>2018.0</ele>
        <time>2018-08-13T13:32:26Z</time>
      </trkpt>
      <trkpt lat="40.603633" lon="-4.813283">
        <ele>2017.0</ele>
        <time>2018-08-13T13:32:27Z</time>
      </trkpt>
      <trkpt lat="40.603650" lon="-4.813133">
        <ele>2017.0</ele>
        <time>2018-08-13T13:32:28Z</time>
      </trkpt>
      <trkpt lat="40.603683" lon="-4.812983">
        <ele>2017.0</ele>
        <time>2018-08-13T13:32:29Z</time>
      </trkpt>
      <trkpt lat="40.603717" lon="-4.812833">
        <ele>2017.0</ele>
        <time>2018-08-13T13:32:30Z</time>
      </trkpt>
      <trkpt lat="40.603750" lon="-4.812700">
        <ele>2016.0</ele>
        <time>2018-08-13T13:32:31Z</time>
      </trkpt>
      <trkpt lat="40.603800" lon="-4.812550">
        <ele>2016.0</ele>
        <time>2018-08-13T13:32:32Z</time>
      </trkpt>
      <trkpt lat="40.603867" lon="-4.812417">
        <ele>2015.0</ele>
        <time>2018-08-13T13:32:33Z</time>
      </trkpt>
      <trkpt lat="40.603917" lon="-4.812267">
        <ele>2015.0</ele>
        <time>2018-08-13T13:32:34Z</time>
      </trkpt>
      <trkpt lat="40.603983" lon="-4.812117">
        <ele>2014.0</ele>
        <time>2018-08-13T13:32:35Z</time>
      </trkpt>
      <trkpt lat="40.604017" lon="-4.811983">
        <ele>2014.0</ele>
        <time>2018-08-13T13:32:36Z</time>
      </trkpt>
      <trkpt lat="40.604050" lon="-4.811850">
        <ele>2013.0</ele>
        <time>2018-08-13T13:32:37Z</time>
      </trkpt>
      <trkpt lat="40.604100" lon="-4.811733">
        <ele>2011.0</ele>
        <time>2018-08-13T13:32:38Z</time>
      </trkpt>
      <trkpt lat="40.604150" lon="-4.811633">
        <ele>2008.0</ele>
        <time>2018-08-13T13:32:39Z</time>
      </trkpt>
      <trkpt lat="40.604217" lon="-4.811533">
        <ele>2005.0</ele>
        <time>2018-08-13T13:32:40Z</time>
      </trkpt>
      <trkpt lat="40.604300" lon="-4.811417">
        <ele>2001.0</ele>
        <time>2018-08-13T13:32:41Z</time>
      </trkpt>
      <trkpt lat="40.604383" lon="-4.811300">
        <ele>1999.0</ele>
        <time>2018-08-13T13:32:42Z</time>
      </trkpt>
      <trkpt lat="40.604450" lon="-4.811183">
        <ele>1997.0</ele>
        <time>2018-08-13T13:32:43Z</time>
      </trkpt>
      <trkpt lat="40.604533" lon="-4.811067">
        <ele>1995.0</ele>
        <time>2018-08-13T13:32:44Z</time>
      </trkpt>
      <trkpt lat="40.604583" lon="-4.810950">
        <ele>1993.0</ele>
        <time>2018-08-13T13:32:45Z</time>
      </trkpt>
      <trkpt lat="40.604650" lon="-4.810817">
        <ele>1990.0</ele>
        <time>2018-08-13T13:32:46Z</time>
      </trkpt>
      <trkpt lat="40.604717" lon="-4.810700">
        <ele>1986.0</ele>
        <time>2018-08-13T13:32:47Z</time>
      </trkpt>
      <trkpt lat="40.604800" lon="-4.810567">
        <ele>1982.0</ele>
        <time>2018-08-13T13:32:48Z</time>
      </trkpt>
      <trkpt lat="40.604883" lon="-4.810433">
        <ele>1978.0</ele>
        <time>2018-08-13T13:32:49Z</time>
      </trkpt>
      <trkpt lat="40.604950" lon="-4.810283">
        <ele>1975.0</ele>
        <time>2018-08-13T13:32:50Z</time>
      </trkpt>
      <trkpt lat="40.605033" lon="-4.810150">
        <ele>1974.0</ele>
        <time>2018-08-13T13:32:51Z</time>
      </trkpt>
      <trkpt lat="40.605100" lon="-4.810017">
        <ele>1972.0</ele>
        <time>2018-08-13T13:32:52Z</time>
      </trkpt>
      <trkpt lat="40.605167" lon="-4.809900">
        <ele>1969.0</ele>
        <time>2018-08-13T13:32:53Z</time>
      </trkpt>
      <trkpt lat="40.605250" lon="-4.809767">
        <ele>1967.0</ele>
        <time>2018-08-13T13:32:54Z</time>
      </trkpt>
      <trkpt lat="40.605317" lon="-4.809650">
        <ele>1965.0</ele>
        <time>2018-08-13T13:32:55Z</time>
      </trkpt>
      <trkpt lat="40.605400" lon="-4.809517">
        <ele>1963.0</ele>
        <time>2018-08-13T13:32:56Z</time>
      </trkpt>
      <trkpt lat="40.605467" lon="-4.809383">
        <ele>1960.0</ele>
        <time>2018-08-13T13:32:57Z</time>
      </trkpt>
      <trkpt lat="40.605533" lon="-4.809233">
        <ele>1957.0</ele>
        <time>2018-08-13T13:32:58Z</time>
      </trkpt>
      <trkpt lat="40.605600" lon="-4.809083">
        <ele>1955.0</ele>
        <time>2018-08-13T13:32:59Z</time>
      </trkpt>
      <trkpt lat="40.605650" lon="-4.808933">
        <ele>1952.0</ele>
        <time>2018-08-13T13:33:00Z</time>
      </trkpt>
      <trkpt lat="40.605717" lon="-4.808783">
        <ele>1950.0</ele>
        <time>2018-08-13T13:33:01Z</time>
      </trkpt>
      <trkpt lat="40.605783" lon="-4.808633">
        <ele>1948.0</ele>
        <time>2018-08-13T13:33:02Z</time>
      </trkpt>
      <trkpt lat="40.605833" lon="-4.808483">
        <ele>1946.0</ele>
        <time>2018-08-13T13:33:03Z</time>
      </trkpt>
      <trkpt lat="40.605867" lon="-4.808333">
        <ele>1944.0</ele>
        <time>2018-08-13T13:33:04Z</time>
      </trkpt>
      <trkpt lat="40.605917" lon="-4.808183">
        <ele>1941.0</ele>
        <time>2018-08-13T13:33:05Z</time>
      </trkpt>
      <trkpt lat="40.605950" lon="-4.808017">
        <ele>1938.0</ele>
        <time>2018-08-13T13:33:06Z</time>
      </trkpt>
      <trkpt lat="40.605983" lon="-4.807850">
        <ele>1934.0</ele>
        <time>2018-08-13T13:33:07Z</time>
      </trkpt>
      <trkpt lat="40.606033" lon="-4.807683">
        <ele>1932.0</ele>
        <time>2018-08-13T13:33:08Z</time>
      </trkpt>
      <trkpt lat="40.606067" lon="-4.807500">
        <ele>1930.0</ele>
        <time>2018-08-13T13:33:09Z</time>
      </trkpt>
      <trkpt lat="40.606100" lon="-4.807333">
        <ele>1928.0</ele>
        <time>2018-08-13T13:33:10Z</time>
      </trkpt>
      <trkpt lat="40.606133" lon="-4.807167">
        <ele>1928.0</ele>
        <time>2018-08-13T13:33:11Z</time>
      </trkpt>
      <trkpt lat="40.606183" lon="-4.807000">
        <ele>1927.0</ele>
        <time>2018-08-13T13:33:12Z</time>
      </trkpt>
      <trkpt lat="40.606217" lon="-4.806850">
        <ele>1926.0</ele>
        <time>2018-08-13T13:33:13Z</time>
      </trkpt>
      <trkpt lat="40.606267" lon="-4.806700">
        <ele>1925.0</ele>
        <time>2018-08-13T13:33:14Z</time>
      </trkpt>
      <trkpt lat="40.606317" lon="-4.806550">
        <ele>1924.0</ele>
        <time>2018-08-13T13:33:15Z</time>
      </trkpt>
      <trkpt lat="40.606367" lon="-4.806383">
        <ele>1922.0</ele>
        <time>2018-08-13T13:33:16Z</time>
      </trkpt>
      <trkpt lat="40.606417" lon="-4.806200">
        <ele>1920.0</ele>
        <time>2018-08-13T13:33:17Z</time>
      </trkpt>
      <trkpt lat="40.606467" lon="-4.806033">
        <ele>1919.0</ele>
        <time>2018-08-13T13:33:18Z</time>
      </trkpt>
      <trkpt lat="40.606517" lon="-4.805850">
        <ele>1919.0</ele>
        <time>2018-08-13T13:33:19Z</time>
      </trkpt>
      <trkpt lat="40.606583" lon="-4.805683">
        <ele>1919.0</ele>
        <time>2018-08-13T13:33:20Z</time>
      </trkpt>
      <trkpt lat="40.606633" lon="-4.805533">
        <ele>1918.0</ele>
        <time>2018-08-13T13:33:21Z</time>
      </trkpt>
      <trkpt lat="40.606700" lon="-4.805367">
        <ele>1916.0</ele>
        <time>2018-08-13T13:33:22Z</time>
      </trkpt>
      <trkpt lat="40.606750" lon="-4.805217">
        <ele>1914.0</ele>
        <time>2018-08-13T13:33:23Z</time>
      </trkpt>
      <trkpt lat="40.606800" lon="-4.805083">
        <ele>1912.0</ele>
        <time>2018-08-13T13:33:24Z</time>
      </trkpt>
      <trkpt lat="40.606833" lon="-4.804933">
        <ele>1909.0</ele>
        <time>2018-08-13T13:33:25Z</time>
      </trkpt>
      <trkpt lat="40.606867" lon="-4.804783">
        <ele>1906.0</ele>
        <time>2018-08-13T13:33:26Z</time>
      </trkpt>
      <trkpt lat="40.606917" lon="-4.804650">
        <ele>1901.0</ele>
        <time>2018-08-13T13:33:27Z</time>
      </trkpt>
      <trkpt lat="40.606967" lon="-4.804500">
        <ele>1897.0</ele>
        <time>2018-08-13T13:33:28Z</time>
      </trkpt>
      <trkpt lat="40.607033" lon="-4.804350">
        <ele>1892.0</ele>
        <time>2018-08-13T13:33:29Z</time>
      </trkpt>
      <trkpt lat="40.607117" lon="-4.804217">
        <ele>1888.0</ele>
        <time>2018-08-13T13:33:30Z</time>
      </trkpt>
      <trkpt lat="40.607217" lon="-4.804083">
        <ele>1883.0</ele>
        <time>2018-08-13T13:33:31Z</time>
      </trkpt>
      <trkpt lat="40.607300" lon="-4.803950">
        <ele>1879.0</ele>
        <time>2018-08-13T13:33:32Z</time>
      </trkpt>
      <trkpt lat="40.607383" lon="-4.803817">
        <ele>1876.0</ele>
        <time>2018-08-13T13:33:33Z</time>
      </trkpt>
      <trkpt lat="40.607467" lon="-4.803683">
        <ele>1873.0</ele>
        <time>2018-08-13T13:33:34Z</time>
      </trkpt>
      <trkpt lat="40.607550" lon="-4.803550">
        <ele>1870.0</ele>
        <time>2018-08-13T13:33:35Z</time>
      </trkpt>
      <trkpt lat="40.607633" lon="-4.803400">
        <ele>1868.0</ele>
        <time>2018-08-13T13:33:36Z</time>
      </trkpt>
      <trkpt lat="40.607717" lon="-4.803283">
        <ele>1866.0</ele>
        <time>2018-08-13T13:33:37Z</time>
      </trkpt>
      <trkpt lat="40.607800" lon="-4.803167">
        <ele>1863.0</ele>
        <time>2018-08-13T13:33:38Z</time>
      </trkpt>
      <trkpt lat="40.607883" lon="-4.803050">
        <ele>1860.0</ele>
        <time>2018-08-13T13:33:39Z</time>
      </trkpt>
      <trkpt lat="40.607967" lon="-4.802933">
        <ele>1857.0</ele>
        <time>2018-08-13T13:33:40Z</time>
      </trkpt>
      <trkpt lat="40.608067" lon="-4.802800">
        <ele>1855.0</ele>
        <time>2018-08-13T13:33:41Z</time>
      </trkpt>
      <trkpt lat="40.608150" lon="-4.802667">
        <ele>1854.0</ele>
        <time>2018-08-13T13:33:42Z</time>
      </trkpt>
      <trkpt lat="40.608250" lon="-4.802550">
        <ele>1853.0</ele>
        <time>2018-08-13T13:33:43Z</time>
      </trkpt>
      <trkpt lat="40.608333" lon="-4.802450">
        <ele>1852.0</ele>
        <time>2018-08-13T13:33:44Z</time>
      </trkpt>
      <trkpt lat="40.608433" lon="-4.802367">
        <ele>1850.0</ele>
        <time>2018-08-13T13:33:45Z</time>
      </trkpt>
      <trkpt lat="40.608533" lon="-4.802267">
        <ele>1848.0</ele>
        <time>2018-08-13T13:33:46Z</time>
      </trkpt>
      <trkpt lat="40.608633" lon="-4.802150">
        <ele>1846.0</ele>
        <time>2018-08-13T13:33:47Z</time>
      </trkpt>
      <trkpt lat="40.608717" lon="-4.802033">
        <ele>1846.0</ele>
        <time>2018-08-13T13:33:48Z</time>
      </trkpt>
      <trkpt lat="40.608817" lon="-4.801900">
        <ele>1845.0</ele>
        <time>2018-08-13T13:33:49Z</time>
      </trkpt>
      <trkpt lat="40.608917" lon="-4.801783">
        <ele>1844.0</ele>
        <time>2018-08-13T13:33:50Z</time>
      </trkpt>
      <trkpt lat="40.609000" lon="-4.801667">
        <ele>1843.0</ele>
        <time>2018-08-13T13:33:51Z</time>
      </trkpt>
      <trkpt lat="40.609100" lon="-4.801550">
        <ele>1842.0</ele>
        <time>2018-08-13T13:33:52Z</time>
      </trkpt>
      <trkpt lat="40.609183" lon="-4.801417">
        <ele>1840.0</ele>
        <time>2018-08-13T13:33:53Z</time>
      </trkpt>
      <trkpt lat="40.609267" lon="-4.801267">
        <ele>1838.0</ele>
        <time>2018-08-13T13:33:54Z</time>
      </trkpt>
      <trkpt lat="40.609367" lon="-4.801117">
        <ele>1836.0</ele>
        <time>2018-08-13T13:33:55Z</time>
      </trkpt>
      <trkpt lat="40.609467" lon="-4.800967">
        <ele>1835.0</ele>
        <time>2018-08-13T13:33:56Z</time>
      </trkpt>
      <trkpt lat="40.609550" lon="-4.800817">
        <ele>1835.0</ele>
        <time>2018-08-13T13:33:57Z</time>
      </trkpt>
      <trkpt lat="40.609633" lon="-4.800667">
        <ele>1836.0</ele>
        <time>2018-08-13T13:33:58Z</time>
      </trkpt>
      <trkpt lat="40.609717" lon="-4.800533">
        <ele>1836.0</ele>
        <time>2018-08-13T13:33:59Z</time>
      </trkpt>
      <trkpt lat="40.609783" lon="-4.800383">
        <ele>1836.0</ele>
        <time>2018-08-13T13:34:00Z</time>
      </trkpt>
      <trkpt lat="40.609867" lon="-4.800250">
        <ele>1834.0</ele>
        <time>2018-08-13T13:34:01Z</time>
      </trkpt>
      <trkpt lat="40.609950" lon="-4.800117">
        <ele>1832.0</ele>
        <time>2018-08-13T13:34:02Z</time>
      </trkpt>
      <trkpt lat="40.610050" lon="-4.799967">
        <ele>1830.0</ele>
        <time>2018-08-13T13:34:03Z</time>
      </trkpt>
      <trkpt lat="40.610133" lon="-4.799833">
        <ele>1828.0</ele>
        <time>2018-08-13T13:34:04Z</time>
      </trkpt>
      <trkpt lat="40.610233" lon="-4.799683">
        <ele>1827.0</ele>
        <time>2018-08-13T13:34:05Z</time>
      </trkpt>
      <trkpt lat="40.610317" lon="-4.799533">
        <ele>1827.0</ele>
        <time>2018-08-13T13:34:06Z</time>
      </trkpt>
      <trkpt lat="40.610400" lon="-4.799417">
        <ele>1827.0</ele>
        <time>2018-08-13T13:34:07Z</time>
      </trkpt>
      <trkpt lat="40.610483" lon="-4.799283">
        <ele>1825.0</ele>
        <time>2018-08-13T13:34:08Z</time>
      </trkpt>
      <trkpt lat="40.610567" lon="-4.799167">
        <ele>1824.0</ele>
        <time>2018-08-13T13:34:09Z</time>
      </trkpt>
      <trkpt lat="40.610667" lon="-4.799033">
        <ele>1821.0</ele>
        <time>2018-08-13T13:34:10Z</time>
      </trkpt>
      <trkpt lat="40.610767" lon="-4.798900">
        <ele>1819.0</ele>
        <time>2018-08-13T13:34:11Z</time>
      </trkpt>
      <trkpt lat="40.610850" lon="-4.798767">
        <ele>1818.0</ele>
        <time>2018-08-13T13:34:12Z</time>
      </trkpt>
      <trkpt lat="40.610950" lon="-4.798633">
        <ele>1817.0</ele>
        <time>2018-08-13T13:34:13Z</time>
      </trkpt>
      <trkpt lat="40.611033" lon="-4.798500">
        <ele>1817.0</ele>
        <time>2018-08-13T13:34:14Z</time>
      </trkpt>
      <trkpt lat="40.611117" lon="-4.798367">
        <ele>1817.0</ele>
        <time>2018-08-13T13:34:15Z</time>
      </trkpt>
      <trkpt lat="40.611217" lon="-4.798233">
        <ele>1816.0</ele>
        <time>2018-08-13T13:34:16Z</time>
      </trkpt>
      <trkpt lat="40.611300" lon="-4.798100">
        <ele>1816.0</ele>
        <time>2018-08-13T13:34:17Z</time>
      </trkpt>
      <trkpt lat="40.611383" lon="-4.797983">
        <ele>1816.0</ele>
        <time>2018-08-13T13:34:18Z</time>
      </trkpt>
      <trkpt lat="40.611450" lon="-4.797883">
        <ele>1816.0</ele>
        <time>2018-08-13T13:34:19Z</time>
      </trkpt>
      <trkpt lat="40.611500" lon="-4.797783">
        <ele>1816.0</ele>
        <time>2018-08-13T13:34:20Z</time>
      </trkpt>
      <trkpt lat="40.611567" lon="-4.797683">
        <ele>1814.0</ele>
        <time>2018-08-13T13:34:21Z</time>
      </trkpt>
      <trkpt lat="40.611633" lon="-4.797567">
        <ele>1812.0</ele>
        <time>2018-08-13T13:34:22Z</time>
      </trkpt>
      <trkpt lat="40.611700" lon="-4.797450">
        <ele>1810.0</ele>
        <time>2018-08-13T13:34:23Z</time>
      </trkpt>
      <trkpt lat="40.611783" lon="-4.797333">
        <ele>1808.0</ele>
        <time>2018-08-13T13:34:24Z</time>
      </trkpt>
      <trkpt lat="40.611850" lon="-4.797217">
        <ele>1806.0</ele>
        <time>2018-08-13T13:34:25Z</time>
      </trkpt>
      <trkpt lat="40.611933" lon="-4.797100">
        <ele>1804.0</ele>
        <time>2018-08-13T13:34:26Z</time>
      </trkpt>
      <trkpt lat="40.612000" lon="-4.796983">
        <ele>1801.0</ele>
        <time>2018-08-13T13:34:27Z</time>
      </trkpt>
      <trkpt lat="40.612067" lon="-4.796867">
        <ele>1797.0</ele>
        <time>2018-08-13T13:34:28Z</time>
      </trkpt>
      <trkpt lat="40.612150" lon="-4.796750">
        <ele>1794.0</ele>
        <time>2018-08-13T13:34:29Z</time>
      </trkpt>
      <trkpt lat="40.612233" lon="-4.796633">
        <ele>1790.0</ele>
        <time>2018-08-13T13:34:30Z</time>
      </trkpt>
      <trkpt lat="40.612317" lon="-4.796533">
        <ele>1787.0</ele>
        <time>2018-08-13T13:34:31Z</time>
      </trkpt>
      <trkpt lat="40.612383" lon="-4.796433">
        <ele>1785.0</ele>
        <time>2018-08-13T13:34:32Z</time>
      </trkpt>
      <trkpt lat="40.612467" lon="-4.796333">
        <ele>1783.0</ele>
        <time>2018-08-13T13:34:33Z</time>
      </trkpt>
      <trkpt lat="40.612533" lon="-4.796217">
        <ele>1781.0</ele>
        <time>2018-08-13T13:34:34Z</time>
      </trkpt>
      <trkpt lat="40.612617" lon="-4.796083">
        <ele>1779.0</ele>
        <time>2018-08-13T13:34:35Z</time>
      </trkpt>
      <trkpt lat="40.612683" lon="-4.795967">
        <ele>1776.0</ele>
        <time>2018-08-13T13:34:36Z</time>
      </trkpt>
      <trkpt lat="40.612750" lon="-4.795833">
        <ele>1774.0</ele>
        <time>2018-08-13T13:34:37Z</time>
      </trkpt>
      <trkpt lat="40.612817" lon="-4.795717">
        <ele>1771.0</ele>
        <time>2018-08-13T13:34:38Z</time>
      </trkpt>
      <trkpt lat="40.612900" lon="-4.795600">
        <ele>1768.0</ele>
        <time>2018-08-13T13:34:39Z</time>
      </trkpt>
      <trkpt lat="40.612967" lon="-4.795483">
        <ele>1766.0</ele>
        <time>2018-08-13T13:34:40Z</time>
      </trkpt>
      <trkpt lat="40.613017" lon="-4.795367">
        <ele>1763.0</ele>
        <time>2018-08-13T13:34:41Z</time>
      </trkpt>
      <trkpt lat="40.613083" lon="-4.795233">
        <ele>1761.0</ele>
        <time>2018-08-13T13:34:42Z</time>
      </trkpt>
      <trkpt lat="40.613133" lon="-4.795117">
        <ele>1760.0</ele>
        <time>2018-08-13T13:34:43Z</time>
      </trkpt>
      <trkpt lat="40.613183" lon="-4.795000">
        <ele>1758.0</ele>
        <time>2018-08-13T13:34:44Z</time>
      </trkpt>
      <trkpt lat="40.613250" lon="-4.794917">
        <ele>1757.0</ele>
        <time>2018-08-13T13:34:45Z</time>
      </trkpt>
      <trkpt lat="40.613283" lon="-4.794833">
        <ele>1757.0</ele>
        <time>2018-08-13T13:34:46Z</time>
      </trkpt>
      <trkpt lat="40.613350" lon="-4.794733">
        <ele>1756.0</ele>
        <time>2018-08-13T13:34:47Z</time>
      </trkpt>
      <trkpt lat="40.613400" lon="-4.794650">
        <ele>1754.0</ele>
        <time>2018-08-13T13:34:48Z</time>
      </trkpt>
      <trkpt lat="40.613467" lon="-4.794550">
        <ele>1752.0</ele>
        <time>2018-08-13T13:34:49Z</time>
      </trkpt>
      <trkpt lat="40.613533" lon="-4.794467">
        <ele>1750.0</ele>
        <time>2018-08-13T13:34:50Z</time>
      </trkpt>
      <trkpt lat="40.613617" lon="-4.794383">
        <ele>1749.0</ele>
        <time>2018-08-13T13:34:51Z</time>
      </trkpt>
      <trkpt lat="40.613717" lon="-4.794317">
        <ele>1750.0</ele>
        <time>2018-08-13T13:34:52Z</time>
      </trkpt>
      <trkpt lat="40.613783" lon="-4.794250">
        <ele>1751.0</ele>
        <time>2018-08-13T13:34:53Z</time>
      </trkpt>
      <trkpt lat="40.613867" lon="-4.794167">
        <ele>1752.0</ele>
        <time>2018-08-13T13:34:54Z</time>
      </trkpt>
      <trkpt lat="40.613933" lon="-4.794067">
        <ele>1753.0</ele>
        <time>2018-08-13T13:34:55Z</time>
      </trkpt>
      <trkpt lat="40.614000" lon="-4.793950">
        <ele>1753.0</ele>
        <time>2018-08-13T13:34:56Z</time>
      </trkpt>
      <trkpt lat="40.614050" lon="-4.793850">
        <ele>1753.0</ele>
        <time>2018-08-13T13:34:57Z</time>
      </trkpt>
      <trkpt lat="40.614117" lon="-4.793750">
        <ele>1752.0</ele>
        <time>2018-08-13T13:34:58Z</time>
      </trkpt>
      <trkpt lat="40.614167" lon="-4.793633">
        <ele>1751.0</ele>
        <time>2018-08-13T13:34:59Z</time>
      </trkpt>
      <trkpt lat="40.614217" lon="-4.793517">
        <ele>1749.0</ele>
        <time>2018-08-13T13:35:00Z</time>
      </trkpt>
      <trkpt lat="40.614267" lon="-4.793400">
        <ele>1747.0</ele>
        <time>2018-08-13T13:35:01Z</time>
      </trkpt>
      <trkpt lat="40.614317" lon="-4.793267">
        <ele>1745.0</ele>
        <time>2018-08-13T13:35:02Z</time>
      </trkpt>
      <trkpt lat="40.614383" lon="-4.793133">
        <ele>1743.0</ele>
        <time>2018-08-13T13:35:03Z</time>
      </trkpt>
      <trkpt lat="40.614450" lon="-4.793017">
        <ele>1743.0</ele>
        <time>2018-08-13T13:35:04Z</time>
      </trkpt>
      <trkpt lat="40.614517" lon="-4.792900">
        <ele>1743.0</ele>
        <time>2018-08-13T13:35:05Z</time>
      </trkpt>
      <trkpt lat="40.614583" lon="-4.792800">
        <ele>1743.0</ele>
        <time>2018-08-13T13:35:06Z</time>
      </trkpt>
      <trkpt lat="40.614633" lon="-4.792700">
        <ele>1743.0</ele>
        <time>2018-08-13T13:35:07Z</time>
      </trkpt>
      <trkpt lat="40.614700" lon="-4.792600">
        <ele>1743.0</ele>
        <time>2018-08-13T13:35:08Z</time>
      </trkpt>
      <trkpt lat="40.614750" lon="-4.792500">
        <ele>1743.0</ele>
        <time>2018-08-13T13:35:09Z</time>
      </trkpt>
      <trkpt lat="40.614800" lon="-4.792400">
        <ele>1742.0</ele>
        <time>2018-08-13T13:35:10Z</time>
      </trkpt>
      <trkpt lat="40.614850" lon="-4.792300">
        <ele>1740.0</ele>
        <time>2018-08-13T13:35:11Z</time>
      </trkpt>
      <trkpt lat="40.614883" lon="-4.792183">
        <ele>1738.0</ele>
        <time>2018-08-13T13:35:12Z</time>
      </trkpt>
      <trkpt lat="40.614933" lon="-4.792067">
        <ele>1736.0</ele>
        <time>2018-08-13T13:35:13Z</time>
      </trkpt>
      <trkpt lat="40.615000" lon="-4.791950">
        <ele>1734.0</ele>
        <time>2018-08-13T13:35:14Z</time>
      </trkpt>
      <trkpt lat="40.615050" lon="-4.791833">
        <ele>1733.0</ele>
        <time>2018-08-13T13:35:15Z</time>
      </trkpt>
      <trkpt lat="40.615117" lon="-4.791717">
        <ele>1732.0</ele>
        <time>2018-08-13T13:35:16Z</time>
      </trkpt>
      <trkpt lat="40.615167" lon="-4.791583">
        <ele>1730.0</ele>
        <time>2018-08-13T13:35:17Z</time>
      </trkpt>
      <trkpt lat="40.615217" lon="-4.791467">
        <ele>1728.0</ele>
        <time>2018-08-13T13:35:18Z</time>
      </trkpt>
      <trkpt lat="40.615267" lon="-4.791350">
        <ele>1725.0</ele>
        <time>2018-08-13T13:35:19Z</time>
      </trkpt>
      <trkpt lat="40.615300" lon="-4.791217">
        <ele>1722.0</ele>
        <time>2018-08-13T13:35:20Z</time>
      </trkpt>
      <trkpt lat="40.615367" lon="-4.791100">
        <ele>1719.0</ele>
        <time>2018-08-13T13:35:21Z</time>
      </trkpt>
      <trkpt lat="40.615417" lon="-4.790967">
        <ele>1716.0</ele>
        <time>2018-08-13T13:35:22Z</time>
      </trkpt>
      <trkpt lat="40.615483" lon="-4.790817">
        <ele>1715.0</ele>
        <time>2018-08-13T13:35:23Z</time>
      </trkpt>
      <trkpt lat="40.615533" lon="-4.790667">
        <ele>1714.0</ele>
        <time>2018-08-13T13:35:24Z</time>
      </trkpt>
      <trkpt lat="40.615600" lon="-4.790517">
        <ele>1714.0</ele>
        <time>2018-08-13T13:35:25Z</time>
      </trkpt>
      <trkpt lat="40.615650" lon="-4.790367">
        <ele>1713.0</ele>
        <time>2018-08-13T13:35:26Z</time>
      </trkpt>
      <trkpt lat="40.615700" lon="-4.790233">
        <ele>1713.0</ele>
        <time>2018-08-13T13:35:27Z</time>
      </trkpt>
      <trkpt lat="40.615750" lon="-4.790100">
        <ele>1712.0</ele>
        <time>2018-08-13T13:35:28Z</time>
      </trkpt>
      <trkpt lat="40.615800" lon="-4.789967">
        <ele>1710.0</ele>
        <time>2018-08-13T13:35:29Z</time>
      </trkpt>
      <trkpt lat="40.615850" lon="-4.789833">
        <ele>1708.0</ele>
        <time>2018-08-13T13:35:30Z</time>
      </trkpt>
      <trkpt lat="40.615917" lon="-4.789700">
        <ele>1706.0</ele>
        <time>2018-08-13T13:35:31Z</time>
      </trkpt>
      <trkpt lat="40.615967" lon="-4.789550">
        <ele>1704.0</ele>
        <time>2018-08-13T13:35:32Z</time>
      </trkpt>
      <trkpt lat="40.616033" lon="-4.789417">
        <ele>1702.0</ele>
        <time>2018-08-13T13:35:33Z</time>
      </trkpt>
      <trkpt lat="40.616083" lon="-4.789283">
        <ele>1701.0</ele>
        <time>2018-08-13T13:35:34Z</time>
      </trkpt>
      <trkpt lat="40.616150" lon="-4.789167">
        <ele>1699.0</ele>
        <time>2018-08-13T13:35:35Z</time>
      </trkpt>
      <trkpt lat="40.616200" lon="-4.789033">
        <ele>1697.0</ele>
        <time>2018-08-13T13:35:36Z</time>
      </trkpt>
      <trkpt lat="40.616267" lon="-4.788883">
        <ele>1696.0</ele>
        <time>2018-08-13T13:35:37Z</time>
      </trkpt>
      <trkpt lat="40.616317" lon="-4.788733">
        <ele>1695.0</ele>
        <time>2018-08-13T13:35:38Z</time>
      </trkpt>
      <trkpt lat="40.616367" lon="-4.788600">
        <ele>1694.0</ele>
        <time>2018-08-13T13:35:39Z</time>
      </trkpt>
      <trkpt lat="40.616433" lon="-4.788450">
        <ele>1694.0</ele>
        <time>2018-08-13T13:35:40Z</time>
      </trkpt>
      <trkpt lat="40.616483" lon="-4.788333">
        <ele>1695.0</ele>
        <time>2018-08-13T13:35:41Z</time>
      </trkpt>
      <trkpt lat="40.616533" lon="-4.788217">
        <ele>1695.0</ele>
        <time>2018-08-13T13:35:42Z</time>
      </trkpt>
      <trkpt lat="40.616600" lon="-4.788100">
        <ele>1696.0</ele>
        <time>2018-08-13T13:35:43Z</time>
      </trkpt>
      <trkpt lat="40.616650" lon="-4.788000">
        <ele>1697.0</ele>
        <time>2018-08-13T13:35:44Z</time>
      </trkpt>
      <trkpt lat="40.616683" lon="-4.787883">
        <ele>1698.0</ele>
        <time>2018-08-13T13:35:45Z</time>
      </trkpt>
      <trkpt lat="40.616717" lon="-4.787767">
        <ele>1697.0</ele>
        <time>2018-08-13T13:35:46Z</time>
      </trkpt>
      <trkpt lat="40.616767" lon="-4.787650">
        <ele>1696.0</ele>
        <time>2018-08-13T13:35:47Z</time>
      </trkpt>
      <trkpt lat="40.616800" lon="-4.787533">
        <ele>1694.0</ele>
        <time>2018-08-13T13:35:48Z</time>
      </trkpt>
      <trkpt lat="40.616867" lon="-4.787417">
        <ele>1693.0</ele>
        <time>2018-08-13T13:35:49Z</time>
      </trkpt>
      <trkpt lat="40.616933" lon="-4.787300">
        <ele>1693.0</ele>
        <time>2018-08-13T13:35:50Z</time>
      </trkpt>
      <trkpt lat="40.616983" lon="-4.787167">
        <ele>1694.0</ele>
        <time>2018-08-13T13:35:51Z</time>
      </trkpt>
      <trkpt lat="40.617033" lon="-4.787033">
        <ele>1697.0</ele>
        <time>2018-08-13T13:35:52Z</time>
      </trkpt>
      <trkpt lat="40.617050" lon="-4.786917">
        <ele>1700.0</ele>
        <time>2018-08-13T13:35:53Z</time>
      </trkpt>
      <trkpt lat="40.617050" lon="-4.786800">
        <ele>1702.0</ele>
        <time>2018-08-13T13:35:54Z</time>
      </trkpt>
      <trkpt lat="40.617033" lon="-4.786700">
        <ele>1702.0</ele>
        <time>2018-08-13T13:35:55Z</time>
      </trkpt>
      <trkpt lat="40.617050" lon="-4.786583">
        <ele>1702.0</ele>
        <time>2018-08-13T13:35:56Z</time>
      </trkpt>
      <trkpt lat="40.617067" lon="-4.786467">
        <ele>1701.0</ele>
        <time>2018-08-13T13:35:57Z</time>
      </trkpt>
      <trkpt lat="40.617100" lon="-4.786350">
        <ele>1700.0</ele>
        <time>2018-08-13T13:35:58Z</time>
      </trkpt>
      <trkpt lat="40.617150" lon="-4.786267">
        <ele>1701.0</ele>
        <time>2018-08-13T13:35:59Z</time>
      </trkpt>
      <trkpt lat="40.617200" lon="-4.786200">
        <ele>1703.0</ele>
        <time>2018-08-13T13:36:00Z</time>
      </trkpt>
      <trkpt lat="40.617267" lon="-4.786150">
        <ele>1704.0</ele>
        <time>2018-08-13T13:36:01Z</time>
      </trkpt>
      <trkpt lat="40.617317" lon="-4.786117">
        <ele>1706.0</ele>
        <time>2018-08-13T13:36:02Z</time>
      </trkpt>
      <trkpt lat="40.617367" lon="-4.786117">
        <ele>1708.0</ele>
        <time>2018-08-13T13:36:03Z</time>
      </trkpt>
      <trkpt lat="40.617417" lon="-4.786117">
        <ele>1710.0</ele>
        <time>2018-08-13T13:36:04Z</time>
      </trkpt>
      <trkpt lat="40.617467" lon="-4.786100">
        <ele>1711.0</ele>
        <time>2018-08-13T13:36:05Z</time>
      </trkpt>
      <trkpt lat="40.617517" lon="-4.786100">
        <ele>1713.0</ele>
        <time>2018-08-13T13:36:06Z</time>
      </trkpt>
      <trkpt lat="40.617567" lon="-4.786083">
        <ele>1715.0</ele>
        <time>2018-08-13T13:36:07Z</time>
      </trkpt>
      <trkpt lat="40.617600" lon="-4.786100">
        <ele>1717.0</ele>
        <time>2018-08-13T13:36:08Z</time>
      </trkpt>
      <trkpt lat="40.617633" lon="-4.786150">
        <ele>1718.0</ele>
        <time>2018-08-13T13:36:09Z</time>
      </trkpt>
      <trkpt lat="40.617650" lon="-4.786200">
        <ele>1720.0</ele>
        <time>2018-08-13T13:36:10Z</time>
      </trkpt>
      <trkpt lat="40.617650" lon="-4.786283">
        <ele>1722.0</ele>
        <time>2018-08-13T13:36:11Z</time>
      </trkpt>
      <trkpt lat="40.617633" lon="-4.786350">
        <ele>1724.0</ele>
        <time>2018-08-13T13:36:12Z</time>
      </trkpt>
      <trkpt lat="40.617583" lon="-4.786417">
        <ele>1726.0</ele>
        <time>2018-08-13T13:36:13Z</time>
      </trkpt>
      <trkpt lat="40.617517" lon="-4.786467">
        <ele>1728.0</ele>
        <time>2018-08-13T13:36:14Z</time>
      </trkpt>
      <trkpt lat="40.617433" lon="-4.786533">
        <ele>1729.0</ele>
        <time>2018-08-13T13:36:15Z</time>
      </trkpt>
      <trkpt lat="40.617317" lon="-4.786567">
        <ele>1729.0</ele>
        <time>2018-08-13T13:36:16Z</time>
      </trkpt>
      <trkpt lat="40.617183" lon="-4.786600">
        <ele>1730.0</ele>
        <time>2018-08-13T13:36:17Z</time>
      </trkpt>
      <trkpt lat="40.617050" lon="-4.786583">
        <ele>1731.0</ele>
        <time>2018-08-13T13:36:18Z</time>
      </trkpt>
      <trkpt lat="40.616917" lon="-4.786517">
        <ele>1732.0</ele>
        <time>2018-08-13T13:36:19Z</time>
      </trkpt>
      <trkpt lat="40.616783" lon="-4.786417">
        <ele>1734.0</ele>
        <time>2018-08-13T13:36:20Z</time>
      </trkpt>
      <trkpt lat="40.616683" lon="-4.786283">
        <ele>1735.0</ele>
        <time>2018-08-13T13:36:21Z</time>
      </trkpt>
      <trkpt lat="40.616600" lon="-4.786117">
        <ele>1736.0</ele>
        <time>2018-08-13T13:36:22Z</time>
      </trkpt>
      <trkpt lat="40.616550" lon="-4.785967">
        <ele>1737.0</ele>
        <time>2018-08-13T13:36:23Z</time>
      </trkpt>
      <trkpt lat="40.616517" lon="-4.785783">
        <ele>1737.0</ele>
        <time>2018-08-13T13:36:24Z</time>
      </trkpt>
      <trkpt lat="40.616517" lon="-4.785600">
        <ele>1738.0</ele>
        <time>2018-08-13T13:36:25Z</time>
      </trkpt>
      <trkpt lat="40.616533" lon="-4.785433">
        <ele>1738.0</ele>
        <time>2018-08-13T13:36:26Z</time>
      </trkpt>
      <trkpt lat="40.616583" lon="-4.785300">
        <ele>1740.0</ele>
        <time>2018-08-13T13:36:27Z</time>
      </trkpt>
      <trkpt lat="40.616633" lon="-4.785183">
        <ele>1743.0</ele>
        <time>2018-08-13T13:36:28Z</time>
      </trkpt>
      <trkpt lat="40.616683" lon="-4.785100">
        <ele>1746.0</ele>
        <time>2018-08-13T13:36:29Z</time>
      </trkpt>
      <trkpt lat="40.616733" lon="-4.785033">
        <ele>1748.0</ele>
        <time>2018-08-13T13:36:30Z</time>
      </trkpt>
      <trkpt lat="40.616783" lon="-4.784967">
        <ele>1750.0</ele>
        <time>2018-08-13T13:36:31Z</time>
      </trkpt>
      <trkpt lat="40.616850" lon="-4.784900">
        <ele>1751.0</ele>
        <time>2018-08-13T13:36:32Z</time>
      </trkpt>
      <trkpt lat="40.616900" lon="-4.784850">
        <ele>1752.0</ele>
        <time>2018-08-13T13:36:33Z</time>
      </trkpt>
      <trkpt lat="40.616950" lon="-4.784800">
        <ele>1753.0</ele>
        <time>2018-08-13T13:36:34Z</time>
      </trkpt>
      <trkpt lat="40.617017" lon="-4.784767">
        <ele>1754.0</ele>
        <time>2018-08-13T13:36:35Z</time>
      </trkpt>
      <trkpt lat="40.617083" lon="-4.784750">
        <ele>1756.0</ele>
        <time>2018-08-13T13:36:36Z</time>
      </trkpt>
      <trkpt lat="40.617133" lon="-4.784767">
        <ele>1759.0</ele>
        <time>2018-08-13T13:36:37Z</time>
      </trkpt>
      <trkpt lat="40.617150" lon="-4.784783">
        <ele>1762.0</ele>
        <time>2018-08-13T13:36:38Z</time>
      </trkpt>
      <trkpt lat="40.617150" lon="-4.784833">
        <ele>1763.0</ele>
        <time>2018-08-13T13:36:39Z</time>
      </trkpt>
      <trkpt lat="40.617117" lon="-4.784900">
        <ele>1764.0</ele>
        <time>2018-08-13T13:36:40Z</time>
      </trkpt>
      <trkpt lat="40.617067" lon="-4.784967">
        <ele>1764.0</ele>
        <time>2018-08-13T13:36:41Z</time>
      </trkpt>
      <trkpt lat="40.616983" lon="-4.785033">
        <ele>1764.0</ele>
        <time>2018-08-13T13:36:42Z</time>
      </trkpt>
      <trkpt lat="40.616883" lon="-4.785050">
        <ele>1764.0</ele>
        <time>2018-08-13T13:36:43Z</time>
      </trkpt>
      <trkpt lat="40.616767" lon="-4.785050">
        <ele>1763.0</ele>
        <time>2018-08-13T13:36:44Z</time>
      </trkpt>
      <trkpt lat="40.616617" lon="-4.784983">
        <ele>1761.0</ele>
        <time>2018-08-13T13:36:45Z</time>
      </trkpt>
      <trkpt lat="40.616483" lon="-4.784900">
        <ele>1760.0</ele>
        <time>2018-08-13T13:36:46Z</time>
      </trkpt>
      <trkpt lat="40.616350" lon="-4.784800">
        <ele>1761.0</ele>
        <time>2018-08-13T13:36:47Z</time>
      </trkpt>
      <trkpt lat="40.616233" lon="-4.784667">
        <ele>1763.0</ele>
        <time>2018-08-13T13:36:48Z</time>
      </trkpt>
      <trkpt lat="40.616150" lon="-4.784517">
        <ele>1765.0</ele>
        <time>2018-08-13T13:36:49Z</time>
      </trkpt>
      <trkpt lat="40.616083" lon="-4.784367">
        <ele>1767.0</ele>
        <time>2018-08-13T13:36:50Z</time>
      </trkpt>
      <trkpt lat="40.616033" lon="-4.784200">
        <ele>1768.0</ele>
        <time>2018-08-13T13:36:51Z</time>
      </trkpt>
      <trkpt lat="40.615983" lon="-4.784033">
        <ele>1770.0</ele>
        <time>2018-08-13T13:36:52Z</time>
      </trkpt>
      <trkpt lat="40.615950" lon="-4.783867">
        <ele>1772.0</ele>
        <time>2018-08-13T13:36:53Z</time>
      </trkpt>
      <trkpt lat="40.615917" lon="-4.783717">
        <ele>1775.0</ele>
        <time>2018-08-13T13:36:54Z</time>
      </trkpt>
      <trkpt lat="40.615883" lon="-4.783550">
        <ele>1776.0</ele>
        <time>2018-08-13T13:36:55Z</time>
      </trkpt>
      <trkpt lat="40.615867" lon="-4.783400">
        <ele>1777.0</ele>
        <time>2018-08-13T13:36:56Z</time>
      </trkpt>
      <trkpt lat="40.615867" lon="-4.783233">
        <ele>1778.0</ele>
        <time>2018-08-13T13:36:57Z</time>
      </trkpt>
      <trkpt lat="40.615867" lon="-4.783083">
        <ele>1778.0</ele>
        <time>2018-08-13T13:36:58Z</time>
      </trkpt>
      <trkpt lat="40.615867" lon="-4.782917">
        <ele>1779.0</ele>
        <time>2018-08-13T13:36:59Z</time>
      </trkpt>
      <trkpt lat="40.615867" lon="-4.782750">
        <ele>1779.0</ele>
        <time>2018-08-13T13:37:00Z</time>
      </trkpt>
      <trkpt lat="40.615867" lon="-4.782583">
        <ele>1780.0</ele>
        <time>2018-08-13T13:37:01Z</time>
      </trkpt>
      <trkpt lat="40.615900" lon="-4.782450">
        <ele>1781.0</ele>
        <time>2018-08-13T13:37:02Z</time>
      </trkpt>
      <trkpt lat="40.615933" lon="-4.782317">
        <ele>1782.0</ele>
        <time>2018-08-13T13:37:03Z</time>
      </trkpt>
      <trkpt lat="40.615983" lon="-4.782217">
        <ele>1783.0</ele>
        <time>2018-08-13T13:37:04Z</time>
      </trkpt>
      <trkpt lat="40.616050" lon="-4.782150">
        <ele>1783.0</ele>
        <time>2018-08-13T13:37:05Z</time>
      </trkpt>
      <trkpt lat="40.616117" lon="-4.782100">
        <ele>1785.0</ele>
        <time>2018-08-13T13:37:06Z</time>
      </trkpt>
      <trkpt lat="40.616183" lon="-4.782067">
        <ele>1786.0</ele>
        <time>2018-08-13T13:37:07Z</time>
      </trkpt>
      <trkpt lat="40.616217" lon="-4.782083">
        <ele>1788.0</ele>
        <time>2018-08-13T13:37:08Z</time>
      </trkpt>
      <trkpt lat="40.616250" lon="-4.782117">
        <ele>1789.0</ele>
        <time>2018-08-13T13:37:09Z</time>
      </trkpt>
      <trkpt lat="40.616250" lon="-4.782167">
        <ele>1790.0</ele>
        <time>2018-08-13T13:37:10Z</time>
      </trkpt>
      <trkpt lat="40.616217" lon="-4.782233">
        <ele>1790.0</ele>
        <time>2018-08-13T13:37:11Z</time>
      </trkpt>
      <trkpt lat="40.616167" lon="-4.782317">
        <ele>1790.0</ele>
        <time>2018-08-13T13:37:12Z</time>
      </trkpt>
      <trkpt lat="40.616100" lon="-4.782383">
        <ele>1791.0</ele>
        <time>2018-08-13T13:37:13Z</time>
      </trkpt>
      <trkpt lat="40.616017" lon="-4.782433">
        <ele>1793.0</ele>
        <time>2018-08-13T13:37:14Z</time>
      </trkpt>
      <trkpt lat="40.615917" lon="-4.782450">
        <ele>1795.0</ele>
        <time>2018-08-13T13:37:15Z</time>
      </trkpt>
      <trkpt lat="40.615783" lon="-4.782450">
        <ele>1796.0</ele>
        <time>2018-08-13T13:37:16Z</time>
      </trkpt>
      <trkpt lat="40.615667" lon="-4.782383">
        <ele>1796.0</ele>
        <time>2018-08-13T13:37:17Z</time>
      </trkpt>
      <trkpt lat="40.615533" lon="-4.782283">
        <ele>1797.0</ele>
        <time>2018-08-13T13:37:18Z</time>
      </trkpt>
      <trkpt lat="40.615417" lon="-4.782150">
        <ele>1799.0</ele>
        <time>2018-08-13T13:37:19Z</time>
      </trkpt>
      <trkpt lat="40.615333" lon="-4.782000">
        <ele>1802.0</ele>
        <time>2018-08-13T13:37:20Z</time>
      </trkpt>
      <trkpt lat="40.615250" lon="-4.781850">
        <ele>1805.0</ele>
        <time>2018-08-13T13:37:21Z</time>
      </trkpt>
      <trkpt lat="40.615200" lon="-4.781700">
        <ele>1808.0</ele>
        <time>2018-08-13T13:37:22Z</time>
      </trkpt>
      <trkpt lat="40.615150" lon="-4.781550">
        <ele>1811.0</ele>
        <time>2018-08-13T13:37:23Z</time>
      </trkpt>
      <trkpt lat="40.615100" lon="-4.781400">
        <ele>1812.0</ele>
        <time>2018-08-13T13:37:24Z</time>
      </trkpt>
      <trkpt lat="40.615067" lon="-4.781233">
        <ele>1812.0</ele>
        <time>2018-08-13T13:37:25Z</time>
      </trkpt>
      <trkpt lat="40.615033" lon="-4.781083">
        <ele>1812.0</ele>
        <time>2018-08-13T13:37:26Z</time>
      </trkpt>
      <trkpt lat="40.615033" lon="-4.780917">
        <ele>1811.0</ele>
        <time>2018-08-13T13:37:27Z</time>
      </trkpt>
      <trkpt lat="40.615050" lon="-4.780767">
        <ele>1809.0</ele>
        <time>2018-08-13T13:37:28Z</time>
      </trkpt>
      <trkpt lat="40.615117" lon="-4.780667">
        <ele>1808.0</ele>
        <time>2018-08-13T13:37:29Z</time>
      </trkpt>
      <trkpt lat="40.615183" lon="-4.780567">
        <ele>1809.0</ele>
        <time>2018-08-13T13:37:30Z</time>
      </trkpt>
      <trkpt lat="40.615250" lon="-4.780517">
        <ele>1811.0</ele>
        <time>2018-08-13T13:37:31Z</time>
      </trkpt>
      <trkpt lat="40.615317" lon="-4.780500">
        <ele>1813.0</ele>
        <time>2018-08-13T13:37:32Z</time>
      </trkpt>
      <trkpt lat="40.615350" lon="-4.780517">
        <ele>1815.0</ele>
        <time>2018-08-13T13:37:33Z</time>
      </trkpt>
      <trkpt lat="40.615367" lon="-4.780550">
        <ele>1816.0</ele>
        <time>2018-08-13T13:37:34Z</time>
      </trkpt>
      <trkpt lat="40.615383" lon="-4.780600">
        <ele>1818.0</ele>
        <time>2018-08-13T13:37:35Z</time>
      </trkpt>
      <trkpt lat="40.615383" lon="-4.780650">
        <ele>1820.0</ele>
        <time>2018-08-13T13:37:36Z</time>
      </trkpt>
      <trkpt lat="40.615367" lon="-4.780700">
        <ele>1821.0</ele>
        <time>2018-08-13T13:37:37Z</time>
      </trkpt>
      <trkpt lat="40.615333" lon="-4.780783">
        <ele>1823.0</ele>
        <time>2018-08-13T13:37:38Z</time>
      </trkpt>
      <trkpt lat="40.615283" lon="-4.780867">
        <ele>1824.0</ele>
        <time>2018-08-13T13:37:39Z</time>
      </trkpt>
      <trkpt lat="40.615217" lon="-4.780933">
        <ele>1825.0</ele>
        <time>2018-08-13T13:37:40Z</time>
      </trkpt>
      <trkpt lat="40.615133" lon="-4.780983">
        <ele>1827.0</ele>
        <time>2018-08-13T13:37:41Z</time>
      </trkpt>
      <trkpt lat="40.615050" lon="-4.781017">
        <ele>1828.0</ele>
        <time>2018-08-13T13:37:42Z</time>
      </trkpt>
      <trkpt lat="40.614950" lon="-4.781050">
        <ele>1828.0</ele>
        <time>2018-08-13T13:37:43Z</time>
      </trkpt>
      <trkpt lat="40.614833" lon="-4.781067">
        <ele>1828.0</ele>
        <time>2018-08-13T13:37:44Z</time>
      </trkpt>
      <trkpt lat="40.614700" lon="-4.781067">
        <ele>1828.0</ele>
        <time>2018-08-13T13:37:45Z</time>
      </trkpt>
      <trkpt lat="40.614567" lon="-4.781050">
        <ele>1829.0</ele>
        <time>2018-08-13T13:37:46Z</time>
      </trkpt>
      <trkpt lat="40.614417" lon="-4.781000">
        <ele>1830.0</ele>
        <time>2018-08-13T13:37:47Z</time>
      </trkpt>
      <trkpt lat="40.614283" lon="-4.780933">
        <ele>1832.0</ele>
        <time>2018-08-13T13:37:48Z</time>
      </trkpt>
      <trkpt lat="40.614150" lon="-4.780833">
        <ele>1834.0</ele>
        <time>2018-08-13T13:37:49Z</time>
      </trkpt>
      <trkpt lat="40.614017" lon="-4.780733">
        <ele>1836.0</ele>
        <time>2018-08-13T13:37:50Z</time>
      </trkpt>
      <trkpt lat="40.613900" lon="-4.780617">
        <ele>1838.0</ele>
        <time>2018-08-13T13:37:51Z</time>
      </trkpt>
      <trkpt lat="40.613783" lon="-4.780483">
        <ele>1839.0</ele>
        <time>2018-08-13T13:37:52Z</time>
      </trkpt>
      <trkpt lat="40.613650" lon="-4.780350">
        <ele>1841.0</ele>
        <time>2018-08-13T13:37:53Z</time>
      </trkpt>
      <trkpt lat="40.613533" lon="-4.780200">
        <ele>1843.0</ele>
        <time>2018-08-13T13:37:54Z</time>
      </trkpt>
      <trkpt lat="40.613433" lon="-4.780067">
        <ele>1847.0</ele>
        <time>2018-08-13T13:37:55Z</time>
      </trkpt>
      <trkpt lat="40.613350" lon="-4.779933">
        <ele>1849.0</ele>
        <time>2018-08-13T13:37:56Z</time>
      </trkpt>
      <trkpt lat="40.613283" lon="-4.779800">
        <ele>1851.0</ele>
        <time>2018-08-13T13:37:57Z</time>
      </trkpt>
      <trkpt lat="40.613200" lon="-4.779683">
        <ele>1851.0</ele>
        <time>2018-08-13T13:37:58Z</time>
      </trkpt>
      <trkpt lat="40.613100" lon="-4.779550">
        <ele>1851.0</ele>
        <time>2018-08-13T13:37:59Z</time>
      </trkpt>
      <trkpt lat="40.613017" lon="-4.779417">
        <ele>1851.0</ele>
        <time>2018-08-13T13:38:00Z</time>
      </trkpt>
      <trkpt lat="40.612933" lon="-4.779267">
        <ele>1852.0</ele>
        <time>2018-08-13T13:38:01Z</time>
      </trkpt>
      <trkpt lat="40.612883" lon="-4.779100">
        <ele>1852.0</ele>
        <time>2018-08-13T13:38:02Z</time>
      </trkpt>
      <trkpt lat="40.612850" lon="-4.778933">
        <ele>1852.0</ele>
        <time>2018-08-13T13:38:03Z</time>
      </trkpt>
      <trkpt lat="40.612833" lon="-4.778750">
        <ele>1852.0</ele>
        <time>2018-08-13T13:38:04Z</time>
      </trkpt>
      <trkpt lat="40.612833" lon="-4.778583">
        <ele>1853.0</ele>
        <time>2018-08-13T13:38:05Z</time>
      </trkpt>
      <trkpt lat="40.612850" lon="-4.778433">
        <ele>1852.0</ele>
        <time>2018-08-13T13:38:06Z</time>
      </trkpt>
      <trkpt lat="40.612883" lon="-4.778283">
        <ele>1852.0</ele>
        <time>2018-08-13T13:38:07Z</time>
      </trkpt>
      <trkpt lat="40.612917" lon="-4.778150">
        <ele>1851.0</ele>
        <time>2018-08-13T13:38:08Z</time>
      </trkpt>
      <trkpt lat="40.612967" lon="-4.778050">
        <ele>1849.0</ele>
        <time>2018-08-13T13:38:09Z</time>
      </trkpt>
      <trkpt lat="40.613033" lon="-4.777950">
        <ele>1848.0</ele>
        <time>2018-08-13T13:38:10Z</time>
      </trkpt>
      <trkpt lat="40.613100" lon="-4.777867">
        <ele>1847.0</ele>
        <time>2018-08-13T13:38:11Z</time>
      </trkpt>
      <trkpt lat="40.613167" lon="-4.777817">
        <ele>1847.0</ele>
        <time>2018-08-13T13:38:12Z</time>
      </trkpt>
      <trkpt lat="40.613233" lon="-4.777783">
        <ele>1847.0</ele>
        <time>2018-08-13T13:38:13Z</time>
      </trkpt>
      <trkpt lat="40.613300" lon="-4.777767">
        <ele>1848.0</ele>
        <time>2018-08-13T13:38:14Z</time>
      </trkpt>
      <trkpt lat="40.613350" lon="-4.777767">
        <ele>1848.0</ele>
        <time>2018-08-13T13:38:15Z</time>
      </trkpt>
      <trkpt lat="40.613367" lon="-4.777800">
        <ele>1848.0</ele>
        <time>2018-08-13T13:38:16Z</time>
      </trkpt>
      <trkpt lat="40.613383" lon="-4.777833">
        <ele>1847.0</ele>
        <time>2018-08-13T13:38:17Z</time>
      </trkpt>
      <trkpt lat="40.613400" lon="-4.777900">
        <ele>1847.0</ele>
        <time>2018-08-13T13:38:18Z</time>
      </trkpt>
      <trkpt lat="40.613383" lon="-4.777967">
        <ele>1847.0</ele>
        <time>2018-08-13T13:38:19Z</time>
      </trkpt>
      <trkpt lat="40.613350" lon="-4.778050">
        <ele>1847.0</ele>
        <time>2018-08-13T13:38:20Z</time>
      </trkpt>
      <trkpt lat="40.613300" lon="-4.778133">
        <ele>1847.0</ele>
        <time>2018-08-13T13:38:21Z</time>
      </trkpt>
      <trkpt lat="40.613217" lon="-4.778200">
        <ele>1847.0</ele>
        <time>2018-08-13T13:38:22Z</time>
      </trkpt>
      <trkpt lat="40.613117" lon="-4.778250">
        <ele>1848.0</ele>
        <time>2018-08-13T13:38:23Z</time>
      </trkpt>
      <trkpt lat="40.612983" lon="-4.778267">
        <ele>1850.0</ele>
        <time>2018-08-13T13:38:24Z</time>
      </trkpt>
      <trkpt lat="40.612850" lon="-4.778267">
        <ele>1851.0</ele>
        <time>2018-08-13T13:38:25Z</time>
      </trkpt>
      <trkpt lat="40.612717" lon="-4.778233">
        <ele>1853.0</ele>
        <time>2018-08-13T13:38:26Z</time>
      </trkpt>
      <trkpt lat="40.612583" lon="-4.778150">
        <ele>1854.0</ele>
        <time>2018-08-13T13:38:27Z</time>
      </trkpt>
      <trkpt lat="40.612467" lon="-4.778050">
        <ele>1855.0</ele>
        <time>2018-08-13T13:38:28Z</time>
      </trkpt>
      <trkpt lat="40.612350" lon="-4.777917">
        <ele>1857.0</ele>
        <time>2018-08-13T13:38:29Z</time>
      </trkpt>
      <trkpt lat="40.612267" lon="-4.777783">
        <ele>1860.0</ele>
        <time>2018-08-13T13:38:30Z</time>
      </trkpt>
      <trkpt lat="40.612183" lon="-4.777650">
        <ele>1862.0</ele>
        <time>2018-08-13T13:38:31Z</time>
      </trkpt>
      <trkpt lat="40.612133" lon="-4.777500">
        <ele>1863.0</ele>
        <time>2018-08-13T13:38:32Z</time>
      </trkpt>
      <trkpt lat="40.612083" lon="-4.777350">
        <ele>1863.0</ele>
        <time>2018-08-13T13:38:33Z</time>
      </trkpt>
      <trkpt lat="40.612050" lon="-4.777183">
        <ele>1862.0</ele>
        <time>2018-08-13T13:38:34Z</time>
      </trkpt>
      <trkpt lat="40.612033" lon="-4.777000">
        <ele>1861.0</ele>
        <time>2018-08-13T13:38:35Z</time>
      </trkpt>
      <trkpt lat="40.612017" lon="-4.776817">
        <ele>1861.0</ele>
        <time>2018-08-13T13:38:36Z</time>
      </trkpt>
      <trkpt lat="40.612000" lon="-4.776633">
        <ele>1862.0</ele>
        <time>2018-08-13T13:38:37Z</time>
      </trkpt>
      <trkpt lat="40.611983" lon="-4.776467">
        <ele>1863.0</ele>
        <time>2018-08-13T13:38:38Z</time>
      </trkpt>
      <trkpt lat="40.611983" lon="-4.776300">
        <ele>1864.0</ele>
        <time>2018-08-13T13:38:39Z</time>
      </trkpt>
      <trkpt lat="40.611983" lon="-4.776133">
        <ele>1864.0</ele>
        <time>2018-08-13T13:38:40Z</time>
      </trkpt>
      <trkpt lat="40.612000" lon="-4.775983">
        <ele>1863.0</ele>
        <time>2018-08-13T13:38:41Z</time>
      </trkpt>
      <trkpt lat="40.612017" lon="-4.775833">
        <ele>1862.0</ele>
        <time>2018-08-13T13:38:42Z</time>
      </trkpt>
      <trkpt lat="40.612050" lon="-4.775667">
        <ele>1862.0</ele>
        <time>2018-08-13T13:38:43Z</time>
      </trkpt>
      <trkpt lat="40.612067" lon="-4.775483">
        <ele>1863.0</ele>
        <time>2018-08-13T13:38:44Z</time>
      </trkpt>
      <trkpt lat="40.612100" lon="-4.775317">
        <ele>1864.0</ele>
        <time>2018-08-13T13:38:45Z</time>
      </trkpt>
      <trkpt lat="40.612133" lon="-4.775150">
        <ele>1867.0</ele>
        <time>2018-08-13T13:38:46Z</time>
      </trkpt>
      <trkpt lat="40.612167" lon="-4.775017">
        <ele>1869.0</ele>
        <time>2018-08-13T13:38:47Z</time>
      </trkpt>
      <trkpt lat="40.612200" lon="-4.774883">
        <ele>1870.0</ele>
        <time>2018-08-13T13:38:48Z</time>
      </trkpt>
      <trkpt lat="40.612233" lon="-4.774750">
        <ele>1869.0</ele>
        <time>2018-08-13T13:38:49Z</time>
      </trkpt>
      <trkpt lat="40.612283" lon="-4.774600">
        <ele>1868.0</ele>
        <time>2018-08-13T13:38:50Z</time>
      </trkpt>
      <trkpt lat="40.612333" lon="-4.774450">
        <ele>1867.0</ele>
        <time>2018-08-13T13:38:51Z</time>
      </trkpt>
      <trkpt lat="40.612367" lon="-4.774300">
        <ele>1867.0</ele>
        <time>2018-08-13T13:38:52Z</time>
      </trkpt>
      <trkpt lat="40.612417" lon="-4.774150">
        <ele>1867.0</ele>
        <time>2018-08-13T13:38:53Z</time>
      </trkpt>
      <trkpt lat="40.612450" lon="-4.774000">
        <ele>1868.0</ele>
        <time>2018-08-13T13:38:54Z</time>
      </trkpt>
      <trkpt lat="40.612483" lon="-4.773867">
        <ele>1868.0</ele>
        <time>2018-08-13T13:38:55Z</time>
      </trkpt>
      <trkpt lat="40.612517" lon="-4.773717">
        <ele>1867.0</ele>
        <time>2018-08-13T13:38:56Z</time>
      </trkpt>
      <trkpt lat="40.612550" lon="-4.773583">
        <ele>1867.0</ele>
        <time>2018-08-13T13:38:57Z</time>
      </trkpt>
      <trkpt lat="40.612600" lon="-4.773467">
        <ele>1866.0</ele>
        <time>2018-08-13T13:38:58Z</time>
      </trkpt>
      <trkpt lat="40.612650" lon="-4.773333">
        <ele>1865.0</ele>
        <time>2018-08-13T13:38:59Z</time>
      </trkpt>
      <trkpt lat="40.612717" lon="-4.773200">
        <ele>1866.0</ele>
        <time>2018-08-13T13:39:00Z</time>
      </trkpt>
      <trkpt lat="40.612767" lon="-4.773050">
        <ele>1867.0</ele>
        <time>2018-08-13T13:39:01Z</time>
      </trkpt>
      <trkpt lat="40.612833" lon="-4.772900">
        <ele>1868.0</ele>
        <time>2018-08-13T13:39:02Z</time>
      </trkpt>
      <trkpt lat="40.612867" lon="-4.772750">
        <ele>1869.0</ele>
        <time>2018-08-13T13:39:03Z</time>
      </trkpt>
      <trkpt lat="40.612900" lon="-4.772617">
        <ele>1869.0</ele>
        <time>2018-08-13T13:39:04Z</time>
      </trkpt>
      <trkpt lat="40.612933" lon="-4.772467">
        <ele>1868.0</ele>
        <time>2018-08-13T13:39:05Z</time>
      </trkpt>
      <trkpt lat="40.612967" lon="-4.772300">
        <ele>1867.0</ele>
        <time>2018-08-13T13:39:06Z</time>
      </trkpt>
      <trkpt lat="40.613017" lon="-4.772133">
        <ele>1864.0</ele>
        <time>2018-08-13T13:39:07Z</time>
      </trkpt>
      <trkpt lat="40.613067" lon="-4.771967">
        <ele>1863.0</ele>
        <time>2018-08-13T13:39:08Z</time>
      </trkpt>
      <trkpt lat="40.613117" lon="-4.771783">
        <ele>1863.0</ele>
        <time>2018-08-13T13:39:09Z</time>
      </trkpt>
      <trkpt lat="40.613167" lon="-4.771617">
        <ele>1864.0</ele>
        <time>2018-08-13T13:39:10Z</time>
      </trkpt>
      <trkpt lat="40.613200" lon="-4.771450">
        <ele>1865.0</ele>
        <time>2018-08-13T13:39:11Z</time>
      </trkpt>
      <trkpt lat="40.613233" lon="-4.771283">
        <ele>1866.0</ele>
        <time>2018-08-13T13:39:12Z</time>
      </trkpt>
      <trkpt lat="40.613267" lon="-4.771117">
        <ele>1866.0</ele>
        <time>2018-08-13T13:39:13Z</time>
      </trkpt>
      <trkpt lat="40.613300" lon="-4.770950">
        <ele>1866.0</ele>
        <time>2018-08-13T13:39:14Z</time>
      </trkpt>
      <trkpt lat="40.613350" lon="-4.770800">
        <ele>1866.0</ele>
        <time>2018-08-13T13:39:15Z</time>
      </trkpt>
      <trkpt lat="40.613400" lon="-4.770650">
        <ele>1867.0</ele>
        <time>2018-08-13T13:39:16Z</time>
      </trkpt>
      <trkpt lat="40.613433" lon="-4.770500">
        <ele>1868.0</ele>
        <time>2018-08-13T13:39:17Z</time>
      </trkpt>
      <trkpt lat="40.613467" lon="-4.770350">
        <ele>1869.0</ele>
        <time>2018-08-13T13:39:18Z</time>
      </trkpt>
      <trkpt lat="40.613500" lon="-4.770200">
        <ele>1870.0</ele>
        <time>2018-08-13T13:39:19Z</time>
      </trkpt>
      <trkpt lat="40.613533" lon="-4.770050">
        <ele>1870.0</ele>
        <time>2018-08-13T13:39:20Z</time>
      </trkpt>
      <trkpt lat="40.613567" lon="-4.769900">
        <ele>1870.0</ele>
        <time>2018-08-13T13:39:21Z</time>
      </trkpt>
      <trkpt lat="40.613600" lon="-4.769767">
        <ele>1869.0</ele>
        <time>2018-08-13T13:39:22Z</time>
      </trkpt>
      <trkpt lat="40.613650" lon="-4.769617">
        <ele>1868.0</ele>
        <time>2018-08-13T13:39:23Z</time>
      </trkpt>
      <trkpt lat="40.613683" lon="-4.769483">
        <ele>1868.0</ele>
        <time>2018-08-13T13:39:24Z</time>
      </trkpt>
      <trkpt lat="40.613717" lon="-4.769350">
        <ele>1867.0</ele>
        <time>2018-08-13T13:39:25Z</time>
      </trkpt>
      <trkpt lat="40.613767" lon="-4.769217">
        <ele>1867.0</ele>
        <time>2018-08-13T13:39:26Z</time>
      </trkpt>
      <trkpt lat="40.613800" lon="-4.769067">
        <ele>1867.0</ele>
        <time>2018-08-13T13:39:27Z</time>
      </trkpt>
      <trkpt lat="40.613850" lon="-4.768950">
        <ele>1867.0</ele>
        <time>2018-08-13T13:39:28Z</time>
      </trkpt>
      <trkpt lat="40.613900" lon="-4.768833">
        <ele>1867.0</ele>
        <time>2018-08-13T13:39:29Z</time>
      </trkpt>
      <trkpt lat="40.613950" lon="-4.768700">
        <ele>1868.0</ele>
        <time>2018-08-13T13:39:30Z</time>
      </trkpt>
      <trkpt lat="40.613983" lon="-4.768567">
        <ele>1868.0</ele>
        <time>2018-08-13T13:39:31Z</time>
      </trkpt>
      <trkpt lat="40.614017" lon="-4.768450">
        <ele>1868.0</ele>
        <time>2018-08-13T13:39:32Z</time>
      </trkpt>
      <trkpt lat="40.614067" lon="-4.768317">
        <ele>1868.0</ele>
        <time>2018-08-13T13:39:33Z</time>
      </trkpt>
      <trkpt lat="40.614117" lon="-4.768183">
        <ele>1868.0</ele>
        <time>2018-08-13T13:39:34Z</time>
      </trkpt>
      <trkpt lat="40.614183" lon="-4.768050">
        <ele>1869.0</ele>
        <time>2018-08-13T13:39:35Z</time>
      </trkpt>
      <trkpt lat="40.614233" lon="-4.767917">
        <ele>1869.0</ele>
        <time>2018-08-13T13:39:36Z</time>
      </trkpt>
      <trkpt lat="40.614283" lon="-4.767767">
        <ele>1869.0</ele>
        <time>2018-08-13T13:39:37Z</time>
      </trkpt>
      <trkpt lat="40.614317" lon="-4.767617">
        <ele>1869.0</ele>
        <time>2018-08-13T13:39:38Z</time>
      </trkpt>
      <trkpt lat="40.614350" lon="-4.767467">
        <ele>1869.0</ele>
        <time>2018-08-13T13:39:39Z</time>
      </trkpt>
      <trkpt lat="40.614383" lon="-4.767317">
        <ele>1869.0</ele>
        <time>2018-08-13T13:39:40Z</time>
      </trkpt>
      <trkpt lat="40.614433" lon="-4.767150">
        <ele>1868.0</ele>
        <time>2018-08-13T13:39:41Z</time>
      </trkpt>
      <trkpt lat="40.614467" lon="-4.766983">
        <ele>1868.0</ele>
        <time>2018-08-13T13:39:42Z</time>
      </trkpt>
      <trkpt lat="40.614517" lon="-4.766817">
        <ele>1868.0</ele>
        <time>2018-08-13T13:39:43Z</time>
      </trkpt>
      <trkpt lat="40.614550" lon="-4.766667">
        <ele>1869.0</ele>
        <time>2018-08-13T13:39:44Z</time>
      </trkpt>
      <trkpt lat="40.614583" lon="-4.766533">
        <ele>1868.0</ele>
        <time>2018-08-13T13:39:45Z</time>
      </trkpt>
      <trkpt lat="40.614633" lon="-4.766400">
        <ele>1867.0</ele>
        <time>2018-08-13T13:39:46Z</time>
      </trkpt>
      <trkpt lat="40.614700" lon="-4.766267">
        <ele>1866.0</ele>
        <time>2018-08-13T13:39:47Z</time>
      </trkpt>
      <trkpt lat="40.614767" lon="-4.766150">
        <ele>1865.0</ele>
        <time>2018-08-13T13:39:48Z</time>
      </trkpt>
      <trkpt lat="40.614850" lon="-4.766050">
        <ele>1865.0</ele>
        <time>2018-08-13T13:39:49Z</time>
      </trkpt>
      <trkpt lat="40.614917" lon="-4.765933">
        <ele>1865.0</ele>
        <time>2018-08-13T13:39:50Z</time>
      </trkpt>
      <trkpt lat="40.614967" lon="-4.765833">
        <ele>1865.0</ele>
        <time>2018-08-13T13:39:51Z</time>
      </trkpt>
      <trkpt lat="40.615017" lon="-4.765717">
        <ele>1864.0</ele>
        <time>2018-08-13T13:39:52Z</time>
      </trkpt>
      <trkpt lat="40.615083" lon="-4.765617">
        <ele>1864.0</ele>
        <time>2018-08-13T13:39:53Z</time>
      </trkpt>
      <trkpt lat="40.615133" lon="-4.765500">
        <ele>1862.0</ele>
        <time>2018-08-13T13:39:54Z</time>
      </trkpt>
      <trkpt lat="40.615200" lon="-4.765400">
        <ele>1861.0</ele>
        <time>2018-08-13T13:39:55Z</time>
      </trkpt>
      <trkpt lat="40.615283" lon="-4.765283">
        <ele>1859.0</ele>
        <time>2018-08-13T13:39:56Z</time>
      </trkpt>
      <trkpt lat="40.615333" lon="-4.765167">
        <ele>1858.0</ele>
        <time>2018-08-13T13:39:57Z</time>
      </trkpt>
      <trkpt lat="40.615400" lon="-4.765033">
        <ele>1857.0</ele>
        <time>2018-08-13T13:39:58Z</time>
      </trkpt>
      <trkpt lat="40.615450" lon="-4.764900">
        <ele>1856.0</ele>
        <time>2018-08-13T13:39:59Z</time>
      </trkpt>
      <trkpt lat="40.615483" lon="-4.764750">
        <ele>1854.0</ele>
        <time>2018-08-13T13:40:00Z</time>
      </trkpt>
      <trkpt lat="40.615533" lon="-4.764600">
        <ele>1853.0</ele>
        <time>2018-08-13T13:40:01Z</time>
      </trkpt>
      <trkpt lat="40.615600" lon="-4.764467">
        <ele>1853.0</ele>
        <time>2018-08-13T13:40:02Z</time>
      </trkpt>
      <trkpt lat="40.615650" lon="-4.764350">
        <ele>1851.0</ele>
        <time>2018-08-13T13:40:03Z</time>
      </trkpt>
      <trkpt lat="40.615717" lon="-4.764217">
        <ele>1850.0</ele>
        <time>2018-08-13T13:40:04Z</time>
      </trkpt>
      <trkpt lat="40.615750" lon="-4.764083">
        <ele>1849.0</ele>
        <time>2018-08-13T13:40:05Z</time>
      </trkpt>
      <trkpt lat="40.615800" lon="-4.763950">
        <ele>1847.0</ele>
        <time>2018-08-13T13:40:06Z</time>
      </trkpt>
      <trkpt lat="40.615850" lon="-4.763817">
        <ele>1845.0</ele>
        <time>2018-08-13T13:40:07Z</time>
      </trkpt>
      <trkpt lat="40.615900" lon="-4.763683">
        <ele>1843.0</ele>
        <time>2018-08-13T13:40:08Z</time>
      </trkpt>
      <trkpt lat="40.615950" lon="-4.763550">
        <ele>1842.0</ele>
        <time>2018-08-13T13:40:09Z</time>
      </trkpt>
      <trkpt lat="40.616000" lon="-4.763417">
        <ele>1840.0</ele>
        <time>2018-08-13T13:40:10Z</time>
      </trkpt>
      <trkpt lat="40.616050" lon="-4.763300">
        <ele>1839.0</ele>
        <time>2018-08-13T13:40:11Z</time>
      </trkpt>
      <trkpt lat="40.616100" lon="-4.763183">
        <ele>1837.0</ele>
        <time>2018-08-13T13:40:12Z</time>
      </trkpt>
      <trkpt lat="40.616167" lon="-4.763050">
        <ele>1835.0</ele>
        <time>2018-08-13T13:40:13Z</time>
      </trkpt>
      <trkpt lat="40.616233" lon="-4.762917">
        <ele>1834.0</ele>
        <time>2018-08-13T13:40:14Z</time>
      </trkpt>
      <trkpt lat="40.616283" lon="-4.762783">
        <ele>1833.0</ele>
        <time>2018-08-13T13:40:15Z</time>
      </trkpt>
      <trkpt lat="40.616350" lon="-4.762667">
        <ele>1832.0</ele>
        <time>2018-08-13T13:40:16Z</time>
      </trkpt>
      <trkpt lat="40.616417" lon="-4.762533">
        <ele>1831.0</ele>
        <time>2018-08-13T13:40:17Z</time>
      </trkpt>
      <trkpt lat="40.616483" lon="-4.762417">
        <ele>1829.0</ele>
        <time>2018-08-13T13:40:18Z</time>
      </trkpt>
      <trkpt lat="40.616550" lon="-4.762283">
        <ele>1827.0</ele>
        <time>2018-08-13T13:40:19Z</time>
      </trkpt>
      <trkpt lat="40.616617" lon="-4.762150">
        <ele>1826.0</ele>
        <time>2018-08-13T13:40:20Z</time>
      </trkpt>
      <trkpt lat="40.616667" lon="-4.762000">
        <ele>1825.0</ele>
        <time>2018-08-13T13:40:21Z</time>
      </trkpt>
      <trkpt lat="40.616717" lon="-4.761867">
        <ele>1823.0</ele>
        <time>2018-08-13T13:40:22Z</time>
      </trkpt>
      <trkpt lat="40.616767" lon="-4.761717">
        <ele>1821.0</ele>
        <time>2018-08-13T13:40:23Z</time>
      </trkpt>
      <trkpt lat="40.616833" lon="-4.761583">
        <ele>1819.0</ele>
        <time>2018-08-13T13:40:24Z</time>
      </trkpt>
      <trkpt lat="40.616883" lon="-4.761433">
        <ele>1816.0</ele>
        <time>2018-08-13T13:40:25Z</time>
      </trkpt>
      <trkpt lat="40.616950" lon="-4.761283">
        <ele>1814.0</ele>
        <time>2018-08-13T13:40:26Z</time>
      </trkpt>
      <trkpt lat="40.617000" lon="-4.761133">
        <ele>1812.0</ele>
        <time>2018-08-13T13:40:27Z</time>
      </trkpt>
      <trkpt lat="40.617083" lon="-4.761000">
        <ele>1810.0</ele>
        <time>2018-08-13T13:40:28Z</time>
      </trkpt>
      <trkpt lat="40.617133" lon="-4.760883">
        <ele>1808.0</ele>
        <time>2018-08-13T13:40:29Z</time>
      </trkpt>
      <trkpt lat="40.617217" lon="-4.760767">
        <ele>1806.0</ele>
        <time>2018-08-13T13:40:30Z</time>
      </trkpt>
      <trkpt lat="40.617283" lon="-4.760650">
        <ele>1804.0</ele>
        <time>2018-08-13T13:40:31Z</time>
      </trkpt>
      <trkpt lat="40.617367" lon="-4.760567">
        <ele>1803.0</ele>
        <time>2018-08-13T13:40:32Z</time>
      </trkpt>
      <trkpt lat="40.617467" lon="-4.760483">
        <ele>1803.0</ele>
        <time>2018-08-13T13:40:33Z</time>
      </trkpt>
      <trkpt lat="40.617533" lon="-4.760433">
        <ele>1803.0</ele>
        <time>2018-08-13T13:40:34Z</time>
      </trkpt>
      <trkpt lat="40.617600" lon="-4.760383">
        <ele>1803.0</ele>
        <time>2018-08-13T13:40:35Z</time>
      </trkpt>
      <trkpt lat="40.617667" lon="-4.760317">
        <ele>1803.0</ele>
        <time>2018-08-13T13:40:36Z</time>
      </trkpt>
      <trkpt lat="40.617733" lon="-4.760233">
        <ele>1802.0</ele>
        <time>2018-08-13T13:40:37Z</time>
      </trkpt>
      <trkpt lat="40.617800" lon="-4.760150">
        <ele>1802.0</ele>
        <time>2018-08-13T13:40:38Z</time>
      </trkpt>
      <trkpt lat="40.617883" lon="-4.760067">
        <ele>1802.0</ele>
        <time>2018-08-13T13:40:39Z</time>
      </trkpt>
      <trkpt lat="40.617950" lon="-4.759967">
        <ele>1803.0</ele>
        <time>2018-08-13T13:40:40Z</time>
      </trkpt>
      <trkpt lat="40.618017" lon="-4.759850">
        <ele>1803.0</ele>
        <time>2018-08-13T13:40:41Z</time>
      </trkpt>
      <trkpt lat="40.618083" lon="-4.759750">
        <ele>1804.0</ele>
        <time>2018-08-13T13:40:42Z</time>
      </trkpt>
      <trkpt lat="40.618150" lon="-4.759667">
        <ele>1804.0</ele>
        <time>2018-08-13T13:40:43Z</time>
      </trkpt>
      <trkpt lat="40.618233" lon="-4.759567">
        <ele>1803.0</ele>
        <time>2018-08-13T13:40:44Z</time>
      </trkpt>
      <trkpt lat="40.618317" lon="-4.759483">
        <ele>1803.0</ele>
        <time>2018-08-13T13:40:45Z</time>
      </trkpt>
      <trkpt lat="40.618400" lon="-4.759383">
        <ele>1803.0</ele>
        <time>2018-08-13T13:40:46Z</time>
      </trkpt>
      <trkpt lat="40.618467" lon="-4.759283">
        <ele>1802.0</ele>
        <time>2018-08-13T13:40:47Z</time>
      </trkpt>
      <trkpt lat="40.618550" lon="-4.759183">
        <ele>1802.0</ele>
        <time>2018-08-13T13:40:48Z</time>
      </trkpt>
      <trkpt lat="40.618617" lon="-4.759100">
        <ele>1802.0</ele>
        <time>2018-08-13T13:40:49Z</time>
      </trkpt>
      <trkpt lat="40.618700" lon="-4.759017">
        <ele>1802.0</ele>
        <time>2018-08-13T13:40:50Z</time>
      </trkpt>
      <trkpt lat="40.618767" lon="-4.758917">
        <ele>1801.0</ele>
        <time>2018-08-13T13:40:51Z</time>
      </trkpt>
      <trkpt lat="40.618850" lon="-4.758833">
        <ele>1802.0</ele>
        <time>2018-08-13T13:40:52Z</time>
      </trkpt>
      <trkpt lat="40.618933" lon="-4.758750">
        <ele>1802.0</ele>
        <time>2018-08-13T13:40:53Z</time>
      </trkpt>
      <trkpt lat="40.619000" lon="-4.758667">
        <ele>1803.0</ele>
        <time>2018-08-13T13:40:54Z</time>
      </trkpt>
      <trkpt lat="40.619083" lon="-4.758600">
        <ele>1802.0</ele>
        <time>2018-08-13T13:40:55Z</time>
      </trkpt>
      <trkpt lat="40.619150" lon="-4.758517">
        <ele>1802.0</ele>
        <time>2018-08-13T13:40:56Z</time>
      </trkpt>
      <trkpt lat="40.619233" lon="-4.758433">
        <ele>1802.0</ele>
        <time>2018-08-13T13:40:57Z</time>
      </trkpt>
      <trkpt lat="40.619300" lon="-4.758367">
        <ele>1802.0</ele>
        <time>2018-08-13T13:40:58Z</time>
      </trkpt>
      <trkpt lat="40.619367" lon="-4.758283">
        <ele>1802.0</ele>
        <time>2018-08-13T13:40:59Z</time>
      </trkpt>
      <trkpt lat="40.619417" lon="-4.758233">
        <ele>1803.0</ele>
        <time>2018-08-13T13:41:00Z</time>
      </trkpt>
      <trkpt lat="40.619467" lon="-4.758150">
        <ele>1803.0</ele>
        <time>2018-08-13T13:41:01Z</time>
      </trkpt>
      <trkpt lat="40.619517" lon="-4.758067">
        <ele>1803.0</ele>
        <time>2018-08-13T13:41:02Z</time>
      </trkpt>
      <trkpt lat="40.619567" lon="-4.757967">
        <ele>1803.0</ele>
        <time>2018-08-13T13:41:03Z</time>
      </trkpt>
      <trkpt lat="40.619633" lon="-4.757867">
        <ele>1803.0</ele>
        <time>2018-08-13T13:41:04Z</time>
      </trkpt>
      <trkpt lat="40.619683" lon="-4.757783">
        <ele>1804.0</ele>
        <time>2018-08-13T13:41:05Z</time>
      </trkpt>
      <trkpt lat="40.619733" lon="-4.757683">
        <ele>1804.0</ele>
        <time>2018-08-13T13:41:06Z</time>
      </trkpt>
      <trkpt lat="40.619783" lon="-4.757600">
        <ele>1804.0</ele>
        <time>2018-08-13T13:41:07Z</time>
      </trkpt>
      <trkpt lat="40.619850" lon="-4.757517">
        <ele>1803.0</ele>
        <time>2018-08-13T13:41:08Z</time>
      </trkpt>
      <trkpt lat="40.619917" lon="-4.757417">
        <ele>1802.0</ele>
        <time>2018-08-13T13:41:09Z</time>
      </trkpt>
      <trkpt lat="40.620000" lon="-4.757333">
        <ele>1802.0</ele>
        <time>2018-08-13T13:41:10Z</time>
      </trkpt>
      <trkpt lat="40.620067" lon="-4.757233">
        <ele>1803.0</ele>
        <time>2018-08-13T13:41:11Z</time>
      </trkpt>
      <trkpt lat="40.620117" lon="-4.757150">
        <ele>1804.0</ele>
        <time>2018-08-13T13:41:12Z</time>
      </trkpt>
      <trkpt lat="40.620167" lon="-4.757050">
        <ele>1804.0</ele>
        <time>2018-08-13T13:41:13Z</time>
      </trkpt>
      <trkpt lat="40.620217" lon="-4.756950">
        <ele>1805.0</ele>
        <time>2018-08-13T13:41:14Z</time>
      </trkpt>
      <trkpt lat="40.620267" lon="-4.756817">
        <ele>1804.0</ele>
        <time>2018-08-13T13:41:15Z</time>
      </trkpt>
      <trkpt lat="40.620300" lon="-4.756667">
        <ele>1803.0</ele>
        <time>2018-08-13T13:41:16Z</time>
      </trkpt>
      <trkpt lat="40.620317" lon="-4.756517">
        <ele>1804.0</ele>
        <time>2018-08-13T13:41:17Z</time>
      </trkpt>
      <trkpt lat="40.620333" lon="-4.756367">
        <ele>1805.0</ele>
        <time>2018-08-13T13:41:18Z</time>
      </trkpt>
      <trkpt lat="40.620367" lon="-4.756250">
        <ele>1806.0</ele>
        <time>2018-08-13T13:41:19Z</time>
      </trkpt>
      <trkpt lat="40.620400" lon="-4.756117">
        <ele>1805.0</ele>
        <time>2018-08-13T13:41:20Z</time>
      </trkpt>
      <trkpt lat="40.620467" lon="-4.756000">
        <ele>1803.0</ele>
        <time>2018-08-13T13:41:21Z</time>
      </trkpt>
      <trkpt lat="40.620517" lon="-4.755883">
        <ele>1802.0</ele>
        <time>2018-08-13T13:41:22Z</time>
      </trkpt>
      <trkpt lat="40.620583" lon="-4.755783">
        <ele>1802.0</ele>
        <time>2018-08-13T13:41:23Z</time>
      </trkpt>
      <trkpt lat="40.620633" lon="-4.755683">
        <ele>1803.0</ele>
        <time>2018-08-13T13:41:24Z</time>
      </trkpt>
      <trkpt lat="40.620667" lon="-4.755600">
        <ele>1801.0</ele>
        <time>2018-08-13T13:41:25Z</time>
      </trkpt>
      <trkpt lat="40.620700" lon="-4.755517">
        <ele>1799.0</ele>
        <time>2018-08-13T13:41:26Z</time>
      </trkpt>
      <trkpt lat="40.620750" lon="-4.755417">
        <ele>1795.0</ele>
        <time>2018-08-13T13:41:27Z</time>
      </trkpt>
      <trkpt lat="40.620817" lon="-4.755300">
        <ele>1791.0</ele>
        <time>2018-08-13T13:41:28Z</time>
      </trkpt>
      <trkpt lat="40.620900" lon="-4.755183">
        <ele>1789.0</ele>
        <time>2018-08-13T13:41:29Z</time>
      </trkpt>
      <trkpt lat="40.620983" lon="-4.755067">
        <ele>1788.0</ele>
        <time>2018-08-13T13:41:30Z</time>
      </trkpt>
      <trkpt lat="40.621050" lon="-4.754983">
        <ele>1787.0</ele>
        <time>2018-08-13T13:41:31Z</time>
      </trkpt>
      <trkpt lat="40.621100" lon="-4.754900">
        <ele>1786.0</ele>
        <time>2018-08-13T13:41:32Z</time>
      </trkpt>
      <trkpt lat="40.621167" lon="-4.754817">
        <ele>1784.0</ele>
        <time>2018-08-13T13:41:33Z</time>
      </trkpt>
      <trkpt lat="40.621250" lon="-4.754750">
        <ele>1782.0</ele>
        <time>2018-08-13T13:41:34Z</time>
      </trkpt>
      <trkpt lat="40.621333" lon="-4.754667">
        <ele>1779.0</ele>
        <time>2018-08-13T13:41:35Z</time>
      </trkpt>
      <trkpt lat="40.621417" lon="-4.754600">
        <ele>1778.0</ele>
        <time>2018-08-13T13:41:36Z</time>
      </trkpt>
      <trkpt lat="40.621517" lon="-4.754533">
        <ele>1777.0</ele>
        <time>2018-08-13T13:41:37Z</time>
      </trkpt>
      <trkpt lat="40.621600" lon="-4.754450">
        <ele>1776.0</ele>
        <time>2018-08-13T13:41:38Z</time>
      </trkpt>
      <trkpt lat="40.621683" lon="-4.754383">
        <ele>1774.0</ele>
        <time>2018-08-13T13:41:39Z</time>
      </trkpt>
      <trkpt lat="40.621767" lon="-4.754300">
        <ele>1773.0</ele>
        <time>2018-08-13T13:41:40Z</time>
      </trkpt>
      <trkpt lat="40.621817" lon="-4.754200">
        <ele>1772.0</ele>
        <time>2018-08-13T13:41:41Z</time>
      </trkpt>
      <trkpt lat="40.621883" lon="-4.754100">
        <ele>1770.0</ele>
        <time>2018-08-13T13:41:42Z</time>
      </trkpt>
      <trkpt lat="40.621967" lon="-4.754000">
        <ele>1768.0</ele>
        <time>2018-08-13T13:41:43Z</time>
      </trkpt>
      <trkpt lat="40.622033" lon="-4.753917">
        <ele>1767.0</ele>
        <time>2018-08-13T13:41:44Z</time>
      </trkpt>
      <trkpt lat="40.622117" lon="-4.753867">
        <ele>1765.0</ele>
        <time>2018-08-13T13:41:45Z</time>
      </trkpt>
      <trkpt lat="40.622200" lon="-4.753800">
        <ele>1763.0</ele>
        <time>2018-08-13T13:41:46Z</time>
      </trkpt>
      <trkpt lat="40.622267" lon="-4.753750">
        <ele>1762.0</ele>
        <time>2018-08-13T13:41:47Z</time>
      </trkpt>
      <trkpt lat="40.622350" lon="-4.753683">
        <ele>1759.0</ele>
        <time>2018-08-13T13:41:48Z</time>
      </trkpt>
      <trkpt lat="40.622433" lon="-4.753617">
        <ele>1757.0</ele>
        <time>2018-08-13T13:41:49Z</time>
      </trkpt>
      <trkpt lat="40.622517" lon="-4.753533">
        <ele>1754.0</ele>
        <time>2018-08-13T13:41:50Z</time>
      </trkpt>
      <trkpt lat="40.622600" lon="-4.753467">
        <ele>1752.0</ele>
        <time>2018-08-13T13:41:51Z</time>
      </trkpt>
      <trkpt lat="40.622683" lon="-4.753383">
        <ele>1749.0</ele>
        <time>2018-08-13T13:41:52Z</time>
      </trkpt>
      <trkpt lat="40.622767" lon="-4.753300">
        <ele>1746.0</ele>
        <time>2018-08-13T13:41:53Z</time>
      </trkpt>
      <trkpt lat="40.622850" lon="-4.753200">
        <ele>1743.0</ele>
        <time>2018-08-13T13:41:54Z</time>
      </trkpt>
      <trkpt lat="40.622950" lon="-4.753100">
        <ele>1741.0</ele>
        <time>2018-08-13T13:41:55Z</time>
      </trkpt>
      <trkpt lat="40.623033" lon="-4.752983">
        <ele>1738.0</ele>
        <time>2018-08-13T13:41:56Z</time>
      </trkpt>
      <trkpt lat="40.623117" lon="-4.752867">
        <ele>1738.0</ele>
        <time>2018-08-13T13:41:57Z</time>
      </trkpt>
      <trkpt lat="40.623183" lon="-4.752733">
        <ele>1737.0</ele>
        <time>2018-08-13T13:41:58Z</time>
      </trkpt>
      <trkpt lat="40.623250" lon="-4.752617">
        <ele>1736.0</ele>
        <time>2018-08-13T13:41:59Z</time>
      </trkpt>
      <trkpt lat="40.623317" lon="-4.752483">
        <ele>1735.0</ele>
        <time>2018-08-13T13:42:00Z</time>
      </trkpt>
      <trkpt lat="40.623383" lon="-4.752367">
        <ele>1734.0</ele>
        <time>2018-08-13T13:42:01Z</time>
      </trkpt>
      <trkpt lat="40.623433" lon="-4.752233">
        <ele>1733.0</ele>
        <time>2018-08-13T13:42:02Z</time>
      </trkpt>
      <trkpt lat="40.623500" lon="-4.752100">
        <ele>1732.0</ele>
        <time>2018-08-13T13:42:03Z</time>
      </trkpt>
      <trkpt lat="40.623567" lon="-4.751967">
        <ele>1731.0</ele>
        <time>2018-08-13T13:42:04Z</time>
      </trkpt>
      <trkpt lat="40.623633" lon="-4.751850">
        <ele>1730.0</ele>
        <time>2018-08-13T13:42:05Z</time>
      </trkpt>
      <trkpt lat="40.623700" lon="-4.751733">
        <ele>1729.0</ele>
        <time>2018-08-13T13:42:06Z</time>
      </trkpt>
      <trkpt lat="40.623750" lon="-4.751617">
        <ele>1728.0</ele>
        <time>2018-08-13T13:42:07Z</time>
      </trkpt>
      <trkpt lat="40.623800" lon="-4.751500">
        <ele>1726.0</ele>
        <time>2018-08-13T13:42:08Z</time>
      </trkpt>
      <trkpt lat="40.623867" lon="-4.751383">
        <ele>1725.0</ele>
        <time>2018-08-13T13:42:09Z</time>
      </trkpt>
      <trkpt lat="40.623917" lon="-4.751267">
        <ele>1724.0</ele>
        <time>2018-08-13T13:42:10Z</time>
      </trkpt>
      <trkpt lat="40.623967" lon="-4.751150">
        <ele>1722.0</ele>
        <time>2018-08-13T13:42:11Z</time>
      </trkpt>
      <trkpt lat="40.624033" lon="-4.751033">
        <ele>1721.0</ele>
        <time>2018-08-13T13:42:12Z</time>
      </trkpt>
      <trkpt lat="40.624100" lon="-4.750933">
        <ele>1720.0</ele>
        <time>2018-08-13T13:42:13Z</time>
      </trkpt>
      <trkpt lat="40.624167" lon="-4.750833">
        <ele>1719.0</ele>
        <time>2018-08-13T13:42:14Z</time>
      </trkpt>
      <trkpt lat="40.624233" lon="-4.750733">
        <ele>1717.0</ele>
        <time>2018-08-13T13:42:15Z</time>
      </trkpt>
      <trkpt lat="40.624300" lon="-4.750633">
        <ele>1715.0</ele>
        <time>2018-08-13T13:42:16Z</time>
      </trkpt>
      <trkpt lat="40.624350" lon="-4.750533">
        <ele>1713.0</ele>
        <time>2018-08-13T13:42:17Z</time>
      </trkpt>
      <trkpt lat="40.624417" lon="-4.750433">
        <ele>1711.0</ele>
        <time>2018-08-13T13:42:18Z</time>
      </trkpt>
      <trkpt lat="40.624483" lon="-4.750350">
        <ele>1709.0</ele>
        <time>2018-08-13T13:42:19Z</time>
      </trkpt>
      <trkpt lat="40.624550" lon="-4.750267">
        <ele>1708.0</ele>
        <time>2018-08-13T13:42:20Z</time>
      </trkpt>
      <trkpt lat="40.624633" lon="-4.750183">
        <ele>1707.0</ele>
        <time>2018-08-13T13:42:21Z</time>
      </trkpt>
      <trkpt lat="40.624683" lon="-4.750117">
        <ele>1706.0</ele>
        <time>2018-08-13T13:42:22Z</time>
      </trkpt>
      <trkpt lat="40.624750" lon="-4.750050">
        <ele>1704.0</ele>
        <time>2018-08-13T13:42:23Z</time>
      </trkpt>
      <trkpt lat="40.624817" lon="-4.750000">
        <ele>1701.0</ele>
        <time>2018-08-13T13:42:24Z</time>
      </trkpt>
      <trkpt lat="40.624867" lon="-4.749967">
        <ele>1698.0</ele>
        <time>2018-08-13T13:42:25Z</time>
      </trkpt>
      <trkpt lat="40.624950" lon="-4.749917">
        <ele>1694.0</ele>
        <time>2018-08-13T13:42:26Z</time>
      </trkpt>
      <trkpt lat="40.625017" lon="-4.749867">
        <ele>1690.0</ele>
        <time>2018-08-13T13:42:27Z</time>
      </trkpt>
      <trkpt lat="40.625100" lon="-4.749800">
        <ele>1687.0</ele>
        <time>2018-08-13T13:42:28Z</time>
      </trkpt>
      <trkpt lat="40.625183" lon="-4.749717">
        <ele>1684.0</ele>
        <time>2018-08-13T13:42:29Z</time>
      </trkpt>
      <trkpt lat="40.625250" lon="-4.749633">
        <ele>1681.0</ele>
        <time>2018-08-13T13:42:30Z</time>
      </trkpt>
      <trkpt lat="40.625317" lon="-4.749550">
        <ele>1678.0</ele>
        <time>2018-08-13T13:42:31Z</time>
      </trkpt>
      <trkpt lat="40.625400" lon="-4.749483">
        <ele>1674.0</ele>
        <time>2018-08-13T13:42:32Z</time>
      </trkpt>
      <trkpt lat="40.625483" lon="-4.749417">
        <ele>1671.0</ele>
        <time>2018-08-13T13:42:33Z</time>
      </trkpt>
      <trkpt lat="40.625583" lon="-4.749333">
        <ele>1668.0</ele>
        <time>2018-08-13T13:42:34Z</time>
      </trkpt>
      <trkpt lat="40.625683" lon="-4.749250">
        <ele>1666.0</ele>
        <time>2018-08-13T13:42:35Z</time>
      </trkpt>
      <trkpt lat="40.625767" lon="-4.749183">
        <ele>1665.0</ele>
        <time>2018-08-13T13:42:36Z</time>
      </trkpt>
      <trkpt lat="40.625850" lon="-4.749100">
        <ele>1664.0</ele>
        <time>2018-08-13T13:42:37Z</time>
      </trkpt>
      <trkpt lat="40.625933" lon="-4.749017">
        <ele>1663.0</ele>
        <time>2018-08-13T13:42:38Z</time>
      </trkpt>
      <trkpt lat="40.626000" lon="-4.748933">
        <ele>1661.0</ele>
        <time>2018-08-13T13:42:39Z</time>
      </trkpt>
      <trkpt lat="40.626083" lon="-4.748850">
        <ele>1660.0</ele>
        <time>2018-08-13T13:42:40Z</time>
      </trkpt>
      <trkpt lat="40.626167" lon="-4.748783">
        <ele>1658.0</ele>
        <time>2018-08-13T13:42:41Z</time>
      </trkpt>
      <trkpt lat="40.626233" lon="-4.748700">
        <ele>1656.0</ele>
        <time>2018-08-13T13:42:42Z</time>
      </trkpt>
      <trkpt lat="40.626317" lon="-4.748617">
        <ele>1653.0</ele>
        <time>2018-08-13T13:42:43Z</time>
      </trkpt>
      <trkpt lat="40.626383" lon="-4.748517">
        <ele>1651.0</ele>
        <time>2018-08-13T13:42:44Z</time>
      </trkpt>
      <trkpt lat="40.626467" lon="-4.748467">
        <ele>1649.0</ele>
        <time>2018-08-13T13:42:45Z</time>
      </trkpt>
      <trkpt lat="40.626550" lon="-4.748433">
        <ele>1649.0</ele>
        <time>2018-08-13T13:42:46Z</time>
      </trkpt>
      <trkpt lat="40.626633" lon="-4.748417">
        <ele>1649.0</ele>
        <time>2018-08-13T13:42:47Z</time>
      </trkpt>
      <trkpt lat="40.626683" lon="-4.748383">
        <ele>1650.0</ele>
        <time>2018-08-13T13:42:48Z</time>
      </trkpt>
      <trkpt lat="40.626733" lon="-4.748333">
        <ele>1649.0</ele>
        <time>2018-08-13T13:42:49Z</time>
      </trkpt>
      <trkpt lat="40.626783" lon="-4.748267">
        <ele>1647.0</ele>
        <time>2018-08-13T13:42:50Z</time>
      </trkpt>
      <trkpt lat="40.626850" lon="-4.748217">
        <ele>1645.0</ele>
        <time>2018-08-13T13:42:51Z</time>
      </trkpt>
      <trkpt lat="40.626917" lon="-4.748167">
        <ele>1644.0</ele>
        <time>2018-08-13T13:42:52Z</time>
      </trkpt>
      <trkpt lat="40.626983" lon="-4.748133">
        <ele>1642.0</ele>
        <time>2018-08-13T13:42:53Z</time>
      </trkpt>
      <trkpt lat="40.627067" lon="-4.748083">
        <ele>1642.0</ele>
        <time>2018-08-13T13:42:54Z</time>
      </trkpt>
      <trkpt lat="40.627150" lon="-4.748033">
        <ele>1641.0</ele>
        <time>2018-08-13T13:42:55Z</time>
      </trkpt>
      <trkpt lat="40.627217" lon="-4.747983">
        <ele>1641.0</ele>
        <time>2018-08-13T13:42:56Z</time>
      </trkpt>
      <trkpt lat="40.627300" lon="-4.747933">
        <ele>1640.0</ele>
        <time>2018-08-13T13:42:57Z</time>
      </trkpt>
      <trkpt lat="40.627400" lon="-4.747867">
        <ele>1639.0</ele>
        <time>2018-08-13T13:42:58Z</time>
      </trkpt>
      <trkpt lat="40.627483" lon="-4.747817">
        <ele>1639.0</ele>
        <time>2018-08-13T13:42:59Z</time>
      </trkpt>
      <trkpt lat="40.627550" lon="-4.747750">
        <ele>1639.0</ele>
        <time>2018-08-13T13:43:00Z</time>
      </trkpt>
      <trkpt lat="40.627617" lon="-4.747683">
        <ele>1638.0</ele>
        <time>2018-08-13T13:43:01Z</time>
      </trkpt>
      <trkpt lat="40.627683" lon="-4.747617">
        <ele>1636.0</ele>
        <time>2018-08-13T13:43:02Z</time>
      </trkpt>
      <trkpt lat="40.627750" lon="-4.747550">
        <ele>1633.0</ele>
        <time>2018-08-13T13:43:03Z</time>
      </trkpt>
      <trkpt lat="40.627817" lon="-4.747483">
        <ele>1630.0</ele>
        <time>2018-08-13T13:43:04Z</time>
      </trkpt>
      <trkpt lat="40.627900" lon="-4.747400">
        <ele>1627.0</ele>
        <time>2018-08-13T13:43:05Z</time>
      </trkpt>
      <trkpt lat="40.627983" lon="-4.747333">
        <ele>1625.0</ele>
        <time>2018-08-13T13:43:06Z</time>
      </trkpt>
      <trkpt lat="40.628050" lon="-4.747267">
        <ele>1624.0</ele>
        <time>2018-08-13T13:43:07Z</time>
      </trkpt>
      <trkpt lat="40.628117" lon="-4.747200">
        <ele>1623.0</ele>
        <time>2018-08-13T13:43:08Z</time>
      </trkpt>
      <trkpt lat="40.628167" lon="-4.747150">
        <ele>1621.0</ele>
        <time>2018-08-13T13:43:09Z</time>
      </trkpt>
      <trkpt lat="40.628217" lon="-4.747117">
        <ele>1618.0</ele>
        <time>2018-08-13T13:43:10Z</time>
      </trkpt>
      <trkpt lat="40.628267" lon="-4.747050">
        <ele>1614.0</ele>
        <time>2018-08-13T13:43:11Z</time>
      </trkpt>
      <trkpt lat="40.628333" lon="-4.746983">
        <ele>1609.0</ele>
        <time>2018-08-13T13:43:12Z</time>
      </trkpt>
      <trkpt lat="40.628400" lon="-4.746917">
        <ele>1604.0</ele>
        <time>2018-08-13T13:43:13Z</time>
      </trkpt>
      <trkpt lat="40.628483" lon="-4.746850">
        <ele>1600.0</ele>
        <time>2018-08-13T13:43:14Z</time>
      </trkpt>
      <trkpt lat="40.628550" lon="-4.746767">
        <ele>1598.0</ele>
        <time>2018-08-13T13:43:15Z</time>
      </trkpt>
      <trkpt lat="40.628633" lon="-4.746683">
        <ele>1596.0</ele>
        <time>2018-08-13T13:43:16Z</time>
      </trkpt>
      <trkpt lat="40.628700" lon="-4.746617">
        <ele>1594.0</ele>
        <time>2018-08-13T13:43:17Z</time>
      </trkpt>
      <trkpt lat="40.628750" lon="-4.746567">
        <ele>1591.0</ele>
        <time>2018-08-13T13:43:18Z</time>
      </trkpt>
      <trkpt lat="40.628817" lon="-4.746517">
        <ele>1588.0</ele>
        <time>2018-08-13T13:43:19Z</time>
      </trkpt>
      <trkpt lat="40.628900" lon="-4.746467">
        <ele>1585.0</ele>
        <time>2018-08-13T13:43:20Z</time>
      </trkpt>
      <trkpt lat="40.628967" lon="-4.746417">
        <ele>1582.0</ele>
        <time>2018-08-13T13:43:21Z</time>
      </trkpt>
      <trkpt lat="40.629033" lon="-4.746333">
        <ele>1580.0</ele>
        <time>2018-08-13T13:43:22Z</time>
      </trkpt>
      <trkpt lat="40.629083" lon="-4.746267">
        <ele>1578.0</ele>
        <time>2018-08-13T13:43:23Z</time>
      </trkpt>
      <trkpt lat="40.629150" lon="-4.746200">
        <ele>1576.0</ele>
        <time>2018-08-13T13:43:24Z</time>
      </trkpt>
      <trkpt lat="40.629200" lon="-4.746133">
        <ele>1573.0</ele>
        <time>2018-08-13T13:43:25Z</time>
      </trkpt>
      <trkpt lat="40.629267" lon="-4.746050">
        <ele>1570.0</ele>
        <time>2018-08-13T13:43:26Z</time>
      </trkpt>
      <trkpt lat="40.629317" lon="-4.745983">
        <ele>1568.0</ele>
        <time>2018-08-13T13:43:27Z</time>
      </trkpt>
      <trkpt lat="40.629383" lon="-4.745900">
        <ele>1565.0</ele>
        <time>2018-08-13T13:43:28Z</time>
      </trkpt>
      <trkpt lat="40.629433" lon="-4.745833">
        <ele>1562.0</ele>
        <time>2018-08-13T13:43:29Z</time>
      </trkpt>
      <trkpt lat="40.629483" lon="-4.745750">
        <ele>1559.0</ele>
        <time>2018-08-13T13:43:30Z</time>
      </trkpt>
      <trkpt lat="40.629550" lon="-4.745683">
        <ele>1557.0</ele>
        <time>2018-08-13T13:43:31Z</time>
      </trkpt>
      <trkpt lat="40.629617" lon="-4.745583">
        <ele>1554.0</ele>
        <time>2018-08-13T13:43:32Z</time>
      </trkpt>
      <trkpt lat="40.629667" lon="-4.745500">
        <ele>1551.0</ele>
        <time>2018-08-13T13:43:33Z</time>
      </trkpt>
      <trkpt lat="40.629717" lon="-4.745417">
        <ele>1549.0</ele>
        <time>2018-08-13T13:43:34Z</time>
      </trkpt>
      <trkpt lat="40.629783" lon="-4.745350">
        <ele>1547.0</ele>
        <time>2018-08-13T13:43:35Z</time>
      </trkpt>
      <trkpt lat="40.629833" lon="-4.745283">
        <ele>1545.0</ele>
        <time>2018-08-13T13:43:36Z</time>
      </trkpt>
      <trkpt lat="40.629900" lon="-4.745200">
        <ele>1543.0</ele>
        <time>2018-08-13T13:43:37Z</time>
      </trkpt>
      <trkpt lat="40.629967" lon="-4.745117">
        <ele>1541.0</ele>
        <time>2018-08-13T13:43:38Z</time>
      </trkpt>
      <trkpt lat="40.630033" lon="-4.745033">
        <ele>1539.0</ele>
        <time>2018-08-13T13:43:39Z</time>
      </trkpt>
      <trkpt lat="40.630100" lon="-4.744950">
        <ele>1538.0</ele>
        <time>2018-08-13T13:43:40Z</time>
      </trkpt>
      <trkpt lat="40.630167" lon="-4.744867">
        <ele>1538.0</ele>
        <time>2018-08-13T13:43:41Z</time>
      </trkpt>
      <trkpt lat="40.630217" lon="-4.744783">
        <ele>1538.0</ele>
        <time>2018-08-13T13:43:42Z</time>
      </trkpt>
      <trkpt lat="40.630267" lon="-4.744683">
        <ele>1536.0</ele>
        <time>2018-08-13T13:43:43Z</time>
      </trkpt>
      <trkpt lat="40.630317" lon="-4.744583">
        <ele>1534.0</ele>
        <time>2018-08-13T13:43:44Z</time>
      </trkpt>
      <trkpt lat="40.630383" lon="-4.744483">
        <ele>1532.0</ele>
        <time>2018-08-13T13:43:45Z</time>
      </trkpt>
      <trkpt lat="40.630433" lon="-4.744383">
        <ele>1530.0</ele>
        <time>2018-08-13T13:43:46Z</time>
      </trkpt>
      <trkpt lat="40.630500" lon="-4.744267">
        <ele>1529.0</ele>
        <time>2018-08-13T13:43:47Z</time>
      </trkpt>
      <trkpt lat="40.630550" lon="-4.744150">
        <ele>1529.0</ele>
        <time>2018-08-13T13:43:48Z</time>
      </trkpt>
      <trkpt lat="40.630600" lon="-4.744033">
        <ele>1528.0</ele>
        <time>2018-08-13T13:43:49Z</time>
      </trkpt>
      <trkpt lat="40.630650" lon="-4.743900">
        <ele>1527.0</ele>
        <time>2018-08-13T13:43:50Z</time>
      </trkpt>
      <trkpt lat="40.630700" lon="-4.743783">
        <ele>1525.0</ele>
        <time>2018-08-13T13:43:51Z</time>
      </trkpt>
      <trkpt lat="40.630750" lon="-4.743650">
        <ele>1524.0</ele>
        <time>2018-08-13T13:43:52Z</time>
      </trkpt>
      <trkpt lat="40.630800" lon="-4.743533">
        <ele>1524.0</ele>
        <time>2018-08-13T13:43:53Z</time>
      </trkpt>
      <trkpt lat="40.630850" lon="-4.743433">
        <ele>1524.0</ele>
        <time>2018-08-13T13:43:54Z</time>
      </trkpt>
      <trkpt lat="40.630917" lon="-4.743350">
        <ele>1524.0</ele>
        <time>2018-08-13T13:43:55Z</time>
      </trkpt>
      <trkpt lat="40.630967" lon="-4.743267">
        <ele>1523.0</ele>
        <time>2018-08-13T13:43:56Z</time>
      </trkpt>
      <trkpt lat="40.631033" lon="-4.743183">
        <ele>1523.0</ele>
        <time>2018-08-13T13:43:57Z</time>
      </trkpt>
      <trkpt lat="40.631083" lon="-4.743100">
        <ele>1523.0</ele>
        <time>2018-08-13T13:43:58Z</time>
      </trkpt>
      <trkpt lat="40.631133" lon="-4.743017">
        <ele>1522.0</ele>
        <time>2018-08-13T13:43:59Z</time>
      </trkpt>
      <trkpt lat="40.631167" lon="-4.742933">
        <ele>1520.0</ele>
        <time>2018-08-13T13:44:00Z</time>
      </trkpt>
      <trkpt lat="40.631233" lon="-4.742833">
        <ele>1518.0</ele>
        <time>2018-08-13T13:44:01Z</time>
      </trkpt>
      <trkpt lat="40.631283" lon="-4.742750">
        <ele>1515.0</ele>
        <time>2018-08-13T13:44:02Z</time>
      </trkpt>
      <trkpt lat="40.631350" lon="-4.742667">
        <ele>1514.0</ele>
        <time>2018-08-13T13:44:03Z</time>
      </trkpt>
      <trkpt lat="40.631417" lon="-4.742583">
        <ele>1513.0</ele>
        <time>2018-08-13T13:44:04Z</time>
      </trkpt>
      <trkpt lat="40.631467" lon="-4.742500">
        <ele>1513.0</ele>
        <time>2018-08-13T13:44:05Z</time>
      </trkpt>
      <trkpt lat="40.631517" lon="-4.742417">
        <ele>1512.0</ele>
        <time>2018-08-13T13:44:06Z</time>
      </trkpt>
      <trkpt lat="40.631583" lon="-4.742350">
        <ele>1509.0</ele>
        <time>2018-08-13T13:44:07Z</time>
      </trkpt>
      <trkpt lat="40.631650" lon="-4.742267">
        <ele>1506.0</ele>
        <time>2018-08-13T13:44:08Z</time>
      </trkpt>
      <trkpt lat="40.631733" lon="-4.742183">
        <ele>1503.0</ele>
        <time>2018-08-13T13:44:09Z</time>
      </trkpt>
      <trkpt lat="40.631817" lon="-4.742083">
        <ele>1502.0</ele>
        <time>2018-08-13T13:44:10Z</time>
      </trkpt>
      <trkpt lat="40.631883" lon="-4.741967">
        <ele>1502.0</ele>
        <time>2018-08-13T13:44:11Z</time>
      </trkpt>
      <trkpt lat="40.631950" lon="-4.741867">
        <ele>1503.0</ele>
        <time>2018-08-13T13:44:12Z</time>
      </trkpt>
      <trkpt lat="40.631983" lon="-4.741767">
        <ele>1503.0</ele>
        <time>2018-08-13T13:44:13Z</time>
      </trkpt>
      <trkpt lat="40.632050" lon="-4.741667">
        <ele>1502.0</ele>
        <time>2018-08-13T13:44:14Z</time>
      </trkpt>
      <trkpt lat="40.632100" lon="-4.741583">
        <ele>1500.0</ele>
        <time>2018-08-13T13:44:15Z</time>
      </trkpt>
      <trkpt lat="40.632167" lon="-4.741500">
        <ele>1499.0</ele>
        <time>2018-08-13T13:44:16Z</time>
      </trkpt>
      <trkpt lat="40.632233" lon="-4.741433">
        <ele>1497.0</ele>
        <time>2018-08-13T13:44:17Z</time>
      </trkpt>
      <trkpt lat="40.632283" lon="-4.741333">
        <ele>1496.0</ele>
        <time>2018-08-13T13:44:18Z</time>
      </trkpt>
      <trkpt lat="40.632350" lon="-4.741250">
        <ele>1495.0</ele>
        <time>2018-08-13T13:44:19Z</time>
      </trkpt>
      <trkpt lat="40.632417" lon="-4.741150">
        <ele>1494.0</ele>
        <time>2018-08-13T13:44:20Z</time>
      </trkpt>
      <trkpt lat="40.632467" lon="-4.741050">
        <ele>1494.0</ele>
        <time>2018-08-13T13:44:21Z</time>
      </trkpt>
      <trkpt lat="40.632533" lon="-4.740967">
        <ele>1494.0</ele>
        <time>2018-08-13T13:44:22Z</time>
      </trkpt>
      <trkpt lat="40.632600" lon="-4.740883">
        <ele>1494.0</ele>
        <time>2018-08-13T13:44:23Z</time>
      </trkpt>
      <trkpt lat="40.632650" lon="-4.740783">
        <ele>1493.0</ele>
        <time>2018-08-13T13:44:24Z</time>
      </trkpt>
      <trkpt lat="40.632700" lon="-4.740700">
        <ele>1493.0</ele>
        <time>2018-08-13T13:44:25Z</time>
      </trkpt>
      <trkpt lat="40.632750" lon="-4.740600">
        <ele>1492.0</ele>
        <time>2018-08-13T13:44:26Z</time>
      </trkpt>
      <trkpt lat="40.632817" lon="-4.740500">
        <ele>1491.0</ele>
        <time>2018-08-13T13:44:27Z</time>
      </trkpt>
      <trkpt lat="40.632867" lon="-4.740400">
        <ele>1490.0</ele>
        <time>2018-08-13T13:44:28Z</time>
      </trkpt>
      <trkpt lat="40.632917" lon="-4.740300">
        <ele>1489.0</ele>
        <time>2018-08-13T13:44:29Z</time>
      </trkpt>
      <trkpt lat="40.632967" lon="-4.740183">
        <ele>1489.0</ele>
        <time>2018-08-13T13:44:30Z</time>
      </trkpt>
      <trkpt lat="40.633017" lon="-4.740050">
        <ele>1490.0</ele>
        <time>2018-08-13T13:44:31Z</time>
      </trkpt>
      <trkpt lat="40.633067" lon="-4.739950">
        <ele>1492.0</ele>
        <time>2018-08-13T13:44:32Z</time>
      </trkpt>
      <trkpt lat="40.633100" lon="-4.739850">
        <ele>1494.0</ele>
        <time>2018-08-13T13:44:33Z</time>
      </trkpt>
      <trkpt lat="40.633150" lon="-4.739767">
        <ele>1496.0</ele>
        <time>2018-08-13T13:44:34Z</time>
      </trkpt>
      <trkpt lat="40.633183" lon="-4.739667">
        <ele>1497.0</ele>
        <time>2018-08-13T13:44:35Z</time>
      </trkpt>
      <trkpt lat="40.633233" lon="-4.739583">
        <ele>1499.0</ele>
        <time>2018-08-13T13:44:36Z</time>
      </trkpt>
      <trkpt lat="40.633283" lon="-4.739500">
        <ele>1501.0</ele>
        <time>2018-08-13T13:44:37Z</time>
      </trkpt>
      <trkpt lat="40.633317" lon="-4.739450">
        <ele>1502.0</ele>
        <time>2018-08-13T13:44:38Z</time>
      </trkpt>
      <trkpt lat="40.633367" lon="-4.739433">
        <ele>1504.0</ele>
        <time>2018-08-13T13:44:39Z</time>
      </trkpt>
      <trkpt lat="40.633417" lon="-4.739417">
        <ele>1505.0</ele>
        <time>2018-08-13T13:44:40Z</time>
      </trkpt>
      <trkpt lat="40.633467" lon="-4.739433">
        <ele>1507.0</ele>
        <time>2018-08-13T13:44:41Z</time>
      </trkpt>
      <trkpt lat="40.633500" lon="-4.739483">
        <ele>1509.0</ele>
        <time>2018-08-13T13:44:42Z</time>
      </trkpt>
      <trkpt lat="40.633517" lon="-4.739550">
        <ele>1511.0</ele>
        <time>2018-08-13T13:44:43Z</time>
      </trkpt>
      <trkpt lat="40.633500" lon="-4.739650">
        <ele>1514.0</ele>
        <time>2018-08-13T13:44:44Z</time>
      </trkpt>
      <trkpt lat="40.633467" lon="-4.739733">
        <ele>1517.0</ele>
        <time>2018-08-13T13:44:45Z</time>
      </trkpt>
      <trkpt lat="40.633417" lon="-4.739817">
        <ele>1520.0</ele>
        <time>2018-08-13T13:44:46Z</time>
      </trkpt>
      <trkpt lat="40.633317" lon="-4.739883">
        <ele>1522.0</ele>
        <time>2018-08-13T13:44:47Z</time>
      </trkpt>
      <trkpt lat="40.633200" lon="-4.739900">
        <ele>1524.0</ele>
        <time>2018-08-13T13:44:48Z</time>
      </trkpt>
      <trkpt lat="40.633067" lon="-4.739883">
        <ele>1526.0</ele>
        <time>2018-08-13T13:44:49Z</time>
      </trkpt>
      <trkpt lat="40.632933" lon="-4.739833">
        <ele>1529.0</ele>
        <time>2018-08-13T13:44:50Z</time>
      </trkpt>
      <trkpt lat="40.632817" lon="-4.739750">
        <ele>1532.0</ele>
        <time>2018-08-13T13:44:51Z</time>
      </trkpt>
      <trkpt lat="40.632717" lon="-4.739633">
        <ele>1534.0</ele>
        <time>2018-08-13T13:44:52Z</time>
      </trkpt>
      <trkpt lat="40.632650" lon="-4.739500">
        <ele>1535.0</ele>
        <time>2018-08-13T13:44:53Z</time>
      </trkpt>
      <trkpt lat="40.632600" lon="-4.739317">
        <ele>1535.0</ele>
        <time>2018-08-13T13:44:54Z</time>
      </trkpt>
      <trkpt lat="40.632583" lon="-4.739133">
        <ele>1535.0</ele>
        <time>2018-08-13T13:44:55Z</time>
      </trkpt>
      <trkpt lat="40.632600" lon="-4.738967">
        <ele>1536.0</ele>
        <time>2018-08-13T13:44:56Z</time>
      </trkpt>
      <trkpt lat="40.632633" lon="-4.738850">
        <ele>1538.0</ele>
        <time>2018-08-13T13:44:57Z</time>
      </trkpt>
      <trkpt lat="40.632683" lon="-4.738750">
        <ele>1541.0</ele>
        <time>2018-08-13T13:44:58Z</time>
      </trkpt>
      <trkpt lat="40.632733" lon="-4.738683">
        <ele>1542.0</ele>
        <time>2018-08-13T13:44:59Z</time>
      </trkpt>
      <trkpt lat="40.632783" lon="-4.738633">
        <ele>1543.0</ele>
        <time>2018-08-13T13:45:00Z</time>
      </trkpt>
      <trkpt lat="40.632850" lon="-4.738583">
        <ele>1545.0</ele>
        <time>2018-08-13T13:45:01Z</time>
      </trkpt>
      <trkpt lat="40.632933" lon="-4.738550">
        <ele>1547.0</ele>
        <time>2018-08-13T13:45:02Z</time>
      </trkpt>
      <trkpt lat="40.633000" lon="-4.738533">
        <ele>1549.0</ele>
        <time>2018-08-13T13:45:03Z</time>
      </trkpt>
      <trkpt lat="40.633050" lon="-4.738550">
        <ele>1553.0</ele>
        <time>2018-08-13T13:45:04Z</time>
      </trkpt>
      <trkpt lat="40.633083" lon="-4.738583">
        <ele>1556.0</ele>
        <time>2018-08-13T13:45:05Z</time>
      </trkpt>
      <trkpt lat="40.633083" lon="-4.738633">
        <ele>1557.0</ele>
        <time>2018-08-13T13:45:06Z</time>
      </trkpt>
      <trkpt lat="40.633067" lon="-4.738700">
        <ele>1558.0</ele>
        <time>2018-08-13T13:45:07Z</time>
      </trkpt>
      <trkpt lat="40.633033" lon="-4.738783">
        <ele>1559.0</ele>
        <time>2018-08-13T13:45:08Z</time>
      </trkpt>
      <trkpt lat="40.632983" lon="-4.738867">
        <ele>1562.0</ele>
        <time>2018-08-13T13:45:09Z</time>
      </trkpt>
      <trkpt lat="40.632883" lon="-4.738917">
        <ele>1565.0</ele>
        <time>2018-08-13T13:45:10Z</time>
      </trkpt>
      <trkpt lat="40.632783" lon="-4.738917">
        <ele>1567.0</ele>
        <time>2018-08-13T13:45:11Z</time>
      </trkpt>
      <trkpt lat="40.632650" lon="-4.738850">
        <ele>1568.0</ele>
        <time>2018-08-13T13:45:12Z</time>
      </trkpt>
      <trkpt lat="40.632533" lon="-4.738733">
        <ele>1570.0</ele>
        <time>2018-08-13T13:45:13Z</time>
      </trkpt>
      <trkpt lat="40.632450" lon="-4.738583">
        <ele>1573.0</ele>
        <time>2018-08-13T13:45:14Z</time>
      </trkpt>
      <trkpt lat="40.632400" lon="-4.738433">
        <ele>1578.0</ele>
        <time>2018-08-13T13:45:15Z</time>
      </trkpt>
      <trkpt lat="40.632367" lon="-4.738300">
        <ele>1581.0</ele>
        <time>2018-08-13T13:45:16Z</time>
      </trkpt>
      <trkpt lat="40.632367" lon="-4.738167">
        <ele>1584.0</ele>
        <time>2018-08-13T13:45:17Z</time>
      </trkpt>
      <trkpt lat="40.632367" lon="-4.738033">
        <ele>1585.0</ele>
        <time>2018-08-13T13:45:18Z</time>
      </trkpt>
      <trkpt lat="40.632367" lon="-4.737900">
        <ele>1586.0</ele>
        <time>2018-08-13T13:45:19Z</time>
      </trkpt>
      <trkpt lat="40.632400" lon="-4.737750">
        <ele>1587.0</ele>
        <time>2018-08-13T13:45:20Z</time>
      </trkpt>
      <trkpt lat="40.632433" lon="-4.737617">
        <ele>1588.0</ele>
        <time>2018-08-13T13:45:21Z</time>
      </trkpt>
      <trkpt lat="40.632500" lon="-4.737500">
        <ele>1588.0</ele>
        <time>2018-08-13T13:45:22Z</time>
      </trkpt>
      <trkpt lat="40.632567" lon="-4.737417">
        <ele>1589.0</ele>
        <time>2018-08-13T13:45:23Z</time>
      </trkpt>
      <trkpt lat="40.632617" lon="-4.737333">
        <ele>1590.0</ele>
        <time>2018-08-13T13:45:24Z</time>
      </trkpt>
      <trkpt lat="40.632667" lon="-4.737267">
        <ele>1591.0</ele>
        <time>2018-08-13T13:45:25Z</time>
      </trkpt>
      <trkpt lat="40.632717" lon="-4.737200">
        <ele>1591.0</ele>
        <time>2018-08-13T13:45:26Z</time>
      </trkpt>
      <trkpt lat="40.632783" lon="-4.737133">
        <ele>1591.0</ele>
        <time>2018-08-13T13:45:27Z</time>
      </trkpt>
      <trkpt lat="40.632833" lon="-4.737083">
        <ele>1590.0</ele>
        <time>2018-08-13T13:45:28Z</time>
      </trkpt>
      <trkpt lat="40.632917" lon="-4.737067">
        <ele>1588.0</ele>
        <time>2018-08-13T13:45:29Z</time>
      </trkpt>
      <trkpt lat="40.632983" lon="-4.737050">
        <ele>1587.0</ele>
        <time>2018-08-13T13:45:30Z</time>
      </trkpt>
      <trkpt lat="40.633033" lon="-4.737050">
        <ele>1587.0</ele>
        <time>2018-08-13T13:45:31Z</time>
      </trkpt>
      <trkpt lat="40.633100" lon="-4.737033">
        <ele>1585.0</ele>
        <time>2018-08-13T13:45:32Z</time>
      </trkpt>
      <trkpt lat="40.633183" lon="-4.737017">
        <ele>1583.0</ele>
        <time>2018-08-13T13:45:33Z</time>
      </trkpt>
      <trkpt lat="40.633250" lon="-4.736983">
        <ele>1581.0</ele>
        <time>2018-08-13T13:45:34Z</time>
      </trkpt>
      <trkpt lat="40.633333" lon="-4.736933">
        <ele>1580.0</ele>
        <time>2018-08-13T13:45:35Z</time>
      </trkpt>
      <trkpt lat="40.633433" lon="-4.736867">
        <ele>1580.0</ele>
        <time>2018-08-13T13:45:36Z</time>
      </trkpt>
      <trkpt lat="40.633517" lon="-4.736767">
        <ele>1582.0</ele>
        <time>2018-08-13T13:45:37Z</time>
      </trkpt>
      <trkpt lat="40.633583" lon="-4.736667">
        <ele>1585.0</ele>
        <time>2018-08-13T13:45:38Z</time>
      </trkpt>
      <trkpt lat="40.633633" lon="-4.736550">
        <ele>1588.0</ele>
        <time>2018-08-13T13:45:39Z</time>
      </trkpt>
      <trkpt lat="40.633667" lon="-4.736433">
        <ele>1590.0</ele>
        <time>2018-08-13T13:45:40Z</time>
      </trkpt>
      <trkpt lat="40.633700" lon="-4.736333">
        <ele>1592.0</ele>
        <time>2018-08-13T13:45:41Z</time>
      </trkpt>
      <trkpt lat="40.633733" lon="-4.736217">
        <ele>1591.0</ele>
        <time>2018-08-13T13:45:42Z</time>
      </trkpt>
      <trkpt lat="40.633783" lon="-4.736083">
        <ele>1591.0</ele>
        <time>2018-08-13T13:45:43Z</time>
      </trkpt>
      <trkpt lat="40.633817" lon="-4.735917">
        <ele>1589.0</ele>
        <time>2018-08-13T13:45:44Z</time>
      </trkpt>
      <trkpt lat="40.633833" lon="-4.735733">
        <ele>1589.0</ele>
        <time>2018-08-13T13:45:45Z</time>
      </trkpt>
      <trkpt lat="40.633833" lon="-4.735533">
        <ele>1589.0</ele>
        <time>2018-08-13T13:45:46Z</time>
      </trkpt>
      <trkpt lat="40.633850" lon="-4.735333">
        <ele>1589.0</ele>
        <time>2018-08-13T13:45:47Z</time>
      </trkpt>
      <trkpt lat="40.633850" lon="-4.735133">
        <ele>1591.0</ele>
        <time>2018-08-13T13:45:48Z</time>
      </trkpt>
      <trkpt lat="40.633883" lon="-4.734967">
        <ele>1592.0</ele>
        <time>2018-08-13T13:45:49Z</time>
      </trkpt>
      <trkpt lat="40.633917" lon="-4.734800">
        <ele>1592.0</ele>
        <time>2018-08-13T13:45:50Z</time>
      </trkpt>
      <trkpt lat="40.633950" lon="-4.734633">
        <ele>1593.0</ele>
        <time>2018-08-13T13:45:51Z</time>
      </trkpt>
      <trkpt lat="40.634000" lon="-4.734467">
        <ele>1593.0</ele>
        <time>2018-08-13T13:45:52Z</time>
      </trkpt>
      <trkpt lat="40.634033" lon="-4.734317">
        <ele>1594.0</ele>
        <time>2018-08-13T13:45:53Z</time>
      </trkpt>
      <trkpt lat="40.634083" lon="-4.734183">
        <ele>1594.0</ele>
        <time>2018-08-13T13:45:54Z</time>
      </trkpt>
      <trkpt lat="40.634150" lon="-4.734050">
        <ele>1594.0</ele>
        <time>2018-08-13T13:45:55Z</time>
      </trkpt>
      <trkpt lat="40.634200" lon="-4.733917">
        <ele>1593.0</ele>
        <time>2018-08-13T13:45:56Z</time>
      </trkpt>
      <trkpt lat="40.634267" lon="-4.733800">
        <ele>1591.0</ele>
        <time>2018-08-13T13:45:57Z</time>
      </trkpt>
      <trkpt lat="40.634317" lon="-4.733700">
        <ele>1589.0</ele>
        <time>2018-08-13T13:45:58Z</time>
      </trkpt>
      <trkpt lat="40.634383" lon="-4.733583">
        <ele>1587.0</ele>
        <time>2018-08-13T13:45:59Z</time>
      </trkpt>
      <trkpt lat="40.634433" lon="-4.733467">
        <ele>1585.0</ele>
        <time>2018-08-13T13:46:00Z</time>
      </trkpt>
      <trkpt lat="40.634500" lon="-4.733367">
        <ele>1584.0</ele>
        <time>2018-08-13T13:46:01Z</time>
      </trkpt>
      <trkpt lat="40.634550" lon="-4.733283">
        <ele>1582.0</ele>
        <time>2018-08-13T13:46:02Z</time>
      </trkpt>
      <trkpt lat="40.634600" lon="-4.733217">
        <ele>1580.0</ele>
        <time>2018-08-13T13:46:03Z</time>
      </trkpt>
      <trkpt lat="40.634633" lon="-4.733150">
        <ele>1577.0</ele>
        <time>2018-08-13T13:46:04Z</time>
      </trkpt>
      <trkpt lat="40.634683" lon="-4.733100">
        <ele>1574.0</ele>
        <time>2018-08-13T13:46:05Z</time>
      </trkpt>
      <trkpt lat="40.634733" lon="-4.733033">
        <ele>1570.0</ele>
        <time>2018-08-13T13:46:06Z</time>
      </trkpt>
      <trkpt lat="40.634783" lon="-4.732983">
        <ele>1567.0</ele>
        <time>2018-08-13T13:46:07Z</time>
      </trkpt>
      <trkpt lat="40.634850" lon="-4.732900">
        <ele>1563.0</ele>
        <time>2018-08-13T13:46:08Z</time>
      </trkpt>
      <trkpt lat="40.634917" lon="-4.732800">
        <ele>1559.0</ele>
        <time>2018-08-13T13:46:09Z</time>
      </trkpt>
      <trkpt lat="40.634967" lon="-4.732717">
        <ele>1555.0</ele>
        <time>2018-08-13T13:46:10Z</time>
      </trkpt>
      <trkpt lat="40.635033" lon="-4.732650">
        <ele>1553.0</ele>
        <time>2018-08-13T13:46:11Z</time>
      </trkpt>
      <trkpt lat="40.635083" lon="-4.732583">
        <ele>1551.0</ele>
        <time>2018-08-13T13:46:12Z</time>
      </trkpt>
      <trkpt lat="40.635133" lon="-4.732533">
        <ele>1548.0</ele>
        <time>2018-08-13T13:46:13Z</time>
      </trkpt>
      <trkpt lat="40.635167" lon="-4.732450">
        <ele>1545.0</ele>
        <time>2018-08-13T13:46:14Z</time>
      </trkpt>
      <trkpt lat="40.635233" lon="-4.732350">
        <ele>1542.0</ele>
        <time>2018-08-13T13:46:15Z</time>
      </trkpt>
      <trkpt lat="40.635283" lon="-4.732250">
        <ele>1541.0</ele>
        <time>2018-08-13T13:46:16Z</time>
      </trkpt>
      <trkpt lat="40.635333" lon="-4.732167">
        <ele>1541.0</ele>
        <time>2018-08-13T13:46:17Z</time>
      </trkpt>
      <trkpt lat="40.635383" lon="-4.732083">
        <ele>1542.0</ele>
        <time>2018-08-13T13:46:18Z</time>
      </trkpt>
      <trkpt lat="40.635417" lon="-4.732000">
        <ele>1542.0</ele>
        <time>2018-08-13T13:46:19Z</time>
      </trkpt>
      <trkpt lat="40.635450" lon="-4.731883">
        <ele>1540.0</ele>
        <time>2018-08-13T13:46:20Z</time>
      </trkpt>
      <trkpt lat="40.635483" lon="-4.731783">
        <ele>1538.0</ele>
        <time>2018-08-13T13:46:21Z</time>
      </trkpt>
      <trkpt lat="40.635517" lon="-4.731667">
        <ele>1534.0</ele>
        <time>2018-08-13T13:46:22Z</time>
      </trkpt>
      <trkpt lat="40.635583" lon="-4.731583">
        <ele>1531.0</ele>
        <time>2018-08-13T13:46:23Z</time>
      </trkpt>
      <trkpt lat="40.635633" lon="-4.731483">
        <ele>1529.0</ele>
        <time>2018-08-13T13:46:24Z</time>
      </trkpt>
      <trkpt lat="40.635683" lon="-4.731417">
        <ele>1527.0</ele>
        <time>2018-08-13T13:46:25Z</time>
      </trkpt>
      <trkpt lat="40.635733" lon="-4.731333">
        <ele>1525.0</ele>
        <time>2018-08-13T13:46:26Z</time>
      </trkpt>
      <trkpt lat="40.635767" lon="-4.731250">
        <ele>1523.0</ele>
        <time>2018-08-13T13:46:27Z</time>
      </trkpt>
      <trkpt lat="40.635800" lon="-4.731167">
        <ele>1520.0</ele>
        <time>2018-08-13T13:46:28Z</time>
      </trkpt>
      <trkpt lat="40.635833" lon="-4.731083">
        <ele>1516.0</ele>
        <time>2018-08-13T13:46:29Z</time>
      </trkpt>
      <trkpt lat="40.635883" lon="-4.731000">
        <ele>1512.0</ele>
        <time>2018-08-13T13:46:30Z</time>
      </trkpt>
      <trkpt lat="40.635933" lon="-4.730917">
        <ele>1509.0</ele>
        <time>2018-08-13T13:46:31Z</time>
      </trkpt>
      <trkpt lat="40.635983" lon="-4.730850">
        <ele>1506.0</ele>
        <time>2018-08-13T13:46:32Z</time>
      </trkpt>
      <trkpt lat="40.636033" lon="-4.730767">
        <ele>1505.0</ele>
        <time>2018-08-13T13:46:33Z</time>
      </trkpt>
      <trkpt lat="40.636067" lon="-4.730700">
        <ele>1504.0</ele>
        <time>2018-08-13T13:46:34Z</time>
      </trkpt>
      <trkpt lat="40.636117" lon="-4.730633">
        <ele>1502.0</ele>
        <time>2018-08-13T13:46:35Z</time>
      </trkpt>
      <trkpt lat="40.636150" lon="-4.730567">
        <ele>1500.0</ele>
        <time>2018-08-13T13:46:36Z</time>
      </trkpt>
      <trkpt lat="40.636200" lon="-4.730500">
        <ele>1498.0</ele>
        <time>2018-08-13T13:46:37Z</time>
      </trkpt>
      <trkpt lat="40.636250" lon="-4.730433">
        <ele>1495.0</ele>
        <time>2018-08-13T13:46:38Z</time>
      </trkpt>
      <trkpt lat="40.636300" lon="-4.730383">
        <ele>1493.0</ele>
        <time>2018-08-13T13:46:39Z</time>
      </trkpt>
      <trkpt lat="40.636350" lon="-4.730333">
        <ele>1491.0</ele>
        <time>2018-08-13T13:46:40Z</time>
      </trkpt>
      <trkpt lat="40.636400" lon="-4.730300">
        <ele>1489.0</ele>
        <time>2018-08-13T13:46:41Z</time>
      </trkpt>
      <trkpt lat="40.636467" lon="-4.730283">
        <ele>1487.0</ele>
        <time>2018-08-13T13:46:42Z</time>
      </trkpt>
      <trkpt lat="40.636517" lon="-4.730250">
        <ele>1486.0</ele>
        <time>2018-08-13T13:46:43Z</time>
      </trkpt>
      <trkpt lat="40.636567" lon="-4.730217">
        <ele>1485.0</ele>
        <time>2018-08-13T13:46:44Z</time>
      </trkpt>
      <trkpt lat="40.636633" lon="-4.730183">
        <ele>1484.0</ele>
        <time>2018-08-13T13:46:45Z</time>
      </trkpt>
      <trkpt lat="40.636683" lon="-4.730150">
        <ele>1484.0</ele>
        <time>2018-08-13T13:46:46Z</time>
      </trkpt>
      <trkpt lat="40.636733" lon="-4.730117">
        <ele>1484.0</ele>
        <time>2018-08-13T13:46:47Z</time>
      </trkpt>
      <trkpt lat="40.636783" lon="-4.730100">
        <ele>1483.0</ele>
        <time>2018-08-13T13:46:48Z</time>
      </trkpt>
      <trkpt lat="40.636850" lon="-4.730083">
        <ele>1481.0</ele>
        <time>2018-08-13T13:46:49Z</time>
      </trkpt>
      <trkpt lat="40.636917" lon="-4.730083">
        <ele>1480.0</ele>
        <time>2018-08-13T13:46:50Z</time>
      </trkpt>
      <trkpt lat="40.636983" lon="-4.730067">
        <ele>1480.0</ele>
        <time>2018-08-13T13:46:51Z</time>
      </trkpt>
      <trkpt lat="40.637033" lon="-4.730017">
        <ele>1480.0</ele>
        <time>2018-08-13T13:46:52Z</time>
      </trkpt>
      <trkpt lat="40.637067" lon="-4.729967">
        <ele>1480.0</ele>
        <time>2018-08-13T13:46:53Z</time>
      </trkpt>
      <trkpt lat="40.637117" lon="-4.729900">
        <ele>1479.0</ele>
        <time>2018-08-13T13:46:54Z</time>
      </trkpt>
      <trkpt lat="40.637150" lon="-4.729817">
        <ele>1478.0</ele>
        <time>2018-08-13T13:46:55Z</time>
      </trkpt>
      <trkpt lat="40.637200" lon="-4.729750">
        <ele>1476.0</ele>
        <time>2018-08-13T13:46:56Z</time>
      </trkpt>
      <trkpt lat="40.637267" lon="-4.729683">
        <ele>1475.0</ele>
        <time>2018-08-13T13:46:57Z</time>
      </trkpt>
      <trkpt lat="40.637317" lon="-4.729617">
        <ele>1474.0</ele>
        <time>2018-08-13T13:46:58Z</time>
      </trkpt>
      <trkpt lat="40.637383" lon="-4.729550">
        <ele>1475.0</ele>
        <time>2018-08-13T13:46:59Z</time>
      </trkpt>
      <trkpt lat="40.637433" lon="-4.729483">
        <ele>1475.0</ele>
        <time>2018-08-13T13:47:00Z</time>
      </trkpt>
      <trkpt lat="40.637483" lon="-4.729433">
        <ele>1476.0</ele>
        <time>2018-08-13T13:47:01Z</time>
      </trkpt>
      <trkpt lat="40.637550" lon="-4.729383">
        <ele>1476.0</ele>
        <time>2018-08-13T13:47:02Z</time>
      </trkpt>
      <trkpt lat="40.637617" lon="-4.729367">
        <ele>1476.0</ele>
        <time>2018-08-13T13:47:03Z</time>
      </trkpt>
      <trkpt lat="40.637683" lon="-4.729350">
        <ele>1476.0</ele>
        <time>2018-08-13T13:47:04Z</time>
      </trkpt>
      <trkpt lat="40.637733" lon="-4.729317">
        <ele>1477.0</ele>
        <time>2018-08-13T13:47:05Z</time>
      </trkpt>
      <trkpt lat="40.637783" lon="-4.729300">
        <ele>1477.0</ele>
        <time>2018-08-13T13:47:06Z</time>
      </trkpt>
      <trkpt lat="40.637850" lon="-4.729267">
        <ele>1476.0</ele>
        <time>2018-08-13T13:47:07Z</time>
      </trkpt>
      <trkpt lat="40.637900" lon="-4.729250">
        <ele>1474.0</ele>
        <time>2018-08-13T13:47:08Z</time>
      </trkpt>
      <trkpt lat="40.637983" lon="-4.729233">
        <ele>1472.0</ele>
        <time>2018-08-13T13:47:09Z</time>
      </trkpt>
      <trkpt lat="40.638067" lon="-4.729183">
        <ele>1472.0</ele>
        <time>2018-08-13T13:47:10Z</time>
      </trkpt>
      <trkpt lat="40.638150" lon="-4.729133">
        <ele>1474.0</ele>
        <time>2018-08-13T13:47:11Z</time>
      </trkpt>
      <trkpt lat="40.638217" lon="-4.729067">
        <ele>1476.0</ele>
        <time>2018-08-13T13:47:12Z</time>
      </trkpt>
      <trkpt lat="40.638250" lon="-4.729000">
        <ele>1478.0</ele>
        <time>2018-08-13T13:47:13Z</time>
      </trkpt>
      <trkpt lat="40.638300" lon="-4.728933">
        <ele>1481.0</ele>
        <time>2018-08-13T13:47:14Z</time>
      </trkpt>
      <trkpt lat="40.638350" lon="-4.728867">
        <ele>1482.0</ele>
        <time>2018-08-13T13:47:15Z</time>
      </trkpt>
      <trkpt lat="40.638400" lon="-4.728800">
        <ele>1483.0</ele>
        <time>2018-08-13T13:47:16Z</time>
      </trkpt>
      <trkpt lat="40.638450" lon="-4.728733">
        <ele>1484.0</ele>
        <time>2018-08-13T13:47:17Z</time>
      </trkpt>
      <trkpt lat="40.638517" lon="-4.728667">
        <ele>1485.0</ele>
        <time>2018-08-13T13:47:18Z</time>
      </trkpt>
      <trkpt lat="40.638583" lon="-4.728617">
        <ele>1486.0</ele>
        <time>2018-08-13T13:47:19Z</time>
      </trkpt>
      <trkpt lat="40.638650" lon="-4.728567">
        <ele>1488.0</ele>
        <time>2018-08-13T13:47:20Z</time>
      </trkpt>
      <trkpt lat="40.638733" lon="-4.728517">
        <ele>1489.0</ele>
        <time>2018-08-13T13:47:21Z</time>
      </trkpt>
      <trkpt lat="40.638800" lon="-4.728467">
        <ele>1491.0</ele>
        <time>2018-08-13T13:47:22Z</time>
      </trkpt>
      <trkpt lat="40.638867" lon="-4.728417">
        <ele>1492.0</ele>
        <time>2018-08-13T13:47:23Z</time>
      </trkpt>
      <trkpt lat="40.638933" lon="-4.728350">
        <ele>1495.0</ele>
        <time>2018-08-13T13:47:24Z</time>
      </trkpt>
      <trkpt lat="40.638983" lon="-4.728283">
        <ele>1498.0</ele>
        <time>2018-08-13T13:47:25Z</time>
      </trkpt>
      <trkpt lat="40.639033" lon="-4.728217">
        <ele>1501.0</ele>
        <time>2018-08-13T13:47:26Z</time>
      </trkpt>
      <trkpt lat="40.639067" lon="-4.728150">
        <ele>1503.0</ele>
        <time>2018-08-13T13:47:27Z</time>
      </trkpt>
      <trkpt lat="40.639117" lon="-4.728083">
        <ele>1504.0</ele>
        <time>2018-08-13T13:47:28Z</time>
      </trkpt>
      <trkpt lat="40.639167" lon="-4.728017">
        <ele>1505.0</ele>
        <time>2018-08-13T13:47:29Z</time>
      </trkpt>
      <trkpt lat="40.639217" lon="-4.727967">
        <ele>1506.0</ele>
        <time>2018-08-13T13:47:30Z</time>
      </trkpt>
      <trkpt lat="40.639283" lon="-4.727883">
        <ele>1507.0</ele>
        <time>2018-08-13T13:47:31Z</time>
      </trkpt>
      <trkpt lat="40.639350" lon="-4.727817">
        <ele>1508.0</ele>
        <time>2018-08-13T13:47:32Z</time>
      </trkpt>
      <trkpt lat="40.639400" lon="-4.727767">
        <ele>1510.0</ele>
        <time>2018-08-13T13:47:33Z</time>
      </trkpt>
      <trkpt lat="40.639467" lon="-4.727700">
        <ele>1513.0</ele>
        <time>2018-08-13T13:47:34Z</time>
      </trkpt>
      <trkpt lat="40.639517" lon="-4.727633">
        <ele>1516.0</ele>
        <time>2018-08-13T13:47:35Z</time>
      </trkpt>
      <trkpt lat="40.639567" lon="-4.727567">
        <ele>1520.0</ele>
        <time>2018-08-13T13:47:36Z</time>
      </trkpt>
      <trkpt lat="40.639583" lon="-4.727467">
        <ele>1523.0</ele>
        <time>2018-08-13T13:47:37Z</time>
      </trkpt>
      <trkpt lat="40.639617" lon="-4.727383">
        <ele>1524.0</ele>
        <time>2018-08-13T13:47:38Z</time>
      </trkpt>
      <trkpt lat="40.639667" lon="-4.727300">
        <ele>1526.0</ele>
        <time>2018-08-13T13:47:39Z</time>
      </trkpt>
      <trkpt lat="40.639733" lon="-4.727233">
        <ele>1528.0</ele>
        <time>2018-08-13T13:47:40Z</time>
      </trkpt>
      <trkpt lat="40.639783" lon="-4.727167">
        <ele>1531.0</ele>
        <time>2018-08-13T13:47:41Z</time>
      </trkpt>
      <trkpt lat="40.639850" lon="-4.727100">
        <ele>1536.0</ele>
        <time>2018-08-13T13:47:42Z</time>
      </trkpt>
      <trkpt lat="40.639900" lon="-4.727017">
        <ele>1540.0</ele>
        <time>2018-08-13T13:47:43Z</time>
      </trkpt>
      <trkpt lat="40.639933" lon="-4.726950">
        <ele>1542.0</ele>
        <time>2018-08-13T13:47:44Z</time>
      </trkpt>
      <trkpt lat="40.639967" lon="-4.726867">
        <ele>1543.0</ele>
        <time>2018-08-13T13:47:45Z</time>
      </trkpt>
      <trkpt lat="40.640000" lon="-4.726800">
        <ele>1543.0</ele>
        <time>2018-08-13T13:47:46Z</time>
      </trkpt>
      <trkpt lat="40.640050" lon="-4.726717">
        <ele>1543.0</ele>
        <time>2018-08-13T13:47:47Z</time>
      </trkpt>
      <trkpt lat="40.640083" lon="-4.726633">
        <ele>1543.0</ele>
        <time>2018-08-13T13:47:48Z</time>
      </trkpt>
      <trkpt lat="40.640133" lon="-4.726567">
        <ele>1545.0</ele>
        <time>2018-08-13T13:47:49Z</time>
      </trkpt>
      <trkpt lat="40.640167" lon="-4.726483">
        <ele>1547.0</ele>
        <time>2018-08-13T13:47:50Z</time>
      </trkpt>
      <trkpt lat="40.640217" lon="-4.726400">
        <ele>1548.0</ele>
        <time>2018-08-13T13:47:51Z</time>
      </trkpt>
      <trkpt lat="40.640250" lon="-4.726300">
        <ele>1550.0</ele>
        <time>2018-08-13T13:47:52Z</time>
      </trkpt>
      <trkpt lat="40.640283" lon="-4.726183">
        <ele>1551.0</ele>
        <time>2018-08-13T13:47:53Z</time>
      </trkpt>
      <trkpt lat="40.640317" lon="-4.726067">
        <ele>1553.0</ele>
        <time>2018-08-13T13:47:54Z</time>
      </trkpt>
      <trkpt lat="40.640333" lon="-4.725950">
        <ele>1555.0</ele>
        <time>2018-08-13T13:47:55Z</time>
      </trkpt>
      <trkpt lat="40.640350" lon="-4.725833">
        <ele>1556.0</ele>
        <time>2018-08-13T13:47:56Z</time>
      </trkpt>
      <trkpt lat="40.640367" lon="-4.725700">
        <ele>1557.0</ele>
        <time>2018-08-13T13:47:57Z</time>
      </trkpt>
      <trkpt lat="40.640383" lon="-4.725567">
        <ele>1557.0</ele>
        <time>2018-08-13T13:47:58Z</time>
      </trkpt>
      <trkpt lat="40.640417" lon="-4.725450">
        <ele>1556.0</ele>
        <time>2018-08-13T13:47:59Z</time>
      </trkpt>
      <trkpt lat="40.640433" lon="-4.725333">
        <ele>1556.0</ele>
        <time>2018-08-13T13:48:00Z</time>
      </trkpt>
      <trkpt lat="40.640467" lon="-4.725217">
        <ele>1556.0</ele>
        <time>2018-08-13T13:48:01Z</time>
      </trkpt>
      <trkpt lat="40.640500" lon="-4.725100">
        <ele>1557.0</ele>
        <time>2018-08-13T13:48:02Z</time>
      </trkpt>
      <trkpt lat="40.640517" lon="-4.725000">
        <ele>1558.0</ele>
        <time>2018-08-13T13:48:03Z</time>
      </trkpt>
      <trkpt lat="40.640550" lon="-4.724883">
        <ele>1559.0</ele>
        <time>2018-08-13T13:48:04Z</time>
      </trkpt>
      <trkpt lat="40.640583" lon="-4.724817">
        <ele>1560.0</ele>
        <time>2018-08-13T13:48:05Z</time>
      </trkpt>
      <trkpt lat="40.640600" lon="-4.724750">
        <ele>1560.0</ele>
        <time>2018-08-13T13:48:06Z</time>
      </trkpt>
      <trkpt lat="40.640617" lon="-4.724667">
        <ele>1561.0</ele>
        <time>2018-08-13T13:48:07Z</time>
      </trkpt>
      <trkpt lat="40.640633" lon="-4.724583">
        <ele>1561.0</ele>
        <time>2018-08-13T13:48:08Z</time>
      </trkpt>
      <trkpt lat="40.640650" lon="-4.724467">
        <ele>1559.0</ele>
        <time>2018-08-13T13:48:09Z</time>
      </trkpt>
      <trkpt lat="40.640667" lon="-4.724350">
        <ele>1557.0</ele>
        <time>2018-08-13T13:48:10Z</time>
      </trkpt>
      <trkpt lat="40.640700" lon="-4.724217">
        <ele>1554.0</ele>
        <time>2018-08-13T13:48:11Z</time>
      </trkpt>
      <trkpt lat="40.640733" lon="-4.724083">
        <ele>1552.0</ele>
        <time>2018-08-13T13:48:12Z</time>
      </trkpt>
      <trkpt lat="40.640767" lon="-4.723967">
        <ele>1551.0</ele>
        <time>2018-08-13T13:48:13Z</time>
      </trkpt>
      <trkpt lat="40.640800" lon="-4.723900">
        <ele>1550.0</ele>
        <time>2018-08-13T13:48:14Z</time>
      </trkpt>
      <trkpt lat="40.640833" lon="-4.723850">
        <ele>1548.0</ele>
        <time>2018-08-13T13:48:15Z</time>
      </trkpt>
      <trkpt lat="40.640850" lon="-4.723817">
        <ele>1547.0</ele>
        <time>2018-08-13T13:48:16Z</time>
      </trkpt>
      <trkpt lat="40.640883" lon="-4.723800">
        <ele>1544.0</ele>
        <time>2018-08-13T13:48:17Z</time>
      </trkpt>
      <trkpt lat="40.640917" lon="-4.723783">
        <ele>1542.0</ele>
        <time>2018-08-13T13:48:18Z</time>
      </trkpt>
      <trkpt lat="40.640950" lon="-4.723750">
        <ele>1540.0</ele>
        <time>2018-08-13T13:48:19Z</time>
      </trkpt>
      <trkpt lat="40.640983" lon="-4.723683">
        <ele>1539.0</ele>
        <time>2018-08-13T13:48:20Z</time>
      </trkpt>
      <trkpt lat="40.641033" lon="-4.723617">
        <ele>1540.0</ele>
        <time>2018-08-13T13:48:21Z</time>
      </trkpt>
      <trkpt lat="40.641083" lon="-4.723567">
        <ele>1543.0</ele>
        <time>2018-08-13T13:48:22Z</time>
      </trkpt>
      <trkpt lat="40.641117" lon="-4.723517">
        <ele>1546.0</ele>
        <time>2018-08-13T13:48:23Z</time>
      </trkpt>
      <trkpt lat="40.641133" lon="-4.723467">
        <ele>1549.0</ele>
        <time>2018-08-13T13:48:24Z</time>
      </trkpt>
      <trkpt lat="40.641133" lon="-4.723417">
        <ele>1550.0</ele>
        <time>2018-08-13T13:48:25Z</time>
      </trkpt>
      <trkpt lat="40.641150" lon="-4.723350">
        <ele>1551.0</ele>
        <time>2018-08-13T13:48:26Z</time>
      </trkpt>
      <trkpt lat="40.641167" lon="-4.723283">
        <ele>1550.0</ele>
        <time>2018-08-13T13:48:27Z</time>
      </trkpt>
      <trkpt lat="40.641183" lon="-4.723200">
        <ele>1549.0</ele>
        <time>2018-08-13T13:48:28Z</time>
      </trkpt>
      <trkpt lat="40.641217" lon="-4.723133">
        <ele>1548.0</ele>
        <time>2018-08-13T13:48:29Z</time>
      </trkpt>
      <trkpt lat="40.641250" lon="-4.723050">
        <ele>1548.0</ele>
        <time>2018-08-13T13:48:30Z</time>
      </trkpt>
      <trkpt lat="40.641283" lon="-4.722950">
        <ele>1549.0</ele>
        <time>2018-08-13T13:48:31Z</time>
      </trkpt>
      <trkpt lat="40.641300" lon="-4.722850">
        <ele>1549.0</ele>
        <time>2018-08-13T13:48:32Z</time>
      </trkpt>
      <trkpt lat="40.641317" lon="-4.722750">
        <ele>1548.0</ele>
        <time>2018-08-13T13:48:33Z</time>
      </trkpt>
      <trkpt lat="40.641333" lon="-4.722650">
        <ele>1548.0</ele>
        <time>2018-08-13T13:48:34Z</time>
      </trkpt>
      <trkpt lat="40.641367" lon="-4.722550">
        <ele>1547.0</ele>
        <time>2018-08-13T13:48:35Z</time>
      </trkpt>
      <trkpt lat="40.641400" lon="-4.722467">
        <ele>1546.0</ele>
        <time>2018-08-13T13:48:36Z</time>
      </trkpt>
      <trkpt lat="40.641417" lon="-4.722367">
        <ele>1546.0</ele>
        <time>2018-08-13T13:48:37Z</time>
      </trkpt>
      <trkpt lat="40.641450" lon="-4.722267">
        <ele>1546.0</ele>
        <time>2018-08-13T13:48:38Z</time>
      </trkpt>
      <trkpt lat="40.641467" lon="-4.722183">
        <ele>1546.0</ele>
        <time>2018-08-13T13:48:39Z</time>
      </trkpt>
      <trkpt lat="40.641500" lon="-4.722100">
        <ele>1545.0</ele>
        <time>2018-08-13T13:48:40Z</time>
      </trkpt>
      <trkpt lat="40.641517" lon="-4.722017">
        <ele>1545.0</ele>
        <time>2018-08-13T13:48:41Z</time>
      </trkpt>
      <trkpt lat="40.641550" lon="-4.721933">
        <ele>1545.0</ele>
        <time>2018-08-13T13:48:42Z</time>
      </trkpt>
      <trkpt lat="40.641567" lon="-4.721833">
        <ele>1545.0</ele>
        <time>2018-08-13T13:48:43Z</time>
      </trkpt>
      <trkpt lat="40.641600" lon="-4.721750">
        <ele>1545.0</ele>
        <time>2018-08-13T13:48:44Z</time>
      </trkpt>
      <trkpt lat="40.641617" lon="-4.721683">
        <ele>1546.0</ele>
        <time>2018-08-13T13:48:45Z</time>
      </trkpt>
      <trkpt lat="40.641650" lon="-4.721617">
        <ele>1547.0</ele>
        <time>2018-08-13T13:48:46Z</time>
      </trkpt>
      <trkpt lat="40.641667" lon="-4.721567">
        <ele>1546.0</ele>
        <time>2018-08-13T13:48:47Z</time>
      </trkpt>
      <trkpt lat="40.641700" lon="-4.721517">
        <ele>1545.0</ele>
        <time>2018-08-13T13:48:48Z</time>
      </trkpt>
      <trkpt lat="40.641733" lon="-4.721467">
        <ele>1544.0</ele>
        <time>2018-08-13T13:48:49Z</time>
      </trkpt>
      <trkpt lat="40.641783" lon="-4.721417">
        <ele>1543.0</ele>
        <time>2018-08-13T13:48:50Z</time>
      </trkpt>
      <trkpt lat="40.641817" lon="-4.721367">
        <ele>1542.0</ele>
        <time>2018-08-13T13:48:51Z</time>
      </trkpt>
      <trkpt lat="40.641850" lon="-4.721317">
        <ele>1542.0</ele>
        <time>2018-08-13T13:48:52Z</time>
      </trkpt>
      <trkpt lat="40.641900" lon="-4.721283">
        <ele>1541.0</ele>
        <time>2018-08-13T13:48:53Z</time>
      </trkpt>
      <trkpt lat="40.641933" lon="-4.721233">
        <ele>1541.0</ele>
        <time>2018-08-13T13:48:54Z</time>
      </trkpt>
      <trkpt lat="40.641983" lon="-4.721200">
        <ele>1540.0</ele>
        <time>2018-08-13T13:48:55Z</time>
      </trkpt>
      <trkpt lat="40.642017" lon="-4.721150">
        <ele>1539.0</ele>
        <time>2018-08-13T13:48:56Z</time>
      </trkpt>
      <trkpt lat="40.642067" lon="-4.721100">
        <ele>1538.0</ele>
        <time>2018-08-13T13:48:57Z</time>
      </trkpt>
      <trkpt lat="40.642117" lon="-4.721050">
        <ele>1537.0</ele>
        <time>2018-08-13T13:48:58Z</time>
      </trkpt>
      <trkpt lat="40.642167" lon="-4.721000">
        <ele>1537.0</ele>
        <time>2018-08-13T13:48:59Z</time>
      </trkpt>
      <trkpt lat="40.642200" lon="-4.720967">
        <ele>1537.0</ele>
        <time>2018-08-13T13:49:00Z</time>
      </trkpt>
      <trkpt lat="40.642233" lon="-4.720917">
        <ele>1536.0</ele>
        <time>2018-08-13T13:49:01Z</time>
      </trkpt>
      <trkpt lat="40.642267" lon="-4.720833">
        <ele>1536.0</ele>
        <time>2018-08-13T13:49:02Z</time>
      </trkpt>
      <trkpt lat="40.642300" lon="-4.720767">
        <ele>1534.0</ele>
        <time>2018-08-13T13:49:03Z</time>
      </trkpt>
      <trkpt lat="40.642333" lon="-4.720717">
        <ele>1534.0</ele>
        <time>2018-08-13T13:49:04Z</time>
      </trkpt>
      <trkpt lat="40.642367" lon="-4.720650">
        <ele>1533.0</ele>
        <time>2018-08-13T13:49:05Z</time>
      </trkpt>
      <trkpt lat="40.642383" lon="-4.720567">
        <ele>1532.0</ele>
        <time>2018-08-13T13:49:06Z</time>
      </trkpt>
      <trkpt lat="40.642417" lon="-4.720500">
        <ele>1531.0</ele>
        <time>2018-08-13T13:49:07Z</time>
      </trkpt>
      <trkpt lat="40.642450" lon="-4.720433">
        <ele>1530.0</ele>
        <time>2018-08-13T13:49:08Z</time>
      </trkpt>
      <trkpt lat="40.642500" lon="-4.720383">
        <ele>1529.0</ele>
        <time>2018-08-13T13:49:09Z</time>
      </trkpt>
      <trkpt lat="40.642550" lon="-4.720367">
        <ele>1527.0</ele>
        <time>2018-08-13T13:49:10Z</time>
      </trkpt>
      <trkpt lat="40.642600" lon="-4.720333">
        <ele>1525.0</ele>
        <time>2018-08-13T13:49:11Z</time>
      </trkpt>
      <trkpt lat="40.642650" lon="-4.720300">
        <ele>1524.0</ele>
        <time>2018-08-13T13:49:12Z</time>
      </trkpt>
      <trkpt lat="40.642683" lon="-4.720233">
        <ele>1524.0</ele>
        <time>2018-08-13T13:49:13Z</time>
      </trkpt>
      <trkpt lat="40.642733" lon="-4.720167">
        <ele>1522.0</ele>
        <time>2018-08-13T13:49:14Z</time>
      </trkpt>
      <trkpt lat="40.642767" lon="-4.720083">
        <ele>1521.0</ele>
        <time>2018-08-13T13:49:15Z</time>
      </trkpt>
      <trkpt lat="40.642817" lon="-4.720017">
        <ele>1520.0</ele>
        <time>2018-08-13T13:49:16Z</time>
      </trkpt>
      <trkpt lat="40.642867" lon="-4.719967">
        <ele>1520.0</ele>
        <time>2018-08-13T13:49:17Z</time>
      </trkpt>
      <trkpt lat="40.642933" lon="-4.719933">
        <ele>1520.0</ele>
        <time>2018-08-13T13:49:18Z</time>
      </trkpt>
      <trkpt lat="40.642967" lon="-4.719917">
        <ele>1521.0</ele>
        <time>2018-08-13T13:49:19Z</time>
      </trkpt>
      <trkpt lat="40.643017" lon="-4.719867">
        <ele>1522.0</ele>
        <time>2018-08-13T13:49:20Z</time>
      </trkpt>
      <trkpt lat="40.643050" lon="-4.719800">
        <ele>1522.0</ele>
        <time>2018-08-13T13:49:21Z</time>
      </trkpt>
      <trkpt lat="40.643083" lon="-4.719733">
        <ele>1522.0</ele>
        <time>2018-08-13T13:49:22Z</time>
      </trkpt>
      <trkpt lat="40.643133" lon="-4.719650">
        <ele>1521.0</ele>
        <time>2018-08-13T13:49:23Z</time>
      </trkpt>
      <trkpt lat="40.643183" lon="-4.719567">
        <ele>1519.0</ele>
        <time>2018-08-13T13:49:24Z</time>
      </trkpt>
      <trkpt lat="40.643250" lon="-4.719467">
        <ele>1519.0</ele>
        <time>2018-08-13T13:49:25Z</time>
      </trkpt>
      <trkpt lat="40.643300" lon="-4.719367">
        <ele>1520.0</ele>
        <time>2018-08-13T13:49:26Z</time>
      </trkpt>
      <trkpt lat="40.643333" lon="-4.719250">
        <ele>1521.0</ele>
        <time>2018-08-13T13:49:27Z</time>
      </trkpt>
      <trkpt lat="40.643367" lon="-4.719150">
        <ele>1523.0</ele>
        <time>2018-08-13T13:49:28Z</time>
      </trkpt>
      <trkpt lat="40.643383" lon="-4.719050">
        <ele>1525.0</ele>
        <time>2018-08-13T13:49:29Z</time>
      </trkpt>
      <trkpt lat="40.643400" lon="-4.718967">
        <ele>1525.0</ele>
        <time>2018-08-13T13:49:30Z</time>
      </trkpt>
      <trkpt lat="40.643417" lon="-4.718883">
        <ele>1525.0</ele>
        <time>2018-08-13T13:49:31Z</time>
      </trkpt>
      <trkpt lat="40.643433" lon="-4.718800">
        <ele>1523.0</ele>
        <time>2018-08-13T13:49:32Z</time>
      </trkpt>
      <trkpt lat="40.643450" lon="-4.718700">
        <ele>1522.0</ele>
        <time>2018-08-13T13:49:33Z</time>
      </trkpt>
      <trkpt lat="40.643483" lon="-4.718583">
        <ele>1520.0</ele>
        <time>2018-08-13T13:49:34Z</time>
      </trkpt>
      <trkpt lat="40.643500" lon="-4.718467">
        <ele>1520.0</ele>
        <time>2018-08-13T13:49:35Z</time>
      </trkpt>
      <trkpt lat="40.643517" lon="-4.718350">
        <ele>1521.0</ele>
        <time>2018-08-13T13:49:36Z</time>
      </trkpt>
      <trkpt lat="40.643517" lon="-4.718233">
        <ele>1522.0</ele>
        <time>2018-08-13T13:49:37Z</time>
      </trkpt>
      <trkpt lat="40.643517" lon="-4.718117">
        <ele>1522.0</ele>
        <time>2018-08-13T13:49:38Z</time>
      </trkpt>
      <trkpt lat="40.643533" lon="-4.718017">
        <ele>1521.0</ele>
        <time>2018-08-13T13:49:39Z</time>
      </trkpt>
      <trkpt lat="40.643550" lon="-4.717900">
        <ele>1520.0</ele>
        <time>2018-08-13T13:49:40Z</time>
      </trkpt>
      <trkpt lat="40.643583" lon="-4.717800">
        <ele>1519.0</ele>
        <time>2018-08-13T13:49:41Z</time>
      </trkpt>
      <trkpt lat="40.643617" lon="-4.717700">
        <ele>1518.0</ele>
        <time>2018-08-13T13:49:42Z</time>
      </trkpt>
      <trkpt lat="40.643633" lon="-4.717617">
        <ele>1517.0</ele>
        <time>2018-08-13T13:49:43Z</time>
      </trkpt>
      <trkpt lat="40.643667" lon="-4.717517">
        <ele>1516.0</ele>
        <time>2018-08-13T13:49:44Z</time>
      </trkpt>
      <trkpt lat="40.643700" lon="-4.717417">
        <ele>1514.0</ele>
        <time>2018-08-13T13:49:45Z</time>
      </trkpt>
      <trkpt lat="40.643733" lon="-4.717317">
        <ele>1513.0</ele>
        <time>2018-08-13T13:49:46Z</time>
      </trkpt>
      <trkpt lat="40.643783" lon="-4.717233">
        <ele>1512.0</ele>
        <time>2018-08-13T13:49:47Z</time>
      </trkpt>
      <trkpt lat="40.643817" lon="-4.717117">
        <ele>1511.0</ele>
        <time>2018-08-13T13:49:48Z</time>
      </trkpt>
      <trkpt lat="40.643850" lon="-4.717000">
        <ele>1510.0</ele>
        <time>2018-08-13T13:49:49Z</time>
      </trkpt>
      <trkpt lat="40.643867" lon="-4.716883">
        <ele>1509.0</ele>
        <time>2018-08-13T13:49:50Z</time>
      </trkpt>
      <trkpt lat="40.643883" lon="-4.716783">
        <ele>1508.0</ele>
        <time>2018-08-13T13:49:51Z</time>
      </trkpt>
      <trkpt lat="40.643900" lon="-4.716667">
        <ele>1506.0</ele>
        <time>2018-08-13T13:49:52Z</time>
      </trkpt>
      <trkpt lat="40.643917" lon="-4.716567">
        <ele>1504.0</ele>
        <time>2018-08-13T13:49:53Z</time>
      </trkpt>
      <trkpt lat="40.643933" lon="-4.716467">
        <ele>1501.0</ele>
        <time>2018-08-13T13:49:54Z</time>
      </trkpt>
      <trkpt lat="40.643950" lon="-4.716367">
        <ele>1498.0</ele>
        <time>2018-08-13T13:49:55Z</time>
      </trkpt>
      <trkpt lat="40.644000" lon="-4.716250">
        <ele>1495.0</ele>
        <time>2018-08-13T13:49:56Z</time>
      </trkpt>
      <trkpt lat="40.644033" lon="-4.716150">
        <ele>1493.0</ele>
        <time>2018-08-13T13:49:57Z</time>
      </trkpt>
      <trkpt lat="40.644067" lon="-4.716033">
        <ele>1491.0</ele>
        <time>2018-08-13T13:49:58Z</time>
      </trkpt>
      <trkpt lat="40.644100" lon="-4.715933">
        <ele>1490.0</ele>
        <time>2018-08-13T13:49:59Z</time>
      </trkpt>
      <trkpt lat="40.644133" lon="-4.715833">
        <ele>1488.0</ele>
        <time>2018-08-13T13:50:00Z</time>
      </trkpt>
      <trkpt lat="40.644167" lon="-4.715750">
        <ele>1487.0</ele>
        <time>2018-08-13T13:50:01Z</time>
      </trkpt>
      <trkpt lat="40.644200" lon="-4.715650">
        <ele>1485.0</ele>
        <time>2018-08-13T13:50:02Z</time>
      </trkpt>
      <trkpt lat="40.644217" lon="-4.715567">
        <ele>1483.0</ele>
        <time>2018-08-13T13:50:03Z</time>
      </trkpt>
      <trkpt lat="40.644233" lon="-4.715483">
        <ele>1481.0</ele>
        <time>2018-08-13T13:50:04Z</time>
      </trkpt>
      <trkpt lat="40.644267" lon="-4.715400">
        <ele>1478.0</ele>
        <time>2018-08-13T13:50:05Z</time>
      </trkpt>
      <trkpt lat="40.644283" lon="-4.715300">
        <ele>1475.0</ele>
        <time>2018-08-13T13:50:06Z</time>
      </trkpt>
      <trkpt lat="40.644283" lon="-4.715200">
        <ele>1472.0</ele>
        <time>2018-08-13T13:50:07Z</time>
      </trkpt>
      <trkpt lat="40.644300" lon="-4.715083">
        <ele>1469.0</ele>
        <time>2018-08-13T13:50:08Z</time>
      </trkpt>
      <trkpt lat="40.644333" lon="-4.714967">
        <ele>1467.0</ele>
        <time>2018-08-13T13:50:09Z</time>
      </trkpt>
      <trkpt lat="40.644350" lon="-4.714867">
        <ele>1466.0</ele>
        <time>2018-08-13T13:50:10Z</time>
      </trkpt>
      <trkpt lat="40.644383" lon="-4.714800">
        <ele>1465.0</ele>
        <time>2018-08-13T13:50:11Z</time>
      </trkpt>
      <trkpt lat="40.644417" lon="-4.714750">
        <ele>1464.0</ele>
        <time>2018-08-13T13:50:12Z</time>
      </trkpt>
      <trkpt lat="40.644433" lon="-4.714700">
        <ele>1464.0</ele>
        <time>2018-08-13T13:50:13Z</time>
      </trkpt>
      <trkpt lat="40.644433" lon="-4.714650">
        <ele>1464.0</ele>
        <time>2018-08-13T13:50:14Z</time>
      </trkpt>
      <trkpt lat="40.644467" lon="-4.714583">
        <ele>1465.0</ele>
        <time>2018-08-13T13:50:15Z</time>
      </trkpt>
      <trkpt lat="40.644483" lon="-4.714533">
        <ele>1465.0</ele>
        <time>2018-08-13T13:50:16Z</time>
      </trkpt>
      <trkpt lat="40.644517" lon="-4.714467">
        <ele>1467.0</ele>
        <time>2018-08-13T13:50:17Z</time>
      </trkpt>
      <trkpt lat="40.644550" lon="-4.714417">
        <ele>1468.0</ele>
        <time>2018-08-13T13:50:18Z</time>
      </trkpt>
      <trkpt lat="40.644583" lon="-4.714383">
        <ele>1471.0</ele>
        <time>2018-08-13T13:50:19Z</time>
      </trkpt>
      <trkpt lat="40.644617" lon="-4.714350">
        <ele>1473.0</ele>
        <time>2018-08-13T13:50:20Z</time>
      </trkpt>
      <trkpt lat="40.644650" lon="-4.714317">
        <ele>1476.0</ele>
        <time>2018-08-13T13:50:21Z</time>
      </trkpt>
      <trkpt lat="40.644700" lon="-4.714283">
        <ele>1479.0</ele>
        <time>2018-08-13T13:50:22Z</time>
      </trkpt>
      <trkpt lat="40.644733" lon="-4.714267">
        <ele>1483.0</ele>
        <time>2018-08-13T13:50:23Z</time>
      </trkpt>
      <trkpt lat="40.644767" lon="-4.714233">
        <ele>1486.0</ele>
        <time>2018-08-13T13:50:24Z</time>
      </trkpt>
      <trkpt lat="40.644800" lon="-4.714217">
        <ele>1490.0</ele>
        <time>2018-08-13T13:50:25Z</time>
      </trkpt>
      <trkpt lat="40.644833" lon="-4.714183">
        <ele>1493.0</ele>
        <time>2018-08-13T13:50:26Z</time>
      </trkpt>
      <trkpt lat="40.644867" lon="-4.714167">
        <ele>1497.0</ele>
        <time>2018-08-13T13:50:27Z</time>
      </trkpt>
      <trkpt lat="40.644900" lon="-4.714133">
        <ele>1500.0</ele>
        <time>2018-08-13T13:50:28Z</time>
      </trkpt>
      <trkpt lat="40.644917" lon="-4.714117">
        <ele>1503.0</ele>
        <time>2018-08-13T13:50:29Z</time>
      </trkpt>
      <trkpt lat="40.644950" lon="-4.714083">
        <ele>1506.0</ele>
        <time>2018-08-13T13:50:30Z</time>
      </trkpt>
      <trkpt lat="40.644967" lon="-4.714067">
        <ele>1507.0</ele>
        <time>2018-08-13T13:50:31Z</time>
      </trkpt>
      <trkpt lat="40.644983" lon="-4.714017">
        <ele>1508.0</ele>
        <time>2018-08-13T13:50:32Z</time>
      </trkpt>
      <trkpt lat="40.645017" lon="-4.713983">
        <ele>1508.0</ele>
        <time>2018-08-13T13:50:33Z</time>
      </trkpt>
      <trkpt lat="40.645050" lon="-4.713950">
        <ele>1508.0</ele>
        <time>2018-08-13T13:50:34Z</time>
      </trkpt>
      <trkpt lat="40.645083" lon="-4.713900">
        <ele>1508.0</ele>
        <time>2018-08-13T13:50:35Z</time>
      </trkpt>
      <trkpt lat="40.645117" lon="-4.713850">
        <ele>1509.0</ele>
        <time>2018-08-13T13:50:36Z</time>
      </trkpt>
      <trkpt lat="40.645133" lon="-4.713783">
        <ele>1509.0</ele>
        <time>2018-08-13T13:50:37Z</time>
      </trkpt>
      <trkpt lat="40.645167" lon="-4.713717">
        <ele>1509.0</ele>
        <time>2018-08-13T13:50:38Z</time>
      </trkpt>
      <trkpt lat="40.645183" lon="-4.713633">
        <ele>1508.0</ele>
        <time>2018-08-13T13:50:39Z</time>
      </trkpt>
      <trkpt lat="40.645217" lon="-4.713550">
        <ele>1508.0</ele>
        <time>2018-08-13T13:50:40Z</time>
      </trkpt>
      <trkpt lat="40.645250" lon="-4.713467">
        <ele>1506.0</ele>
        <time>2018-08-13T13:50:41Z</time>
      </trkpt>
      <trkpt lat="40.645267" lon="-4.713383">
        <ele>1505.0</ele>
        <time>2018-08-13T13:50:42Z</time>
      </trkpt>
      <trkpt lat="40.645300" lon="-4.713300">
        <ele>1503.0</ele>
        <time>2018-08-13T13:50:43Z</time>
      </trkpt>
      <trkpt lat="40.645333" lon="-4.713233">
        <ele>1501.0</ele>
        <time>2018-08-13T13:50:44Z</time>
      </trkpt>
      <trkpt lat="40.645367" lon="-4.713183">
        <ele>1498.0</ele>
        <time>2018-08-13T13:50:45Z</time>
      </trkpt>
      <trkpt lat="40.645417" lon="-4.713133">
        <ele>1495.0</ele>
        <time>2018-08-13T13:50:46Z</time>
      </trkpt>
      <trkpt lat="40.645467" lon="-4.713067">
        <ele>1494.0</ele>
        <time>2018-08-13T13:50:47Z</time>
      </trkpt>
      <trkpt lat="40.645517" lon="-4.713000">
        <ele>1497.0</ele>
        <time>2018-08-13T13:50:48Z</time>
      </trkpt>
      <trkpt lat="40.645567" lon="-4.712917">
        <ele>1499.0</ele>
        <time>2018-08-13T13:50:49Z</time>
      </trkpt>
      <trkpt lat="40.645600" lon="-4.712833">
        <ele>1501.0</ele>
        <time>2018-08-13T13:50:50Z</time>
      </trkpt>
      <trkpt lat="40.645650" lon="-4.712750">
        <ele>1502.0</ele>
        <time>2018-08-13T13:50:51Z</time>
      </trkpt>
      <trkpt lat="40.645717" lon="-4.712717">
        <ele>1502.0</ele>
        <time>2018-08-13T13:50:52Z</time>
      </trkpt>
      <trkpt lat="40.645767" lon="-4.712683">
        <ele>1502.0</ele>
        <time>2018-08-13T13:50:53Z</time>
      </trkpt>
      <trkpt lat="40.645833" lon="-4.712683">
        <ele>1503.0</ele>
        <time>2018-08-13T13:50:54Z</time>
      </trkpt>
      <trkpt lat="40.645900" lon="-4.712667">
        <ele>1505.0</ele>
        <time>2018-08-13T13:50:55Z</time>
      </trkpt>
      <trkpt lat="40.645933" lon="-4.712650">
        <ele>1507.0</ele>
        <time>2018-08-13T13:50:56Z</time>
      </trkpt>
      <trkpt lat="40.645983" lon="-4.712633">
        <ele>1508.0</ele>
        <time>2018-08-13T13:50:57Z</time>
      </trkpt>
      <trkpt lat="40.646017" lon="-4.712617">
        <ele>1508.0</ele>
        <time>2018-08-13T13:50:58Z</time>
      </trkpt>
      <trkpt lat="40.646050" lon="-4.712600">
        <ele>1508.0</ele>
        <time>2018-08-13T13:50:59Z</time>
      </trkpt>
      <trkpt lat="40.646083" lon="-4.712583">
        <ele>1507.0</ele>
        <time>2018-08-13T13:51:00Z</time>
      </trkpt>
      <trkpt lat="40.646133" lon="-4.712583">
        <ele>1507.0</ele>
        <time>2018-08-13T13:51:01Z</time>
      </trkpt>
      <trkpt lat="40.646167" lon="-4.712567">
        <ele>1508.0</ele>
        <time>2018-08-13T13:51:02Z</time>
      </trkpt>
      <trkpt lat="40.646217" lon="-4.712567">
        <ele>1508.0</ele>
        <time>2018-08-13T13:51:03Z</time>
      </trkpt>
      <trkpt lat="40.646267" lon="-4.712550">
        <ele>1508.0</ele>
        <time>2018-08-13T13:51:04Z</time>
      </trkpt>
      <trkpt lat="40.646317" lon="-4.712500">
        <ele>1508.0</ele>
        <time>2018-08-13T13:51:05Z</time>
      </trkpt>
      <trkpt lat="40.646350" lon="-4.712467">
        <ele>1508.0</ele>
        <time>2018-08-13T13:51:06Z</time>
      </trkpt>
      <trkpt lat="40.646383" lon="-4.712450">
        <ele>1506.0</ele>
        <time>2018-08-13T13:51:07Z</time>
      </trkpt>
      <trkpt lat="40.646417" lon="-4.712433">
        <ele>1504.0</ele>
        <time>2018-08-13T13:51:08Z</time>
      </trkpt>
      <trkpt lat="40.646467" lon="-4.712417">
        <ele>1501.0</ele>
        <time>2018-08-13T13:51:09Z</time>
      </trkpt>
      <trkpt lat="40.646517" lon="-4.712400">
        <ele>1499.0</ele>
        <time>2018-08-13T13:51:10Z</time>
      </trkpt>
      <trkpt lat="40.646550" lon="-4.712417">
        <ele>1497.0</ele>
        <time>2018-08-13T13:51:11Z</time>
      </trkpt>
      <trkpt lat="40.646583" lon="-4.712467">
        <ele>1495.0</ele>
        <time>2018-08-13T13:51:12Z</time>
      </trkpt>
      <trkpt lat="40.646583" lon="-4.712533">
        <ele>1492.0</ele>
        <time>2018-08-13T13:51:13Z</time>
      </trkpt>
      <trkpt lat="40.646517" lon="-4.712617">
        <ele>1490.0</ele>
        <time>2018-08-13T13:51:14Z</time>
      </trkpt>
      <trkpt lat="40.646417" lon="-4.712667">
        <ele>1488.0</ele>
        <time>2018-08-13T13:51:15Z</time>
      </trkpt>
      <trkpt lat="40.646283" lon="-4.712667">
        <ele>1485.0</ele>
        <time>2018-08-13T13:51:16Z</time>
      </trkpt>
      <trkpt lat="40.646133" lon="-4.712583">
        <ele>1484.0</ele>
        <time>2018-08-13T13:51:17Z</time>
      </trkpt>
      <trkpt lat="40.646000" lon="-4.712450">
        <ele>1483.0</ele>
        <time>2018-08-13T13:51:18Z</time>
      </trkpt>
      <trkpt lat="40.645900" lon="-4.712267">
        <ele>1483.0</ele>
        <time>2018-08-13T13:51:19Z</time>
      </trkpt>
      <trkpt lat="40.645833" lon="-4.712067">
        <ele>1484.0</ele>
        <time>2018-08-13T13:51:20Z</time>
      </trkpt>
      <trkpt lat="40.645833" lon="-4.711883">
        <ele>1484.0</ele>
        <time>2018-08-13T13:51:21Z</time>
      </trkpt>
      <trkpt lat="40.645867" lon="-4.711733">
        <ele>1485.0</ele>
        <time>2018-08-13T13:51:22Z</time>
      </trkpt>
      <trkpt lat="40.645933" lon="-4.711617">
        <ele>1486.0</ele>
        <time>2018-08-13T13:51:23Z</time>
      </trkpt>
      <trkpt lat="40.645983" lon="-4.711533">
        <ele>1485.0</ele>
        <time>2018-08-13T13:51:24Z</time>
      </trkpt>
      <trkpt lat="40.646033" lon="-4.711483">
        <ele>1483.0</ele>
        <time>2018-08-13T13:51:25Z</time>
      </trkpt>
      <trkpt lat="40.646083" lon="-4.711450">
        <ele>1481.0</ele>
        <time>2018-08-13T13:51:26Z</time>
      </trkpt>
      <trkpt lat="40.646133" lon="-4.711433">
        <ele>1478.0</ele>
        <time>2018-08-13T13:51:27Z</time>
      </trkpt>
      <trkpt lat="40.646200" lon="-4.711417">
        <ele>1475.0</ele>
        <time>2018-08-13T13:51:28Z</time>
      </trkpt>
      <trkpt lat="40.646267" lon="-4.711383">
        <ele>1474.0</ele>
        <time>2018-08-13T13:51:29Z</time>
      </trkpt>
      <trkpt lat="40.646350" lon="-4.711350">
        <ele>1473.0</ele>
        <time>2018-08-13T13:51:30Z</time>
      </trkpt>
      <trkpt lat="40.646417" lon="-4.711317">
        <ele>1475.0</ele>
        <time>2018-08-13T13:51:31Z</time>
      </trkpt>
      <trkpt lat="40.646483" lon="-4.711283">
        <ele>1476.0</ele>
        <time>2018-08-13T13:51:32Z</time>
      </trkpt>
      <trkpt lat="40.646517" lon="-4.711267">
        <ele>1476.0</ele>
        <time>2018-08-13T13:51:33Z</time>
      </trkpt>
      <trkpt lat="40.646517" lon="-4.711267">
        <ele>1474.0</ele>
        <time>2018-08-13T13:51:34Z</time>
      </trkpt>
      <trkpt lat="40.646517" lon="-4.711283">
        <ele>1470.0</ele>
        <time>2018-08-13T13:51:35Z</time>
      </trkpt>
      <trkpt lat="40.646500" lon="-4.711333">
        <ele>1467.0</ele>
        <time>2018-08-13T13:51:36Z</time>
      </trkpt>
      <trkpt lat="40.646467" lon="-4.711400">
        <ele>1465.0</ele>
        <time>2018-08-13T13:51:37Z</time>
      </trkpt>
      <trkpt lat="40.646400" lon="-4.711433">
        <ele>1462.0</ele>
        <time>2018-08-13T13:51:38Z</time>
      </trkpt>
      <trkpt lat="40.646300" lon="-4.711450">
        <ele>1460.0</ele>
        <time>2018-08-13T13:51:39Z</time>
      </trkpt>
      <trkpt lat="40.646167" lon="-4.711400">
        <ele>1457.0</ele>
        <time>2018-08-13T13:51:40Z</time>
      </trkpt>
      <trkpt lat="40.646033" lon="-4.711283">
        <ele>1453.0</ele>
        <time>2018-08-13T13:51:41Z</time>
      </trkpt>
      <trkpt lat="40.645917" lon="-4.711117">
        <ele>1450.0</ele>
        <time>2018-08-13T13:51:42Z</time>
      </trkpt>
      <trkpt lat="40.645850" lon="-4.710900">
        <ele>1448.0</ele>
        <time>2018-08-13T13:51:43Z</time>
      </trkpt>
      <trkpt lat="40.645833" lon="-4.710683">
        <ele>1445.0</ele>
        <time>2018-08-13T13:51:44Z</time>
      </trkpt>
      <trkpt lat="40.645867" lon="-4.710500">
        <ele>1443.0</ele>
        <time>2018-08-13T13:51:45Z</time>
      </trkpt>
      <trkpt lat="40.645917" lon="-4.710350">
        <ele>1440.0</ele>
        <time>2018-08-13T13:51:46Z</time>
      </trkpt>
      <trkpt lat="40.645967" lon="-4.710267">
        <ele>1439.0</ele>
        <time>2018-08-13T13:51:47Z</time>
      </trkpt>
      <trkpt lat="40.646017" lon="-4.710233">
        <ele>1436.0</ele>
        <time>2018-08-13T13:51:48Z</time>
      </trkpt>
      <trkpt lat="40.646050" lon="-4.710233">
        <ele>1434.0</ele>
        <time>2018-08-13T13:51:49Z</time>
      </trkpt>
      <trkpt lat="40.646050" lon="-4.710267">
        <ele>1432.0</ele>
        <time>2018-08-13T13:51:50Z</time>
      </trkpt>
      <trkpt lat="40.646033" lon="-4.710317">
        <ele>1429.0</ele>
        <time>2018-08-13T13:51:51Z</time>
      </trkpt>
      <trkpt lat="40.645967" lon="-4.710367">
        <ele>1426.0</ele>
        <time>2018-08-13T13:51:52Z</time>
      </trkpt>
      <trkpt lat="40.645850" lon="-4.710367">
        <ele>1422.0</ele>
        <time>2018-08-13T13:51:53Z</time>
      </trkpt>
      <trkpt lat="40.645717" lon="-4.710333">
        <ele>1418.0</ele>
        <time>2018-08-13T13:51:54Z</time>
      </trkpt>
      <trkpt lat="40.645583" lon="-4.710250">
        <ele>1414.0</ele>
        <time>2018-08-13T13:51:55Z</time>
      </trkpt>
      <trkpt lat="40.645467" lon="-4.710100">
        <ele>1410.0</ele>
        <time>2018-08-13T13:51:56Z</time>
      </trkpt>
      <trkpt lat="40.645383" lon="-4.709917">
        <ele>1407.0</ele>
        <time>2018-08-13T13:51:57Z</time>
      </trkpt>
      <trkpt lat="40.645367" lon="-4.709733">
        <ele>1404.0</ele>
        <time>2018-08-13T13:51:58Z</time>
      </trkpt>
      <trkpt lat="40.645383" lon="-4.709550">
        <ele>1401.0</ele>
        <time>2018-08-13T13:51:59Z</time>
      </trkpt>
      <trkpt lat="40.645433" lon="-4.709417">
        <ele>1397.0</ele>
        <time>2018-08-13T13:52:00Z</time>
      </trkpt>
      <trkpt lat="40.645500" lon="-4.709367">
        <ele>1392.0</ele>
        <time>2018-08-13T13:52:01Z</time>
      </trkpt>
      <trkpt lat="40.645567" lon="-4.709367">
        <ele>1388.0</ele>
        <time>2018-08-13T13:52:02Z</time>
      </trkpt>
      <trkpt lat="40.645583" lon="-4.709417">
        <ele>1384.0</ele>
        <time>2018-08-13T13:52:03Z</time>
      </trkpt>
      <trkpt lat="40.645533" lon="-4.709500">
        <ele>1381.0</ele>
        <time>2018-08-13T13:52:04Z</time>
      </trkpt>
      <trkpt lat="40.645433" lon="-4.709550">
        <ele>1378.0</ele>
        <time>2018-08-13T13:52:05Z</time>
      </trkpt>
      <trkpt lat="40.645300" lon="-4.709567">
        <ele>1374.0</ele>
        <time>2018-08-13T13:52:06Z</time>
      </trkpt>
      <trkpt lat="40.645133" lon="-4.709500">
        <ele>1370.0</ele>
        <time>2018-08-13T13:52:07Z</time>
      </trkpt>
      <trkpt lat="40.645000" lon="-4.709350">
        <ele>1366.0</ele>
        <time>2018-08-13T13:52:08Z</time>
      </trkpt>
      <trkpt lat="40.644900" lon="-4.709150">
        <ele>1362.0</ele>
        <time>2018-08-13T13:52:09Z</time>
      </trkpt>
      <trkpt lat="40.644867" lon="-4.708933">
        <ele>1358.0</ele>
        <time>2018-08-13T13:52:10Z</time>
      </trkpt>
      <trkpt lat="40.644883" lon="-4.708750">
        <ele>1354.0</ele>
        <time>2018-08-13T13:52:11Z</time>
      </trkpt>
      <trkpt lat="40.644933" lon="-4.708633">
        <ele>1351.0</ele>
        <time>2018-08-13T13:52:12Z</time>
      </trkpt>
      <trkpt lat="40.644983" lon="-4.708567">
        <ele>1348.0</ele>
        <time>2018-08-13T13:52:13Z</time>
      </trkpt>
      <trkpt lat="40.645033" lon="-4.708550">
        <ele>1346.0</ele>
        <time>2018-08-13T13:52:14Z</time>
      </trkpt>
      <trkpt lat="40.645050" lon="-4.708583">
        <ele>1344.0</ele>
        <time>2018-08-13T13:52:15Z</time>
      </trkpt>
      <trkpt lat="40.645033" lon="-4.708600">
        <ele>1340.0</ele>
        <time>2018-08-13T13:52:16Z</time>
      </trkpt>
      <trkpt lat="40.645033" lon="-4.708633">
        <ele>1337.0</ele>
        <time>2018-08-13T13:52:17Z</time>
      </trkpt>
      <trkpt lat="40.645017" lon="-4.708667">
        <ele>1337.0</ele>
        <time>2018-08-13T13:52:18Z</time>
      </trkpt>
      <trkpt lat="40.645017" lon="-4.708717">
        <ele>1334.0</ele>
        <time>2018-08-13T13:52:19Z</time>
      </trkpt>
      <trkpt lat="40.645017" lon="-4.708783">
        <ele>1330.0</ele>
        <time>2018-08-13T13:52:20Z</time>
      </trkpt>
      <trkpt lat="40.645033" lon="-4.708833">
        <ele>1327.0</ele>
        <time>2018-08-13T13:52:21Z</time>
      </trkpt>
      <trkpt lat="40.645033" lon="-4.708883">
        <ele>1324.0</ele>
        <time>2018-08-13T13:52:22Z</time>
      </trkpt>
      <trkpt lat="40.645050" lon="-4.708933">
        <ele>1323.0</ele>
        <time>2018-08-13T13:52:23Z</time>
      </trkpt>
      <trkpt lat="40.645067" lon="-4.708967">
        <ele>1321.0</ele>
        <time>2018-08-13T13:52:24Z</time>
      </trkpt>
      <trkpt lat="40.645083" lon="-4.708983">
        <ele>1321.0</ele>
        <time>2018-08-13T13:52:25Z</time>
      </trkpt>
      <trkpt lat="40.645100" lon="-4.709000">
        <ele>1319.0</ele>
        <time>2018-08-13T13:52:26Z</time>
      </trkpt>
      <trkpt lat="40.645117" lon="-4.709000">
        <ele>1318.0</ele>
        <time>2018-08-13T13:52:27Z</time>
      </trkpt>
      <trkpt lat="40.645133" lon="-4.709033">
        <ele>1317.0</ele>
        <time>2018-08-13T13:52:28Z</time>
      </trkpt>
      <trkpt lat="40.645150" lon="-4.709067">
        <ele>1316.0</ele>
        <time>2018-08-13T13:52:29Z</time>
      </trkpt>
      <trkpt lat="40.645167" lon="-4.709133">
        <ele>1315.0</ele>
        <time>2018-08-13T13:52:30Z</time>
      </trkpt>
      <trkpt lat="40.645183" lon="-4.709183">
        <ele>1313.0</ele>
        <time>2018-08-13T13:52:31Z</time>
      </trkpt>
      <trkpt lat="40.645217" lon="-4.709233">
        <ele>1313.0</ele>
        <time>2018-08-13T13:52:32Z</time>
      </trkpt>
      <trkpt lat="40.645233" lon="-4.709267">
        <ele>1313.0</ele>
        <time>2018-08-13T13:52:33Z</time>
      </trkpt>
      <trkpt lat="40.645250" lon="-4.709283">
        <ele>1313.0</ele>
        <time>2018-08-13T13:52:34Z</time>
      </trkpt>
      <trkpt lat="40.645267" lon="-4.709300">
        <ele>1312.0</ele>
        <time>2018-08-13T13:52:35Z</time>
      </trkpt>
      <trkpt lat="40.645267" lon="-4.709333">
        <ele>1311.0</ele>
        <time>2018-08-13T13:52:36Z</time>
      </trkpt>
      <trkpt lat="40.645283" lon="-4.709367">
        <ele>1309.0</ele>
        <time>2018-08-13T13:52:37Z</time>
      </trkpt>
      <trkpt lat="40.645300" lon="-4.709417">
        <ele>1308.0</ele>
        <time>2018-08-13T13:52:38Z</time>
      </trkpt>
      <trkpt lat="40.645333" lon="-4.709450">
        <ele>1306.0</ele>
        <time>2018-08-13T13:52:39Z</time>
      </trkpt>
      <trkpt lat="40.645350" lon="-4.709467">
        <ele>1306.0</ele>
        <time>2018-08-13T13:52:40Z</time>
      </trkpt>
      <trkpt lat="40.645367" lon="-4.709483">
        <ele>1307.0</ele>
        <time>2018-08-13T13:52:41Z</time>
      </trkpt>
      <trkpt lat="40.645367" lon="-4.709500">
        <ele>1307.0</ele>
        <time>2018-08-13T13:52:42Z</time>
      </trkpt>
      <trkpt lat="40.645367" lon="-4.709517">
        <ele>1305.0</ele>
        <time>2018-08-13T13:52:43Z</time>
      </trkpt>
      <trkpt lat="40.645400" lon="-4.709533">
        <ele>1304.0</ele>
        <time>2018-08-13T13:52:44Z</time>
      </trkpt>
      <trkpt lat="40.645417" lon="-4.709550">
        <ele>1301.0</ele>
        <time>2018-08-13T13:52:45Z</time>
      </trkpt>
      <trkpt lat="40.645450" lon="-4.709567">
        <ele>1298.0</ele>
        <time>2018-08-13T13:52:46Z</time>
      </trkpt>
      <trkpt lat="40.645467" lon="-4.709600">
        <ele>1297.0</ele>
        <time>2018-08-13T13:52:47Z</time>
      </trkpt>
      <trkpt lat="40.645483" lon="-4.709617">
        <ele>1295.0</ele>
        <time>2018-08-13T13:52:48Z</time>
      </trkpt>
      <trkpt lat="40.645500" lon="-4.709650">
        <ele>1291.0</ele>
        <time>2018-08-13T13:52:49Z</time>
      </trkpt>
      <trkpt lat="40.645517" lon="-4.709683">
        <ele>1288.0</ele>
        <time>2018-08-13T13:52:50Z</time>
      </trkpt>
      <trkpt lat="40.645533" lon="-4.709717">
        <ele>1286.0</ele>
        <time>2018-08-13T13:52:51Z</time>
      </trkpt>
      <trkpt lat="40.645550" lon="-4.709750">
        <ele>1284.0</ele>
        <time>2018-08-13T13:52:52Z</time>
      </trkpt>
      <trkpt lat="40.645583" lon="-4.709783">
        <ele>1283.0</ele>
        <time>2018-08-13T13:52:53Z</time>
      </trkpt>
      <trkpt lat="40.645600" lon="-4.709800">
        <ele>1282.0</ele>
        <time>2018-08-13T13:52:54Z</time>
      </trkpt>
      <trkpt lat="40.645617" lon="-4.709800">
        <ele>1281.0</ele>
        <time>2018-08-13T13:52:55Z</time>
      </trkpt>
      <trkpt lat="40.645650" lon="-4.709817">
        <ele>1280.0</ele>
        <time>2018-08-13T13:52:56Z</time>
      </trkpt>
      <trkpt lat="40.645667" lon="-4.709833">
        <ele>1278.0</ele>
        <time>2018-08-13T13:52:57Z</time>
      </trkpt>
      <trkpt lat="40.645683" lon="-4.709867">
        <ele>1277.0</ele>
        <time>2018-08-13T13:52:58Z</time>
      </trkpt>
      <trkpt lat="40.645700" lon="-4.709883">
        <ele>1276.0</ele>
        <time>2018-08-13T13:52:59Z</time>
      </trkpt>
      <trkpt lat="40.645717" lon="-4.709917">
        <ele>1274.0</ele>
        <time>2018-08-13T13:53:00Z</time>
      </trkpt>
      <trkpt lat="40.645733" lon="-4.709933">
        <ele>1271.0</ele>
        <time>2018-08-13T13:53:01Z</time>
      </trkpt>
      <trkpt lat="40.645750" lon="-4.709950">
        <ele>1269.0</ele>
        <time>2018-08-13T13:53:02Z</time>
      </trkpt>
      <trkpt lat="40.645783" lon="-4.709967">
        <ele>1268.0</ele>
        <time>2018-08-13T13:53:03Z</time>
      </trkpt>
      <trkpt lat="40.645817" lon="-4.709983">
        <ele>1267.0</ele>
        <time>2018-08-13T13:53:04Z</time>
      </trkpt>
      <trkpt lat="40.645833" lon="-4.709983">
        <ele>1266.0</ele>
        <time>2018-08-13T13:53:05Z</time>
      </trkpt>
      <trkpt lat="40.645850" lon="-4.709983">
        <ele>1264.0</ele>
        <time>2018-08-13T13:53:06Z</time>
      </trkpt>
      <trkpt lat="40.645867" lon="-4.709983">
        <ele>1263.0</ele>
        <time>2018-08-13T13:53:07Z</time>
      </trkpt>
      <trkpt lat="40.645900" lon="-4.709967">
        <ele>1261.0</ele>
        <time>2018-08-13T13:53:08Z</time>
      </trkpt>
      <trkpt lat="40.645917" lon="-4.709933">
        <ele>1260.0</ele>
        <time>2018-08-13T13:53:09Z</time>
      </trkpt>
      <trkpt lat="40.645950" lon="-4.709917">
        <ele>1257.0</ele>
        <time>2018-08-13T13:53:10Z</time>
      </trkpt>
      <trkpt lat="40.646000" lon="-4.709883">
        <ele>1254.0</ele>
        <time>2018-08-13T13:53:11Z</time>
      </trkpt>
      <trkpt lat="40.646033" lon="-4.709867">
        <ele>1252.0</ele>
        <time>2018-08-13T13:53:12Z</time>
      </trkpt>
      <trkpt lat="40.646083" lon="-4.709850">
        <ele>1251.0</ele>
        <time>2018-08-13T13:53:13Z</time>
      </trkpt>
      <trkpt lat="40.646117" lon="-4.709833">
        <ele>1251.0</ele>
        <time>2018-08-13T13:53:14Z</time>
      </trkpt>
      <trkpt lat="40.646150" lon="-4.709800">
        <ele>1250.0</ele>
        <time>2018-08-13T13:53:15Z</time>
      </trkpt>
      <trkpt lat="40.646167" lon="-4.709750">
        <ele>1248.0</ele>
        <time>2018-08-13T13:53:16Z</time>
      </trkpt>
      <trkpt lat="40.646200" lon="-4.709717">
        <ele>1245.0</ele>
        <time>2018-08-13T13:53:17Z</time>
      </trkpt>
      <trkpt lat="40.646250" lon="-4.709683">
        <ele>1242.0</ele>
        <time>2018-08-13T13:53:18Z</time>
      </trkpt>
      <trkpt lat="40.646283" lon="-4.709667">
        <ele>1238.0</ele>
        <time>2018-08-13T13:53:19Z</time>
      </trkpt>
      <trkpt lat="40.646317" lon="-4.709633">
        <ele>1234.0</ele>
        <time>2018-08-13T13:53:20Z</time>
      </trkpt>
      <trkpt lat="40.646367" lon="-4.709617">
        <ele>1231.0</ele>
        <time>2018-08-13T13:53:21Z</time>
      </trkpt>
      <trkpt lat="40.646417" lon="-4.709583">
        <ele>1227.0</ele>
        <time>2018-08-13T13:53:22Z</time>
      </trkpt>
      <trkpt lat="40.646467" lon="-4.709567">
        <ele>1225.0</ele>
        <time>2018-08-13T13:53:23Z</time>
      </trkpt>
      <trkpt lat="40.646517" lon="-4.709533">
        <ele>1223.0</ele>
        <time>2018-08-13T13:53:24Z</time>
      </trkpt>
      <trkpt lat="40.646550" lon="-4.709500">
        <ele>1221.0</ele>
        <time>2018-08-13T13:53:25Z</time>
      </trkpt>
      <trkpt lat="40.646583" lon="-4.709483">
        <ele>1219.0</ele>
        <time>2018-08-13T13:53:26Z</time>
      </trkpt>
      <trkpt lat="40.646600" lon="-4.709450">
        <ele>1217.0</ele>
        <time>2018-08-13T13:53:27Z</time>
      </trkpt>
      <trkpt lat="40.646633" lon="-4.709450">
        <ele>1213.0</ele>
        <time>2018-08-13T13:53:28Z</time>
      </trkpt>
      <trkpt lat="40.646683" lon="-4.709433">
        <ele>1209.0</ele>
        <time>2018-08-13T13:53:29Z</time>
      </trkpt>
      <trkpt lat="40.646733" lon="-4.709417">
        <ele>1205.0</ele>
        <time>2018-08-13T13:53:30Z</time>
      </trkpt>
      <trkpt lat="40.646800" lon="-4.709383">
        <ele>1202.0</ele>
        <time>2018-08-13T13:53:31Z</time>
      </trkpt>
      <trkpt lat="40.646850" lon="-4.709350">
        <ele>1200.0</ele>
        <time>2018-08-13T13:53:32Z</time>
      </trkpt>
      <trkpt lat="40.646900" lon="-4.709300">
        <ele>1199.0</ele>
        <time>2018-08-13T13:53:33Z</time>
      </trkpt>
      <trkpt lat="40.646950" lon="-4.709250">
        <ele>1197.0</ele>
        <time>2018-08-13T13:53:34Z</time>
      </trkpt>
      <trkpt lat="40.646967" lon="-4.709183">
        <ele>1195.0</ele>
        <time>2018-08-13T13:53:35Z</time>
      </trkpt>
      <trkpt lat="40.647000" lon="-4.709117">
        <ele>1192.0</ele>
        <time>2018-08-13T13:53:36Z</time>
      </trkpt>
      <trkpt lat="40.647033" lon="-4.709050">
        <ele>1190.0</ele>
        <time>2018-08-13T13:53:37Z</time>
      </trkpt>
      <trkpt lat="40.647067" lon="-4.709017">
        <ele>1188.0</ele>
        <time>2018-08-13T13:53:38Z</time>
      </trkpt>
      <trkpt lat="40.647100" lon="-4.709000">
        <ele>1185.0</ele>
        <time>2018-08-13T13:53:39Z</time>
      </trkpt>
      <trkpt lat="40.647150" lon="-4.708983">
        <ele>1183.0</ele>
        <time>2018-08-13T13:53:40Z</time>
      </trkpt>
      <trkpt lat="40.647200" lon="-4.708967">
        <ele>1181.0</ele>
        <time>2018-08-13T13:53:41Z</time>
      </trkpt>
      <trkpt lat="40.647250" lon="-4.708933">
        <ele>1181.0</ele>
        <time>2018-08-13T13:53:42Z</time>
      </trkpt>
      <trkpt lat="40.647283" lon="-4.708900">
        <ele>1180.0</ele>
        <time>2018-08-13T13:53:43Z</time>
      </trkpt>
      <trkpt lat="40.647317" lon="-4.708833">
        <ele>1179.0</ele>
        <time>2018-08-13T13:53:44Z</time>
      </trkpt>
      <trkpt lat="40.647333" lon="-4.708767">
        <ele>1177.0</ele>
        <time>2018-08-13T13:53:45Z</time>
      </trkpt>
      <trkpt lat="40.647367" lon="-4.708683">
        <ele>1175.0</ele>
        <time>2018-08-13T13:53:46Z</time>
      </trkpt>
      <trkpt lat="40.647383" lon="-4.708617">
        <ele>1173.0</ele>
        <time>2018-08-13T13:53:47Z</time>
      </trkpt>
      <trkpt lat="40.647417" lon="-4.708550">
        <ele>1170.0</ele>
        <time>2018-08-13T13:53:48Z</time>
      </trkpt>
      <trkpt lat="40.647450" lon="-4.708467">
        <ele>1168.0</ele>
        <time>2018-08-13T13:53:49Z</time>
      </trkpt>
      <trkpt lat="40.647483" lon="-4.708383">
        <ele>1167.0</ele>
        <time>2018-08-13T13:53:50Z</time>
      </trkpt>
      <trkpt lat="40.647517" lon="-4.708300">
        <ele>1165.0</ele>
        <time>2018-08-13T13:53:51Z</time>
      </trkpt>
      <trkpt lat="40.647567" lon="-4.708250">
        <ele>1163.0</ele>
        <time>2018-08-13T13:53:52Z</time>
      </trkpt>
      <trkpt lat="40.647617" lon="-4.708183">
        <ele>1161.0</ele>
        <time>2018-08-13T13:53:53Z</time>
      </trkpt>
      <trkpt lat="40.647667" lon="-4.708150">
        <ele>1158.0</ele>
        <time>2018-08-13T13:53:54Z</time>
      </trkpt>
      <trkpt lat="40.647733" lon="-4.708133">
        <ele>1156.0</ele>
        <time>2018-08-13T13:53:55Z</time>
      </trkpt>
      <trkpt lat="40.647800" lon="-4.708133">
        <ele>1154.0</ele>
        <time>2018-08-13T13:53:56Z</time>
      </trkpt>
      <trkpt lat="40.647867" lon="-4.708150">
        <ele>1153.0</ele>
        <time>2018-08-13T13:53:57Z</time>
      </trkpt>
      <trkpt lat="40.647917" lon="-4.708200">
        <ele>1152.0</ele>
        <time>2018-08-13T13:53:58Z</time>
      </trkpt>
      <trkpt lat="40.647967" lon="-4.708267">
        <ele>1152.0</ele>
        <time>2018-08-13T13:53:59Z</time>
      </trkpt>
      <trkpt lat="40.648000" lon="-4.708350">
        <ele>1152.0</ele>
        <time>2018-08-13T13:54:00Z</time>
      </trkpt>
      <trkpt lat="40.648033" lon="-4.708433">
        <ele>1152.0</ele>
        <time>2018-08-13T13:54:01Z</time>
      </trkpt>
      <trkpt lat="40.648050" lon="-4.708533">
        <ele>1151.0</ele>
        <time>2018-08-13T13:54:02Z</time>
      </trkpt>
      <trkpt lat="40.648067" lon="-4.708617">
        <ele>1151.0</ele>
        <time>2018-08-13T13:54:03Z</time>
      </trkpt>
      <trkpt lat="40.648083" lon="-4.708683">
        <ele>1149.0</ele>
        <time>2018-08-13T13:54:04Z</time>
      </trkpt>
      <trkpt lat="40.648100" lon="-4.708750">
        <ele>1148.0</ele>
        <time>2018-08-13T13:54:05Z</time>
      </trkpt>
      <trkpt lat="40.648133" lon="-4.708817">
        <ele>1146.0</ele>
        <time>2018-08-13T13:54:06Z</time>
      </trkpt>
      <trkpt lat="40.648167" lon="-4.708900">
        <ele>1145.0</ele>
        <time>2018-08-13T13:54:07Z</time>
      </trkpt>
      <trkpt lat="40.648217" lon="-4.708967">
        <ele>1144.0</ele>
        <time>2018-08-13T13:54:08Z</time>
      </trkpt>
      <trkpt lat="40.648267" lon="-4.709033">
        <ele>1143.0</ele>
        <time>2018-08-13T13:54:09Z</time>
      </trkpt>
      <trkpt lat="40.648300" lon="-4.709083">
        <ele>1143.0</ele>
        <time>2018-08-13T13:54:10Z</time>
      </trkpt>
      <trkpt lat="40.648317" lon="-4.709133">
        <ele>1142.0</ele>
        <time>2018-08-13T13:54:11Z</time>
      </trkpt>
      <trkpt lat="40.648350" lon="-4.709183">
        <ele>1140.0</ele>
        <time>2018-08-13T13:54:12Z</time>
      </trkpt>
      <trkpt lat="40.648400" lon="-4.709233">
        <ele>1138.0</ele>
        <time>2018-08-13T13:54:13Z</time>
      </trkpt>
      <trkpt lat="40.648450" lon="-4.709250">
        <ele>1136.0</ele>
        <time>2018-08-13T13:54:14Z</time>
      </trkpt>
      <trkpt lat="40.648500" lon="-4.709250">
        <ele>1133.0</ele>
        <time>2018-08-13T13:54:15Z</time>
      </trkpt>
      <trkpt lat="40.648550" lon="-4.709233">
        <ele>1132.0</ele>
        <time>2018-08-13T13:54:16Z</time>
      </trkpt>
      <trkpt lat="40.648583" lon="-4.709183">
        <ele>1129.0</ele>
        <time>2018-08-13T13:54:17Z</time>
      </trkpt>
      <trkpt lat="40.648600" lon="-4.709100">
        <ele>1127.0</ele>
        <time>2018-08-13T13:54:18Z</time>
      </trkpt>
      <trkpt lat="40.648617" lon="-4.709017">
        <ele>1125.0</ele>
        <time>2018-08-13T13:54:19Z</time>
      </trkpt>
      <trkpt lat="40.648617" lon="-4.708917">
        <ele>1124.0</ele>
        <time>2018-08-13T13:54:20Z</time>
      </trkpt>
      <trkpt lat="40.648633" lon="-4.708833">
        <ele>1123.0</ele>
        <time>2018-08-13T13:54:21Z</time>
      </trkpt>
      <trkpt lat="40.648633" lon="-4.708733">
        <ele>1123.0</ele>
        <time>2018-08-13T13:54:22Z</time>
      </trkpt>
      <trkpt lat="40.648633" lon="-4.708650">
        <ele>1122.0</ele>
        <time>2018-08-13T13:54:23Z</time>
      </trkpt>
      <trkpt lat="40.648617" lon="-4.708550">
        <ele>1120.0</ele>
        <time>2018-08-13T13:54:24Z</time>
      </trkpt>
      <trkpt lat="40.648600" lon="-4.708467">
        <ele>1118.0</ele>
        <time>2018-08-13T13:54:25Z</time>
      </trkpt>
      <trkpt lat="40.648617" lon="-4.708383">
        <ele>1114.0</ele>
        <time>2018-08-13T13:54:26Z</time>
      </trkpt>
      <trkpt lat="40.648650" lon="-4.708317">
        <ele>1109.0</ele>
        <time>2018-08-13T13:54:27Z</time>
      </trkpt>
      <trkpt lat="40.648733" lon="-4.708283">
        <ele>1106.0</ele>
        <time>2018-08-13T13:54:28Z</time>
      </trkpt>
      <trkpt lat="40.648817" lon="-4.708300">
        <ele>1105.0</ele>
        <time>2018-08-13T13:54:29Z</time>
      </trkpt>
      <trkpt lat="40.648883" lon="-4.708350">
        <ele>1107.0</ele>
        <time>2018-08-13T13:54:30Z</time>
      </trkpt>
      <trkpt lat="40.648900" lon="-4.708433">
        <ele>1108.0</ele>
        <time>2018-08-13T13:54:31Z</time>
      </trkpt>
      <trkpt lat="40.648900" lon="-4.708483">
        <ele>1109.0</ele>
        <time>2018-08-13T13:54:32Z</time>
      </trkpt>
      <trkpt lat="40.648917" lon="-4.708533">
        <ele>1108.0</ele>
        <time>2018-08-13T13:54:33Z</time>
      </trkpt>
      <trkpt lat="40.648933" lon="-4.708600">
        <ele>1106.0</ele>
        <time>2018-08-13T13:54:34Z</time>
      </trkpt>
      <trkpt lat="40.648950" lon="-4.708650">
        <ele>1104.0</ele>
        <time>2018-08-13T13:54:35Z</time>
      </trkpt>
      <trkpt lat="40.648983" lon="-4.708750">
        <ele>1102.0</ele>
        <time>2018-08-13T13:54:36Z</time>
      </trkpt>
      <trkpt lat="40.649000" lon="-4.708833">
        <ele>1100.0</ele>
        <time>2018-08-13T13:54:37Z</time>
      </trkpt>
      <trkpt lat="40.649033" lon="-4.708933">
        <ele>1099.0</ele>
        <time>2018-08-13T13:54:38Z</time>
      </trkpt>
      <trkpt lat="40.649050" lon="-4.709017">
        <ele>1098.0</ele>
        <time>2018-08-13T13:54:39Z</time>
      </trkpt>
      <trkpt lat="40.649083" lon="-4.709083">
        <ele>1097.0</ele>
        <time>2018-08-13T13:54:40Z</time>
      </trkpt>
      <trkpt lat="40.649117" lon="-4.709133">
        <ele>1096.0</ele>
        <time>2018-08-13T13:54:41Z</time>
      </trkpt>
      <trkpt lat="40.649150" lon="-4.709167">
        <ele>1095.0</ele>
        <time>2018-08-13T13:54:42Z</time>
      </trkpt>
      <trkpt lat="40.649183" lon="-4.709183">
        <ele>1092.0</ele>
        <time>2018-08-13T13:54:43Z</time>
      </trkpt>
      <trkpt lat="40.649233" lon="-4.709217">
        <ele>1090.0</ele>
        <time>2018-08-13T13:54:44Z</time>
      </trkpt>
      <trkpt lat="40.649300" lon="-4.709267">
        <ele>1088.0</ele>
        <time>2018-08-13T13:54:45Z</time>
      </trkpt>
      <trkpt lat="40.649333" lon="-4.709333">
        <ele>1088.0</ele>
        <time>2018-08-13T13:54:46Z</time>
      </trkpt>
      <trkpt lat="40.649383" lon="-4.709367">
        <ele>1087.0</ele>
        <time>2018-08-13T13:54:47Z</time>
      </trkpt>
      <trkpt lat="40.649433" lon="-4.709383">
        <ele>1087.0</ele>
        <time>2018-08-13T13:54:48Z</time>
      </trkpt>
      <trkpt lat="40.649483" lon="-4.709383">
        <ele>1085.0</ele>
        <time>2018-08-13T13:54:49Z</time>
      </trkpt>
      <trkpt lat="40.649533" lon="-4.709367">
        <ele>1083.0</ele>
        <time>2018-08-13T13:54:50Z</time>
      </trkpt>
      <trkpt lat="40.649600" lon="-4.709350">
        <ele>1082.0</ele>
        <time>2018-08-13T13:54:51Z</time>
      </trkpt>
      <trkpt lat="40.649667" lon="-4.709333">
        <ele>1080.0</ele>
        <time>2018-08-13T13:54:52Z</time>
      </trkpt>
      <trkpt lat="40.649717" lon="-4.709317">
        <ele>1079.0</ele>
        <time>2018-08-13T13:54:53Z</time>
      </trkpt>
      <trkpt lat="40.649767" lon="-4.709317">
        <ele>1078.0</ele>
        <time>2018-08-13T13:54:54Z</time>
      </trkpt>
      <trkpt lat="40.649800" lon="-4.709317">
        <ele>1077.0</ele>
        <time>2018-08-13T13:54:55Z</time>
      </trkpt>
      <trkpt lat="40.649817" lon="-4.709317">
        <ele>1077.0</ele>
        <time>2018-08-13T13:54:56Z</time>
      </trkpt>
      <trkpt lat="40.649817" lon="-4.709317">
        <ele>1077.0</ele>
        <time>2018-08-13T13:54:57Z</time>
      </trkpt>
      <trkpt lat="40.649817" lon="-4.709317">
        <ele>1077.0</ele>
        <time>2018-08-13T13:54:58Z</time>
      </trkpt>
      <trkpt lat="40.649817" lon="-4.709317">
        <ele>1076.0</ele>
        <time>2018-08-13T13:54:59Z</time>
      </trkpt>
      <trkpt lat="40.649817" lon="-4.709317">
        <ele>1076.0</ele>
        <time>2018-08-13T13:55:00Z</time>
      </trkpt>
      <trkpt lat="40.649817" lon="-4.709317">
        <ele>1076.0</ele>
        <time>2018-08-13T13:55:01Z</time>
      </trkpt>
      <trkpt lat="40.649817" lon="-4.709333">
        <ele>1076.0</ele>
        <time>2018-08-13T13:55:02Z</time>
      </trkpt>
      <trkpt lat="40.649800" lon="-4.709350">
        <ele>1077.0</ele>
        <time>2018-08-13T13:55:03Z</time>
      </trkpt>
      <trkpt lat="40.649800" lon="-4.709350">
        <ele>1077.0</ele>
        <time>2018-08-13T13:55:04Z</time>
      </trkpt>
      <trkpt lat="40.649800" lon="-4.709350">
        <ele>1077.0</ele>
        <time>2018-08-13T13:55:05Z</time>
      </trkpt>
      <trkpt lat="40.649800" lon="-4.709350">
        <ele>1077.0</ele>
        <time>2018-08-13T13:55:06Z</time>
      </trkpt>
      <trkpt lat="40.649800" lon="-4.709350">
        <ele>1077.0</ele>
        <time>2018-08-13T13:55:07Z</time>
      </trkpt>
      <trkpt lat="40.649800" lon="-4.709350">
        <ele>1077.0</ele>
        <time>2018-08-13T13:55:08Z</time>
      </trkpt>
      <trkpt lat="40.649800" lon="-4.709350">
        <ele>1076.0</ele>
        <time>2018-08-13T13:55:09Z</time>
      </trkpt>
      <trkpt lat="40.649800" lon="-4.709350">
        <ele>1075.0</ele>
        <time>2018-08-13T13:55:10Z</time>
      </trkpt>
      <trkpt lat="40.649800" lon="-4.709350">
        <ele>1075.0</ele>
        <time>2018-08-13T13:55:11Z</time>
      </trkpt>
      <trkpt lat="40.649800" lon="-4.709367">
        <ele>1075.0</ele>
        <time>2018-08-13T13:55:12Z</time>
      </trkpt>
      <trkpt lat="40.649800" lon="-4.709367">
        <ele>1074.0</ele>
        <time>2018-08-13T13:55:13Z</time>
      </trkpt>
      <trkpt lat="40.649800" lon="-4.709367">
        <ele>1074.0</ele>
        <time>2018-08-13T13:55:14Z</time>
      </trkpt>
      <trkpt lat="40.649800" lon="-4.709367">
        <ele>1074.0</ele>
        <time>2018-08-13T13:55:15Z</time>
      </trkpt>
      <trkpt lat="40.649800" lon="-4.709350">
        <ele>1074.0</ele>
        <time>2018-08-13T13:55:16Z</time>
      </trkpt>
      <trkpt lat="40.649800" lon="-4.709350">
        <ele>1074.0</ele>
        <time>2018-08-13T13:55:17Z</time>
      </trkpt>
      <trkpt lat="40.649800" lon="-4.709350">
        <ele>1074.0</ele>
        <time>2018-08-13T13:55:18Z</time>
      </trkpt>
      <trkpt lat="40.649800" lon="-4.709350">
        <ele>1074.0</ele>
        <time>2018-08-13T13:55:19Z</time>
      </trkpt>
      <trkpt lat="40.649800" lon="-4.709350">
        <ele>1075.0</ele>
        <time>2018-08-13T13:55:20Z</time>
      </trkpt>
      <trkpt lat="40.649800" lon="-4.709350">
        <ele>1075.0</ele>
        <time>2018-08-13T13:55:21Z</time>
      </trkpt>
      <trkpt lat="40.649800" lon="-4.709350">
        <ele>1075.0</ele>
        <time>2018-08-13T13:55:22Z</time>
      </trkpt>
    </trkseg>
  </trk>
</gpx>
